<?xml version="1.0" encoding="UTF-8" standalone="no" ?>
<gpx xmlns="http://www.topografix.com/GPX/1/1" xmlns:xsi="http://www.w3.org/2001/XMLSchema-instance" xsi:schemaLocation="http://www.topografix.com/GPX/1/1 http://www.topografix.com/GPX/1/1/gpx.xsd" version="1.1" creator="VisuGPX - https://www.visugpx.com">
  <metadata>
    <name>20190219113516-ED8X7</name>
    <desc><![CDATA[

]]></desc>
  </metadata>
  <trk>
    <name><![CDATA[20190219113516-ED8X7]]></name>
    <trkseg>
      <trkpt lat="46.83333" lon="0.4052">
        <ele>164</ele>
        <time>2019-02-03T08:29:46.000Z</time>
      </trkpt>
      <trkpt lat="46.83333" lon="0.4052">
        <ele>164</ele>
        <time>2019-02-03T08:29:46.000Z</time>
      </trkpt>
      <trkpt lat="46.83333" lon="0.40519">
        <ele>168</ele>
        <time>2019-02-03T08:29:47.000Z</time>
      </trkpt>
      <trkpt lat="46.83333" lon="0.40518">
        <ele>168</ele>
        <time>2019-02-03T08:29:48.000Z</time>
      </trkpt>
      <trkpt lat="46.83333" lon="0.40516">
        <ele>165</ele>
        <time>2019-02-03T08:29:49.000Z</time>
      </trkpt>
      <trkpt lat="46.83333" lon="0.40515">
        <ele>160</ele>
        <time>2019-02-03T08:29:50.000Z</time>
      </trkpt>
      <trkpt lat="46.83334" lon="0.40513">
        <ele>159</ele>
        <time>2019-02-03T08:29:51.000Z</time>
      </trkpt>
      <trkpt lat="46.83335" lon="0.4051">
        <ele>157</ele>
        <time>2019-02-03T08:29:52.000Z</time>
      </trkpt>
      <trkpt lat="46.83335" lon="0.40508">
        <ele>155</ele>
        <time>2019-02-03T08:29:53.000Z</time>
      </trkpt>
      <trkpt lat="46.83337" lon="0.40505">
        <ele>150</ele>
        <time>2019-02-03T08:29:54.000Z</time>
      </trkpt>
      <trkpt lat="46.83338" lon="0.40502">
        <ele>150</ele>
        <time>2019-02-03T08:29:55.000Z</time>
      </trkpt>
      <trkpt lat="46.83339" lon="0.40499">
        <ele>150</ele>
        <time>2019-02-03T08:29:56.000Z</time>
      </trkpt>
      <trkpt lat="46.8334" lon="0.40495">
        <ele>150</ele>
        <time>2019-02-03T08:29:57.000Z</time>
      </trkpt>
      <trkpt lat="46.83341" lon="0.40492">
        <ele>149</ele>
        <time>2019-02-03T08:29:58.000Z</time>
      </trkpt>
      <trkpt lat="46.83342" lon="0.40488">
        <ele>148</ele>
        <time>2019-02-03T08:29:59.000Z</time>
      </trkpt>
      <trkpt lat="46.83343" lon="0.40483">
        <ele>148</ele>
        <time>2019-02-03T08:30:00.000Z</time>
      </trkpt>
      <trkpt lat="46.83343" lon="0.40478">
        <ele>146</ele>
        <time>2019-02-03T08:30:01.000Z</time>
      </trkpt>
      <trkpt lat="46.83344" lon="0.40474">
        <ele>145</ele>
        <time>2019-02-03T08:30:02.000Z</time>
      </trkpt>
      <trkpt lat="46.83345" lon="0.4047">
        <ele>144</ele>
        <time>2019-02-03T08:30:03.000Z</time>
      </trkpt>
      <trkpt lat="46.83346" lon="0.40465">
        <ele>143</ele>
        <time>2019-02-03T08:30:04.000Z</time>
      </trkpt>
      <trkpt lat="46.83347" lon="0.40461">
        <ele>143</ele>
        <time>2019-02-03T08:30:05.000Z</time>
      </trkpt>
      <trkpt lat="46.83348" lon="0.40457">
        <ele>143</ele>
        <time>2019-02-03T08:30:06.000Z</time>
      </trkpt>
      <trkpt lat="46.83349" lon="0.40452">
        <ele>142</ele>
        <time>2019-02-03T08:30:07.000Z</time>
      </trkpt>
      <trkpt lat="46.8335" lon="0.40447">
        <ele>143</ele>
        <time>2019-02-03T08:30:08.000Z</time>
      </trkpt>
      <trkpt lat="46.83351" lon="0.40441">
        <ele>142</ele>
        <time>2019-02-03T08:30:09.000Z</time>
      </trkpt>
      <trkpt lat="46.83352" lon="0.40436">
        <ele>141</ele>
        <time>2019-02-03T08:30:10.000Z</time>
      </trkpt>
      <trkpt lat="46.83353" lon="0.40432">
        <ele>140</ele>
        <time>2019-02-03T08:30:11.000Z</time>
      </trkpt>
      <trkpt lat="46.83355" lon="0.40428">
        <ele>140</ele>
        <time>2019-02-03T08:30:12.000Z</time>
      </trkpt>
      <trkpt lat="46.83356" lon="0.40423">
        <ele>139</ele>
        <time>2019-02-03T08:30:13.000Z</time>
      </trkpt>
      <trkpt lat="46.83357" lon="0.40419">
        <ele>138</ele>
        <time>2019-02-03T08:30:14.000Z</time>
      </trkpt>
      <trkpt lat="46.83359" lon="0.40415">
        <ele>138</ele>
        <time>2019-02-03T08:30:15.000Z</time>
      </trkpt>
      <trkpt lat="46.8336" lon="0.40411">
        <ele>137</ele>
        <time>2019-02-03T08:30:16.000Z</time>
      </trkpt>
      <trkpt lat="46.83361" lon="0.40407">
        <ele>139</ele>
        <time>2019-02-03T08:30:17.000Z</time>
      </trkpt>
      <trkpt lat="46.83362" lon="0.40403">
        <ele>138</ele>
        <time>2019-02-03T08:30:18.000Z</time>
      </trkpt>
      <trkpt lat="46.83363" lon="0.40399">
        <ele>137</ele>
        <time>2019-02-03T08:30:19.000Z</time>
      </trkpt>
      <trkpt lat="46.83365" lon="0.40395">
        <ele>135</ele>
        <time>2019-02-03T08:30:20.000Z</time>
      </trkpt>
      <trkpt lat="46.83366" lon="0.40391">
        <ele>135</ele>
        <time>2019-02-03T08:30:21.000Z</time>
      </trkpt>
      <trkpt lat="46.83367" lon="0.40387">
        <ele>134</ele>
        <time>2019-02-03T08:30:22.000Z</time>
      </trkpt>
      <trkpt lat="46.83368" lon="0.40383">
        <ele>133</ele>
        <time>2019-02-03T08:30:23.000Z</time>
      </trkpt>
      <trkpt lat="46.83369" lon="0.4038">
        <ele>135</ele>
        <time>2019-02-03T08:30:24.000Z</time>
      </trkpt>
      <trkpt lat="46.8337" lon="0.40376">
        <ele>134</ele>
        <time>2019-02-03T08:30:25.000Z</time>
      </trkpt>
      <trkpt lat="46.83371" lon="0.40373">
        <ele>134</ele>
        <time>2019-02-03T08:30:26.000Z</time>
      </trkpt>
      <trkpt lat="46.83372" lon="0.4037">
        <ele>136</ele>
        <time>2019-02-03T08:30:27.000Z</time>
      </trkpt>
      <trkpt lat="46.83374" lon="0.40366">
        <ele>137</ele>
        <time>2019-02-03T08:30:28.000Z</time>
      </trkpt>
      <trkpt lat="46.83375" lon="0.40363">
        <ele>139</ele>
        <time>2019-02-03T08:30:29.000Z</time>
      </trkpt>
      <trkpt lat="46.83377" lon="0.4036">
        <ele>139</ele>
        <time>2019-02-03T08:30:30.000Z</time>
      </trkpt>
      <trkpt lat="46.83378" lon="0.40357">
        <ele>140</ele>
        <time>2019-02-03T08:30:31.000Z</time>
      </trkpt>
      <trkpt lat="46.83379" lon="0.40354">
        <ele>140</ele>
        <time>2019-02-03T08:30:32.000Z</time>
      </trkpt>
      <trkpt lat="46.8338" lon="0.40351">
        <ele>140</ele>
        <time>2019-02-03T08:30:33.000Z</time>
      </trkpt>
      <trkpt lat="46.83382" lon="0.40348">
        <ele>140</ele>
        <time>2019-02-03T08:30:34.000Z</time>
      </trkpt>
      <trkpt lat="46.83384" lon="0.40344">
        <ele>140</ele>
        <time>2019-02-03T08:30:35.000Z</time>
      </trkpt>
      <trkpt lat="46.83385" lon="0.40341">
        <ele>140</ele>
        <time>2019-02-03T08:30:36.000Z</time>
      </trkpt>
      <trkpt lat="46.83386" lon="0.40337">
        <ele>139</ele>
        <time>2019-02-03T08:30:37.000Z</time>
      </trkpt>
      <trkpt lat="46.83387" lon="0.40334">
        <ele>139</ele>
        <time>2019-02-03T08:30:38.000Z</time>
      </trkpt>
      <trkpt lat="46.83388" lon="0.4033">
        <ele>138</ele>
        <time>2019-02-03T08:30:39.000Z</time>
      </trkpt>
      <trkpt lat="46.83389" lon="0.40327">
        <ele>138</ele>
        <time>2019-02-03T08:30:40.000Z</time>
      </trkpt>
      <trkpt lat="46.8339" lon="0.40324">
        <ele>138</ele>
        <time>2019-02-03T08:30:41.000Z</time>
      </trkpt>
      <trkpt lat="46.83392" lon="0.4032">
        <ele>138</ele>
        <time>2019-02-03T08:30:42.000Z</time>
      </trkpt>
      <trkpt lat="46.83393" lon="0.40317">
        <ele>138</ele>
        <time>2019-02-03T08:30:43.000Z</time>
      </trkpt>
      <trkpt lat="46.83394" lon="0.40314">
        <ele>137</ele>
        <time>2019-02-03T08:30:44.000Z</time>
      </trkpt>
      <trkpt lat="46.83395" lon="0.40311">
        <ele>137</ele>
        <time>2019-02-03T08:30:45.000Z</time>
      </trkpt>
      <trkpt lat="46.83396" lon="0.40308">
        <ele>136</ele>
        <time>2019-02-03T08:30:46.000Z</time>
      </trkpt>
      <trkpt lat="46.83397" lon="0.40305">
        <ele>135</ele>
        <time>2019-02-03T08:30:47.000Z</time>
      </trkpt>
      <trkpt lat="46.83399" lon="0.40303">
        <ele>135</ele>
        <time>2019-02-03T08:30:48.000Z</time>
      </trkpt>
      <trkpt lat="46.834" lon="0.403">
        <ele>135</ele>
        <time>2019-02-03T08:30:49.000Z</time>
      </trkpt>
      <trkpt lat="46.83401" lon="0.40297">
        <ele>134</ele>
        <time>2019-02-03T08:30:50.000Z</time>
      </trkpt>
      <trkpt lat="46.83402" lon="0.40293">
        <ele>135</ele>
        <time>2019-02-03T08:30:51.000Z</time>
      </trkpt>
      <trkpt lat="46.83403" lon="0.4029">
        <ele>135</ele>
        <time>2019-02-03T08:30:52.000Z</time>
      </trkpt>
      <trkpt lat="46.83405" lon="0.40287">
        <ele>136</ele>
        <time>2019-02-03T08:30:53.000Z</time>
      </trkpt>
      <trkpt lat="46.83406" lon="0.40284">
        <ele>135</ele>
        <time>2019-02-03T08:30:54.000Z</time>
      </trkpt>
      <trkpt lat="46.83407" lon="0.4028">
        <ele>135</ele>
        <time>2019-02-03T08:30:55.000Z</time>
      </trkpt>
      <trkpt lat="46.83409" lon="0.40277">
        <ele>136</ele>
        <time>2019-02-03T08:30:56.000Z</time>
      </trkpt>
      <trkpt lat="46.8341" lon="0.40274">
        <ele>137</ele>
        <time>2019-02-03T08:30:57.000Z</time>
      </trkpt>
      <trkpt lat="46.83411" lon="0.4027">
        <ele>136</ele>
        <time>2019-02-03T08:30:58.000Z</time>
      </trkpt>
      <trkpt lat="46.83412" lon="0.40267">
        <ele>137</ele>
        <time>2019-02-03T08:30:59.000Z</time>
      </trkpt>
      <trkpt lat="46.83413" lon="0.40263">
        <ele>137</ele>
        <time>2019-02-03T08:31:00.000Z</time>
      </trkpt>
      <trkpt lat="46.83415" lon="0.4026">
        <ele>138</ele>
        <time>2019-02-03T08:31:01.000Z</time>
      </trkpt>
      <trkpt lat="46.83416" lon="0.40256">
        <ele>139</ele>
        <time>2019-02-03T08:31:02.000Z</time>
      </trkpt>
      <trkpt lat="46.83417" lon="0.40253">
        <ele>139</ele>
        <time>2019-02-03T08:31:03.000Z</time>
      </trkpt>
      <trkpt lat="46.83418" lon="0.40249">
        <ele>140</ele>
        <time>2019-02-03T08:31:04.000Z</time>
      </trkpt>
      <trkpt lat="46.83419" lon="0.40246">
        <ele>140</ele>
        <time>2019-02-03T08:31:05.000Z</time>
      </trkpt>
      <trkpt lat="46.8342" lon="0.40242">
        <ele>139</ele>
        <time>2019-02-03T08:31:06.000Z</time>
      </trkpt>
      <trkpt lat="46.83421" lon="0.40239">
        <ele>139</ele>
        <time>2019-02-03T08:31:07.000Z</time>
      </trkpt>
      <trkpt lat="46.83422" lon="0.40235">
        <ele>140</ele>
        <time>2019-02-03T08:31:08.000Z</time>
      </trkpt>
      <trkpt lat="46.83423" lon="0.40232">
        <ele>140</ele>
        <time>2019-02-03T08:31:09.000Z</time>
      </trkpt>
      <trkpt lat="46.83424" lon="0.40228">
        <ele>140</ele>
        <time>2019-02-03T08:31:10.000Z</time>
      </trkpt>
      <trkpt lat="46.83425" lon="0.40226">
        <ele>138</ele>
        <time>2019-02-03T08:31:11.000Z</time>
      </trkpt>
      <trkpt lat="46.83426" lon="0.40223">
        <ele>139</ele>
        <time>2019-02-03T08:31:12.000Z</time>
      </trkpt>
      <trkpt lat="46.83427" lon="0.4022">
        <ele>139</ele>
        <time>2019-02-03T08:31:13.000Z</time>
      </trkpt>
      <trkpt lat="46.83428" lon="0.40216">
        <ele>139</ele>
        <time>2019-02-03T08:31:14.000Z</time>
      </trkpt>
      <trkpt lat="46.83429" lon="0.40213">
        <ele>139</ele>
        <time>2019-02-03T08:31:15.000Z</time>
      </trkpt>
      <trkpt lat="46.83431" lon="0.4021">
        <ele>139</ele>
        <time>2019-02-03T08:31:16.000Z</time>
      </trkpt>
      <trkpt lat="46.83432" lon="0.40206">
        <ele>140</ele>
        <time>2019-02-03T08:31:17.000Z</time>
      </trkpt>
      <trkpt lat="46.83433" lon="0.40203">
        <ele>140</ele>
        <time>2019-02-03T08:31:18.000Z</time>
      </trkpt>
      <trkpt lat="46.83435" lon="0.402">
        <ele>140</ele>
        <time>2019-02-03T08:31:19.000Z</time>
      </trkpt>
      <trkpt lat="46.83436" lon="0.40196">
        <ele>141</ele>
        <time>2019-02-03T08:31:20.000Z</time>
      </trkpt>
      <trkpt lat="46.83437" lon="0.40193">
        <ele>140</ele>
        <time>2019-02-03T08:31:21.000Z</time>
      </trkpt>
      <trkpt lat="46.83438" lon="0.4019">
        <ele>140</ele>
        <time>2019-02-03T08:31:22.000Z</time>
      </trkpt>
      <trkpt lat="46.83439" lon="0.40187">
        <ele>140</ele>
        <time>2019-02-03T08:31:23.000Z</time>
      </trkpt>
      <trkpt lat="46.8344" lon="0.40184">
        <ele>141</ele>
        <time>2019-02-03T08:31:24.000Z</time>
      </trkpt>
      <trkpt lat="46.83441" lon="0.40181">
        <ele>140</ele>
        <time>2019-02-03T08:31:25.000Z</time>
      </trkpt>
      <trkpt lat="46.83442" lon="0.40178">
        <ele>140</ele>
        <time>2019-02-03T08:31:26.000Z</time>
      </trkpt>
      <trkpt lat="46.83442" lon="0.40175">
        <ele>141</ele>
        <time>2019-02-03T08:31:27.000Z</time>
      </trkpt>
      <trkpt lat="46.83443" lon="0.40172">
        <ele>142</ele>
        <time>2019-02-03T08:31:28.000Z</time>
      </trkpt>
      <trkpt lat="46.83444" lon="0.40168">
        <ele>142</ele>
        <time>2019-02-03T08:31:29.000Z</time>
      </trkpt>
      <trkpt lat="46.83444" lon="0.40165">
        <ele>142</ele>
        <time>2019-02-03T08:31:30.000Z</time>
      </trkpt>
      <trkpt lat="46.83445" lon="0.40163">
        <ele>140</ele>
        <time>2019-02-03T08:31:31.000Z</time>
      </trkpt>
      <trkpt lat="46.83445" lon="0.4016">
        <ele>139</ele>
        <time>2019-02-03T08:31:32.000Z</time>
      </trkpt>
      <trkpt lat="46.83446" lon="0.40158">
        <ele>140</ele>
        <time>2019-02-03T08:31:33.000Z</time>
      </trkpt>
      <trkpt lat="46.83448" lon="0.40155">
        <ele>141</ele>
        <time>2019-02-03T08:31:34.000Z</time>
      </trkpt>
      <trkpt lat="46.83449" lon="0.40151">
        <ele>140</ele>
        <time>2019-02-03T08:31:35.000Z</time>
      </trkpt>
      <trkpt lat="46.83451" lon="0.40148">
        <ele>141</ele>
        <time>2019-02-03T08:31:36.000Z</time>
      </trkpt>
      <trkpt lat="46.83453" lon="0.40144">
        <ele>141</ele>
        <time>2019-02-03T08:31:37.000Z</time>
      </trkpt>
      <trkpt lat="46.83455" lon="0.4014">
        <ele>141</ele>
        <time>2019-02-03T08:31:38.000Z</time>
      </trkpt>
      <trkpt lat="46.83457" lon="0.40136">
        <ele>141</ele>
        <time>2019-02-03T08:31:39.000Z</time>
      </trkpt>
      <trkpt lat="46.83459" lon="0.40131">
        <ele>140</ele>
        <time>2019-02-03T08:31:40.000Z</time>
      </trkpt>
      <trkpt lat="46.8346" lon="0.40126">
        <ele>141</ele>
        <time>2019-02-03T08:31:41.000Z</time>
      </trkpt>
      <trkpt lat="46.83461" lon="0.40122">
        <ele>141</ele>
        <time>2019-02-03T08:31:42.000Z</time>
      </trkpt>
      <trkpt lat="46.83462" lon="0.40117">
        <ele>141</ele>
        <time>2019-02-03T08:31:43.000Z</time>
      </trkpt>
      <trkpt lat="46.83463" lon="0.40113">
        <ele>141</ele>
        <time>2019-02-03T08:31:44.000Z</time>
      </trkpt>
      <trkpt lat="46.83464" lon="0.4011">
        <ele>141</ele>
        <time>2019-02-03T08:31:45.000Z</time>
      </trkpt>
      <trkpt lat="46.83466" lon="0.40106">
        <ele>141</ele>
        <time>2019-02-03T08:31:46.000Z</time>
      </trkpt>
      <trkpt lat="46.83468" lon="0.40103">
        <ele>141</ele>
        <time>2019-02-03T08:31:47.000Z</time>
      </trkpt>
      <trkpt lat="46.8347" lon="0.40099">
        <ele>142</ele>
        <time>2019-02-03T08:31:48.000Z</time>
      </trkpt>
      <trkpt lat="46.83472" lon="0.40096">
        <ele>143</ele>
        <time>2019-02-03T08:31:49.000Z</time>
      </trkpt>
      <trkpt lat="46.83474" lon="0.40092">
        <ele>142</ele>
        <time>2019-02-03T08:31:50.000Z</time>
      </trkpt>
      <trkpt lat="46.83476" lon="0.40089">
        <ele>142</ele>
        <time>2019-02-03T08:31:51.000Z</time>
      </trkpt>
      <trkpt lat="46.83478" lon="0.40086">
        <ele>142</ele>
        <time>2019-02-03T08:31:52.000Z</time>
      </trkpt>
      <trkpt lat="46.8348" lon="0.40082">
        <ele>142</ele>
        <time>2019-02-03T08:31:53.000Z</time>
      </trkpt>
      <trkpt lat="46.83482" lon="0.40079">
        <ele>142</ele>
        <time>2019-02-03T08:31:54.000Z</time>
      </trkpt>
      <trkpt lat="46.83483" lon="0.40076">
        <ele>142</ele>
        <time>2019-02-03T08:31:55.000Z</time>
      </trkpt>
      <trkpt lat="46.83485" lon="0.40072">
        <ele>142</ele>
        <time>2019-02-03T08:31:56.000Z</time>
      </trkpt>
      <trkpt lat="46.83487" lon="0.40069">
        <ele>142</ele>
        <time>2019-02-03T08:31:57.000Z</time>
      </trkpt>
      <trkpt lat="46.83489" lon="0.40066">
        <ele>142</ele>
        <time>2019-02-03T08:31:58.000Z</time>
      </trkpt>
      <trkpt lat="46.83492" lon="0.40062">
        <ele>142</ele>
        <time>2019-02-03T08:31:59.000Z</time>
      </trkpt>
      <trkpt lat="46.83494" lon="0.40059">
        <ele>142</ele>
        <time>2019-02-03T08:32:00.000Z</time>
      </trkpt>
      <trkpt lat="46.83496" lon="0.40055">
        <ele>142</ele>
        <time>2019-02-03T08:32:01.000Z</time>
      </trkpt>
      <trkpt lat="46.83498" lon="0.40051">
        <ele>142</ele>
        <time>2019-02-03T08:32:02.000Z</time>
      </trkpt>
      <trkpt lat="46.835" lon="0.40047">
        <ele>141</ele>
        <time>2019-02-03T08:32:03.000Z</time>
      </trkpt>
      <trkpt lat="46.83503" lon="0.40043">
        <ele>141</ele>
        <time>2019-02-03T08:32:04.000Z</time>
      </trkpt>
      <trkpt lat="46.83505" lon="0.40038">
        <ele>141</ele>
        <time>2019-02-03T08:32:05.000Z</time>
      </trkpt>
      <trkpt lat="46.83508" lon="0.40034">
        <ele>142</ele>
        <time>2019-02-03T08:32:06.000Z</time>
      </trkpt>
      <trkpt lat="46.83511" lon="0.40029">
        <ele>141</ele>
        <time>2019-02-03T08:32:07.000Z</time>
      </trkpt>
      <trkpt lat="46.83514" lon="0.40024">
        <ele>141</ele>
        <time>2019-02-03T08:32:08.000Z</time>
      </trkpt>
      <trkpt lat="46.83516" lon="0.4002">
        <ele>141</ele>
        <time>2019-02-03T08:32:09.000Z</time>
      </trkpt>
      <trkpt lat="46.83519" lon="0.40015">
        <ele>141</ele>
        <time>2019-02-03T08:32:10.000Z</time>
      </trkpt>
      <trkpt lat="46.83521" lon="0.40011">
        <ele>141</ele>
        <time>2019-02-03T08:32:11.000Z</time>
      </trkpt>
      <trkpt lat="46.83524" lon="0.40007">
        <ele>141</ele>
        <time>2019-02-03T08:32:12.000Z</time>
      </trkpt>
      <trkpt lat="46.83527" lon="0.40002">
        <ele>141</ele>
        <time>2019-02-03T08:32:13.000Z</time>
      </trkpt>
      <trkpt lat="46.8353" lon="0.39998">
        <ele>141</ele>
        <time>2019-02-03T08:32:14.000Z</time>
      </trkpt>
      <trkpt lat="46.83532" lon="0.39993">
        <ele>140</ele>
        <time>2019-02-03T08:32:15.000Z</time>
      </trkpt>
      <trkpt lat="46.83535" lon="0.39988">
        <ele>140</ele>
        <time>2019-02-03T08:32:16.000Z</time>
      </trkpt>
      <trkpt lat="46.83537" lon="0.39983">
        <ele>139</ele>
        <time>2019-02-03T08:32:17.000Z</time>
      </trkpt>
      <trkpt lat="46.83539" lon="0.39977">
        <ele>139</ele>
        <time>2019-02-03T08:32:18.000Z</time>
      </trkpt>
      <trkpt lat="46.83541" lon="0.39971">
        <ele>138</ele>
        <time>2019-02-03T08:32:19.000Z</time>
      </trkpt>
      <trkpt lat="46.83542" lon="0.39966">
        <ele>138</ele>
        <time>2019-02-03T08:32:20.000Z</time>
      </trkpt>
      <trkpt lat="46.83545" lon="0.3996">
        <ele>139</ele>
        <time>2019-02-03T08:32:21.000Z</time>
      </trkpt>
      <trkpt lat="46.83547" lon="0.39954">
        <ele>138</ele>
        <time>2019-02-03T08:32:22.000Z</time>
      </trkpt>
      <trkpt lat="46.83549" lon="0.39948">
        <ele>138</ele>
        <time>2019-02-03T08:32:23.000Z</time>
      </trkpt>
      <trkpt lat="46.83551" lon="0.39942">
        <ele>138</ele>
        <time>2019-02-03T08:32:24.000Z</time>
      </trkpt>
      <trkpt lat="46.83552" lon="0.39936">
        <ele>138</ele>
        <time>2019-02-03T08:32:25.000Z</time>
      </trkpt>
      <trkpt lat="46.83554" lon="0.3993">
        <ele>137</ele>
        <time>2019-02-03T08:32:26.000Z</time>
      </trkpt>
      <trkpt lat="46.83556" lon="0.39924">
        <ele>137</ele>
        <time>2019-02-03T08:32:27.000Z</time>
      </trkpt>
      <trkpt lat="46.83558" lon="0.39918">
        <ele>137</ele>
        <time>2019-02-03T08:32:28.000Z</time>
      </trkpt>
      <trkpt lat="46.8356" lon="0.39913">
        <ele>137</ele>
        <time>2019-02-03T08:32:29.000Z</time>
      </trkpt>
      <trkpt lat="46.83562" lon="0.39907">
        <ele>136</ele>
        <time>2019-02-03T08:32:30.000Z</time>
      </trkpt>
      <trkpt lat="46.83564" lon="0.39901">
        <ele>136</ele>
        <time>2019-02-03T08:32:31.000Z</time>
      </trkpt>
      <trkpt lat="46.83566" lon="0.39894">
        <ele>136</ele>
        <time>2019-02-03T08:32:32.000Z</time>
      </trkpt>
      <trkpt lat="46.83567" lon="0.39888">
        <ele>136</ele>
        <time>2019-02-03T08:32:33.000Z</time>
      </trkpt>
      <trkpt lat="46.83569" lon="0.39882">
        <ele>136</ele>
        <time>2019-02-03T08:32:34.000Z</time>
      </trkpt>
      <trkpt lat="46.83571" lon="0.39876">
        <ele>136</ele>
        <time>2019-02-03T08:32:35.000Z</time>
      </trkpt>
      <trkpt lat="46.83573" lon="0.3987">
        <ele>136</ele>
        <time>2019-02-03T08:32:36.000Z</time>
      </trkpt>
      <trkpt lat="46.83575" lon="0.39864">
        <ele>136</ele>
        <time>2019-02-03T08:32:37.000Z</time>
      </trkpt>
      <trkpt lat="46.83577" lon="0.39859">
        <ele>136</ele>
        <time>2019-02-03T08:32:38.000Z</time>
      </trkpt>
      <trkpt lat="46.83578" lon="0.39853">
        <ele>136</ele>
        <time>2019-02-03T08:32:39.000Z</time>
      </trkpt>
      <trkpt lat="46.83579" lon="0.39847">
        <ele>136</ele>
        <time>2019-02-03T08:32:40.000Z</time>
      </trkpt>
      <trkpt lat="46.83581" lon="0.39841">
        <ele>136</ele>
        <time>2019-02-03T08:32:41.000Z</time>
      </trkpt>
      <trkpt lat="46.83582" lon="0.39835">
        <ele>136</ele>
        <time>2019-02-03T08:32:42.000Z</time>
      </trkpt>
      <trkpt lat="46.83583" lon="0.39829">
        <ele>135</ele>
        <time>2019-02-03T08:32:43.000Z</time>
      </trkpt>
      <trkpt lat="46.83584" lon="0.39824">
        <ele>135</ele>
        <time>2019-02-03T08:32:44.000Z</time>
      </trkpt>
      <trkpt lat="46.83585" lon="0.39818">
        <ele>135</ele>
        <time>2019-02-03T08:32:45.000Z</time>
      </trkpt>
      <trkpt lat="46.83586" lon="0.39812">
        <ele>135</ele>
        <time>2019-02-03T08:32:46.000Z</time>
      </trkpt>
      <trkpt lat="46.83588" lon="0.39807">
        <ele>135</ele>
        <time>2019-02-03T08:32:47.000Z</time>
      </trkpt>
      <trkpt lat="46.83589" lon="0.39802">
        <ele>135</ele>
        <time>2019-02-03T08:32:48.000Z</time>
      </trkpt>
      <trkpt lat="46.83591" lon="0.39796">
        <ele>135</ele>
        <time>2019-02-03T08:32:49.000Z</time>
      </trkpt>
      <trkpt lat="46.83593" lon="0.39791">
        <ele>135</ele>
        <time>2019-02-03T08:32:50.000Z</time>
      </trkpt>
      <trkpt lat="46.83595" lon="0.39786">
        <ele>135</ele>
        <time>2019-02-03T08:32:51.000Z</time>
      </trkpt>
      <trkpt lat="46.83597" lon="0.3978">
        <ele>134</ele>
        <time>2019-02-03T08:32:52.000Z</time>
      </trkpt>
      <trkpt lat="46.83599" lon="0.39775">
        <ele>134</ele>
        <time>2019-02-03T08:32:53.000Z</time>
      </trkpt>
      <trkpt lat="46.83602" lon="0.3977">
        <ele>134</ele>
        <time>2019-02-03T08:32:54.000Z</time>
      </trkpt>
      <trkpt lat="46.83604" lon="0.39765">
        <ele>134</ele>
        <time>2019-02-03T08:32:55.000Z</time>
      </trkpt>
      <trkpt lat="46.83607" lon="0.3976">
        <ele>134</ele>
        <time>2019-02-03T08:32:56.000Z</time>
      </trkpt>
      <trkpt lat="46.83609" lon="0.39755">
        <ele>134</ele>
        <time>2019-02-03T08:32:57.000Z</time>
      </trkpt>
      <trkpt lat="46.83611" lon="0.3975">
        <ele>133</ele>
        <time>2019-02-03T08:32:58.000Z</time>
      </trkpt>
      <trkpt lat="46.83614" lon="0.39746">
        <ele>133</ele>
        <time>2019-02-03T08:32:59.000Z</time>
      </trkpt>
      <trkpt lat="46.83616" lon="0.39741">
        <ele>133</ele>
        <time>2019-02-03T08:33:00.000Z</time>
      </trkpt>
      <trkpt lat="46.83618" lon="0.39737">
        <ele>133</ele>
        <time>2019-02-03T08:33:01.000Z</time>
      </trkpt>
      <trkpt lat="46.8362" lon="0.39732">
        <ele>133</ele>
        <time>2019-02-03T08:33:02.000Z</time>
      </trkpt>
      <trkpt lat="46.83623" lon="0.39728">
        <ele>133</ele>
        <time>2019-02-03T08:33:03.000Z</time>
      </trkpt>
      <trkpt lat="46.83625" lon="0.39723">
        <ele>133</ele>
        <time>2019-02-03T08:33:04.000Z</time>
      </trkpt>
      <trkpt lat="46.83627" lon="0.39719">
        <ele>133</ele>
        <time>2019-02-03T08:33:05.000Z</time>
      </trkpt>
      <trkpt lat="46.83629" lon="0.39715">
        <ele>133</ele>
        <time>2019-02-03T08:33:06.000Z</time>
      </trkpt>
      <trkpt lat="46.83632" lon="0.3971">
        <ele>133</ele>
        <time>2019-02-03T08:33:07.000Z</time>
      </trkpt>
      <trkpt lat="46.83634" lon="0.39706">
        <ele>133</ele>
        <time>2019-02-03T08:33:08.000Z</time>
      </trkpt>
      <trkpt lat="46.83636" lon="0.39703">
        <ele>133</ele>
        <time>2019-02-03T08:33:09.000Z</time>
      </trkpt>
      <trkpt lat="46.83638" lon="0.39699">
        <ele>133</ele>
        <time>2019-02-03T08:33:10.000Z</time>
      </trkpt>
      <trkpt lat="46.8364" lon="0.39695">
        <ele>132</ele>
        <time>2019-02-03T08:33:11.000Z</time>
      </trkpt>
      <trkpt lat="46.83641" lon="0.39692">
        <ele>132</ele>
        <time>2019-02-03T08:33:12.000Z</time>
      </trkpt>
      <trkpt lat="46.83642" lon="0.39688">
        <ele>132</ele>
        <time>2019-02-03T08:33:13.000Z</time>
      </trkpt>
      <trkpt lat="46.83642" lon="0.39684">
        <ele>132</ele>
        <time>2019-02-03T08:33:14.000Z</time>
      </trkpt>
      <trkpt lat="46.83643" lon="0.3968">
        <ele>132</ele>
        <time>2019-02-03T08:33:15.000Z</time>
      </trkpt>
      <trkpt lat="46.83644" lon="0.39676">
        <ele>132</ele>
        <time>2019-02-03T08:33:16.000Z</time>
      </trkpt>
      <trkpt lat="46.83644" lon="0.39671">
        <ele>132</ele>
        <time>2019-02-03T08:33:17.000Z</time>
      </trkpt>
      <trkpt lat="46.83645" lon="0.39667">
        <ele>132</ele>
        <time>2019-02-03T08:33:18.000Z</time>
      </trkpt>
      <trkpt lat="46.83646" lon="0.39662">
        <ele>131</ele>
        <time>2019-02-03T08:33:19.000Z</time>
      </trkpt>
      <trkpt lat="46.83646" lon="0.39657">
        <ele>131</ele>
        <time>2019-02-03T08:33:20.000Z</time>
      </trkpt>
      <trkpt lat="46.83645" lon="0.39651">
        <ele>132</ele>
        <time>2019-02-03T08:33:21.000Z</time>
      </trkpt>
      <trkpt lat="46.83645" lon="0.39646">
        <ele>131</ele>
        <time>2019-02-03T08:33:22.000Z</time>
      </trkpt>
      <trkpt lat="46.83644" lon="0.39641">
        <ele>131</ele>
        <time>2019-02-03T08:33:23.000Z</time>
      </trkpt>
      <trkpt lat="46.83644" lon="0.39636">
        <ele>131</ele>
        <time>2019-02-03T08:33:24.000Z</time>
      </trkpt>
      <trkpt lat="46.83643" lon="0.39631">
        <ele>131</ele>
        <time>2019-02-03T08:33:25.000Z</time>
      </trkpt>
      <trkpt lat="46.83643" lon="0.39626">
        <ele>131</ele>
        <time>2019-02-03T08:33:26.000Z</time>
      </trkpt>
      <trkpt lat="46.83642" lon="0.39621">
        <ele>131</ele>
        <time>2019-02-03T08:33:27.000Z</time>
      </trkpt>
      <trkpt lat="46.83642" lon="0.39617">
        <ele>131</ele>
        <time>2019-02-03T08:33:28.000Z</time>
      </trkpt>
      <trkpt lat="46.83641" lon="0.39612">
        <ele>131</ele>
        <time>2019-02-03T08:33:29.000Z</time>
      </trkpt>
      <trkpt lat="46.83641" lon="0.39607">
        <ele>131</ele>
        <time>2019-02-03T08:33:30.000Z</time>
      </trkpt>
      <trkpt lat="46.83641" lon="0.39602">
        <ele>131</ele>
        <time>2019-02-03T08:33:31.000Z</time>
      </trkpt>
      <trkpt lat="46.83641" lon="0.39597">
        <ele>130</ele>
        <time>2019-02-03T08:33:32.000Z</time>
      </trkpt>
      <trkpt lat="46.83641" lon="0.39592">
        <ele>131</ele>
        <time>2019-02-03T08:33:33.000Z</time>
      </trkpt>
      <trkpt lat="46.83642" lon="0.39587">
        <ele>131</ele>
        <time>2019-02-03T08:33:34.000Z</time>
      </trkpt>
      <trkpt lat="46.83642" lon="0.39582">
        <ele>130</ele>
        <time>2019-02-03T08:33:35.000Z</time>
      </trkpt>
      <trkpt lat="46.83642" lon="0.39576">
        <ele>130</ele>
        <time>2019-02-03T08:33:36.000Z</time>
      </trkpt>
      <trkpt lat="46.83642" lon="0.3957">
        <ele>130</ele>
        <time>2019-02-03T08:33:37.000Z</time>
      </trkpt>
      <trkpt lat="46.83642" lon="0.39563">
        <ele>130</ele>
        <time>2019-02-03T08:33:38.000Z</time>
      </trkpt>
      <trkpt lat="46.83642" lon="0.39556">
        <ele>130</ele>
        <time>2019-02-03T08:33:39.000Z</time>
      </trkpt>
      <trkpt lat="46.83642" lon="0.39549">
        <ele>130</ele>
        <time>2019-02-03T08:33:40.000Z</time>
      </trkpt>
      <trkpt lat="46.83642" lon="0.39542">
        <ele>130</ele>
        <time>2019-02-03T08:33:41.000Z</time>
      </trkpt>
      <trkpt lat="46.83642" lon="0.39535">
        <ele>130</ele>
        <time>2019-02-03T08:33:42.000Z</time>
      </trkpt>
      <trkpt lat="46.83642" lon="0.39529">
        <ele>129</ele>
        <time>2019-02-03T08:33:43.000Z</time>
      </trkpt>
      <trkpt lat="46.83641" lon="0.39522">
        <ele>129</ele>
        <time>2019-02-03T08:33:44.000Z</time>
      </trkpt>
      <trkpt lat="46.83641" lon="0.39516">
        <ele>129</ele>
        <time>2019-02-03T08:33:45.000Z</time>
      </trkpt>
      <trkpt lat="46.8364" lon="0.39509">
        <ele>129</ele>
        <time>2019-02-03T08:33:46.000Z</time>
      </trkpt>
      <trkpt lat="46.8364" lon="0.39503">
        <ele>129</ele>
        <time>2019-02-03T08:33:47.000Z</time>
      </trkpt>
      <trkpt lat="46.8364" lon="0.39496">
        <ele>129</ele>
        <time>2019-02-03T08:33:48.000Z</time>
      </trkpt>
      <trkpt lat="46.83639" lon="0.39489">
        <ele>129</ele>
        <time>2019-02-03T08:33:49.000Z</time>
      </trkpt>
      <trkpt lat="46.83639" lon="0.39481">
        <ele>128</ele>
        <time>2019-02-03T08:33:50.000Z</time>
      </trkpt>
      <trkpt lat="46.83639" lon="0.39474">
        <ele>128</ele>
        <time>2019-02-03T08:33:51.000Z</time>
      </trkpt>
      <trkpt lat="46.83639" lon="0.39467">
        <ele>128</ele>
        <time>2019-02-03T08:33:52.000Z</time>
      </trkpt>
      <trkpt lat="46.83638" lon="0.3946">
        <ele>128</ele>
        <time>2019-02-03T08:33:53.000Z</time>
      </trkpt>
      <trkpt lat="46.83638" lon="0.39453">
        <ele>128</ele>
        <time>2019-02-03T08:33:54.000Z</time>
      </trkpt>
      <trkpt lat="46.83638" lon="0.39445">
        <ele>127</ele>
        <time>2019-02-03T08:33:55.000Z</time>
      </trkpt>
      <trkpt lat="46.83637" lon="0.39438">
        <ele>127</ele>
        <time>2019-02-03T08:33:56.000Z</time>
      </trkpt>
      <trkpt lat="46.83637" lon="0.3943">
        <ele>127</ele>
        <time>2019-02-03T08:33:57.000Z</time>
      </trkpt>
      <trkpt lat="46.83637" lon="0.39422">
        <ele>126</ele>
        <time>2019-02-03T08:33:58.000Z</time>
      </trkpt>
      <trkpt lat="46.83637" lon="0.39415">
        <ele>126</ele>
        <time>2019-02-03T08:33:59.000Z</time>
      </trkpt>
      <trkpt lat="46.83637" lon="0.39407">
        <ele>126</ele>
        <time>2019-02-03T08:34:00.000Z</time>
      </trkpt>
      <trkpt lat="46.83638" lon="0.39399">
        <ele>125</ele>
        <time>2019-02-03T08:34:01.000Z</time>
      </trkpt>
      <trkpt lat="46.83638" lon="0.3939">
        <ele>125</ele>
        <time>2019-02-03T08:34:02.000Z</time>
      </trkpt>
      <trkpt lat="46.83638" lon="0.39382">
        <ele>125</ele>
        <time>2019-02-03T08:34:03.000Z</time>
      </trkpt>
      <trkpt lat="46.83639" lon="0.39373">
        <ele>124</ele>
        <time>2019-02-03T08:34:04.000Z</time>
      </trkpt>
      <trkpt lat="46.83639" lon="0.39365">
        <ele>124</ele>
        <time>2019-02-03T08:34:05.000Z</time>
      </trkpt>
      <trkpt lat="46.8364" lon="0.39356">
        <ele>123</ele>
        <time>2019-02-03T08:34:06.000Z</time>
      </trkpt>
      <trkpt lat="46.8364" lon="0.39347">
        <ele>123</ele>
        <time>2019-02-03T08:34:07.000Z</time>
      </trkpt>
      <trkpt lat="46.83641" lon="0.39338">
        <ele>123</ele>
        <time>2019-02-03T08:34:08.000Z</time>
      </trkpt>
      <trkpt lat="46.83642" lon="0.39329">
        <ele>122</ele>
        <time>2019-02-03T08:34:09.000Z</time>
      </trkpt>
      <trkpt lat="46.83642" lon="0.39319">
        <ele>122</ele>
        <time>2019-02-03T08:34:10.000Z</time>
      </trkpt>
      <trkpt lat="46.83642" lon="0.3931">
        <ele>122</ele>
        <time>2019-02-03T08:34:11.000Z</time>
      </trkpt>
      <trkpt lat="46.83643" lon="0.393">
        <ele>121</ele>
        <time>2019-02-03T08:34:12.000Z</time>
      </trkpt>
      <trkpt lat="46.83643" lon="0.39291">
        <ele>121</ele>
        <time>2019-02-03T08:34:13.000Z</time>
      </trkpt>
      <trkpt lat="46.83643" lon="0.39281">
        <ele>121</ele>
        <time>2019-02-03T08:34:14.000Z</time>
      </trkpt>
      <trkpt lat="46.83644" lon="0.39272">
        <ele>121</ele>
        <time>2019-02-03T08:34:15.000Z</time>
      </trkpt>
      <trkpt lat="46.83644" lon="0.39264">
        <ele>121</ele>
        <time>2019-02-03T08:34:16.000Z</time>
      </trkpt>
      <trkpt lat="46.83645" lon="0.39255">
        <ele>121</ele>
        <time>2019-02-03T08:34:17.000Z</time>
      </trkpt>
      <trkpt lat="46.83645" lon="0.39246">
        <ele>121</ele>
        <time>2019-02-03T08:34:18.000Z</time>
      </trkpt>
      <trkpt lat="46.83646" lon="0.39238">
        <ele>121</ele>
        <time>2019-02-03T08:34:19.000Z</time>
      </trkpt>
      <trkpt lat="46.83646" lon="0.3923">
        <ele>121</ele>
        <time>2019-02-03T08:34:20.000Z</time>
      </trkpt>
      <trkpt lat="46.83646" lon="0.39223">
        <ele>121</ele>
        <time>2019-02-03T08:34:21.000Z</time>
      </trkpt>
      <trkpt lat="46.83647" lon="0.39215">
        <ele>121</ele>
        <time>2019-02-03T08:34:22.000Z</time>
      </trkpt>
      <trkpt lat="46.83647" lon="0.39208">
        <ele>121</ele>
        <time>2019-02-03T08:34:23.000Z</time>
      </trkpt>
      <trkpt lat="46.83647" lon="0.39201">
        <ele>121</ele>
        <time>2019-02-03T08:34:24.000Z</time>
      </trkpt>
      <trkpt lat="46.83647" lon="0.39194">
        <ele>121</ele>
        <time>2019-02-03T08:34:25.000Z</time>
      </trkpt>
      <trkpt lat="46.83647" lon="0.39187">
        <ele>121</ele>
        <time>2019-02-03T08:34:26.000Z</time>
      </trkpt>
      <trkpt lat="46.83647" lon="0.3918">
        <ele>121</ele>
        <time>2019-02-03T08:34:27.000Z</time>
      </trkpt>
      <trkpt lat="46.83646" lon="0.39172">
        <ele>120</ele>
        <time>2019-02-03T08:34:28.000Z</time>
      </trkpt>
      <trkpt lat="46.83645" lon="0.39165">
        <ele>120</ele>
        <time>2019-02-03T08:34:29.000Z</time>
      </trkpt>
      <trkpt lat="46.83645" lon="0.39158">
        <ele>120</ele>
        <time>2019-02-03T08:34:30.000Z</time>
      </trkpt>
      <trkpt lat="46.83644" lon="0.3915">
        <ele>119</ele>
        <time>2019-02-03T08:34:31.000Z</time>
      </trkpt>
      <trkpt lat="46.83642" lon="0.39142">
        <ele>120</ele>
        <time>2019-02-03T08:34:32.000Z</time>
      </trkpt>
      <trkpt lat="46.83641" lon="0.39135">
        <ele>119</ele>
        <time>2019-02-03T08:34:33.000Z</time>
      </trkpt>
      <trkpt lat="46.8364" lon="0.39128">
        <ele>119</ele>
        <time>2019-02-03T08:34:34.000Z</time>
      </trkpt>
      <trkpt lat="46.83638" lon="0.3912">
        <ele>119</ele>
        <time>2019-02-03T08:34:35.000Z</time>
      </trkpt>
      <trkpt lat="46.83636" lon="0.39113">
        <ele>119</ele>
        <time>2019-02-03T08:34:36.000Z</time>
      </trkpt>
      <trkpt lat="46.83635" lon="0.39106">
        <ele>118</ele>
        <time>2019-02-03T08:34:37.000Z</time>
      </trkpt>
      <trkpt lat="46.83633" lon="0.39098">
        <ele>118</ele>
        <time>2019-02-03T08:34:38.000Z</time>
      </trkpt>
      <trkpt lat="46.83631" lon="0.39091">
        <ele>118</ele>
        <time>2019-02-03T08:34:39.000Z</time>
      </trkpt>
      <trkpt lat="46.8363" lon="0.39084">
        <ele>118</ele>
        <time>2019-02-03T08:34:40.000Z</time>
      </trkpt>
      <trkpt lat="46.83628" lon="0.39077">
        <ele>117</ele>
        <time>2019-02-03T08:34:41.000Z</time>
      </trkpt>
      <trkpt lat="46.83626" lon="0.3907">
        <ele>117</ele>
        <time>2019-02-03T08:34:42.000Z</time>
      </trkpt>
      <trkpt lat="46.83624" lon="0.39063">
        <ele>117</ele>
        <time>2019-02-03T08:34:43.000Z</time>
      </trkpt>
      <trkpt lat="46.83623" lon="0.39055">
        <ele>117</ele>
        <time>2019-02-03T08:34:44.000Z</time>
      </trkpt>
      <trkpt lat="46.83621" lon="0.39048">
        <ele>117</ele>
        <time>2019-02-03T08:34:45.000Z</time>
      </trkpt>
      <trkpt lat="46.83619" lon="0.3904">
        <ele>116</ele>
        <time>2019-02-03T08:34:46.000Z</time>
      </trkpt>
      <trkpt lat="46.83617" lon="0.39032">
        <ele>116</ele>
        <time>2019-02-03T08:34:47.000Z</time>
      </trkpt>
      <trkpt lat="46.83616" lon="0.39024">
        <ele>115</ele>
        <time>2019-02-03T08:34:48.000Z</time>
      </trkpt>
      <trkpt lat="46.83616" lon="0.39016">
        <ele>115</ele>
        <time>2019-02-03T08:34:49.000Z</time>
      </trkpt>
      <trkpt lat="46.83617" lon="0.39008">
        <ele>114</ele>
        <time>2019-02-03T08:34:50.000Z</time>
      </trkpt>
      <trkpt lat="46.83618" lon="0.39">
        <ele>114</ele>
        <time>2019-02-03T08:34:51.000Z</time>
      </trkpt>
      <trkpt lat="46.83619" lon="0.38994">
        <ele>114</ele>
        <time>2019-02-03T08:34:52.000Z</time>
      </trkpt>
      <trkpt lat="46.83619" lon="0.38989">
        <ele>114</ele>
        <time>2019-02-03T08:34:53.000Z</time>
      </trkpt>
      <trkpt lat="46.83619" lon="0.38985">
        <ele>113</ele>
        <time>2019-02-03T08:34:54.000Z</time>
      </trkpt>
      <trkpt lat="46.83617" lon="0.38982">
        <ele>114</ele>
        <time>2019-02-03T08:34:55.000Z</time>
      </trkpt>
      <trkpt lat="46.83615" lon="0.38978">
        <ele>114</ele>
        <time>2019-02-03T08:34:56.000Z</time>
      </trkpt>
      <trkpt lat="46.83613" lon="0.38975">
        <ele>114</ele>
        <time>2019-02-03T08:34:57.000Z</time>
      </trkpt>
      <trkpt lat="46.83611" lon="0.38973">
        <ele>113</ele>
        <time>2019-02-03T08:34:58.000Z</time>
      </trkpt>
      <trkpt lat="46.83608" lon="0.3897">
        <ele>112</ele>
        <time>2019-02-03T08:34:59.000Z</time>
      </trkpt>
      <trkpt lat="46.83606" lon="0.38968">
        <ele>112</ele>
        <time>2019-02-03T08:35:00.000Z</time>
      </trkpt>
      <trkpt lat="46.83604" lon="0.38966">
        <ele>112</ele>
        <time>2019-02-03T08:35:01.000Z</time>
      </trkpt>
      <trkpt lat="46.83602" lon="0.38965">
        <ele>112</ele>
        <time>2019-02-03T08:35:02.000Z</time>
      </trkpt>
      <trkpt lat="46.836" lon="0.38962">
        <ele>112</ele>
        <time>2019-02-03T08:35:03.000Z</time>
      </trkpt>
      <trkpt lat="46.83599" lon="0.3896">
        <ele>112</ele>
        <time>2019-02-03T08:35:04.000Z</time>
      </trkpt>
      <trkpt lat="46.83598" lon="0.38957">
        <ele>112</ele>
        <time>2019-02-03T08:35:05.000Z</time>
      </trkpt>
      <trkpt lat="46.83597" lon="0.38955">
        <ele>111</ele>
        <time>2019-02-03T08:35:06.000Z</time>
      </trkpt>
      <trkpt lat="46.83596" lon="0.38952">
        <ele>111</ele>
        <time>2019-02-03T08:35:07.000Z</time>
      </trkpt>
      <trkpt lat="46.83596" lon="0.38952">
        <ele>112</ele>
        <time>2019-02-03T08:35:18.000Z</time>
      </trkpt>
      <trkpt lat="46.83596" lon="0.38952">
        <ele>112</ele>
        <time>2019-02-03T08:35:19.000Z</time>
      </trkpt>
      <trkpt lat="46.83598" lon="0.38931">
        <ele>111</ele>
        <time>2019-02-03T08:35:20.000Z</time>
      </trkpt>
      <trkpt lat="46.836" lon="0.38907">
        <ele>110</ele>
        <time>2019-02-03T08:35:21.000Z</time>
      </trkpt>
      <trkpt lat="46.83604" lon="0.38883">
        <ele>111</ele>
        <time>2019-02-03T08:35:22.000Z</time>
      </trkpt>
      <trkpt lat="46.83606" lon="0.38876">
        <ele>111</ele>
        <time>2019-02-03T08:35:23.000Z</time>
      </trkpt>
      <trkpt lat="46.83606" lon="0.38872">
        <ele>111</ele>
        <time>2019-02-03T08:35:24.000Z</time>
      </trkpt>
      <trkpt lat="46.83605" lon="0.38869">
        <ele>111</ele>
        <time>2019-02-03T08:35:25.000Z</time>
      </trkpt>
      <trkpt lat="46.83604" lon="0.38868">
        <ele>112</ele>
        <time>2019-02-03T08:35:26.000Z</time>
      </trkpt>
      <trkpt lat="46.83602" lon="0.38867">
        <ele>113</ele>
        <time>2019-02-03T08:35:27.000Z</time>
      </trkpt>
      <trkpt lat="46.836" lon="0.38866">
        <ele>113</ele>
        <time>2019-02-03T08:35:28.000Z</time>
      </trkpt>
      <trkpt lat="46.83598" lon="0.38864">
        <ele>113</ele>
        <time>2019-02-03T08:35:29.000Z</time>
      </trkpt>
      <trkpt lat="46.83595" lon="0.38863">
        <ele>113</ele>
        <time>2019-02-03T08:35:30.000Z</time>
      </trkpt>
      <trkpt lat="46.83593" lon="0.38861">
        <ele>113</ele>
        <time>2019-02-03T08:35:31.000Z</time>
      </trkpt>
      <trkpt lat="46.83591" lon="0.38859">
        <ele>113</ele>
        <time>2019-02-03T08:35:32.000Z</time>
      </trkpt>
      <trkpt lat="46.8359" lon="0.38857">
        <ele>113</ele>
        <time>2019-02-03T08:35:33.000Z</time>
      </trkpt>
      <trkpt lat="46.83588" lon="0.38854">
        <ele>113</ele>
        <time>2019-02-03T08:35:34.000Z</time>
      </trkpt>
      <trkpt lat="46.83586" lon="0.38852">
        <ele>113</ele>
        <time>2019-02-03T08:35:35.000Z</time>
      </trkpt>
      <trkpt lat="46.83584" lon="0.38849">
        <ele>113</ele>
        <time>2019-02-03T08:35:36.000Z</time>
      </trkpt>
      <trkpt lat="46.83581" lon="0.38847">
        <ele>113</ele>
        <time>2019-02-03T08:35:37.000Z</time>
      </trkpt>
      <trkpt lat="46.83579" lon="0.38846">
        <ele>113</ele>
        <time>2019-02-03T08:35:38.000Z</time>
      </trkpt>
      <trkpt lat="46.83576" lon="0.38846">
        <ele>113</ele>
        <time>2019-02-03T08:35:39.000Z</time>
      </trkpt>
      <trkpt lat="46.83574" lon="0.38846">
        <ele>112</ele>
        <time>2019-02-03T08:35:40.000Z</time>
      </trkpt>
      <trkpt lat="46.83572" lon="0.38847">
        <ele>112</ele>
        <time>2019-02-03T08:35:41.000Z</time>
      </trkpt>
      <trkpt lat="46.83569" lon="0.38848">
        <ele>112</ele>
        <time>2019-02-03T08:35:42.000Z</time>
      </trkpt>
      <trkpt lat="46.83567" lon="0.38848">
        <ele>112</ele>
        <time>2019-02-03T08:35:43.000Z</time>
      </trkpt>
      <trkpt lat="46.83564" lon="0.38849">
        <ele>112</ele>
        <time>2019-02-03T08:35:44.000Z</time>
      </trkpt>
      <trkpt lat="46.83562" lon="0.38849">
        <ele>112</ele>
        <time>2019-02-03T08:35:45.000Z</time>
      </trkpt>
      <trkpt lat="46.8356" lon="0.38849">
        <ele>112</ele>
        <time>2019-02-03T08:35:46.000Z</time>
      </trkpt>
      <trkpt lat="46.83557" lon="0.38849">
        <ele>112</ele>
        <time>2019-02-03T08:35:47.000Z</time>
      </trkpt>
      <trkpt lat="46.83554" lon="0.38848">
        <ele>112</ele>
        <time>2019-02-03T08:35:48.000Z</time>
      </trkpt>
      <trkpt lat="46.83552" lon="0.38848">
        <ele>112</ele>
        <time>2019-02-03T08:35:49.000Z</time>
      </trkpt>
      <trkpt lat="46.83549" lon="0.38847">
        <ele>112</ele>
        <time>2019-02-03T08:35:50.000Z</time>
      </trkpt>
      <trkpt lat="46.83545" lon="0.38847">
        <ele>112</ele>
        <time>2019-02-03T08:35:51.000Z</time>
      </trkpt>
      <trkpt lat="46.83542" lon="0.38846">
        <ele>112</ele>
        <time>2019-02-03T08:35:52.000Z</time>
      </trkpt>
      <trkpt lat="46.83539" lon="0.38845">
        <ele>112</ele>
        <time>2019-02-03T08:35:53.000Z</time>
      </trkpt>
      <trkpt lat="46.83536" lon="0.38844">
        <ele>112</ele>
        <time>2019-02-03T08:35:54.000Z</time>
      </trkpt>
      <trkpt lat="46.83533" lon="0.38843">
        <ele>112</ele>
        <time>2019-02-03T08:35:55.000Z</time>
      </trkpt>
      <trkpt lat="46.8353" lon="0.38843">
        <ele>112</ele>
        <time>2019-02-03T08:35:56.000Z</time>
      </trkpt>
      <trkpt lat="46.83527" lon="0.38842">
        <ele>112</ele>
        <time>2019-02-03T08:35:57.000Z</time>
      </trkpt>
      <trkpt lat="46.83524" lon="0.38841">
        <ele>112</ele>
        <time>2019-02-03T08:35:58.000Z</time>
      </trkpt>
      <trkpt lat="46.83522" lon="0.38841">
        <ele>112</ele>
        <time>2019-02-03T08:35:59.000Z</time>
      </trkpt>
      <trkpt lat="46.83519" lon="0.3884">
        <ele>112</ele>
        <time>2019-02-03T08:36:00.000Z</time>
      </trkpt>
      <trkpt lat="46.83516" lon="0.3884">
        <ele>112</ele>
        <time>2019-02-03T08:36:01.000Z</time>
      </trkpt>
      <trkpt lat="46.83513" lon="0.38839">
        <ele>112</ele>
        <time>2019-02-03T08:36:02.000Z</time>
      </trkpt>
      <trkpt lat="46.8351" lon="0.38839">
        <ele>112</ele>
        <time>2019-02-03T08:36:03.000Z</time>
      </trkpt>
      <trkpt lat="46.83507" lon="0.38838">
        <ele>112</ele>
        <time>2019-02-03T08:36:04.000Z</time>
      </trkpt>
      <trkpt lat="46.83504" lon="0.38838">
        <ele>112</ele>
        <time>2019-02-03T08:36:05.000Z</time>
      </trkpt>
      <trkpt lat="46.83501" lon="0.38838">
        <ele>112</ele>
        <time>2019-02-03T08:36:06.000Z</time>
      </trkpt>
      <trkpt lat="46.83498" lon="0.38838">
        <ele>112</ele>
        <time>2019-02-03T08:36:07.000Z</time>
      </trkpt>
      <trkpt lat="46.83495" lon="0.38838">
        <ele>112</ele>
        <time>2019-02-03T08:36:08.000Z</time>
      </trkpt>
      <trkpt lat="46.83493" lon="0.38838">
        <ele>112</ele>
        <time>2019-02-03T08:36:09.000Z</time>
      </trkpt>
      <trkpt lat="46.8349" lon="0.38837">
        <ele>112</ele>
        <time>2019-02-03T08:36:10.000Z</time>
      </trkpt>
      <trkpt lat="46.83487" lon="0.38837">
        <ele>112</ele>
        <time>2019-02-03T08:36:11.000Z</time>
      </trkpt>
      <trkpt lat="46.83485" lon="0.38837">
        <ele>112</ele>
        <time>2019-02-03T08:36:12.000Z</time>
      </trkpt>
      <trkpt lat="46.83482" lon="0.38837">
        <ele>112</ele>
        <time>2019-02-03T08:36:13.000Z</time>
      </trkpt>
      <trkpt lat="46.83479" lon="0.38836">
        <ele>112</ele>
        <time>2019-02-03T08:36:14.000Z</time>
      </trkpt>
      <trkpt lat="46.83477" lon="0.38836">
        <ele>112</ele>
        <time>2019-02-03T08:36:15.000Z</time>
      </trkpt>
      <trkpt lat="46.83474" lon="0.38835">
        <ele>112</ele>
        <time>2019-02-03T08:36:16.000Z</time>
      </trkpt>
      <trkpt lat="46.83472" lon="0.38835">
        <ele>112</ele>
        <time>2019-02-03T08:36:17.000Z</time>
      </trkpt>
      <trkpt lat="46.83469" lon="0.38835">
        <ele>112</ele>
        <time>2019-02-03T08:36:18.000Z</time>
      </trkpt>
      <trkpt lat="46.83466" lon="0.38834">
        <ele>113</ele>
        <time>2019-02-03T08:36:19.000Z</time>
      </trkpt>
      <trkpt lat="46.83463" lon="0.38834">
        <ele>113</ele>
        <time>2019-02-03T08:36:20.000Z</time>
      </trkpt>
      <trkpt lat="46.8346" lon="0.38834">
        <ele>113</ele>
        <time>2019-02-03T08:36:21.000Z</time>
      </trkpt>
      <trkpt lat="46.83458" lon="0.38833">
        <ele>113</ele>
        <time>2019-02-03T08:36:22.000Z</time>
      </trkpt>
      <trkpt lat="46.83455" lon="0.38833">
        <ele>113</ele>
        <time>2019-02-03T08:36:23.000Z</time>
      </trkpt>
      <trkpt lat="46.83452" lon="0.38833">
        <ele>113</ele>
        <time>2019-02-03T08:36:24.000Z</time>
      </trkpt>
      <trkpt lat="46.8345" lon="0.38833">
        <ele>114</ele>
        <time>2019-02-03T08:36:25.000Z</time>
      </trkpt>
      <trkpt lat="46.83447" lon="0.38832">
        <ele>113</ele>
        <time>2019-02-03T08:36:26.000Z</time>
      </trkpt>
      <trkpt lat="46.83444" lon="0.38832">
        <ele>114</ele>
        <time>2019-02-03T08:36:27.000Z</time>
      </trkpt>
      <trkpt lat="46.83441" lon="0.38832">
        <ele>113</ele>
        <time>2019-02-03T08:36:28.000Z</time>
      </trkpt>
      <trkpt lat="46.83439" lon="0.38831">
        <ele>114</ele>
        <time>2019-02-03T08:36:29.000Z</time>
      </trkpt>
      <trkpt lat="46.83436" lon="0.38831">
        <ele>114</ele>
        <time>2019-02-03T08:36:30.000Z</time>
      </trkpt>
      <trkpt lat="46.83433" lon="0.3883">
        <ele>114</ele>
        <time>2019-02-03T08:36:31.000Z</time>
      </trkpt>
      <trkpt lat="46.83431" lon="0.3883">
        <ele>114</ele>
        <time>2019-02-03T08:36:32.000Z</time>
      </trkpt>
      <trkpt lat="46.83428" lon="0.38829">
        <ele>115</ele>
        <time>2019-02-03T08:36:33.000Z</time>
      </trkpt>
      <trkpt lat="46.83425" lon="0.38829">
        <ele>115</ele>
        <time>2019-02-03T08:36:34.000Z</time>
      </trkpt>
      <trkpt lat="46.83423" lon="0.38829">
        <ele>115</ele>
        <time>2019-02-03T08:36:35.000Z</time>
      </trkpt>
      <trkpt lat="46.8342" lon="0.38828">
        <ele>115</ele>
        <time>2019-02-03T08:36:36.000Z</time>
      </trkpt>
      <trkpt lat="46.83417" lon="0.38828">
        <ele>116</ele>
        <time>2019-02-03T08:36:37.000Z</time>
      </trkpt>
      <trkpt lat="46.83413" lon="0.38828">
        <ele>116</ele>
        <time>2019-02-03T08:36:38.000Z</time>
      </trkpt>
      <trkpt lat="46.8341" lon="0.38828">
        <ele>116</ele>
        <time>2019-02-03T08:36:39.000Z</time>
      </trkpt>
      <trkpt lat="46.83407" lon="0.38827">
        <ele>117</ele>
        <time>2019-02-03T08:36:40.000Z</time>
      </trkpt>
      <trkpt lat="46.83404" lon="0.38827">
        <ele>117</ele>
        <time>2019-02-03T08:36:41.000Z</time>
      </trkpt>
      <trkpt lat="46.83401" lon="0.38827">
        <ele>118</ele>
        <time>2019-02-03T08:36:42.000Z</time>
      </trkpt>
      <trkpt lat="46.83398" lon="0.38827">
        <ele>118</ele>
        <time>2019-02-03T08:36:43.000Z</time>
      </trkpt>
      <trkpt lat="46.83394" lon="0.38827">
        <ele>119</ele>
        <time>2019-02-03T08:36:44.000Z</time>
      </trkpt>
      <trkpt lat="46.83391" lon="0.38826">
        <ele>119</ele>
        <time>2019-02-03T08:36:45.000Z</time>
      </trkpt>
      <trkpt lat="46.83388" lon="0.38826">
        <ele>119</ele>
        <time>2019-02-03T08:36:46.000Z</time>
      </trkpt>
      <trkpt lat="46.83385" lon="0.38826">
        <ele>120</ele>
        <time>2019-02-03T08:36:47.000Z</time>
      </trkpt>
      <trkpt lat="46.83382" lon="0.38826">
        <ele>120</ele>
        <time>2019-02-03T08:36:48.000Z</time>
      </trkpt>
      <trkpt lat="46.83379" lon="0.38825">
        <ele>120</ele>
        <time>2019-02-03T08:36:49.000Z</time>
      </trkpt>
      <trkpt lat="46.83375" lon="0.38825">
        <ele>121</ele>
        <time>2019-02-03T08:36:50.000Z</time>
      </trkpt>
      <trkpt lat="46.83372" lon="0.38824">
        <ele>121</ele>
        <time>2019-02-03T08:36:51.000Z</time>
      </trkpt>
      <trkpt lat="46.83369" lon="0.38824">
        <ele>121</ele>
        <time>2019-02-03T08:36:52.000Z</time>
      </trkpt>
      <trkpt lat="46.83365" lon="0.38824">
        <ele>122</ele>
        <time>2019-02-03T08:36:53.000Z</time>
      </trkpt>
      <trkpt lat="46.83362" lon="0.38823">
        <ele>122</ele>
        <time>2019-02-03T08:36:54.000Z</time>
      </trkpt>
      <trkpt lat="46.83359" lon="0.38823">
        <ele>123</ele>
        <time>2019-02-03T08:36:55.000Z</time>
      </trkpt>
      <trkpt lat="46.83356" lon="0.38823">
        <ele>123</ele>
        <time>2019-02-03T08:36:56.000Z</time>
      </trkpt>
      <trkpt lat="46.83352" lon="0.38823">
        <ele>123</ele>
        <time>2019-02-03T08:36:57.000Z</time>
      </trkpt>
      <trkpt lat="46.83349" lon="0.38822">
        <ele>124</ele>
        <time>2019-02-03T08:36:58.000Z</time>
      </trkpt>
      <trkpt lat="46.83346" lon="0.38822">
        <ele>124</ele>
        <time>2019-02-03T08:36:59.000Z</time>
      </trkpt>
      <trkpt lat="46.83343" lon="0.38821">
        <ele>124</ele>
        <time>2019-02-03T08:37:00.000Z</time>
      </trkpt>
      <trkpt lat="46.83339" lon="0.38821">
        <ele>124</ele>
        <time>2019-02-03T08:37:01.000Z</time>
      </trkpt>
      <trkpt lat="46.83336" lon="0.38821">
        <ele>124</ele>
        <time>2019-02-03T08:37:02.000Z</time>
      </trkpt>
      <trkpt lat="46.83333" lon="0.3882">
        <ele>124</ele>
        <time>2019-02-03T08:37:03.000Z</time>
      </trkpt>
      <trkpt lat="46.83329" lon="0.3882">
        <ele>125</ele>
        <time>2019-02-03T08:37:04.000Z</time>
      </trkpt>
      <trkpt lat="46.83326" lon="0.38819">
        <ele>125</ele>
        <time>2019-02-03T08:37:05.000Z</time>
      </trkpt>
      <trkpt lat="46.83323" lon="0.38819">
        <ele>125</ele>
        <time>2019-02-03T08:37:06.000Z</time>
      </trkpt>
      <trkpt lat="46.8332" lon="0.38819">
        <ele>125</ele>
        <time>2019-02-03T08:37:07.000Z</time>
      </trkpt>
      <trkpt lat="46.83317" lon="0.38819">
        <ele>125</ele>
        <time>2019-02-03T08:37:08.000Z</time>
      </trkpt>
      <trkpt lat="46.83314" lon="0.38819">
        <ele>125</ele>
        <time>2019-02-03T08:37:09.000Z</time>
      </trkpt>
      <trkpt lat="46.83311" lon="0.38819">
        <ele>125</ele>
        <time>2019-02-03T08:37:10.000Z</time>
      </trkpt>
      <trkpt lat="46.83308" lon="0.38818">
        <ele>125</ele>
        <time>2019-02-03T08:37:11.000Z</time>
      </trkpt>
      <trkpt lat="46.83305" lon="0.38818">
        <ele>124</ele>
        <time>2019-02-03T08:37:12.000Z</time>
      </trkpt>
      <trkpt lat="46.83303" lon="0.38817">
        <ele>125</ele>
        <time>2019-02-03T08:37:13.000Z</time>
      </trkpt>
      <trkpt lat="46.833" lon="0.38816">
        <ele>125</ele>
        <time>2019-02-03T08:37:14.000Z</time>
      </trkpt>
      <trkpt lat="46.83297" lon="0.38816">
        <ele>124</ele>
        <time>2019-02-03T08:37:15.000Z</time>
      </trkpt>
      <trkpt lat="46.83295" lon="0.38815">
        <ele>124</ele>
        <time>2019-02-03T08:37:16.000Z</time>
      </trkpt>
      <trkpt lat="46.83292" lon="0.38814">
        <ele>124</ele>
        <time>2019-02-03T08:37:17.000Z</time>
      </trkpt>
      <trkpt lat="46.83289" lon="0.38813">
        <ele>124</ele>
        <time>2019-02-03T08:37:18.000Z</time>
      </trkpt>
      <trkpt lat="46.83286" lon="0.38813">
        <ele>124</ele>
        <time>2019-02-03T08:37:19.000Z</time>
      </trkpt>
      <trkpt lat="46.83284" lon="0.38812">
        <ele>123</ele>
        <time>2019-02-03T08:37:20.000Z</time>
      </trkpt>
      <trkpt lat="46.83281" lon="0.38812">
        <ele>124</ele>
        <time>2019-02-03T08:37:21.000Z</time>
      </trkpt>
      <trkpt lat="46.83279" lon="0.38811">
        <ele>123</ele>
        <time>2019-02-03T08:37:22.000Z</time>
      </trkpt>
      <trkpt lat="46.83277" lon="0.3881">
        <ele>123</ele>
        <time>2019-02-03T08:37:23.000Z</time>
      </trkpt>
      <trkpt lat="46.83274" lon="0.3881">
        <ele>123</ele>
        <time>2019-02-03T08:37:24.000Z</time>
      </trkpt>
      <trkpt lat="46.83272" lon="0.38809">
        <ele>123</ele>
        <time>2019-02-03T08:37:25.000Z</time>
      </trkpt>
      <trkpt lat="46.83269" lon="0.38808">
        <ele>123</ele>
        <time>2019-02-03T08:37:26.000Z</time>
      </trkpt>
      <trkpt lat="46.83266" lon="0.38807">
        <ele>122</ele>
        <time>2019-02-03T08:37:27.000Z</time>
      </trkpt>
      <trkpt lat="46.83263" lon="0.38806">
        <ele>122</ele>
        <time>2019-02-03T08:37:28.000Z</time>
      </trkpt>
      <trkpt lat="46.83261" lon="0.38805">
        <ele>122</ele>
        <time>2019-02-03T08:37:29.000Z</time>
      </trkpt>
      <trkpt lat="46.83258" lon="0.38804">
        <ele>122</ele>
        <time>2019-02-03T08:37:30.000Z</time>
      </trkpt>
      <trkpt lat="46.83255" lon="0.38802">
        <ele>121</ele>
        <time>2019-02-03T08:37:31.000Z</time>
      </trkpt>
      <trkpt lat="46.83253" lon="0.38801">
        <ele>121</ele>
        <time>2019-02-03T08:37:32.000Z</time>
      </trkpt>
      <trkpt lat="46.8325" lon="0.388">
        <ele>121</ele>
        <time>2019-02-03T08:37:33.000Z</time>
      </trkpt>
      <trkpt lat="46.83247" lon="0.38799">
        <ele>121</ele>
        <time>2019-02-03T08:37:34.000Z</time>
      </trkpt>
      <trkpt lat="46.83245" lon="0.38797">
        <ele>120</ele>
        <time>2019-02-03T08:37:35.000Z</time>
      </trkpt>
      <trkpt lat="46.83242" lon="0.38796">
        <ele>120</ele>
        <time>2019-02-03T08:37:36.000Z</time>
      </trkpt>
      <trkpt lat="46.83239" lon="0.38795">
        <ele>120</ele>
        <time>2019-02-03T08:37:37.000Z</time>
      </trkpt>
      <trkpt lat="46.83235" lon="0.38793">
        <ele>119</ele>
        <time>2019-02-03T08:37:38.000Z</time>
      </trkpt>
      <trkpt lat="46.83232" lon="0.38791">
        <ele>119</ele>
        <time>2019-02-03T08:37:39.000Z</time>
      </trkpt>
      <trkpt lat="46.83229" lon="0.3879">
        <ele>119</ele>
        <time>2019-02-03T08:37:40.000Z</time>
      </trkpt>
      <trkpt lat="46.83225" lon="0.38788">
        <ele>119</ele>
        <time>2019-02-03T08:37:41.000Z</time>
      </trkpt>
      <trkpt lat="46.83222" lon="0.38786">
        <ele>118</ele>
        <time>2019-02-03T08:37:42.000Z</time>
      </trkpt>
      <trkpt lat="46.83218" lon="0.38785">
        <ele>118</ele>
        <time>2019-02-03T08:37:43.000Z</time>
      </trkpt>
      <trkpt lat="46.83214" lon="0.38784">
        <ele>118</ele>
        <time>2019-02-03T08:37:44.000Z</time>
      </trkpt>
      <trkpt lat="46.83211" lon="0.38782">
        <ele>118</ele>
        <time>2019-02-03T08:37:45.000Z</time>
      </trkpt>
      <trkpt lat="46.83207" lon="0.38781">
        <ele>118</ele>
        <time>2019-02-03T08:37:46.000Z</time>
      </trkpt>
      <trkpt lat="46.83203" lon="0.3878">
        <ele>118</ele>
        <time>2019-02-03T08:37:47.000Z</time>
      </trkpt>
      <trkpt lat="46.832" lon="0.38779">
        <ele>118</ele>
        <time>2019-02-03T08:37:48.000Z</time>
      </trkpt>
      <trkpt lat="46.83197" lon="0.38778">
        <ele>118</ele>
        <time>2019-02-03T08:37:49.000Z</time>
      </trkpt>
      <trkpt lat="46.83193" lon="0.38777">
        <ele>118</ele>
        <time>2019-02-03T08:37:50.000Z</time>
      </trkpt>
      <trkpt lat="46.8319" lon="0.38776">
        <ele>118</ele>
        <time>2019-02-03T08:37:51.000Z</time>
      </trkpt>
      <trkpt lat="46.83187" lon="0.38775">
        <ele>118</ele>
        <time>2019-02-03T08:37:52.000Z</time>
      </trkpt>
      <trkpt lat="46.83184" lon="0.38774">
        <ele>118</ele>
        <time>2019-02-03T08:37:53.000Z</time>
      </trkpt>
      <trkpt lat="46.8318" lon="0.38774">
        <ele>118</ele>
        <time>2019-02-03T08:37:54.000Z</time>
      </trkpt>
      <trkpt lat="46.83177" lon="0.38773">
        <ele>118</ele>
        <time>2019-02-03T08:37:55.000Z</time>
      </trkpt>
      <trkpt lat="46.83174" lon="0.38772">
        <ele>118</ele>
        <time>2019-02-03T08:37:56.000Z</time>
      </trkpt>
      <trkpt lat="46.83171" lon="0.38771">
        <ele>118</ele>
        <time>2019-02-03T08:37:57.000Z</time>
      </trkpt>
      <trkpt lat="46.83167" lon="0.3877">
        <ele>118</ele>
        <time>2019-02-03T08:37:58.000Z</time>
      </trkpt>
      <trkpt lat="46.83164" lon="0.3877">
        <ele>118</ele>
        <time>2019-02-03T08:37:59.000Z</time>
      </trkpt>
      <trkpt lat="46.83161" lon="0.38769">
        <ele>118</ele>
        <time>2019-02-03T08:38:00.000Z</time>
      </trkpt>
      <trkpt lat="46.83158" lon="0.38768">
        <ele>118</ele>
        <time>2019-02-03T08:38:01.000Z</time>
      </trkpt>
      <trkpt lat="46.83155" lon="0.38767">
        <ele>117</ele>
        <time>2019-02-03T08:38:02.000Z</time>
      </trkpt>
      <trkpt lat="46.83152" lon="0.38766">
        <ele>118</ele>
        <time>2019-02-03T08:38:03.000Z</time>
      </trkpt>
      <trkpt lat="46.8315" lon="0.38765">
        <ele>117</ele>
        <time>2019-02-03T08:38:04.000Z</time>
      </trkpt>
      <trkpt lat="46.83148" lon="0.38765">
        <ele>117</ele>
        <time>2019-02-03T08:38:05.000Z</time>
      </trkpt>
      <trkpt lat="46.83146" lon="0.38765">
        <ele>117</ele>
        <time>2019-02-03T08:38:06.000Z</time>
      </trkpt>
      <trkpt lat="46.83145" lon="0.38765">
        <ele>116</ele>
        <time>2019-02-03T08:38:07.000Z</time>
      </trkpt>
      <trkpt lat="46.83145" lon="0.38765">
        <ele>116</ele>
        <time>2019-02-03T08:38:08.000Z</time>
      </trkpt>
      <trkpt lat="46.83144" lon="0.38765">
        <ele>116</ele>
        <time>2019-02-03T08:38:09.000Z</time>
      </trkpt>
      <trkpt lat="46.83144" lon="0.38765">
        <ele>116</ele>
        <time>2019-02-03T08:38:10.000Z</time>
      </trkpt>
      <trkpt lat="46.83144" lon="0.38765">
        <ele>116</ele>
        <time>2019-02-03T08:38:11.000Z</time>
      </trkpt>
      <trkpt lat="46.83144" lon="0.38765">
        <ele>116</ele>
        <time>2019-02-03T08:38:12.000Z</time>
      </trkpt>
      <trkpt lat="46.83144" lon="0.38765">
        <ele>116</ele>
        <time>2019-02-03T08:38:13.000Z</time>
      </trkpt>
      <trkpt lat="46.83145" lon="0.38765">
        <ele>115</ele>
        <time>2019-02-03T08:38:14.000Z</time>
      </trkpt>
      <trkpt lat="46.83144" lon="0.38765">
        <ele>115</ele>
        <time>2019-02-03T08:38:15.000Z</time>
      </trkpt>
      <trkpt lat="46.83144" lon="0.38765">
        <ele>115</ele>
        <time>2019-02-03T08:38:16.000Z</time>
      </trkpt>
      <trkpt lat="46.83144" lon="0.38765">
        <ele>116</ele>
        <time>2019-02-03T08:38:17.000Z</time>
      </trkpt>
      <trkpt lat="46.83144" lon="0.38765">
        <ele>116</ele>
        <time>2019-02-03T08:38:18.000Z</time>
      </trkpt>
      <trkpt lat="46.83144" lon="0.38765">
        <ele>116</ele>
        <time>2019-02-03T08:38:19.000Z</time>
      </trkpt>
      <trkpt lat="46.83144" lon="0.38765">
        <ele>116</ele>
        <time>2019-02-03T08:38:20.000Z</time>
      </trkpt>
      <trkpt lat="46.83144" lon="0.38765">
        <ele>116</ele>
        <time>2019-02-03T08:38:21.000Z</time>
      </trkpt>
      <trkpt lat="46.83144" lon="0.38765">
        <ele>116</ele>
        <time>2019-02-03T08:38:22.000Z</time>
      </trkpt>
      <trkpt lat="46.83144" lon="0.38765">
        <ele>116</ele>
        <time>2019-02-03T08:38:23.000Z</time>
      </trkpt>
      <trkpt lat="46.83144" lon="0.38765">
        <ele>116</ele>
        <time>2019-02-03T08:38:24.000Z</time>
      </trkpt>
      <trkpt lat="46.83144" lon="0.38766">
        <ele>117</ele>
        <time>2019-02-03T08:38:25.000Z</time>
      </trkpt>
      <trkpt lat="46.83144" lon="0.38766">
        <ele>116</ele>
        <time>2019-02-03T08:38:26.000Z</time>
      </trkpt>
      <trkpt lat="46.83144" lon="0.38766">
        <ele>117</ele>
        <time>2019-02-03T08:38:27.000Z</time>
      </trkpt>
      <trkpt lat="46.83144" lon="0.38766">
        <ele>117</ele>
        <time>2019-02-03T08:38:28.000Z</time>
      </trkpt>
      <trkpt lat="46.83144" lon="0.38766">
        <ele>117</ele>
        <time>2019-02-03T08:38:29.000Z</time>
      </trkpt>
      <trkpt lat="46.83144" lon="0.38766">
        <ele>117</ele>
        <time>2019-02-03T08:38:30.000Z</time>
      </trkpt>
      <trkpt lat="46.83144" lon="0.38766">
        <ele>117</ele>
        <time>2019-02-03T08:38:31.000Z</time>
      </trkpt>
      <trkpt lat="46.83144" lon="0.38766">
        <ele>117</ele>
        <time>2019-02-03T08:38:32.000Z</time>
      </trkpt>
      <trkpt lat="46.83145" lon="0.38766">
        <ele>117</ele>
        <time>2019-02-03T08:38:33.000Z</time>
      </trkpt>
      <trkpt lat="46.83145" lon="0.38766">
        <ele>117</ele>
        <time>2019-02-03T08:38:34.000Z</time>
      </trkpt>
      <trkpt lat="46.83145" lon="0.38766">
        <ele>117</ele>
        <time>2019-02-03T08:38:35.000Z</time>
      </trkpt>
      <trkpt lat="46.83145" lon="0.38766">
        <ele>117</ele>
        <time>2019-02-03T08:38:36.000Z</time>
      </trkpt>
      <trkpt lat="46.83145" lon="0.38766">
        <ele>117</ele>
        <time>2019-02-03T08:38:37.000Z</time>
      </trkpt>
      <trkpt lat="46.83145" lon="0.38766">
        <ele>117</ele>
        <time>2019-02-03T08:38:38.000Z</time>
      </trkpt>
      <trkpt lat="46.83145" lon="0.38766">
        <ele>117</ele>
        <time>2019-02-03T08:38:39.000Z</time>
      </trkpt>
      <trkpt lat="46.83145" lon="0.38766">
        <ele>118</ele>
        <time>2019-02-03T08:38:40.000Z</time>
      </trkpt>
      <trkpt lat="46.83145" lon="0.38766">
        <ele>118</ele>
        <time>2019-02-03T08:38:41.000Z</time>
      </trkpt>
      <trkpt lat="46.83145" lon="0.38766">
        <ele>117</ele>
        <time>2019-02-03T08:38:42.000Z</time>
      </trkpt>
      <trkpt lat="46.83145" lon="0.38767">
        <ele>117</ele>
        <time>2019-02-03T08:38:43.000Z</time>
      </trkpt>
      <trkpt lat="46.83145" lon="0.38767">
        <ele>117</ele>
        <time>2019-02-03T08:38:44.000Z</time>
      </trkpt>
      <trkpt lat="46.83145" lon="0.38767">
        <ele>117</ele>
        <time>2019-02-03T08:38:45.000Z</time>
      </trkpt>
      <trkpt lat="46.83145" lon="0.38767">
        <ele>117</ele>
        <time>2019-02-03T08:38:46.000Z</time>
      </trkpt>
      <trkpt lat="46.83145" lon="0.38767">
        <ele>117</ele>
        <time>2019-02-03T08:38:47.000Z</time>
      </trkpt>
      <trkpt lat="46.83145" lon="0.38767">
        <ele>117</ele>
        <time>2019-02-03T08:38:48.000Z</time>
      </trkpt>
      <trkpt lat="46.83145" lon="0.38767">
        <ele>117</ele>
        <time>2019-02-03T08:38:49.000Z</time>
      </trkpt>
      <trkpt lat="46.83145" lon="0.38767">
        <ele>117</ele>
        <time>2019-02-03T08:38:50.000Z</time>
      </trkpt>
      <trkpt lat="46.83145" lon="0.38767">
        <ele>117</ele>
        <time>2019-02-03T08:38:51.000Z</time>
      </trkpt>
      <trkpt lat="46.83145" lon="0.38767">
        <ele>117</ele>
        <time>2019-02-03T08:38:52.000Z</time>
      </trkpt>
      <trkpt lat="46.83145" lon="0.38766">
        <ele>117</ele>
        <time>2019-02-03T08:38:53.000Z</time>
      </trkpt>
      <trkpt lat="46.83145" lon="0.38766">
        <ele>117</ele>
        <time>2019-02-03T08:38:54.000Z</time>
      </trkpt>
      <trkpt lat="46.83145" lon="0.38766">
        <ele>117</ele>
        <time>2019-02-03T08:38:55.000Z</time>
      </trkpt>
      <trkpt lat="46.83145" lon="0.38766">
        <ele>117</ele>
        <time>2019-02-03T08:38:56.000Z</time>
      </trkpt>
      <trkpt lat="46.83145" lon="0.38766">
        <ele>117</ele>
        <time>2019-02-03T08:38:57.000Z</time>
      </trkpt>
      <trkpt lat="46.83145" lon="0.38766">
        <ele>117</ele>
        <time>2019-02-03T08:38:58.000Z</time>
      </trkpt>
      <trkpt lat="46.83145" lon="0.38766">
        <ele>118</ele>
        <time>2019-02-03T08:38:59.000Z</time>
      </trkpt>
      <trkpt lat="46.83145" lon="0.38766">
        <ele>118</ele>
        <time>2019-02-03T08:39:00.000Z</time>
      </trkpt>
      <trkpt lat="46.83145" lon="0.38766">
        <ele>118</ele>
        <time>2019-02-03T08:39:01.000Z</time>
      </trkpt>
      <trkpt lat="46.83145" lon="0.38766">
        <ele>118</ele>
        <time>2019-02-03T08:39:02.000Z</time>
      </trkpt>
      <trkpt lat="46.83145" lon="0.38766">
        <ele>118</ele>
        <time>2019-02-03T08:39:03.000Z</time>
      </trkpt>
      <trkpt lat="46.83145" lon="0.38766">
        <ele>118</ele>
        <time>2019-02-03T08:39:04.000Z</time>
      </trkpt>
      <trkpt lat="46.83145" lon="0.38766">
        <ele>118</ele>
        <time>2019-02-03T08:39:05.000Z</time>
      </trkpt>
      <trkpt lat="46.83145" lon="0.38766">
        <ele>118</ele>
        <time>2019-02-03T08:39:06.000Z</time>
      </trkpt>
      <trkpt lat="46.83145" lon="0.38766">
        <ele>118</ele>
        <time>2019-02-03T08:39:07.000Z</time>
      </trkpt>
      <trkpt lat="46.83145" lon="0.38766">
        <ele>118</ele>
        <time>2019-02-03T08:39:08.000Z</time>
      </trkpt>
      <trkpt lat="46.83145" lon="0.38766">
        <ele>118</ele>
        <time>2019-02-03T08:39:09.000Z</time>
      </trkpt>
      <trkpt lat="46.83145" lon="0.38766">
        <ele>118</ele>
        <time>2019-02-03T08:39:10.000Z</time>
      </trkpt>
      <trkpt lat="46.83145" lon="0.38766">
        <ele>118</ele>
        <time>2019-02-03T08:39:11.000Z</time>
      </trkpt>
      <trkpt lat="46.83145" lon="0.38766">
        <ele>118</ele>
        <time>2019-02-03T08:39:12.000Z</time>
      </trkpt>
      <trkpt lat="46.83144" lon="0.38766">
        <ele>118</ele>
        <time>2019-02-03T08:39:13.000Z</time>
      </trkpt>
      <trkpt lat="46.83144" lon="0.38766">
        <ele>117</ele>
        <time>2019-02-03T08:39:14.000Z</time>
      </trkpt>
      <trkpt lat="46.83144" lon="0.38766">
        <ele>117</ele>
        <time>2019-02-03T08:39:15.000Z</time>
      </trkpt>
      <trkpt lat="46.83144" lon="0.38766">
        <ele>117</ele>
        <time>2019-02-03T08:39:16.000Z</time>
      </trkpt>
      <trkpt lat="46.83144" lon="0.38766">
        <ele>117</ele>
        <time>2019-02-03T08:39:17.000Z</time>
      </trkpt>
      <trkpt lat="46.83144" lon="0.38766">
        <ele>117</ele>
        <time>2019-02-03T08:39:18.000Z</time>
      </trkpt>
      <trkpt lat="46.83144" lon="0.38766">
        <ele>117</ele>
        <time>2019-02-03T08:39:19.000Z</time>
      </trkpt>
      <trkpt lat="46.83144" lon="0.38766">
        <ele>117</ele>
        <time>2019-02-03T08:39:20.000Z</time>
      </trkpt>
      <trkpt lat="46.83144" lon="0.38766">
        <ele>117</ele>
        <time>2019-02-03T08:39:21.000Z</time>
      </trkpt>
      <trkpt lat="46.83144" lon="0.38766">
        <ele>116</ele>
        <time>2019-02-03T08:39:22.000Z</time>
      </trkpt>
      <trkpt lat="46.83144" lon="0.38766">
        <ele>117</ele>
        <time>2019-02-03T08:39:23.000Z</time>
      </trkpt>
      <trkpt lat="46.83144" lon="0.38766">
        <ele>117</ele>
        <time>2019-02-03T08:39:24.000Z</time>
      </trkpt>
      <trkpt lat="46.83144" lon="0.38766">
        <ele>117</ele>
        <time>2019-02-03T08:39:25.000Z</time>
      </trkpt>
      <trkpt lat="46.83144" lon="0.38766">
        <ele>117</ele>
        <time>2019-02-03T08:39:26.000Z</time>
      </trkpt>
      <trkpt lat="46.83145" lon="0.38766">
        <ele>117</ele>
        <time>2019-02-03T08:39:27.000Z</time>
      </trkpt>
      <trkpt lat="46.83145" lon="0.38766">
        <ele>117</ele>
        <time>2019-02-03T08:39:28.000Z</time>
      </trkpt>
      <trkpt lat="46.83144" lon="0.38766">
        <ele>117</ele>
        <time>2019-02-03T08:39:29.000Z</time>
      </trkpt>
      <trkpt lat="46.83144" lon="0.38766">
        <ele>117</ele>
        <time>2019-02-03T08:39:30.000Z</time>
      </trkpt>
      <trkpt lat="46.83145" lon="0.38766">
        <ele>117</ele>
        <time>2019-02-03T08:39:31.000Z</time>
      </trkpt>
      <trkpt lat="46.83145" lon="0.38766">
        <ele>117</ele>
        <time>2019-02-03T08:39:32.000Z</time>
      </trkpt>
      <trkpt lat="46.83145" lon="0.38766">
        <ele>117</ele>
        <time>2019-02-03T08:39:33.000Z</time>
      </trkpt>
      <trkpt lat="46.83145" lon="0.38766">
        <ele>117</ele>
        <time>2019-02-03T08:39:34.000Z</time>
      </trkpt>
      <trkpt lat="46.83145" lon="0.38766">
        <ele>118</ele>
        <time>2019-02-03T08:39:35.000Z</time>
      </trkpt>
      <trkpt lat="46.83145" lon="0.38766">
        <ele>118</ele>
        <time>2019-02-03T08:39:36.000Z</time>
      </trkpt>
      <trkpt lat="46.83145" lon="0.38766">
        <ele>118</ele>
        <time>2019-02-03T08:39:37.000Z</time>
      </trkpt>
      <trkpt lat="46.83145" lon="0.38766">
        <ele>118</ele>
        <time>2019-02-03T08:39:38.000Z</time>
      </trkpt>
      <trkpt lat="46.83145" lon="0.38766">
        <ele>118</ele>
        <time>2019-02-03T08:39:39.000Z</time>
      </trkpt>
      <trkpt lat="46.83145" lon="0.38766">
        <ele>119</ele>
        <time>2019-02-03T08:39:40.000Z</time>
      </trkpt>
      <trkpt lat="46.83145" lon="0.38766">
        <ele>119</ele>
        <time>2019-02-03T08:39:41.000Z</time>
      </trkpt>
      <trkpt lat="46.83145" lon="0.38766">
        <ele>118</ele>
        <time>2019-02-03T08:39:42.000Z</time>
      </trkpt>
      <trkpt lat="46.83145" lon="0.38766">
        <ele>118</ele>
        <time>2019-02-03T08:39:43.000Z</time>
      </trkpt>
      <trkpt lat="46.83145" lon="0.38766">
        <ele>118</ele>
        <time>2019-02-03T08:39:44.000Z</time>
      </trkpt>
      <trkpt lat="46.83145" lon="0.38766">
        <ele>117</ele>
        <time>2019-02-03T08:39:45.000Z</time>
      </trkpt>
      <trkpt lat="46.83146" lon="0.38766">
        <ele>118</ele>
        <time>2019-02-03T08:39:46.000Z</time>
      </trkpt>
      <trkpt lat="46.83146" lon="0.38766">
        <ele>117</ele>
        <time>2019-02-03T08:39:47.000Z</time>
      </trkpt>
      <trkpt lat="46.83146" lon="0.38766">
        <ele>117</ele>
        <time>2019-02-03T08:39:48.000Z</time>
      </trkpt>
      <trkpt lat="46.83145" lon="0.38766">
        <ele>117</ele>
        <time>2019-02-03T08:39:49.000Z</time>
      </trkpt>
      <trkpt lat="46.83145" lon="0.38766">
        <ele>117</ele>
        <time>2019-02-03T08:39:50.000Z</time>
      </trkpt>
      <trkpt lat="46.83145" lon="0.38766">
        <ele>117</ele>
        <time>2019-02-03T08:39:51.000Z</time>
      </trkpt>
      <trkpt lat="46.83145" lon="0.38766">
        <ele>117</ele>
        <time>2019-02-03T08:39:52.000Z</time>
      </trkpt>
      <trkpt lat="46.83145" lon="0.38766">
        <ele>117</ele>
        <time>2019-02-03T08:39:53.000Z</time>
      </trkpt>
      <trkpt lat="46.83145" lon="0.38766">
        <ele>117</ele>
        <time>2019-02-03T08:39:54.000Z</time>
      </trkpt>
      <trkpt lat="46.83145" lon="0.38766">
        <ele>117</ele>
        <time>2019-02-03T08:39:55.000Z</time>
      </trkpt>
      <trkpt lat="46.83145" lon="0.38766">
        <ele>117</ele>
        <time>2019-02-03T08:39:56.000Z</time>
      </trkpt>
      <trkpt lat="46.83145" lon="0.38766">
        <ele>117</ele>
        <time>2019-02-03T08:39:57.000Z</time>
      </trkpt>
      <trkpt lat="46.83145" lon="0.38766">
        <ele>117</ele>
        <time>2019-02-03T08:39:58.000Z</time>
      </trkpt>
      <trkpt lat="46.83145" lon="0.38766">
        <ele>117</ele>
        <time>2019-02-03T08:39:59.000Z</time>
      </trkpt>
      <trkpt lat="46.83145" lon="0.38766">
        <ele>118</ele>
        <time>2019-02-03T08:40:00.000Z</time>
      </trkpt>
      <trkpt lat="46.83145" lon="0.38766">
        <ele>117</ele>
        <time>2019-02-03T08:40:01.000Z</time>
      </trkpt>
      <trkpt lat="46.83145" lon="0.38766">
        <ele>118</ele>
        <time>2019-02-03T08:40:02.000Z</time>
      </trkpt>
      <trkpt lat="46.83145" lon="0.38766">
        <ele>119</ele>
        <time>2019-02-03T08:40:03.000Z</time>
      </trkpt>
      <trkpt lat="46.83145" lon="0.38766">
        <ele>119</ele>
        <time>2019-02-03T08:40:04.000Z</time>
      </trkpt>
      <trkpt lat="46.83145" lon="0.38766">
        <ele>119</ele>
        <time>2019-02-03T08:40:05.000Z</time>
      </trkpt>
      <trkpt lat="46.83145" lon="0.38766">
        <ele>119</ele>
        <time>2019-02-03T08:40:06.000Z</time>
      </trkpt>
      <trkpt lat="46.83145" lon="0.38766">
        <ele>119</ele>
        <time>2019-02-03T08:40:07.000Z</time>
      </trkpt>
      <trkpt lat="46.83145" lon="0.38766">
        <ele>118</ele>
        <time>2019-02-03T08:40:08.000Z</time>
      </trkpt>
      <trkpt lat="46.83145" lon="0.38766">
        <ele>118</ele>
        <time>2019-02-03T08:40:09.000Z</time>
      </trkpt>
      <trkpt lat="46.83145" lon="0.38766">
        <ele>118</ele>
        <time>2019-02-03T08:40:10.000Z</time>
      </trkpt>
      <trkpt lat="46.83145" lon="0.38766">
        <ele>118</ele>
        <time>2019-02-03T08:40:11.000Z</time>
      </trkpt>
      <trkpt lat="46.83145" lon="0.38766">
        <ele>118</ele>
        <time>2019-02-03T08:40:12.000Z</time>
      </trkpt>
      <trkpt lat="46.83145" lon="0.38766">
        <ele>118</ele>
        <time>2019-02-03T08:40:13.000Z</time>
      </trkpt>
      <trkpt lat="46.83145" lon="0.38765">
        <ele>118</ele>
        <time>2019-02-03T08:40:14.000Z</time>
      </trkpt>
      <trkpt lat="46.83145" lon="0.38766">
        <ele>118</ele>
        <time>2019-02-03T08:40:15.000Z</time>
      </trkpt>
      <trkpt lat="46.83145" lon="0.38766">
        <ele>118</ele>
        <time>2019-02-03T08:40:16.000Z</time>
      </trkpt>
      <trkpt lat="46.83145" lon="0.38766">
        <ele>118</ele>
        <time>2019-02-03T08:40:17.000Z</time>
      </trkpt>
      <trkpt lat="46.83146" lon="0.38766">
        <ele>118</ele>
        <time>2019-02-03T08:40:18.000Z</time>
      </trkpt>
      <trkpt lat="46.83146" lon="0.38765">
        <ele>118</ele>
        <time>2019-02-03T08:40:19.000Z</time>
      </trkpt>
      <trkpt lat="46.83146" lon="0.38765">
        <ele>118</ele>
        <time>2019-02-03T08:40:20.000Z</time>
      </trkpt>
      <trkpt lat="46.83146" lon="0.38765">
        <ele>118</ele>
        <time>2019-02-03T08:40:21.000Z</time>
      </trkpt>
      <trkpt lat="46.83146" lon="0.38765">
        <ele>118</ele>
        <time>2019-02-03T08:40:22.000Z</time>
      </trkpt>
      <trkpt lat="46.83146" lon="0.38765">
        <ele>118</ele>
        <time>2019-02-03T08:40:23.000Z</time>
      </trkpt>
      <trkpt lat="46.83146" lon="0.38765">
        <ele>118</ele>
        <time>2019-02-03T08:40:24.000Z</time>
      </trkpt>
      <trkpt lat="46.83146" lon="0.38765">
        <ele>118</ele>
        <time>2019-02-03T08:40:25.000Z</time>
      </trkpt>
      <trkpt lat="46.83146" lon="0.38765">
        <ele>118</ele>
        <time>2019-02-03T08:40:26.000Z</time>
      </trkpt>
      <trkpt lat="46.83146" lon="0.38765">
        <ele>118</ele>
        <time>2019-02-03T08:40:27.000Z</time>
      </trkpt>
      <trkpt lat="46.83145" lon="0.38765">
        <ele>118</ele>
        <time>2019-02-03T08:40:28.000Z</time>
      </trkpt>
      <trkpt lat="46.83145" lon="0.38765">
        <ele>118</ele>
        <time>2019-02-03T08:40:29.000Z</time>
      </trkpt>
      <trkpt lat="46.83145" lon="0.38765">
        <ele>118</ele>
        <time>2019-02-03T08:40:30.000Z</time>
      </trkpt>
      <trkpt lat="46.83145" lon="0.38765">
        <ele>118</ele>
        <time>2019-02-03T08:40:31.000Z</time>
      </trkpt>
      <trkpt lat="46.83145" lon="0.38765">
        <ele>118</ele>
        <time>2019-02-03T08:40:32.000Z</time>
      </trkpt>
      <trkpt lat="46.83145" lon="0.38765">
        <ele>118</ele>
        <time>2019-02-03T08:40:33.000Z</time>
      </trkpt>
      <trkpt lat="46.83145" lon="0.38765">
        <ele>118</ele>
        <time>2019-02-03T08:40:34.000Z</time>
      </trkpt>
      <trkpt lat="46.83145" lon="0.38765">
        <ele>118</ele>
        <time>2019-02-03T08:40:35.000Z</time>
      </trkpt>
      <trkpt lat="46.83145" lon="0.38765">
        <ele>118</ele>
        <time>2019-02-03T08:40:36.000Z</time>
      </trkpt>
      <trkpt lat="46.83145" lon="0.38765">
        <ele>118</ele>
        <time>2019-02-03T08:40:37.000Z</time>
      </trkpt>
      <trkpt lat="46.83145" lon="0.38765">
        <ele>118</ele>
        <time>2019-02-03T08:40:38.000Z</time>
      </trkpt>
      <trkpt lat="46.83145" lon="0.38765">
        <ele>118</ele>
        <time>2019-02-03T08:40:39.000Z</time>
      </trkpt>
      <trkpt lat="46.83144" lon="0.38765">
        <ele>118</ele>
        <time>2019-02-03T08:40:40.000Z</time>
      </trkpt>
      <trkpt lat="46.83143" lon="0.38765">
        <ele>117</ele>
        <time>2019-02-03T08:40:41.000Z</time>
      </trkpt>
      <trkpt lat="46.83141" lon="0.38764">
        <ele>116</ele>
        <time>2019-02-03T08:40:42.000Z</time>
      </trkpt>
      <trkpt lat="46.83139" lon="0.38763">
        <ele>116</ele>
        <time>2019-02-03T08:40:43.000Z</time>
      </trkpt>
      <trkpt lat="46.83137" lon="0.38762">
        <ele>116</ele>
        <time>2019-02-03T08:40:44.000Z</time>
      </trkpt>
      <trkpt lat="46.83135" lon="0.38762">
        <ele>116</ele>
        <time>2019-02-03T08:40:45.000Z</time>
      </trkpt>
      <trkpt lat="46.83132" lon="0.38761">
        <ele>116</ele>
        <time>2019-02-03T08:40:46.000Z</time>
      </trkpt>
      <trkpt lat="46.8313" lon="0.38761">
        <ele>116</ele>
        <time>2019-02-03T08:40:47.000Z</time>
      </trkpt>
      <trkpt lat="46.83127" lon="0.3876">
        <ele>116</ele>
        <time>2019-02-03T08:40:48.000Z</time>
      </trkpt>
      <trkpt lat="46.83124" lon="0.38759">
        <ele>116</ele>
        <time>2019-02-03T08:40:49.000Z</time>
      </trkpt>
      <trkpt lat="46.83121" lon="0.38758">
        <ele>116</ele>
        <time>2019-02-03T08:40:50.000Z</time>
      </trkpt>
      <trkpt lat="46.83118" lon="0.38757">
        <ele>116</ele>
        <time>2019-02-03T08:40:51.000Z</time>
      </trkpt>
      <trkpt lat="46.83115" lon="0.38756">
        <ele>116</ele>
        <time>2019-02-03T08:40:52.000Z</time>
      </trkpt>
      <trkpt lat="46.83111" lon="0.38755">
        <ele>116</ele>
        <time>2019-02-03T08:40:53.000Z</time>
      </trkpt>
      <trkpt lat="46.83107" lon="0.38754">
        <ele>116</ele>
        <time>2019-02-03T08:40:54.000Z</time>
      </trkpt>
      <trkpt lat="46.83104" lon="0.38753">
        <ele>116</ele>
        <time>2019-02-03T08:40:55.000Z</time>
      </trkpt>
      <trkpt lat="46.831" lon="0.38752">
        <ele>115</ele>
        <time>2019-02-03T08:40:56.000Z</time>
      </trkpt>
      <trkpt lat="46.83096" lon="0.3875">
        <ele>115</ele>
        <time>2019-02-03T08:40:57.000Z</time>
      </trkpt>
      <trkpt lat="46.83093" lon="0.38749">
        <ele>115</ele>
        <time>2019-02-03T08:40:58.000Z</time>
      </trkpt>
      <trkpt lat="46.8309" lon="0.38747">
        <ele>115</ele>
        <time>2019-02-03T08:40:59.000Z</time>
      </trkpt>
      <trkpt lat="46.83087" lon="0.38744">
        <ele>115</ele>
        <time>2019-02-03T08:41:00.000Z</time>
      </trkpt>
      <trkpt lat="46.83085" lon="0.38741">
        <ele>115</ele>
        <time>2019-02-03T08:41:01.000Z</time>
      </trkpt>
      <trkpt lat="46.83083" lon="0.38736">
        <ele>115</ele>
        <time>2019-02-03T08:41:02.000Z</time>
      </trkpt>
      <trkpt lat="46.83083" lon="0.38731">
        <ele>116</ele>
        <time>2019-02-03T08:41:03.000Z</time>
      </trkpt>
      <trkpt lat="46.83083" lon="0.38726">
        <ele>115</ele>
        <time>2019-02-03T08:41:04.000Z</time>
      </trkpt>
      <trkpt lat="46.83085" lon="0.38721">
        <ele>115</ele>
        <time>2019-02-03T08:41:05.000Z</time>
      </trkpt>
      <trkpt lat="46.83087" lon="0.38715">
        <ele>115</ele>
        <time>2019-02-03T08:41:06.000Z</time>
      </trkpt>
      <trkpt lat="46.83088" lon="0.3871">
        <ele>114</ele>
        <time>2019-02-03T08:41:07.000Z</time>
      </trkpt>
      <trkpt lat="46.8309" lon="0.38704">
        <ele>114</ele>
        <time>2019-02-03T08:41:08.000Z</time>
      </trkpt>
      <trkpt lat="46.83092" lon="0.38698">
        <ele>114</ele>
        <time>2019-02-03T08:41:09.000Z</time>
      </trkpt>
      <trkpt lat="46.83094" lon="0.38691">
        <ele>114</ele>
        <time>2019-02-03T08:41:10.000Z</time>
      </trkpt>
      <trkpt lat="46.83096" lon="0.38685">
        <ele>113</ele>
        <time>2019-02-03T08:41:11.000Z</time>
      </trkpt>
      <trkpt lat="46.83098" lon="0.38678">
        <ele>113</ele>
        <time>2019-02-03T08:41:12.000Z</time>
      </trkpt>
      <trkpt lat="46.831" lon="0.38671">
        <ele>113</ele>
        <time>2019-02-03T08:41:13.000Z</time>
      </trkpt>
      <trkpt lat="46.83102" lon="0.38664">
        <ele>112</ele>
        <time>2019-02-03T08:41:14.000Z</time>
      </trkpt>
      <trkpt lat="46.83104" lon="0.38657">
        <ele>112</ele>
        <time>2019-02-03T08:41:15.000Z</time>
      </trkpt>
      <trkpt lat="46.83106" lon="0.3865">
        <ele>112</ele>
        <time>2019-02-03T08:41:16.000Z</time>
      </trkpt>
      <trkpt lat="46.83109" lon="0.38643">
        <ele>112</ele>
        <time>2019-02-03T08:41:17.000Z</time>
      </trkpt>
      <trkpt lat="46.83111" lon="0.38636">
        <ele>112</ele>
        <time>2019-02-03T08:41:18.000Z</time>
      </trkpt>
      <trkpt lat="46.83113" lon="0.38629">
        <ele>112</ele>
        <time>2019-02-03T08:41:19.000Z</time>
      </trkpt>
      <trkpt lat="46.83115" lon="0.38623">
        <ele>111</ele>
        <time>2019-02-03T08:41:20.000Z</time>
      </trkpt>
      <trkpt lat="46.83117" lon="0.38616">
        <ele>111</ele>
        <time>2019-02-03T08:41:21.000Z</time>
      </trkpt>
      <trkpt lat="46.83119" lon="0.3861">
        <ele>111</ele>
        <time>2019-02-03T08:41:22.000Z</time>
      </trkpt>
      <trkpt lat="46.83121" lon="0.38603">
        <ele>111</ele>
        <time>2019-02-03T08:41:23.000Z</time>
      </trkpt>
      <trkpt lat="46.83123" lon="0.38597">
        <ele>111</ele>
        <time>2019-02-03T08:41:24.000Z</time>
      </trkpt>
      <trkpt lat="46.83125" lon="0.3859">
        <ele>111</ele>
        <time>2019-02-03T08:41:25.000Z</time>
      </trkpt>
      <trkpt lat="46.83127" lon="0.38584">
        <ele>110</ele>
        <time>2019-02-03T08:41:26.000Z</time>
      </trkpt>
      <trkpt lat="46.83129" lon="0.38577">
        <ele>111</ele>
        <time>2019-02-03T08:41:27.000Z</time>
      </trkpt>
      <trkpt lat="46.83131" lon="0.38571">
        <ele>110</ele>
        <time>2019-02-03T08:41:28.000Z</time>
      </trkpt>
      <trkpt lat="46.83133" lon="0.38564">
        <ele>110</ele>
        <time>2019-02-03T08:41:29.000Z</time>
      </trkpt>
      <trkpt lat="46.83135" lon="0.38557">
        <ele>110</ele>
        <time>2019-02-03T08:41:30.000Z</time>
      </trkpt>
      <trkpt lat="46.83137" lon="0.3855">
        <ele>110</ele>
        <time>2019-02-03T08:41:31.000Z</time>
      </trkpt>
      <trkpt lat="46.83139" lon="0.38544">
        <ele>110</ele>
        <time>2019-02-03T08:41:32.000Z</time>
      </trkpt>
      <trkpt lat="46.83141" lon="0.38537">
        <ele>109</ele>
        <time>2019-02-03T08:41:33.000Z</time>
      </trkpt>
      <trkpt lat="46.83143" lon="0.3853">
        <ele>109</ele>
        <time>2019-02-03T08:41:34.000Z</time>
      </trkpt>
      <trkpt lat="46.83145" lon="0.38523">
        <ele>109</ele>
        <time>2019-02-03T08:41:35.000Z</time>
      </trkpt>
      <trkpt lat="46.83147" lon="0.38516">
        <ele>109</ele>
        <time>2019-02-03T08:41:36.000Z</time>
      </trkpt>
      <trkpt lat="46.83149" lon="0.38509">
        <ele>109</ele>
        <time>2019-02-03T08:41:37.000Z</time>
      </trkpt>
      <trkpt lat="46.83151" lon="0.38503">
        <ele>109</ele>
        <time>2019-02-03T08:41:38.000Z</time>
      </trkpt>
      <trkpt lat="46.83153" lon="0.38496">
        <ele>109</ele>
        <time>2019-02-03T08:41:39.000Z</time>
      </trkpt>
      <trkpt lat="46.83155" lon="0.3849">
        <ele>109</ele>
        <time>2019-02-03T08:41:40.000Z</time>
      </trkpt>
      <trkpt lat="46.83157" lon="0.38484">
        <ele>109</ele>
        <time>2019-02-03T08:41:41.000Z</time>
      </trkpt>
      <trkpt lat="46.83159" lon="0.38478">
        <ele>109</ele>
        <time>2019-02-03T08:41:42.000Z</time>
      </trkpt>
      <trkpt lat="46.8316" lon="0.38472">
        <ele>109</ele>
        <time>2019-02-03T08:41:43.000Z</time>
      </trkpt>
      <trkpt lat="46.83161" lon="0.38466">
        <ele>108</ele>
        <time>2019-02-03T08:41:44.000Z</time>
      </trkpt>
      <trkpt lat="46.83162" lon="0.38461">
        <ele>108</ele>
        <time>2019-02-03T08:41:45.000Z</time>
      </trkpt>
      <trkpt lat="46.83161" lon="0.38456">
        <ele>108</ele>
        <time>2019-02-03T08:41:46.000Z</time>
      </trkpt>
      <trkpt lat="46.83159" lon="0.38451">
        <ele>108</ele>
        <time>2019-02-03T08:41:47.000Z</time>
      </trkpt>
      <trkpt lat="46.83157" lon="0.38447">
        <ele>108</ele>
        <time>2019-02-03T08:41:48.000Z</time>
      </trkpt>
      <trkpt lat="46.83154" lon="0.38443">
        <ele>108</ele>
        <time>2019-02-03T08:41:49.000Z</time>
      </trkpt>
      <trkpt lat="46.8315" lon="0.3844">
        <ele>108</ele>
        <time>2019-02-03T08:41:50.000Z</time>
      </trkpt>
      <trkpt lat="46.83146" lon="0.38436">
        <ele>108</ele>
        <time>2019-02-03T08:41:51.000Z</time>
      </trkpt>
      <trkpt lat="46.83143" lon="0.38432">
        <ele>108</ele>
        <time>2019-02-03T08:41:52.000Z</time>
      </trkpt>
      <trkpt lat="46.83139" lon="0.38429">
        <ele>108</ele>
        <time>2019-02-03T08:41:53.000Z</time>
      </trkpt>
      <trkpt lat="46.83135" lon="0.38425">
        <ele>108</ele>
        <time>2019-02-03T08:41:54.000Z</time>
      </trkpt>
      <trkpt lat="46.83131" lon="0.38421">
        <ele>108</ele>
        <time>2019-02-03T08:41:55.000Z</time>
      </trkpt>
      <trkpt lat="46.83127" lon="0.38417">
        <ele>108</ele>
        <time>2019-02-03T08:41:56.000Z</time>
      </trkpt>
      <trkpt lat="46.83124" lon="0.38413">
        <ele>108</ele>
        <time>2019-02-03T08:41:57.000Z</time>
      </trkpt>
      <trkpt lat="46.8312" lon="0.38409">
        <ele>108</ele>
        <time>2019-02-03T08:41:58.000Z</time>
      </trkpt>
      <trkpt lat="46.83116" lon="0.38405">
        <ele>109</ele>
        <time>2019-02-03T08:41:59.000Z</time>
      </trkpt>
      <trkpt lat="46.83112" lon="0.38402">
        <ele>109</ele>
        <time>2019-02-03T08:42:00.000Z</time>
      </trkpt>
      <trkpt lat="46.83108" lon="0.38398">
        <ele>109</ele>
        <time>2019-02-03T08:42:01.000Z</time>
      </trkpt>
      <trkpt lat="46.83104" lon="0.38394">
        <ele>109</ele>
        <time>2019-02-03T08:42:02.000Z</time>
      </trkpt>
      <trkpt lat="46.831" lon="0.3839">
        <ele>109</ele>
        <time>2019-02-03T08:42:03.000Z</time>
      </trkpt>
      <trkpt lat="46.83096" lon="0.38386">
        <ele>109</ele>
        <time>2019-02-03T08:42:04.000Z</time>
      </trkpt>
      <trkpt lat="46.83092" lon="0.38382">
        <ele>109</ele>
        <time>2019-02-03T08:42:05.000Z</time>
      </trkpt>
      <trkpt lat="46.83089" lon="0.38379">
        <ele>109</ele>
        <time>2019-02-03T08:42:06.000Z</time>
      </trkpt>
      <trkpt lat="46.83085" lon="0.38375">
        <ele>109</ele>
        <time>2019-02-03T08:42:07.000Z</time>
      </trkpt>
      <trkpt lat="46.83081" lon="0.38371">
        <ele>109</ele>
        <time>2019-02-03T08:42:08.000Z</time>
      </trkpt>
      <trkpt lat="46.83078" lon="0.38366">
        <ele>109</ele>
        <time>2019-02-03T08:42:09.000Z</time>
      </trkpt>
      <trkpt lat="46.83074" lon="0.38362">
        <ele>109</ele>
        <time>2019-02-03T08:42:10.000Z</time>
      </trkpt>
      <trkpt lat="46.83071" lon="0.38356">
        <ele>108</ele>
        <time>2019-02-03T08:42:11.000Z</time>
      </trkpt>
      <trkpt lat="46.83068" lon="0.38351">
        <ele>108</ele>
        <time>2019-02-03T08:42:12.000Z</time>
      </trkpt>
      <trkpt lat="46.83065" lon="0.38344">
        <ele>108</ele>
        <time>2019-02-03T08:42:13.000Z</time>
      </trkpt>
      <trkpt lat="46.83062" lon="0.38338">
        <ele>108</ele>
        <time>2019-02-03T08:42:14.000Z</time>
      </trkpt>
      <trkpt lat="46.8306" lon="0.38332">
        <ele>108</ele>
        <time>2019-02-03T08:42:15.000Z</time>
      </trkpt>
      <trkpt lat="46.83057" lon="0.38325">
        <ele>108</ele>
        <time>2019-02-03T08:42:16.000Z</time>
      </trkpt>
      <trkpt lat="46.83055" lon="0.38319">
        <ele>108</ele>
        <time>2019-02-03T08:42:17.000Z</time>
      </trkpt>
      <trkpt lat="46.83052" lon="0.38313">
        <ele>108</ele>
        <time>2019-02-03T08:42:18.000Z</time>
      </trkpt>
      <trkpt lat="46.8305" lon="0.38307">
        <ele>108</ele>
        <time>2019-02-03T08:42:19.000Z</time>
      </trkpt>
      <trkpt lat="46.83047" lon="0.38301">
        <ele>108</ele>
        <time>2019-02-03T08:42:20.000Z</time>
      </trkpt>
      <trkpt lat="46.83044" lon="0.38294">
        <ele>108</ele>
        <time>2019-02-03T08:42:21.000Z</time>
      </trkpt>
      <trkpt lat="46.83041" lon="0.38288">
        <ele>108</ele>
        <time>2019-02-03T08:42:22.000Z</time>
      </trkpt>
      <trkpt lat="46.83038" lon="0.38282">
        <ele>108</ele>
        <time>2019-02-03T08:42:23.000Z</time>
      </trkpt>
      <trkpt lat="46.83034" lon="0.38276">
        <ele>108</ele>
        <time>2019-02-03T08:42:24.000Z</time>
      </trkpt>
      <trkpt lat="46.83031" lon="0.3827">
        <ele>107</ele>
        <time>2019-02-03T08:42:25.000Z</time>
      </trkpt>
      <trkpt lat="46.83028" lon="0.38264">
        <ele>107</ele>
        <time>2019-02-03T08:42:26.000Z</time>
      </trkpt>
      <trkpt lat="46.83025" lon="0.38258">
        <ele>107</ele>
        <time>2019-02-03T08:42:27.000Z</time>
      </trkpt>
      <trkpt lat="46.83021" lon="0.38252">
        <ele>107</ele>
        <time>2019-02-03T08:42:28.000Z</time>
      </trkpt>
      <trkpt lat="46.83018" lon="0.38246">
        <ele>107</ele>
        <time>2019-02-03T08:42:29.000Z</time>
      </trkpt>
      <trkpt lat="46.83015" lon="0.3824">
        <ele>107</ele>
        <time>2019-02-03T08:42:30.000Z</time>
      </trkpt>
      <trkpt lat="46.83012" lon="0.38234">
        <ele>107</ele>
        <time>2019-02-03T08:42:31.000Z</time>
      </trkpt>
      <trkpt lat="46.83008" lon="0.38228">
        <ele>107</ele>
        <time>2019-02-03T08:42:32.000Z</time>
      </trkpt>
      <trkpt lat="46.83005" lon="0.38221">
        <ele>107</ele>
        <time>2019-02-03T08:42:33.000Z</time>
      </trkpt>
      <trkpt lat="46.83002" lon="0.38215">
        <ele>107</ele>
        <time>2019-02-03T08:42:34.000Z</time>
      </trkpt>
      <trkpt lat="46.82999" lon="0.38209">
        <ele>107</ele>
        <time>2019-02-03T08:42:35.000Z</time>
      </trkpt>
      <trkpt lat="46.82996" lon="0.38202">
        <ele>107</ele>
        <time>2019-02-03T08:42:36.000Z</time>
      </trkpt>
      <trkpt lat="46.82993" lon="0.38196">
        <ele>107</ele>
        <time>2019-02-03T08:42:37.000Z</time>
      </trkpt>
      <trkpt lat="46.8299" lon="0.38189">
        <ele>107</ele>
        <time>2019-02-03T08:42:38.000Z</time>
      </trkpt>
      <trkpt lat="46.82987" lon="0.38183">
        <ele>107</ele>
        <time>2019-02-03T08:42:39.000Z</time>
      </trkpt>
      <trkpt lat="46.82984" lon="0.38176">
        <ele>107</ele>
        <time>2019-02-03T08:42:40.000Z</time>
      </trkpt>
      <trkpt lat="46.8298" lon="0.3817">
        <ele>107</ele>
        <time>2019-02-03T08:42:41.000Z</time>
      </trkpt>
      <trkpt lat="46.82977" lon="0.38165">
        <ele>107</ele>
        <time>2019-02-03T08:42:42.000Z</time>
      </trkpt>
      <trkpt lat="46.82973" lon="0.3816">
        <ele>107</ele>
        <time>2019-02-03T08:42:43.000Z</time>
      </trkpt>
      <trkpt lat="46.82969" lon="0.38155">
        <ele>107</ele>
        <time>2019-02-03T08:42:44.000Z</time>
      </trkpt>
      <trkpt lat="46.82964" lon="0.38151">
        <ele>107</ele>
        <time>2019-02-03T08:42:45.000Z</time>
      </trkpt>
      <trkpt lat="46.8296" lon="0.38146">
        <ele>107</ele>
        <time>2019-02-03T08:42:46.000Z</time>
      </trkpt>
      <trkpt lat="46.82955" lon="0.38142">
        <ele>107</ele>
        <time>2019-02-03T08:42:47.000Z</time>
      </trkpt>
      <trkpt lat="46.8295" lon="0.38138">
        <ele>107</ele>
        <time>2019-02-03T08:42:48.000Z</time>
      </trkpt>
      <trkpt lat="46.82945" lon="0.38134">
        <ele>107</ele>
        <time>2019-02-03T08:42:49.000Z</time>
      </trkpt>
      <trkpt lat="46.8294" lon="0.3813">
        <ele>107</ele>
        <time>2019-02-03T08:42:50.000Z</time>
      </trkpt>
      <trkpt lat="46.82936" lon="0.38126">
        <ele>107</ele>
        <time>2019-02-03T08:42:51.000Z</time>
      </trkpt>
      <trkpt lat="46.82931" lon="0.38122">
        <ele>107</ele>
        <time>2019-02-03T08:42:52.000Z</time>
      </trkpt>
      <trkpt lat="46.82926" lon="0.38118">
        <ele>108</ele>
        <time>2019-02-03T08:42:53.000Z</time>
      </trkpt>
      <trkpt lat="46.82921" lon="0.38114">
        <ele>108</ele>
        <time>2019-02-03T08:42:54.000Z</time>
      </trkpt>
      <trkpt lat="46.82916" lon="0.3811">
        <ele>108</ele>
        <time>2019-02-03T08:42:55.000Z</time>
      </trkpt>
      <trkpt lat="46.82911" lon="0.38106">
        <ele>108</ele>
        <time>2019-02-03T08:42:56.000Z</time>
      </trkpt>
      <trkpt lat="46.82907" lon="0.38102">
        <ele>108</ele>
        <time>2019-02-03T08:42:57.000Z</time>
      </trkpt>
      <trkpt lat="46.82902" lon="0.38098">
        <ele>108</ele>
        <time>2019-02-03T08:42:58.000Z</time>
      </trkpt>
      <trkpt lat="46.82897" lon="0.38095">
        <ele>108</ele>
        <time>2019-02-03T08:42:59.000Z</time>
      </trkpt>
      <trkpt lat="46.82892" lon="0.38091">
        <ele>108</ele>
        <time>2019-02-03T08:43:00.000Z</time>
      </trkpt>
      <trkpt lat="46.82887" lon="0.38088">
        <ele>108</ele>
        <time>2019-02-03T08:43:01.000Z</time>
      </trkpt>
      <trkpt lat="46.82882" lon="0.38085">
        <ele>108</ele>
        <time>2019-02-03T08:43:02.000Z</time>
      </trkpt>
      <trkpt lat="46.82878" lon="0.38082">
        <ele>108</ele>
        <time>2019-02-03T08:43:03.000Z</time>
      </trkpt>
      <trkpt lat="46.82873" lon="0.38079">
        <ele>109</ele>
        <time>2019-02-03T08:43:04.000Z</time>
      </trkpt>
      <trkpt lat="46.82868" lon="0.38077">
        <ele>109</ele>
        <time>2019-02-03T08:43:05.000Z</time>
      </trkpt>
      <trkpt lat="46.82862" lon="0.38075">
        <ele>109</ele>
        <time>2019-02-03T08:43:06.000Z</time>
      </trkpt>
      <trkpt lat="46.82857" lon="0.38073">
        <ele>109</ele>
        <time>2019-02-03T08:43:07.000Z</time>
      </trkpt>
      <trkpt lat="46.82852" lon="0.38071">
        <ele>109</ele>
        <time>2019-02-03T08:43:08.000Z</time>
      </trkpt>
      <trkpt lat="46.82846" lon="0.38069">
        <ele>109</ele>
        <time>2019-02-03T08:43:09.000Z</time>
      </trkpt>
      <trkpt lat="46.82841" lon="0.38067">
        <ele>109</ele>
        <time>2019-02-03T08:43:10.000Z</time>
      </trkpt>
      <trkpt lat="46.82835" lon="0.38066">
        <ele>110</ele>
        <time>2019-02-03T08:43:11.000Z</time>
      </trkpt>
      <trkpt lat="46.8283" lon="0.38064">
        <ele>110</ele>
        <time>2019-02-03T08:43:12.000Z</time>
      </trkpt>
      <trkpt lat="46.82824" lon="0.38063">
        <ele>110</ele>
        <time>2019-02-03T08:43:13.000Z</time>
      </trkpt>
      <trkpt lat="46.82819" lon="0.38062">
        <ele>110</ele>
        <time>2019-02-03T08:43:14.000Z</time>
      </trkpt>
      <trkpt lat="46.82813" lon="0.3806">
        <ele>110</ele>
        <time>2019-02-03T08:43:15.000Z</time>
      </trkpt>
      <trkpt lat="46.82807" lon="0.38059">
        <ele>110</ele>
        <time>2019-02-03T08:43:16.000Z</time>
      </trkpt>
      <trkpt lat="46.82801" lon="0.38058">
        <ele>110</ele>
        <time>2019-02-03T08:43:17.000Z</time>
      </trkpt>
      <trkpt lat="46.82796" lon="0.38057">
        <ele>110</ele>
        <time>2019-02-03T08:43:18.000Z</time>
      </trkpt>
      <trkpt lat="46.8279" lon="0.38056">
        <ele>110</ele>
        <time>2019-02-03T08:43:19.000Z</time>
      </trkpt>
      <trkpt lat="46.82784" lon="0.38054">
        <ele>109</ele>
        <time>2019-02-03T08:43:20.000Z</time>
      </trkpt>
      <trkpt lat="46.82778" lon="0.38053">
        <ele>109</ele>
        <time>2019-02-03T08:43:21.000Z</time>
      </trkpt>
      <trkpt lat="46.82772" lon="0.38052">
        <ele>109</ele>
        <time>2019-02-03T08:43:22.000Z</time>
      </trkpt>
      <trkpt lat="46.82766" lon="0.38051">
        <ele>109</ele>
        <time>2019-02-03T08:43:23.000Z</time>
      </trkpt>
      <trkpt lat="46.8276" lon="0.3805">
        <ele>109</ele>
        <time>2019-02-03T08:43:24.000Z</time>
      </trkpt>
      <trkpt lat="46.82754" lon="0.38049">
        <ele>109</ele>
        <time>2019-02-03T08:43:25.000Z</time>
      </trkpt>
      <trkpt lat="46.82748" lon="0.38048">
        <ele>109</ele>
        <time>2019-02-03T08:43:26.000Z</time>
      </trkpt>
      <trkpt lat="46.82742" lon="0.38047">
        <ele>109</ele>
        <time>2019-02-03T08:43:27.000Z</time>
      </trkpt>
      <trkpt lat="46.82737" lon="0.38046">
        <ele>109</ele>
        <time>2019-02-03T08:43:28.000Z</time>
      </trkpt>
      <trkpt lat="46.82731" lon="0.38045">
        <ele>109</ele>
        <time>2019-02-03T08:43:29.000Z</time>
      </trkpt>
      <trkpt lat="46.82725" lon="0.38044">
        <ele>109</ele>
        <time>2019-02-03T08:43:30.000Z</time>
      </trkpt>
      <trkpt lat="46.8272" lon="0.38043">
        <ele>109</ele>
        <time>2019-02-03T08:43:31.000Z</time>
      </trkpt>
      <trkpt lat="46.82714" lon="0.38043">
        <ele>109</ele>
        <time>2019-02-03T08:43:32.000Z</time>
      </trkpt>
      <trkpt lat="46.82708" lon="0.38042">
        <ele>109</ele>
        <time>2019-02-03T08:43:33.000Z</time>
      </trkpt>
      <trkpt lat="46.82703" lon="0.38042">
        <ele>109</ele>
        <time>2019-02-03T08:43:34.000Z</time>
      </trkpt>
      <trkpt lat="46.82697" lon="0.38042">
        <ele>109</ele>
        <time>2019-02-03T08:43:35.000Z</time>
      </trkpt>
      <trkpt lat="46.82691" lon="0.38042">
        <ele>109</ele>
        <time>2019-02-03T08:43:36.000Z</time>
      </trkpt>
      <trkpt lat="46.82686" lon="0.38042">
        <ele>109</ele>
        <time>2019-02-03T08:43:37.000Z</time>
      </trkpt>
      <trkpt lat="46.8268" lon="0.38041">
        <ele>109</ele>
        <time>2019-02-03T08:43:38.000Z</time>
      </trkpt>
      <trkpt lat="46.82675" lon="0.38041">
        <ele>109</ele>
        <time>2019-02-03T08:43:39.000Z</time>
      </trkpt>
      <trkpt lat="46.82669" lon="0.38041">
        <ele>110</ele>
        <time>2019-02-03T08:43:40.000Z</time>
      </trkpt>
      <trkpt lat="46.82664" lon="0.38041">
        <ele>110</ele>
        <time>2019-02-03T08:43:41.000Z</time>
      </trkpt>
      <trkpt lat="46.82658" lon="0.38041">
        <ele>110</ele>
        <time>2019-02-03T08:43:42.000Z</time>
      </trkpt>
      <trkpt lat="46.82653" lon="0.3804">
        <ele>110</ele>
        <time>2019-02-03T08:43:43.000Z</time>
      </trkpt>
      <trkpt lat="46.82647" lon="0.3804">
        <ele>110</ele>
        <time>2019-02-03T08:43:44.000Z</time>
      </trkpt>
      <trkpt lat="46.82641" lon="0.3804">
        <ele>110</ele>
        <time>2019-02-03T08:43:45.000Z</time>
      </trkpt>
      <trkpt lat="46.82636" lon="0.3804">
        <ele>110</ele>
        <time>2019-02-03T08:43:46.000Z</time>
      </trkpt>
      <trkpt lat="46.8263" lon="0.3804">
        <ele>110</ele>
        <time>2019-02-03T08:43:47.000Z</time>
      </trkpt>
      <trkpt lat="46.82625" lon="0.3804">
        <ele>110</ele>
        <time>2019-02-03T08:43:48.000Z</time>
      </trkpt>
      <trkpt lat="46.8262" lon="0.3804">
        <ele>110</ele>
        <time>2019-02-03T08:43:49.000Z</time>
      </trkpt>
      <trkpt lat="46.82614" lon="0.3804">
        <ele>110</ele>
        <time>2019-02-03T08:43:50.000Z</time>
      </trkpt>
      <trkpt lat="46.82609" lon="0.3804">
        <ele>110</ele>
        <time>2019-02-03T08:43:51.000Z</time>
      </trkpt>
      <trkpt lat="46.82603" lon="0.38039">
        <ele>110</ele>
        <time>2019-02-03T08:43:52.000Z</time>
      </trkpt>
      <trkpt lat="46.82598" lon="0.38039">
        <ele>110</ele>
        <time>2019-02-03T08:43:53.000Z</time>
      </trkpt>
      <trkpt lat="46.82593" lon="0.38039">
        <ele>110</ele>
        <time>2019-02-03T08:43:54.000Z</time>
      </trkpt>
      <trkpt lat="46.82587" lon="0.38039">
        <ele>110</ele>
        <time>2019-02-03T08:43:55.000Z</time>
      </trkpt>
      <trkpt lat="46.82582" lon="0.38039">
        <ele>110</ele>
        <time>2019-02-03T08:43:56.000Z</time>
      </trkpt>
      <trkpt lat="46.82577" lon="0.38039">
        <ele>110</ele>
        <time>2019-02-03T08:43:57.000Z</time>
      </trkpt>
      <trkpt lat="46.82572" lon="0.38039">
        <ele>110</ele>
        <time>2019-02-03T08:43:58.000Z</time>
      </trkpt>
      <trkpt lat="46.82566" lon="0.38039">
        <ele>110</ele>
        <time>2019-02-03T08:43:59.000Z</time>
      </trkpt>
      <trkpt lat="46.82561" lon="0.38039">
        <ele>111</ele>
        <time>2019-02-03T08:44:00.000Z</time>
      </trkpt>
      <trkpt lat="46.82556" lon="0.38039">
        <ele>111</ele>
        <time>2019-02-03T08:44:01.000Z</time>
      </trkpt>
      <trkpt lat="46.82551" lon="0.38038">
        <ele>111</ele>
        <time>2019-02-03T08:44:02.000Z</time>
      </trkpt>
      <trkpt lat="46.82546" lon="0.38038">
        <ele>111</ele>
        <time>2019-02-03T08:44:03.000Z</time>
      </trkpt>
      <trkpt lat="46.82541" lon="0.38038">
        <ele>111</ele>
        <time>2019-02-03T08:44:04.000Z</time>
      </trkpt>
      <trkpt lat="46.82536" lon="0.38038">
        <ele>111</ele>
        <time>2019-02-03T08:44:05.000Z</time>
      </trkpt>
      <trkpt lat="46.82532" lon="0.38038">
        <ele>111</ele>
        <time>2019-02-03T08:44:06.000Z</time>
      </trkpt>
      <trkpt lat="46.82527" lon="0.38038">
        <ele>111</ele>
        <time>2019-02-03T08:44:07.000Z</time>
      </trkpt>
      <trkpt lat="46.82523" lon="0.38037">
        <ele>111</ele>
        <time>2019-02-03T08:44:08.000Z</time>
      </trkpt>
      <trkpt lat="46.82519" lon="0.38037">
        <ele>111</ele>
        <time>2019-02-03T08:44:09.000Z</time>
      </trkpt>
      <trkpt lat="46.82514" lon="0.38036">
        <ele>111</ele>
        <time>2019-02-03T08:44:10.000Z</time>
      </trkpt>
      <trkpt lat="46.8251" lon="0.38035">
        <ele>111</ele>
        <time>2019-02-03T08:44:11.000Z</time>
      </trkpt>
      <trkpt lat="46.82506" lon="0.38034">
        <ele>111</ele>
        <time>2019-02-03T08:44:12.000Z</time>
      </trkpt>
      <trkpt lat="46.82501" lon="0.38033">
        <ele>111</ele>
        <time>2019-02-03T08:44:13.000Z</time>
      </trkpt>
      <trkpt lat="46.82497" lon="0.38032">
        <ele>111</ele>
        <time>2019-02-03T08:44:14.000Z</time>
      </trkpt>
      <trkpt lat="46.82493" lon="0.38031">
        <ele>111</ele>
        <time>2019-02-03T08:44:15.000Z</time>
      </trkpt>
      <trkpt lat="46.82488" lon="0.38029">
        <ele>111</ele>
        <time>2019-02-03T08:44:16.000Z</time>
      </trkpt>
      <trkpt lat="46.82484" lon="0.38027">
        <ele>111</ele>
        <time>2019-02-03T08:44:17.000Z</time>
      </trkpt>
      <trkpt lat="46.8248" lon="0.38025">
        <ele>111</ele>
        <time>2019-02-03T08:44:18.000Z</time>
      </trkpt>
      <trkpt lat="46.82476" lon="0.38023">
        <ele>111</ele>
        <time>2019-02-03T08:44:19.000Z</time>
      </trkpt>
      <trkpt lat="46.82471" lon="0.38021">
        <ele>111</ele>
        <time>2019-02-03T08:44:20.000Z</time>
      </trkpt>
      <trkpt lat="46.82467" lon="0.38019">
        <ele>111</ele>
        <time>2019-02-03T08:44:21.000Z</time>
      </trkpt>
      <trkpt lat="46.82463" lon="0.38017">
        <ele>111</ele>
        <time>2019-02-03T08:44:22.000Z</time>
      </trkpt>
      <trkpt lat="46.82459" lon="0.38015">
        <ele>111</ele>
        <time>2019-02-03T08:44:23.000Z</time>
      </trkpt>
      <trkpt lat="46.82454" lon="0.38013">
        <ele>111</ele>
        <time>2019-02-03T08:44:24.000Z</time>
      </trkpt>
      <trkpt lat="46.8245" lon="0.38011">
        <ele>112</ele>
        <time>2019-02-03T08:44:25.000Z</time>
      </trkpt>
      <trkpt lat="46.82446" lon="0.38009">
        <ele>112</ele>
        <time>2019-02-03T08:44:26.000Z</time>
      </trkpt>
      <trkpt lat="46.82442" lon="0.38007">
        <ele>112</ele>
        <time>2019-02-03T08:44:27.000Z</time>
      </trkpt>
      <trkpt lat="46.82438" lon="0.38005">
        <ele>112</ele>
        <time>2019-02-03T08:44:28.000Z</time>
      </trkpt>
      <trkpt lat="46.82434" lon="0.38003">
        <ele>112</ele>
        <time>2019-02-03T08:44:29.000Z</time>
      </trkpt>
      <trkpt lat="46.8243" lon="0.38001">
        <ele>112</ele>
        <time>2019-02-03T08:44:30.000Z</time>
      </trkpt>
      <trkpt lat="46.82425" lon="0.38">
        <ele>112</ele>
        <time>2019-02-03T08:44:31.000Z</time>
      </trkpt>
      <trkpt lat="46.82421" lon="0.37998">
        <ele>112</ele>
        <time>2019-02-03T08:44:32.000Z</time>
      </trkpt>
      <trkpt lat="46.82417" lon="0.37996">
        <ele>112</ele>
        <time>2019-02-03T08:44:33.000Z</time>
      </trkpt>
      <trkpt lat="46.82413" lon="0.37994">
        <ele>112</ele>
        <time>2019-02-03T08:44:34.000Z</time>
      </trkpt>
      <trkpt lat="46.82409" lon="0.37991">
        <ele>113</ele>
        <time>2019-02-03T08:44:35.000Z</time>
      </trkpt>
      <trkpt lat="46.82405" lon="0.37989">
        <ele>112</ele>
        <time>2019-02-03T08:44:36.000Z</time>
      </trkpt>
      <trkpt lat="46.82401" lon="0.37987">
        <ele>113</ele>
        <time>2019-02-03T08:44:37.000Z</time>
      </trkpt>
      <trkpt lat="46.82398" lon="0.37984">
        <ele>113</ele>
        <time>2019-02-03T08:44:38.000Z</time>
      </trkpt>
      <trkpt lat="46.82394" lon="0.3798">
        <ele>113</ele>
        <time>2019-02-03T08:44:39.000Z</time>
      </trkpt>
      <trkpt lat="46.82391" lon="0.37977">
        <ele>113</ele>
        <time>2019-02-03T08:44:40.000Z</time>
      </trkpt>
      <trkpt lat="46.82387" lon="0.37973">
        <ele>113</ele>
        <time>2019-02-03T08:44:41.000Z</time>
      </trkpt>
      <trkpt lat="46.82384" lon="0.37969">
        <ele>113</ele>
        <time>2019-02-03T08:44:42.000Z</time>
      </trkpt>
      <trkpt lat="46.82381" lon="0.37965">
        <ele>113</ele>
        <time>2019-02-03T08:44:43.000Z</time>
      </trkpt>
      <trkpt lat="46.82378" lon="0.37961">
        <ele>113</ele>
        <time>2019-02-03T08:44:44.000Z</time>
      </trkpt>
      <trkpt lat="46.82375" lon="0.37956">
        <ele>113</ele>
        <time>2019-02-03T08:44:45.000Z</time>
      </trkpt>
      <trkpt lat="46.82372" lon="0.37952">
        <ele>113</ele>
        <time>2019-02-03T08:44:46.000Z</time>
      </trkpt>
      <trkpt lat="46.82368" lon="0.37948">
        <ele>113</ele>
        <time>2019-02-03T08:44:47.000Z</time>
      </trkpt>
      <trkpt lat="46.82365" lon="0.37943">
        <ele>113</ele>
        <time>2019-02-03T08:44:48.000Z</time>
      </trkpt>
      <trkpt lat="46.82362" lon="0.37939">
        <ele>114</ele>
        <time>2019-02-03T08:44:49.000Z</time>
      </trkpt>
      <trkpt lat="46.82359" lon="0.37935">
        <ele>114</ele>
        <time>2019-02-03T08:44:50.000Z</time>
      </trkpt>
      <trkpt lat="46.82356" lon="0.37931">
        <ele>114</ele>
        <time>2019-02-03T08:44:51.000Z</time>
      </trkpt>
      <trkpt lat="46.82353" lon="0.37926">
        <ele>114</ele>
        <time>2019-02-03T08:44:52.000Z</time>
      </trkpt>
      <trkpt lat="46.8235" lon="0.37922">
        <ele>114</ele>
        <time>2019-02-03T08:44:53.000Z</time>
      </trkpt>
      <trkpt lat="46.82347" lon="0.37917">
        <ele>114</ele>
        <time>2019-02-03T08:44:54.000Z</time>
      </trkpt>
      <trkpt lat="46.82344" lon="0.37913">
        <ele>114</ele>
        <time>2019-02-03T08:44:55.000Z</time>
      </trkpt>
      <trkpt lat="46.82341" lon="0.37909">
        <ele>114</ele>
        <time>2019-02-03T08:44:56.000Z</time>
      </trkpt>
      <trkpt lat="46.82338" lon="0.37905">
        <ele>114</ele>
        <time>2019-02-03T08:44:57.000Z</time>
      </trkpt>
      <trkpt lat="46.82335" lon="0.37901">
        <ele>114</ele>
        <time>2019-02-03T08:44:58.000Z</time>
      </trkpt>
      <trkpt lat="46.82332" lon="0.37896">
        <ele>114</ele>
        <time>2019-02-03T08:44:59.000Z</time>
      </trkpt>
      <trkpt lat="46.82329" lon="0.37893">
        <ele>114</ele>
        <time>2019-02-03T08:45:00.000Z</time>
      </trkpt>
      <trkpt lat="46.82326" lon="0.37889">
        <ele>114</ele>
        <time>2019-02-03T08:45:01.000Z</time>
      </trkpt>
      <trkpt lat="46.82323" lon="0.37885">
        <ele>114</ele>
        <time>2019-02-03T08:45:02.000Z</time>
      </trkpt>
      <trkpt lat="46.8232" lon="0.37881">
        <ele>114</ele>
        <time>2019-02-03T08:45:03.000Z</time>
      </trkpt>
      <trkpt lat="46.82318" lon="0.37877">
        <ele>114</ele>
        <time>2019-02-03T08:45:04.000Z</time>
      </trkpt>
      <trkpt lat="46.82316" lon="0.37872">
        <ele>114</ele>
        <time>2019-02-03T08:45:05.000Z</time>
      </trkpt>
      <trkpt lat="46.82314" lon="0.37868">
        <ele>114</ele>
        <time>2019-02-03T08:45:06.000Z</time>
      </trkpt>
      <trkpt lat="46.82311" lon="0.37864">
        <ele>114</ele>
        <time>2019-02-03T08:45:07.000Z</time>
      </trkpt>
      <trkpt lat="46.82309" lon="0.37859">
        <ele>114</ele>
        <time>2019-02-03T08:45:08.000Z</time>
      </trkpt>
      <trkpt lat="46.82307" lon="0.37855">
        <ele>114</ele>
        <time>2019-02-03T08:45:09.000Z</time>
      </trkpt>
      <trkpt lat="46.82304" lon="0.3785">
        <ele>114</ele>
        <time>2019-02-03T08:45:10.000Z</time>
      </trkpt>
      <trkpt lat="46.82301" lon="0.37845">
        <ele>114</ele>
        <time>2019-02-03T08:45:11.000Z</time>
      </trkpt>
      <trkpt lat="46.82298" lon="0.3784">
        <ele>114</ele>
        <time>2019-02-03T08:45:12.000Z</time>
      </trkpt>
      <trkpt lat="46.82296" lon="0.37835">
        <ele>114</ele>
        <time>2019-02-03T08:45:13.000Z</time>
      </trkpt>
      <trkpt lat="46.82293" lon="0.37831">
        <ele>114</ele>
        <time>2019-02-03T08:45:14.000Z</time>
      </trkpt>
      <trkpt lat="46.8229" lon="0.37826">
        <ele>114</ele>
        <time>2019-02-03T08:45:15.000Z</time>
      </trkpt>
      <trkpt lat="46.82287" lon="0.37821">
        <ele>114</ele>
        <time>2019-02-03T08:45:16.000Z</time>
      </trkpt>
      <trkpt lat="46.82284" lon="0.37816">
        <ele>114</ele>
        <time>2019-02-03T08:45:17.000Z</time>
      </trkpt>
      <trkpt lat="46.82282" lon="0.37811">
        <ele>114</ele>
        <time>2019-02-03T08:45:18.000Z</time>
      </trkpt>
      <trkpt lat="46.82279" lon="0.37806">
        <ele>114</ele>
        <time>2019-02-03T08:45:19.000Z</time>
      </trkpt>
      <trkpt lat="46.82276" lon="0.37801">
        <ele>114</ele>
        <time>2019-02-03T08:45:20.000Z</time>
      </trkpt>
      <trkpt lat="46.82273" lon="0.37796">
        <ele>114</ele>
        <time>2019-02-03T08:45:21.000Z</time>
      </trkpt>
      <trkpt lat="46.82271" lon="0.37791">
        <ele>114</ele>
        <time>2019-02-03T08:45:22.000Z</time>
      </trkpt>
      <trkpt lat="46.82268" lon="0.37786">
        <ele>114</ele>
        <time>2019-02-03T08:45:23.000Z</time>
      </trkpt>
      <trkpt lat="46.82265" lon="0.37781">
        <ele>114</ele>
        <time>2019-02-03T08:45:24.000Z</time>
      </trkpt>
      <trkpt lat="46.82262" lon="0.37775">
        <ele>114</ele>
        <time>2019-02-03T08:45:25.000Z</time>
      </trkpt>
      <trkpt lat="46.82259" lon="0.3777">
        <ele>114</ele>
        <time>2019-02-03T08:45:26.000Z</time>
      </trkpt>
      <trkpt lat="46.82256" lon="0.37765">
        <ele>114</ele>
        <time>2019-02-03T08:45:27.000Z</time>
      </trkpt>
      <trkpt lat="46.82253" lon="0.3776">
        <ele>114</ele>
        <time>2019-02-03T08:45:28.000Z</time>
      </trkpt>
      <trkpt lat="46.8225" lon="0.37755">
        <ele>114</ele>
        <time>2019-02-03T08:45:29.000Z</time>
      </trkpt>
      <trkpt lat="46.82247" lon="0.3775">
        <ele>114</ele>
        <time>2019-02-03T08:45:30.000Z</time>
      </trkpt>
      <trkpt lat="46.82244" lon="0.37745">
        <ele>114</ele>
        <time>2019-02-03T08:45:31.000Z</time>
      </trkpt>
      <trkpt lat="46.82241" lon="0.3774">
        <ele>113</ele>
        <time>2019-02-03T08:45:32.000Z</time>
      </trkpt>
      <trkpt lat="46.82238" lon="0.37735">
        <ele>113</ele>
        <time>2019-02-03T08:45:33.000Z</time>
      </trkpt>
      <trkpt lat="46.82236" lon="0.37729">
        <ele>113</ele>
        <time>2019-02-03T08:45:34.000Z</time>
      </trkpt>
      <trkpt lat="46.82233" lon="0.37724">
        <ele>113</ele>
        <time>2019-02-03T08:45:35.000Z</time>
      </trkpt>
      <trkpt lat="46.8223" lon="0.37719">
        <ele>113</ele>
        <time>2019-02-03T08:45:36.000Z</time>
      </trkpt>
      <trkpt lat="46.82227" lon="0.37714">
        <ele>113</ele>
        <time>2019-02-03T08:45:37.000Z</time>
      </trkpt>
      <trkpt lat="46.82224" lon="0.37708">
        <ele>113</ele>
        <time>2019-02-03T08:45:38.000Z</time>
      </trkpt>
      <trkpt lat="46.82222" lon="0.37703">
        <ele>112</ele>
        <time>2019-02-03T08:45:39.000Z</time>
      </trkpt>
      <trkpt lat="46.8222" lon="0.37697">
        <ele>113</ele>
        <time>2019-02-03T08:45:40.000Z</time>
      </trkpt>
      <trkpt lat="46.82219" lon="0.37691">
        <ele>113</ele>
        <time>2019-02-03T08:45:41.000Z</time>
      </trkpt>
      <trkpt lat="46.82218" lon="0.37684">
        <ele>113</ele>
        <time>2019-02-03T08:45:42.000Z</time>
      </trkpt>
      <trkpt lat="46.82217" lon="0.37678">
        <ele>113</ele>
        <time>2019-02-03T08:45:43.000Z</time>
      </trkpt>
      <trkpt lat="46.82216" lon="0.37672">
        <ele>113</ele>
        <time>2019-02-03T08:45:44.000Z</time>
      </trkpt>
      <trkpt lat="46.82216" lon="0.37665">
        <ele>113</ele>
        <time>2019-02-03T08:45:45.000Z</time>
      </trkpt>
      <trkpt lat="46.82215" lon="0.37659">
        <ele>112</ele>
        <time>2019-02-03T08:45:46.000Z</time>
      </trkpt>
      <trkpt lat="46.82215" lon="0.37652">
        <ele>112</ele>
        <time>2019-02-03T08:45:47.000Z</time>
      </trkpt>
      <trkpt lat="46.82214" lon="0.37646">
        <ele>112</ele>
        <time>2019-02-03T08:45:48.000Z</time>
      </trkpt>
      <trkpt lat="46.82214" lon="0.37639">
        <ele>113</ele>
        <time>2019-02-03T08:45:49.000Z</time>
      </trkpt>
      <trkpt lat="46.82214" lon="0.37633">
        <ele>113</ele>
        <time>2019-02-03T08:45:50.000Z</time>
      </trkpt>
      <trkpt lat="46.82214" lon="0.37627">
        <ele>112</ele>
        <time>2019-02-03T08:45:51.000Z</time>
      </trkpt>
      <trkpt lat="46.82214" lon="0.3762">
        <ele>112</ele>
        <time>2019-02-03T08:45:52.000Z</time>
      </trkpt>
      <trkpt lat="46.82214" lon="0.37614">
        <ele>112</ele>
        <time>2019-02-03T08:45:53.000Z</time>
      </trkpt>
      <trkpt lat="46.82214" lon="0.37608">
        <ele>112</ele>
        <time>2019-02-03T08:45:54.000Z</time>
      </trkpt>
      <trkpt lat="46.82213" lon="0.37602">
        <ele>112</ele>
        <time>2019-02-03T08:45:55.000Z</time>
      </trkpt>
      <trkpt lat="46.82213" lon="0.37596">
        <ele>111</ele>
        <time>2019-02-03T08:45:56.000Z</time>
      </trkpt>
      <trkpt lat="46.82213" lon="0.37589">
        <ele>111</ele>
        <time>2019-02-03T08:45:57.000Z</time>
      </trkpt>
      <trkpt lat="46.82212" lon="0.37583">
        <ele>111</ele>
        <time>2019-02-03T08:45:58.000Z</time>
      </trkpt>
      <trkpt lat="46.82212" lon="0.37576">
        <ele>111</ele>
        <time>2019-02-03T08:45:59.000Z</time>
      </trkpt>
      <trkpt lat="46.82212" lon="0.3757">
        <ele>111</ele>
        <time>2019-02-03T08:46:00.000Z</time>
      </trkpt>
      <trkpt lat="46.82211" lon="0.37564">
        <ele>111</ele>
        <time>2019-02-03T08:46:01.000Z</time>
      </trkpt>
      <trkpt lat="46.82211" lon="0.37557">
        <ele>111</ele>
        <time>2019-02-03T08:46:02.000Z</time>
      </trkpt>
      <trkpt lat="46.82211" lon="0.37551">
        <ele>111</ele>
        <time>2019-02-03T08:46:03.000Z</time>
      </trkpt>
      <trkpt lat="46.8221" lon="0.37545">
        <ele>111</ele>
        <time>2019-02-03T08:46:04.000Z</time>
      </trkpt>
      <trkpt lat="46.8221" lon="0.37539">
        <ele>111</ele>
        <time>2019-02-03T08:46:05.000Z</time>
      </trkpt>
      <trkpt lat="46.8221" lon="0.37533">
        <ele>111</ele>
        <time>2019-02-03T08:46:06.000Z</time>
      </trkpt>
      <trkpt lat="46.82209" lon="0.37526">
        <ele>111</ele>
        <time>2019-02-03T08:46:07.000Z</time>
      </trkpt>
      <trkpt lat="46.82209" lon="0.3752">
        <ele>111</ele>
        <time>2019-02-03T08:46:08.000Z</time>
      </trkpt>
      <trkpt lat="46.82209" lon="0.37514">
        <ele>111</ele>
        <time>2019-02-03T08:46:09.000Z</time>
      </trkpt>
      <trkpt lat="46.82208" lon="0.37508">
        <ele>111</ele>
        <time>2019-02-03T08:46:10.000Z</time>
      </trkpt>
      <trkpt lat="46.82208" lon="0.37502">
        <ele>111</ele>
        <time>2019-02-03T08:46:11.000Z</time>
      </trkpt>
      <trkpt lat="46.82207" lon="0.37495">
        <ele>111</ele>
        <time>2019-02-03T08:46:12.000Z</time>
      </trkpt>
      <trkpt lat="46.82207" lon="0.37489">
        <ele>111</ele>
        <time>2019-02-03T08:46:13.000Z</time>
      </trkpt>
      <trkpt lat="46.82206" lon="0.37483">
        <ele>111</ele>
        <time>2019-02-03T08:46:14.000Z</time>
      </trkpt>
      <trkpt lat="46.82206" lon="0.37477">
        <ele>111</ele>
        <time>2019-02-03T08:46:15.000Z</time>
      </trkpt>
      <trkpt lat="46.82206" lon="0.37471">
        <ele>111</ele>
        <time>2019-02-03T08:46:16.000Z</time>
      </trkpt>
      <trkpt lat="46.82205" lon="0.37464">
        <ele>111</ele>
        <time>2019-02-03T08:46:17.000Z</time>
      </trkpt>
      <trkpt lat="46.82205" lon="0.37458">
        <ele>111</ele>
        <time>2019-02-03T08:46:18.000Z</time>
      </trkpt>
      <trkpt lat="46.82204" lon="0.37452">
        <ele>111</ele>
        <time>2019-02-03T08:46:19.000Z</time>
      </trkpt>
      <trkpt lat="46.82203" lon="0.37447">
        <ele>111</ele>
        <time>2019-02-03T08:46:20.000Z</time>
      </trkpt>
      <trkpt lat="46.82203" lon="0.37441">
        <ele>111</ele>
        <time>2019-02-03T08:46:21.000Z</time>
      </trkpt>
      <trkpt lat="46.82202" lon="0.37435">
        <ele>111</ele>
        <time>2019-02-03T08:46:22.000Z</time>
      </trkpt>
      <trkpt lat="46.82201" lon="0.37429">
        <ele>111</ele>
        <time>2019-02-03T08:46:23.000Z</time>
      </trkpt>
      <trkpt lat="46.822" lon="0.37423">
        <ele>111</ele>
        <time>2019-02-03T08:46:24.000Z</time>
      </trkpt>
      <trkpt lat="46.82199" lon="0.37417">
        <ele>110</ele>
        <time>2019-02-03T08:46:25.000Z</time>
      </trkpt>
      <trkpt lat="46.82199" lon="0.37411">
        <ele>110</ele>
        <time>2019-02-03T08:46:26.000Z</time>
      </trkpt>
      <trkpt lat="46.82198" lon="0.37405">
        <ele>110</ele>
        <time>2019-02-03T08:46:27.000Z</time>
      </trkpt>
      <trkpt lat="46.82197" lon="0.374">
        <ele>109</ele>
        <time>2019-02-03T08:46:28.000Z</time>
      </trkpt>
      <trkpt lat="46.82196" lon="0.37394">
        <ele>110</ele>
        <time>2019-02-03T08:46:29.000Z</time>
      </trkpt>
      <trkpt lat="46.82196" lon="0.37389">
        <ele>110</ele>
        <time>2019-02-03T08:46:30.000Z</time>
      </trkpt>
      <trkpt lat="46.82195" lon="0.37384">
        <ele>110</ele>
        <time>2019-02-03T08:46:31.000Z</time>
      </trkpt>
      <trkpt lat="46.82194" lon="0.37378">
        <ele>109</ele>
        <time>2019-02-03T08:46:32.000Z</time>
      </trkpt>
      <trkpt lat="46.82194" lon="0.37373">
        <ele>110</ele>
        <time>2019-02-03T08:46:33.000Z</time>
      </trkpt>
      <trkpt lat="46.82193" lon="0.37367">
        <ele>110</ele>
        <time>2019-02-03T08:46:34.000Z</time>
      </trkpt>
      <trkpt lat="46.82192" lon="0.37362">
        <ele>110</ele>
        <time>2019-02-03T08:46:35.000Z</time>
      </trkpt>
      <trkpt lat="46.82191" lon="0.37356">
        <ele>110</ele>
        <time>2019-02-03T08:46:36.000Z</time>
      </trkpt>
      <trkpt lat="46.8219" lon="0.37351">
        <ele>110</ele>
        <time>2019-02-03T08:46:37.000Z</time>
      </trkpt>
      <trkpt lat="46.82189" lon="0.37346">
        <ele>109</ele>
        <time>2019-02-03T08:46:38.000Z</time>
      </trkpt>
      <trkpt lat="46.82188" lon="0.37342">
        <ele>109</ele>
        <time>2019-02-03T08:46:39.000Z</time>
      </trkpt>
      <trkpt lat="46.82188" lon="0.37338">
        <ele>110</ele>
        <time>2019-02-03T08:46:40.000Z</time>
      </trkpt>
      <trkpt lat="46.82189" lon="0.37335">
        <ele>111</ele>
        <time>2019-02-03T08:46:41.000Z</time>
      </trkpt>
      <trkpt lat="46.82191" lon="0.37333">
        <ele>110</ele>
        <time>2019-02-03T08:46:42.000Z</time>
      </trkpt>
      <trkpt lat="46.82193" lon="0.37332">
        <ele>109</ele>
        <time>2019-02-03T08:46:43.000Z</time>
      </trkpt>
      <trkpt lat="46.82196" lon="0.37332">
        <ele>109</ele>
        <time>2019-02-03T08:46:44.000Z</time>
      </trkpt>
      <trkpt lat="46.82198" lon="0.37331">
        <ele>109</ele>
        <time>2019-02-03T08:46:45.000Z</time>
      </trkpt>
      <trkpt lat="46.82201" lon="0.3733">
        <ele>109</ele>
        <time>2019-02-03T08:46:46.000Z</time>
      </trkpt>
      <trkpt lat="46.82203" lon="0.3733">
        <ele>109</ele>
        <time>2019-02-03T08:46:47.000Z</time>
      </trkpt>
      <trkpt lat="46.82206" lon="0.37329">
        <ele>109</ele>
        <time>2019-02-03T08:46:48.000Z</time>
      </trkpt>
      <trkpt lat="46.82209" lon="0.37328">
        <ele>109</ele>
        <time>2019-02-03T08:46:49.000Z</time>
      </trkpt>
      <trkpt lat="46.82212" lon="0.37327">
        <ele>109</ele>
        <time>2019-02-03T08:46:50.000Z</time>
      </trkpt>
      <trkpt lat="46.82215" lon="0.37327">
        <ele>109</ele>
        <time>2019-02-03T08:46:51.000Z</time>
      </trkpt>
      <trkpt lat="46.82218" lon="0.37326">
        <ele>110</ele>
        <time>2019-02-03T08:46:52.000Z</time>
      </trkpt>
      <trkpt lat="46.82221" lon="0.37325">
        <ele>110</ele>
        <time>2019-02-03T08:46:53.000Z</time>
      </trkpt>
      <trkpt lat="46.82224" lon="0.37324">
        <ele>110</ele>
        <time>2019-02-03T08:46:54.000Z</time>
      </trkpt>
      <trkpt lat="46.82228" lon="0.37323">
        <ele>109</ele>
        <time>2019-02-03T08:46:55.000Z</time>
      </trkpt>
      <trkpt lat="46.82231" lon="0.37322">
        <ele>109</ele>
        <time>2019-02-03T08:46:56.000Z</time>
      </trkpt>
      <trkpt lat="46.82234" lon="0.37321">
        <ele>109</ele>
        <time>2019-02-03T08:46:57.000Z</time>
      </trkpt>
      <trkpt lat="46.82238" lon="0.37319">
        <ele>109</ele>
        <time>2019-02-03T08:46:58.000Z</time>
      </trkpt>
      <trkpt lat="46.82241" lon="0.37318">
        <ele>109</ele>
        <time>2019-02-03T08:46:59.000Z</time>
      </trkpt>
      <trkpt lat="46.82244" lon="0.37317">
        <ele>109</ele>
        <time>2019-02-03T08:47:00.000Z</time>
      </trkpt>
      <trkpt lat="46.82247" lon="0.37315">
        <ele>109</ele>
        <time>2019-02-03T08:47:01.000Z</time>
      </trkpt>
      <trkpt lat="46.82251" lon="0.37314">
        <ele>109</ele>
        <time>2019-02-03T08:47:02.000Z</time>
      </trkpt>
      <trkpt lat="46.82254" lon="0.37313">
        <ele>109</ele>
        <time>2019-02-03T08:47:03.000Z</time>
      </trkpt>
      <trkpt lat="46.82257" lon="0.37311">
        <ele>108</ele>
        <time>2019-02-03T08:47:04.000Z</time>
      </trkpt>
      <trkpt lat="46.8226" lon="0.3731">
        <ele>108</ele>
        <time>2019-02-03T08:47:05.000Z</time>
      </trkpt>
      <trkpt lat="46.82263" lon="0.37309">
        <ele>108</ele>
        <time>2019-02-03T08:47:06.000Z</time>
      </trkpt>
      <trkpt lat="46.82266" lon="0.37308">
        <ele>108</ele>
        <time>2019-02-03T08:47:07.000Z</time>
      </trkpt>
      <trkpt lat="46.82269" lon="0.37306">
        <ele>108</ele>
        <time>2019-02-03T08:47:08.000Z</time>
      </trkpt>
      <trkpt lat="46.82272" lon="0.37305">
        <ele>108</ele>
        <time>2019-02-03T08:47:09.000Z</time>
      </trkpt>
      <trkpt lat="46.82275" lon="0.37304">
        <ele>108</ele>
        <time>2019-02-03T08:47:10.000Z</time>
      </trkpt>
      <trkpt lat="46.82278" lon="0.37302">
        <ele>108</ele>
        <time>2019-02-03T08:47:11.000Z</time>
      </trkpt>
      <trkpt lat="46.82282" lon="0.37301">
        <ele>108</ele>
        <time>2019-02-03T08:47:12.000Z</time>
      </trkpt>
      <trkpt lat="46.82285" lon="0.373">
        <ele>108</ele>
        <time>2019-02-03T08:47:13.000Z</time>
      </trkpt>
      <trkpt lat="46.82288" lon="0.37298">
        <ele>108</ele>
        <time>2019-02-03T08:47:14.000Z</time>
      </trkpt>
      <trkpt lat="46.82291" lon="0.37297">
        <ele>108</ele>
        <time>2019-02-03T08:47:15.000Z</time>
      </trkpt>
      <trkpt lat="46.82294" lon="0.37296">
        <ele>108</ele>
        <time>2019-02-03T08:47:16.000Z</time>
      </trkpt>
      <trkpt lat="46.82297" lon="0.37295">
        <ele>108</ele>
        <time>2019-02-03T08:47:17.000Z</time>
      </trkpt>
      <trkpt lat="46.82299" lon="0.37294">
        <ele>108</ele>
        <time>2019-02-03T08:47:18.000Z</time>
      </trkpt>
      <trkpt lat="46.82302" lon="0.37293">
        <ele>108</ele>
        <time>2019-02-03T08:47:19.000Z</time>
      </trkpt>
      <trkpt lat="46.82305" lon="0.37291">
        <ele>108</ele>
        <time>2019-02-03T08:47:20.000Z</time>
      </trkpt>
      <trkpt lat="46.82308" lon="0.3729">
        <ele>108</ele>
        <time>2019-02-03T08:47:21.000Z</time>
      </trkpt>
      <trkpt lat="46.8231" lon="0.37289">
        <ele>108</ele>
        <time>2019-02-03T08:47:22.000Z</time>
      </trkpt>
      <trkpt lat="46.82313" lon="0.37288">
        <ele>108</ele>
        <time>2019-02-03T08:47:23.000Z</time>
      </trkpt>
      <trkpt lat="46.82316" lon="0.37286">
        <ele>108</ele>
        <time>2019-02-03T08:47:24.000Z</time>
      </trkpt>
      <trkpt lat="46.82319" lon="0.37285">
        <ele>108</ele>
        <time>2019-02-03T08:47:25.000Z</time>
      </trkpt>
      <trkpt lat="46.82322" lon="0.37284">
        <ele>108</ele>
        <time>2019-02-03T08:47:26.000Z</time>
      </trkpt>
      <trkpt lat="46.82325" lon="0.37282">
        <ele>108</ele>
        <time>2019-02-03T08:47:27.000Z</time>
      </trkpt>
      <trkpt lat="46.82328" lon="0.37281">
        <ele>108</ele>
        <time>2019-02-03T08:47:28.000Z</time>
      </trkpt>
      <trkpt lat="46.8233" lon="0.3728">
        <ele>109</ele>
        <time>2019-02-03T08:47:29.000Z</time>
      </trkpt>
      <trkpt lat="46.82333" lon="0.37278">
        <ele>109</ele>
        <time>2019-02-03T08:47:30.000Z</time>
      </trkpt>
      <trkpt lat="46.82336" lon="0.37277">
        <ele>109</ele>
        <time>2019-02-03T08:47:31.000Z</time>
      </trkpt>
      <trkpt lat="46.82339" lon="0.37275">
        <ele>109</ele>
        <time>2019-02-03T08:47:32.000Z</time>
      </trkpt>
      <trkpt lat="46.82341" lon="0.37273">
        <ele>109</ele>
        <time>2019-02-03T08:47:33.000Z</time>
      </trkpt>
      <trkpt lat="46.82344" lon="0.37271">
        <ele>109</ele>
        <time>2019-02-03T08:47:34.000Z</time>
      </trkpt>
      <trkpt lat="46.82347" lon="0.37269">
        <ele>109</ele>
        <time>2019-02-03T08:47:35.000Z</time>
      </trkpt>
      <trkpt lat="46.8235" lon="0.37267">
        <ele>109</ele>
        <time>2019-02-03T08:47:36.000Z</time>
      </trkpt>
      <trkpt lat="46.82352" lon="0.37265">
        <ele>109</ele>
        <time>2019-02-03T08:47:37.000Z</time>
      </trkpt>
      <trkpt lat="46.82355" lon="0.37263">
        <ele>109</ele>
        <time>2019-02-03T08:47:38.000Z</time>
      </trkpt>
      <trkpt lat="46.82358" lon="0.37261">
        <ele>109</ele>
        <time>2019-02-03T08:47:39.000Z</time>
      </trkpt>
      <trkpt lat="46.82361" lon="0.37259">
        <ele>109</ele>
        <time>2019-02-03T08:47:40.000Z</time>
      </trkpt>
      <trkpt lat="46.82364" lon="0.37257">
        <ele>109</ele>
        <time>2019-02-03T08:47:41.000Z</time>
      </trkpt>
      <trkpt lat="46.82367" lon="0.37254">
        <ele>109</ele>
        <time>2019-02-03T08:47:42.000Z</time>
      </trkpt>
      <trkpt lat="46.8237" lon="0.37252">
        <ele>109</ele>
        <time>2019-02-03T08:47:43.000Z</time>
      </trkpt>
      <trkpt lat="46.82372" lon="0.3725">
        <ele>109</ele>
        <time>2019-02-03T08:47:44.000Z</time>
      </trkpt>
      <trkpt lat="46.82375" lon="0.37247">
        <ele>109</ele>
        <time>2019-02-03T08:47:45.000Z</time>
      </trkpt>
      <trkpt lat="46.82378" lon="0.37245">
        <ele>109</ele>
        <time>2019-02-03T08:47:46.000Z</time>
      </trkpt>
      <trkpt lat="46.8238" lon="0.37243">
        <ele>109</ele>
        <time>2019-02-03T08:47:47.000Z</time>
      </trkpt>
      <trkpt lat="46.82383" lon="0.3724">
        <ele>109</ele>
        <time>2019-02-03T08:47:48.000Z</time>
      </trkpt>
      <trkpt lat="46.82386" lon="0.37238">
        <ele>109</ele>
        <time>2019-02-03T08:47:49.000Z</time>
      </trkpt>
      <trkpt lat="46.82388" lon="0.37235">
        <ele>109</ele>
        <time>2019-02-03T08:47:50.000Z</time>
      </trkpt>
      <trkpt lat="46.82391" lon="0.37232">
        <ele>109</ele>
        <time>2019-02-03T08:47:51.000Z</time>
      </trkpt>
      <trkpt lat="46.82394" lon="0.37229">
        <ele>109</ele>
        <time>2019-02-03T08:47:52.000Z</time>
      </trkpt>
      <trkpt lat="46.82396" lon="0.37226">
        <ele>109</ele>
        <time>2019-02-03T08:47:53.000Z</time>
      </trkpt>
      <trkpt lat="46.82399" lon="0.37223">
        <ele>108</ele>
        <time>2019-02-03T08:47:54.000Z</time>
      </trkpt>
      <trkpt lat="46.82402" lon="0.37219">
        <ele>108</ele>
        <time>2019-02-03T08:47:55.000Z</time>
      </trkpt>
      <trkpt lat="46.82405" lon="0.37215">
        <ele>108</ele>
        <time>2019-02-03T08:47:56.000Z</time>
      </trkpt>
      <trkpt lat="46.82407" lon="0.37211">
        <ele>108</ele>
        <time>2019-02-03T08:47:57.000Z</time>
      </trkpt>
      <trkpt lat="46.8241" lon="0.37207">
        <ele>108</ele>
        <time>2019-02-03T08:47:58.000Z</time>
      </trkpt>
      <trkpt lat="46.82412" lon="0.37203">
        <ele>108</ele>
        <time>2019-02-03T08:47:59.000Z</time>
      </trkpt>
      <trkpt lat="46.82415" lon="0.37198">
        <ele>108</ele>
        <time>2019-02-03T08:48:00.000Z</time>
      </trkpt>
      <trkpt lat="46.82417" lon="0.37193">
        <ele>108</ele>
        <time>2019-02-03T08:48:01.000Z</time>
      </trkpt>
      <trkpt lat="46.82419" lon="0.37188">
        <ele>108</ele>
        <time>2019-02-03T08:48:02.000Z</time>
      </trkpt>
      <trkpt lat="46.82421" lon="0.37183">
        <ele>108</ele>
        <time>2019-02-03T08:48:03.000Z</time>
      </trkpt>
      <trkpt lat="46.82423" lon="0.37178">
        <ele>108</ele>
        <time>2019-02-03T08:48:04.000Z</time>
      </trkpt>
      <trkpt lat="46.82425" lon="0.37173">
        <ele>108</ele>
        <time>2019-02-03T08:48:05.000Z</time>
      </trkpt>
      <trkpt lat="46.82427" lon="0.37168">
        <ele>108</ele>
        <time>2019-02-03T08:48:06.000Z</time>
      </trkpt>
      <trkpt lat="46.82428" lon="0.37163">
        <ele>108</ele>
        <time>2019-02-03T08:48:07.000Z</time>
      </trkpt>
      <trkpt lat="46.8243" lon="0.37158">
        <ele>108</ele>
        <time>2019-02-03T08:48:08.000Z</time>
      </trkpt>
      <trkpt lat="46.82432" lon="0.37153">
        <ele>108</ele>
        <time>2019-02-03T08:48:09.000Z</time>
      </trkpt>
      <trkpt lat="46.82433" lon="0.37148">
        <ele>108</ele>
        <time>2019-02-03T08:48:10.000Z</time>
      </trkpt>
      <trkpt lat="46.82435" lon="0.37143">
        <ele>108</ele>
        <time>2019-02-03T08:48:11.000Z</time>
      </trkpt>
      <trkpt lat="46.82436" lon="0.37139">
        <ele>108</ele>
        <time>2019-02-03T08:48:12.000Z</time>
      </trkpt>
      <trkpt lat="46.82438" lon="0.37134">
        <ele>108</ele>
        <time>2019-02-03T08:48:13.000Z</time>
      </trkpt>
      <trkpt lat="46.82439" lon="0.37129">
        <ele>108</ele>
        <time>2019-02-03T08:48:14.000Z</time>
      </trkpt>
      <trkpt lat="46.8244" lon="0.37124">
        <ele>108</ele>
        <time>2019-02-03T08:48:15.000Z</time>
      </trkpt>
      <trkpt lat="46.82442" lon="0.3712">
        <ele>108</ele>
        <time>2019-02-03T08:48:16.000Z</time>
      </trkpt>
      <trkpt lat="46.82443" lon="0.37115">
        <ele>108</ele>
        <time>2019-02-03T08:48:17.000Z</time>
      </trkpt>
      <trkpt lat="46.82444" lon="0.37111">
        <ele>108</ele>
        <time>2019-02-03T08:48:18.000Z</time>
      </trkpt>
      <trkpt lat="46.82445" lon="0.37106">
        <ele>108</ele>
        <time>2019-02-03T08:48:19.000Z</time>
      </trkpt>
      <trkpt lat="46.82447" lon="0.37101">
        <ele>108</ele>
        <time>2019-02-03T08:48:20.000Z</time>
      </trkpt>
      <trkpt lat="46.82448" lon="0.37097">
        <ele>108</ele>
        <time>2019-02-03T08:48:21.000Z</time>
      </trkpt>
      <trkpt lat="46.82449" lon="0.37092">
        <ele>107</ele>
        <time>2019-02-03T08:48:22.000Z</time>
      </trkpt>
      <trkpt lat="46.8245" lon="0.37088">
        <ele>107</ele>
        <time>2019-02-03T08:48:23.000Z</time>
      </trkpt>
      <trkpt lat="46.82451" lon="0.37084">
        <ele>107</ele>
        <time>2019-02-03T08:48:24.000Z</time>
      </trkpt>
      <trkpt lat="46.82452" lon="0.37081">
        <ele>106</ele>
        <time>2019-02-03T08:48:25.000Z</time>
      </trkpt>
      <trkpt lat="46.82454" lon="0.3708">
        <ele>106</ele>
        <time>2019-02-03T08:48:26.000Z</time>
      </trkpt>
      <trkpt lat="46.82454" lon="0.37079">
        <ele>106</ele>
        <time>2019-02-03T08:48:27.000Z</time>
      </trkpt>
      <trkpt lat="46.82455" lon="0.37079">
        <ele>106</ele>
        <time>2019-02-03T08:48:28.000Z</time>
      </trkpt>
      <trkpt lat="46.82454" lon="0.37079">
        <ele>106</ele>
        <time>2019-02-03T08:48:29.000Z</time>
      </trkpt>
      <trkpt lat="46.82454" lon="0.37079">
        <ele>106</ele>
        <time>2019-02-03T08:48:30.000Z</time>
      </trkpt>
      <trkpt lat="46.82454" lon="0.37079">
        <ele>106</ele>
        <time>2019-02-03T08:48:31.000Z</time>
      </trkpt>
      <trkpt lat="46.82455" lon="0.37078">
        <ele>106</ele>
        <time>2019-02-03T08:48:32.000Z</time>
      </trkpt>
      <trkpt lat="46.82456" lon="0.37078">
        <ele>106</ele>
        <time>2019-02-03T08:48:33.000Z</time>
      </trkpt>
      <trkpt lat="46.82458" lon="0.37077">
        <ele>106</ele>
        <time>2019-02-03T08:48:34.000Z</time>
      </trkpt>
      <trkpt lat="46.8246" lon="0.37077">
        <ele>106</ele>
        <time>2019-02-03T08:48:35.000Z</time>
      </trkpt>
      <trkpt lat="46.82462" lon="0.37076">
        <ele>106</ele>
        <time>2019-02-03T08:48:36.000Z</time>
      </trkpt>
      <trkpt lat="46.82464" lon="0.37074">
        <ele>106</ele>
        <time>2019-02-03T08:48:37.000Z</time>
      </trkpt>
      <trkpt lat="46.82467" lon="0.37073">
        <ele>106</ele>
        <time>2019-02-03T08:48:38.000Z</time>
      </trkpt>
      <trkpt lat="46.82469" lon="0.37072">
        <ele>106</ele>
        <time>2019-02-03T08:48:39.000Z</time>
      </trkpt>
      <trkpt lat="46.82472" lon="0.37071">
        <ele>106</ele>
        <time>2019-02-03T08:48:40.000Z</time>
      </trkpt>
      <trkpt lat="46.82475" lon="0.3707">
        <ele>106</ele>
        <time>2019-02-03T08:48:41.000Z</time>
      </trkpt>
      <trkpt lat="46.82478" lon="0.37068">
        <ele>106</ele>
        <time>2019-02-03T08:48:42.000Z</time>
      </trkpt>
      <trkpt lat="46.82481" lon="0.37067">
        <ele>106</ele>
        <time>2019-02-03T08:48:43.000Z</time>
      </trkpt>
      <trkpt lat="46.82484" lon="0.37064">
        <ele>106</ele>
        <time>2019-02-03T08:48:44.000Z</time>
      </trkpt>
      <trkpt lat="46.82486" lon="0.37062">
        <ele>106</ele>
        <time>2019-02-03T08:48:45.000Z</time>
      </trkpt>
      <trkpt lat="46.82489" lon="0.37059">
        <ele>106</ele>
        <time>2019-02-03T08:48:46.000Z</time>
      </trkpt>
      <trkpt lat="46.82492" lon="0.37056">
        <ele>106</ele>
        <time>2019-02-03T08:48:47.000Z</time>
      </trkpt>
      <trkpt lat="46.82495" lon="0.37053">
        <ele>106</ele>
        <time>2019-02-03T08:48:48.000Z</time>
      </trkpt>
      <trkpt lat="46.82498" lon="0.37049">
        <ele>106</ele>
        <time>2019-02-03T08:48:49.000Z</time>
      </trkpt>
      <trkpt lat="46.82501" lon="0.37045">
        <ele>106</ele>
        <time>2019-02-03T08:48:50.000Z</time>
      </trkpt>
      <trkpt lat="46.82504" lon="0.37041">
        <ele>106</ele>
        <time>2019-02-03T08:48:51.000Z</time>
      </trkpt>
      <trkpt lat="46.82506" lon="0.37037">
        <ele>106</ele>
        <time>2019-02-03T08:48:52.000Z</time>
      </trkpt>
      <trkpt lat="46.82509" lon="0.37033">
        <ele>106</ele>
        <time>2019-02-03T08:48:53.000Z</time>
      </trkpt>
      <trkpt lat="46.82511" lon="0.37029">
        <ele>106</ele>
        <time>2019-02-03T08:48:54.000Z</time>
      </trkpt>
      <trkpt lat="46.82514" lon="0.37025">
        <ele>106</ele>
        <time>2019-02-03T08:48:55.000Z</time>
      </trkpt>
      <trkpt lat="46.82517" lon="0.37021">
        <ele>106</ele>
        <time>2019-02-03T08:48:56.000Z</time>
      </trkpt>
      <trkpt lat="46.8252" lon="0.37017">
        <ele>106</ele>
        <time>2019-02-03T08:48:57.000Z</time>
      </trkpt>
      <trkpt lat="46.82523" lon="0.37013">
        <ele>106</ele>
        <time>2019-02-03T08:48:58.000Z</time>
      </trkpt>
      <trkpt lat="46.82527" lon="0.37009">
        <ele>106</ele>
        <time>2019-02-03T08:48:59.000Z</time>
      </trkpt>
      <trkpt lat="46.82531" lon="0.37005">
        <ele>106</ele>
        <time>2019-02-03T08:49:00.000Z</time>
      </trkpt>
      <trkpt lat="46.82534" lon="0.37002">
        <ele>106</ele>
        <time>2019-02-03T08:49:01.000Z</time>
      </trkpt>
      <trkpt lat="46.82538" lon="0.36999">
        <ele>106</ele>
        <time>2019-02-03T08:49:02.000Z</time>
      </trkpt>
      <trkpt lat="46.82542" lon="0.36997">
        <ele>106</ele>
        <time>2019-02-03T08:49:03.000Z</time>
      </trkpt>
      <trkpt lat="46.82545" lon="0.36993">
        <ele>106</ele>
        <time>2019-02-03T08:49:04.000Z</time>
      </trkpt>
      <trkpt lat="46.82548" lon="0.36989">
        <ele>106</ele>
        <time>2019-02-03T08:49:05.000Z</time>
      </trkpt>
      <trkpt lat="46.82549" lon="0.36984">
        <ele>105</ele>
        <time>2019-02-03T08:49:06.000Z</time>
      </trkpt>
      <trkpt lat="46.82549" lon="0.36979">
        <ele>105</ele>
        <time>2019-02-03T08:49:07.000Z</time>
      </trkpt>
      <trkpt lat="46.82547" lon="0.36974">
        <ele>105</ele>
        <time>2019-02-03T08:49:08.000Z</time>
      </trkpt>
      <trkpt lat="46.82544" lon="0.3697">
        <ele>105</ele>
        <time>2019-02-03T08:49:09.000Z</time>
      </trkpt>
      <trkpt lat="46.82541" lon="0.36965">
        <ele>105</ele>
        <time>2019-02-03T08:49:10.000Z</time>
      </trkpt>
      <trkpt lat="46.82537" lon="0.36962">
        <ele>105</ele>
        <time>2019-02-03T08:49:11.000Z</time>
      </trkpt>
      <trkpt lat="46.82534" lon="0.36958">
        <ele>105</ele>
        <time>2019-02-03T08:49:12.000Z</time>
      </trkpt>
      <trkpt lat="46.82531" lon="0.36954">
        <ele>105</ele>
        <time>2019-02-03T08:49:13.000Z</time>
      </trkpt>
      <trkpt lat="46.82527" lon="0.3695">
        <ele>105</ele>
        <time>2019-02-03T08:49:14.000Z</time>
      </trkpt>
      <trkpt lat="46.82524" lon="0.36945">
        <ele>105</ele>
        <time>2019-02-03T08:49:15.000Z</time>
      </trkpt>
      <trkpt lat="46.82521" lon="0.36941">
        <ele>105</ele>
        <time>2019-02-03T08:49:16.000Z</time>
      </trkpt>
      <trkpt lat="46.82517" lon="0.36937">
        <ele>105</ele>
        <time>2019-02-03T08:49:17.000Z</time>
      </trkpt>
      <trkpt lat="46.82514" lon="0.36933">
        <ele>106</ele>
        <time>2019-02-03T08:49:18.000Z</time>
      </trkpt>
      <trkpt lat="46.82511" lon="0.36929">
        <ele>106</ele>
        <time>2019-02-03T08:49:19.000Z</time>
      </trkpt>
      <trkpt lat="46.82507" lon="0.36924">
        <ele>106</ele>
        <time>2019-02-03T08:49:20.000Z</time>
      </trkpt>
      <trkpt lat="46.82504" lon="0.36919">
        <ele>106</ele>
        <time>2019-02-03T08:49:21.000Z</time>
      </trkpt>
      <trkpt lat="46.82501" lon="0.36915">
        <ele>105</ele>
        <time>2019-02-03T08:49:22.000Z</time>
      </trkpt>
      <trkpt lat="46.82498" lon="0.36909">
        <ele>105</ele>
        <time>2019-02-03T08:49:23.000Z</time>
      </trkpt>
      <trkpt lat="46.82496" lon="0.36904">
        <ele>105</ele>
        <time>2019-02-03T08:49:24.000Z</time>
      </trkpt>
      <trkpt lat="46.82494" lon="0.36898">
        <ele>105</ele>
        <time>2019-02-03T08:49:25.000Z</time>
      </trkpt>
      <trkpt lat="46.82493" lon="0.36892">
        <ele>105</ele>
        <time>2019-02-03T08:49:26.000Z</time>
      </trkpt>
      <trkpt lat="46.82492" lon="0.36885">
        <ele>105</ele>
        <time>2019-02-03T08:49:27.000Z</time>
      </trkpt>
      <trkpt lat="46.82492" lon="0.36878">
        <ele>105</ele>
        <time>2019-02-03T08:49:28.000Z</time>
      </trkpt>
      <trkpt lat="46.82493" lon="0.36872">
        <ele>105</ele>
        <time>2019-02-03T08:49:29.000Z</time>
      </trkpt>
      <trkpt lat="46.82494" lon="0.36866">
        <ele>106</ele>
        <time>2019-02-03T08:49:30.000Z</time>
      </trkpt>
      <trkpt lat="46.82495" lon="0.36859">
        <ele>106</ele>
        <time>2019-02-03T08:49:31.000Z</time>
      </trkpt>
      <trkpt lat="46.82497" lon="0.36853">
        <ele>106</ele>
        <time>2019-02-03T08:49:32.000Z</time>
      </trkpt>
      <trkpt lat="46.82499" lon="0.36847">
        <ele>106</ele>
        <time>2019-02-03T08:49:33.000Z</time>
      </trkpt>
      <trkpt lat="46.82501" lon="0.36841">
        <ele>106</ele>
        <time>2019-02-03T08:49:34.000Z</time>
      </trkpt>
      <trkpt lat="46.82502" lon="0.36835">
        <ele>106</ele>
        <time>2019-02-03T08:49:35.000Z</time>
      </trkpt>
      <trkpt lat="46.82504" lon="0.36829">
        <ele>106</ele>
        <time>2019-02-03T08:49:36.000Z</time>
      </trkpt>
      <trkpt lat="46.82506" lon="0.36822">
        <ele>106</ele>
        <time>2019-02-03T08:49:37.000Z</time>
      </trkpt>
      <trkpt lat="46.82507" lon="0.36816">
        <ele>106</ele>
        <time>2019-02-03T08:49:38.000Z</time>
      </trkpt>
      <trkpt lat="46.82508" lon="0.36809">
        <ele>106</ele>
        <time>2019-02-03T08:49:39.000Z</time>
      </trkpt>
      <trkpt lat="46.8251" lon="0.36802">
        <ele>106</ele>
        <time>2019-02-03T08:49:40.000Z</time>
      </trkpt>
      <trkpt lat="46.82512" lon="0.36796">
        <ele>106</ele>
        <time>2019-02-03T08:49:41.000Z</time>
      </trkpt>
      <trkpt lat="46.82513" lon="0.36789">
        <ele>106</ele>
        <time>2019-02-03T08:49:42.000Z</time>
      </trkpt>
      <trkpt lat="46.82515" lon="0.36782">
        <ele>105</ele>
        <time>2019-02-03T08:49:43.000Z</time>
      </trkpt>
      <trkpt lat="46.82516" lon="0.36775">
        <ele>105</ele>
        <time>2019-02-03T08:49:44.000Z</time>
      </trkpt>
      <trkpt lat="46.82518" lon="0.36768">
        <ele>105</ele>
        <time>2019-02-03T08:49:45.000Z</time>
      </trkpt>
      <trkpt lat="46.8252" lon="0.36761">
        <ele>105</ele>
        <time>2019-02-03T08:49:46.000Z</time>
      </trkpt>
      <trkpt lat="46.82521" lon="0.36754">
        <ele>105</ele>
        <time>2019-02-03T08:49:47.000Z</time>
      </trkpt>
      <trkpt lat="46.82523" lon="0.36746">
        <ele>105</ele>
        <time>2019-02-03T08:49:48.000Z</time>
      </trkpt>
      <trkpt lat="46.82524" lon="0.36739">
        <ele>105</ele>
        <time>2019-02-03T08:49:49.000Z</time>
      </trkpt>
      <trkpt lat="46.82526" lon="0.36731">
        <ele>105</ele>
        <time>2019-02-03T08:49:50.000Z</time>
      </trkpt>
      <trkpt lat="46.82528" lon="0.36724">
        <ele>104</ele>
        <time>2019-02-03T08:49:51.000Z</time>
      </trkpt>
      <trkpt lat="46.82529" lon="0.36716">
        <ele>104</ele>
        <time>2019-02-03T08:49:52.000Z</time>
      </trkpt>
      <trkpt lat="46.82531" lon="0.36708">
        <ele>104</ele>
        <time>2019-02-03T08:49:53.000Z</time>
      </trkpt>
      <trkpt lat="46.82533" lon="0.367">
        <ele>104</ele>
        <time>2019-02-03T08:49:54.000Z</time>
      </trkpt>
      <trkpt lat="46.82534" lon="0.36692">
        <ele>103</ele>
        <time>2019-02-03T08:49:55.000Z</time>
      </trkpt>
      <trkpt lat="46.82536" lon="0.36683">
        <ele>103</ele>
        <time>2019-02-03T08:49:56.000Z</time>
      </trkpt>
      <trkpt lat="46.82538" lon="0.36675">
        <ele>103</ele>
        <time>2019-02-03T08:49:57.000Z</time>
      </trkpt>
      <trkpt lat="46.8254" lon="0.36667">
        <ele>102</ele>
        <time>2019-02-03T08:49:58.000Z</time>
      </trkpt>
      <trkpt lat="46.82541" lon="0.36659">
        <ele>102</ele>
        <time>2019-02-03T08:49:59.000Z</time>
      </trkpt>
      <trkpt lat="46.82543" lon="0.3665">
        <ele>102</ele>
        <time>2019-02-03T08:50:00.000Z</time>
      </trkpt>
      <trkpt lat="46.82545" lon="0.36642">
        <ele>102</ele>
        <time>2019-02-03T08:50:01.000Z</time>
      </trkpt>
      <trkpt lat="46.82547" lon="0.36633">
        <ele>101</ele>
        <time>2019-02-03T08:50:02.000Z</time>
      </trkpt>
      <trkpt lat="46.82549" lon="0.36625">
        <ele>101</ele>
        <time>2019-02-03T08:50:03.000Z</time>
      </trkpt>
      <trkpt lat="46.82551" lon="0.36616">
        <ele>101</ele>
        <time>2019-02-03T08:50:04.000Z</time>
      </trkpt>
      <trkpt lat="46.82553" lon="0.36607">
        <ele>101</ele>
        <time>2019-02-03T08:50:05.000Z</time>
      </trkpt>
      <trkpt lat="46.82554" lon="0.36599">
        <ele>101</ele>
        <time>2019-02-03T08:50:06.000Z</time>
      </trkpt>
      <trkpt lat="46.82556" lon="0.3659">
        <ele>101</ele>
        <time>2019-02-03T08:50:07.000Z</time>
      </trkpt>
      <trkpt lat="46.82558" lon="0.36582">
        <ele>100</ele>
        <time>2019-02-03T08:50:08.000Z</time>
      </trkpt>
      <trkpt lat="46.8256" lon="0.36573">
        <ele>100</ele>
        <time>2019-02-03T08:50:09.000Z</time>
      </trkpt>
      <trkpt lat="46.82561" lon="0.36565">
        <ele>100</ele>
        <time>2019-02-03T08:50:10.000Z</time>
      </trkpt>
      <trkpt lat="46.82562" lon="0.36556">
        <ele>100</ele>
        <time>2019-02-03T08:50:11.000Z</time>
      </trkpt>
      <trkpt lat="46.82563" lon="0.36547">
        <ele>100</ele>
        <time>2019-02-03T08:50:12.000Z</time>
      </trkpt>
      <trkpt lat="46.82564" lon="0.36538">
        <ele>99</ele>
        <time>2019-02-03T08:50:13.000Z</time>
      </trkpt>
      <trkpt lat="46.82565" lon="0.36529">
        <ele>99</ele>
        <time>2019-02-03T08:50:14.000Z</time>
      </trkpt>
      <trkpt lat="46.82566" lon="0.3652">
        <ele>99</ele>
        <time>2019-02-03T08:50:15.000Z</time>
      </trkpt>
      <trkpt lat="46.82567" lon="0.36511">
        <ele>99</ele>
        <time>2019-02-03T08:50:16.000Z</time>
      </trkpt>
      <trkpt lat="46.82567" lon="0.36502">
        <ele>99</ele>
        <time>2019-02-03T08:50:17.000Z</time>
      </trkpt>
      <trkpt lat="46.82568" lon="0.36493">
        <ele>99</ele>
        <time>2019-02-03T08:50:18.000Z</time>
      </trkpt>
      <trkpt lat="46.82569" lon="0.36484">
        <ele>99</ele>
        <time>2019-02-03T08:50:19.000Z</time>
      </trkpt>
      <trkpt lat="46.82569" lon="0.36476">
        <ele>99</ele>
        <time>2019-02-03T08:50:20.000Z</time>
      </trkpt>
      <trkpt lat="46.8257" lon="0.36467">
        <ele>99</ele>
        <time>2019-02-03T08:50:21.000Z</time>
      </trkpt>
      <trkpt lat="46.82571" lon="0.36458">
        <ele>99</ele>
        <time>2019-02-03T08:50:22.000Z</time>
      </trkpt>
      <trkpt lat="46.82571" lon="0.36449">
        <ele>99</ele>
        <time>2019-02-03T08:50:23.000Z</time>
      </trkpt>
      <trkpt lat="46.82572" lon="0.36441">
        <ele>99</ele>
        <time>2019-02-03T08:50:24.000Z</time>
      </trkpt>
      <trkpt lat="46.82573" lon="0.36432">
        <ele>99</ele>
        <time>2019-02-03T08:50:25.000Z</time>
      </trkpt>
      <trkpt lat="46.82573" lon="0.36424">
        <ele>99</ele>
        <time>2019-02-03T08:50:26.000Z</time>
      </trkpt>
      <trkpt lat="46.82574" lon="0.36415">
        <ele>99</ele>
        <time>2019-02-03T08:50:27.000Z</time>
      </trkpt>
      <trkpt lat="46.82575" lon="0.36407">
        <ele>98</ele>
        <time>2019-02-03T08:50:28.000Z</time>
      </trkpt>
      <trkpt lat="46.82575" lon="0.36398">
        <ele>98</ele>
        <time>2019-02-03T08:50:29.000Z</time>
      </trkpt>
      <trkpt lat="46.82576" lon="0.3639">
        <ele>98</ele>
        <time>2019-02-03T08:50:30.000Z</time>
      </trkpt>
      <trkpt lat="46.82577" lon="0.36382">
        <ele>98</ele>
        <time>2019-02-03T08:50:31.000Z</time>
      </trkpt>
      <trkpt lat="46.82577" lon="0.36374">
        <ele>98</ele>
        <time>2019-02-03T08:50:32.000Z</time>
      </trkpt>
      <trkpt lat="46.82578" lon="0.36366">
        <ele>98</ele>
        <time>2019-02-03T08:50:33.000Z</time>
      </trkpt>
      <trkpt lat="46.82579" lon="0.36358">
        <ele>99</ele>
        <time>2019-02-03T08:50:34.000Z</time>
      </trkpt>
      <trkpt lat="46.82579" lon="0.3635">
        <ele>99</ele>
        <time>2019-02-03T08:50:35.000Z</time>
      </trkpt>
      <trkpt lat="46.8258" lon="0.36342">
        <ele>99</ele>
        <time>2019-02-03T08:50:36.000Z</time>
      </trkpt>
      <trkpt lat="46.82581" lon="0.36334">
        <ele>99</ele>
        <time>2019-02-03T08:50:37.000Z</time>
      </trkpt>
      <trkpt lat="46.82581" lon="0.36326">
        <ele>99</ele>
        <time>2019-02-03T08:50:38.000Z</time>
      </trkpt>
      <trkpt lat="46.82582" lon="0.36319">
        <ele>99</ele>
        <time>2019-02-03T08:50:39.000Z</time>
      </trkpt>
      <trkpt lat="46.82582" lon="0.36311">
        <ele>99</ele>
        <time>2019-02-03T08:50:40.000Z</time>
      </trkpt>
      <trkpt lat="46.82583" lon="0.36304">
        <ele>99</ele>
        <time>2019-02-03T08:50:41.000Z</time>
      </trkpt>
      <trkpt lat="46.82583" lon="0.36298">
        <ele>99</ele>
        <time>2019-02-03T08:50:42.000Z</time>
      </trkpt>
      <trkpt lat="46.82584" lon="0.36292">
        <ele>99</ele>
        <time>2019-02-03T08:50:43.000Z</time>
      </trkpt>
      <trkpt lat="46.82584" lon="0.36287">
        <ele>100</ele>
        <time>2019-02-03T08:50:44.000Z</time>
      </trkpt>
      <trkpt lat="46.82584" lon="0.36282">
        <ele>99</ele>
        <time>2019-02-03T08:50:45.000Z</time>
      </trkpt>
      <trkpt lat="46.82584" lon="0.36277">
        <ele>99</ele>
        <time>2019-02-03T08:50:46.000Z</time>
      </trkpt>
      <trkpt lat="46.82584" lon="0.36273">
        <ele>100</ele>
        <time>2019-02-03T08:50:47.000Z</time>
      </trkpt>
      <trkpt lat="46.82584" lon="0.36268">
        <ele>99</ele>
        <time>2019-02-03T08:50:48.000Z</time>
      </trkpt>
      <trkpt lat="46.82585" lon="0.36264">
        <ele>98</ele>
        <time>2019-02-03T08:50:49.000Z</time>
      </trkpt>
      <trkpt lat="46.82586" lon="0.3626">
        <ele>98</ele>
        <time>2019-02-03T08:50:50.000Z</time>
      </trkpt>
      <trkpt lat="46.82587" lon="0.36257">
        <ele>98</ele>
        <time>2019-02-03T08:50:51.000Z</time>
      </trkpt>
      <trkpt lat="46.82589" lon="0.36254">
        <ele>98</ele>
        <time>2019-02-03T08:50:52.000Z</time>
      </trkpt>
      <trkpt lat="46.82591" lon="0.36252">
        <ele>97</ele>
        <time>2019-02-03T08:50:53.000Z</time>
      </trkpt>
      <trkpt lat="46.82594" lon="0.36249">
        <ele>97</ele>
        <time>2019-02-03T08:50:54.000Z</time>
      </trkpt>
      <trkpt lat="46.82596" lon="0.36246">
        <ele>97</ele>
        <time>2019-02-03T08:50:55.000Z</time>
      </trkpt>
      <trkpt lat="46.82599" lon="0.36243">
        <ele>96</ele>
        <time>2019-02-03T08:50:56.000Z</time>
      </trkpt>
      <trkpt lat="46.82602" lon="0.36239">
        <ele>97</ele>
        <time>2019-02-03T08:50:57.000Z</time>
      </trkpt>
      <trkpt lat="46.82605" lon="0.36235">
        <ele>98</ele>
        <time>2019-02-03T08:50:58.000Z</time>
      </trkpt>
      <trkpt lat="46.82608" lon="0.3623">
        <ele>98</ele>
        <time>2019-02-03T08:50:59.000Z</time>
      </trkpt>
      <trkpt lat="46.82612" lon="0.36226">
        <ele>98</ele>
        <time>2019-02-03T08:51:00.000Z</time>
      </trkpt>
      <trkpt lat="46.82616" lon="0.36222">
        <ele>99</ele>
        <time>2019-02-03T08:51:01.000Z</time>
      </trkpt>
      <trkpt lat="46.82619" lon="0.36218">
        <ele>98</ele>
        <time>2019-02-03T08:51:02.000Z</time>
      </trkpt>
      <trkpt lat="46.82623" lon="0.36214">
        <ele>99</ele>
        <time>2019-02-03T08:51:03.000Z</time>
      </trkpt>
      <trkpt lat="46.82627" lon="0.36209">
        <ele>100</ele>
        <time>2019-02-03T08:51:04.000Z</time>
      </trkpt>
      <trkpt lat="46.8263" lon="0.36205">
        <ele>100</ele>
        <time>2019-02-03T08:51:05.000Z</time>
      </trkpt>
      <trkpt lat="46.82634" lon="0.36201">
        <ele>100</ele>
        <time>2019-02-03T08:51:06.000Z</time>
      </trkpt>
      <trkpt lat="46.82637" lon="0.36197">
        <ele>100</ele>
        <time>2019-02-03T08:51:07.000Z</time>
      </trkpt>
      <trkpt lat="46.8264" lon="0.36193">
        <ele>100</ele>
        <time>2019-02-03T08:51:08.000Z</time>
      </trkpt>
      <trkpt lat="46.82644" lon="0.36189">
        <ele>100</ele>
        <time>2019-02-03T08:51:09.000Z</time>
      </trkpt>
      <trkpt lat="46.82647" lon="0.36185">
        <ele>99</ele>
        <time>2019-02-03T08:51:10.000Z</time>
      </trkpt>
      <trkpt lat="46.8265" lon="0.3618">
        <ele>99</ele>
        <time>2019-02-03T08:51:11.000Z</time>
      </trkpt>
      <trkpt lat="46.82654" lon="0.36176">
        <ele>99</ele>
        <time>2019-02-03T08:51:12.000Z</time>
      </trkpt>
      <trkpt lat="46.82657" lon="0.36171">
        <ele>99</ele>
        <time>2019-02-03T08:51:13.000Z</time>
      </trkpt>
      <trkpt lat="46.82661" lon="0.36167">
        <ele>99</ele>
        <time>2019-02-03T08:51:14.000Z</time>
      </trkpt>
      <trkpt lat="46.82664" lon="0.36162">
        <ele>99</ele>
        <time>2019-02-03T08:51:15.000Z</time>
      </trkpt>
      <trkpt lat="46.82668" lon="0.36157">
        <ele>99</ele>
        <time>2019-02-03T08:51:16.000Z</time>
      </trkpt>
      <trkpt lat="46.82672" lon="0.36152">
        <ele>99</ele>
        <time>2019-02-03T08:51:17.000Z</time>
      </trkpt>
      <trkpt lat="46.82675" lon="0.36147">
        <ele>98</ele>
        <time>2019-02-03T08:51:18.000Z</time>
      </trkpt>
      <trkpt lat="46.82678" lon="0.36142">
        <ele>98</ele>
        <time>2019-02-03T08:51:19.000Z</time>
      </trkpt>
      <trkpt lat="46.82681" lon="0.36136">
        <ele>98</ele>
        <time>2019-02-03T08:51:20.000Z</time>
      </trkpt>
      <trkpt lat="46.82683" lon="0.3613">
        <ele>98</ele>
        <time>2019-02-03T08:51:21.000Z</time>
      </trkpt>
      <trkpt lat="46.82685" lon="0.36124">
        <ele>98</ele>
        <time>2019-02-03T08:51:22.000Z</time>
      </trkpt>
      <trkpt lat="46.82686" lon="0.36117">
        <ele>98</ele>
        <time>2019-02-03T08:51:23.000Z</time>
      </trkpt>
      <trkpt lat="46.82688" lon="0.36111">
        <ele>98</ele>
        <time>2019-02-03T08:51:24.000Z</time>
      </trkpt>
      <trkpt lat="46.8269" lon="0.36104">
        <ele>98</ele>
        <time>2019-02-03T08:51:25.000Z</time>
      </trkpt>
      <trkpt lat="46.82692" lon="0.36097">
        <ele>98</ele>
        <time>2019-02-03T08:51:26.000Z</time>
      </trkpt>
      <trkpt lat="46.82693" lon="0.36091">
        <ele>98</ele>
        <time>2019-02-03T08:51:27.000Z</time>
      </trkpt>
      <trkpt lat="46.82695" lon="0.36085">
        <ele>97</ele>
        <time>2019-02-03T08:51:28.000Z</time>
      </trkpt>
      <trkpt lat="46.82697" lon="0.36079">
        <ele>97</ele>
        <time>2019-02-03T08:51:29.000Z</time>
      </trkpt>
      <trkpt lat="46.82699" lon="0.36073">
        <ele>97</ele>
        <time>2019-02-03T08:51:30.000Z</time>
      </trkpt>
      <trkpt lat="46.827" lon="0.36067">
        <ele>97</ele>
        <time>2019-02-03T08:51:31.000Z</time>
      </trkpt>
      <trkpt lat="46.82702" lon="0.3606">
        <ele>97</ele>
        <time>2019-02-03T08:51:32.000Z</time>
      </trkpt>
      <trkpt lat="46.82704" lon="0.36054">
        <ele>96</ele>
        <time>2019-02-03T08:51:33.000Z</time>
      </trkpt>
      <trkpt lat="46.82705" lon="0.36047">
        <ele>96</ele>
        <time>2019-02-03T08:51:34.000Z</time>
      </trkpt>
      <trkpt lat="46.82707" lon="0.3604">
        <ele>96</ele>
        <time>2019-02-03T08:51:35.000Z</time>
      </trkpt>
      <trkpt lat="46.82708" lon="0.36034">
        <ele>96</ele>
        <time>2019-02-03T08:51:36.000Z</time>
      </trkpt>
      <trkpt lat="46.82709" lon="0.36027">
        <ele>96</ele>
        <time>2019-02-03T08:51:37.000Z</time>
      </trkpt>
      <trkpt lat="46.82711" lon="0.3602">
        <ele>96</ele>
        <time>2019-02-03T08:51:38.000Z</time>
      </trkpt>
      <trkpt lat="46.82713" lon="0.36013">
        <ele>96</ele>
        <time>2019-02-03T08:51:39.000Z</time>
      </trkpt>
      <trkpt lat="46.82714" lon="0.36007">
        <ele>95</ele>
        <time>2019-02-03T08:51:40.000Z</time>
      </trkpt>
      <trkpt lat="46.82715" lon="0.36">
        <ele>95</ele>
        <time>2019-02-03T08:51:41.000Z</time>
      </trkpt>
      <trkpt lat="46.82715" lon="0.35993">
        <ele>95</ele>
        <time>2019-02-03T08:51:42.000Z</time>
      </trkpt>
      <trkpt lat="46.82714" lon="0.35986">
        <ele>95</ele>
        <time>2019-02-03T08:51:43.000Z</time>
      </trkpt>
      <trkpt lat="46.82713" lon="0.3598">
        <ele>94</ele>
        <time>2019-02-03T08:51:44.000Z</time>
      </trkpt>
      <trkpt lat="46.82711" lon="0.35973">
        <ele>94</ele>
        <time>2019-02-03T08:51:45.000Z</time>
      </trkpt>
      <trkpt lat="46.8271" lon="0.35966">
        <ele>94</ele>
        <time>2019-02-03T08:51:46.000Z</time>
      </trkpt>
      <trkpt lat="46.82708" lon="0.35959">
        <ele>93</ele>
        <time>2019-02-03T08:51:47.000Z</time>
      </trkpt>
      <trkpt lat="46.82706" lon="0.35953">
        <ele>93</ele>
        <time>2019-02-03T08:51:48.000Z</time>
      </trkpt>
      <trkpt lat="46.82704" lon="0.35946">
        <ele>93</ele>
        <time>2019-02-03T08:51:49.000Z</time>
      </trkpt>
      <trkpt lat="46.82702" lon="0.3594">
        <ele>93</ele>
        <time>2019-02-03T08:51:50.000Z</time>
      </trkpt>
      <trkpt lat="46.82701" lon="0.35933">
        <ele>94</ele>
        <time>2019-02-03T08:51:51.000Z</time>
      </trkpt>
      <trkpt lat="46.82701" lon="0.35927">
        <ele>94</ele>
        <time>2019-02-03T08:51:52.000Z</time>
      </trkpt>
      <trkpt lat="46.82701" lon="0.3592">
        <ele>93</ele>
        <time>2019-02-03T08:51:53.000Z</time>
      </trkpt>
      <trkpt lat="46.82701" lon="0.35913">
        <ele>92</ele>
        <time>2019-02-03T08:51:54.000Z</time>
      </trkpt>
      <trkpt lat="46.82702" lon="0.35907">
        <ele>91</ele>
        <time>2019-02-03T08:51:55.000Z</time>
      </trkpt>
      <trkpt lat="46.82703" lon="0.35901">
        <ele>91</ele>
        <time>2019-02-03T08:51:56.000Z</time>
      </trkpt>
      <trkpt lat="46.82705" lon="0.35896">
        <ele>91</ele>
        <time>2019-02-03T08:51:57.000Z</time>
      </trkpt>
      <trkpt lat="46.82707" lon="0.3589">
        <ele>91</ele>
        <time>2019-02-03T08:51:58.000Z</time>
      </trkpt>
      <trkpt lat="46.82708" lon="0.35883">
        <ele>91</ele>
        <time>2019-02-03T08:51:59.000Z</time>
      </trkpt>
      <trkpt lat="46.8271" lon="0.35877">
        <ele>91</ele>
        <time>2019-02-03T08:52:00.000Z</time>
      </trkpt>
      <trkpt lat="46.82712" lon="0.3587">
        <ele>91</ele>
        <time>2019-02-03T08:52:01.000Z</time>
      </trkpt>
      <trkpt lat="46.82714" lon="0.35864">
        <ele>91</ele>
        <time>2019-02-03T08:52:02.000Z</time>
      </trkpt>
      <trkpt lat="46.82716" lon="0.35858">
        <ele>91</ele>
        <time>2019-02-03T08:52:03.000Z</time>
      </trkpt>
      <trkpt lat="46.82718" lon="0.35852">
        <ele>91</ele>
        <time>2019-02-03T08:52:04.000Z</time>
      </trkpt>
      <trkpt lat="46.8272" lon="0.35845">
        <ele>91</ele>
        <time>2019-02-03T08:52:05.000Z</time>
      </trkpt>
      <trkpt lat="46.82722" lon="0.35839">
        <ele>91</ele>
        <time>2019-02-03T08:52:06.000Z</time>
      </trkpt>
      <trkpt lat="46.82725" lon="0.35833">
        <ele>92</ele>
        <time>2019-02-03T08:52:07.000Z</time>
      </trkpt>
      <trkpt lat="46.82727" lon="0.35826">
        <ele>93</ele>
        <time>2019-02-03T08:52:08.000Z</time>
      </trkpt>
      <trkpt lat="46.8273" lon="0.3582">
        <ele>94</ele>
        <time>2019-02-03T08:52:09.000Z</time>
      </trkpt>
      <trkpt lat="46.82733" lon="0.35813">
        <ele>94</ele>
        <time>2019-02-03T08:52:10.000Z</time>
      </trkpt>
      <trkpt lat="46.82735" lon="0.35807">
        <ele>94</ele>
        <time>2019-02-03T08:52:11.000Z</time>
      </trkpt>
      <trkpt lat="46.82738" lon="0.35801">
        <ele>94</ele>
        <time>2019-02-03T08:52:12.000Z</time>
      </trkpt>
      <trkpt lat="46.8274" lon="0.35794">
        <ele>95</ele>
        <time>2019-02-03T08:52:13.000Z</time>
      </trkpt>
      <trkpt lat="46.82743" lon="0.35788">
        <ele>95</ele>
        <time>2019-02-03T08:52:14.000Z</time>
      </trkpt>
      <trkpt lat="46.82745" lon="0.35782">
        <ele>94</ele>
        <time>2019-02-03T08:52:15.000Z</time>
      </trkpt>
      <trkpt lat="46.82747" lon="0.35776">
        <ele>94</ele>
        <time>2019-02-03T08:52:16.000Z</time>
      </trkpt>
      <trkpt lat="46.8275" lon="0.3577">
        <ele>94</ele>
        <time>2019-02-03T08:52:17.000Z</time>
      </trkpt>
      <trkpt lat="46.82753" lon="0.35764">
        <ele>94</ele>
        <time>2019-02-03T08:52:18.000Z</time>
      </trkpt>
      <trkpt lat="46.82755" lon="0.35759">
        <ele>94</ele>
        <time>2019-02-03T08:52:19.000Z</time>
      </trkpt>
      <trkpt lat="46.82758" lon="0.35753">
        <ele>94</ele>
        <time>2019-02-03T08:52:20.000Z</time>
      </trkpt>
      <trkpt lat="46.82762" lon="0.35748">
        <ele>94</ele>
        <time>2019-02-03T08:52:21.000Z</time>
      </trkpt>
      <trkpt lat="46.82765" lon="0.35742">
        <ele>94</ele>
        <time>2019-02-03T08:52:22.000Z</time>
      </trkpt>
      <trkpt lat="46.82768" lon="0.35737">
        <ele>94</ele>
        <time>2019-02-03T08:52:23.000Z</time>
      </trkpt>
      <trkpt lat="46.82772" lon="0.35731">
        <ele>94</ele>
        <time>2019-02-03T08:52:24.000Z</time>
      </trkpt>
      <trkpt lat="46.82775" lon="0.35726">
        <ele>93</ele>
        <time>2019-02-03T08:52:25.000Z</time>
      </trkpt>
      <trkpt lat="46.82778" lon="0.35721">
        <ele>93</ele>
        <time>2019-02-03T08:52:26.000Z</time>
      </trkpt>
      <trkpt lat="46.82782" lon="0.35715">
        <ele>93</ele>
        <time>2019-02-03T08:52:27.000Z</time>
      </trkpt>
      <trkpt lat="46.82785" lon="0.3571">
        <ele>93</ele>
        <time>2019-02-03T08:52:28.000Z</time>
      </trkpt>
      <trkpt lat="46.82788" lon="0.35705">
        <ele>92</ele>
        <time>2019-02-03T08:52:29.000Z</time>
      </trkpt>
      <trkpt lat="46.82792" lon="0.35699">
        <ele>92</ele>
        <time>2019-02-03T08:52:30.000Z</time>
      </trkpt>
      <trkpt lat="46.82795" lon="0.35694">
        <ele>92</ele>
        <time>2019-02-03T08:52:31.000Z</time>
      </trkpt>
      <trkpt lat="46.82799" lon="0.35689">
        <ele>93</ele>
        <time>2019-02-03T08:52:32.000Z</time>
      </trkpt>
      <trkpt lat="46.82802" lon="0.35684">
        <ele>93</ele>
        <time>2019-02-03T08:52:33.000Z</time>
      </trkpt>
      <trkpt lat="46.82806" lon="0.35679">
        <ele>93</ele>
        <time>2019-02-03T08:52:34.000Z</time>
      </trkpt>
      <trkpt lat="46.82809" lon="0.35674">
        <ele>93</ele>
        <time>2019-02-03T08:52:35.000Z</time>
      </trkpt>
      <trkpt lat="46.82813" lon="0.3567">
        <ele>94</ele>
        <time>2019-02-03T08:52:36.000Z</time>
      </trkpt>
      <trkpt lat="46.82817" lon="0.35666">
        <ele>95</ele>
        <time>2019-02-03T08:52:37.000Z</time>
      </trkpt>
      <trkpt lat="46.82821" lon="0.35662">
        <ele>96</ele>
        <time>2019-02-03T08:52:38.000Z</time>
      </trkpt>
      <trkpt lat="46.82825" lon="0.35657">
        <ele>95</ele>
        <time>2019-02-03T08:52:39.000Z</time>
      </trkpt>
      <trkpt lat="46.82829" lon="0.35653">
        <ele>95</ele>
        <time>2019-02-03T08:52:40.000Z</time>
      </trkpt>
      <trkpt lat="46.82833" lon="0.35649">
        <ele>95</ele>
        <time>2019-02-03T08:52:41.000Z</time>
      </trkpt>
      <trkpt lat="46.82836" lon="0.35644">
        <ele>94</ele>
        <time>2019-02-03T08:52:42.000Z</time>
      </trkpt>
      <trkpt lat="46.8284" lon="0.3564">
        <ele>94</ele>
        <time>2019-02-03T08:52:43.000Z</time>
      </trkpt>
      <trkpt lat="46.82844" lon="0.35635">
        <ele>95</ele>
        <time>2019-02-03T08:52:44.000Z</time>
      </trkpt>
      <trkpt lat="46.82847" lon="0.3563">
        <ele>94</ele>
        <time>2019-02-03T08:52:45.000Z</time>
      </trkpt>
      <trkpt lat="46.82851" lon="0.35625">
        <ele>95</ele>
        <time>2019-02-03T08:52:46.000Z</time>
      </trkpt>
      <trkpt lat="46.82854" lon="0.35619">
        <ele>94</ele>
        <time>2019-02-03T08:52:47.000Z</time>
      </trkpt>
      <trkpt lat="46.82858" lon="0.35614">
        <ele>94</ele>
        <time>2019-02-03T08:52:48.000Z</time>
      </trkpt>
      <trkpt lat="46.82862" lon="0.35608">
        <ele>94</ele>
        <time>2019-02-03T08:52:49.000Z</time>
      </trkpt>
      <trkpt lat="46.82865" lon="0.35602">
        <ele>94</ele>
        <time>2019-02-03T08:52:50.000Z</time>
      </trkpt>
      <trkpt lat="46.82869" lon="0.35596">
        <ele>94</ele>
        <time>2019-02-03T08:52:51.000Z</time>
      </trkpt>
      <trkpt lat="46.82872" lon="0.3559">
        <ele>94</ele>
        <time>2019-02-03T08:52:52.000Z</time>
      </trkpt>
      <trkpt lat="46.82876" lon="0.35584">
        <ele>94</ele>
        <time>2019-02-03T08:52:53.000Z</time>
      </trkpt>
      <trkpt lat="46.82879" lon="0.35578">
        <ele>94</ele>
        <time>2019-02-03T08:52:54.000Z</time>
      </trkpt>
      <trkpt lat="46.82882" lon="0.35571">
        <ele>94</ele>
        <time>2019-02-03T08:52:55.000Z</time>
      </trkpt>
      <trkpt lat="46.82886" lon="0.35565">
        <ele>94</ele>
        <time>2019-02-03T08:52:56.000Z</time>
      </trkpt>
      <trkpt lat="46.82889" lon="0.35559">
        <ele>93</ele>
        <time>2019-02-03T08:52:57.000Z</time>
      </trkpt>
      <trkpt lat="46.82892" lon="0.35552">
        <ele>94</ele>
        <time>2019-02-03T08:52:58.000Z</time>
      </trkpt>
      <trkpt lat="46.82895" lon="0.35546">
        <ele>94</ele>
        <time>2019-02-03T08:52:59.000Z</time>
      </trkpt>
      <trkpt lat="46.82898" lon="0.35539">
        <ele>94</ele>
        <time>2019-02-03T08:53:00.000Z</time>
      </trkpt>
      <trkpt lat="46.82901" lon="0.35533">
        <ele>94</ele>
        <time>2019-02-03T08:53:01.000Z</time>
      </trkpt>
      <trkpt lat="46.82904" lon="0.35527">
        <ele>94</ele>
        <time>2019-02-03T08:53:02.000Z</time>
      </trkpt>
      <trkpt lat="46.82907" lon="0.35521">
        <ele>94</ele>
        <time>2019-02-03T08:53:03.000Z</time>
      </trkpt>
      <trkpt lat="46.8291" lon="0.35515">
        <ele>94</ele>
        <time>2019-02-03T08:53:04.000Z</time>
      </trkpt>
      <trkpt lat="46.82914" lon="0.3551">
        <ele>94</ele>
        <time>2019-02-03T08:53:05.000Z</time>
      </trkpt>
      <trkpt lat="46.82918" lon="0.35505">
        <ele>94</ele>
        <time>2019-02-03T08:53:06.000Z</time>
      </trkpt>
      <trkpt lat="46.82922" lon="0.35502">
        <ele>94</ele>
        <time>2019-02-03T08:53:07.000Z</time>
      </trkpt>
      <trkpt lat="46.82927" lon="0.35499">
        <ele>94</ele>
        <time>2019-02-03T08:53:08.000Z</time>
      </trkpt>
      <trkpt lat="46.82932" lon="0.35497">
        <ele>93</ele>
        <time>2019-02-03T08:53:09.000Z</time>
      </trkpt>
      <trkpt lat="46.82937" lon="0.35497">
        <ele>92</ele>
        <time>2019-02-03T08:53:10.000Z</time>
      </trkpt>
      <trkpt lat="46.82942" lon="0.35497">
        <ele>93</ele>
        <time>2019-02-03T08:53:11.000Z</time>
      </trkpt>
      <trkpt lat="46.82947" lon="0.35497">
        <ele>93</ele>
        <time>2019-02-03T08:53:12.000Z</time>
      </trkpt>
      <trkpt lat="46.82952" lon="0.35497">
        <ele>93</ele>
        <time>2019-02-03T08:53:13.000Z</time>
      </trkpt>
      <trkpt lat="46.82956" lon="0.35497">
        <ele>93</ele>
        <time>2019-02-03T08:53:14.000Z</time>
      </trkpt>
      <trkpt lat="46.82961" lon="0.35497">
        <ele>93</ele>
        <time>2019-02-03T08:53:15.000Z</time>
      </trkpt>
      <trkpt lat="46.82966" lon="0.35498">
        <ele>93</ele>
        <time>2019-02-03T08:53:16.000Z</time>
      </trkpt>
      <trkpt lat="46.8297" lon="0.35499">
        <ele>93</ele>
        <time>2019-02-03T08:53:17.000Z</time>
      </trkpt>
      <trkpt lat="46.82975" lon="0.35501">
        <ele>94</ele>
        <time>2019-02-03T08:53:18.000Z</time>
      </trkpt>
      <trkpt lat="46.82979" lon="0.35502">
        <ele>93</ele>
        <time>2019-02-03T08:53:19.000Z</time>
      </trkpt>
      <trkpt lat="46.82984" lon="0.35504">
        <ele>93</ele>
        <time>2019-02-03T08:53:20.000Z</time>
      </trkpt>
      <trkpt lat="46.82988" lon="0.35506">
        <ele>93</ele>
        <time>2019-02-03T08:53:21.000Z</time>
      </trkpt>
      <trkpt lat="46.82993" lon="0.35509">
        <ele>93</ele>
        <time>2019-02-03T08:53:22.000Z</time>
      </trkpt>
      <trkpt lat="46.82996" lon="0.35512">
        <ele>94</ele>
        <time>2019-02-03T08:53:23.000Z</time>
      </trkpt>
      <trkpt lat="46.83" lon="0.35515">
        <ele>94</ele>
        <time>2019-02-03T08:53:24.000Z</time>
      </trkpt>
      <trkpt lat="46.83004" lon="0.35518">
        <ele>94</ele>
        <time>2019-02-03T08:53:25.000Z</time>
      </trkpt>
      <trkpt lat="46.83007" lon="0.35522">
        <ele>94</ele>
        <time>2019-02-03T08:53:26.000Z</time>
      </trkpt>
      <trkpt lat="46.83011" lon="0.35526">
        <ele>94</ele>
        <time>2019-02-03T08:53:27.000Z</time>
      </trkpt>
      <trkpt lat="46.83014" lon="0.35531">
        <ele>93</ele>
        <time>2019-02-03T08:53:28.000Z</time>
      </trkpt>
      <trkpt lat="46.83017" lon="0.35536">
        <ele>93</ele>
        <time>2019-02-03T08:53:29.000Z</time>
      </trkpt>
      <trkpt lat="46.83019" lon="0.35541">
        <ele>93</ele>
        <time>2019-02-03T08:53:30.000Z</time>
      </trkpt>
      <trkpt lat="46.83023" lon="0.35546">
        <ele>92</ele>
        <time>2019-02-03T08:53:31.000Z</time>
      </trkpt>
      <trkpt lat="46.83026" lon="0.35551">
        <ele>93</ele>
        <time>2019-02-03T08:53:32.000Z</time>
      </trkpt>
      <trkpt lat="46.83029" lon="0.35556">
        <ele>92</ele>
        <time>2019-02-03T08:53:33.000Z</time>
      </trkpt>
      <trkpt lat="46.83033" lon="0.35561">
        <ele>92</ele>
        <time>2019-02-03T08:53:34.000Z</time>
      </trkpt>
      <trkpt lat="46.83036" lon="0.35567">
        <ele>92</ele>
        <time>2019-02-03T08:53:35.000Z</time>
      </trkpt>
      <trkpt lat="46.83039" lon="0.35572">
        <ele>92</ele>
        <time>2019-02-03T08:53:36.000Z</time>
      </trkpt>
      <trkpt lat="46.83043" lon="0.35577">
        <ele>92</ele>
        <time>2019-02-03T08:53:37.000Z</time>
      </trkpt>
      <trkpt lat="46.83046" lon="0.35582">
        <ele>92</ele>
        <time>2019-02-03T08:53:38.000Z</time>
      </trkpt>
      <trkpt lat="46.83049" lon="0.35587">
        <ele>91</ele>
        <time>2019-02-03T08:53:39.000Z</time>
      </trkpt>
      <trkpt lat="46.83052" lon="0.35592">
        <ele>91</ele>
        <time>2019-02-03T08:53:40.000Z</time>
      </trkpt>
      <trkpt lat="46.83055" lon="0.35598">
        <ele>91</ele>
        <time>2019-02-03T08:53:41.000Z</time>
      </trkpt>
      <trkpt lat="46.83058" lon="0.35602">
        <ele>90</ele>
        <time>2019-02-03T08:53:42.000Z</time>
      </trkpt>
      <trkpt lat="46.83061" lon="0.35607">
        <ele>90</ele>
        <time>2019-02-03T08:53:43.000Z</time>
      </trkpt>
      <trkpt lat="46.83064" lon="0.3561">
        <ele>89</ele>
        <time>2019-02-03T08:53:44.000Z</time>
      </trkpt>
      <trkpt lat="46.83066" lon="0.35612">
        <ele>89</ele>
        <time>2019-02-03T08:53:45.000Z</time>
      </trkpt>
      <trkpt lat="46.83069" lon="0.35614">
        <ele>89</ele>
        <time>2019-02-03T08:53:46.000Z</time>
      </trkpt>
      <trkpt lat="46.83073" lon="0.35614">
        <ele>88</ele>
        <time>2019-02-03T08:53:47.000Z</time>
      </trkpt>
      <trkpt lat="46.83076" lon="0.35613">
        <ele>86</ele>
        <time>2019-02-03T08:53:48.000Z</time>
      </trkpt>
      <trkpt lat="46.83078" lon="0.35611">
        <ele>86</ele>
        <time>2019-02-03T08:53:49.000Z</time>
      </trkpt>
      <trkpt lat="46.8308" lon="0.35608">
        <ele>84</ele>
        <time>2019-02-03T08:53:50.000Z</time>
      </trkpt>
      <trkpt lat="46.83083" lon="0.35605">
        <ele>84</ele>
        <time>2019-02-03T08:53:51.000Z</time>
      </trkpt>
      <trkpt lat="46.83085" lon="0.35602">
        <ele>84</ele>
        <time>2019-02-03T08:53:52.000Z</time>
      </trkpt>
      <trkpt lat="46.83088" lon="0.35598">
        <ele>85</ele>
        <time>2019-02-03T08:53:53.000Z</time>
      </trkpt>
      <trkpt lat="46.8309" lon="0.35594">
        <ele>85</ele>
        <time>2019-02-03T08:53:54.000Z</time>
      </trkpt>
      <trkpt lat="46.83093" lon="0.3559">
        <ele>86</ele>
        <time>2019-02-03T08:53:55.000Z</time>
      </trkpt>
      <trkpt lat="46.83096" lon="0.35586">
        <ele>86</ele>
        <time>2019-02-03T08:53:56.000Z</time>
      </trkpt>
      <trkpt lat="46.83099" lon="0.35581">
        <ele>87</ele>
        <time>2019-02-03T08:53:57.000Z</time>
      </trkpt>
      <trkpt lat="46.83102" lon="0.35577">
        <ele>87</ele>
        <time>2019-02-03T08:53:58.000Z</time>
      </trkpt>
      <trkpt lat="46.83106" lon="0.35573">
        <ele>87</ele>
        <time>2019-02-03T08:53:59.000Z</time>
      </trkpt>
      <trkpt lat="46.83109" lon="0.35569">
        <ele>87</ele>
        <time>2019-02-03T08:54:00.000Z</time>
      </trkpt>
      <trkpt lat="46.83112" lon="0.35564">
        <ele>87</ele>
        <time>2019-02-03T08:54:01.000Z</time>
      </trkpt>
      <trkpt lat="46.83115" lon="0.3556">
        <ele>87</ele>
        <time>2019-02-03T08:54:02.000Z</time>
      </trkpt>
      <trkpt lat="46.83118" lon="0.35556">
        <ele>87</ele>
        <time>2019-02-03T08:54:03.000Z</time>
      </trkpt>
      <trkpt lat="46.83121" lon="0.35552">
        <ele>87</ele>
        <time>2019-02-03T08:54:04.000Z</time>
      </trkpt>
      <trkpt lat="46.83124" lon="0.35548">
        <ele>87</ele>
        <time>2019-02-03T08:54:05.000Z</time>
      </trkpt>
      <trkpt lat="46.83127" lon="0.35544">
        <ele>86</ele>
        <time>2019-02-03T08:54:06.000Z</time>
      </trkpt>
      <trkpt lat="46.8313" lon="0.3554">
        <ele>86</ele>
        <time>2019-02-03T08:54:07.000Z</time>
      </trkpt>
      <trkpt lat="46.83133" lon="0.35536">
        <ele>86</ele>
        <time>2019-02-03T08:54:08.000Z</time>
      </trkpt>
      <trkpt lat="46.83136" lon="0.35533">
        <ele>86</ele>
        <time>2019-02-03T08:54:09.000Z</time>
      </trkpt>
      <trkpt lat="46.8314" lon="0.35529">
        <ele>86</ele>
        <time>2019-02-03T08:54:10.000Z</time>
      </trkpt>
      <trkpt lat="46.83143" lon="0.35526">
        <ele>86</ele>
        <time>2019-02-03T08:54:11.000Z</time>
      </trkpt>
      <trkpt lat="46.83146" lon="0.35522">
        <ele>86</ele>
        <time>2019-02-03T08:54:12.000Z</time>
      </trkpt>
      <trkpt lat="46.83149" lon="0.35519">
        <ele>86</ele>
        <time>2019-02-03T08:54:13.000Z</time>
      </trkpt>
      <trkpt lat="46.83152" lon="0.35515">
        <ele>85</ele>
        <time>2019-02-03T08:54:14.000Z</time>
      </trkpt>
      <trkpt lat="46.83156" lon="0.35512">
        <ele>85</ele>
        <time>2019-02-03T08:54:15.000Z</time>
      </trkpt>
      <trkpt lat="46.83159" lon="0.35508">
        <ele>85</ele>
        <time>2019-02-03T08:54:16.000Z</time>
      </trkpt>
      <trkpt lat="46.83162" lon="0.35505">
        <ele>85</ele>
        <time>2019-02-03T08:54:17.000Z</time>
      </trkpt>
      <trkpt lat="46.83166" lon="0.35501">
        <ele>85</ele>
        <time>2019-02-03T08:54:18.000Z</time>
      </trkpt>
      <trkpt lat="46.83169" lon="0.35498">
        <ele>85</ele>
        <time>2019-02-03T08:54:19.000Z</time>
      </trkpt>
      <trkpt lat="46.83172" lon="0.35494">
        <ele>85</ele>
        <time>2019-02-03T08:54:20.000Z</time>
      </trkpt>
      <trkpt lat="46.83176" lon="0.3549">
        <ele>85</ele>
        <time>2019-02-03T08:54:21.000Z</time>
      </trkpt>
      <trkpt lat="46.83179" lon="0.35486">
        <ele>85</ele>
        <time>2019-02-03T08:54:22.000Z</time>
      </trkpt>
      <trkpt lat="46.83182" lon="0.35482">
        <ele>85</ele>
        <time>2019-02-03T08:54:23.000Z</time>
      </trkpt>
      <trkpt lat="46.83186" lon="0.35479">
        <ele>85</ele>
        <time>2019-02-03T08:54:24.000Z</time>
      </trkpt>
      <trkpt lat="46.83189" lon="0.35475">
        <ele>85</ele>
        <time>2019-02-03T08:54:25.000Z</time>
      </trkpt>
      <trkpt lat="46.83192" lon="0.35472">
        <ele>85</ele>
        <time>2019-02-03T08:54:26.000Z</time>
      </trkpt>
      <trkpt lat="46.83195" lon="0.35469">
        <ele>85</ele>
        <time>2019-02-03T08:54:27.000Z</time>
      </trkpt>
      <trkpt lat="46.83198" lon="0.35465">
        <ele>85</ele>
        <time>2019-02-03T08:54:28.000Z</time>
      </trkpt>
      <trkpt lat="46.83201" lon="0.35462">
        <ele>85</ele>
        <time>2019-02-03T08:54:29.000Z</time>
      </trkpt>
      <trkpt lat="46.83204" lon="0.35459">
        <ele>85</ele>
        <time>2019-02-03T08:54:30.000Z</time>
      </trkpt>
      <trkpt lat="46.83208" lon="0.35455">
        <ele>85</ele>
        <time>2019-02-03T08:54:31.000Z</time>
      </trkpt>
      <trkpt lat="46.83211" lon="0.35451">
        <ele>84</ele>
        <time>2019-02-03T08:54:32.000Z</time>
      </trkpt>
      <trkpt lat="46.83215" lon="0.35448">
        <ele>84</ele>
        <time>2019-02-03T08:54:33.000Z</time>
      </trkpt>
      <trkpt lat="46.83218" lon="0.35444">
        <ele>84</ele>
        <time>2019-02-03T08:54:34.000Z</time>
      </trkpt>
      <trkpt lat="46.83221" lon="0.3544">
        <ele>84</ele>
        <time>2019-02-03T08:54:35.000Z</time>
      </trkpt>
      <trkpt lat="46.83225" lon="0.35437">
        <ele>84</ele>
        <time>2019-02-03T08:54:36.000Z</time>
      </trkpt>
      <trkpt lat="46.83228" lon="0.35434">
        <ele>84</ele>
        <time>2019-02-03T08:54:37.000Z</time>
      </trkpt>
      <trkpt lat="46.83231" lon="0.35431">
        <ele>83</ele>
        <time>2019-02-03T08:54:38.000Z</time>
      </trkpt>
      <trkpt lat="46.83234" lon="0.35427">
        <ele>83</ele>
        <time>2019-02-03T08:54:39.000Z</time>
      </trkpt>
      <trkpt lat="46.83238" lon="0.35424">
        <ele>83</ele>
        <time>2019-02-03T08:54:40.000Z</time>
      </trkpt>
      <trkpt lat="46.83241" lon="0.3542">
        <ele>83</ele>
        <time>2019-02-03T08:54:41.000Z</time>
      </trkpt>
      <trkpt lat="46.83244" lon="0.35417">
        <ele>83</ele>
        <time>2019-02-03T08:54:42.000Z</time>
      </trkpt>
      <trkpt lat="46.83247" lon="0.35413">
        <ele>82</ele>
        <time>2019-02-03T08:54:43.000Z</time>
      </trkpt>
      <trkpt lat="46.83251" lon="0.3541">
        <ele>82</ele>
        <time>2019-02-03T08:54:44.000Z</time>
      </trkpt>
      <trkpt lat="46.83254" lon="0.35407">
        <ele>82</ele>
        <time>2019-02-03T08:54:45.000Z</time>
      </trkpt>
      <trkpt lat="46.83258" lon="0.35404">
        <ele>82</ele>
        <time>2019-02-03T08:54:46.000Z</time>
      </trkpt>
      <trkpt lat="46.83261" lon="0.35401">
        <ele>82</ele>
        <time>2019-02-03T08:54:47.000Z</time>
      </trkpt>
      <trkpt lat="46.83264" lon="0.35398">
        <ele>82</ele>
        <time>2019-02-03T08:54:48.000Z</time>
      </trkpt>
      <trkpt lat="46.83268" lon="0.35394">
        <ele>82</ele>
        <time>2019-02-03T08:54:49.000Z</time>
      </trkpt>
      <trkpt lat="46.83271" lon="0.35392">
        <ele>82</ele>
        <time>2019-02-03T08:54:50.000Z</time>
      </trkpt>
      <trkpt lat="46.83274" lon="0.35389">
        <ele>82</ele>
        <time>2019-02-03T08:54:51.000Z</time>
      </trkpt>
      <trkpt lat="46.83277" lon="0.35386">
        <ele>82</ele>
        <time>2019-02-03T08:54:52.000Z</time>
      </trkpt>
      <trkpt lat="46.8328" lon="0.35383">
        <ele>82</ele>
        <time>2019-02-03T08:54:53.000Z</time>
      </trkpt>
      <trkpt lat="46.83282" lon="0.35381">
        <ele>81</ele>
        <time>2019-02-03T08:54:54.000Z</time>
      </trkpt>
      <trkpt lat="46.83284" lon="0.35377">
        <ele>81</ele>
        <time>2019-02-03T08:54:55.000Z</time>
      </trkpt>
      <trkpt lat="46.83284" lon="0.35373">
        <ele>81</ele>
        <time>2019-02-03T08:54:56.000Z</time>
      </trkpt>
      <trkpt lat="46.83283" lon="0.35368">
        <ele>80</ele>
        <time>2019-02-03T08:54:57.000Z</time>
      </trkpt>
      <trkpt lat="46.83281" lon="0.35363">
        <ele>81</ele>
        <time>2019-02-03T08:54:58.000Z</time>
      </trkpt>
      <trkpt lat="46.83279" lon="0.35358">
        <ele>81</ele>
        <time>2019-02-03T08:54:59.000Z</time>
      </trkpt>
      <trkpt lat="46.83277" lon="0.35353">
        <ele>81</ele>
        <time>2019-02-03T08:55:00.000Z</time>
      </trkpt>
      <trkpt lat="46.83275" lon="0.35348">
        <ele>81</ele>
        <time>2019-02-03T08:55:01.000Z</time>
      </trkpt>
      <trkpt lat="46.83273" lon="0.35344">
        <ele>81</ele>
        <time>2019-02-03T08:55:02.000Z</time>
      </trkpt>
      <trkpt lat="46.83271" lon="0.3534">
        <ele>82</ele>
        <time>2019-02-03T08:55:03.000Z</time>
      </trkpt>
      <trkpt lat="46.83269" lon="0.35336">
        <ele>82</ele>
        <time>2019-02-03T08:55:04.000Z</time>
      </trkpt>
      <trkpt lat="46.83267" lon="0.35331">
        <ele>82</ele>
        <time>2019-02-03T08:55:05.000Z</time>
      </trkpt>
      <trkpt lat="46.83265" lon="0.35327">
        <ele>82</ele>
        <time>2019-02-03T08:55:06.000Z</time>
      </trkpt>
      <trkpt lat="46.83263" lon="0.35323">
        <ele>82</ele>
        <time>2019-02-03T08:55:07.000Z</time>
      </trkpt>
      <trkpt lat="46.8326" lon="0.35318">
        <ele>83</ele>
        <time>2019-02-03T08:55:08.000Z</time>
      </trkpt>
      <trkpt lat="46.83258" lon="0.35314">
        <ele>83</ele>
        <time>2019-02-03T08:55:09.000Z</time>
      </trkpt>
      <trkpt lat="46.83256" lon="0.3531">
        <ele>83</ele>
        <time>2019-02-03T08:55:10.000Z</time>
      </trkpt>
      <trkpt lat="46.83253" lon="0.35305">
        <ele>83</ele>
        <time>2019-02-03T08:55:11.000Z</time>
      </trkpt>
      <trkpt lat="46.83251" lon="0.35301">
        <ele>83</ele>
        <time>2019-02-03T08:55:12.000Z</time>
      </trkpt>
      <trkpt lat="46.83248" lon="0.35297">
        <ele>83</ele>
        <time>2019-02-03T08:55:13.000Z</time>
      </trkpt>
      <trkpt lat="46.83246" lon="0.35292">
        <ele>84</ele>
        <time>2019-02-03T08:55:14.000Z</time>
      </trkpt>
      <trkpt lat="46.83243" lon="0.35288">
        <ele>84</ele>
        <time>2019-02-03T08:55:15.000Z</time>
      </trkpt>
      <trkpt lat="46.8324" lon="0.35284">
        <ele>84</ele>
        <time>2019-02-03T08:55:16.000Z</time>
      </trkpt>
      <trkpt lat="46.83237" lon="0.3528">
        <ele>84</ele>
        <time>2019-02-03T08:55:17.000Z</time>
      </trkpt>
      <trkpt lat="46.83235" lon="0.35277">
        <ele>84</ele>
        <time>2019-02-03T08:55:18.000Z</time>
      </trkpt>
      <trkpt lat="46.83232" lon="0.35273">
        <ele>84</ele>
        <time>2019-02-03T08:55:19.000Z</time>
      </trkpt>
      <trkpt lat="46.83229" lon="0.3527">
        <ele>85</ele>
        <time>2019-02-03T08:55:20.000Z</time>
      </trkpt>
      <trkpt lat="46.83226" lon="0.35266">
        <ele>85</ele>
        <time>2019-02-03T08:55:21.000Z</time>
      </trkpt>
      <trkpt lat="46.83224" lon="0.35263">
        <ele>85</ele>
        <time>2019-02-03T08:55:22.000Z</time>
      </trkpt>
      <trkpt lat="46.83222" lon="0.3526">
        <ele>85</ele>
        <time>2019-02-03T08:55:23.000Z</time>
      </trkpt>
      <trkpt lat="46.8322" lon="0.35258">
        <ele>85</ele>
        <time>2019-02-03T08:55:24.000Z</time>
      </trkpt>
      <trkpt lat="46.83217" lon="0.35255">
        <ele>85</ele>
        <time>2019-02-03T08:55:25.000Z</time>
      </trkpt>
      <trkpt lat="46.83215" lon="0.35252">
        <ele>85</ele>
        <time>2019-02-03T08:55:26.000Z</time>
      </trkpt>
      <trkpt lat="46.83212" lon="0.35249">
        <ele>86</ele>
        <time>2019-02-03T08:55:27.000Z</time>
      </trkpt>
      <trkpt lat="46.8321" lon="0.35246">
        <ele>86</ele>
        <time>2019-02-03T08:55:28.000Z</time>
      </trkpt>
      <trkpt lat="46.83207" lon="0.35243">
        <ele>86</ele>
        <time>2019-02-03T08:55:29.000Z</time>
      </trkpt>
      <trkpt lat="46.83205" lon="0.35239">
        <ele>85</ele>
        <time>2019-02-03T08:55:30.000Z</time>
      </trkpt>
      <trkpt lat="46.83202" lon="0.35236">
        <ele>85</ele>
        <time>2019-02-03T08:55:31.000Z</time>
      </trkpt>
      <trkpt lat="46.832" lon="0.35233">
        <ele>85</ele>
        <time>2019-02-03T08:55:32.000Z</time>
      </trkpt>
      <trkpt lat="46.83197" lon="0.3523">
        <ele>84</ele>
        <time>2019-02-03T08:55:33.000Z</time>
      </trkpt>
      <trkpt lat="46.83194" lon="0.35228">
        <ele>84</ele>
        <time>2019-02-03T08:55:34.000Z</time>
      </trkpt>
      <trkpt lat="46.83192" lon="0.35225">
        <ele>83</ele>
        <time>2019-02-03T08:55:35.000Z</time>
      </trkpt>
      <trkpt lat="46.83189" lon="0.35223">
        <ele>83</ele>
        <time>2019-02-03T08:55:36.000Z</time>
      </trkpt>
      <trkpt lat="46.83187" lon="0.3522">
        <ele>82</ele>
        <time>2019-02-03T08:55:37.000Z</time>
      </trkpt>
      <trkpt lat="46.83184" lon="0.35217">
        <ele>82</ele>
        <time>2019-02-03T08:55:38.000Z</time>
      </trkpt>
      <trkpt lat="46.83181" lon="0.35214">
        <ele>80</ele>
        <time>2019-02-03T08:55:39.000Z</time>
      </trkpt>
      <trkpt lat="46.83178" lon="0.35211">
        <ele>79</ele>
        <time>2019-02-03T08:55:40.000Z</time>
      </trkpt>
      <trkpt lat="46.83175" lon="0.35208">
        <ele>78</ele>
        <time>2019-02-03T08:55:41.000Z</time>
      </trkpt>
      <trkpt lat="46.83172" lon="0.35205">
        <ele>77</ele>
        <time>2019-02-03T08:55:42.000Z</time>
      </trkpt>
      <trkpt lat="46.83169" lon="0.35201">
        <ele>76</ele>
        <time>2019-02-03T08:55:43.000Z</time>
      </trkpt>
      <trkpt lat="46.83166" lon="0.35198">
        <ele>75</ele>
        <time>2019-02-03T08:55:44.000Z</time>
      </trkpt>
      <trkpt lat="46.83163" lon="0.35194">
        <ele>76</ele>
        <time>2019-02-03T08:55:45.000Z</time>
      </trkpt>
      <trkpt lat="46.8316" lon="0.3519">
        <ele>77</ele>
        <time>2019-02-03T08:55:46.000Z</time>
      </trkpt>
      <trkpt lat="46.83158" lon="0.35186">
        <ele>77</ele>
        <time>2019-02-03T08:55:47.000Z</time>
      </trkpt>
      <trkpt lat="46.83155" lon="0.35181">
        <ele>77</ele>
        <time>2019-02-03T08:55:48.000Z</time>
      </trkpt>
      <trkpt lat="46.83152" lon="0.35177">
        <ele>78</ele>
        <time>2019-02-03T08:55:49.000Z</time>
      </trkpt>
      <trkpt lat="46.8315" lon="0.35172">
        <ele>78</ele>
        <time>2019-02-03T08:55:50.000Z</time>
      </trkpt>
      <trkpt lat="46.83147" lon="0.35167">
        <ele>78</ele>
        <time>2019-02-03T08:55:51.000Z</time>
      </trkpt>
      <trkpt lat="46.83143" lon="0.35163">
        <ele>79</ele>
        <time>2019-02-03T08:55:52.000Z</time>
      </trkpt>
      <trkpt lat="46.83141" lon="0.35158">
        <ele>79</ele>
        <time>2019-02-03T08:55:53.000Z</time>
      </trkpt>
      <trkpt lat="46.83138" lon="0.35154">
        <ele>79</ele>
        <time>2019-02-03T08:55:54.000Z</time>
      </trkpt>
      <trkpt lat="46.83135" lon="0.3515">
        <ele>79</ele>
        <time>2019-02-03T08:55:55.000Z</time>
      </trkpt>
      <trkpt lat="46.83132" lon="0.35145">
        <ele>79</ele>
        <time>2019-02-03T08:55:56.000Z</time>
      </trkpt>
      <trkpt lat="46.83129" lon="0.35141">
        <ele>80</ele>
        <time>2019-02-03T08:55:57.000Z</time>
      </trkpt>
      <trkpt lat="46.83126" lon="0.35137">
        <ele>80</ele>
        <time>2019-02-03T08:55:58.000Z</time>
      </trkpt>
      <trkpt lat="46.83123" lon="0.35132">
        <ele>80</ele>
        <time>2019-02-03T08:55:59.000Z</time>
      </trkpt>
      <trkpt lat="46.8312" lon="0.35128">
        <ele>80</ele>
        <time>2019-02-03T08:56:00.000Z</time>
      </trkpt>
      <trkpt lat="46.83117" lon="0.35124">
        <ele>80</ele>
        <time>2019-02-03T08:56:01.000Z</time>
      </trkpt>
      <trkpt lat="46.83114" lon="0.3512">
        <ele>82</ele>
        <time>2019-02-03T08:56:02.000Z</time>
      </trkpt>
      <trkpt lat="46.83112" lon="0.35116">
        <ele>82</ele>
        <time>2019-02-03T08:56:03.000Z</time>
      </trkpt>
      <trkpt lat="46.83109" lon="0.35111">
        <ele>82</ele>
        <time>2019-02-03T08:56:04.000Z</time>
      </trkpt>
      <trkpt lat="46.83106" lon="0.35107">
        <ele>82</ele>
        <time>2019-02-03T08:56:05.000Z</time>
      </trkpt>
      <trkpt lat="46.83103" lon="0.35103">
        <ele>82</ele>
        <time>2019-02-03T08:56:06.000Z</time>
      </trkpt>
      <trkpt lat="46.83101" lon="0.35098">
        <ele>82</ele>
        <time>2019-02-03T08:56:07.000Z</time>
      </trkpt>
      <trkpt lat="46.83099" lon="0.35093">
        <ele>82</ele>
        <time>2019-02-03T08:56:08.000Z</time>
      </trkpt>
      <trkpt lat="46.83096" lon="0.35088">
        <ele>82</ele>
        <time>2019-02-03T08:56:09.000Z</time>
      </trkpt>
      <trkpt lat="46.83094" lon="0.35084">
        <ele>83</ele>
        <time>2019-02-03T08:56:10.000Z</time>
      </trkpt>
      <trkpt lat="46.83091" lon="0.35079">
        <ele>83</ele>
        <time>2019-02-03T08:56:11.000Z</time>
      </trkpt>
      <trkpt lat="46.83088" lon="0.35075">
        <ele>84</ele>
        <time>2019-02-03T08:56:12.000Z</time>
      </trkpt>
      <trkpt lat="46.83086" lon="0.35071">
        <ele>84</ele>
        <time>2019-02-03T08:56:13.000Z</time>
      </trkpt>
      <trkpt lat="46.83083" lon="0.35067">
        <ele>84</ele>
        <time>2019-02-03T08:56:14.000Z</time>
      </trkpt>
      <trkpt lat="46.8308" lon="0.35064">
        <ele>85</ele>
        <time>2019-02-03T08:56:15.000Z</time>
      </trkpt>
      <trkpt lat="46.83078" lon="0.35061">
        <ele>84</ele>
        <time>2019-02-03T08:56:16.000Z</time>
      </trkpt>
      <trkpt lat="46.83075" lon="0.35059">
        <ele>84</ele>
        <time>2019-02-03T08:56:17.000Z</time>
      </trkpt>
      <trkpt lat="46.83073" lon="0.35059">
        <ele>85</ele>
        <time>2019-02-03T08:56:18.000Z</time>
      </trkpt>
      <trkpt lat="46.83071" lon="0.35058">
        <ele>85</ele>
        <time>2019-02-03T08:56:19.000Z</time>
      </trkpt>
      <trkpt lat="46.83069" lon="0.35059">
        <ele>86</ele>
        <time>2019-02-03T08:56:20.000Z</time>
      </trkpt>
      <trkpt lat="46.83067" lon="0.35059">
        <ele>86</ele>
        <time>2019-02-03T08:56:21.000Z</time>
      </trkpt>
      <trkpt lat="46.83065" lon="0.35059">
        <ele>87</ele>
        <time>2019-02-03T08:56:22.000Z</time>
      </trkpt>
      <trkpt lat="46.83063" lon="0.35059">
        <ele>87</ele>
        <time>2019-02-03T08:56:23.000Z</time>
      </trkpt>
      <trkpt lat="46.83061" lon="0.3506">
        <ele>88</ele>
        <time>2019-02-03T08:56:24.000Z</time>
      </trkpt>
      <trkpt lat="46.8306" lon="0.35061">
        <ele>89</ele>
        <time>2019-02-03T08:56:25.000Z</time>
      </trkpt>
      <trkpt lat="46.83058" lon="0.35061">
        <ele>90</ele>
        <time>2019-02-03T08:56:26.000Z</time>
      </trkpt>
      <trkpt lat="46.83056" lon="0.3506">
        <ele>90</ele>
        <time>2019-02-03T08:56:27.000Z</time>
      </trkpt>
      <trkpt lat="46.83053" lon="0.3506">
        <ele>90</ele>
        <time>2019-02-03T08:56:28.000Z</time>
      </trkpt>
      <trkpt lat="46.83051" lon="0.3506">
        <ele>90</ele>
        <time>2019-02-03T08:56:29.000Z</time>
      </trkpt>
      <trkpt lat="46.83049" lon="0.35061">
        <ele>90</ele>
        <time>2019-02-03T08:56:30.000Z</time>
      </trkpt>
      <trkpt lat="46.83047" lon="0.35062">
        <ele>90</ele>
        <time>2019-02-03T08:56:31.000Z</time>
      </trkpt>
      <trkpt lat="46.83046" lon="0.35063">
        <ele>90</ele>
        <time>2019-02-03T08:56:32.000Z</time>
      </trkpt>
      <trkpt lat="46.83044" lon="0.35066">
        <ele>89</ele>
        <time>2019-02-03T08:56:33.000Z</time>
      </trkpt>
      <trkpt lat="46.83043" lon="0.35069">
        <ele>89</ele>
        <time>2019-02-03T08:56:34.000Z</time>
      </trkpt>
      <trkpt lat="46.83041" lon="0.35072">
        <ele>89</ele>
        <time>2019-02-03T08:56:35.000Z</time>
      </trkpt>
      <trkpt lat="46.8304" lon="0.35075">
        <ele>89</ele>
        <time>2019-02-03T08:56:36.000Z</time>
      </trkpt>
      <trkpt lat="46.83038" lon="0.35077">
        <ele>89</ele>
        <time>2019-02-03T08:56:37.000Z</time>
      </trkpt>
      <trkpt lat="46.83036" lon="0.35078">
        <ele>89</ele>
        <time>2019-02-03T08:56:38.000Z</time>
      </trkpt>
      <trkpt lat="46.83035" lon="0.35079">
        <ele>89</ele>
        <time>2019-02-03T08:56:39.000Z</time>
      </trkpt>
      <trkpt lat="46.83033" lon="0.3508">
        <ele>89</ele>
        <time>2019-02-03T08:56:40.000Z</time>
      </trkpt>
      <trkpt lat="46.83031" lon="0.35082">
        <ele>90</ele>
        <time>2019-02-03T08:56:41.000Z</time>
      </trkpt>
      <trkpt lat="46.83028" lon="0.35083">
        <ele>90</ele>
        <time>2019-02-03T08:56:42.000Z</time>
      </trkpt>
      <trkpt lat="46.83026" lon="0.35085">
        <ele>90</ele>
        <time>2019-02-03T08:56:43.000Z</time>
      </trkpt>
      <trkpt lat="46.83024" lon="0.35086">
        <ele>91</ele>
        <time>2019-02-03T08:56:44.000Z</time>
      </trkpt>
      <trkpt lat="46.83022" lon="0.35088">
        <ele>91</ele>
        <time>2019-02-03T08:56:45.000Z</time>
      </trkpt>
      <trkpt lat="46.83021" lon="0.35089">
        <ele>91</ele>
        <time>2019-02-03T08:56:46.000Z</time>
      </trkpt>
      <trkpt lat="46.83019" lon="0.35091">
        <ele>92</ele>
        <time>2019-02-03T08:56:47.000Z</time>
      </trkpt>
      <trkpt lat="46.83017" lon="0.35094">
        <ele>93</ele>
        <time>2019-02-03T08:56:48.000Z</time>
      </trkpt>
      <trkpt lat="46.83016" lon="0.35096">
        <ele>93</ele>
        <time>2019-02-03T08:56:49.000Z</time>
      </trkpt>
      <trkpt lat="46.83014" lon="0.351">
        <ele>88</ele>
        <time>2019-02-03T08:56:50.000Z</time>
      </trkpt>
      <trkpt lat="46.83013" lon="0.35105">
        <ele>88</ele>
        <time>2019-02-03T08:56:51.000Z</time>
      </trkpt>
      <trkpt lat="46.83013" lon="0.3511">
        <ele>89</ele>
        <time>2019-02-03T08:56:52.000Z</time>
      </trkpt>
      <trkpt lat="46.83012" lon="0.35114">
        <ele>90</ele>
        <time>2019-02-03T08:56:53.000Z</time>
      </trkpt>
      <trkpt lat="46.83012" lon="0.35118">
        <ele>90</ele>
        <time>2019-02-03T08:56:54.000Z</time>
      </trkpt>
      <trkpt lat="46.83012" lon="0.35122">
        <ele>90</ele>
        <time>2019-02-03T08:56:55.000Z</time>
      </trkpt>
      <trkpt lat="46.83011" lon="0.35125">
        <ele>91</ele>
        <time>2019-02-03T08:56:56.000Z</time>
      </trkpt>
      <trkpt lat="46.8301" lon="0.35128">
        <ele>92</ele>
        <time>2019-02-03T08:56:57.000Z</time>
      </trkpt>
      <trkpt lat="46.8301" lon="0.3513">
        <ele>93</ele>
        <time>2019-02-03T08:56:58.000Z</time>
      </trkpt>
      <trkpt lat="46.83011" lon="0.3513">
        <ele>93</ele>
        <time>2019-02-03T08:56:59.000Z</time>
      </trkpt>
      <trkpt lat="46.83011" lon="0.35129">
        <ele>94</ele>
        <time>2019-02-03T08:57:00.000Z</time>
      </trkpt>
      <trkpt lat="46.83011" lon="0.35129">
        <ele>95</ele>
        <time>2019-02-03T08:57:01.000Z</time>
      </trkpt>
      <trkpt lat="46.83011" lon="0.3513">
        <ele>95</ele>
        <time>2019-02-03T08:57:02.000Z</time>
      </trkpt>
      <trkpt lat="46.8301" lon="0.35131">
        <ele>94</ele>
        <time>2019-02-03T08:57:03.000Z</time>
      </trkpt>
      <trkpt lat="46.83008" lon="0.35131">
        <ele>94</ele>
        <time>2019-02-03T08:57:04.000Z</time>
      </trkpt>
      <trkpt lat="46.83007" lon="0.35131">
        <ele>93</ele>
        <time>2019-02-03T08:57:05.000Z</time>
      </trkpt>
      <trkpt lat="46.83005" lon="0.35131">
        <ele>94</ele>
        <time>2019-02-03T08:57:06.000Z</time>
      </trkpt>
      <trkpt lat="46.83004" lon="0.35131">
        <ele>94</ele>
        <time>2019-02-03T08:57:07.000Z</time>
      </trkpt>
      <trkpt lat="46.83004" lon="0.35131">
        <ele>95</ele>
        <time>2019-02-03T08:57:08.000Z</time>
      </trkpt>
      <trkpt lat="46.83002" lon="0.3513">
        <ele>95</ele>
        <time>2019-02-03T08:57:09.000Z</time>
      </trkpt>
      <trkpt lat="46.83001" lon="0.3513">
        <ele>95</ele>
        <time>2019-02-03T08:57:10.000Z</time>
      </trkpt>
      <trkpt lat="46.83" lon="0.35129">
        <ele>94</ele>
        <time>2019-02-03T08:57:11.000Z</time>
      </trkpt>
      <trkpt lat="46.82998" lon="0.35128">
        <ele>93</ele>
        <time>2019-02-03T08:57:12.000Z</time>
      </trkpt>
      <trkpt lat="46.82995" lon="0.35127">
        <ele>92</ele>
        <time>2019-02-03T08:57:13.000Z</time>
      </trkpt>
      <trkpt lat="46.82993" lon="0.35126">
        <ele>92</ele>
        <time>2019-02-03T08:57:14.000Z</time>
      </trkpt>
      <trkpt lat="46.82991" lon="0.35125">
        <ele>92</ele>
        <time>2019-02-03T08:57:15.000Z</time>
      </trkpt>
      <trkpt lat="46.8299" lon="0.35123">
        <ele>91</ele>
        <time>2019-02-03T08:57:16.000Z</time>
      </trkpt>
      <trkpt lat="46.82988" lon="0.35122">
        <ele>91</ele>
        <time>2019-02-03T08:57:17.000Z</time>
      </trkpt>
      <trkpt lat="46.82985" lon="0.35121">
        <ele>91</ele>
        <time>2019-02-03T08:57:18.000Z</time>
      </trkpt>
      <trkpt lat="46.82983" lon="0.3512">
        <ele>91</ele>
        <time>2019-02-03T08:57:19.000Z</time>
      </trkpt>
      <trkpt lat="46.82981" lon="0.35119">
        <ele>92</ele>
        <time>2019-02-03T08:57:20.000Z</time>
      </trkpt>
      <trkpt lat="46.8298" lon="0.35117">
        <ele>93</ele>
        <time>2019-02-03T08:57:21.000Z</time>
      </trkpt>
      <trkpt lat="46.82979" lon="0.35115">
        <ele>92</ele>
        <time>2019-02-03T08:57:22.000Z</time>
      </trkpt>
      <trkpt lat="46.82977" lon="0.35113">
        <ele>92</ele>
        <time>2019-02-03T08:57:23.000Z</time>
      </trkpt>
      <trkpt lat="46.82976" lon="0.3511">
        <ele>92</ele>
        <time>2019-02-03T08:57:24.000Z</time>
      </trkpt>
      <trkpt lat="46.82974" lon="0.35108">
        <ele>90</ele>
        <time>2019-02-03T08:57:25.000Z</time>
      </trkpt>
      <trkpt lat="46.82973" lon="0.35105">
        <ele>89</ele>
        <time>2019-02-03T08:57:26.000Z</time>
      </trkpt>
      <trkpt lat="46.82972" lon="0.35102">
        <ele>88</ele>
        <time>2019-02-03T08:57:27.000Z</time>
      </trkpt>
      <trkpt lat="46.8297" lon="0.351">
        <ele>87</ele>
        <time>2019-02-03T08:57:28.000Z</time>
      </trkpt>
      <trkpt lat="46.82968" lon="0.35097">
        <ele>86</ele>
        <time>2019-02-03T08:57:29.000Z</time>
      </trkpt>
      <trkpt lat="46.82966" lon="0.35096">
        <ele>86</ele>
        <time>2019-02-03T08:57:30.000Z</time>
      </trkpt>
      <trkpt lat="46.82964" lon="0.35094">
        <ele>85</ele>
        <time>2019-02-03T08:57:31.000Z</time>
      </trkpt>
      <trkpt lat="46.82961" lon="0.35092">
        <ele>85</ele>
        <time>2019-02-03T08:57:32.000Z</time>
      </trkpt>
      <trkpt lat="46.82959" lon="0.3509">
        <ele>84</ele>
        <time>2019-02-03T08:57:33.000Z</time>
      </trkpt>
      <trkpt lat="46.82956" lon="0.35089">
        <ele>82</ele>
        <time>2019-02-03T08:57:34.000Z</time>
      </trkpt>
      <trkpt lat="46.82953" lon="0.35088">
        <ele>81</ele>
        <time>2019-02-03T08:57:35.000Z</time>
      </trkpt>
      <trkpt lat="46.8295" lon="0.35087">
        <ele>79</ele>
        <time>2019-02-03T08:57:36.000Z</time>
      </trkpt>
      <trkpt lat="46.82947" lon="0.35086">
        <ele>79</ele>
        <time>2019-02-03T08:57:37.000Z</time>
      </trkpt>
      <trkpt lat="46.82945" lon="0.35084">
        <ele>78</ele>
        <time>2019-02-03T08:57:38.000Z</time>
      </trkpt>
      <trkpt lat="46.82943" lon="0.35081">
        <ele>77</ele>
        <time>2019-02-03T08:57:39.000Z</time>
      </trkpt>
      <trkpt lat="46.82941" lon="0.35079">
        <ele>76</ele>
        <time>2019-02-03T08:57:40.000Z</time>
      </trkpt>
      <trkpt lat="46.82939" lon="0.35077">
        <ele>76</ele>
        <time>2019-02-03T08:57:41.000Z</time>
      </trkpt>
      <trkpt lat="46.82937" lon="0.35075">
        <ele>75</ele>
        <time>2019-02-03T08:57:42.000Z</time>
      </trkpt>
      <trkpt lat="46.82934" lon="0.35072">
        <ele>75</ele>
        <time>2019-02-03T08:57:43.000Z</time>
      </trkpt>
      <trkpt lat="46.82932" lon="0.3507">
        <ele>75</ele>
        <time>2019-02-03T08:57:44.000Z</time>
      </trkpt>
      <trkpt lat="46.8293" lon="0.35068">
        <ele>76</ele>
        <time>2019-02-03T08:57:45.000Z</time>
      </trkpt>
      <trkpt lat="46.82929" lon="0.35067">
        <ele>75</ele>
        <time>2019-02-03T08:57:46.000Z</time>
      </trkpt>
      <trkpt lat="46.82927" lon="0.35066">
        <ele>75</ele>
        <time>2019-02-03T08:57:47.000Z</time>
      </trkpt>
      <trkpt lat="46.82927" lon="0.35066">
        <ele>76</ele>
        <time>2019-02-03T08:57:48.000Z</time>
      </trkpt>
      <trkpt lat="46.82927" lon="0.35066">
        <ele>76</ele>
        <time>2019-02-03T08:57:49.000Z</time>
      </trkpt>
      <trkpt lat="46.82927" lon="0.35066">
        <ele>78</ele>
        <time>2019-02-03T08:57:50.000Z</time>
      </trkpt>
      <trkpt lat="46.82926" lon="0.35064">
        <ele>79</ele>
        <time>2019-02-03T08:57:51.000Z</time>
      </trkpt>
      <trkpt lat="46.82925" lon="0.35063">
        <ele>81</ele>
        <time>2019-02-03T08:57:52.000Z</time>
      </trkpt>
      <trkpt lat="46.82925" lon="0.35062">
        <ele>83</ele>
        <time>2019-02-03T08:57:53.000Z</time>
      </trkpt>
      <trkpt lat="46.82924" lon="0.35061">
        <ele>84</ele>
        <time>2019-02-03T08:57:54.000Z</time>
      </trkpt>
      <trkpt lat="46.82924" lon="0.3506">
        <ele>86</ele>
        <time>2019-02-03T08:57:55.000Z</time>
      </trkpt>
      <trkpt lat="46.82923" lon="0.3506">
        <ele>87</ele>
        <time>2019-02-03T08:57:56.000Z</time>
      </trkpt>
      <trkpt lat="46.82923" lon="0.35059">
        <ele>87</ele>
        <time>2019-02-03T08:57:57.000Z</time>
      </trkpt>
      <trkpt lat="46.82922" lon="0.35059">
        <ele>88</ele>
        <time>2019-02-03T08:57:58.000Z</time>
      </trkpt>
      <trkpt lat="46.82921" lon="0.35059">
        <ele>88</ele>
        <time>2019-02-03T08:57:59.000Z</time>
      </trkpt>
      <trkpt lat="46.82921" lon="0.35059">
        <ele>89</ele>
        <time>2019-02-03T08:58:00.000Z</time>
      </trkpt>
      <trkpt lat="46.82921" lon="0.35059">
        <ele>90</ele>
        <time>2019-02-03T08:58:01.000Z</time>
      </trkpt>
      <trkpt lat="46.8292" lon="0.35059">
        <ele>91</ele>
        <time>2019-02-03T08:58:02.000Z</time>
      </trkpt>
      <trkpt lat="46.8292" lon="0.35059">
        <ele>91</ele>
        <time>2019-02-03T08:58:03.000Z</time>
      </trkpt>
      <trkpt lat="46.8292" lon="0.35059">
        <ele>92</ele>
        <time>2019-02-03T08:58:04.000Z</time>
      </trkpt>
      <trkpt lat="46.8292" lon="0.35059">
        <ele>93</ele>
        <time>2019-02-03T08:58:05.000Z</time>
      </trkpt>
      <trkpt lat="46.8292" lon="0.35059">
        <ele>94</ele>
        <time>2019-02-03T08:58:06.000Z</time>
      </trkpt>
      <trkpt lat="46.8292" lon="0.35058">
        <ele>96</ele>
        <time>2019-02-03T08:58:07.000Z</time>
      </trkpt>
      <trkpt lat="46.82921" lon="0.35057">
        <ele>97</ele>
        <time>2019-02-03T08:58:08.000Z</time>
      </trkpt>
      <trkpt lat="46.82921" lon="0.35056">
        <ele>97</ele>
        <time>2019-02-03T08:58:09.000Z</time>
      </trkpt>
      <trkpt lat="46.82921" lon="0.35056">
        <ele>98</ele>
        <time>2019-02-03T08:58:10.000Z</time>
      </trkpt>
      <trkpt lat="46.82921" lon="0.35056">
        <ele>97</ele>
        <time>2019-02-03T08:58:11.000Z</time>
      </trkpt>
      <trkpt lat="46.82921" lon="0.35055">
        <ele>98</ele>
        <time>2019-02-03T08:58:12.000Z</time>
      </trkpt>
      <trkpt lat="46.82921" lon="0.35055">
        <ele>98</ele>
        <time>2019-02-03T08:58:13.000Z</time>
      </trkpt>
      <trkpt lat="46.82921" lon="0.35055">
        <ele>99</ele>
        <time>2019-02-03T08:58:14.000Z</time>
      </trkpt>
      <trkpt lat="46.82921" lon="0.35055">
        <ele>99</ele>
        <time>2019-02-03T08:58:15.000Z</time>
      </trkpt>
      <trkpt lat="46.82921" lon="0.35054">
        <ele>99</ele>
        <time>2019-02-03T08:58:16.000Z</time>
      </trkpt>
      <trkpt lat="46.82921" lon="0.35055">
        <ele>98</ele>
        <time>2019-02-03T08:58:17.000Z</time>
      </trkpt>
      <trkpt lat="46.82921" lon="0.35055">
        <ele>98</ele>
        <time>2019-02-03T08:58:18.000Z</time>
      </trkpt>
      <trkpt lat="46.82921" lon="0.35055">
        <ele>98</ele>
        <time>2019-02-03T08:58:19.000Z</time>
      </trkpt>
      <trkpt lat="46.8292" lon="0.35055">
        <ele>99</ele>
        <time>2019-02-03T08:58:20.000Z</time>
      </trkpt>
      <trkpt lat="46.8292" lon="0.35054">
        <ele>100</ele>
        <time>2019-02-03T08:58:21.000Z</time>
      </trkpt>
      <trkpt lat="46.8292" lon="0.35054">
        <ele>100</ele>
        <time>2019-02-03T08:58:22.000Z</time>
      </trkpt>
      <trkpt lat="46.82921" lon="0.35054">
        <ele>100</ele>
        <time>2019-02-03T08:58:23.000Z</time>
      </trkpt>
      <trkpt lat="46.82921" lon="0.35054">
        <ele>101</ele>
        <time>2019-02-03T08:58:24.000Z</time>
      </trkpt>
      <trkpt lat="46.82921" lon="0.35054">
        <ele>102</ele>
        <time>2019-02-03T08:58:25.000Z</time>
      </trkpt>
      <trkpt lat="46.82921" lon="0.35053">
        <ele>102</ele>
        <time>2019-02-03T08:58:26.000Z</time>
      </trkpt>
      <trkpt lat="46.82921" lon="0.35053">
        <ele>102</ele>
        <time>2019-02-03T08:58:27.000Z</time>
      </trkpt>
      <trkpt lat="46.82921" lon="0.35053">
        <ele>103</ele>
        <time>2019-02-03T08:58:28.000Z</time>
      </trkpt>
      <trkpt lat="46.8292" lon="0.35053">
        <ele>103</ele>
        <time>2019-02-03T08:58:29.000Z</time>
      </trkpt>
      <trkpt lat="46.8292" lon="0.35052">
        <ele>103</ele>
        <time>2019-02-03T08:58:30.000Z</time>
      </trkpt>
      <trkpt lat="46.8292" lon="0.35052">
        <ele>103</ele>
        <time>2019-02-03T08:58:31.000Z</time>
      </trkpt>
      <trkpt lat="46.8292" lon="0.35052">
        <ele>104</ele>
        <time>2019-02-03T08:58:32.000Z</time>
      </trkpt>
      <trkpt lat="46.8292" lon="0.35052">
        <ele>105</ele>
        <time>2019-02-03T08:58:33.000Z</time>
      </trkpt>
      <trkpt lat="46.8292" lon="0.35052">
        <ele>105</ele>
        <time>2019-02-03T08:58:34.000Z</time>
      </trkpt>
      <trkpt lat="46.8292" lon="0.35052">
        <ele>106</ele>
        <time>2019-02-03T08:58:35.000Z</time>
      </trkpt>
      <trkpt lat="46.8292" lon="0.35052">
        <ele>106</ele>
        <time>2019-02-03T08:58:36.000Z</time>
      </trkpt>
      <trkpt lat="46.8292" lon="0.35052">
        <ele>106</ele>
        <time>2019-02-03T08:58:37.000Z</time>
      </trkpt>
      <trkpt lat="46.8292" lon="0.35052">
        <ele>106</ele>
        <time>2019-02-03T08:58:38.000Z</time>
      </trkpt>
      <trkpt lat="46.82919" lon="0.35052">
        <ele>106</ele>
        <time>2019-02-03T08:58:39.000Z</time>
      </trkpt>
      <trkpt lat="46.82919" lon="0.35052">
        <ele>107</ele>
        <time>2019-02-03T08:58:40.000Z</time>
      </trkpt>
      <trkpt lat="46.82919" lon="0.35052">
        <ele>107</ele>
        <time>2019-02-03T08:58:41.000Z</time>
      </trkpt>
      <trkpt lat="46.82919" lon="0.35052">
        <ele>107</ele>
        <time>2019-02-03T08:58:42.000Z</time>
      </trkpt>
      <trkpt lat="46.82919" lon="0.35052">
        <ele>106</ele>
        <time>2019-02-03T08:58:43.000Z</time>
      </trkpt>
      <trkpt lat="46.82919" lon="0.35052">
        <ele>106</ele>
        <time>2019-02-03T08:58:44.000Z</time>
      </trkpt>
      <trkpt lat="46.82919" lon="0.35052">
        <ele>106</ele>
        <time>2019-02-03T08:58:45.000Z</time>
      </trkpt>
      <trkpt lat="46.82919" lon="0.35052">
        <ele>106</ele>
        <time>2019-02-03T08:58:46.000Z</time>
      </trkpt>
      <trkpt lat="46.82918" lon="0.35052">
        <ele>106</ele>
        <time>2019-02-03T08:58:47.000Z</time>
      </trkpt>
      <trkpt lat="46.82918" lon="0.35051">
        <ele>106</ele>
        <time>2019-02-03T08:58:48.000Z</time>
      </trkpt>
      <trkpt lat="46.82917" lon="0.3505">
        <ele>105</ele>
        <time>2019-02-03T08:58:49.000Z</time>
      </trkpt>
      <trkpt lat="46.82916" lon="0.35049">
        <ele>104</ele>
        <time>2019-02-03T08:58:50.000Z</time>
      </trkpt>
      <trkpt lat="46.82914" lon="0.35049">
        <ele>104</ele>
        <time>2019-02-03T08:58:51.000Z</time>
      </trkpt>
      <trkpt lat="46.82912" lon="0.35048">
        <ele>104</ele>
        <time>2019-02-03T08:58:52.000Z</time>
      </trkpt>
      <trkpt lat="46.8291" lon="0.35047">
        <ele>104</ele>
        <time>2019-02-03T08:58:53.000Z</time>
      </trkpt>
      <trkpt lat="46.82908" lon="0.35047">
        <ele>103</ele>
        <time>2019-02-03T08:58:54.000Z</time>
      </trkpt>
      <trkpt lat="46.82906" lon="0.35046">
        <ele>103</ele>
        <time>2019-02-03T08:58:55.000Z</time>
      </trkpt>
      <trkpt lat="46.82903" lon="0.35046">
        <ele>101</ele>
        <time>2019-02-03T08:58:56.000Z</time>
      </trkpt>
      <trkpt lat="46.82901" lon="0.35045">
        <ele>100</ele>
        <time>2019-02-03T08:58:57.000Z</time>
      </trkpt>
      <trkpt lat="46.82898" lon="0.35044">
        <ele>97</ele>
        <time>2019-02-03T08:58:58.000Z</time>
      </trkpt>
      <trkpt lat="46.82896" lon="0.35043">
        <ele>96</ele>
        <time>2019-02-03T08:58:59.000Z</time>
      </trkpt>
      <trkpt lat="46.82893" lon="0.3504">
        <ele>96</ele>
        <time>2019-02-03T08:59:00.000Z</time>
      </trkpt>
      <trkpt lat="46.82891" lon="0.35038">
        <ele>96</ele>
        <time>2019-02-03T08:59:01.000Z</time>
      </trkpt>
      <trkpt lat="46.8289" lon="0.35036">
        <ele>94</ele>
        <time>2019-02-03T08:59:02.000Z</time>
      </trkpt>
      <trkpt lat="46.82888" lon="0.35034">
        <ele>94</ele>
        <time>2019-02-03T08:59:03.000Z</time>
      </trkpt>
      <trkpt lat="46.82887" lon="0.35032">
        <ele>93</ele>
        <time>2019-02-03T08:59:04.000Z</time>
      </trkpt>
      <trkpt lat="46.82884" lon="0.3503">
        <ele>92</ele>
        <time>2019-02-03T08:59:05.000Z</time>
      </trkpt>
      <trkpt lat="46.82882" lon="0.35029">
        <ele>91</ele>
        <time>2019-02-03T08:59:06.000Z</time>
      </trkpt>
      <trkpt lat="46.82879" lon="0.35028">
        <ele>91</ele>
        <time>2019-02-03T08:59:07.000Z</time>
      </trkpt>
      <trkpt lat="46.82876" lon="0.35027">
        <ele>90</ele>
        <time>2019-02-03T08:59:08.000Z</time>
      </trkpt>
      <trkpt lat="46.82874" lon="0.35027">
        <ele>87</ele>
        <time>2019-02-03T08:59:09.000Z</time>
      </trkpt>
      <trkpt lat="46.8287" lon="0.35026">
        <ele>86</ele>
        <time>2019-02-03T08:59:10.000Z</time>
      </trkpt>
      <trkpt lat="46.82868" lon="0.35024">
        <ele>85</ele>
        <time>2019-02-03T08:59:11.000Z</time>
      </trkpt>
      <trkpt lat="46.82866" lon="0.35021">
        <ele>85</ele>
        <time>2019-02-03T08:59:12.000Z</time>
      </trkpt>
      <trkpt lat="46.82864" lon="0.35018">
        <ele>85</ele>
        <time>2019-02-03T08:59:13.000Z</time>
      </trkpt>
      <trkpt lat="46.82863" lon="0.35015">
        <ele>86</ele>
        <time>2019-02-03T08:59:14.000Z</time>
      </trkpt>
      <trkpt lat="46.82862" lon="0.35012">
        <ele>85</ele>
        <time>2019-02-03T08:59:15.000Z</time>
      </trkpt>
      <trkpt lat="46.8286" lon="0.3501">
        <ele>85</ele>
        <time>2019-02-03T08:59:16.000Z</time>
      </trkpt>
      <trkpt lat="46.82859" lon="0.35008">
        <ele>84</ele>
        <time>2019-02-03T08:59:17.000Z</time>
      </trkpt>
      <trkpt lat="46.82857" lon="0.35007">
        <ele>84</ele>
        <time>2019-02-03T08:59:18.000Z</time>
      </trkpt>
      <trkpt lat="46.82856" lon="0.35006">
        <ele>85</ele>
        <time>2019-02-03T08:59:19.000Z</time>
      </trkpt>
      <trkpt lat="46.82855" lon="0.35006">
        <ele>85</ele>
        <time>2019-02-03T08:59:20.000Z</time>
      </trkpt>
      <trkpt lat="46.82854" lon="0.35006">
        <ele>84</ele>
        <time>2019-02-03T08:59:21.000Z</time>
      </trkpt>
      <trkpt lat="46.82854" lon="0.35006">
        <ele>85</ele>
        <time>2019-02-03T08:59:22.000Z</time>
      </trkpt>
      <trkpt lat="46.82853" lon="0.35005">
        <ele>85</ele>
        <time>2019-02-03T08:59:23.000Z</time>
      </trkpt>
      <trkpt lat="46.82853" lon="0.35005">
        <ele>85</ele>
        <time>2019-02-03T08:59:24.000Z</time>
      </trkpt>
      <trkpt lat="46.82853" lon="0.35005">
        <ele>85</ele>
        <time>2019-02-03T08:59:25.000Z</time>
      </trkpt>
      <trkpt lat="46.82853" lon="0.35005">
        <ele>86</ele>
        <time>2019-02-03T08:59:26.000Z</time>
      </trkpt>
      <trkpt lat="46.82853" lon="0.35004">
        <ele>87</ele>
        <time>2019-02-03T08:59:27.000Z</time>
      </trkpt>
      <trkpt lat="46.82853" lon="0.35004">
        <ele>87</ele>
        <time>2019-02-03T08:59:28.000Z</time>
      </trkpt>
      <trkpt lat="46.82852" lon="0.35004">
        <ele>88</ele>
        <time>2019-02-03T08:59:29.000Z</time>
      </trkpt>
      <trkpt lat="46.82852" lon="0.35004">
        <ele>88</ele>
        <time>2019-02-03T08:59:30.000Z</time>
      </trkpt>
      <trkpt lat="46.82851" lon="0.35005">
        <ele>88</ele>
        <time>2019-02-03T08:59:31.000Z</time>
      </trkpt>
      <trkpt lat="46.82851" lon="0.35005">
        <ele>89</ele>
        <time>2019-02-03T08:59:32.000Z</time>
      </trkpt>
      <trkpt lat="46.82851" lon="0.35005">
        <ele>90</ele>
        <time>2019-02-03T08:59:33.000Z</time>
      </trkpt>
      <trkpt lat="46.8285" lon="0.35005">
        <ele>91</ele>
        <time>2019-02-03T08:59:34.000Z</time>
      </trkpt>
      <trkpt lat="46.82849" lon="0.35004">
        <ele>91</ele>
        <time>2019-02-03T08:59:35.000Z</time>
      </trkpt>
      <trkpt lat="46.82849" lon="0.35002">
        <ele>93</ele>
        <time>2019-02-03T08:59:36.000Z</time>
      </trkpt>
      <trkpt lat="46.82848" lon="0.35">
        <ele>91</ele>
        <time>2019-02-03T08:59:37.000Z</time>
      </trkpt>
      <trkpt lat="46.82848" lon="0.34997">
        <ele>91</ele>
        <time>2019-02-03T08:59:38.000Z</time>
      </trkpt>
      <trkpt lat="46.82847" lon="0.34994">
        <ele>90</ele>
        <time>2019-02-03T08:59:39.000Z</time>
      </trkpt>
      <trkpt lat="46.82845" lon="0.34991">
        <ele>91</ele>
        <time>2019-02-03T08:59:40.000Z</time>
      </trkpt>
      <trkpt lat="46.82844" lon="0.34989">
        <ele>92</ele>
        <time>2019-02-03T08:59:41.000Z</time>
      </trkpt>
      <trkpt lat="46.82843" lon="0.34987">
        <ele>92</ele>
        <time>2019-02-03T08:59:42.000Z</time>
      </trkpt>
      <trkpt lat="46.82841" lon="0.34986">
        <ele>92</ele>
        <time>2019-02-03T08:59:43.000Z</time>
      </trkpt>
      <trkpt lat="46.82841" lon="0.34986">
        <ele>92</ele>
        <time>2019-02-03T08:59:44.000Z</time>
      </trkpt>
      <trkpt lat="46.8284" lon="0.34982">
        <ele>92</ele>
        <time>2019-02-03T08:59:45.000Z</time>
      </trkpt>
      <trkpt lat="46.82839" lon="0.3498">
        <ele>91</ele>
        <time>2019-02-03T08:59:46.000Z</time>
      </trkpt>
      <trkpt lat="46.82838" lon="0.34978">
        <ele>90</ele>
        <time>2019-02-03T08:59:47.000Z</time>
      </trkpt>
      <trkpt lat="46.82837" lon="0.34977">
        <ele>91</ele>
        <time>2019-02-03T08:59:48.000Z</time>
      </trkpt>
      <trkpt lat="46.82835" lon="0.34975">
        <ele>91</ele>
        <time>2019-02-03T08:59:49.000Z</time>
      </trkpt>
      <trkpt lat="46.82834" lon="0.34972">
        <ele>91</ele>
        <time>2019-02-03T08:59:50.000Z</time>
      </trkpt>
      <trkpt lat="46.82833" lon="0.34969">
        <ele>91</ele>
        <time>2019-02-03T08:59:51.000Z</time>
      </trkpt>
      <trkpt lat="46.82831" lon="0.34966">
        <ele>91</ele>
        <time>2019-02-03T08:59:52.000Z</time>
      </trkpt>
      <trkpt lat="46.8283" lon="0.34964">
        <ele>91</ele>
        <time>2019-02-03T08:59:53.000Z</time>
      </trkpt>
      <trkpt lat="46.82828" lon="0.34961">
        <ele>91</ele>
        <time>2019-02-03T08:59:54.000Z</time>
      </trkpt>
      <trkpt lat="46.82826" lon="0.34958">
        <ele>91</ele>
        <time>2019-02-03T08:59:55.000Z</time>
      </trkpt>
      <trkpt lat="46.82825" lon="0.34955">
        <ele>91</ele>
        <time>2019-02-03T08:59:56.000Z</time>
      </trkpt>
      <trkpt lat="46.82823" lon="0.34953">
        <ele>91</ele>
        <time>2019-02-03T08:59:57.000Z</time>
      </trkpt>
      <trkpt lat="46.82822" lon="0.34951">
        <ele>91</ele>
        <time>2019-02-03T08:59:58.000Z</time>
      </trkpt>
      <trkpt lat="46.82821" lon="0.3495">
        <ele>91</ele>
        <time>2019-02-03T08:59:59.000Z</time>
      </trkpt>
      <trkpt lat="46.82821" lon="0.3495">
        <ele>92</ele>
        <time>2019-02-03T09:00:00.000Z</time>
      </trkpt>
      <trkpt lat="46.8282" lon="0.34951">
        <ele>91</ele>
        <time>2019-02-03T09:00:01.000Z</time>
      </trkpt>
      <trkpt lat="46.82819" lon="0.34952">
        <ele>92</ele>
        <time>2019-02-03T09:00:02.000Z</time>
      </trkpt>
      <trkpt lat="46.82818" lon="0.34952">
        <ele>91</ele>
        <time>2019-02-03T09:00:03.000Z</time>
      </trkpt>
      <trkpt lat="46.82817" lon="0.34953">
        <ele>93</ele>
        <time>2019-02-03T09:00:04.000Z</time>
      </trkpt>
      <trkpt lat="46.82815" lon="0.34954">
        <ele>93</ele>
        <time>2019-02-03T09:00:05.000Z</time>
      </trkpt>
      <trkpt lat="46.82814" lon="0.34956">
        <ele>94</ele>
        <time>2019-02-03T09:00:06.000Z</time>
      </trkpt>
      <trkpt lat="46.82813" lon="0.34957">
        <ele>95</ele>
        <time>2019-02-03T09:00:07.000Z</time>
      </trkpt>
      <trkpt lat="46.82812" lon="0.34958">
        <ele>94</ele>
        <time>2019-02-03T09:00:08.000Z</time>
      </trkpt>
      <trkpt lat="46.8281" lon="0.3496">
        <ele>93</ele>
        <time>2019-02-03T09:00:09.000Z</time>
      </trkpt>
      <trkpt lat="46.82808" lon="0.34963">
        <ele>92</ele>
        <time>2019-02-03T09:00:10.000Z</time>
      </trkpt>
      <trkpt lat="46.82805" lon="0.34965">
        <ele>92</ele>
        <time>2019-02-03T09:00:11.000Z</time>
      </trkpt>
      <trkpt lat="46.82803" lon="0.34967">
        <ele>92</ele>
        <time>2019-02-03T09:00:12.000Z</time>
      </trkpt>
      <trkpt lat="46.82802" lon="0.34969">
        <ele>92</ele>
        <time>2019-02-03T09:00:13.000Z</time>
      </trkpt>
      <trkpt lat="46.828" lon="0.34971">
        <ele>92</ele>
        <time>2019-02-03T09:00:14.000Z</time>
      </trkpt>
      <trkpt lat="46.82799" lon="0.34973">
        <ele>92</ele>
        <time>2019-02-03T09:00:15.000Z</time>
      </trkpt>
      <trkpt lat="46.82797" lon="0.34975">
        <ele>92</ele>
        <time>2019-02-03T09:00:16.000Z</time>
      </trkpt>
      <trkpt lat="46.82795" lon="0.34975">
        <ele>91</ele>
        <time>2019-02-03T09:00:17.000Z</time>
      </trkpt>
      <trkpt lat="46.82793" lon="0.34976">
        <ele>91</ele>
        <time>2019-02-03T09:00:18.000Z</time>
      </trkpt>
      <trkpt lat="46.82791" lon="0.34977">
        <ele>92</ele>
        <time>2019-02-03T09:00:19.000Z</time>
      </trkpt>
      <trkpt lat="46.82789" lon="0.34979">
        <ele>91</ele>
        <time>2019-02-03T09:00:20.000Z</time>
      </trkpt>
      <trkpt lat="46.82787" lon="0.3498">
        <ele>90</ele>
        <time>2019-02-03T09:00:21.000Z</time>
      </trkpt>
      <trkpt lat="46.82785" lon="0.3498">
        <ele>90</ele>
        <time>2019-02-03T09:00:22.000Z</time>
      </trkpt>
      <trkpt lat="46.82782" lon="0.3498">
        <ele>91</ele>
        <time>2019-02-03T09:00:23.000Z</time>
      </trkpt>
      <trkpt lat="46.8278" lon="0.34981">
        <ele>90</ele>
        <time>2019-02-03T09:00:24.000Z</time>
      </trkpt>
      <trkpt lat="46.82778" lon="0.34981">
        <ele>91</ele>
        <time>2019-02-03T09:00:25.000Z</time>
      </trkpt>
      <trkpt lat="46.82776" lon="0.34983">
        <ele>91</ele>
        <time>2019-02-03T09:00:26.000Z</time>
      </trkpt>
      <trkpt lat="46.82774" lon="0.34985">
        <ele>91</ele>
        <time>2019-02-03T09:00:27.000Z</time>
      </trkpt>
      <trkpt lat="46.82773" lon="0.34988">
        <ele>92</ele>
        <time>2019-02-03T09:00:28.000Z</time>
      </trkpt>
      <trkpt lat="46.82771" lon="0.34989">
        <ele>92</ele>
        <time>2019-02-03T09:00:29.000Z</time>
      </trkpt>
      <trkpt lat="46.82769" lon="0.3499">
        <ele>92</ele>
        <time>2019-02-03T09:00:30.000Z</time>
      </trkpt>
      <trkpt lat="46.82768" lon="0.3499">
        <ele>94</ele>
        <time>2019-02-03T09:00:31.000Z</time>
      </trkpt>
      <trkpt lat="46.82766" lon="0.34989">
        <ele>94</ele>
        <time>2019-02-03T09:00:32.000Z</time>
      </trkpt>
      <trkpt lat="46.82764" lon="0.34988">
        <ele>95</ele>
        <time>2019-02-03T09:00:33.000Z</time>
      </trkpt>
      <trkpt lat="46.82763" lon="0.34988">
        <ele>96</ele>
        <time>2019-02-03T09:00:34.000Z</time>
      </trkpt>
      <trkpt lat="46.82762" lon="0.34989">
        <ele>96</ele>
        <time>2019-02-03T09:00:35.000Z</time>
      </trkpt>
      <trkpt lat="46.8276" lon="0.34991">
        <ele>95</ele>
        <time>2019-02-03T09:00:36.000Z</time>
      </trkpt>
      <trkpt lat="46.82759" lon="0.34994">
        <ele>95</ele>
        <time>2019-02-03T09:00:37.000Z</time>
      </trkpt>
      <trkpt lat="46.82757" lon="0.34997">
        <ele>96</ele>
        <time>2019-02-03T09:00:38.000Z</time>
      </trkpt>
      <trkpt lat="46.82756" lon="0.35">
        <ele>96</ele>
        <time>2019-02-03T09:00:39.000Z</time>
      </trkpt>
      <trkpt lat="46.82754" lon="0.35004">
        <ele>98</ele>
        <time>2019-02-03T09:00:40.000Z</time>
      </trkpt>
      <trkpt lat="46.82753" lon="0.35006">
        <ele>98</ele>
        <time>2019-02-03T09:00:41.000Z</time>
      </trkpt>
      <trkpt lat="46.82751" lon="0.35009">
        <ele>99</ele>
        <time>2019-02-03T09:00:42.000Z</time>
      </trkpt>
      <trkpt lat="46.8275" lon="0.35011">
        <ele>99</ele>
        <time>2019-02-03T09:00:43.000Z</time>
      </trkpt>
      <trkpt lat="46.82748" lon="0.35012">
        <ele>99</ele>
        <time>2019-02-03T09:00:44.000Z</time>
      </trkpt>
      <trkpt lat="46.82746" lon="0.35013">
        <ele>98</ele>
        <time>2019-02-03T09:00:45.000Z</time>
      </trkpt>
      <trkpt lat="46.82744" lon="0.35014">
        <ele>98</ele>
        <time>2019-02-03T09:00:46.000Z</time>
      </trkpt>
      <trkpt lat="46.82741" lon="0.35014">
        <ele>98</ele>
        <time>2019-02-03T09:00:47.000Z</time>
      </trkpt>
      <trkpt lat="46.82739" lon="0.35015">
        <ele>98</ele>
        <time>2019-02-03T09:00:48.000Z</time>
      </trkpt>
      <trkpt lat="46.82738" lon="0.35016">
        <ele>98</ele>
        <time>2019-02-03T09:00:49.000Z</time>
      </trkpt>
      <trkpt lat="46.82736" lon="0.35017">
        <ele>98</ele>
        <time>2019-02-03T09:00:50.000Z</time>
      </trkpt>
      <trkpt lat="46.82735" lon="0.35017">
        <ele>98</ele>
        <time>2019-02-03T09:00:51.000Z</time>
      </trkpt>
      <trkpt lat="46.82734" lon="0.35017">
        <ele>98</ele>
        <time>2019-02-03T09:00:52.000Z</time>
      </trkpt>
      <trkpt lat="46.82733" lon="0.35017">
        <ele>98</ele>
        <time>2019-02-03T09:00:53.000Z</time>
      </trkpt>
      <trkpt lat="46.82732" lon="0.35017">
        <ele>98</ele>
        <time>2019-02-03T09:00:54.000Z</time>
      </trkpt>
      <trkpt lat="46.82732" lon="0.35017">
        <ele>99</ele>
        <time>2019-02-03T09:00:55.000Z</time>
      </trkpt>
      <trkpt lat="46.82732" lon="0.35017">
        <ele>99</ele>
        <time>2019-02-03T09:00:56.000Z</time>
      </trkpt>
      <trkpt lat="46.82732" lon="0.35017">
        <ele>99</ele>
        <time>2019-02-03T09:00:57.000Z</time>
      </trkpt>
      <trkpt lat="46.82732" lon="0.35017">
        <ele>99</ele>
        <time>2019-02-03T09:00:58.000Z</time>
      </trkpt>
      <trkpt lat="46.82732" lon="0.35017">
        <ele>99</ele>
        <time>2019-02-03T09:00:59.000Z</time>
      </trkpt>
      <trkpt lat="46.82732" lon="0.35017">
        <ele>99</ele>
        <time>2019-02-03T09:01:00.000Z</time>
      </trkpt>
      <trkpt lat="46.82732" lon="0.35017">
        <ele>99</ele>
        <time>2019-02-03T09:01:01.000Z</time>
      </trkpt>
      <trkpt lat="46.82732" lon="0.35017">
        <ele>99</ele>
        <time>2019-02-03T09:01:02.000Z</time>
      </trkpt>
      <trkpt lat="46.82732" lon="0.35017">
        <ele>99</ele>
        <time>2019-02-03T09:01:03.000Z</time>
      </trkpt>
      <trkpt lat="46.82732" lon="0.35017">
        <ele>99</ele>
        <time>2019-02-03T09:01:04.000Z</time>
      </trkpt>
      <trkpt lat="46.82732" lon="0.35017">
        <ele>99</ele>
        <time>2019-02-03T09:01:05.000Z</time>
      </trkpt>
      <trkpt lat="46.82732" lon="0.35017">
        <ele>99</ele>
        <time>2019-02-03T09:01:06.000Z</time>
      </trkpt>
      <trkpt lat="46.82732" lon="0.35017">
        <ele>100</ele>
        <time>2019-02-03T09:01:07.000Z</time>
      </trkpt>
      <trkpt lat="46.82731" lon="0.35017">
        <ele>100</ele>
        <time>2019-02-03T09:01:08.000Z</time>
      </trkpt>
      <trkpt lat="46.82731" lon="0.35017">
        <ele>100</ele>
        <time>2019-02-03T09:01:09.000Z</time>
      </trkpt>
      <trkpt lat="46.82731" lon="0.35017">
        <ele>100</ele>
        <time>2019-02-03T09:01:10.000Z</time>
      </trkpt>
      <trkpt lat="46.82731" lon="0.35017">
        <ele>101</ele>
        <time>2019-02-03T09:01:11.000Z</time>
      </trkpt>
      <trkpt lat="46.82731" lon="0.35017">
        <ele>101</ele>
        <time>2019-02-03T09:01:12.000Z</time>
      </trkpt>
      <trkpt lat="46.82731" lon="0.35018">
        <ele>101</ele>
        <time>2019-02-03T09:01:13.000Z</time>
      </trkpt>
      <trkpt lat="46.82731" lon="0.35018">
        <ele>101</ele>
        <time>2019-02-03T09:01:14.000Z</time>
      </trkpt>
      <trkpt lat="46.82731" lon="0.35018">
        <ele>101</ele>
        <time>2019-02-03T09:01:15.000Z</time>
      </trkpt>
      <trkpt lat="46.82731" lon="0.35018">
        <ele>101</ele>
        <time>2019-02-03T09:01:16.000Z</time>
      </trkpt>
      <trkpt lat="46.82731" lon="0.35019">
        <ele>101</ele>
        <time>2019-02-03T09:01:17.000Z</time>
      </trkpt>
      <trkpt lat="46.82731" lon="0.35019">
        <ele>101</ele>
        <time>2019-02-03T09:01:18.000Z</time>
      </trkpt>
      <trkpt lat="46.82731" lon="0.35019">
        <ele>101</ele>
        <time>2019-02-03T09:01:19.000Z</time>
      </trkpt>
      <trkpt lat="46.82731" lon="0.35018">
        <ele>101</ele>
        <time>2019-02-03T09:01:20.000Z</time>
      </trkpt>
      <trkpt lat="46.82731" lon="0.35018">
        <ele>100</ele>
        <time>2019-02-03T09:01:21.000Z</time>
      </trkpt>
      <trkpt lat="46.82731" lon="0.35018">
        <ele>100</ele>
        <time>2019-02-03T09:01:22.000Z</time>
      </trkpt>
      <trkpt lat="46.82731" lon="0.35018">
        <ele>100</ele>
        <time>2019-02-03T09:01:23.000Z</time>
      </trkpt>
      <trkpt lat="46.82731" lon="0.35018">
        <ele>100</ele>
        <time>2019-02-03T09:01:24.000Z</time>
      </trkpt>
      <trkpt lat="46.82731" lon="0.35018">
        <ele>100</ele>
        <time>2019-02-03T09:01:25.000Z</time>
      </trkpt>
      <trkpt lat="46.82731" lon="0.35018">
        <ele>100</ele>
        <time>2019-02-03T09:01:26.000Z</time>
      </trkpt>
      <trkpt lat="46.82731" lon="0.35019">
        <ele>100</ele>
        <time>2019-02-03T09:01:27.000Z</time>
      </trkpt>
      <trkpt lat="46.82731" lon="0.35019">
        <ele>100</ele>
        <time>2019-02-03T09:01:28.000Z</time>
      </trkpt>
      <trkpt lat="46.82731" lon="0.35018">
        <ele>101</ele>
        <time>2019-02-03T09:01:29.000Z</time>
      </trkpt>
      <trkpt lat="46.82731" lon="0.35018">
        <ele>101</ele>
        <time>2019-02-03T09:01:30.000Z</time>
      </trkpt>
      <trkpt lat="46.82731" lon="0.35018">
        <ele>101</ele>
        <time>2019-02-03T09:01:31.000Z</time>
      </trkpt>
      <trkpt lat="46.82731" lon="0.35018">
        <ele>101</ele>
        <time>2019-02-03T09:01:32.000Z</time>
      </trkpt>
      <trkpt lat="46.82731" lon="0.35018">
        <ele>101</ele>
        <time>2019-02-03T09:01:33.000Z</time>
      </trkpt>
      <trkpt lat="46.8273" lon="0.35019">
        <ele>100</ele>
        <time>2019-02-03T09:01:34.000Z</time>
      </trkpt>
      <trkpt lat="46.8273" lon="0.35019">
        <ele>100</ele>
        <time>2019-02-03T09:01:35.000Z</time>
      </trkpt>
      <trkpt lat="46.8273" lon="0.35019">
        <ele>101</ele>
        <time>2019-02-03T09:01:36.000Z</time>
      </trkpt>
      <trkpt lat="46.8273" lon="0.35019">
        <ele>100</ele>
        <time>2019-02-03T09:01:37.000Z</time>
      </trkpt>
      <trkpt lat="46.8273" lon="0.35019">
        <ele>100</ele>
        <time>2019-02-03T09:01:38.000Z</time>
      </trkpt>
      <trkpt lat="46.8273" lon="0.35019">
        <ele>100</ele>
        <time>2019-02-03T09:01:39.000Z</time>
      </trkpt>
      <trkpt lat="46.82729" lon="0.35019">
        <ele>100</ele>
        <time>2019-02-03T09:01:40.000Z</time>
      </trkpt>
      <trkpt lat="46.82727" lon="0.35019">
        <ele>100</ele>
        <time>2019-02-03T09:01:41.000Z</time>
      </trkpt>
      <trkpt lat="46.82726" lon="0.35019">
        <ele>100</ele>
        <time>2019-02-03T09:01:42.000Z</time>
      </trkpt>
      <trkpt lat="46.82724" lon="0.35019">
        <ele>101</ele>
        <time>2019-02-03T09:01:43.000Z</time>
      </trkpt>
      <trkpt lat="46.82722" lon="0.3502">
        <ele>101</ele>
        <time>2019-02-03T09:01:44.000Z</time>
      </trkpt>
      <trkpt lat="46.8272" lon="0.3502">
        <ele>101</ele>
        <time>2019-02-03T09:01:45.000Z</time>
      </trkpt>
      <trkpt lat="46.82718" lon="0.3502">
        <ele>101</ele>
        <time>2019-02-03T09:01:46.000Z</time>
      </trkpt>
      <trkpt lat="46.82715" lon="0.3502">
        <ele>101</ele>
        <time>2019-02-03T09:01:47.000Z</time>
      </trkpt>
      <trkpt lat="46.82713" lon="0.3502">
        <ele>100</ele>
        <time>2019-02-03T09:01:48.000Z</time>
      </trkpt>
      <trkpt lat="46.8271" lon="0.35021">
        <ele>100</ele>
        <time>2019-02-03T09:01:49.000Z</time>
      </trkpt>
      <trkpt lat="46.82707" lon="0.35021">
        <ele>99</ele>
        <time>2019-02-03T09:01:50.000Z</time>
      </trkpt>
      <trkpt lat="46.82704" lon="0.35021">
        <ele>99</ele>
        <time>2019-02-03T09:01:51.000Z</time>
      </trkpt>
      <trkpt lat="46.82701" lon="0.35021">
        <ele>99</ele>
        <time>2019-02-03T09:01:52.000Z</time>
      </trkpt>
      <trkpt lat="46.82697" lon="0.35021">
        <ele>98</ele>
        <time>2019-02-03T09:01:53.000Z</time>
      </trkpt>
      <trkpt lat="46.82694" lon="0.35021">
        <ele>98</ele>
        <time>2019-02-03T09:01:54.000Z</time>
      </trkpt>
      <trkpt lat="46.82691" lon="0.35022">
        <ele>98</ele>
        <time>2019-02-03T09:01:55.000Z</time>
      </trkpt>
      <trkpt lat="46.82687" lon="0.35022">
        <ele>97</ele>
        <time>2019-02-03T09:01:56.000Z</time>
      </trkpt>
      <trkpt lat="46.82683" lon="0.35023">
        <ele>98</ele>
        <time>2019-02-03T09:01:57.000Z</time>
      </trkpt>
      <trkpt lat="46.8268" lon="0.35024">
        <ele>97</ele>
        <time>2019-02-03T09:01:58.000Z</time>
      </trkpt>
      <trkpt lat="46.82676" lon="0.35024">
        <ele>97</ele>
        <time>2019-02-03T09:01:59.000Z</time>
      </trkpt>
      <trkpt lat="46.82672" lon="0.35025">
        <ele>97</ele>
        <time>2019-02-03T09:02:00.000Z</time>
      </trkpt>
      <trkpt lat="46.82668" lon="0.35026">
        <ele>97</ele>
        <time>2019-02-03T09:02:01.000Z</time>
      </trkpt>
      <trkpt lat="46.82664" lon="0.35027">
        <ele>96</ele>
        <time>2019-02-03T09:02:02.000Z</time>
      </trkpt>
      <trkpt lat="46.8266" lon="0.35027">
        <ele>96</ele>
        <time>2019-02-03T09:02:03.000Z</time>
      </trkpt>
      <trkpt lat="46.82656" lon="0.35028">
        <ele>96</ele>
        <time>2019-02-03T09:02:04.000Z</time>
      </trkpt>
      <trkpt lat="46.82652" lon="0.35029">
        <ele>96</ele>
        <time>2019-02-03T09:02:05.000Z</time>
      </trkpt>
      <trkpt lat="46.82648" lon="0.35029">
        <ele>96</ele>
        <time>2019-02-03T09:02:06.000Z</time>
      </trkpt>
      <trkpt lat="46.82644" lon="0.3503">
        <ele>96</ele>
        <time>2019-02-03T09:02:07.000Z</time>
      </trkpt>
      <trkpt lat="46.8264" lon="0.35031">
        <ele>95</ele>
        <time>2019-02-03T09:02:08.000Z</time>
      </trkpt>
      <trkpt lat="46.82636" lon="0.35031">
        <ele>95</ele>
        <time>2019-02-03T09:02:09.000Z</time>
      </trkpt>
      <trkpt lat="46.82631" lon="0.35032">
        <ele>95</ele>
        <time>2019-02-03T09:02:10.000Z</time>
      </trkpt>
      <trkpt lat="46.82627" lon="0.35033">
        <ele>95</ele>
        <time>2019-02-03T09:02:11.000Z</time>
      </trkpt>
      <trkpt lat="46.82622" lon="0.35034">
        <ele>94</ele>
        <time>2019-02-03T09:02:12.000Z</time>
      </trkpt>
      <trkpt lat="46.82618" lon="0.35035">
        <ele>94</ele>
        <time>2019-02-03T09:02:13.000Z</time>
      </trkpt>
      <trkpt lat="46.82613" lon="0.35036">
        <ele>94</ele>
        <time>2019-02-03T09:02:14.000Z</time>
      </trkpt>
      <trkpt lat="46.82608" lon="0.35037">
        <ele>94</ele>
        <time>2019-02-03T09:02:15.000Z</time>
      </trkpt>
      <trkpt lat="46.82603" lon="0.35037">
        <ele>94</ele>
        <time>2019-02-03T09:02:16.000Z</time>
      </trkpt>
      <trkpt lat="46.82599" lon="0.35038">
        <ele>94</ele>
        <time>2019-02-03T09:02:17.000Z</time>
      </trkpt>
      <trkpt lat="46.82594" lon="0.35039">
        <ele>94</ele>
        <time>2019-02-03T09:02:18.000Z</time>
      </trkpt>
      <trkpt lat="46.8259" lon="0.3504">
        <ele>94</ele>
        <time>2019-02-03T09:02:19.000Z</time>
      </trkpt>
      <trkpt lat="46.82585" lon="0.3504">
        <ele>93</ele>
        <time>2019-02-03T09:02:20.000Z</time>
      </trkpt>
      <trkpt lat="46.82581" lon="0.35041">
        <ele>93</ele>
        <time>2019-02-03T09:02:21.000Z</time>
      </trkpt>
      <trkpt lat="46.82576" lon="0.35042">
        <ele>93</ele>
        <time>2019-02-03T09:02:22.000Z</time>
      </trkpt>
      <trkpt lat="46.82572" lon="0.35043">
        <ele>93</ele>
        <time>2019-02-03T09:02:23.000Z</time>
      </trkpt>
      <trkpt lat="46.82568" lon="0.35043">
        <ele>93</ele>
        <time>2019-02-03T09:02:24.000Z</time>
      </trkpt>
      <trkpt lat="46.82563" lon="0.35044">
        <ele>93</ele>
        <time>2019-02-03T09:02:25.000Z</time>
      </trkpt>
      <trkpt lat="46.82559" lon="0.35044">
        <ele>93</ele>
        <time>2019-02-03T09:02:26.000Z</time>
      </trkpt>
      <trkpt lat="46.82554" lon="0.35045">
        <ele>93</ele>
        <time>2019-02-03T09:02:27.000Z</time>
      </trkpt>
      <trkpt lat="46.8255" lon="0.35046">
        <ele>93</ele>
        <time>2019-02-03T09:02:28.000Z</time>
      </trkpt>
      <trkpt lat="46.82546" lon="0.35046">
        <ele>93</ele>
        <time>2019-02-03T09:02:29.000Z</time>
      </trkpt>
      <trkpt lat="46.82542" lon="0.35047">
        <ele>92</ele>
        <time>2019-02-03T09:02:30.000Z</time>
      </trkpt>
      <trkpt lat="46.82538" lon="0.35047">
        <ele>92</ele>
        <time>2019-02-03T09:02:31.000Z</time>
      </trkpt>
      <trkpt lat="46.82534" lon="0.35048">
        <ele>92</ele>
        <time>2019-02-03T09:02:32.000Z</time>
      </trkpt>
      <trkpt lat="46.8253" lon="0.35049">
        <ele>92</ele>
        <time>2019-02-03T09:02:33.000Z</time>
      </trkpt>
      <trkpt lat="46.82525" lon="0.3505">
        <ele>92</ele>
        <time>2019-02-03T09:02:34.000Z</time>
      </trkpt>
      <trkpt lat="46.82521" lon="0.35051">
        <ele>92</ele>
        <time>2019-02-03T09:02:35.000Z</time>
      </trkpt>
      <trkpt lat="46.82517" lon="0.35051">
        <ele>91</ele>
        <time>2019-02-03T09:02:36.000Z</time>
      </trkpt>
      <trkpt lat="46.82512" lon="0.35052">
        <ele>91</ele>
        <time>2019-02-03T09:02:37.000Z</time>
      </trkpt>
      <trkpt lat="46.82507" lon="0.35053">
        <ele>91</ele>
        <time>2019-02-03T09:02:38.000Z</time>
      </trkpt>
      <trkpt lat="46.82503" lon="0.35054">
        <ele>91</ele>
        <time>2019-02-03T09:02:39.000Z</time>
      </trkpt>
      <trkpt lat="46.82499" lon="0.35055">
        <ele>91</ele>
        <time>2019-02-03T09:02:40.000Z</time>
      </trkpt>
      <trkpt lat="46.82494" lon="0.35056">
        <ele>91</ele>
        <time>2019-02-03T09:02:41.000Z</time>
      </trkpt>
      <trkpt lat="46.8249" lon="0.35057">
        <ele>91</ele>
        <time>2019-02-03T09:02:42.000Z</time>
      </trkpt>
      <trkpt lat="46.82485" lon="0.35058">
        <ele>91</ele>
        <time>2019-02-03T09:02:43.000Z</time>
      </trkpt>
      <trkpt lat="46.82481" lon="0.35059">
        <ele>91</ele>
        <time>2019-02-03T09:02:44.000Z</time>
      </trkpt>
      <trkpt lat="46.82477" lon="0.3506">
        <ele>91</ele>
        <time>2019-02-03T09:02:45.000Z</time>
      </trkpt>
      <trkpt lat="46.82472" lon="0.35061">
        <ele>92</ele>
        <time>2019-02-03T09:02:46.000Z</time>
      </trkpt>
      <trkpt lat="46.82468" lon="0.35062">
        <ele>92</ele>
        <time>2019-02-03T09:02:47.000Z</time>
      </trkpt>
      <trkpt lat="46.82464" lon="0.35063">
        <ele>92</ele>
        <time>2019-02-03T09:02:48.000Z</time>
      </trkpt>
      <trkpt lat="46.8246" lon="0.35063">
        <ele>92</ele>
        <time>2019-02-03T09:02:49.000Z</time>
      </trkpt>
      <trkpt lat="46.82456" lon="0.35064">
        <ele>92</ele>
        <time>2019-02-03T09:02:50.000Z</time>
      </trkpt>
      <trkpt lat="46.82452" lon="0.35065">
        <ele>92</ele>
        <time>2019-02-03T09:02:51.000Z</time>
      </trkpt>
      <trkpt lat="46.82448" lon="0.35066">
        <ele>92</ele>
        <time>2019-02-03T09:02:52.000Z</time>
      </trkpt>
      <trkpt lat="46.82443" lon="0.35066">
        <ele>91</ele>
        <time>2019-02-03T09:02:53.000Z</time>
      </trkpt>
      <trkpt lat="46.82439" lon="0.35067">
        <ele>91</ele>
        <time>2019-02-03T09:02:54.000Z</time>
      </trkpt>
      <trkpt lat="46.82435" lon="0.35067">
        <ele>91</ele>
        <time>2019-02-03T09:02:55.000Z</time>
      </trkpt>
      <trkpt lat="46.8243" lon="0.35068">
        <ele>91</ele>
        <time>2019-02-03T09:02:56.000Z</time>
      </trkpt>
      <trkpt lat="46.82426" lon="0.35069">
        <ele>91</ele>
        <time>2019-02-03T09:02:57.000Z</time>
      </trkpt>
      <trkpt lat="46.82421" lon="0.35069">
        <ele>91</ele>
        <time>2019-02-03T09:02:58.000Z</time>
      </trkpt>
      <trkpt lat="46.82417" lon="0.3507">
        <ele>91</ele>
        <time>2019-02-03T09:02:59.000Z</time>
      </trkpt>
      <trkpt lat="46.82412" lon="0.35071">
        <ele>90</ele>
        <time>2019-02-03T09:03:00.000Z</time>
      </trkpt>
      <trkpt lat="46.82407" lon="0.35071">
        <ele>90</ele>
        <time>2019-02-03T09:03:01.000Z</time>
      </trkpt>
      <trkpt lat="46.82403" lon="0.35072">
        <ele>90</ele>
        <time>2019-02-03T09:03:02.000Z</time>
      </trkpt>
      <trkpt lat="46.82398" lon="0.35073">
        <ele>90</ele>
        <time>2019-02-03T09:03:03.000Z</time>
      </trkpt>
      <trkpt lat="46.82394" lon="0.35074">
        <ele>90</ele>
        <time>2019-02-03T09:03:04.000Z</time>
      </trkpt>
      <trkpt lat="46.82389" lon="0.35075">
        <ele>90</ele>
        <time>2019-02-03T09:03:05.000Z</time>
      </trkpt>
      <trkpt lat="46.82384" lon="0.35076">
        <ele>89</ele>
        <time>2019-02-03T09:03:06.000Z</time>
      </trkpt>
      <trkpt lat="46.82379" lon="0.35077">
        <ele>90</ele>
        <time>2019-02-03T09:03:07.000Z</time>
      </trkpt>
      <trkpt lat="46.82375" lon="0.35078">
        <ele>89</ele>
        <time>2019-02-03T09:03:08.000Z</time>
      </trkpt>
      <trkpt lat="46.8237" lon="0.35079">
        <ele>89</ele>
        <time>2019-02-03T09:03:09.000Z</time>
      </trkpt>
      <trkpt lat="46.82365" lon="0.3508">
        <ele>89</ele>
        <time>2019-02-03T09:03:10.000Z</time>
      </trkpt>
      <trkpt lat="46.8236" lon="0.35082">
        <ele>89</ele>
        <time>2019-02-03T09:03:11.000Z</time>
      </trkpt>
      <trkpt lat="46.82355" lon="0.35083">
        <ele>88</ele>
        <time>2019-02-03T09:03:12.000Z</time>
      </trkpt>
      <trkpt lat="46.8235" lon="0.35084">
        <ele>88</ele>
        <time>2019-02-03T09:03:13.000Z</time>
      </trkpt>
      <trkpt lat="46.82345" lon="0.35086">
        <ele>88</ele>
        <time>2019-02-03T09:03:14.000Z</time>
      </trkpt>
      <trkpt lat="46.8234" lon="0.35087">
        <ele>88</ele>
        <time>2019-02-03T09:03:15.000Z</time>
      </trkpt>
      <trkpt lat="46.82335" lon="0.35088">
        <ele>87</ele>
        <time>2019-02-03T09:03:16.000Z</time>
      </trkpt>
      <trkpt lat="46.8233" lon="0.35088">
        <ele>87</ele>
        <time>2019-02-03T09:03:17.000Z</time>
      </trkpt>
      <trkpt lat="46.82325" lon="0.35088">
        <ele>87</ele>
        <time>2019-02-03T09:03:18.000Z</time>
      </trkpt>
      <trkpt lat="46.8232" lon="0.35087">
        <ele>87</ele>
        <time>2019-02-03T09:03:19.000Z</time>
      </trkpt>
      <trkpt lat="46.82315" lon="0.35087">
        <ele>87</ele>
        <time>2019-02-03T09:03:20.000Z</time>
      </trkpt>
      <trkpt lat="46.8231" lon="0.35086">
        <ele>87</ele>
        <time>2019-02-03T09:03:21.000Z</time>
      </trkpt>
      <trkpt lat="46.82305" lon="0.35086">
        <ele>86</ele>
        <time>2019-02-03T09:03:22.000Z</time>
      </trkpt>
      <trkpt lat="46.823" lon="0.35085">
        <ele>86</ele>
        <time>2019-02-03T09:03:23.000Z</time>
      </trkpt>
      <trkpt lat="46.82295" lon="0.35085">
        <ele>86</ele>
        <time>2019-02-03T09:03:24.000Z</time>
      </trkpt>
      <trkpt lat="46.8229" lon="0.35086">
        <ele>86</ele>
        <time>2019-02-03T09:03:25.000Z</time>
      </trkpt>
      <trkpt lat="46.82285" lon="0.35086">
        <ele>86</ele>
        <time>2019-02-03T09:03:26.000Z</time>
      </trkpt>
      <trkpt lat="46.82281" lon="0.35087">
        <ele>86</ele>
        <time>2019-02-03T09:03:27.000Z</time>
      </trkpt>
      <trkpt lat="46.82277" lon="0.35088">
        <ele>85</ele>
        <time>2019-02-03T09:03:28.000Z</time>
      </trkpt>
      <trkpt lat="46.82272" lon="0.35089">
        <ele>85</ele>
        <time>2019-02-03T09:03:29.000Z</time>
      </trkpt>
      <trkpt lat="46.82267" lon="0.3509">
        <ele>84</ele>
        <time>2019-02-03T09:03:30.000Z</time>
      </trkpt>
      <trkpt lat="46.82262" lon="0.35091">
        <ele>84</ele>
        <time>2019-02-03T09:03:31.000Z</time>
      </trkpt>
      <trkpt lat="46.82257" lon="0.35092">
        <ele>84</ele>
        <time>2019-02-03T09:03:32.000Z</time>
      </trkpt>
      <trkpt lat="46.82252" lon="0.35093">
        <ele>83</ele>
        <time>2019-02-03T09:03:33.000Z</time>
      </trkpt>
      <trkpt lat="46.82247" lon="0.35093">
        <ele>83</ele>
        <time>2019-02-03T09:03:34.000Z</time>
      </trkpt>
      <trkpt lat="46.82242" lon="0.35094">
        <ele>83</ele>
        <time>2019-02-03T09:03:35.000Z</time>
      </trkpt>
      <trkpt lat="46.82236" lon="0.35095">
        <ele>83</ele>
        <time>2019-02-03T09:03:36.000Z</time>
      </trkpt>
      <trkpt lat="46.82231" lon="0.35097">
        <ele>83</ele>
        <time>2019-02-03T09:03:37.000Z</time>
      </trkpt>
      <trkpt lat="46.82226" lon="0.35098">
        <ele>83</ele>
        <time>2019-02-03T09:03:38.000Z</time>
      </trkpt>
      <trkpt lat="46.82222" lon="0.351">
        <ele>83</ele>
        <time>2019-02-03T09:03:39.000Z</time>
      </trkpt>
      <trkpt lat="46.82217" lon="0.35103">
        <ele>83</ele>
        <time>2019-02-03T09:03:40.000Z</time>
      </trkpt>
      <trkpt lat="46.82213" lon="0.35105">
        <ele>82</ele>
        <time>2019-02-03T09:03:41.000Z</time>
      </trkpt>
      <trkpt lat="46.82209" lon="0.35107">
        <ele>82</ele>
        <time>2019-02-03T09:03:42.000Z</time>
      </trkpt>
      <trkpt lat="46.82205" lon="0.35109">
        <ele>83</ele>
        <time>2019-02-03T09:03:43.000Z</time>
      </trkpt>
      <trkpt lat="46.822" lon="0.35111">
        <ele>82</ele>
        <time>2019-02-03T09:03:44.000Z</time>
      </trkpt>
      <trkpt lat="46.82196" lon="0.35112">
        <ele>83</ele>
        <time>2019-02-03T09:03:45.000Z</time>
      </trkpt>
      <trkpt lat="46.82191" lon="0.35113">
        <ele>83</ele>
        <time>2019-02-03T09:03:46.000Z</time>
      </trkpt>
      <trkpt lat="46.82187" lon="0.35114">
        <ele>83</ele>
        <time>2019-02-03T09:03:47.000Z</time>
      </trkpt>
      <trkpt lat="46.82183" lon="0.35114">
        <ele>83</ele>
        <time>2019-02-03T09:03:48.000Z</time>
      </trkpt>
      <trkpt lat="46.82178" lon="0.35115">
        <ele>83</ele>
        <time>2019-02-03T09:03:49.000Z</time>
      </trkpt>
      <trkpt lat="46.82174" lon="0.35115">
        <ele>83</ele>
        <time>2019-02-03T09:03:50.000Z</time>
      </trkpt>
      <trkpt lat="46.8217" lon="0.35115">
        <ele>82</ele>
        <time>2019-02-03T09:03:51.000Z</time>
      </trkpt>
      <trkpt lat="46.82166" lon="0.35115">
        <ele>82</ele>
        <time>2019-02-03T09:03:52.000Z</time>
      </trkpt>
      <trkpt lat="46.82162" lon="0.35115">
        <ele>82</ele>
        <time>2019-02-03T09:03:53.000Z</time>
      </trkpt>
      <trkpt lat="46.82158" lon="0.35115">
        <ele>82</ele>
        <time>2019-02-03T09:03:54.000Z</time>
      </trkpt>
      <trkpt lat="46.82153" lon="0.35114">
        <ele>82</ele>
        <time>2019-02-03T09:03:55.000Z</time>
      </trkpt>
      <trkpt lat="46.82149" lon="0.35114">
        <ele>81</ele>
        <time>2019-02-03T09:03:56.000Z</time>
      </trkpt>
      <trkpt lat="46.82146" lon="0.35114">
        <ele>81</ele>
        <time>2019-02-03T09:03:57.000Z</time>
      </trkpt>
      <trkpt lat="46.82142" lon="0.35114">
        <ele>81</ele>
        <time>2019-02-03T09:03:58.000Z</time>
      </trkpt>
      <trkpt lat="46.82138" lon="0.35114">
        <ele>81</ele>
        <time>2019-02-03T09:03:59.000Z</time>
      </trkpt>
      <trkpt lat="46.82134" lon="0.35114">
        <ele>81</ele>
        <time>2019-02-03T09:04:00.000Z</time>
      </trkpt>
      <trkpt lat="46.8213" lon="0.35114">
        <ele>81</ele>
        <time>2019-02-03T09:04:01.000Z</time>
      </trkpt>
      <trkpt lat="46.82126" lon="0.35113">
        <ele>81</ele>
        <time>2019-02-03T09:04:02.000Z</time>
      </trkpt>
      <trkpt lat="46.82123" lon="0.35113">
        <ele>81</ele>
        <time>2019-02-03T09:04:03.000Z</time>
      </trkpt>
      <trkpt lat="46.82119" lon="0.35112">
        <ele>80</ele>
        <time>2019-02-03T09:04:04.000Z</time>
      </trkpt>
      <trkpt lat="46.82116" lon="0.35113">
        <ele>80</ele>
        <time>2019-02-03T09:04:05.000Z</time>
      </trkpt>
      <trkpt lat="46.82112" lon="0.35113">
        <ele>80</ele>
        <time>2019-02-03T09:04:06.000Z</time>
      </trkpt>
      <trkpt lat="46.82108" lon="0.35113">
        <ele>80</ele>
        <time>2019-02-03T09:04:07.000Z</time>
      </trkpt>
      <trkpt lat="46.82105" lon="0.35114">
        <ele>80</ele>
        <time>2019-02-03T09:04:08.000Z</time>
      </trkpt>
      <trkpt lat="46.82101" lon="0.35114">
        <ele>80</ele>
        <time>2019-02-03T09:04:09.000Z</time>
      </trkpt>
      <trkpt lat="46.82098" lon="0.35114">
        <ele>80</ele>
        <time>2019-02-03T09:04:10.000Z</time>
      </trkpt>
      <trkpt lat="46.82094" lon="0.35114">
        <ele>80</ele>
        <time>2019-02-03T09:04:11.000Z</time>
      </trkpt>
      <trkpt lat="46.82091" lon="0.35113">
        <ele>81</ele>
        <time>2019-02-03T09:04:12.000Z</time>
      </trkpt>
      <trkpt lat="46.82087" lon="0.35113">
        <ele>81</ele>
        <time>2019-02-03T09:04:13.000Z</time>
      </trkpt>
      <trkpt lat="46.82084" lon="0.35113">
        <ele>81</ele>
        <time>2019-02-03T09:04:14.000Z</time>
      </trkpt>
      <trkpt lat="46.8208" lon="0.35114">
        <ele>80</ele>
        <time>2019-02-03T09:04:15.000Z</time>
      </trkpt>
      <trkpt lat="46.82076" lon="0.35115">
        <ele>81</ele>
        <time>2019-02-03T09:04:16.000Z</time>
      </trkpt>
      <trkpt lat="46.82072" lon="0.35117">
        <ele>80</ele>
        <time>2019-02-03T09:04:17.000Z</time>
      </trkpt>
      <trkpt lat="46.82068" lon="0.35119">
        <ele>79</ele>
        <time>2019-02-03T09:04:18.000Z</time>
      </trkpt>
      <trkpt lat="46.82064" lon="0.3512">
        <ele>79</ele>
        <time>2019-02-03T09:04:19.000Z</time>
      </trkpt>
      <trkpt lat="46.82061" lon="0.35122">
        <ele>80</ele>
        <time>2019-02-03T09:04:20.000Z</time>
      </trkpt>
      <trkpt lat="46.82057" lon="0.35124">
        <ele>79</ele>
        <time>2019-02-03T09:04:21.000Z</time>
      </trkpt>
      <trkpt lat="46.82054" lon="0.35125">
        <ele>80</ele>
        <time>2019-02-03T09:04:22.000Z</time>
      </trkpt>
      <trkpt lat="46.8205" lon="0.35127">
        <ele>80</ele>
        <time>2019-02-03T09:04:23.000Z</time>
      </trkpt>
      <trkpt lat="46.82046" lon="0.35129">
        <ele>81</ele>
        <time>2019-02-03T09:04:24.000Z</time>
      </trkpt>
      <trkpt lat="46.82043" lon="0.35131">
        <ele>81</ele>
        <time>2019-02-03T09:04:25.000Z</time>
      </trkpt>
      <trkpt lat="46.82039" lon="0.35132">
        <ele>82</ele>
        <time>2019-02-03T09:04:26.000Z</time>
      </trkpt>
      <trkpt lat="46.82036" lon="0.35133">
        <ele>82</ele>
        <time>2019-02-03T09:04:27.000Z</time>
      </trkpt>
      <trkpt lat="46.82032" lon="0.35135">
        <ele>83</ele>
        <time>2019-02-03T09:04:28.000Z</time>
      </trkpt>
      <trkpt lat="46.82028" lon="0.35137">
        <ele>83</ele>
        <time>2019-02-03T09:04:29.000Z</time>
      </trkpt>
      <trkpt lat="46.82025" lon="0.35139">
        <ele>83</ele>
        <time>2019-02-03T09:04:30.000Z</time>
      </trkpt>
      <trkpt lat="46.82021" lon="0.3514">
        <ele>84</ele>
        <time>2019-02-03T09:04:31.000Z</time>
      </trkpt>
      <trkpt lat="46.82017" lon="0.35142">
        <ele>83</ele>
        <time>2019-02-03T09:04:32.000Z</time>
      </trkpt>
      <trkpt lat="46.82013" lon="0.35144">
        <ele>83</ele>
        <time>2019-02-03T09:04:33.000Z</time>
      </trkpt>
      <trkpt lat="46.8201" lon="0.35147">
        <ele>83</ele>
        <time>2019-02-03T09:04:34.000Z</time>
      </trkpt>
      <trkpt lat="46.82006" lon="0.35149">
        <ele>83</ele>
        <time>2019-02-03T09:04:35.000Z</time>
      </trkpt>
      <trkpt lat="46.82003" lon="0.35151">
        <ele>84</ele>
        <time>2019-02-03T09:04:36.000Z</time>
      </trkpt>
      <trkpt lat="46.81999" lon="0.35153">
        <ele>84</ele>
        <time>2019-02-03T09:04:37.000Z</time>
      </trkpt>
      <trkpt lat="46.81995" lon="0.35155">
        <ele>84</ele>
        <time>2019-02-03T09:04:38.000Z</time>
      </trkpt>
      <trkpt lat="46.81992" lon="0.35157">
        <ele>85</ele>
        <time>2019-02-03T09:04:39.000Z</time>
      </trkpt>
      <trkpt lat="46.81988" lon="0.3516">
        <ele>86</ele>
        <time>2019-02-03T09:04:40.000Z</time>
      </trkpt>
      <trkpt lat="46.81985" lon="0.35163">
        <ele>86</ele>
        <time>2019-02-03T09:04:41.000Z</time>
      </trkpt>
      <trkpt lat="46.81981" lon="0.35166">
        <ele>86</ele>
        <time>2019-02-03T09:04:42.000Z</time>
      </trkpt>
      <trkpt lat="46.81977" lon="0.35169">
        <ele>85</ele>
        <time>2019-02-03T09:04:43.000Z</time>
      </trkpt>
      <trkpt lat="46.81973" lon="0.35172">
        <ele>85</ele>
        <time>2019-02-03T09:04:44.000Z</time>
      </trkpt>
      <trkpt lat="46.81969" lon="0.35175">
        <ele>85</ele>
        <time>2019-02-03T09:04:45.000Z</time>
      </trkpt>
      <trkpt lat="46.81966" lon="0.35178">
        <ele>84</ele>
        <time>2019-02-03T09:04:46.000Z</time>
      </trkpt>
      <trkpt lat="46.81962" lon="0.35182">
        <ele>84</ele>
        <time>2019-02-03T09:04:47.000Z</time>
      </trkpt>
      <trkpt lat="46.81958" lon="0.35185">
        <ele>84</ele>
        <time>2019-02-03T09:04:48.000Z</time>
      </trkpt>
      <trkpt lat="46.81955" lon="0.35189">
        <ele>84</ele>
        <time>2019-02-03T09:04:49.000Z</time>
      </trkpt>
      <trkpt lat="46.81951" lon="0.35192">
        <ele>84</ele>
        <time>2019-02-03T09:04:50.000Z</time>
      </trkpt>
      <trkpt lat="46.81948" lon="0.35195">
        <ele>84</ele>
        <time>2019-02-03T09:04:51.000Z</time>
      </trkpt>
      <trkpt lat="46.81944" lon="0.35198">
        <ele>84</ele>
        <time>2019-02-03T09:04:52.000Z</time>
      </trkpt>
      <trkpt lat="46.81941" lon="0.35202">
        <ele>84</ele>
        <time>2019-02-03T09:04:53.000Z</time>
      </trkpt>
      <trkpt lat="46.81938" lon="0.35206">
        <ele>84</ele>
        <time>2019-02-03T09:04:54.000Z</time>
      </trkpt>
      <trkpt lat="46.81934" lon="0.35209">
        <ele>84</ele>
        <time>2019-02-03T09:04:55.000Z</time>
      </trkpt>
      <trkpt lat="46.81931" lon="0.35213">
        <ele>84</ele>
        <time>2019-02-03T09:04:56.000Z</time>
      </trkpt>
      <trkpt lat="46.81928" lon="0.35218">
        <ele>84</ele>
        <time>2019-02-03T09:04:57.000Z</time>
      </trkpt>
      <trkpt lat="46.81925" lon="0.35222">
        <ele>84</ele>
        <time>2019-02-03T09:04:58.000Z</time>
      </trkpt>
      <trkpt lat="46.81922" lon="0.35226">
        <ele>84</ele>
        <time>2019-02-03T09:04:59.000Z</time>
      </trkpt>
      <trkpt lat="46.81919" lon="0.3523">
        <ele>84</ele>
        <time>2019-02-03T09:05:00.000Z</time>
      </trkpt>
      <trkpt lat="46.81916" lon="0.35234">
        <ele>84</ele>
        <time>2019-02-03T09:05:01.000Z</time>
      </trkpt>
      <trkpt lat="46.81913" lon="0.35238">
        <ele>85</ele>
        <time>2019-02-03T09:05:02.000Z</time>
      </trkpt>
      <trkpt lat="46.8191" lon="0.35242">
        <ele>85</ele>
        <time>2019-02-03T09:05:03.000Z</time>
      </trkpt>
      <trkpt lat="46.81907" lon="0.35246">
        <ele>85</ele>
        <time>2019-02-03T09:05:04.000Z</time>
      </trkpt>
      <trkpt lat="46.81904" lon="0.35251">
        <ele>85</ele>
        <time>2019-02-03T09:05:05.000Z</time>
      </trkpt>
      <trkpt lat="46.81901" lon="0.35255">
        <ele>86</ele>
        <time>2019-02-03T09:05:06.000Z</time>
      </trkpt>
      <trkpt lat="46.81899" lon="0.35259">
        <ele>86</ele>
        <time>2019-02-03T09:05:07.000Z</time>
      </trkpt>
      <trkpt lat="46.81896" lon="0.35263">
        <ele>86</ele>
        <time>2019-02-03T09:05:08.000Z</time>
      </trkpt>
      <trkpt lat="46.81893" lon="0.35267">
        <ele>87</ele>
        <time>2019-02-03T09:05:09.000Z</time>
      </trkpt>
      <trkpt lat="46.81891" lon="0.35271">
        <ele>87</ele>
        <time>2019-02-03T09:05:10.000Z</time>
      </trkpt>
      <trkpt lat="46.81888" lon="0.35275">
        <ele>86</ele>
        <time>2019-02-03T09:05:11.000Z</time>
      </trkpt>
      <trkpt lat="46.81885" lon="0.3528">
        <ele>86</ele>
        <time>2019-02-03T09:05:12.000Z</time>
      </trkpt>
      <trkpt lat="46.81882" lon="0.35284">
        <ele>87</ele>
        <time>2019-02-03T09:05:13.000Z</time>
      </trkpt>
      <trkpt lat="46.81879" lon="0.35288">
        <ele>86</ele>
        <time>2019-02-03T09:05:14.000Z</time>
      </trkpt>
      <trkpt lat="46.81875" lon="0.35293">
        <ele>86</ele>
        <time>2019-02-03T09:05:15.000Z</time>
      </trkpt>
      <trkpt lat="46.81872" lon="0.35297">
        <ele>86</ele>
        <time>2019-02-03T09:05:16.000Z</time>
      </trkpt>
      <trkpt lat="46.81869" lon="0.35302">
        <ele>86</ele>
        <time>2019-02-03T09:05:17.000Z</time>
      </trkpt>
      <trkpt lat="46.81865" lon="0.35306">
        <ele>87</ele>
        <time>2019-02-03T09:05:18.000Z</time>
      </trkpt>
      <trkpt lat="46.81862" lon="0.3531">
        <ele>86</ele>
        <time>2019-02-03T09:05:19.000Z</time>
      </trkpt>
      <trkpt lat="46.81859" lon="0.35314">
        <ele>86</ele>
        <time>2019-02-03T09:05:20.000Z</time>
      </trkpt>
      <trkpt lat="46.81856" lon="0.35318">
        <ele>86</ele>
        <time>2019-02-03T09:05:21.000Z</time>
      </trkpt>
      <trkpt lat="46.81853" lon="0.35322">
        <ele>86</ele>
        <time>2019-02-03T09:05:22.000Z</time>
      </trkpt>
      <trkpt lat="46.8185" lon="0.35326">
        <ele>86</ele>
        <time>2019-02-03T09:05:23.000Z</time>
      </trkpt>
      <trkpt lat="46.81847" lon="0.3533">
        <ele>86</ele>
        <time>2019-02-03T09:05:24.000Z</time>
      </trkpt>
      <trkpt lat="46.81844" lon="0.35333">
        <ele>86</ele>
        <time>2019-02-03T09:05:25.000Z</time>
      </trkpt>
      <trkpt lat="46.81842" lon="0.35337">
        <ele>86</ele>
        <time>2019-02-03T09:05:26.000Z</time>
      </trkpt>
      <trkpt lat="46.81839" lon="0.3534">
        <ele>86</ele>
        <time>2019-02-03T09:05:27.000Z</time>
      </trkpt>
      <trkpt lat="46.81837" lon="0.35344">
        <ele>85</ele>
        <time>2019-02-03T09:05:28.000Z</time>
      </trkpt>
      <trkpt lat="46.81834" lon="0.35347">
        <ele>85</ele>
        <time>2019-02-03T09:05:29.000Z</time>
      </trkpt>
      <trkpt lat="46.81831" lon="0.35351">
        <ele>86</ele>
        <time>2019-02-03T09:05:30.000Z</time>
      </trkpt>
      <trkpt lat="46.81829" lon="0.35355">
        <ele>86</ele>
        <time>2019-02-03T09:05:31.000Z</time>
      </trkpt>
      <trkpt lat="46.81826" lon="0.35358">
        <ele>86</ele>
        <time>2019-02-03T09:05:32.000Z</time>
      </trkpt>
      <trkpt lat="46.81823" lon="0.35362">
        <ele>85</ele>
        <time>2019-02-03T09:05:33.000Z</time>
      </trkpt>
      <trkpt lat="46.81821" lon="0.35366">
        <ele>85</ele>
        <time>2019-02-03T09:05:34.000Z</time>
      </trkpt>
      <trkpt lat="46.81818" lon="0.35369">
        <ele>85</ele>
        <time>2019-02-03T09:05:35.000Z</time>
      </trkpt>
      <trkpt lat="46.81815" lon="0.35373">
        <ele>84</ele>
        <time>2019-02-03T09:05:36.000Z</time>
      </trkpt>
      <trkpt lat="46.81812" lon="0.35376">
        <ele>84</ele>
        <time>2019-02-03T09:05:37.000Z</time>
      </trkpt>
      <trkpt lat="46.8181" lon="0.3538">
        <ele>83</ele>
        <time>2019-02-03T09:05:38.000Z</time>
      </trkpt>
      <trkpt lat="46.81808" lon="0.35383">
        <ele>83</ele>
        <time>2019-02-03T09:05:39.000Z</time>
      </trkpt>
      <trkpt lat="46.81805" lon="0.35387">
        <ele>83</ele>
        <time>2019-02-03T09:05:40.000Z</time>
      </trkpt>
      <trkpt lat="46.81802" lon="0.35391">
        <ele>82</ele>
        <time>2019-02-03T09:05:41.000Z</time>
      </trkpt>
      <trkpt lat="46.81799" lon="0.35395">
        <ele>82</ele>
        <time>2019-02-03T09:05:42.000Z</time>
      </trkpt>
      <trkpt lat="46.81796" lon="0.354">
        <ele>80</ele>
        <time>2019-02-03T09:05:43.000Z</time>
      </trkpt>
      <trkpt lat="46.81793" lon="0.35404">
        <ele>80</ele>
        <time>2019-02-03T09:05:44.000Z</time>
      </trkpt>
      <trkpt lat="46.8179" lon="0.35408">
        <ele>79</ele>
        <time>2019-02-03T09:05:45.000Z</time>
      </trkpt>
      <trkpt lat="46.81788" lon="0.35412">
        <ele>79</ele>
        <time>2019-02-03T09:05:46.000Z</time>
      </trkpt>
      <trkpt lat="46.81785" lon="0.35416">
        <ele>79</ele>
        <time>2019-02-03T09:05:47.000Z</time>
      </trkpt>
      <trkpt lat="46.81783" lon="0.3542">
        <ele>78</ele>
        <time>2019-02-03T09:05:48.000Z</time>
      </trkpt>
      <trkpt lat="46.8178" lon="0.35424">
        <ele>78</ele>
        <time>2019-02-03T09:05:49.000Z</time>
      </trkpt>
      <trkpt lat="46.81778" lon="0.35427">
        <ele>77</ele>
        <time>2019-02-03T09:05:50.000Z</time>
      </trkpt>
      <trkpt lat="46.81776" lon="0.35431">
        <ele>78</ele>
        <time>2019-02-03T09:05:51.000Z</time>
      </trkpt>
      <trkpt lat="46.81773" lon="0.35435">
        <ele>78</ele>
        <time>2019-02-03T09:05:52.000Z</time>
      </trkpt>
      <trkpt lat="46.81771" lon="0.35439">
        <ele>79</ele>
        <time>2019-02-03T09:05:53.000Z</time>
      </trkpt>
      <trkpt lat="46.81768" lon="0.35443">
        <ele>78</ele>
        <time>2019-02-03T09:05:54.000Z</time>
      </trkpt>
      <trkpt lat="46.81765" lon="0.35447">
        <ele>78</ele>
        <time>2019-02-03T09:05:55.000Z</time>
      </trkpt>
      <trkpt lat="46.81762" lon="0.3545">
        <ele>78</ele>
        <time>2019-02-03T09:05:56.000Z</time>
      </trkpt>
      <trkpt lat="46.81758" lon="0.35451">
        <ele>79</ele>
        <time>2019-02-03T09:05:57.000Z</time>
      </trkpt>
      <trkpt lat="46.81756" lon="0.3545">
        <ele>79</ele>
        <time>2019-02-03T09:05:58.000Z</time>
      </trkpt>
      <trkpt lat="46.81755" lon="0.35446">
        <ele>78</ele>
        <time>2019-02-03T09:05:59.000Z</time>
      </trkpt>
      <trkpt lat="46.81754" lon="0.35442">
        <ele>76</ele>
        <time>2019-02-03T09:06:00.000Z</time>
      </trkpt>
      <trkpt lat="46.81752" lon="0.35439">
        <ele>77</ele>
        <time>2019-02-03T09:06:01.000Z</time>
      </trkpt>
      <trkpt lat="46.81751" lon="0.35436">
        <ele>76</ele>
        <time>2019-02-03T09:06:02.000Z</time>
      </trkpt>
      <trkpt lat="46.81751" lon="0.35433">
        <ele>76</ele>
        <time>2019-02-03T09:06:03.000Z</time>
      </trkpt>
      <trkpt lat="46.81752" lon="0.3543">
        <ele>75</ele>
        <time>2019-02-03T09:06:04.000Z</time>
      </trkpt>
      <trkpt lat="46.81752" lon="0.35426">
        <ele>74</ele>
        <time>2019-02-03T09:06:05.000Z</time>
      </trkpt>
      <trkpt lat="46.81752" lon="0.35423">
        <ele>73</ele>
        <time>2019-02-03T09:06:06.000Z</time>
      </trkpt>
      <trkpt lat="46.81752" lon="0.35419">
        <ele>73</ele>
        <time>2019-02-03T09:06:07.000Z</time>
      </trkpt>
      <trkpt lat="46.81753" lon="0.35415">
        <ele>72</ele>
        <time>2019-02-03T09:06:08.000Z</time>
      </trkpt>
      <trkpt lat="46.81753" lon="0.3541">
        <ele>73</ele>
        <time>2019-02-03T09:06:09.000Z</time>
      </trkpt>
      <trkpt lat="46.81753" lon="0.35406">
        <ele>74</ele>
        <time>2019-02-03T09:06:10.000Z</time>
      </trkpt>
      <trkpt lat="46.81753" lon="0.35401">
        <ele>74</ele>
        <time>2019-02-03T09:06:11.000Z</time>
      </trkpt>
      <trkpt lat="46.81754" lon="0.35396">
        <ele>74</ele>
        <time>2019-02-03T09:06:12.000Z</time>
      </trkpt>
      <trkpt lat="46.81754" lon="0.35391">
        <ele>75</ele>
        <time>2019-02-03T09:06:13.000Z</time>
      </trkpt>
      <trkpt lat="46.81754" lon="0.35385">
        <ele>75</ele>
        <time>2019-02-03T09:06:14.000Z</time>
      </trkpt>
      <trkpt lat="46.81755" lon="0.35379">
        <ele>76</ele>
        <time>2019-02-03T09:06:15.000Z</time>
      </trkpt>
      <trkpt lat="46.81755" lon="0.35372">
        <ele>77</ele>
        <time>2019-02-03T09:06:16.000Z</time>
      </trkpt>
      <trkpt lat="46.81755" lon="0.35366">
        <ele>77</ele>
        <time>2019-02-03T09:06:17.000Z</time>
      </trkpt>
      <trkpt lat="46.81755" lon="0.3536">
        <ele>77</ele>
        <time>2019-02-03T09:06:18.000Z</time>
      </trkpt>
      <trkpt lat="46.81755" lon="0.35354">
        <ele>77</ele>
        <time>2019-02-03T09:06:19.000Z</time>
      </trkpt>
      <trkpt lat="46.81755" lon="0.35348">
        <ele>77</ele>
        <time>2019-02-03T09:06:20.000Z</time>
      </trkpt>
      <trkpt lat="46.81755" lon="0.35342">
        <ele>77</ele>
        <time>2019-02-03T09:06:21.000Z</time>
      </trkpt>
      <trkpt lat="46.81755" lon="0.35336">
        <ele>76</ele>
        <time>2019-02-03T09:06:22.000Z</time>
      </trkpt>
      <trkpt lat="46.81755" lon="0.3533">
        <ele>76</ele>
        <time>2019-02-03T09:06:23.000Z</time>
      </trkpt>
      <trkpt lat="46.81755" lon="0.35325">
        <ele>75</ele>
        <time>2019-02-03T09:06:24.000Z</time>
      </trkpt>
      <trkpt lat="46.81756" lon="0.35319">
        <ele>75</ele>
        <time>2019-02-03T09:06:25.000Z</time>
      </trkpt>
      <trkpt lat="46.81756" lon="0.35314">
        <ele>75</ele>
        <time>2019-02-03T09:06:26.000Z</time>
      </trkpt>
      <trkpt lat="46.81756" lon="0.35308">
        <ele>75</ele>
        <time>2019-02-03T09:06:27.000Z</time>
      </trkpt>
      <trkpt lat="46.81757" lon="0.35302">
        <ele>75</ele>
        <time>2019-02-03T09:06:28.000Z</time>
      </trkpt>
      <trkpt lat="46.81757" lon="0.35296">
        <ele>75</ele>
        <time>2019-02-03T09:06:29.000Z</time>
      </trkpt>
      <trkpt lat="46.81757" lon="0.3529">
        <ele>76</ele>
        <time>2019-02-03T09:06:30.000Z</time>
      </trkpt>
      <trkpt lat="46.81757" lon="0.35284">
        <ele>76</ele>
        <time>2019-02-03T09:06:31.000Z</time>
      </trkpt>
      <trkpt lat="46.81757" lon="0.35278">
        <ele>76</ele>
        <time>2019-02-03T09:06:32.000Z</time>
      </trkpt>
      <trkpt lat="46.81757" lon="0.35271">
        <ele>76</ele>
        <time>2019-02-03T09:06:33.000Z</time>
      </trkpt>
      <trkpt lat="46.81758" lon="0.35265">
        <ele>76</ele>
        <time>2019-02-03T09:06:34.000Z</time>
      </trkpt>
      <trkpt lat="46.81758" lon="0.35259">
        <ele>76</ele>
        <time>2019-02-03T09:06:35.000Z</time>
      </trkpt>
      <trkpt lat="46.81758" lon="0.35253">
        <ele>76</ele>
        <time>2019-02-03T09:06:36.000Z</time>
      </trkpt>
      <trkpt lat="46.81758" lon="0.35247">
        <ele>76</ele>
        <time>2019-02-03T09:06:37.000Z</time>
      </trkpt>
      <trkpt lat="46.81758" lon="0.35241">
        <ele>77</ele>
        <time>2019-02-03T09:06:38.000Z</time>
      </trkpt>
      <trkpt lat="46.81759" lon="0.35235">
        <ele>76</ele>
        <time>2019-02-03T09:06:39.000Z</time>
      </trkpt>
      <trkpt lat="46.81759" lon="0.35229">
        <ele>76</ele>
        <time>2019-02-03T09:06:40.000Z</time>
      </trkpt>
      <trkpt lat="46.81759" lon="0.35223">
        <ele>76</ele>
        <time>2019-02-03T09:06:41.000Z</time>
      </trkpt>
      <trkpt lat="46.8176" lon="0.35217">
        <ele>75</ele>
        <time>2019-02-03T09:06:42.000Z</time>
      </trkpt>
      <trkpt lat="46.8176" lon="0.35212">
        <ele>75</ele>
        <time>2019-02-03T09:06:43.000Z</time>
      </trkpt>
      <trkpt lat="46.81761" lon="0.35206">
        <ele>76</ele>
        <time>2019-02-03T09:06:44.000Z</time>
      </trkpt>
      <trkpt lat="46.81761" lon="0.352">
        <ele>77</ele>
        <time>2019-02-03T09:06:45.000Z</time>
      </trkpt>
      <trkpt lat="46.81762" lon="0.35194">
        <ele>78</ele>
        <time>2019-02-03T09:06:46.000Z</time>
      </trkpt>
      <trkpt lat="46.81762" lon="0.35189">
        <ele>78</ele>
        <time>2019-02-03T09:06:47.000Z</time>
      </trkpt>
      <trkpt lat="46.81763" lon="0.35183">
        <ele>79</ele>
        <time>2019-02-03T09:06:48.000Z</time>
      </trkpt>
      <trkpt lat="46.81764" lon="0.35177">
        <ele>79</ele>
        <time>2019-02-03T09:06:49.000Z</time>
      </trkpt>
      <trkpt lat="46.81765" lon="0.35171">
        <ele>80</ele>
        <time>2019-02-03T09:06:50.000Z</time>
      </trkpt>
      <trkpt lat="46.81765" lon="0.35166">
        <ele>80</ele>
        <time>2019-02-03T09:06:51.000Z</time>
      </trkpt>
      <trkpt lat="46.81766" lon="0.3516">
        <ele>80</ele>
        <time>2019-02-03T09:06:52.000Z</time>
      </trkpt>
      <trkpt lat="46.81767" lon="0.35154">
        <ele>80</ele>
        <time>2019-02-03T09:06:53.000Z</time>
      </trkpt>
      <trkpt lat="46.81767" lon="0.35148">
        <ele>80</ele>
        <time>2019-02-03T09:06:54.000Z</time>
      </trkpt>
      <trkpt lat="46.81768" lon="0.35143">
        <ele>80</ele>
        <time>2019-02-03T09:06:55.000Z</time>
      </trkpt>
      <trkpt lat="46.81768" lon="0.35137">
        <ele>80</ele>
        <time>2019-02-03T09:06:56.000Z</time>
      </trkpt>
      <trkpt lat="46.81769" lon="0.35131">
        <ele>80</ele>
        <time>2019-02-03T09:06:57.000Z</time>
      </trkpt>
      <trkpt lat="46.81769" lon="0.35126">
        <ele>81</ele>
        <time>2019-02-03T09:06:58.000Z</time>
      </trkpt>
      <trkpt lat="46.81769" lon="0.35121">
        <ele>80</ele>
        <time>2019-02-03T09:06:59.000Z</time>
      </trkpt>
      <trkpt lat="46.81769" lon="0.35115">
        <ele>80</ele>
        <time>2019-02-03T09:07:00.000Z</time>
      </trkpt>
      <trkpt lat="46.8177" lon="0.3511">
        <ele>80</ele>
        <time>2019-02-03T09:07:01.000Z</time>
      </trkpt>
      <trkpt lat="46.8177" lon="0.35105">
        <ele>80</ele>
        <time>2019-02-03T09:07:02.000Z</time>
      </trkpt>
      <trkpt lat="46.8177" lon="0.351">
        <ele>81</ele>
        <time>2019-02-03T09:07:03.000Z</time>
      </trkpt>
      <trkpt lat="46.81771" lon="0.35094">
        <ele>80</ele>
        <time>2019-02-03T09:07:04.000Z</time>
      </trkpt>
      <trkpt lat="46.81771" lon="0.35089">
        <ele>81</ele>
        <time>2019-02-03T09:07:05.000Z</time>
      </trkpt>
      <trkpt lat="46.81771" lon="0.35083">
        <ele>81</ele>
        <time>2019-02-03T09:07:06.000Z</time>
      </trkpt>
      <trkpt lat="46.81772" lon="0.35078">
        <ele>81</ele>
        <time>2019-02-03T09:07:07.000Z</time>
      </trkpt>
      <trkpt lat="46.81772" lon="0.35072">
        <ele>81</ele>
        <time>2019-02-03T09:07:08.000Z</time>
      </trkpt>
      <trkpt lat="46.81772" lon="0.35067">
        <ele>81</ele>
        <time>2019-02-03T09:07:09.000Z</time>
      </trkpt>
      <trkpt lat="46.81773" lon="0.35061">
        <ele>81</ele>
        <time>2019-02-03T09:07:10.000Z</time>
      </trkpt>
      <trkpt lat="46.81773" lon="0.35056">
        <ele>81</ele>
        <time>2019-02-03T09:07:11.000Z</time>
      </trkpt>
      <trkpt lat="46.81774" lon="0.3505">
        <ele>80</ele>
        <time>2019-02-03T09:07:12.000Z</time>
      </trkpt>
      <trkpt lat="46.81774" lon="0.35045">
        <ele>80</ele>
        <time>2019-02-03T09:07:13.000Z</time>
      </trkpt>
      <trkpt lat="46.81775" lon="0.3504">
        <ele>80</ele>
        <time>2019-02-03T09:07:14.000Z</time>
      </trkpt>
      <trkpt lat="46.81776" lon="0.35035">
        <ele>78</ele>
        <time>2019-02-03T09:07:15.000Z</time>
      </trkpt>
      <trkpt lat="46.81777" lon="0.35029">
        <ele>78</ele>
        <time>2019-02-03T09:07:16.000Z</time>
      </trkpt>
      <trkpt lat="46.81777" lon="0.35024">
        <ele>77</ele>
        <time>2019-02-03T09:07:17.000Z</time>
      </trkpt>
      <trkpt lat="46.81777" lon="0.35018">
        <ele>77</ele>
        <time>2019-02-03T09:07:18.000Z</time>
      </trkpt>
      <trkpt lat="46.81778" lon="0.35013">
        <ele>77</ele>
        <time>2019-02-03T09:07:19.000Z</time>
      </trkpt>
      <trkpt lat="46.81778" lon="0.35007">
        <ele>77</ele>
        <time>2019-02-03T09:07:20.000Z</time>
      </trkpt>
      <trkpt lat="46.81778" lon="0.35001">
        <ele>76</ele>
        <time>2019-02-03T09:07:21.000Z</time>
      </trkpt>
      <trkpt lat="46.81778" lon="0.34995">
        <ele>76</ele>
        <time>2019-02-03T09:07:22.000Z</time>
      </trkpt>
      <trkpt lat="46.81778" lon="0.34988">
        <ele>76</ele>
        <time>2019-02-03T09:07:23.000Z</time>
      </trkpt>
      <trkpt lat="46.81778" lon="0.34982">
        <ele>75</ele>
        <time>2019-02-03T09:07:24.000Z</time>
      </trkpt>
      <trkpt lat="46.81778" lon="0.34976">
        <ele>75</ele>
        <time>2019-02-03T09:07:25.000Z</time>
      </trkpt>
      <trkpt lat="46.81778" lon="0.3497">
        <ele>76</ele>
        <time>2019-02-03T09:07:26.000Z</time>
      </trkpt>
      <trkpt lat="46.81778" lon="0.34964">
        <ele>76</ele>
        <time>2019-02-03T09:07:27.000Z</time>
      </trkpt>
      <trkpt lat="46.81778" lon="0.34958">
        <ele>76</ele>
        <time>2019-02-03T09:07:28.000Z</time>
      </trkpt>
      <trkpt lat="46.81778" lon="0.34953">
        <ele>77</ele>
        <time>2019-02-03T09:07:29.000Z</time>
      </trkpt>
      <trkpt lat="46.81778" lon="0.34947">
        <ele>78</ele>
        <time>2019-02-03T09:07:30.000Z</time>
      </trkpt>
      <trkpt lat="46.81779" lon="0.34941">
        <ele>78</ele>
        <time>2019-02-03T09:07:31.000Z</time>
      </trkpt>
      <trkpt lat="46.81779" lon="0.34935">
        <ele>78</ele>
        <time>2019-02-03T09:07:32.000Z</time>
      </trkpt>
      <trkpt lat="46.81779" lon="0.3493">
        <ele>77</ele>
        <time>2019-02-03T09:07:33.000Z</time>
      </trkpt>
      <trkpt lat="46.81779" lon="0.34924">
        <ele>76</ele>
        <time>2019-02-03T09:07:34.000Z</time>
      </trkpt>
      <trkpt lat="46.81779" lon="0.34918">
        <ele>76</ele>
        <time>2019-02-03T09:07:35.000Z</time>
      </trkpt>
      <trkpt lat="46.81779" lon="0.34913">
        <ele>76</ele>
        <time>2019-02-03T09:07:36.000Z</time>
      </trkpt>
      <trkpt lat="46.81779" lon="0.34907">
        <ele>75</ele>
        <time>2019-02-03T09:07:37.000Z</time>
      </trkpt>
      <trkpt lat="46.8178" lon="0.34901">
        <ele>75</ele>
        <time>2019-02-03T09:07:38.000Z</time>
      </trkpt>
      <trkpt lat="46.8178" lon="0.34896">
        <ele>74</ele>
        <time>2019-02-03T09:07:39.000Z</time>
      </trkpt>
      <trkpt lat="46.8178" lon="0.3489">
        <ele>74</ele>
        <time>2019-02-03T09:07:40.000Z</time>
      </trkpt>
      <trkpt lat="46.8178" lon="0.34885">
        <ele>73</ele>
        <time>2019-02-03T09:07:41.000Z</time>
      </trkpt>
      <trkpt lat="46.8178" lon="0.34879">
        <ele>72</ele>
        <time>2019-02-03T09:07:42.000Z</time>
      </trkpt>
      <trkpt lat="46.8178" lon="0.34874">
        <ele>72</ele>
        <time>2019-02-03T09:07:43.000Z</time>
      </trkpt>
      <trkpt lat="46.8178" lon="0.34869">
        <ele>72</ele>
        <time>2019-02-03T09:07:44.000Z</time>
      </trkpt>
      <trkpt lat="46.8178" lon="0.34863">
        <ele>71</ele>
        <time>2019-02-03T09:07:45.000Z</time>
      </trkpt>
      <trkpt lat="46.8178" lon="0.34858">
        <ele>71</ele>
        <time>2019-02-03T09:07:46.000Z</time>
      </trkpt>
      <trkpt lat="46.8178" lon="0.34852">
        <ele>71</ele>
        <time>2019-02-03T09:07:47.000Z</time>
      </trkpt>
      <trkpt lat="46.8178" lon="0.34847">
        <ele>71</ele>
        <time>2019-02-03T09:07:48.000Z</time>
      </trkpt>
      <trkpt lat="46.81779" lon="0.3484">
        <ele>72</ele>
        <time>2019-02-03T09:07:49.000Z</time>
      </trkpt>
      <trkpt lat="46.81779" lon="0.34834">
        <ele>72</ele>
        <time>2019-02-03T09:07:50.000Z</time>
      </trkpt>
      <trkpt lat="46.81778" lon="0.34828">
        <ele>72</ele>
        <time>2019-02-03T09:07:51.000Z</time>
      </trkpt>
      <trkpt lat="46.81778" lon="0.34822">
        <ele>74</ele>
        <time>2019-02-03T09:07:52.000Z</time>
      </trkpt>
      <trkpt lat="46.81777" lon="0.34816">
        <ele>74</ele>
        <time>2019-02-03T09:07:53.000Z</time>
      </trkpt>
      <trkpt lat="46.81777" lon="0.3481">
        <ele>74</ele>
        <time>2019-02-03T09:07:54.000Z</time>
      </trkpt>
      <trkpt lat="46.81777" lon="0.34804">
        <ele>75</ele>
        <time>2019-02-03T09:07:55.000Z</time>
      </trkpt>
      <trkpt lat="46.81776" lon="0.34798">
        <ele>75</ele>
        <time>2019-02-03T09:07:56.000Z</time>
      </trkpt>
      <trkpt lat="46.81776" lon="0.34792">
        <ele>77</ele>
        <time>2019-02-03T09:07:57.000Z</time>
      </trkpt>
      <trkpt lat="46.81776" lon="0.34786">
        <ele>77</ele>
        <time>2019-02-03T09:07:58.000Z</time>
      </trkpt>
      <trkpt lat="46.81775" lon="0.3478">
        <ele>78</ele>
        <time>2019-02-03T09:07:59.000Z</time>
      </trkpt>
      <trkpt lat="46.81775" lon="0.34774">
        <ele>78</ele>
        <time>2019-02-03T09:08:00.000Z</time>
      </trkpt>
      <trkpt lat="46.81775" lon="0.34768">
        <ele>78</ele>
        <time>2019-02-03T09:08:01.000Z</time>
      </trkpt>
      <trkpt lat="46.81774" lon="0.34762">
        <ele>79</ele>
        <time>2019-02-03T09:08:02.000Z</time>
      </trkpt>
      <trkpt lat="46.81774" lon="0.34756">
        <ele>79</ele>
        <time>2019-02-03T09:08:03.000Z</time>
      </trkpt>
      <trkpt lat="46.81773" lon="0.3475">
        <ele>79</ele>
        <time>2019-02-03T09:08:04.000Z</time>
      </trkpt>
      <trkpt lat="46.81773" lon="0.34744">
        <ele>79</ele>
        <time>2019-02-03T09:08:05.000Z</time>
      </trkpt>
      <trkpt lat="46.81772" lon="0.34738">
        <ele>79</ele>
        <time>2019-02-03T09:08:06.000Z</time>
      </trkpt>
      <trkpt lat="46.81771" lon="0.34732">
        <ele>79</ele>
        <time>2019-02-03T09:08:07.000Z</time>
      </trkpt>
      <trkpt lat="46.8177" lon="0.34725">
        <ele>79</ele>
        <time>2019-02-03T09:08:08.000Z</time>
      </trkpt>
      <trkpt lat="46.8177" lon="0.34719">
        <ele>79</ele>
        <time>2019-02-03T09:08:09.000Z</time>
      </trkpt>
      <trkpt lat="46.81769" lon="0.34713">
        <ele>78</ele>
        <time>2019-02-03T09:08:10.000Z</time>
      </trkpt>
      <trkpt lat="46.81768" lon="0.34707">
        <ele>78</ele>
        <time>2019-02-03T09:08:11.000Z</time>
      </trkpt>
      <trkpt lat="46.81767" lon="0.347">
        <ele>77</ele>
        <time>2019-02-03T09:08:12.000Z</time>
      </trkpt>
      <trkpt lat="46.81766" lon="0.34694">
        <ele>77</ele>
        <time>2019-02-03T09:08:13.000Z</time>
      </trkpt>
      <trkpt lat="46.81765" lon="0.34687">
        <ele>78</ele>
        <time>2019-02-03T09:08:14.000Z</time>
      </trkpt>
      <trkpt lat="46.81763" lon="0.34681">
        <ele>78</ele>
        <time>2019-02-03T09:08:15.000Z</time>
      </trkpt>
      <trkpt lat="46.81762" lon="0.34674">
        <ele>78</ele>
        <time>2019-02-03T09:08:16.000Z</time>
      </trkpt>
      <trkpt lat="46.8176" lon="0.34667">
        <ele>78</ele>
        <time>2019-02-03T09:08:17.000Z</time>
      </trkpt>
      <trkpt lat="46.81759" lon="0.34661">
        <ele>77</ele>
        <time>2019-02-03T09:08:18.000Z</time>
      </trkpt>
      <trkpt lat="46.81758" lon="0.34654">
        <ele>77</ele>
        <time>2019-02-03T09:08:19.000Z</time>
      </trkpt>
      <trkpt lat="46.81756" lon="0.34647">
        <ele>77</ele>
        <time>2019-02-03T09:08:20.000Z</time>
      </trkpt>
      <trkpt lat="46.81755" lon="0.34641">
        <ele>77</ele>
        <time>2019-02-03T09:08:21.000Z</time>
      </trkpt>
      <trkpt lat="46.81754" lon="0.34634">
        <ele>77</ele>
        <time>2019-02-03T09:08:22.000Z</time>
      </trkpt>
      <trkpt lat="46.81752" lon="0.34627">
        <ele>77</ele>
        <time>2019-02-03T09:08:23.000Z</time>
      </trkpt>
      <trkpt lat="46.81751" lon="0.3462">
        <ele>77</ele>
        <time>2019-02-03T09:08:24.000Z</time>
      </trkpt>
      <trkpt lat="46.81749" lon="0.34614">
        <ele>77</ele>
        <time>2019-02-03T09:08:25.000Z</time>
      </trkpt>
      <trkpt lat="46.81748" lon="0.34607">
        <ele>77</ele>
        <time>2019-02-03T09:08:26.000Z</time>
      </trkpt>
      <trkpt lat="46.81746" lon="0.346">
        <ele>77</ele>
        <time>2019-02-03T09:08:27.000Z</time>
      </trkpt>
      <trkpt lat="46.81745" lon="0.34594">
        <ele>78</ele>
        <time>2019-02-03T09:08:28.000Z</time>
      </trkpt>
      <trkpt lat="46.81743" lon="0.34587">
        <ele>78</ele>
        <time>2019-02-03T09:08:29.000Z</time>
      </trkpt>
      <trkpt lat="46.81742" lon="0.3458">
        <ele>78</ele>
        <time>2019-02-03T09:08:30.000Z</time>
      </trkpt>
      <trkpt lat="46.8174" lon="0.34574">
        <ele>78</ele>
        <time>2019-02-03T09:08:31.000Z</time>
      </trkpt>
      <trkpt lat="46.81739" lon="0.34567">
        <ele>78</ele>
        <time>2019-02-03T09:08:32.000Z</time>
      </trkpt>
      <trkpt lat="46.81737" lon="0.34561">
        <ele>78</ele>
        <time>2019-02-03T09:08:33.000Z</time>
      </trkpt>
      <trkpt lat="46.81736" lon="0.34554">
        <ele>78</ele>
        <time>2019-02-03T09:08:34.000Z</time>
      </trkpt>
      <trkpt lat="46.81734" lon="0.34548">
        <ele>78</ele>
        <time>2019-02-03T09:08:35.000Z</time>
      </trkpt>
      <trkpt lat="46.81732" lon="0.34542">
        <ele>78</ele>
        <time>2019-02-03T09:08:36.000Z</time>
      </trkpt>
      <trkpt lat="46.81731" lon="0.34536">
        <ele>78</ele>
        <time>2019-02-03T09:08:37.000Z</time>
      </trkpt>
      <trkpt lat="46.81729" lon="0.3453">
        <ele>78</ele>
        <time>2019-02-03T09:08:38.000Z</time>
      </trkpt>
      <trkpt lat="46.81728" lon="0.34524">
        <ele>78</ele>
        <time>2019-02-03T09:08:39.000Z</time>
      </trkpt>
      <trkpt lat="46.81726" lon="0.34519">
        <ele>78</ele>
        <time>2019-02-03T09:08:40.000Z</time>
      </trkpt>
      <trkpt lat="46.81725" lon="0.34513">
        <ele>78</ele>
        <time>2019-02-03T09:08:41.000Z</time>
      </trkpt>
      <trkpt lat="46.81724" lon="0.34507">
        <ele>78</ele>
        <time>2019-02-03T09:08:42.000Z</time>
      </trkpt>
      <trkpt lat="46.81723" lon="0.34502">
        <ele>78</ele>
        <time>2019-02-03T09:08:43.000Z</time>
      </trkpt>
      <trkpt lat="46.81722" lon="0.34496">
        <ele>78</ele>
        <time>2019-02-03T09:08:44.000Z</time>
      </trkpt>
      <trkpt lat="46.81721" lon="0.3449">
        <ele>79</ele>
        <time>2019-02-03T09:08:45.000Z</time>
      </trkpt>
      <trkpt lat="46.81721" lon="0.34484">
        <ele>79</ele>
        <time>2019-02-03T09:08:46.000Z</time>
      </trkpt>
      <trkpt lat="46.8172" lon="0.34479">
        <ele>78</ele>
        <time>2019-02-03T09:08:47.000Z</time>
      </trkpt>
      <trkpt lat="46.8172" lon="0.34473">
        <ele>79</ele>
        <time>2019-02-03T09:08:48.000Z</time>
      </trkpt>
      <trkpt lat="46.8172" lon="0.34467">
        <ele>78</ele>
        <time>2019-02-03T09:08:49.000Z</time>
      </trkpt>
      <trkpt lat="46.8172" lon="0.34461">
        <ele>78</ele>
        <time>2019-02-03T09:08:50.000Z</time>
      </trkpt>
      <trkpt lat="46.8172" lon="0.34455">
        <ele>78</ele>
        <time>2019-02-03T09:08:51.000Z</time>
      </trkpt>
      <trkpt lat="46.81719" lon="0.34449">
        <ele>77</ele>
        <time>2019-02-03T09:08:52.000Z</time>
      </trkpt>
      <trkpt lat="46.81719" lon="0.34443">
        <ele>77</ele>
        <time>2019-02-03T09:08:53.000Z</time>
      </trkpt>
      <trkpt lat="46.81719" lon="0.34438">
        <ele>76</ele>
        <time>2019-02-03T09:08:54.000Z</time>
      </trkpt>
      <trkpt lat="46.81719" lon="0.34432">
        <ele>76</ele>
        <time>2019-02-03T09:08:55.000Z</time>
      </trkpt>
      <trkpt lat="46.81718" lon="0.34426">
        <ele>76</ele>
        <time>2019-02-03T09:08:56.000Z</time>
      </trkpt>
      <trkpt lat="46.81718" lon="0.34421">
        <ele>76</ele>
        <time>2019-02-03T09:08:57.000Z</time>
      </trkpt>
      <trkpt lat="46.81718" lon="0.34415">
        <ele>76</ele>
        <time>2019-02-03T09:08:58.000Z</time>
      </trkpt>
      <trkpt lat="46.81717" lon="0.34408">
        <ele>76</ele>
        <time>2019-02-03T09:08:59.000Z</time>
      </trkpt>
      <trkpt lat="46.81717" lon="0.34402">
        <ele>75</ele>
        <time>2019-02-03T09:09:00.000Z</time>
      </trkpt>
      <trkpt lat="46.81716" lon="0.34396">
        <ele>74</ele>
        <time>2019-02-03T09:09:01.000Z</time>
      </trkpt>
      <trkpt lat="46.81715" lon="0.34391">
        <ele>73</ele>
        <time>2019-02-03T09:09:02.000Z</time>
      </trkpt>
      <trkpt lat="46.81715" lon="0.34385">
        <ele>71</ele>
        <time>2019-02-03T09:09:03.000Z</time>
      </trkpt>
      <trkpt lat="46.81714" lon="0.3438">
        <ele>71</ele>
        <time>2019-02-03T09:09:04.000Z</time>
      </trkpt>
      <trkpt lat="46.81713" lon="0.34374">
        <ele>69</ele>
        <time>2019-02-03T09:09:05.000Z</time>
      </trkpt>
      <trkpt lat="46.81713" lon="0.34369">
        <ele>68</ele>
        <time>2019-02-03T09:09:06.000Z</time>
      </trkpt>
      <trkpt lat="46.81712" lon="0.34363">
        <ele>68</ele>
        <time>2019-02-03T09:09:07.000Z</time>
      </trkpt>
      <trkpt lat="46.81712" lon="0.34357">
        <ele>68</ele>
        <time>2019-02-03T09:09:08.000Z</time>
      </trkpt>
      <trkpt lat="46.81711" lon="0.34351">
        <ele>69</ele>
        <time>2019-02-03T09:09:09.000Z</time>
      </trkpt>
      <trkpt lat="46.8171" lon="0.34345">
        <ele>71</ele>
        <time>2019-02-03T09:09:10.000Z</time>
      </trkpt>
      <trkpt lat="46.8171" lon="0.3434">
        <ele>71</ele>
        <time>2019-02-03T09:09:11.000Z</time>
      </trkpt>
      <trkpt lat="46.81709" lon="0.34334">
        <ele>72</ele>
        <time>2019-02-03T09:09:12.000Z</time>
      </trkpt>
      <trkpt lat="46.81708" lon="0.34329">
        <ele>72</ele>
        <time>2019-02-03T09:09:13.000Z</time>
      </trkpt>
      <trkpt lat="46.81707" lon="0.34323">
        <ele>73</ele>
        <time>2019-02-03T09:09:14.000Z</time>
      </trkpt>
      <trkpt lat="46.81706" lon="0.34317">
        <ele>74</ele>
        <time>2019-02-03T09:09:15.000Z</time>
      </trkpt>
      <trkpt lat="46.81706" lon="0.34312">
        <ele>74</ele>
        <time>2019-02-03T09:09:16.000Z</time>
      </trkpt>
      <trkpt lat="46.81705" lon="0.34306">
        <ele>74</ele>
        <time>2019-02-03T09:09:17.000Z</time>
      </trkpt>
      <trkpt lat="46.81703" lon="0.34301">
        <ele>74</ele>
        <time>2019-02-03T09:09:18.000Z</time>
      </trkpt>
      <trkpt lat="46.81702" lon="0.34295">
        <ele>75</ele>
        <time>2019-02-03T09:09:19.000Z</time>
      </trkpt>
      <trkpt lat="46.81701" lon="0.3429">
        <ele>75</ele>
        <time>2019-02-03T09:09:20.000Z</time>
      </trkpt>
      <trkpt lat="46.817" lon="0.34284">
        <ele>75</ele>
        <time>2019-02-03T09:09:21.000Z</time>
      </trkpt>
      <trkpt lat="46.81699" lon="0.34279">
        <ele>75</ele>
        <time>2019-02-03T09:09:22.000Z</time>
      </trkpt>
      <trkpt lat="46.81698" lon="0.34273">
        <ele>76</ele>
        <time>2019-02-03T09:09:23.000Z</time>
      </trkpt>
      <trkpt lat="46.81697" lon="0.34268">
        <ele>75</ele>
        <time>2019-02-03T09:09:24.000Z</time>
      </trkpt>
      <trkpt lat="46.81697" lon="0.34262">
        <ele>75</ele>
        <time>2019-02-03T09:09:25.000Z</time>
      </trkpt>
      <trkpt lat="46.81696" lon="0.34257">
        <ele>75</ele>
        <time>2019-02-03T09:09:26.000Z</time>
      </trkpt>
      <trkpt lat="46.81695" lon="0.34252">
        <ele>75</ele>
        <time>2019-02-03T09:09:27.000Z</time>
      </trkpt>
      <trkpt lat="46.81694" lon="0.34246">
        <ele>75</ele>
        <time>2019-02-03T09:09:28.000Z</time>
      </trkpt>
      <trkpt lat="46.81694" lon="0.34241">
        <ele>75</ele>
        <time>2019-02-03T09:09:29.000Z</time>
      </trkpt>
      <trkpt lat="46.81693" lon="0.34235">
        <ele>75</ele>
        <time>2019-02-03T09:09:30.000Z</time>
      </trkpt>
      <trkpt lat="46.81692" lon="0.3423">
        <ele>75</ele>
        <time>2019-02-03T09:09:31.000Z</time>
      </trkpt>
      <trkpt lat="46.81691" lon="0.34224">
        <ele>75</ele>
        <time>2019-02-03T09:09:32.000Z</time>
      </trkpt>
      <trkpt lat="46.81691" lon="0.34219">
        <ele>75</ele>
        <time>2019-02-03T09:09:33.000Z</time>
      </trkpt>
      <trkpt lat="46.8169" lon="0.34213">
        <ele>75</ele>
        <time>2019-02-03T09:09:34.000Z</time>
      </trkpt>
      <trkpt lat="46.81689" lon="0.34208">
        <ele>74</ele>
        <time>2019-02-03T09:09:35.000Z</time>
      </trkpt>
      <trkpt lat="46.81688" lon="0.34202">
        <ele>75</ele>
        <time>2019-02-03T09:09:36.000Z</time>
      </trkpt>
      <trkpt lat="46.81687" lon="0.34197">
        <ele>75</ele>
        <time>2019-02-03T09:09:37.000Z</time>
      </trkpt>
      <trkpt lat="46.81686" lon="0.34191">
        <ele>76</ele>
        <time>2019-02-03T09:09:38.000Z</time>
      </trkpt>
      <trkpt lat="46.81685" lon="0.34185">
        <ele>77</ele>
        <time>2019-02-03T09:09:39.000Z</time>
      </trkpt>
      <trkpt lat="46.81684" lon="0.34179">
        <ele>77</ele>
        <time>2019-02-03T09:09:40.000Z</time>
      </trkpt>
      <trkpt lat="46.81683" lon="0.34173">
        <ele>77</ele>
        <time>2019-02-03T09:09:41.000Z</time>
      </trkpt>
      <trkpt lat="46.81682" lon="0.34168">
        <ele>77</ele>
        <time>2019-02-03T09:09:42.000Z</time>
      </trkpt>
      <trkpt lat="46.81682" lon="0.34162">
        <ele>77</ele>
        <time>2019-02-03T09:09:43.000Z</time>
      </trkpt>
      <trkpt lat="46.81681" lon="0.34156">
        <ele>77</ele>
        <time>2019-02-03T09:09:44.000Z</time>
      </trkpt>
      <trkpt lat="46.8168" lon="0.3415">
        <ele>78</ele>
        <time>2019-02-03T09:09:45.000Z</time>
      </trkpt>
      <trkpt lat="46.81679" lon="0.34145">
        <ele>78</ele>
        <time>2019-02-03T09:09:46.000Z</time>
      </trkpt>
      <trkpt lat="46.81678" lon="0.34139">
        <ele>78</ele>
        <time>2019-02-03T09:09:47.000Z</time>
      </trkpt>
      <trkpt lat="46.81677" lon="0.34133">
        <ele>78</ele>
        <time>2019-02-03T09:09:48.000Z</time>
      </trkpt>
      <trkpt lat="46.81676" lon="0.34126">
        <ele>79</ele>
        <time>2019-02-03T09:09:49.000Z</time>
      </trkpt>
      <trkpt lat="46.81675" lon="0.3412">
        <ele>79</ele>
        <time>2019-02-03T09:09:50.000Z</time>
      </trkpt>
      <trkpt lat="46.81674" lon="0.34114">
        <ele>79</ele>
        <time>2019-02-03T09:09:51.000Z</time>
      </trkpt>
      <trkpt lat="46.81673" lon="0.34108">
        <ele>79</ele>
        <time>2019-02-03T09:09:52.000Z</time>
      </trkpt>
      <trkpt lat="46.81672" lon="0.34101">
        <ele>80</ele>
        <time>2019-02-03T09:09:53.000Z</time>
      </trkpt>
      <trkpt lat="46.81672" lon="0.34095">
        <ele>79</ele>
        <time>2019-02-03T09:09:54.000Z</time>
      </trkpt>
      <trkpt lat="46.81671" lon="0.34089">
        <ele>79</ele>
        <time>2019-02-03T09:09:55.000Z</time>
      </trkpt>
      <trkpt lat="46.81671" lon="0.34083">
        <ele>79</ele>
        <time>2019-02-03T09:09:56.000Z</time>
      </trkpt>
      <trkpt lat="46.8167" lon="0.34077">
        <ele>80</ele>
        <time>2019-02-03T09:09:57.000Z</time>
      </trkpt>
      <trkpt lat="46.81671" lon="0.3407">
        <ele>80</ele>
        <time>2019-02-03T09:09:58.000Z</time>
      </trkpt>
      <trkpt lat="46.81671" lon="0.34064">
        <ele>80</ele>
        <time>2019-02-03T09:09:59.000Z</time>
      </trkpt>
      <trkpt lat="46.81671" lon="0.34058">
        <ele>80</ele>
        <time>2019-02-03T09:10:00.000Z</time>
      </trkpt>
      <trkpt lat="46.81672" lon="0.34052">
        <ele>79</ele>
        <time>2019-02-03T09:10:01.000Z</time>
      </trkpt>
      <trkpt lat="46.81672" lon="0.34046">
        <ele>79</ele>
        <time>2019-02-03T09:10:02.000Z</time>
      </trkpt>
      <trkpt lat="46.81672" lon="0.34041">
        <ele>79</ele>
        <time>2019-02-03T09:10:03.000Z</time>
      </trkpt>
      <trkpt lat="46.81673" lon="0.34035">
        <ele>78</ele>
        <time>2019-02-03T09:10:04.000Z</time>
      </trkpt>
      <trkpt lat="46.81673" lon="0.34029">
        <ele>78</ele>
        <time>2019-02-03T09:10:05.000Z</time>
      </trkpt>
      <trkpt lat="46.81674" lon="0.34024">
        <ele>77</ele>
        <time>2019-02-03T09:10:06.000Z</time>
      </trkpt>
      <trkpt lat="46.81674" lon="0.34017">
        <ele>77</ele>
        <time>2019-02-03T09:10:07.000Z</time>
      </trkpt>
      <trkpt lat="46.81674" lon="0.34011">
        <ele>77</ele>
        <time>2019-02-03T09:10:08.000Z</time>
      </trkpt>
      <trkpt lat="46.81675" lon="0.34004">
        <ele>77</ele>
        <time>2019-02-03T09:10:09.000Z</time>
      </trkpt>
      <trkpt lat="46.81675" lon="0.33998">
        <ele>76</ele>
        <time>2019-02-03T09:10:10.000Z</time>
      </trkpt>
      <trkpt lat="46.81676" lon="0.33991">
        <ele>75</ele>
        <time>2019-02-03T09:10:11.000Z</time>
      </trkpt>
      <trkpt lat="46.81676" lon="0.33985">
        <ele>73</ele>
        <time>2019-02-03T09:10:12.000Z</time>
      </trkpt>
      <trkpt lat="46.81677" lon="0.33978">
        <ele>72</ele>
        <time>2019-02-03T09:10:13.000Z</time>
      </trkpt>
      <trkpt lat="46.81677" lon="0.33971">
        <ele>71</ele>
        <time>2019-02-03T09:10:14.000Z</time>
      </trkpt>
      <trkpt lat="46.81677" lon="0.33964">
        <ele>70</ele>
        <time>2019-02-03T09:10:15.000Z</time>
      </trkpt>
      <trkpt lat="46.81678" lon="0.33958">
        <ele>70</ele>
        <time>2019-02-03T09:10:16.000Z</time>
      </trkpt>
      <trkpt lat="46.81679" lon="0.33951">
        <ele>71</ele>
        <time>2019-02-03T09:10:17.000Z</time>
      </trkpt>
      <trkpt lat="46.8168" lon="0.33945">
        <ele>71</ele>
        <time>2019-02-03T09:10:18.000Z</time>
      </trkpt>
      <trkpt lat="46.81682" lon="0.33938">
        <ele>70</ele>
        <time>2019-02-03T09:10:19.000Z</time>
      </trkpt>
      <trkpt lat="46.81682" lon="0.33932">
        <ele>70</ele>
        <time>2019-02-03T09:10:20.000Z</time>
      </trkpt>
      <trkpt lat="46.81682" lon="0.33926">
        <ele>69</ele>
        <time>2019-02-03T09:10:21.000Z</time>
      </trkpt>
      <trkpt lat="46.8168" lon="0.3392">
        <ele>71</ele>
        <time>2019-02-03T09:10:22.000Z</time>
      </trkpt>
      <trkpt lat="46.81678" lon="0.33916">
        <ele>72</ele>
        <time>2019-02-03T09:10:23.000Z</time>
      </trkpt>
      <trkpt lat="46.81674" lon="0.33911">
        <ele>74</ele>
        <time>2019-02-03T09:10:24.000Z</time>
      </trkpt>
      <trkpt lat="46.81671" lon="0.33908">
        <ele>74</ele>
        <time>2019-02-03T09:10:25.000Z</time>
      </trkpt>
      <trkpt lat="46.81668" lon="0.33906">
        <ele>75</ele>
        <time>2019-02-03T09:10:26.000Z</time>
      </trkpt>
      <trkpt lat="46.81665" lon="0.33905">
        <ele>75</ele>
        <time>2019-02-03T09:10:27.000Z</time>
      </trkpt>
      <trkpt lat="46.81661" lon="0.33904">
        <ele>76</ele>
        <time>2019-02-03T09:10:28.000Z</time>
      </trkpt>
      <trkpt lat="46.81657" lon="0.33903">
        <ele>76</ele>
        <time>2019-02-03T09:10:29.000Z</time>
      </trkpt>
      <trkpt lat="46.81653" lon="0.33903">
        <ele>77</ele>
        <time>2019-02-03T09:10:30.000Z</time>
      </trkpt>
      <trkpt lat="46.8165" lon="0.33902">
        <ele>77</ele>
        <time>2019-02-03T09:10:31.000Z</time>
      </trkpt>
      <trkpt lat="46.81646" lon="0.33901">
        <ele>78</ele>
        <time>2019-02-03T09:10:32.000Z</time>
      </trkpt>
      <trkpt lat="46.81642" lon="0.339">
        <ele>78</ele>
        <time>2019-02-03T09:10:33.000Z</time>
      </trkpt>
      <trkpt lat="46.81639" lon="0.339">
        <ele>78</ele>
        <time>2019-02-03T09:10:34.000Z</time>
      </trkpt>
      <trkpt lat="46.81635" lon="0.339">
        <ele>78</ele>
        <time>2019-02-03T09:10:35.000Z</time>
      </trkpt>
      <trkpt lat="46.81631" lon="0.33899">
        <ele>79</ele>
        <time>2019-02-03T09:10:36.000Z</time>
      </trkpt>
      <trkpt lat="46.81628" lon="0.33899">
        <ele>79</ele>
        <time>2019-02-03T09:10:37.000Z</time>
      </trkpt>
      <trkpt lat="46.81625" lon="0.33897">
        <ele>79</ele>
        <time>2019-02-03T09:10:38.000Z</time>
      </trkpt>
      <trkpt lat="46.81623" lon="0.33896">
        <ele>79</ele>
        <time>2019-02-03T09:10:39.000Z</time>
      </trkpt>
      <trkpt lat="46.81622" lon="0.33894">
        <ele>78</ele>
        <time>2019-02-03T09:10:40.000Z</time>
      </trkpt>
      <trkpt lat="46.8162" lon="0.33893">
        <ele>78</ele>
        <time>2019-02-03T09:10:41.000Z</time>
      </trkpt>
      <trkpt lat="46.8162" lon="0.33892">
        <ele>78</ele>
        <time>2019-02-03T09:10:42.000Z</time>
      </trkpt>
      <trkpt lat="46.81619" lon="0.33891">
        <ele>78</ele>
        <time>2019-02-03T09:10:43.000Z</time>
      </trkpt>
      <trkpt lat="46.81619" lon="0.33891">
        <ele>78</ele>
        <time>2019-02-03T09:10:44.000Z</time>
      </trkpt>
      <trkpt lat="46.81618" lon="0.33891">
        <ele>78</ele>
        <time>2019-02-03T09:10:45.000Z</time>
      </trkpt>
      <trkpt lat="46.81618" lon="0.33891">
        <ele>78</ele>
        <time>2019-02-03T09:10:46.000Z</time>
      </trkpt>
      <trkpt lat="46.81618" lon="0.33891">
        <ele>78</ele>
        <time>2019-02-03T09:10:47.000Z</time>
      </trkpt>
      <trkpt lat="46.81618" lon="0.33891">
        <ele>78</ele>
        <time>2019-02-03T09:10:48.000Z</time>
      </trkpt>
      <trkpt lat="46.81618" lon="0.33891">
        <ele>78</ele>
        <time>2019-02-03T09:10:49.000Z</time>
      </trkpt>
      <trkpt lat="46.81618" lon="0.33891">
        <ele>79</ele>
        <time>2019-02-03T09:10:50.000Z</time>
      </trkpt>
      <trkpt lat="46.81618" lon="0.33891">
        <ele>79</ele>
        <time>2019-02-03T09:10:51.000Z</time>
      </trkpt>
      <trkpt lat="46.81618" lon="0.33891">
        <ele>79</ele>
        <time>2019-02-03T09:10:52.000Z</time>
      </trkpt>
      <trkpt lat="46.81618" lon="0.33891">
        <ele>78</ele>
        <time>2019-02-03T09:10:53.000Z</time>
      </trkpt>
      <trkpt lat="46.81618" lon="0.33891">
        <ele>78</ele>
        <time>2019-02-03T09:10:54.000Z</time>
      </trkpt>
      <trkpt lat="46.81618" lon="0.33891">
        <ele>78</ele>
        <time>2019-02-03T09:10:55.000Z</time>
      </trkpt>
      <trkpt lat="46.81618" lon="0.33891">
        <ele>78</ele>
        <time>2019-02-03T09:10:56.000Z</time>
      </trkpt>
      <trkpt lat="46.81618" lon="0.33891">
        <ele>78</ele>
        <time>2019-02-03T09:10:57.000Z</time>
      </trkpt>
      <trkpt lat="46.81618" lon="0.33891">
        <ele>78</ele>
        <time>2019-02-03T09:10:58.000Z</time>
      </trkpt>
      <trkpt lat="46.81618" lon="0.33891">
        <ele>77</ele>
        <time>2019-02-03T09:10:59.000Z</time>
      </trkpt>
      <trkpt lat="46.81618" lon="0.33891">
        <ele>77</ele>
        <time>2019-02-03T09:11:00.000Z</time>
      </trkpt>
      <trkpt lat="46.81618" lon="0.33891">
        <ele>77</ele>
        <time>2019-02-03T09:11:01.000Z</time>
      </trkpt>
      <trkpt lat="46.81618" lon="0.33891">
        <ele>77</ele>
        <time>2019-02-03T09:11:02.000Z</time>
      </trkpt>
      <trkpt lat="46.81618" lon="0.33891">
        <ele>77</ele>
        <time>2019-02-03T09:11:03.000Z</time>
      </trkpt>
      <trkpt lat="46.81617" lon="0.33889">
        <ele>77</ele>
        <time>2019-02-03T09:11:04.000Z</time>
      </trkpt>
      <trkpt lat="46.81617" lon="0.33887">
        <ele>77</ele>
        <time>2019-02-03T09:11:05.000Z</time>
      </trkpt>
      <trkpt lat="46.81617" lon="0.33883">
        <ele>77</ele>
        <time>2019-02-03T09:11:06.000Z</time>
      </trkpt>
      <trkpt lat="46.81617" lon="0.33879">
        <ele>77</ele>
        <time>2019-02-03T09:11:07.000Z</time>
      </trkpt>
      <trkpt lat="46.81617" lon="0.33875">
        <ele>77</ele>
        <time>2019-02-03T09:11:08.000Z</time>
      </trkpt>
      <trkpt lat="46.81618" lon="0.3387">
        <ele>77</ele>
        <time>2019-02-03T09:11:09.000Z</time>
      </trkpt>
      <trkpt lat="46.81618" lon="0.33865">
        <ele>77</ele>
        <time>2019-02-03T09:11:10.000Z</time>
      </trkpt>
      <trkpt lat="46.81618" lon="0.3386">
        <ele>77</ele>
        <time>2019-02-03T09:11:11.000Z</time>
      </trkpt>
      <trkpt lat="46.81619" lon="0.33855">
        <ele>77</ele>
        <time>2019-02-03T09:11:12.000Z</time>
      </trkpt>
      <trkpt lat="46.81619" lon="0.33849">
        <ele>77</ele>
        <time>2019-02-03T09:11:13.000Z</time>
      </trkpt>
      <trkpt lat="46.81618" lon="0.33844">
        <ele>77</ele>
        <time>2019-02-03T09:11:14.000Z</time>
      </trkpt>
      <trkpt lat="46.81618" lon="0.33838">
        <ele>77</ele>
        <time>2019-02-03T09:11:15.000Z</time>
      </trkpt>
      <trkpt lat="46.81617" lon="0.33833">
        <ele>77</ele>
        <time>2019-02-03T09:11:16.000Z</time>
      </trkpt>
      <trkpt lat="46.81617" lon="0.33827">
        <ele>77</ele>
        <time>2019-02-03T09:11:17.000Z</time>
      </trkpt>
      <trkpt lat="46.81617" lon="0.33822">
        <ele>77</ele>
        <time>2019-02-03T09:11:18.000Z</time>
      </trkpt>
      <trkpt lat="46.81617" lon="0.33816">
        <ele>77</ele>
        <time>2019-02-03T09:11:19.000Z</time>
      </trkpt>
      <trkpt lat="46.81617" lon="0.33811">
        <ele>77</ele>
        <time>2019-02-03T09:11:20.000Z</time>
      </trkpt>
      <trkpt lat="46.81617" lon="0.33806">
        <ele>77</ele>
        <time>2019-02-03T09:11:21.000Z</time>
      </trkpt>
      <trkpt lat="46.81617" lon="0.33801">
        <ele>77</ele>
        <time>2019-02-03T09:11:22.000Z</time>
      </trkpt>
      <trkpt lat="46.81618" lon="0.33796">
        <ele>77</ele>
        <time>2019-02-03T09:11:23.000Z</time>
      </trkpt>
      <trkpt lat="46.81618" lon="0.33791">
        <ele>77</ele>
        <time>2019-02-03T09:11:24.000Z</time>
      </trkpt>
      <trkpt lat="46.81618" lon="0.33786">
        <ele>76</ele>
        <time>2019-02-03T09:11:25.000Z</time>
      </trkpt>
      <trkpt lat="46.81618" lon="0.33781">
        <ele>76</ele>
        <time>2019-02-03T09:11:26.000Z</time>
      </trkpt>
      <trkpt lat="46.81619" lon="0.33776">
        <ele>76</ele>
        <time>2019-02-03T09:11:27.000Z</time>
      </trkpt>
      <trkpt lat="46.81619" lon="0.33771">
        <ele>76</ele>
        <time>2019-02-03T09:11:28.000Z</time>
      </trkpt>
      <trkpt lat="46.81619" lon="0.33766">
        <ele>76</ele>
        <time>2019-02-03T09:11:29.000Z</time>
      </trkpt>
      <trkpt lat="46.8162" lon="0.33761">
        <ele>77</ele>
        <time>2019-02-03T09:11:30.000Z</time>
      </trkpt>
      <trkpt lat="46.8162" lon="0.33756">
        <ele>76</ele>
        <time>2019-02-03T09:11:31.000Z</time>
      </trkpt>
      <trkpt lat="46.8162" lon="0.33751">
        <ele>76</ele>
        <time>2019-02-03T09:11:32.000Z</time>
      </trkpt>
      <trkpt lat="46.81619" lon="0.33747">
        <ele>77</ele>
        <time>2019-02-03T09:11:33.000Z</time>
      </trkpt>
      <trkpt lat="46.81617" lon="0.33742">
        <ele>76</ele>
        <time>2019-02-03T09:11:34.000Z</time>
      </trkpt>
      <trkpt lat="46.81615" lon="0.33739">
        <ele>76</ele>
        <time>2019-02-03T09:11:35.000Z</time>
      </trkpt>
      <trkpt lat="46.81612" lon="0.33736">
        <ele>76</ele>
        <time>2019-02-03T09:11:36.000Z</time>
      </trkpt>
      <trkpt lat="46.81608" lon="0.33734">
        <ele>76</ele>
        <time>2019-02-03T09:11:37.000Z</time>
      </trkpt>
      <trkpt lat="46.81604" lon="0.33735">
        <ele>76</ele>
        <time>2019-02-03T09:11:38.000Z</time>
      </trkpt>
      <trkpt lat="46.816" lon="0.33736">
        <ele>77</ele>
        <time>2019-02-03T09:11:39.000Z</time>
      </trkpt>
      <trkpt lat="46.81597" lon="0.33738">
        <ele>77</ele>
        <time>2019-02-03T09:11:40.000Z</time>
      </trkpt>
      <trkpt lat="46.81593" lon="0.33741">
        <ele>77</ele>
        <time>2019-02-03T09:11:41.000Z</time>
      </trkpt>
      <trkpt lat="46.81589" lon="0.33743">
        <ele>77</ele>
        <time>2019-02-03T09:11:42.000Z</time>
      </trkpt>
      <trkpt lat="46.81586" lon="0.33747">
        <ele>76</ele>
        <time>2019-02-03T09:11:43.000Z</time>
      </trkpt>
      <trkpt lat="46.81582" lon="0.3375">
        <ele>76</ele>
        <time>2019-02-03T09:11:44.000Z</time>
      </trkpt>
      <trkpt lat="46.81579" lon="0.33754">
        <ele>76</ele>
        <time>2019-02-03T09:11:45.000Z</time>
      </trkpt>
      <trkpt lat="46.81575" lon="0.33757">
        <ele>76</ele>
        <time>2019-02-03T09:11:46.000Z</time>
      </trkpt>
      <trkpt lat="46.81572" lon="0.33761">
        <ele>75</ele>
        <time>2019-02-03T09:11:47.000Z</time>
      </trkpt>
      <trkpt lat="46.81568" lon="0.33764">
        <ele>75</ele>
        <time>2019-02-03T09:11:48.000Z</time>
      </trkpt>
      <trkpt lat="46.81564" lon="0.33767">
        <ele>75</ele>
        <time>2019-02-03T09:11:49.000Z</time>
      </trkpt>
      <trkpt lat="46.81561" lon="0.3377">
        <ele>75</ele>
        <time>2019-02-03T09:11:50.000Z</time>
      </trkpt>
      <trkpt lat="46.81557" lon="0.33773">
        <ele>75</ele>
        <time>2019-02-03T09:11:51.000Z</time>
      </trkpt>
      <trkpt lat="46.81554" lon="0.33775">
        <ele>75</ele>
        <time>2019-02-03T09:11:52.000Z</time>
      </trkpt>
      <trkpt lat="46.8155" lon="0.33777">
        <ele>75</ele>
        <time>2019-02-03T09:11:53.000Z</time>
      </trkpt>
      <trkpt lat="46.81547" lon="0.33779">
        <ele>75</ele>
        <time>2019-02-03T09:11:54.000Z</time>
      </trkpt>
      <trkpt lat="46.81544" lon="0.33781">
        <ele>75</ele>
        <time>2019-02-03T09:11:55.000Z</time>
      </trkpt>
      <trkpt lat="46.81541" lon="0.33783">
        <ele>75</ele>
        <time>2019-02-03T09:11:56.000Z</time>
      </trkpt>
      <trkpt lat="46.81537" lon="0.33785">
        <ele>75</ele>
        <time>2019-02-03T09:11:57.000Z</time>
      </trkpt>
      <trkpt lat="46.81534" lon="0.33787">
        <ele>76</ele>
        <time>2019-02-03T09:11:58.000Z</time>
      </trkpt>
      <trkpt lat="46.81531" lon="0.33789">
        <ele>76</ele>
        <time>2019-02-03T09:11:59.000Z</time>
      </trkpt>
      <trkpt lat="46.81528" lon="0.33791">
        <ele>76</ele>
        <time>2019-02-03T09:12:00.000Z</time>
      </trkpt>
      <trkpt lat="46.81525" lon="0.33792">
        <ele>76</ele>
        <time>2019-02-03T09:12:01.000Z</time>
      </trkpt>
      <trkpt lat="46.81521" lon="0.33794">
        <ele>77</ele>
        <time>2019-02-03T09:12:02.000Z</time>
      </trkpt>
      <trkpt lat="46.81518" lon="0.33796">
        <ele>77</ele>
        <time>2019-02-03T09:12:03.000Z</time>
      </trkpt>
      <trkpt lat="46.81515" lon="0.33798">
        <ele>78</ele>
        <time>2019-02-03T09:12:04.000Z</time>
      </trkpt>
      <trkpt lat="46.81511" lon="0.338">
        <ele>78</ele>
        <time>2019-02-03T09:12:05.000Z</time>
      </trkpt>
      <trkpt lat="46.81508" lon="0.33801">
        <ele>78</ele>
        <time>2019-02-03T09:12:06.000Z</time>
      </trkpt>
      <trkpt lat="46.81505" lon="0.33803">
        <ele>78</ele>
        <time>2019-02-03T09:12:07.000Z</time>
      </trkpt>
      <trkpt lat="46.81502" lon="0.33805">
        <ele>78</ele>
        <time>2019-02-03T09:12:08.000Z</time>
      </trkpt>
      <trkpt lat="46.81498" lon="0.33807">
        <ele>78</ele>
        <time>2019-02-03T09:12:09.000Z</time>
      </trkpt>
      <trkpt lat="46.81495" lon="0.33809">
        <ele>78</ele>
        <time>2019-02-03T09:12:10.000Z</time>
      </trkpt>
      <trkpt lat="46.81492" lon="0.33811">
        <ele>78</ele>
        <time>2019-02-03T09:12:11.000Z</time>
      </trkpt>
      <trkpt lat="46.81489" lon="0.33813">
        <ele>78</ele>
        <time>2019-02-03T09:12:12.000Z</time>
      </trkpt>
      <trkpt lat="46.81485" lon="0.33816">
        <ele>78</ele>
        <time>2019-02-03T09:12:13.000Z</time>
      </trkpt>
      <trkpt lat="46.81482" lon="0.33818">
        <ele>78</ele>
        <time>2019-02-03T09:12:14.000Z</time>
      </trkpt>
      <trkpt lat="46.81479" lon="0.3382">
        <ele>78</ele>
        <time>2019-02-03T09:12:15.000Z</time>
      </trkpt>
      <trkpt lat="46.81475" lon="0.33822">
        <ele>78</ele>
        <time>2019-02-03T09:12:16.000Z</time>
      </trkpt>
      <trkpt lat="46.81472" lon="0.33825">
        <ele>78</ele>
        <time>2019-02-03T09:12:17.000Z</time>
      </trkpt>
      <trkpt lat="46.81469" lon="0.33827">
        <ele>78</ele>
        <time>2019-02-03T09:12:18.000Z</time>
      </trkpt>
      <trkpt lat="46.81466" lon="0.33829">
        <ele>79</ele>
        <time>2019-02-03T09:12:19.000Z</time>
      </trkpt>
      <trkpt lat="46.81462" lon="0.33832">
        <ele>79</ele>
        <time>2019-02-03T09:12:20.000Z</time>
      </trkpt>
      <trkpt lat="46.81459" lon="0.33834">
        <ele>79</ele>
        <time>2019-02-03T09:12:21.000Z</time>
      </trkpt>
      <trkpt lat="46.81456" lon="0.33837">
        <ele>79</ele>
        <time>2019-02-03T09:12:22.000Z</time>
      </trkpt>
      <trkpt lat="46.81452" lon="0.33839">
        <ele>79</ele>
        <time>2019-02-03T09:12:23.000Z</time>
      </trkpt>
      <trkpt lat="46.81449" lon="0.33842">
        <ele>79</ele>
        <time>2019-02-03T09:12:24.000Z</time>
      </trkpt>
      <trkpt lat="46.81446" lon="0.33844">
        <ele>80</ele>
        <time>2019-02-03T09:12:25.000Z</time>
      </trkpt>
      <trkpt lat="46.81443" lon="0.33846">
        <ele>80</ele>
        <time>2019-02-03T09:12:26.000Z</time>
      </trkpt>
      <trkpt lat="46.8144" lon="0.33848">
        <ele>80</ele>
        <time>2019-02-03T09:12:27.000Z</time>
      </trkpt>
      <trkpt lat="46.81436" lon="0.3385">
        <ele>80</ele>
        <time>2019-02-03T09:12:28.000Z</time>
      </trkpt>
      <trkpt lat="46.81433" lon="0.33852">
        <ele>80</ele>
        <time>2019-02-03T09:12:29.000Z</time>
      </trkpt>
      <trkpt lat="46.8143" lon="0.33854">
        <ele>80</ele>
        <time>2019-02-03T09:12:30.000Z</time>
      </trkpt>
      <trkpt lat="46.81426" lon="0.33856">
        <ele>80</ele>
        <time>2019-02-03T09:12:31.000Z</time>
      </trkpt>
      <trkpt lat="46.81423" lon="0.33859">
        <ele>80</ele>
        <time>2019-02-03T09:12:32.000Z</time>
      </trkpt>
      <trkpt lat="46.81419" lon="0.33862">
        <ele>80</ele>
        <time>2019-02-03T09:12:33.000Z</time>
      </trkpt>
      <trkpt lat="46.81416" lon="0.33864">
        <ele>79</ele>
        <time>2019-02-03T09:12:34.000Z</time>
      </trkpt>
      <trkpt lat="46.81412" lon="0.33867">
        <ele>79</ele>
        <time>2019-02-03T09:12:35.000Z</time>
      </trkpt>
      <trkpt lat="46.81409" lon="0.33869">
        <ele>79</ele>
        <time>2019-02-03T09:12:36.000Z</time>
      </trkpt>
      <trkpt lat="46.81405" lon="0.33871">
        <ele>79</ele>
        <time>2019-02-03T09:12:37.000Z</time>
      </trkpt>
      <trkpt lat="46.81402" lon="0.33874">
        <ele>79</ele>
        <time>2019-02-03T09:12:38.000Z</time>
      </trkpt>
      <trkpt lat="46.81398" lon="0.33876">
        <ele>78</ele>
        <time>2019-02-03T09:12:39.000Z</time>
      </trkpt>
      <trkpt lat="46.81395" lon="0.33879">
        <ele>78</ele>
        <time>2019-02-03T09:12:40.000Z</time>
      </trkpt>
      <trkpt lat="46.81391" lon="0.33883">
        <ele>77</ele>
        <time>2019-02-03T09:12:41.000Z</time>
      </trkpt>
      <trkpt lat="46.81387" lon="0.33886">
        <ele>77</ele>
        <time>2019-02-03T09:12:42.000Z</time>
      </trkpt>
      <trkpt lat="46.81384" lon="0.3389">
        <ele>77</ele>
        <time>2019-02-03T09:12:43.000Z</time>
      </trkpt>
      <trkpt lat="46.8138" lon="0.33892">
        <ele>77</ele>
        <time>2019-02-03T09:12:44.000Z</time>
      </trkpt>
      <trkpt lat="46.81377" lon="0.33895">
        <ele>78</ele>
        <time>2019-02-03T09:12:45.000Z</time>
      </trkpt>
      <trkpt lat="46.81374" lon="0.33898">
        <ele>78</ele>
        <time>2019-02-03T09:12:46.000Z</time>
      </trkpt>
      <trkpt lat="46.81371" lon="0.33901">
        <ele>77</ele>
        <time>2019-02-03T09:12:47.000Z</time>
      </trkpt>
      <trkpt lat="46.81368" lon="0.33904">
        <ele>77</ele>
        <time>2019-02-03T09:12:48.000Z</time>
      </trkpt>
      <trkpt lat="46.81364" lon="0.33907">
        <ele>77</ele>
        <time>2019-02-03T09:12:49.000Z</time>
      </trkpt>
      <trkpt lat="46.81361" lon="0.33909">
        <ele>77</ele>
        <time>2019-02-03T09:12:50.000Z</time>
      </trkpt>
      <trkpt lat="46.81357" lon="0.33912">
        <ele>77</ele>
        <time>2019-02-03T09:12:51.000Z</time>
      </trkpt>
      <trkpt lat="46.81354" lon="0.33915">
        <ele>77</ele>
        <time>2019-02-03T09:12:52.000Z</time>
      </trkpt>
      <trkpt lat="46.8135" lon="0.33918">
        <ele>77</ele>
        <time>2019-02-03T09:12:53.000Z</time>
      </trkpt>
      <trkpt lat="46.81347" lon="0.33921">
        <ele>77</ele>
        <time>2019-02-03T09:12:54.000Z</time>
      </trkpt>
      <trkpt lat="46.81343" lon="0.33925">
        <ele>77</ele>
        <time>2019-02-03T09:12:55.000Z</time>
      </trkpt>
      <trkpt lat="46.81339" lon="0.33928">
        <ele>76</ele>
        <time>2019-02-03T09:12:56.000Z</time>
      </trkpt>
      <trkpt lat="46.81336" lon="0.33931">
        <ele>76</ele>
        <time>2019-02-03T09:12:57.000Z</time>
      </trkpt>
      <trkpt lat="46.81332" lon="0.33934">
        <ele>76</ele>
        <time>2019-02-03T09:12:58.000Z</time>
      </trkpt>
      <trkpt lat="46.81328" lon="0.33937">
        <ele>75</ele>
        <time>2019-02-03T09:12:59.000Z</time>
      </trkpt>
      <trkpt lat="46.81324" lon="0.3394">
        <ele>74</ele>
        <time>2019-02-03T09:13:00.000Z</time>
      </trkpt>
      <trkpt lat="46.81321" lon="0.33943">
        <ele>75</ele>
        <time>2019-02-03T09:13:01.000Z</time>
      </trkpt>
      <trkpt lat="46.81317" lon="0.33945">
        <ele>75</ele>
        <time>2019-02-03T09:13:02.000Z</time>
      </trkpt>
      <trkpt lat="46.81313" lon="0.33947">
        <ele>75</ele>
        <time>2019-02-03T09:13:03.000Z</time>
      </trkpt>
      <trkpt lat="46.81309" lon="0.3395">
        <ele>74</ele>
        <time>2019-02-03T09:13:04.000Z</time>
      </trkpt>
      <trkpt lat="46.81305" lon="0.33952">
        <ele>74</ele>
        <time>2019-02-03T09:13:05.000Z</time>
      </trkpt>
      <trkpt lat="46.81302" lon="0.33953">
        <ele>74</ele>
        <time>2019-02-03T09:13:06.000Z</time>
      </trkpt>
      <trkpt lat="46.81298" lon="0.33955">
        <ele>74</ele>
        <time>2019-02-03T09:13:07.000Z</time>
      </trkpt>
      <trkpt lat="46.81294" lon="0.33956">
        <ele>74</ele>
        <time>2019-02-03T09:13:08.000Z</time>
      </trkpt>
      <trkpt lat="46.8129" lon="0.33958">
        <ele>74</ele>
        <time>2019-02-03T09:13:09.000Z</time>
      </trkpt>
      <trkpt lat="46.81286" lon="0.3396">
        <ele>74</ele>
        <time>2019-02-03T09:13:10.000Z</time>
      </trkpt>
      <trkpt lat="46.81282" lon="0.33962">
        <ele>74</ele>
        <time>2019-02-03T09:13:11.000Z</time>
      </trkpt>
      <trkpt lat="46.81277" lon="0.33964">
        <ele>75</ele>
        <time>2019-02-03T09:13:12.000Z</time>
      </trkpt>
      <trkpt lat="46.81273" lon="0.33965">
        <ele>74</ele>
        <time>2019-02-03T09:13:13.000Z</time>
      </trkpt>
      <trkpt lat="46.81269" lon="0.33967">
        <ele>75</ele>
        <time>2019-02-03T09:13:14.000Z</time>
      </trkpt>
      <trkpt lat="46.81265" lon="0.33968">
        <ele>75</ele>
        <time>2019-02-03T09:13:15.000Z</time>
      </trkpt>
      <trkpt lat="46.81261" lon="0.33969">
        <ele>75</ele>
        <time>2019-02-03T09:13:16.000Z</time>
      </trkpt>
      <trkpt lat="46.81257" lon="0.33971">
        <ele>75</ele>
        <time>2019-02-03T09:13:17.000Z</time>
      </trkpt>
      <trkpt lat="46.81253" lon="0.33972">
        <ele>75</ele>
        <time>2019-02-03T09:13:18.000Z</time>
      </trkpt>
      <trkpt lat="46.81249" lon="0.33974">
        <ele>74</ele>
        <time>2019-02-03T09:13:19.000Z</time>
      </trkpt>
      <trkpt lat="46.81245" lon="0.33976">
        <ele>75</ele>
        <time>2019-02-03T09:13:20.000Z</time>
      </trkpt>
      <trkpt lat="46.81241" lon="0.33977">
        <ele>75</ele>
        <time>2019-02-03T09:13:21.000Z</time>
      </trkpt>
      <trkpt lat="46.81236" lon="0.33978">
        <ele>74</ele>
        <time>2019-02-03T09:13:22.000Z</time>
      </trkpt>
      <trkpt lat="46.81232" lon="0.33979">
        <ele>75</ele>
        <time>2019-02-03T09:13:23.000Z</time>
      </trkpt>
      <trkpt lat="46.81228" lon="0.3398">
        <ele>75</ele>
        <time>2019-02-03T09:13:24.000Z</time>
      </trkpt>
      <trkpt lat="46.81223" lon="0.33981">
        <ele>75</ele>
        <time>2019-02-03T09:13:25.000Z</time>
      </trkpt>
      <trkpt lat="46.81219" lon="0.33983">
        <ele>75</ele>
        <time>2019-02-03T09:13:26.000Z</time>
      </trkpt>
      <trkpt lat="46.81214" lon="0.33984">
        <ele>74</ele>
        <time>2019-02-03T09:13:27.000Z</time>
      </trkpt>
      <trkpt lat="46.8121" lon="0.33985">
        <ele>74</ele>
        <time>2019-02-03T09:13:28.000Z</time>
      </trkpt>
      <trkpt lat="46.81206" lon="0.33986">
        <ele>74</ele>
        <time>2019-02-03T09:13:29.000Z</time>
      </trkpt>
      <trkpt lat="46.81202" lon="0.33987">
        <ele>74</ele>
        <time>2019-02-03T09:13:30.000Z</time>
      </trkpt>
      <trkpt lat="46.81197" lon="0.33988">
        <ele>74</ele>
        <time>2019-02-03T09:13:31.000Z</time>
      </trkpt>
      <trkpt lat="46.81193" lon="0.33989">
        <ele>73</ele>
        <time>2019-02-03T09:13:32.000Z</time>
      </trkpt>
      <trkpt lat="46.81188" lon="0.3399">
        <ele>73</ele>
        <time>2019-02-03T09:13:33.000Z</time>
      </trkpt>
      <trkpt lat="46.81184" lon="0.33991">
        <ele>72</ele>
        <time>2019-02-03T09:13:34.000Z</time>
      </trkpt>
      <trkpt lat="46.8118" lon="0.33992">
        <ele>72</ele>
        <time>2019-02-03T09:13:35.000Z</time>
      </trkpt>
      <trkpt lat="46.81175" lon="0.33993">
        <ele>72</ele>
        <time>2019-02-03T09:13:36.000Z</time>
      </trkpt>
      <trkpt lat="46.81171" lon="0.33993">
        <ele>71</ele>
        <time>2019-02-03T09:13:37.000Z</time>
      </trkpt>
      <trkpt lat="46.81167" lon="0.33994">
        <ele>71</ele>
        <time>2019-02-03T09:13:38.000Z</time>
      </trkpt>
      <trkpt lat="46.81162" lon="0.33995">
        <ele>70</ele>
        <time>2019-02-03T09:13:39.000Z</time>
      </trkpt>
      <trkpt lat="46.81158" lon="0.33996">
        <ele>70</ele>
        <time>2019-02-03T09:13:40.000Z</time>
      </trkpt>
      <trkpt lat="46.81153" lon="0.33997">
        <ele>70</ele>
        <time>2019-02-03T09:13:41.000Z</time>
      </trkpt>
      <trkpt lat="46.81149" lon="0.33998">
        <ele>69</ele>
        <time>2019-02-03T09:13:42.000Z</time>
      </trkpt>
      <trkpt lat="46.81144" lon="0.33999">
        <ele>69</ele>
        <time>2019-02-03T09:13:43.000Z</time>
      </trkpt>
      <trkpt lat="46.8114" lon="0.34">
        <ele>69</ele>
        <time>2019-02-03T09:13:44.000Z</time>
      </trkpt>
      <trkpt lat="46.81135" lon="0.34">
        <ele>69</ele>
        <time>2019-02-03T09:13:45.000Z</time>
      </trkpt>
      <trkpt lat="46.81131" lon="0.34001">
        <ele>69</ele>
        <time>2019-02-03T09:13:46.000Z</time>
      </trkpt>
      <trkpt lat="46.81126" lon="0.34002">
        <ele>69</ele>
        <time>2019-02-03T09:13:47.000Z</time>
      </trkpt>
      <trkpt lat="46.81121" lon="0.34003">
        <ele>69</ele>
        <time>2019-02-03T09:13:48.000Z</time>
      </trkpt>
      <trkpt lat="46.81116" lon="0.34003">
        <ele>69</ele>
        <time>2019-02-03T09:13:49.000Z</time>
      </trkpt>
      <trkpt lat="46.81111" lon="0.34004">
        <ele>69</ele>
        <time>2019-02-03T09:13:50.000Z</time>
      </trkpt>
      <trkpt lat="46.81106" lon="0.34005">
        <ele>69</ele>
        <time>2019-02-03T09:13:51.000Z</time>
      </trkpt>
      <trkpt lat="46.81101" lon="0.34006">
        <ele>69</ele>
        <time>2019-02-03T09:13:52.000Z</time>
      </trkpt>
      <trkpt lat="46.81097" lon="0.34007">
        <ele>69</ele>
        <time>2019-02-03T09:13:53.000Z</time>
      </trkpt>
      <trkpt lat="46.81092" lon="0.34008">
        <ele>69</ele>
        <time>2019-02-03T09:13:54.000Z</time>
      </trkpt>
      <trkpt lat="46.81087" lon="0.34009">
        <ele>68</ele>
        <time>2019-02-03T09:13:55.000Z</time>
      </trkpt>
      <trkpt lat="46.81083" lon="0.34009">
        <ele>68</ele>
        <time>2019-02-03T09:13:56.000Z</time>
      </trkpt>
      <trkpt lat="46.81079" lon="0.3401">
        <ele>68</ele>
        <time>2019-02-03T09:13:57.000Z</time>
      </trkpt>
      <trkpt lat="46.81074" lon="0.34011">
        <ele>69</ele>
        <time>2019-02-03T09:13:58.000Z</time>
      </trkpt>
      <trkpt lat="46.8107" lon="0.34012">
        <ele>69</ele>
        <time>2019-02-03T09:13:59.000Z</time>
      </trkpt>
      <trkpt lat="46.81066" lon="0.34013">
        <ele>69</ele>
        <time>2019-02-03T09:14:00.000Z</time>
      </trkpt>
      <trkpt lat="46.81061" lon="0.34014">
        <ele>69</ele>
        <time>2019-02-03T09:14:01.000Z</time>
      </trkpt>
      <trkpt lat="46.81057" lon="0.34015">
        <ele>70</ele>
        <time>2019-02-03T09:14:02.000Z</time>
      </trkpt>
      <trkpt lat="46.81053" lon="0.34016">
        <ele>70</ele>
        <time>2019-02-03T09:14:03.000Z</time>
      </trkpt>
      <trkpt lat="46.8105" lon="0.34017">
        <ele>71</ele>
        <time>2019-02-03T09:14:04.000Z</time>
      </trkpt>
      <trkpt lat="46.81046" lon="0.34018">
        <ele>71</ele>
        <time>2019-02-03T09:14:05.000Z</time>
      </trkpt>
      <trkpt lat="46.81042" lon="0.34019">
        <ele>71</ele>
        <time>2019-02-03T09:14:06.000Z</time>
      </trkpt>
      <trkpt lat="46.81038" lon="0.3402">
        <ele>71</ele>
        <time>2019-02-03T09:14:07.000Z</time>
      </trkpt>
      <trkpt lat="46.81035" lon="0.34022">
        <ele>72</ele>
        <time>2019-02-03T09:14:08.000Z</time>
      </trkpt>
      <trkpt lat="46.81031" lon="0.34024">
        <ele>72</ele>
        <time>2019-02-03T09:14:09.000Z</time>
      </trkpt>
      <trkpt lat="46.81027" lon="0.34026">
        <ele>72</ele>
        <time>2019-02-03T09:14:10.000Z</time>
      </trkpt>
      <trkpt lat="46.81023" lon="0.34028">
        <ele>72</ele>
        <time>2019-02-03T09:14:11.000Z</time>
      </trkpt>
      <trkpt lat="46.81019" lon="0.3403">
        <ele>72</ele>
        <time>2019-02-03T09:14:12.000Z</time>
      </trkpt>
      <trkpt lat="46.81015" lon="0.34032">
        <ele>72</ele>
        <time>2019-02-03T09:14:13.000Z</time>
      </trkpt>
      <trkpt lat="46.81011" lon="0.34034">
        <ele>73</ele>
        <time>2019-02-03T09:14:14.000Z</time>
      </trkpt>
      <trkpt lat="46.81007" lon="0.34036">
        <ele>75</ele>
        <time>2019-02-03T09:14:15.000Z</time>
      </trkpt>
      <trkpt lat="46.81003" lon="0.3404">
        <ele>76</ele>
        <time>2019-02-03T09:14:16.000Z</time>
      </trkpt>
      <trkpt lat="46.80999" lon="0.34043">
        <ele>76</ele>
        <time>2019-02-03T09:14:17.000Z</time>
      </trkpt>
      <trkpt lat="46.80995" lon="0.34047">
        <ele>75</ele>
        <time>2019-02-03T09:14:18.000Z</time>
      </trkpt>
      <trkpt lat="46.80991" lon="0.34051">
        <ele>74</ele>
        <time>2019-02-03T09:14:19.000Z</time>
      </trkpt>
      <trkpt lat="46.80989" lon="0.34056">
        <ele>72</ele>
        <time>2019-02-03T09:14:20.000Z</time>
      </trkpt>
      <trkpt lat="46.80988" lon="0.34061">
        <ele>68</ele>
        <time>2019-02-03T09:14:21.000Z</time>
      </trkpt>
      <trkpt lat="46.80988" lon="0.34066">
        <ele>66</ele>
        <time>2019-02-03T09:14:22.000Z</time>
      </trkpt>
      <trkpt lat="46.80989" lon="0.34069">
        <ele>65</ele>
        <time>2019-02-03T09:14:23.000Z</time>
      </trkpt>
      <trkpt lat="46.8099" lon="0.34072">
        <ele>65</ele>
        <time>2019-02-03T09:14:24.000Z</time>
      </trkpt>
      <trkpt lat="46.80991" lon="0.34074">
        <ele>65</ele>
        <time>2019-02-03T09:14:25.000Z</time>
      </trkpt>
      <trkpt lat="46.80993" lon="0.34077">
        <ele>66</ele>
        <time>2019-02-03T09:14:26.000Z</time>
      </trkpt>
      <trkpt lat="46.80996" lon="0.3408">
        <ele>67</ele>
        <time>2019-02-03T09:14:27.000Z</time>
      </trkpt>
      <trkpt lat="46.80999" lon="0.34082">
        <ele>68</ele>
        <time>2019-02-03T09:14:28.000Z</time>
      </trkpt>
      <trkpt lat="46.81003" lon="0.34085">
        <ele>69</ele>
        <time>2019-02-03T09:14:29.000Z</time>
      </trkpt>
      <trkpt lat="46.81007" lon="0.34087">
        <ele>70</ele>
        <time>2019-02-03T09:14:30.000Z</time>
      </trkpt>
      <trkpt lat="46.81011" lon="0.3409">
        <ele>71</ele>
        <time>2019-02-03T09:14:31.000Z</time>
      </trkpt>
      <trkpt lat="46.81015" lon="0.34094">
        <ele>71</ele>
        <time>2019-02-03T09:14:32.000Z</time>
      </trkpt>
      <trkpt lat="46.81018" lon="0.34097">
        <ele>72</ele>
        <time>2019-02-03T09:14:33.000Z</time>
      </trkpt>
      <trkpt lat="46.81022" lon="0.341">
        <ele>73</ele>
        <time>2019-02-03T09:14:34.000Z</time>
      </trkpt>
      <trkpt lat="46.81026" lon="0.34103">
        <ele>73</ele>
        <time>2019-02-03T09:14:35.000Z</time>
      </trkpt>
      <trkpt lat="46.81029" lon="0.34107">
        <ele>73</ele>
        <time>2019-02-03T09:14:36.000Z</time>
      </trkpt>
      <trkpt lat="46.81033" lon="0.3411">
        <ele>74</ele>
        <time>2019-02-03T09:14:37.000Z</time>
      </trkpt>
      <trkpt lat="46.81037" lon="0.34113">
        <ele>74</ele>
        <time>2019-02-03T09:14:38.000Z</time>
      </trkpt>
      <trkpt lat="46.81041" lon="0.34116">
        <ele>74</ele>
        <time>2019-02-03T09:14:39.000Z</time>
      </trkpt>
      <trkpt lat="46.81044" lon="0.34119">
        <ele>75</ele>
        <time>2019-02-03T09:14:40.000Z</time>
      </trkpt>
      <trkpt lat="46.81048" lon="0.34122">
        <ele>75</ele>
        <time>2019-02-03T09:14:41.000Z</time>
      </trkpt>
      <trkpt lat="46.81052" lon="0.34125">
        <ele>75</ele>
        <time>2019-02-03T09:14:42.000Z</time>
      </trkpt>
      <trkpt lat="46.81055" lon="0.34128">
        <ele>75</ele>
        <time>2019-02-03T09:14:43.000Z</time>
      </trkpt>
      <trkpt lat="46.81059" lon="0.34131">
        <ele>75</ele>
        <time>2019-02-03T09:14:44.000Z</time>
      </trkpt>
      <trkpt lat="46.81062" lon="0.34134">
        <ele>76</ele>
        <time>2019-02-03T09:14:45.000Z</time>
      </trkpt>
      <trkpt lat="46.81065" lon="0.34138">
        <ele>76</ele>
        <time>2019-02-03T09:14:46.000Z</time>
      </trkpt>
      <trkpt lat="46.81069" lon="0.34141">
        <ele>77</ele>
        <time>2019-02-03T09:14:47.000Z</time>
      </trkpt>
      <trkpt lat="46.81073" lon="0.34144">
        <ele>77</ele>
        <time>2019-02-03T09:14:48.000Z</time>
      </trkpt>
      <trkpt lat="46.81076" lon="0.34146">
        <ele>77</ele>
        <time>2019-02-03T09:14:49.000Z</time>
      </trkpt>
      <trkpt lat="46.81079" lon="0.34149">
        <ele>77</ele>
        <time>2019-02-03T09:14:50.000Z</time>
      </trkpt>
      <trkpt lat="46.81082" lon="0.34152">
        <ele>78</ele>
        <time>2019-02-03T09:14:51.000Z</time>
      </trkpt>
      <trkpt lat="46.81085" lon="0.34155">
        <ele>78</ele>
        <time>2019-02-03T09:14:52.000Z</time>
      </trkpt>
      <trkpt lat="46.81088" lon="0.34159">
        <ele>78</ele>
        <time>2019-02-03T09:14:53.000Z</time>
      </trkpt>
      <trkpt lat="46.81091" lon="0.34163">
        <ele>78</ele>
        <time>2019-02-03T09:14:54.000Z</time>
      </trkpt>
      <trkpt lat="46.81094" lon="0.34166">
        <ele>78</ele>
        <time>2019-02-03T09:14:55.000Z</time>
      </trkpt>
      <trkpt lat="46.81097" lon="0.3417">
        <ele>78</ele>
        <time>2019-02-03T09:14:56.000Z</time>
      </trkpt>
      <trkpt lat="46.811" lon="0.34173">
        <ele>77</ele>
        <time>2019-02-03T09:14:57.000Z</time>
      </trkpt>
      <trkpt lat="46.81103" lon="0.34177">
        <ele>76</ele>
        <time>2019-02-03T09:14:58.000Z</time>
      </trkpt>
      <trkpt lat="46.81107" lon="0.34181">
        <ele>75</ele>
        <time>2019-02-03T09:14:59.000Z</time>
      </trkpt>
      <trkpt lat="46.81111" lon="0.34184">
        <ele>76</ele>
        <time>2019-02-03T09:15:00.000Z</time>
      </trkpt>
      <trkpt lat="46.81115" lon="0.34186">
        <ele>76</ele>
        <time>2019-02-03T09:15:01.000Z</time>
      </trkpt>
      <trkpt lat="46.81119" lon="0.34189">
        <ele>76</ele>
        <time>2019-02-03T09:15:02.000Z</time>
      </trkpt>
      <trkpt lat="46.81124" lon="0.34191">
        <ele>76</ele>
        <time>2019-02-03T09:15:03.000Z</time>
      </trkpt>
      <trkpt lat="46.81128" lon="0.34193">
        <ele>76</ele>
        <time>2019-02-03T09:15:04.000Z</time>
      </trkpt>
      <trkpt lat="46.81132" lon="0.34195">
        <ele>76</ele>
        <time>2019-02-03T09:15:05.000Z</time>
      </trkpt>
      <trkpt lat="46.81137" lon="0.34197">
        <ele>77</ele>
        <time>2019-02-03T09:15:06.000Z</time>
      </trkpt>
      <trkpt lat="46.8114" lon="0.34199">
        <ele>77</ele>
        <time>2019-02-03T09:15:07.000Z</time>
      </trkpt>
      <trkpt lat="46.81144" lon="0.342">
        <ele>77</ele>
        <time>2019-02-03T09:15:08.000Z</time>
      </trkpt>
      <trkpt lat="46.81148" lon="0.34202">
        <ele>77</ele>
        <time>2019-02-03T09:15:09.000Z</time>
      </trkpt>
      <trkpt lat="46.81152" lon="0.34203">
        <ele>77</ele>
        <time>2019-02-03T09:15:10.000Z</time>
      </trkpt>
      <trkpt lat="46.81156" lon="0.34204">
        <ele>77</ele>
        <time>2019-02-03T09:15:11.000Z</time>
      </trkpt>
      <trkpt lat="46.81159" lon="0.34205">
        <ele>76</ele>
        <time>2019-02-03T09:15:12.000Z</time>
      </trkpt>
      <trkpt lat="46.81163" lon="0.34206">
        <ele>76</ele>
        <time>2019-02-03T09:15:13.000Z</time>
      </trkpt>
      <trkpt lat="46.81166" lon="0.34207">
        <ele>76</ele>
        <time>2019-02-03T09:15:14.000Z</time>
      </trkpt>
      <trkpt lat="46.81169" lon="0.34208">
        <ele>76</ele>
        <time>2019-02-03T09:15:15.000Z</time>
      </trkpt>
      <trkpt lat="46.81172" lon="0.34209">
        <ele>76</ele>
        <time>2019-02-03T09:15:16.000Z</time>
      </trkpt>
      <trkpt lat="46.81176" lon="0.3421">
        <ele>77</ele>
        <time>2019-02-03T09:15:17.000Z</time>
      </trkpt>
      <trkpt lat="46.81179" lon="0.34212">
        <ele>77</ele>
        <time>2019-02-03T09:15:18.000Z</time>
      </trkpt>
      <trkpt lat="46.81183" lon="0.34213">
        <ele>77</ele>
        <time>2019-02-03T09:15:19.000Z</time>
      </trkpt>
      <trkpt lat="46.81186" lon="0.34214">
        <ele>77</ele>
        <time>2019-02-03T09:15:20.000Z</time>
      </trkpt>
      <trkpt lat="46.81189" lon="0.34216">
        <ele>78</ele>
        <time>2019-02-03T09:15:21.000Z</time>
      </trkpt>
      <trkpt lat="46.81193" lon="0.34217">
        <ele>78</ele>
        <time>2019-02-03T09:15:22.000Z</time>
      </trkpt>
      <trkpt lat="46.81196" lon="0.34218">
        <ele>79</ele>
        <time>2019-02-03T09:15:23.000Z</time>
      </trkpt>
      <trkpt lat="46.81199" lon="0.34219">
        <ele>79</ele>
        <time>2019-02-03T09:15:24.000Z</time>
      </trkpt>
      <trkpt lat="46.81203" lon="0.3422">
        <ele>79</ele>
        <time>2019-02-03T09:15:25.000Z</time>
      </trkpt>
      <trkpt lat="46.81207" lon="0.34221">
        <ele>80</ele>
        <time>2019-02-03T09:15:26.000Z</time>
      </trkpt>
      <trkpt lat="46.81211" lon="0.34222">
        <ele>82</ele>
        <time>2019-02-03T09:15:27.000Z</time>
      </trkpt>
      <trkpt lat="46.81215" lon="0.34223">
        <ele>82</ele>
        <time>2019-02-03T09:15:28.000Z</time>
      </trkpt>
      <trkpt lat="46.81219" lon="0.34224">
        <ele>80</ele>
        <time>2019-02-03T09:15:29.000Z</time>
      </trkpt>
      <trkpt lat="46.81223" lon="0.34225">
        <ele>80</ele>
        <time>2019-02-03T09:15:30.000Z</time>
      </trkpt>
      <trkpt lat="46.81228" lon="0.34226">
        <ele>80</ele>
        <time>2019-02-03T09:15:31.000Z</time>
      </trkpt>
      <trkpt lat="46.81231" lon="0.34227">
        <ele>81</ele>
        <time>2019-02-03T09:15:32.000Z</time>
      </trkpt>
      <trkpt lat="46.81235" lon="0.34228">
        <ele>82</ele>
        <time>2019-02-03T09:15:33.000Z</time>
      </trkpt>
      <trkpt lat="46.8124" lon="0.3423">
        <ele>83</ele>
        <time>2019-02-03T09:15:34.000Z</time>
      </trkpt>
      <trkpt lat="46.81244" lon="0.34231">
        <ele>83</ele>
        <time>2019-02-03T09:15:35.000Z</time>
      </trkpt>
      <trkpt lat="46.81248" lon="0.34231">
        <ele>84</ele>
        <time>2019-02-03T09:15:36.000Z</time>
      </trkpt>
      <trkpt lat="46.81252" lon="0.34232">
        <ele>85</ele>
        <time>2019-02-03T09:15:37.000Z</time>
      </trkpt>
      <trkpt lat="46.81255" lon="0.34233">
        <ele>86</ele>
        <time>2019-02-03T09:15:38.000Z</time>
      </trkpt>
      <trkpt lat="46.81259" lon="0.34234">
        <ele>86</ele>
        <time>2019-02-03T09:15:39.000Z</time>
      </trkpt>
      <trkpt lat="46.81262" lon="0.34235">
        <ele>86</ele>
        <time>2019-02-03T09:15:40.000Z</time>
      </trkpt>
      <trkpt lat="46.81265" lon="0.34237">
        <ele>86</ele>
        <time>2019-02-03T09:15:41.000Z</time>
      </trkpt>
      <trkpt lat="46.81269" lon="0.34237">
        <ele>86</ele>
        <time>2019-02-03T09:15:42.000Z</time>
      </trkpt>
      <trkpt lat="46.81273" lon="0.34238">
        <ele>86</ele>
        <time>2019-02-03T09:15:43.000Z</time>
      </trkpt>
      <trkpt lat="46.81277" lon="0.34238">
        <ele>86</ele>
        <time>2019-02-03T09:15:44.000Z</time>
      </trkpt>
      <trkpt lat="46.81282" lon="0.3424">
        <ele>87</ele>
        <time>2019-02-03T09:15:45.000Z</time>
      </trkpt>
      <trkpt lat="46.81286" lon="0.34241">
        <ele>86</ele>
        <time>2019-02-03T09:15:46.000Z</time>
      </trkpt>
      <trkpt lat="46.81291" lon="0.34242">
        <ele>86</ele>
        <time>2019-02-03T09:15:47.000Z</time>
      </trkpt>
      <trkpt lat="46.81295" lon="0.34243">
        <ele>86</ele>
        <time>2019-02-03T09:15:48.000Z</time>
      </trkpt>
      <trkpt lat="46.81298" lon="0.34244">
        <ele>85</ele>
        <time>2019-02-03T09:15:49.000Z</time>
      </trkpt>
      <trkpt lat="46.81302" lon="0.34246">
        <ele>85</ele>
        <time>2019-02-03T09:15:50.000Z</time>
      </trkpt>
      <trkpt lat="46.81305" lon="0.34248">
        <ele>84</ele>
        <time>2019-02-03T09:15:51.000Z</time>
      </trkpt>
      <trkpt lat="46.81308" lon="0.3425">
        <ele>85</ele>
        <time>2019-02-03T09:15:52.000Z</time>
      </trkpt>
      <trkpt lat="46.81311" lon="0.34252">
        <ele>86</ele>
        <time>2019-02-03T09:15:53.000Z</time>
      </trkpt>
      <trkpt lat="46.81314" lon="0.34254">
        <ele>86</ele>
        <time>2019-02-03T09:15:54.000Z</time>
      </trkpt>
      <trkpt lat="46.81317" lon="0.34255">
        <ele>86</ele>
        <time>2019-02-03T09:15:55.000Z</time>
      </trkpt>
      <trkpt lat="46.8132" lon="0.34256">
        <ele>87</ele>
        <time>2019-02-03T09:15:56.000Z</time>
      </trkpt>
      <trkpt lat="46.81324" lon="0.34257">
        <ele>88</ele>
        <time>2019-02-03T09:15:57.000Z</time>
      </trkpt>
      <trkpt lat="46.81327" lon="0.34258">
        <ele>88</ele>
        <time>2019-02-03T09:15:58.000Z</time>
      </trkpt>
      <trkpt lat="46.81331" lon="0.34259">
        <ele>88</ele>
        <time>2019-02-03T09:15:59.000Z</time>
      </trkpt>
      <trkpt lat="46.81334" lon="0.34259">
        <ele>88</ele>
        <time>2019-02-03T09:16:00.000Z</time>
      </trkpt>
      <trkpt lat="46.81338" lon="0.3426">
        <ele>88</ele>
        <time>2019-02-03T09:16:01.000Z</time>
      </trkpt>
      <trkpt lat="46.8134" lon="0.34263">
        <ele>88</ele>
        <time>2019-02-03T09:16:02.000Z</time>
      </trkpt>
      <trkpt lat="46.81343" lon="0.34266">
        <ele>88</ele>
        <time>2019-02-03T09:16:03.000Z</time>
      </trkpt>
      <trkpt lat="46.81345" lon="0.3427">
        <ele>91</ele>
        <time>2019-02-03T09:16:04.000Z</time>
      </trkpt>
      <trkpt lat="46.81346" lon="0.34274">
        <ele>92</ele>
        <time>2019-02-03T09:16:05.000Z</time>
      </trkpt>
      <trkpt lat="46.81347" lon="0.34278">
        <ele>92</ele>
        <time>2019-02-03T09:16:06.000Z</time>
      </trkpt>
      <trkpt lat="46.81347" lon="0.34283">
        <ele>90</ele>
        <time>2019-02-03T09:16:07.000Z</time>
      </trkpt>
      <trkpt lat="46.81346" lon="0.34289">
        <ele>89</ele>
        <time>2019-02-03T09:16:08.000Z</time>
      </trkpt>
      <trkpt lat="46.81346" lon="0.34294">
        <ele>88</ele>
        <time>2019-02-03T09:16:09.000Z</time>
      </trkpt>
      <trkpt lat="46.81346" lon="0.343">
        <ele>89</ele>
        <time>2019-02-03T09:16:10.000Z</time>
      </trkpt>
      <trkpt lat="46.81346" lon="0.34305">
        <ele>88</ele>
        <time>2019-02-03T09:16:11.000Z</time>
      </trkpt>
      <trkpt lat="46.81346" lon="0.34309">
        <ele>88</ele>
        <time>2019-02-03T09:16:12.000Z</time>
      </trkpt>
      <trkpt lat="46.81346" lon="0.34314">
        <ele>88</ele>
        <time>2019-02-03T09:16:13.000Z</time>
      </trkpt>
      <trkpt lat="46.81346" lon="0.34319">
        <ele>88</ele>
        <time>2019-02-03T09:16:14.000Z</time>
      </trkpt>
      <trkpt lat="46.81346" lon="0.34324">
        <ele>87</ele>
        <time>2019-02-03T09:16:15.000Z</time>
      </trkpt>
      <trkpt lat="46.81346" lon="0.34329">
        <ele>85</ele>
        <time>2019-02-03T09:16:16.000Z</time>
      </trkpt>
      <trkpt lat="46.81347" lon="0.34334">
        <ele>84</ele>
        <time>2019-02-03T09:16:17.000Z</time>
      </trkpt>
      <trkpt lat="46.81347" lon="0.3434">
        <ele>83</ele>
        <time>2019-02-03T09:16:18.000Z</time>
      </trkpt>
      <trkpt lat="46.81347" lon="0.34345">
        <ele>82</ele>
        <time>2019-02-03T09:16:19.000Z</time>
      </trkpt>
      <trkpt lat="46.81347" lon="0.34351">
        <ele>81</ele>
        <time>2019-02-03T09:16:20.000Z</time>
      </trkpt>
      <trkpt lat="46.81347" lon="0.34356">
        <ele>80</ele>
        <time>2019-02-03T09:16:21.000Z</time>
      </trkpt>
      <trkpt lat="46.81348" lon="0.34362">
        <ele>79</ele>
        <time>2019-02-03T09:16:22.000Z</time>
      </trkpt>
      <trkpt lat="46.81348" lon="0.34368">
        <ele>78</ele>
        <time>2019-02-03T09:16:23.000Z</time>
      </trkpt>
      <trkpt lat="46.81348" lon="0.34374">
        <ele>77</ele>
        <time>2019-02-03T09:16:24.000Z</time>
      </trkpt>
      <trkpt lat="46.81348" lon="0.3438">
        <ele>76</ele>
        <time>2019-02-03T09:16:25.000Z</time>
      </trkpt>
      <trkpt lat="46.81348" lon="0.34385">
        <ele>76</ele>
        <time>2019-02-03T09:16:26.000Z</time>
      </trkpt>
      <trkpt lat="46.81348" lon="0.3439">
        <ele>76</ele>
        <time>2019-02-03T09:16:27.000Z</time>
      </trkpt>
      <trkpt lat="46.81348" lon="0.34396">
        <ele>76</ele>
        <time>2019-02-03T09:16:28.000Z</time>
      </trkpt>
      <trkpt lat="46.81348" lon="0.34401">
        <ele>76</ele>
        <time>2019-02-03T09:16:29.000Z</time>
      </trkpt>
      <trkpt lat="46.81347" lon="0.34407">
        <ele>76</ele>
        <time>2019-02-03T09:16:30.000Z</time>
      </trkpt>
      <trkpt lat="46.81347" lon="0.34413">
        <ele>76</ele>
        <time>2019-02-03T09:16:31.000Z</time>
      </trkpt>
      <trkpt lat="46.81347" lon="0.34418">
        <ele>77</ele>
        <time>2019-02-03T09:16:32.000Z</time>
      </trkpt>
      <trkpt lat="46.81347" lon="0.34423">
        <ele>77</ele>
        <time>2019-02-03T09:16:33.000Z</time>
      </trkpt>
      <trkpt lat="46.81347" lon="0.34428">
        <ele>78</ele>
        <time>2019-02-03T09:16:34.000Z</time>
      </trkpt>
      <trkpt lat="46.81346" lon="0.34434">
        <ele>79</ele>
        <time>2019-02-03T09:16:35.000Z</time>
      </trkpt>
      <trkpt lat="46.81346" lon="0.34439">
        <ele>78</ele>
        <time>2019-02-03T09:16:36.000Z</time>
      </trkpt>
      <trkpt lat="46.81345" lon="0.34445">
        <ele>79</ele>
        <time>2019-02-03T09:16:37.000Z</time>
      </trkpt>
      <trkpt lat="46.81345" lon="0.3445">
        <ele>79</ele>
        <time>2019-02-03T09:16:38.000Z</time>
      </trkpt>
      <trkpt lat="46.81345" lon="0.34455">
        <ele>79</ele>
        <time>2019-02-03T09:16:39.000Z</time>
      </trkpt>
      <trkpt lat="46.81345" lon="0.34461">
        <ele>80</ele>
        <time>2019-02-03T09:16:40.000Z</time>
      </trkpt>
      <trkpt lat="46.81345" lon="0.34466">
        <ele>81</ele>
        <time>2019-02-03T09:16:41.000Z</time>
      </trkpt>
      <trkpt lat="46.81345" lon="0.34472">
        <ele>82</ele>
        <time>2019-02-03T09:16:42.000Z</time>
      </trkpt>
      <trkpt lat="46.81345" lon="0.34477">
        <ele>81</ele>
        <time>2019-02-03T09:16:43.000Z</time>
      </trkpt>
      <trkpt lat="46.81345" lon="0.34482">
        <ele>81</ele>
        <time>2019-02-03T09:16:44.000Z</time>
      </trkpt>
      <trkpt lat="46.81346" lon="0.34488">
        <ele>80</ele>
        <time>2019-02-03T09:16:45.000Z</time>
      </trkpt>
      <trkpt lat="46.81346" lon="0.34493">
        <ele>79</ele>
        <time>2019-02-03T09:16:46.000Z</time>
      </trkpt>
      <trkpt lat="46.81347" lon="0.34498">
        <ele>78</ele>
        <time>2019-02-03T09:16:47.000Z</time>
      </trkpt>
      <trkpt lat="46.81348" lon="0.34503">
        <ele>77</ele>
        <time>2019-02-03T09:16:48.000Z</time>
      </trkpt>
      <trkpt lat="46.81349" lon="0.34508">
        <ele>77</ele>
        <time>2019-02-03T09:16:49.000Z</time>
      </trkpt>
      <trkpt lat="46.81349" lon="0.34513">
        <ele>77</ele>
        <time>2019-02-03T09:16:50.000Z</time>
      </trkpt>
      <trkpt lat="46.8135" lon="0.34518">
        <ele>76</ele>
        <time>2019-02-03T09:16:51.000Z</time>
      </trkpt>
      <trkpt lat="46.81352" lon="0.34523">
        <ele>76</ele>
        <time>2019-02-03T09:16:52.000Z</time>
      </trkpt>
      <trkpt lat="46.81353" lon="0.34527">
        <ele>76</ele>
        <time>2019-02-03T09:16:53.000Z</time>
      </trkpt>
      <trkpt lat="46.81354" lon="0.34532">
        <ele>76</ele>
        <time>2019-02-03T09:16:54.000Z</time>
      </trkpt>
      <trkpt lat="46.81356" lon="0.34537">
        <ele>76</ele>
        <time>2019-02-03T09:16:55.000Z</time>
      </trkpt>
      <trkpt lat="46.81357" lon="0.34542">
        <ele>77</ele>
        <time>2019-02-03T09:16:56.000Z</time>
      </trkpt>
      <trkpt lat="46.81359" lon="0.34547">
        <ele>77</ele>
        <time>2019-02-03T09:16:57.000Z</time>
      </trkpt>
      <trkpt lat="46.81361" lon="0.34551">
        <ele>77</ele>
        <time>2019-02-03T09:16:58.000Z</time>
      </trkpt>
      <trkpt lat="46.81362" lon="0.34556">
        <ele>78</ele>
        <time>2019-02-03T09:16:59.000Z</time>
      </trkpt>
      <trkpt lat="46.81364" lon="0.3456">
        <ele>78</ele>
        <time>2019-02-03T09:17:00.000Z</time>
      </trkpt>
      <trkpt lat="46.81365" lon="0.34564">
        <ele>78</ele>
        <time>2019-02-03T09:17:01.000Z</time>
      </trkpt>
      <trkpt lat="46.81366" lon="0.34568">
        <ele>78</ele>
        <time>2019-02-03T09:17:02.000Z</time>
      </trkpt>
      <trkpt lat="46.81368" lon="0.34572">
        <ele>78</ele>
        <time>2019-02-03T09:17:03.000Z</time>
      </trkpt>
      <trkpt lat="46.81369" lon="0.34576">
        <ele>78</ele>
        <time>2019-02-03T09:17:04.000Z</time>
      </trkpt>
      <trkpt lat="46.81371" lon="0.3458">
        <ele>78</ele>
        <time>2019-02-03T09:17:05.000Z</time>
      </trkpt>
      <trkpt lat="46.81373" lon="0.34584">
        <ele>78</ele>
        <time>2019-02-03T09:17:06.000Z</time>
      </trkpt>
      <trkpt lat="46.81374" lon="0.34589">
        <ele>78</ele>
        <time>2019-02-03T09:17:07.000Z</time>
      </trkpt>
      <trkpt lat="46.81376" lon="0.34594">
        <ele>79</ele>
        <time>2019-02-03T09:17:08.000Z</time>
      </trkpt>
      <trkpt lat="46.81377" lon="0.346">
        <ele>79</ele>
        <time>2019-02-03T09:17:09.000Z</time>
      </trkpt>
      <trkpt lat="46.81378" lon="0.34605">
        <ele>80</ele>
        <time>2019-02-03T09:17:10.000Z</time>
      </trkpt>
      <trkpt lat="46.81379" lon="0.34609">
        <ele>80</ele>
        <time>2019-02-03T09:17:11.000Z</time>
      </trkpt>
      <trkpt lat="46.8138" lon="0.34614">
        <ele>80</ele>
        <time>2019-02-03T09:17:12.000Z</time>
      </trkpt>
      <trkpt lat="46.81381" lon="0.34619">
        <ele>81</ele>
        <time>2019-02-03T09:17:13.000Z</time>
      </trkpt>
      <trkpt lat="46.81382" lon="0.34624">
        <ele>82</ele>
        <time>2019-02-03T09:17:14.000Z</time>
      </trkpt>
      <trkpt lat="46.81384" lon="0.34629">
        <ele>82</ele>
        <time>2019-02-03T09:17:15.000Z</time>
      </trkpt>
      <trkpt lat="46.81385" lon="0.34634">
        <ele>82</ele>
        <time>2019-02-03T09:17:16.000Z</time>
      </trkpt>
      <trkpt lat="46.81387" lon="0.34639">
        <ele>82</ele>
        <time>2019-02-03T09:17:17.000Z</time>
      </trkpt>
      <trkpt lat="46.81388" lon="0.34643">
        <ele>82</ele>
        <time>2019-02-03T09:17:18.000Z</time>
      </trkpt>
      <trkpt lat="46.8139" lon="0.34648">
        <ele>82</ele>
        <time>2019-02-03T09:17:19.000Z</time>
      </trkpt>
      <trkpt lat="46.81391" lon="0.34653">
        <ele>83</ele>
        <time>2019-02-03T09:17:20.000Z</time>
      </trkpt>
      <trkpt lat="46.81393" lon="0.34658">
        <ele>82</ele>
        <time>2019-02-03T09:17:21.000Z</time>
      </trkpt>
      <trkpt lat="46.81395" lon="0.34663">
        <ele>83</ele>
        <time>2019-02-03T09:17:22.000Z</time>
      </trkpt>
      <trkpt lat="46.81397" lon="0.34668">
        <ele>83</ele>
        <time>2019-02-03T09:17:23.000Z</time>
      </trkpt>
      <trkpt lat="46.81398" lon="0.34673">
        <ele>84</ele>
        <time>2019-02-03T09:17:24.000Z</time>
      </trkpt>
      <trkpt lat="46.814" lon="0.34678">
        <ele>84</ele>
        <time>2019-02-03T09:17:25.000Z</time>
      </trkpt>
      <trkpt lat="46.81402" lon="0.34683">
        <ele>84</ele>
        <time>2019-02-03T09:17:26.000Z</time>
      </trkpt>
      <trkpt lat="46.81404" lon="0.34688">
        <ele>84</ele>
        <time>2019-02-03T09:17:27.000Z</time>
      </trkpt>
      <trkpt lat="46.81406" lon="0.34693">
        <ele>84</ele>
        <time>2019-02-03T09:17:28.000Z</time>
      </trkpt>
      <trkpt lat="46.81408" lon="0.34698">
        <ele>85</ele>
        <time>2019-02-03T09:17:29.000Z</time>
      </trkpt>
      <trkpt lat="46.81409" lon="0.34703">
        <ele>85</ele>
        <time>2019-02-03T09:17:30.000Z</time>
      </trkpt>
      <trkpt lat="46.81411" lon="0.34708">
        <ele>85</ele>
        <time>2019-02-03T09:17:31.000Z</time>
      </trkpt>
      <trkpt lat="46.81413" lon="0.34712">
        <ele>85</ele>
        <time>2019-02-03T09:17:32.000Z</time>
      </trkpt>
      <trkpt lat="46.81414" lon="0.34717">
        <ele>86</ele>
        <time>2019-02-03T09:17:33.000Z</time>
      </trkpt>
      <trkpt lat="46.81416" lon="0.34722">
        <ele>86</ele>
        <time>2019-02-03T09:17:34.000Z</time>
      </trkpt>
      <trkpt lat="46.81417" lon="0.34727">
        <ele>86</ele>
        <time>2019-02-03T09:17:35.000Z</time>
      </trkpt>
      <trkpt lat="46.81419" lon="0.34732">
        <ele>85</ele>
        <time>2019-02-03T09:17:36.000Z</time>
      </trkpt>
      <trkpt lat="46.8142" lon="0.34737">
        <ele>85</ele>
        <time>2019-02-03T09:17:37.000Z</time>
      </trkpt>
      <trkpt lat="46.81422" lon="0.34741">
        <ele>84</ele>
        <time>2019-02-03T09:17:38.000Z</time>
      </trkpt>
      <trkpt lat="46.81424" lon="0.34746">
        <ele>85</ele>
        <time>2019-02-03T09:17:39.000Z</time>
      </trkpt>
      <trkpt lat="46.81427" lon="0.34751">
        <ele>85</ele>
        <time>2019-02-03T09:17:40.000Z</time>
      </trkpt>
      <trkpt lat="46.81429" lon="0.34756">
        <ele>85</ele>
        <time>2019-02-03T09:17:41.000Z</time>
      </trkpt>
      <trkpt lat="46.81431" lon="0.34761">
        <ele>85</ele>
        <time>2019-02-03T09:17:42.000Z</time>
      </trkpt>
      <trkpt lat="46.81433" lon="0.34766">
        <ele>85</ele>
        <time>2019-02-03T09:17:43.000Z</time>
      </trkpt>
      <trkpt lat="46.81434" lon="0.34771">
        <ele>85</ele>
        <time>2019-02-03T09:17:44.000Z</time>
      </trkpt>
      <trkpt lat="46.81436" lon="0.34776">
        <ele>84</ele>
        <time>2019-02-03T09:17:45.000Z</time>
      </trkpt>
      <trkpt lat="46.81438" lon="0.34781">
        <ele>84</ele>
        <time>2019-02-03T09:17:46.000Z</time>
      </trkpt>
      <trkpt lat="46.8144" lon="0.34786">
        <ele>85</ele>
        <time>2019-02-03T09:17:47.000Z</time>
      </trkpt>
      <trkpt lat="46.81442" lon="0.34791">
        <ele>85</ele>
        <time>2019-02-03T09:17:48.000Z</time>
      </trkpt>
      <trkpt lat="46.81444" lon="0.34796">
        <ele>85</ele>
        <time>2019-02-03T09:17:49.000Z</time>
      </trkpt>
      <trkpt lat="46.81446" lon="0.34801">
        <ele>85</ele>
        <time>2019-02-03T09:17:50.000Z</time>
      </trkpt>
      <trkpt lat="46.81448" lon="0.34806">
        <ele>85</ele>
        <time>2019-02-03T09:17:51.000Z</time>
      </trkpt>
      <trkpt lat="46.8145" lon="0.34811">
        <ele>85</ele>
        <time>2019-02-03T09:17:52.000Z</time>
      </trkpt>
      <trkpt lat="46.81452" lon="0.34816">
        <ele>85</ele>
        <time>2019-02-03T09:17:53.000Z</time>
      </trkpt>
      <trkpt lat="46.81454" lon="0.34821">
        <ele>84</ele>
        <time>2019-02-03T09:17:54.000Z</time>
      </trkpt>
      <trkpt lat="46.81456" lon="0.34826">
        <ele>84</ele>
        <time>2019-02-03T09:17:55.000Z</time>
      </trkpt>
      <trkpt lat="46.81458" lon="0.34831">
        <ele>84</ele>
        <time>2019-02-03T09:17:56.000Z</time>
      </trkpt>
      <trkpt lat="46.81459" lon="0.34836">
        <ele>83</ele>
        <time>2019-02-03T09:17:57.000Z</time>
      </trkpt>
      <trkpt lat="46.81461" lon="0.34841">
        <ele>83</ele>
        <time>2019-02-03T09:17:58.000Z</time>
      </trkpt>
      <trkpt lat="46.81463" lon="0.34846">
        <ele>82</ele>
        <time>2019-02-03T09:17:59.000Z</time>
      </trkpt>
      <trkpt lat="46.81465" lon="0.34851">
        <ele>81</ele>
        <time>2019-02-03T09:18:00.000Z</time>
      </trkpt>
      <trkpt lat="46.81467" lon="0.34855">
        <ele>81</ele>
        <time>2019-02-03T09:18:01.000Z</time>
      </trkpt>
      <trkpt lat="46.81469" lon="0.3486">
        <ele>81</ele>
        <time>2019-02-03T09:18:02.000Z</time>
      </trkpt>
      <trkpt lat="46.81471" lon="0.34865">
        <ele>80</ele>
        <time>2019-02-03T09:18:03.000Z</time>
      </trkpt>
      <trkpt lat="46.81474" lon="0.34869">
        <ele>80</ele>
        <time>2019-02-03T09:18:04.000Z</time>
      </trkpt>
      <trkpt lat="46.81477" lon="0.34873">
        <ele>80</ele>
        <time>2019-02-03T09:18:05.000Z</time>
      </trkpt>
      <trkpt lat="46.81479" lon="0.34878">
        <ele>80</ele>
        <time>2019-02-03T09:18:06.000Z</time>
      </trkpt>
      <trkpt lat="46.81481" lon="0.34882">
        <ele>81</ele>
        <time>2019-02-03T09:18:07.000Z</time>
      </trkpt>
      <trkpt lat="46.81482" lon="0.34887">
        <ele>80</ele>
        <time>2019-02-03T09:18:08.000Z</time>
      </trkpt>
      <trkpt lat="46.81484" lon="0.34891">
        <ele>81</ele>
        <time>2019-02-03T09:18:09.000Z</time>
      </trkpt>
      <trkpt lat="46.81486" lon="0.34896">
        <ele>80</ele>
        <time>2019-02-03T09:18:10.000Z</time>
      </trkpt>
      <trkpt lat="46.81488" lon="0.34901">
        <ele>80</ele>
        <time>2019-02-03T09:18:11.000Z</time>
      </trkpt>
      <trkpt lat="46.8149" lon="0.34906">
        <ele>81</ele>
        <time>2019-02-03T09:18:12.000Z</time>
      </trkpt>
      <trkpt lat="46.81492" lon="0.34911">
        <ele>81</ele>
        <time>2019-02-03T09:18:13.000Z</time>
      </trkpt>
      <trkpt lat="46.81495" lon="0.34916">
        <ele>82</ele>
        <time>2019-02-03T09:18:14.000Z</time>
      </trkpt>
      <trkpt lat="46.81497" lon="0.34921">
        <ele>83</ele>
        <time>2019-02-03T09:18:15.000Z</time>
      </trkpt>
      <trkpt lat="46.81499" lon="0.34925">
        <ele>83</ele>
        <time>2019-02-03T09:18:16.000Z</time>
      </trkpt>
      <trkpt lat="46.81501" lon="0.3493">
        <ele>83</ele>
        <time>2019-02-03T09:18:17.000Z</time>
      </trkpt>
      <trkpt lat="46.81503" lon="0.34934">
        <ele>84</ele>
        <time>2019-02-03T09:18:18.000Z</time>
      </trkpt>
      <trkpt lat="46.81505" lon="0.34939">
        <ele>85</ele>
        <time>2019-02-03T09:18:19.000Z</time>
      </trkpt>
      <trkpt lat="46.81507" lon="0.34943">
        <ele>85</ele>
        <time>2019-02-03T09:18:20.000Z</time>
      </trkpt>
      <trkpt lat="46.81509" lon="0.34948">
        <ele>85</ele>
        <time>2019-02-03T09:18:21.000Z</time>
      </trkpt>
      <trkpt lat="46.81511" lon="0.34953">
        <ele>84</ele>
        <time>2019-02-03T09:18:22.000Z</time>
      </trkpt>
      <trkpt lat="46.81512" lon="0.34958">
        <ele>83</ele>
        <time>2019-02-03T09:18:23.000Z</time>
      </trkpt>
      <trkpt lat="46.81513" lon="0.34963">
        <ele>82</ele>
        <time>2019-02-03T09:18:24.000Z</time>
      </trkpt>
      <trkpt lat="46.81514" lon="0.34967">
        <ele>81</ele>
        <time>2019-02-03T09:18:25.000Z</time>
      </trkpt>
      <trkpt lat="46.81515" lon="0.34971">
        <ele>81</ele>
        <time>2019-02-03T09:18:26.000Z</time>
      </trkpt>
      <trkpt lat="46.81516" lon="0.34975">
        <ele>81</ele>
        <time>2019-02-03T09:18:27.000Z</time>
      </trkpt>
      <trkpt lat="46.81517" lon="0.34979">
        <ele>80</ele>
        <time>2019-02-03T09:18:28.000Z</time>
      </trkpt>
      <trkpt lat="46.81519" lon="0.34983">
        <ele>80</ele>
        <time>2019-02-03T09:18:29.000Z</time>
      </trkpt>
      <trkpt lat="46.81521" lon="0.34987">
        <ele>80</ele>
        <time>2019-02-03T09:18:30.000Z</time>
      </trkpt>
      <trkpt lat="46.81523" lon="0.34991">
        <ele>79</ele>
        <time>2019-02-03T09:18:31.000Z</time>
      </trkpt>
      <trkpt lat="46.81524" lon="0.34996">
        <ele>80</ele>
        <time>2019-02-03T09:18:32.000Z</time>
      </trkpt>
      <trkpt lat="46.81526" lon="0.35">
        <ele>80</ele>
        <time>2019-02-03T09:18:33.000Z</time>
      </trkpt>
      <trkpt lat="46.81528" lon="0.35003">
        <ele>80</ele>
        <time>2019-02-03T09:18:34.000Z</time>
      </trkpt>
      <trkpt lat="46.8153" lon="0.35007">
        <ele>79</ele>
        <time>2019-02-03T09:18:35.000Z</time>
      </trkpt>
      <trkpt lat="46.81531" lon="0.35011">
        <ele>81</ele>
        <time>2019-02-03T09:18:36.000Z</time>
      </trkpt>
      <trkpt lat="46.81533" lon="0.35015">
        <ele>82</ele>
        <time>2019-02-03T09:18:37.000Z</time>
      </trkpt>
      <trkpt lat="46.81534" lon="0.35018">
        <ele>82</ele>
        <time>2019-02-03T09:18:38.000Z</time>
      </trkpt>
      <trkpt lat="46.81535" lon="0.35021">
        <ele>82</ele>
        <time>2019-02-03T09:18:39.000Z</time>
      </trkpt>
      <trkpt lat="46.81536" lon="0.35024">
        <ele>82</ele>
        <time>2019-02-03T09:18:40.000Z</time>
      </trkpt>
      <trkpt lat="46.81537" lon="0.35026">
        <ele>84</ele>
        <time>2019-02-03T09:18:41.000Z</time>
      </trkpt>
      <trkpt lat="46.81537" lon="0.35028">
        <ele>84</ele>
        <time>2019-02-03T09:18:42.000Z</time>
      </trkpt>
      <trkpt lat="46.81537" lon="0.3503">
        <ele>85</ele>
        <time>2019-02-03T09:18:43.000Z</time>
      </trkpt>
      <trkpt lat="46.81538" lon="0.35031">
        <ele>86</ele>
        <time>2019-02-03T09:18:44.000Z</time>
      </trkpt>
      <trkpt lat="46.81538" lon="0.35031">
        <ele>86</ele>
        <time>2019-02-03T09:18:45.000Z</time>
      </trkpt>
      <trkpt lat="46.81538" lon="0.35032">
        <ele>85</ele>
        <time>2019-02-03T09:18:46.000Z</time>
      </trkpt>
      <trkpt lat="46.81538" lon="0.35032">
        <ele>85</ele>
        <time>2019-02-03T09:18:47.000Z</time>
      </trkpt>
      <trkpt lat="46.81539" lon="0.35032">
        <ele>86</ele>
        <time>2019-02-03T09:18:48.000Z</time>
      </trkpt>
      <trkpt lat="46.81539" lon="0.35033">
        <ele>86</ele>
        <time>2019-02-03T09:18:49.000Z</time>
      </trkpt>
      <trkpt lat="46.81539" lon="0.35033">
        <ele>86</ele>
        <time>2019-02-03T09:18:50.000Z</time>
      </trkpt>
      <trkpt lat="46.8154" lon="0.35033">
        <ele>86</ele>
        <time>2019-02-03T09:18:51.000Z</time>
      </trkpt>
      <trkpt lat="46.8154" lon="0.35034">
        <ele>86</ele>
        <time>2019-02-03T09:18:52.000Z</time>
      </trkpt>
      <trkpt lat="46.81541" lon="0.35034">
        <ele>87</ele>
        <time>2019-02-03T09:18:53.000Z</time>
      </trkpt>
      <trkpt lat="46.81541" lon="0.35034">
        <ele>86</ele>
        <time>2019-02-03T09:18:54.000Z</time>
      </trkpt>
      <trkpt lat="46.81541" lon="0.35034">
        <ele>87</ele>
        <time>2019-02-03T09:18:55.000Z</time>
      </trkpt>
      <trkpt lat="46.8154" lon="0.35034">
        <ele>86</ele>
        <time>2019-02-03T09:18:56.000Z</time>
      </trkpt>
      <trkpt lat="46.8154" lon="0.35034">
        <ele>86</ele>
        <time>2019-02-03T09:18:57.000Z</time>
      </trkpt>
      <trkpt lat="46.8154" lon="0.35034">
        <ele>86</ele>
        <time>2019-02-03T09:18:58.000Z</time>
      </trkpt>
      <trkpt lat="46.8154" lon="0.35034">
        <ele>86</ele>
        <time>2019-02-03T09:18:59.000Z</time>
      </trkpt>
      <trkpt lat="46.8154" lon="0.35034">
        <ele>86</ele>
        <time>2019-02-03T09:19:00.000Z</time>
      </trkpt>
      <trkpt lat="46.8154" lon="0.35034">
        <ele>87</ele>
        <time>2019-02-03T09:19:01.000Z</time>
      </trkpt>
      <trkpt lat="46.8154" lon="0.35034">
        <ele>88</ele>
        <time>2019-02-03T09:19:02.000Z</time>
      </trkpt>
      <trkpt lat="46.81541" lon="0.35035">
        <ele>88</ele>
        <time>2019-02-03T09:19:03.000Z</time>
      </trkpt>
      <trkpt lat="46.81541" lon="0.35035">
        <ele>88</ele>
        <time>2019-02-03T09:19:04.000Z</time>
      </trkpt>
      <trkpt lat="46.81541" lon="0.35035">
        <ele>88</ele>
        <time>2019-02-03T09:19:05.000Z</time>
      </trkpt>
      <trkpt lat="46.81541" lon="0.35035">
        <ele>88</ele>
        <time>2019-02-03T09:19:06.000Z</time>
      </trkpt>
      <trkpt lat="46.81541" lon="0.35035">
        <ele>88</ele>
        <time>2019-02-03T09:19:07.000Z</time>
      </trkpt>
      <trkpt lat="46.81541" lon="0.35035">
        <ele>89</ele>
        <time>2019-02-03T09:19:08.000Z</time>
      </trkpt>
      <trkpt lat="46.81541" lon="0.35036">
        <ele>89</ele>
        <time>2019-02-03T09:19:09.000Z</time>
      </trkpt>
      <trkpt lat="46.81541" lon="0.35036">
        <ele>90</ele>
        <time>2019-02-03T09:19:10.000Z</time>
      </trkpt>
      <trkpt lat="46.81542" lon="0.35036">
        <ele>90</ele>
        <time>2019-02-03T09:19:11.000Z</time>
      </trkpt>
      <trkpt lat="46.81542" lon="0.35036">
        <ele>90</ele>
        <time>2019-02-03T09:19:12.000Z</time>
      </trkpt>
      <trkpt lat="46.81542" lon="0.35036">
        <ele>90</ele>
        <time>2019-02-03T09:19:13.000Z</time>
      </trkpt>
      <trkpt lat="46.81541" lon="0.35036">
        <ele>89</ele>
        <time>2019-02-03T09:19:14.000Z</time>
      </trkpt>
      <trkpt lat="46.81541" lon="0.35036">
        <ele>89</ele>
        <time>2019-02-03T09:19:15.000Z</time>
      </trkpt>
      <trkpt lat="46.81541" lon="0.35036">
        <ele>90</ele>
        <time>2019-02-03T09:19:16.000Z</time>
      </trkpt>
      <trkpt lat="46.81541" lon="0.35036">
        <ele>90</ele>
        <time>2019-02-03T09:19:17.000Z</time>
      </trkpt>
      <trkpt lat="46.81541" lon="0.35036">
        <ele>90</ele>
        <time>2019-02-03T09:19:18.000Z</time>
      </trkpt>
      <trkpt lat="46.81541" lon="0.35036">
        <ele>89</ele>
        <time>2019-02-03T09:19:19.000Z</time>
      </trkpt>
      <trkpt lat="46.81541" lon="0.35036">
        <ele>89</ele>
        <time>2019-02-03T09:19:20.000Z</time>
      </trkpt>
      <trkpt lat="46.81541" lon="0.35036">
        <ele>89</ele>
        <time>2019-02-03T09:19:21.000Z</time>
      </trkpt>
      <trkpt lat="46.81541" lon="0.35036">
        <ele>89</ele>
        <time>2019-02-03T09:19:22.000Z</time>
      </trkpt>
      <trkpt lat="46.81541" lon="0.35035">
        <ele>89</ele>
        <time>2019-02-03T09:19:23.000Z</time>
      </trkpt>
      <trkpt lat="46.81541" lon="0.35035">
        <ele>89</ele>
        <time>2019-02-03T09:19:24.000Z</time>
      </trkpt>
      <trkpt lat="46.81541" lon="0.35035">
        <ele>88</ele>
        <time>2019-02-03T09:19:25.000Z</time>
      </trkpt>
      <trkpt lat="46.81541" lon="0.35035">
        <ele>88</ele>
        <time>2019-02-03T09:19:26.000Z</time>
      </trkpt>
      <trkpt lat="46.81541" lon="0.35036">
        <ele>88</ele>
        <time>2019-02-03T09:19:27.000Z</time>
      </trkpt>
      <trkpt lat="46.8154" lon="0.35036">
        <ele>88</ele>
        <time>2019-02-03T09:19:28.000Z</time>
      </trkpt>
      <trkpt lat="46.8154" lon="0.35036">
        <ele>88</ele>
        <time>2019-02-03T09:19:29.000Z</time>
      </trkpt>
      <trkpt lat="46.8154" lon="0.35036">
        <ele>88</ele>
        <time>2019-02-03T09:19:30.000Z</time>
      </trkpt>
      <trkpt lat="46.8154" lon="0.35036">
        <ele>88</ele>
        <time>2019-02-03T09:19:31.000Z</time>
      </trkpt>
      <trkpt lat="46.8154" lon="0.35036">
        <ele>88</ele>
        <time>2019-02-03T09:19:32.000Z</time>
      </trkpt>
      <trkpt lat="46.81539" lon="0.35036">
        <ele>88</ele>
        <time>2019-02-03T09:19:33.000Z</time>
      </trkpt>
      <trkpt lat="46.81539" lon="0.35036">
        <ele>88</ele>
        <time>2019-02-03T09:19:34.000Z</time>
      </trkpt>
      <trkpt lat="46.81539" lon="0.35035">
        <ele>88</ele>
        <time>2019-02-03T09:19:35.000Z</time>
      </trkpt>
      <trkpt lat="46.81539" lon="0.35035">
        <ele>88</ele>
        <time>2019-02-03T09:19:36.000Z</time>
      </trkpt>
      <trkpt lat="46.81539" lon="0.35035">
        <ele>88</ele>
        <time>2019-02-03T09:19:37.000Z</time>
      </trkpt>
      <trkpt lat="46.81539" lon="0.35035">
        <ele>88</ele>
        <time>2019-02-03T09:19:38.000Z</time>
      </trkpt>
      <trkpt lat="46.81539" lon="0.35035">
        <ele>88</ele>
        <time>2019-02-03T09:19:39.000Z</time>
      </trkpt>
      <trkpt lat="46.81539" lon="0.35035">
        <ele>88</ele>
        <time>2019-02-03T09:19:40.000Z</time>
      </trkpt>
      <trkpt lat="46.81539" lon="0.35035">
        <ele>88</ele>
        <time>2019-02-03T09:19:41.000Z</time>
      </trkpt>
      <trkpt lat="46.81539" lon="0.35035">
        <ele>88</ele>
        <time>2019-02-03T09:19:42.000Z</time>
      </trkpt>
      <trkpt lat="46.81539" lon="0.35035">
        <ele>88</ele>
        <time>2019-02-03T09:19:43.000Z</time>
      </trkpt>
      <trkpt lat="46.81539" lon="0.35035">
        <ele>88</ele>
        <time>2019-02-03T09:19:44.000Z</time>
      </trkpt>
      <trkpt lat="46.81539" lon="0.35035">
        <ele>88</ele>
        <time>2019-02-03T09:19:45.000Z</time>
      </trkpt>
      <trkpt lat="46.81539" lon="0.35035">
        <ele>88</ele>
        <time>2019-02-03T09:19:46.000Z</time>
      </trkpt>
      <trkpt lat="46.81539" lon="0.35035">
        <ele>88</ele>
        <time>2019-02-03T09:19:47.000Z</time>
      </trkpt>
      <trkpt lat="46.81539" lon="0.35035">
        <ele>88</ele>
        <time>2019-02-03T09:19:48.000Z</time>
      </trkpt>
      <trkpt lat="46.81539" lon="0.35035">
        <ele>88</ele>
        <time>2019-02-03T09:19:49.000Z</time>
      </trkpt>
      <trkpt lat="46.81539" lon="0.35035">
        <ele>89</ele>
        <time>2019-02-03T09:19:50.000Z</time>
      </trkpt>
      <trkpt lat="46.81538" lon="0.35035">
        <ele>89</ele>
        <time>2019-02-03T09:19:51.000Z</time>
      </trkpt>
      <trkpt lat="46.81538" lon="0.35035">
        <ele>89</ele>
        <time>2019-02-03T09:19:52.000Z</time>
      </trkpt>
      <trkpt lat="46.81538" lon="0.35035">
        <ele>89</ele>
        <time>2019-02-03T09:19:53.000Z</time>
      </trkpt>
      <trkpt lat="46.81538" lon="0.35035">
        <ele>88</ele>
        <time>2019-02-03T09:19:54.000Z</time>
      </trkpt>
      <trkpt lat="46.81538" lon="0.35036">
        <ele>88</ele>
        <time>2019-02-03T09:19:55.000Z</time>
      </trkpt>
      <trkpt lat="46.81538" lon="0.35036">
        <ele>88</ele>
        <time>2019-02-03T09:19:56.000Z</time>
      </trkpt>
      <trkpt lat="46.81538" lon="0.35036">
        <ele>88</ele>
        <time>2019-02-03T09:19:57.000Z</time>
      </trkpt>
      <trkpt lat="46.81538" lon="0.35036">
        <ele>88</ele>
        <time>2019-02-03T09:19:58.000Z</time>
      </trkpt>
      <trkpt lat="46.81538" lon="0.35036">
        <ele>88</ele>
        <time>2019-02-03T09:19:59.000Z</time>
      </trkpt>
      <trkpt lat="46.81537" lon="0.35036">
        <ele>88</ele>
        <time>2019-02-03T09:20:00.000Z</time>
      </trkpt>
      <trkpt lat="46.81537" lon="0.35036">
        <ele>88</ele>
        <time>2019-02-03T09:20:01.000Z</time>
      </trkpt>
      <trkpt lat="46.81537" lon="0.35036">
        <ele>87</ele>
        <time>2019-02-03T09:20:02.000Z</time>
      </trkpt>
      <trkpt lat="46.81537" lon="0.35035">
        <ele>88</ele>
        <time>2019-02-03T09:20:03.000Z</time>
      </trkpt>
      <trkpt lat="46.81537" lon="0.35035">
        <ele>88</ele>
        <time>2019-02-03T09:20:04.000Z</time>
      </trkpt>
      <trkpt lat="46.81537" lon="0.35036">
        <ele>88</ele>
        <time>2019-02-03T09:20:05.000Z</time>
      </trkpt>
      <trkpt lat="46.81537" lon="0.35036">
        <ele>88</ele>
        <time>2019-02-03T09:20:06.000Z</time>
      </trkpt>
      <trkpt lat="46.81537" lon="0.35036">
        <ele>88</ele>
        <time>2019-02-03T09:20:07.000Z</time>
      </trkpt>
      <trkpt lat="46.81537" lon="0.35036">
        <ele>88</ele>
        <time>2019-02-03T09:20:08.000Z</time>
      </trkpt>
      <trkpt lat="46.81537" lon="0.35036">
        <ele>88</ele>
        <time>2019-02-03T09:20:09.000Z</time>
      </trkpt>
      <trkpt lat="46.81537" lon="0.35036">
        <ele>88</ele>
        <time>2019-02-03T09:20:10.000Z</time>
      </trkpt>
      <trkpt lat="46.81537" lon="0.35036">
        <ele>88</ele>
        <time>2019-02-03T09:20:11.000Z</time>
      </trkpt>
      <trkpt lat="46.81537" lon="0.35036">
        <ele>88</ele>
        <time>2019-02-03T09:20:12.000Z</time>
      </trkpt>
      <trkpt lat="46.81538" lon="0.35036">
        <ele>88</ele>
        <time>2019-02-03T09:20:13.000Z</time>
      </trkpt>
      <trkpt lat="46.81538" lon="0.35036">
        <ele>88</ele>
        <time>2019-02-03T09:20:14.000Z</time>
      </trkpt>
      <trkpt lat="46.81538" lon="0.35036">
        <ele>88</ele>
        <time>2019-02-03T09:20:15.000Z</time>
      </trkpt>
      <trkpt lat="46.81538" lon="0.35036">
        <ele>88</ele>
        <time>2019-02-03T09:20:16.000Z</time>
      </trkpt>
      <trkpt lat="46.81538" lon="0.35036">
        <ele>88</ele>
        <time>2019-02-03T09:20:17.000Z</time>
      </trkpt>
      <trkpt lat="46.81538" lon="0.35036">
        <ele>87</ele>
        <time>2019-02-03T09:20:18.000Z</time>
      </trkpt>
      <trkpt lat="46.81538" lon="0.35037">
        <ele>87</ele>
        <time>2019-02-03T09:20:19.000Z</time>
      </trkpt>
      <trkpt lat="46.81538" lon="0.35037">
        <ele>87</ele>
        <time>2019-02-03T09:20:20.000Z</time>
      </trkpt>
      <trkpt lat="46.81538" lon="0.35037">
        <ele>87</ele>
        <time>2019-02-03T09:20:21.000Z</time>
      </trkpt>
      <trkpt lat="46.81538" lon="0.35037">
        <ele>87</ele>
        <time>2019-02-03T09:20:22.000Z</time>
      </trkpt>
      <trkpt lat="46.81538" lon="0.35037">
        <ele>87</ele>
        <time>2019-02-03T09:20:23.000Z</time>
      </trkpt>
      <trkpt lat="46.81538" lon="0.35037">
        <ele>87</ele>
        <time>2019-02-03T09:20:24.000Z</time>
      </trkpt>
      <trkpt lat="46.81538" lon="0.35037">
        <ele>87</ele>
        <time>2019-02-03T09:20:25.000Z</time>
      </trkpt>
      <trkpt lat="46.81538" lon="0.35037">
        <ele>87</ele>
        <time>2019-02-03T09:20:26.000Z</time>
      </trkpt>
      <trkpt lat="46.81538" lon="0.35037">
        <ele>87</ele>
        <time>2019-02-03T09:20:27.000Z</time>
      </trkpt>
      <trkpt lat="46.81538" lon="0.35037">
        <ele>87</ele>
        <time>2019-02-03T09:20:28.000Z</time>
      </trkpt>
      <trkpt lat="46.81538" lon="0.35037">
        <ele>87</ele>
        <time>2019-02-03T09:20:29.000Z</time>
      </trkpt>
      <trkpt lat="46.81538" lon="0.35037">
        <ele>88</ele>
        <time>2019-02-03T09:20:30.000Z</time>
      </trkpt>
      <trkpt lat="46.81538" lon="0.35037">
        <ele>87</ele>
        <time>2019-02-03T09:20:31.000Z</time>
      </trkpt>
      <trkpt lat="46.81538" lon="0.35037">
        <ele>87</ele>
        <time>2019-02-03T09:20:32.000Z</time>
      </trkpt>
      <trkpt lat="46.81538" lon="0.35037">
        <ele>87</ele>
        <time>2019-02-03T09:20:33.000Z</time>
      </trkpt>
      <trkpt lat="46.81538" lon="0.35037">
        <ele>87</ele>
        <time>2019-02-03T09:20:34.000Z</time>
      </trkpt>
      <trkpt lat="46.81538" lon="0.35037">
        <ele>87</ele>
        <time>2019-02-03T09:20:35.000Z</time>
      </trkpt>
      <trkpt lat="46.81538" lon="0.35037">
        <ele>87</ele>
        <time>2019-02-03T09:20:36.000Z</time>
      </trkpt>
      <trkpt lat="46.81538" lon="0.35037">
        <ele>87</ele>
        <time>2019-02-03T09:20:37.000Z</time>
      </trkpt>
      <trkpt lat="46.81538" lon="0.35037">
        <ele>87</ele>
        <time>2019-02-03T09:20:38.000Z</time>
      </trkpt>
      <trkpt lat="46.81538" lon="0.35037">
        <ele>87</ele>
        <time>2019-02-03T09:20:39.000Z</time>
      </trkpt>
      <trkpt lat="46.81538" lon="0.35037">
        <ele>87</ele>
        <time>2019-02-03T09:20:40.000Z</time>
      </trkpt>
      <trkpt lat="46.81538" lon="0.35037">
        <ele>87</ele>
        <time>2019-02-03T09:20:41.000Z</time>
      </trkpt>
      <trkpt lat="46.81538" lon="0.35037">
        <ele>87</ele>
        <time>2019-02-03T09:20:42.000Z</time>
      </trkpt>
      <trkpt lat="46.81538" lon="0.35037">
        <ele>86</ele>
        <time>2019-02-03T09:20:43.000Z</time>
      </trkpt>
      <trkpt lat="46.81538" lon="0.35037">
        <ele>86</ele>
        <time>2019-02-03T09:20:44.000Z</time>
      </trkpt>
      <trkpt lat="46.81538" lon="0.35036">
        <ele>86</ele>
        <time>2019-02-03T09:20:45.000Z</time>
      </trkpt>
      <trkpt lat="46.81538" lon="0.35036">
        <ele>86</ele>
        <time>2019-02-03T09:20:46.000Z</time>
      </trkpt>
      <trkpt lat="46.81538" lon="0.35036">
        <ele>86</ele>
        <time>2019-02-03T09:20:47.000Z</time>
      </trkpt>
      <trkpt lat="46.81538" lon="0.35035">
        <ele>85</ele>
        <time>2019-02-03T09:20:48.000Z</time>
      </trkpt>
      <trkpt lat="46.81538" lon="0.35035">
        <ele>85</ele>
        <time>2019-02-03T09:20:49.000Z</time>
      </trkpt>
      <trkpt lat="46.81538" lon="0.35035">
        <ele>85</ele>
        <time>2019-02-03T09:20:50.000Z</time>
      </trkpt>
      <trkpt lat="46.81539" lon="0.35035">
        <ele>85</ele>
        <time>2019-02-03T09:20:51.000Z</time>
      </trkpt>
      <trkpt lat="46.81539" lon="0.35035">
        <ele>85</ele>
        <time>2019-02-03T09:20:52.000Z</time>
      </trkpt>
      <trkpt lat="46.81539" lon="0.35034">
        <ele>85</ele>
        <time>2019-02-03T09:20:53.000Z</time>
      </trkpt>
      <trkpt lat="46.81539" lon="0.35034">
        <ele>85</ele>
        <time>2019-02-03T09:20:54.000Z</time>
      </trkpt>
      <trkpt lat="46.81539" lon="0.35034">
        <ele>85</ele>
        <time>2019-02-03T09:20:55.000Z</time>
      </trkpt>
      <trkpt lat="46.81539" lon="0.35034">
        <ele>85</ele>
        <time>2019-02-03T09:20:56.000Z</time>
      </trkpt>
      <trkpt lat="46.81539" lon="0.35034">
        <ele>85</ele>
        <time>2019-02-03T09:20:57.000Z</time>
      </trkpt>
      <trkpt lat="46.81539" lon="0.35034">
        <ele>85</ele>
        <time>2019-02-03T09:20:58.000Z</time>
      </trkpt>
      <trkpt lat="46.81539" lon="0.35034">
        <ele>85</ele>
        <time>2019-02-03T09:20:59.000Z</time>
      </trkpt>
      <trkpt lat="46.81539" lon="0.35034">
        <ele>85</ele>
        <time>2019-02-03T09:21:00.000Z</time>
      </trkpt>
      <trkpt lat="46.81538" lon="0.35034">
        <ele>86</ele>
        <time>2019-02-03T09:21:01.000Z</time>
      </trkpt>
      <trkpt lat="46.81538" lon="0.35034">
        <ele>85</ele>
        <time>2019-02-03T09:21:02.000Z</time>
      </trkpt>
      <trkpt lat="46.81539" lon="0.35034">
        <ele>86</ele>
        <time>2019-02-03T09:21:03.000Z</time>
      </trkpt>
      <trkpt lat="46.81539" lon="0.35034">
        <ele>86</ele>
        <time>2019-02-03T09:21:04.000Z</time>
      </trkpt>
      <trkpt lat="46.81539" lon="0.35034">
        <ele>85</ele>
        <time>2019-02-03T09:21:05.000Z</time>
      </trkpt>
      <trkpt lat="46.81539" lon="0.35034">
        <ele>85</ele>
        <time>2019-02-03T09:21:06.000Z</time>
      </trkpt>
      <trkpt lat="46.81539" lon="0.35034">
        <ele>85</ele>
        <time>2019-02-03T09:21:07.000Z</time>
      </trkpt>
      <trkpt lat="46.81539" lon="0.35034">
        <ele>85</ele>
        <time>2019-02-03T09:21:08.000Z</time>
      </trkpt>
      <trkpt lat="46.81539" lon="0.35034">
        <ele>85</ele>
        <time>2019-02-03T09:21:09.000Z</time>
      </trkpt>
      <trkpt lat="46.81539" lon="0.35034">
        <ele>85</ele>
        <time>2019-02-03T09:21:10.000Z</time>
      </trkpt>
      <trkpt lat="46.81539" lon="0.35034">
        <ele>85</ele>
        <time>2019-02-03T09:21:11.000Z</time>
      </trkpt>
      <trkpt lat="46.81539" lon="0.35033">
        <ele>85</ele>
        <time>2019-02-03T09:21:12.000Z</time>
      </trkpt>
      <trkpt lat="46.81539" lon="0.35033">
        <ele>85</ele>
        <time>2019-02-03T09:21:13.000Z</time>
      </trkpt>
      <trkpt lat="46.81539" lon="0.35034">
        <ele>85</ele>
        <time>2019-02-03T09:21:14.000Z</time>
      </trkpt>
      <trkpt lat="46.81539" lon="0.35034">
        <ele>85</ele>
        <time>2019-02-03T09:21:15.000Z</time>
      </trkpt>
      <trkpt lat="46.81539" lon="0.35034">
        <ele>85</ele>
        <time>2019-02-03T09:21:16.000Z</time>
      </trkpt>
      <trkpt lat="46.81539" lon="0.35034">
        <ele>85</ele>
        <time>2019-02-03T09:21:17.000Z</time>
      </trkpt>
      <trkpt lat="46.81539" lon="0.35034">
        <ele>86</ele>
        <time>2019-02-03T09:21:18.000Z</time>
      </trkpt>
      <trkpt lat="46.81539" lon="0.35035">
        <ele>86</ele>
        <time>2019-02-03T09:21:19.000Z</time>
      </trkpt>
      <trkpt lat="46.81539" lon="0.35035">
        <ele>86</ele>
        <time>2019-02-03T09:21:20.000Z</time>
      </trkpt>
      <trkpt lat="46.81539" lon="0.35036">
        <ele>86</ele>
        <time>2019-02-03T09:21:21.000Z</time>
      </trkpt>
      <trkpt lat="46.81539" lon="0.35037">
        <ele>86</ele>
        <time>2019-02-03T09:21:22.000Z</time>
      </trkpt>
      <trkpt lat="46.81538" lon="0.35037">
        <ele>87</ele>
        <time>2019-02-03T09:21:23.000Z</time>
      </trkpt>
      <trkpt lat="46.81537" lon="0.35038">
        <ele>87</ele>
        <time>2019-02-03T09:21:24.000Z</time>
      </trkpt>
      <trkpt lat="46.81536" lon="0.35039">
        <ele>88</ele>
        <time>2019-02-03T09:21:25.000Z</time>
      </trkpt>
      <trkpt lat="46.81535" lon="0.35039">
        <ele>88</ele>
        <time>2019-02-03T09:21:26.000Z</time>
      </trkpt>
      <trkpt lat="46.81533" lon="0.3504">
        <ele>89</ele>
        <time>2019-02-03T09:21:27.000Z</time>
      </trkpt>
      <trkpt lat="46.81532" lon="0.35042">
        <ele>89</ele>
        <time>2019-02-03T09:21:28.000Z</time>
      </trkpt>
      <trkpt lat="46.8153" lon="0.35045">
        <ele>89</ele>
        <time>2019-02-03T09:21:29.000Z</time>
      </trkpt>
      <trkpt lat="46.81527" lon="0.3505">
        <ele>90</ele>
        <time>2019-02-03T09:21:30.000Z</time>
      </trkpt>
      <trkpt lat="46.81525" lon="0.35055">
        <ele>91</ele>
        <time>2019-02-03T09:21:31.000Z</time>
      </trkpt>
      <trkpt lat="46.81523" lon="0.35058">
        <ele>91</ele>
        <time>2019-02-03T09:21:32.000Z</time>
      </trkpt>
      <trkpt lat="46.81522" lon="0.35061">
        <ele>91</ele>
        <time>2019-02-03T09:21:33.000Z</time>
      </trkpt>
      <trkpt lat="46.8152" lon="0.35064">
        <ele>91</ele>
        <time>2019-02-03T09:21:34.000Z</time>
      </trkpt>
      <trkpt lat="46.81518" lon="0.35067">
        <ele>91</ele>
        <time>2019-02-03T09:21:35.000Z</time>
      </trkpt>
      <trkpt lat="46.81516" lon="0.35071">
        <ele>92</ele>
        <time>2019-02-03T09:21:36.000Z</time>
      </trkpt>
      <trkpt lat="46.81513" lon="0.35074">
        <ele>92</ele>
        <time>2019-02-03T09:21:37.000Z</time>
      </trkpt>
      <trkpt lat="46.81511" lon="0.35076">
        <ele>92</ele>
        <time>2019-02-03T09:21:38.000Z</time>
      </trkpt>
      <trkpt lat="46.81508" lon="0.35078">
        <ele>93</ele>
        <time>2019-02-03T09:21:39.000Z</time>
      </trkpt>
      <trkpt lat="46.81506" lon="0.3508">
        <ele>93</ele>
        <time>2019-02-03T09:21:40.000Z</time>
      </trkpt>
      <trkpt lat="46.81504" lon="0.35083">
        <ele>93</ele>
        <time>2019-02-03T09:21:41.000Z</time>
      </trkpt>
      <trkpt lat="46.81501" lon="0.35085">
        <ele>93</ele>
        <time>2019-02-03T09:21:42.000Z</time>
      </trkpt>
      <trkpt lat="46.81499" lon="0.35087">
        <ele>93</ele>
        <time>2019-02-03T09:21:43.000Z</time>
      </trkpt>
      <trkpt lat="46.81496" lon="0.3509">
        <ele>93</ele>
        <time>2019-02-03T09:21:44.000Z</time>
      </trkpt>
      <trkpt lat="46.81493" lon="0.35092">
        <ele>93</ele>
        <time>2019-02-03T09:21:45.000Z</time>
      </trkpt>
      <trkpt lat="46.81491" lon="0.35094">
        <ele>93</ele>
        <time>2019-02-03T09:21:46.000Z</time>
      </trkpt>
      <trkpt lat="46.8149" lon="0.35097">
        <ele>89</ele>
        <time>2019-02-03T09:21:47.000Z</time>
      </trkpt>
      <trkpt lat="46.81489" lon="0.35101">
        <ele>87</ele>
        <time>2019-02-03T09:21:48.000Z</time>
      </trkpt>
      <trkpt lat="46.81488" lon="0.35106">
        <ele>86</ele>
        <time>2019-02-03T09:21:49.000Z</time>
      </trkpt>
      <trkpt lat="46.81487" lon="0.35111">
        <ele>85</ele>
        <time>2019-02-03T09:21:50.000Z</time>
      </trkpt>
      <trkpt lat="46.81485" lon="0.35115">
        <ele>84</ele>
        <time>2019-02-03T09:21:51.000Z</time>
      </trkpt>
      <trkpt lat="46.81483" lon="0.3512">
        <ele>84</ele>
        <time>2019-02-03T09:21:52.000Z</time>
      </trkpt>
      <trkpt lat="46.81481" lon="0.35123">
        <ele>83</ele>
        <time>2019-02-03T09:21:53.000Z</time>
      </trkpt>
      <trkpt lat="46.81477" lon="0.35125">
        <ele>83</ele>
        <time>2019-02-03T09:21:54.000Z</time>
      </trkpt>
      <trkpt lat="46.81474" lon="0.35126">
        <ele>83</ele>
        <time>2019-02-03T09:21:55.000Z</time>
      </trkpt>
      <trkpt lat="46.81471" lon="0.35127">
        <ele>84</ele>
        <time>2019-02-03T09:21:56.000Z</time>
      </trkpt>
      <trkpt lat="46.81469" lon="0.35129">
        <ele>83</ele>
        <time>2019-02-03T09:21:57.000Z</time>
      </trkpt>
      <trkpt lat="46.81467" lon="0.35131">
        <ele>83</ele>
        <time>2019-02-03T09:21:58.000Z</time>
      </trkpt>
      <trkpt lat="46.81464" lon="0.35133">
        <ele>83</ele>
        <time>2019-02-03T09:21:59.000Z</time>
      </trkpt>
      <trkpt lat="46.81461" lon="0.35135">
        <ele>83</ele>
        <time>2019-02-03T09:22:00.000Z</time>
      </trkpt>
      <trkpt lat="46.81458" lon="0.35137">
        <ele>82</ele>
        <time>2019-02-03T09:22:01.000Z</time>
      </trkpt>
      <trkpt lat="46.81456" lon="0.35138">
        <ele>83</ele>
        <time>2019-02-03T09:22:02.000Z</time>
      </trkpt>
      <trkpt lat="46.81453" lon="0.35139">
        <ele>83</ele>
        <time>2019-02-03T09:22:03.000Z</time>
      </trkpt>
      <trkpt lat="46.8145" lon="0.3514">
        <ele>84</ele>
        <time>2019-02-03T09:22:04.000Z</time>
      </trkpt>
      <trkpt lat="46.81448" lon="0.3514">
        <ele>84</ele>
        <time>2019-02-03T09:22:05.000Z</time>
      </trkpt>
      <trkpt lat="46.81445" lon="0.35142">
        <ele>84</ele>
        <time>2019-02-03T09:22:06.000Z</time>
      </trkpt>
      <trkpt lat="46.81444" lon="0.35145">
        <ele>84</ele>
        <time>2019-02-03T09:22:07.000Z</time>
      </trkpt>
      <trkpt lat="46.81442" lon="0.35149">
        <ele>84</ele>
        <time>2019-02-03T09:22:08.000Z</time>
      </trkpt>
      <trkpt lat="46.8144" lon="0.35152">
        <ele>84</ele>
        <time>2019-02-03T09:22:09.000Z</time>
      </trkpt>
      <trkpt lat="46.81439" lon="0.35156">
        <ele>83</ele>
        <time>2019-02-03T09:22:10.000Z</time>
      </trkpt>
      <trkpt lat="46.81438" lon="0.3516">
        <ele>84</ele>
        <time>2019-02-03T09:22:11.000Z</time>
      </trkpt>
      <trkpt lat="46.81437" lon="0.35163">
        <ele>84</ele>
        <time>2019-02-03T09:22:12.000Z</time>
      </trkpt>
      <trkpt lat="46.81437" lon="0.35165">
        <ele>85</ele>
        <time>2019-02-03T09:22:13.000Z</time>
      </trkpt>
      <trkpt lat="46.81437" lon="0.35168">
        <ele>85</ele>
        <time>2019-02-03T09:22:14.000Z</time>
      </trkpt>
      <trkpt lat="46.81438" lon="0.35171">
        <ele>84</ele>
        <time>2019-02-03T09:22:15.000Z</time>
      </trkpt>
      <trkpt lat="46.81438" lon="0.35175">
        <ele>85</ele>
        <time>2019-02-03T09:22:16.000Z</time>
      </trkpt>
      <trkpt lat="46.81438" lon="0.3518">
        <ele>84</ele>
        <time>2019-02-03T09:22:17.000Z</time>
      </trkpt>
      <trkpt lat="46.81439" lon="0.35185">
        <ele>84</ele>
        <time>2019-02-03T09:22:18.000Z</time>
      </trkpt>
      <trkpt lat="46.81439" lon="0.3519">
        <ele>83</ele>
        <time>2019-02-03T09:22:19.000Z</time>
      </trkpt>
      <trkpt lat="46.81439" lon="0.35196">
        <ele>82</ele>
        <time>2019-02-03T09:22:20.000Z</time>
      </trkpt>
      <trkpt lat="46.8144" lon="0.35202">
        <ele>81</ele>
        <time>2019-02-03T09:22:21.000Z</time>
      </trkpt>
      <trkpt lat="46.81441" lon="0.35206">
        <ele>80</ele>
        <time>2019-02-03T09:22:22.000Z</time>
      </trkpt>
      <trkpt lat="46.81442" lon="0.35211">
        <ele>79</ele>
        <time>2019-02-03T09:22:23.000Z</time>
      </trkpt>
      <trkpt lat="46.81443" lon="0.35215">
        <ele>79</ele>
        <time>2019-02-03T09:22:24.000Z</time>
      </trkpt>
      <trkpt lat="46.81443" lon="0.35218">
        <ele>78</ele>
        <time>2019-02-03T09:22:25.000Z</time>
      </trkpt>
      <trkpt lat="46.81443" lon="0.35221">
        <ele>79</ele>
        <time>2019-02-03T09:22:26.000Z</time>
      </trkpt>
      <trkpt lat="46.81441" lon="0.35224">
        <ele>79</ele>
        <time>2019-02-03T09:22:27.000Z</time>
      </trkpt>
      <trkpt lat="46.81441" lon="0.35226">
        <ele>80</ele>
        <time>2019-02-03T09:22:28.000Z</time>
      </trkpt>
      <trkpt lat="46.8144" lon="0.35227">
        <ele>80</ele>
        <time>2019-02-03T09:22:29.000Z</time>
      </trkpt>
      <trkpt lat="46.81439" lon="0.35228">
        <ele>81</ele>
        <time>2019-02-03T09:22:30.000Z</time>
      </trkpt>
      <trkpt lat="46.81437" lon="0.35228">
        <ele>81</ele>
        <time>2019-02-03T09:22:31.000Z</time>
      </trkpt>
      <trkpt lat="46.81435" lon="0.35229">
        <ele>81</ele>
        <time>2019-02-03T09:22:32.000Z</time>
      </trkpt>
      <trkpt lat="46.81433" lon="0.3523">
        <ele>82</ele>
        <time>2019-02-03T09:22:33.000Z</time>
      </trkpt>
      <trkpt lat="46.81431" lon="0.35232">
        <ele>82</ele>
        <time>2019-02-03T09:22:34.000Z</time>
      </trkpt>
      <trkpt lat="46.81428" lon="0.35234">
        <ele>81</ele>
        <time>2019-02-03T09:22:35.000Z</time>
      </trkpt>
      <trkpt lat="46.81426" lon="0.35235">
        <ele>81</ele>
        <time>2019-02-03T09:22:36.000Z</time>
      </trkpt>
      <trkpt lat="46.81423" lon="0.35236">
        <ele>81</ele>
        <time>2019-02-03T09:22:37.000Z</time>
      </trkpt>
      <trkpt lat="46.8142" lon="0.35238">
        <ele>82</ele>
        <time>2019-02-03T09:22:38.000Z</time>
      </trkpt>
      <trkpt lat="46.81417" lon="0.35239">
        <ele>82</ele>
        <time>2019-02-03T09:22:39.000Z</time>
      </trkpt>
      <trkpt lat="46.81415" lon="0.3524">
        <ele>82</ele>
        <time>2019-02-03T09:22:40.000Z</time>
      </trkpt>
      <trkpt lat="46.81412" lon="0.35241">
        <ele>82</ele>
        <time>2019-02-03T09:22:41.000Z</time>
      </trkpt>
      <trkpt lat="46.81409" lon="0.35242">
        <ele>81</ele>
        <time>2019-02-03T09:22:42.000Z</time>
      </trkpt>
      <trkpt lat="46.81406" lon="0.35243">
        <ele>81</ele>
        <time>2019-02-03T09:22:43.000Z</time>
      </trkpt>
      <trkpt lat="46.81403" lon="0.35245">
        <ele>81</ele>
        <time>2019-02-03T09:22:44.000Z</time>
      </trkpt>
      <trkpt lat="46.814" lon="0.35246">
        <ele>81</ele>
        <time>2019-02-03T09:22:45.000Z</time>
      </trkpt>
      <trkpt lat="46.81396" lon="0.35248">
        <ele>82</ele>
        <time>2019-02-03T09:22:46.000Z</time>
      </trkpt>
      <trkpt lat="46.81393" lon="0.35249">
        <ele>82</ele>
        <time>2019-02-03T09:22:47.000Z</time>
      </trkpt>
      <trkpt lat="46.8139" lon="0.3525">
        <ele>82</ele>
        <time>2019-02-03T09:22:48.000Z</time>
      </trkpt>
      <trkpt lat="46.81386" lon="0.35252">
        <ele>81</ele>
        <time>2019-02-03T09:22:49.000Z</time>
      </trkpt>
      <trkpt lat="46.81383" lon="0.35253">
        <ele>81</ele>
        <time>2019-02-03T09:22:50.000Z</time>
      </trkpt>
      <trkpt lat="46.8138" lon="0.35255">
        <ele>81</ele>
        <time>2019-02-03T09:22:51.000Z</time>
      </trkpt>
      <trkpt lat="46.81376" lon="0.35256">
        <ele>81</ele>
        <time>2019-02-03T09:22:52.000Z</time>
      </trkpt>
      <trkpt lat="46.81372" lon="0.35258">
        <ele>82</ele>
        <time>2019-02-03T09:22:53.000Z</time>
      </trkpt>
      <trkpt lat="46.81369" lon="0.35259">
        <ele>82</ele>
        <time>2019-02-03T09:22:54.000Z</time>
      </trkpt>
      <trkpt lat="46.81365" lon="0.35261">
        <ele>82</ele>
        <time>2019-02-03T09:22:55.000Z</time>
      </trkpt>
      <trkpt lat="46.81361" lon="0.35263">
        <ele>82</ele>
        <time>2019-02-03T09:22:56.000Z</time>
      </trkpt>
      <trkpt lat="46.81357" lon="0.35264">
        <ele>82</ele>
        <time>2019-02-03T09:22:57.000Z</time>
      </trkpt>
      <trkpt lat="46.81353" lon="0.35266">
        <ele>82</ele>
        <time>2019-02-03T09:22:58.000Z</time>
      </trkpt>
      <trkpt lat="46.81349" lon="0.35268">
        <ele>81</ele>
        <time>2019-02-03T09:22:59.000Z</time>
      </trkpt>
      <trkpt lat="46.81346" lon="0.3527">
        <ele>81</ele>
        <time>2019-02-03T09:23:00.000Z</time>
      </trkpt>
      <trkpt lat="46.81342" lon="0.35272">
        <ele>81</ele>
        <time>2019-02-03T09:23:01.000Z</time>
      </trkpt>
      <trkpt lat="46.81338" lon="0.35274">
        <ele>81</ele>
        <time>2019-02-03T09:23:02.000Z</time>
      </trkpt>
      <trkpt lat="46.81334" lon="0.35276">
        <ele>81</ele>
        <time>2019-02-03T09:23:03.000Z</time>
      </trkpt>
      <trkpt lat="46.8133" lon="0.35279">
        <ele>81</ele>
        <time>2019-02-03T09:23:04.000Z</time>
      </trkpt>
      <trkpt lat="46.81326" lon="0.35281">
        <ele>81</ele>
        <time>2019-02-03T09:23:05.000Z</time>
      </trkpt>
      <trkpt lat="46.81322" lon="0.35284">
        <ele>81</ele>
        <time>2019-02-03T09:23:06.000Z</time>
      </trkpt>
      <trkpt lat="46.81319" lon="0.35287">
        <ele>81</ele>
        <time>2019-02-03T09:23:07.000Z</time>
      </trkpt>
      <trkpt lat="46.81315" lon="0.3529">
        <ele>80</ele>
        <time>2019-02-03T09:23:08.000Z</time>
      </trkpt>
      <trkpt lat="46.81311" lon="0.35293">
        <ele>80</ele>
        <time>2019-02-03T09:23:09.000Z</time>
      </trkpt>
      <trkpt lat="46.81308" lon="0.35296">
        <ele>79</ele>
        <time>2019-02-03T09:23:10.000Z</time>
      </trkpt>
      <trkpt lat="46.81305" lon="0.35298">
        <ele>79</ele>
        <time>2019-02-03T09:23:11.000Z</time>
      </trkpt>
      <trkpt lat="46.81301" lon="0.35301">
        <ele>79</ele>
        <time>2019-02-03T09:23:12.000Z</time>
      </trkpt>
      <trkpt lat="46.81298" lon="0.35304">
        <ele>79</ele>
        <time>2019-02-03T09:23:13.000Z</time>
      </trkpt>
      <trkpt lat="46.81294" lon="0.35306">
        <ele>78</ele>
        <time>2019-02-03T09:23:14.000Z</time>
      </trkpt>
      <trkpt lat="46.8129" lon="0.35306">
        <ele>79</ele>
        <time>2019-02-03T09:23:15.000Z</time>
      </trkpt>
      <trkpt lat="46.81285" lon="0.35306">
        <ele>79</ele>
        <time>2019-02-03T09:23:16.000Z</time>
      </trkpt>
      <trkpt lat="46.81282" lon="0.35305">
        <ele>79</ele>
        <time>2019-02-03T09:23:17.000Z</time>
      </trkpt>
      <trkpt lat="46.81279" lon="0.35303">
        <ele>79</ele>
        <time>2019-02-03T09:23:18.000Z</time>
      </trkpt>
      <trkpt lat="46.81276" lon="0.35301">
        <ele>79</ele>
        <time>2019-02-03T09:23:19.000Z</time>
      </trkpt>
      <trkpt lat="46.81273" lon="0.35298">
        <ele>78</ele>
        <time>2019-02-03T09:23:20.000Z</time>
      </trkpt>
      <trkpt lat="46.81271" lon="0.35293">
        <ele>77</ele>
        <time>2019-02-03T09:23:21.000Z</time>
      </trkpt>
      <trkpt lat="46.8127" lon="0.35287">
        <ele>76</ele>
        <time>2019-02-03T09:23:22.000Z</time>
      </trkpt>
      <trkpt lat="46.81269" lon="0.35281">
        <ele>75</ele>
        <time>2019-02-03T09:23:23.000Z</time>
      </trkpt>
      <trkpt lat="46.81268" lon="0.35276">
        <ele>74</ele>
        <time>2019-02-03T09:23:24.000Z</time>
      </trkpt>
      <trkpt lat="46.81267" lon="0.35271">
        <ele>73</ele>
        <time>2019-02-03T09:23:25.000Z</time>
      </trkpt>
      <trkpt lat="46.81267" lon="0.35266">
        <ele>71</ele>
        <time>2019-02-03T09:23:26.000Z</time>
      </trkpt>
      <trkpt lat="46.81267" lon="0.3526">
        <ele>70</ele>
        <time>2019-02-03T09:23:27.000Z</time>
      </trkpt>
      <trkpt lat="46.81267" lon="0.35255">
        <ele>70</ele>
        <time>2019-02-03T09:23:28.000Z</time>
      </trkpt>
      <trkpt lat="46.81268" lon="0.3525">
        <ele>69</ele>
        <time>2019-02-03T09:23:29.000Z</time>
      </trkpt>
      <trkpt lat="46.81268" lon="0.35244">
        <ele>68</ele>
        <time>2019-02-03T09:23:30.000Z</time>
      </trkpt>
      <trkpt lat="46.81268" lon="0.35239">
        <ele>67</ele>
        <time>2019-02-03T09:23:31.000Z</time>
      </trkpt>
      <trkpt lat="46.81269" lon="0.35234">
        <ele>65</ele>
        <time>2019-02-03T09:23:32.000Z</time>
      </trkpt>
      <trkpt lat="46.81269" lon="0.35229">
        <ele>63</ele>
        <time>2019-02-03T09:23:33.000Z</time>
      </trkpt>
      <trkpt lat="46.8127" lon="0.35223">
        <ele>62</ele>
        <time>2019-02-03T09:23:34.000Z</time>
      </trkpt>
      <trkpt lat="46.81271" lon="0.35218">
        <ele>60</ele>
        <time>2019-02-03T09:23:35.000Z</time>
      </trkpt>
      <trkpt lat="46.81271" lon="0.35213">
        <ele>59</ele>
        <time>2019-02-03T09:23:36.000Z</time>
      </trkpt>
      <trkpt lat="46.81272" lon="0.35208">
        <ele>59</ele>
        <time>2019-02-03T09:23:37.000Z</time>
      </trkpt>
      <trkpt lat="46.81272" lon="0.35203">
        <ele>58</ele>
        <time>2019-02-03T09:23:38.000Z</time>
      </trkpt>
      <trkpt lat="46.81273" lon="0.35197">
        <ele>56</ele>
        <time>2019-02-03T09:23:39.000Z</time>
      </trkpt>
      <trkpt lat="46.81273" lon="0.35192">
        <ele>56</ele>
        <time>2019-02-03T09:23:40.000Z</time>
      </trkpt>
      <trkpt lat="46.81273" lon="0.35187">
        <ele>55</ele>
        <time>2019-02-03T09:23:41.000Z</time>
      </trkpt>
      <trkpt lat="46.81273" lon="0.35182">
        <ele>56</ele>
        <time>2019-02-03T09:23:42.000Z</time>
      </trkpt>
      <trkpt lat="46.81274" lon="0.35178">
        <ele>55</ele>
        <time>2019-02-03T09:23:43.000Z</time>
      </trkpt>
      <trkpt lat="46.81274" lon="0.35173">
        <ele>54</ele>
        <time>2019-02-03T09:23:44.000Z</time>
      </trkpt>
      <trkpt lat="46.81274" lon="0.35168">
        <ele>53</ele>
        <time>2019-02-03T09:23:45.000Z</time>
      </trkpt>
      <trkpt lat="46.81275" lon="0.35164">
        <ele>53</ele>
        <time>2019-02-03T09:23:46.000Z</time>
      </trkpt>
      <trkpt lat="46.81275" lon="0.35159">
        <ele>55</ele>
        <time>2019-02-03T09:23:47.000Z</time>
      </trkpt>
      <trkpt lat="46.81276" lon="0.35154">
        <ele>57</ele>
        <time>2019-02-03T09:23:48.000Z</time>
      </trkpt>
      <trkpt lat="46.81278" lon="0.35148">
        <ele>56</ele>
        <time>2019-02-03T09:23:49.000Z</time>
      </trkpt>
      <trkpt lat="46.81279" lon="0.35142">
        <ele>57</ele>
        <time>2019-02-03T09:23:50.000Z</time>
      </trkpt>
      <trkpt lat="46.81279" lon="0.35136">
        <ele>59</ele>
        <time>2019-02-03T09:23:51.000Z</time>
      </trkpt>
      <trkpt lat="46.81278" lon="0.35129">
        <ele>60</ele>
        <time>2019-02-03T09:23:52.000Z</time>
      </trkpt>
      <trkpt lat="46.81277" lon="0.35122">
        <ele>63</ele>
        <time>2019-02-03T09:23:53.000Z</time>
      </trkpt>
      <trkpt lat="46.81275" lon="0.35115">
        <ele>66</ele>
        <time>2019-02-03T09:23:54.000Z</time>
      </trkpt>
      <trkpt lat="46.81273" lon="0.35108">
        <ele>69</ele>
        <time>2019-02-03T09:23:55.000Z</time>
      </trkpt>
      <trkpt lat="46.81271" lon="0.35101">
        <ele>70</ele>
        <time>2019-02-03T09:23:56.000Z</time>
      </trkpt>
      <trkpt lat="46.81269" lon="0.35095">
        <ele>71</ele>
        <time>2019-02-03T09:23:57.000Z</time>
      </trkpt>
      <trkpt lat="46.81266" lon="0.3509">
        <ele>72</ele>
        <time>2019-02-03T09:23:58.000Z</time>
      </trkpt>
      <trkpt lat="46.81264" lon="0.35084">
        <ele>75</ele>
        <time>2019-02-03T09:23:59.000Z</time>
      </trkpt>
      <trkpt lat="46.81261" lon="0.35079">
        <ele>76</ele>
        <time>2019-02-03T09:24:00.000Z</time>
      </trkpt>
      <trkpt lat="46.81258" lon="0.35073">
        <ele>76</ele>
        <time>2019-02-03T09:24:01.000Z</time>
      </trkpt>
      <trkpt lat="46.81255" lon="0.35068">
        <ele>76</ele>
        <time>2019-02-03T09:24:02.000Z</time>
      </trkpt>
      <trkpt lat="46.81252" lon="0.35064">
        <ele>77</ele>
        <time>2019-02-03T09:24:03.000Z</time>
      </trkpt>
      <trkpt lat="46.81249" lon="0.35059">
        <ele>77</ele>
        <time>2019-02-03T09:24:04.000Z</time>
      </trkpt>
      <trkpt lat="46.81247" lon="0.35055">
        <ele>78</ele>
        <time>2019-02-03T09:24:05.000Z</time>
      </trkpt>
      <trkpt lat="46.81244" lon="0.3505">
        <ele>78</ele>
        <time>2019-02-03T09:24:06.000Z</time>
      </trkpt>
      <trkpt lat="46.81241" lon="0.35046">
        <ele>78</ele>
        <time>2019-02-03T09:24:07.000Z</time>
      </trkpt>
      <trkpt lat="46.81239" lon="0.35041">
        <ele>79</ele>
        <time>2019-02-03T09:24:08.000Z</time>
      </trkpt>
      <trkpt lat="46.81236" lon="0.35037">
        <ele>79</ele>
        <time>2019-02-03T09:24:09.000Z</time>
      </trkpt>
      <trkpt lat="46.81234" lon="0.35032">
        <ele>79</ele>
        <time>2019-02-03T09:24:10.000Z</time>
      </trkpt>
      <trkpt lat="46.81231" lon="0.35028">
        <ele>80</ele>
        <time>2019-02-03T09:24:11.000Z</time>
      </trkpt>
      <trkpt lat="46.81229" lon="0.35023">
        <ele>80</ele>
        <time>2019-02-03T09:24:12.000Z</time>
      </trkpt>
      <trkpt lat="46.81226" lon="0.35018">
        <ele>80</ele>
        <time>2019-02-03T09:24:13.000Z</time>
      </trkpt>
      <trkpt lat="46.81224" lon="0.35013">
        <ele>80</ele>
        <time>2019-02-03T09:24:14.000Z</time>
      </trkpt>
      <trkpt lat="46.81221" lon="0.35008">
        <ele>80</ele>
        <time>2019-02-03T09:24:15.000Z</time>
      </trkpt>
      <trkpt lat="46.81219" lon="0.35004">
        <ele>80</ele>
        <time>2019-02-03T09:24:16.000Z</time>
      </trkpt>
      <trkpt lat="46.81216" lon="0.34999">
        <ele>80</ele>
        <time>2019-02-03T09:24:17.000Z</time>
      </trkpt>
      <trkpt lat="46.81213" lon="0.34994">
        <ele>80</ele>
        <time>2019-02-03T09:24:18.000Z</time>
      </trkpt>
      <trkpt lat="46.81211" lon="0.34989">
        <ele>80</ele>
        <time>2019-02-03T09:24:19.000Z</time>
      </trkpt>
      <trkpt lat="46.81208" lon="0.34985">
        <ele>80</ele>
        <time>2019-02-03T09:24:20.000Z</time>
      </trkpt>
      <trkpt lat="46.81206" lon="0.3498">
        <ele>80</ele>
        <time>2019-02-03T09:24:21.000Z</time>
      </trkpt>
      <trkpt lat="46.81203" lon="0.34975">
        <ele>80</ele>
        <time>2019-02-03T09:24:22.000Z</time>
      </trkpt>
      <trkpt lat="46.81201" lon="0.34971">
        <ele>80</ele>
        <time>2019-02-03T09:24:23.000Z</time>
      </trkpt>
      <trkpt lat="46.81199" lon="0.34967">
        <ele>80</ele>
        <time>2019-02-03T09:24:24.000Z</time>
      </trkpt>
      <trkpt lat="46.81196" lon="0.34962">
        <ele>80</ele>
        <time>2019-02-03T09:24:25.000Z</time>
      </trkpt>
      <trkpt lat="46.81194" lon="0.34958">
        <ele>80</ele>
        <time>2019-02-03T09:24:26.000Z</time>
      </trkpt>
      <trkpt lat="46.81192" lon="0.34954">
        <ele>80</ele>
        <time>2019-02-03T09:24:27.000Z</time>
      </trkpt>
      <trkpt lat="46.8119" lon="0.3495">
        <ele>80</ele>
        <time>2019-02-03T09:24:28.000Z</time>
      </trkpt>
      <trkpt lat="46.81187" lon="0.34945">
        <ele>81</ele>
        <time>2019-02-03T09:24:29.000Z</time>
      </trkpt>
      <trkpt lat="46.81185" lon="0.34941">
        <ele>81</ele>
        <time>2019-02-03T09:24:30.000Z</time>
      </trkpt>
      <trkpt lat="46.81183" lon="0.34937">
        <ele>81</ele>
        <time>2019-02-03T09:24:31.000Z</time>
      </trkpt>
      <trkpt lat="46.8118" lon="0.34933">
        <ele>81</ele>
        <time>2019-02-03T09:24:32.000Z</time>
      </trkpt>
      <trkpt lat="46.81178" lon="0.34929">
        <ele>81</ele>
        <time>2019-02-03T09:24:33.000Z</time>
      </trkpt>
      <trkpt lat="46.81176" lon="0.34925">
        <ele>81</ele>
        <time>2019-02-03T09:24:34.000Z</time>
      </trkpt>
      <trkpt lat="46.81173" lon="0.3492">
        <ele>82</ele>
        <time>2019-02-03T09:24:35.000Z</time>
      </trkpt>
      <trkpt lat="46.81171" lon="0.34916">
        <ele>82</ele>
        <time>2019-02-03T09:24:36.000Z</time>
      </trkpt>
      <trkpt lat="46.81168" lon="0.34911">
        <ele>82</ele>
        <time>2019-02-03T09:24:37.000Z</time>
      </trkpt>
      <trkpt lat="46.81166" lon="0.34907">
        <ele>82</ele>
        <time>2019-02-03T09:24:38.000Z</time>
      </trkpt>
      <trkpt lat="46.81164" lon="0.34903">
        <ele>82</ele>
        <time>2019-02-03T09:24:39.000Z</time>
      </trkpt>
      <trkpt lat="46.81161" lon="0.34899">
        <ele>82</ele>
        <time>2019-02-03T09:24:40.000Z</time>
      </trkpt>
      <trkpt lat="46.81159" lon="0.34895">
        <ele>82</ele>
        <time>2019-02-03T09:24:41.000Z</time>
      </trkpt>
      <trkpt lat="46.81157" lon="0.34891">
        <ele>83</ele>
        <time>2019-02-03T09:24:42.000Z</time>
      </trkpt>
      <trkpt lat="46.81156" lon="0.34889">
        <ele>83</ele>
        <time>2019-02-03T09:24:43.000Z</time>
      </trkpt>
      <trkpt lat="46.81155" lon="0.34888">
        <ele>82</ele>
        <time>2019-02-03T09:24:44.000Z</time>
      </trkpt>
      <trkpt lat="46.81155" lon="0.34888">
        <ele>82</ele>
        <time>2019-02-03T09:24:45.000Z</time>
      </trkpt>
      <trkpt lat="46.81155" lon="0.34888">
        <ele>81</ele>
        <time>2019-02-03T09:24:46.000Z</time>
      </trkpt>
      <trkpt lat="46.81155" lon="0.3489">
        <ele>81</ele>
        <time>2019-02-03T09:24:47.000Z</time>
      </trkpt>
      <trkpt lat="46.81154" lon="0.34892">
        <ele>80</ele>
        <time>2019-02-03T09:24:48.000Z</time>
      </trkpt>
      <trkpt lat="46.81152" lon="0.34894">
        <ele>80</ele>
        <time>2019-02-03T09:24:49.000Z</time>
      </trkpt>
      <trkpt lat="46.8115" lon="0.34895">
        <ele>79</ele>
        <time>2019-02-03T09:24:50.000Z</time>
      </trkpt>
      <trkpt lat="46.81147" lon="0.34896">
        <ele>79</ele>
        <time>2019-02-03T09:24:51.000Z</time>
      </trkpt>
      <trkpt lat="46.81145" lon="0.34898">
        <ele>79</ele>
        <time>2019-02-03T09:24:52.000Z</time>
      </trkpt>
      <trkpt lat="46.81142" lon="0.34899">
        <ele>79</ele>
        <time>2019-02-03T09:24:53.000Z</time>
      </trkpt>
      <trkpt lat="46.81139" lon="0.349">
        <ele>79</ele>
        <time>2019-02-03T09:24:54.000Z</time>
      </trkpt>
      <trkpt lat="46.81135" lon="0.34901">
        <ele>78</ele>
        <time>2019-02-03T09:24:55.000Z</time>
      </trkpt>
      <trkpt lat="46.8113" lon="0.34902">
        <ele>79</ele>
        <time>2019-02-03T09:24:56.000Z</time>
      </trkpt>
      <trkpt lat="46.81126" lon="0.34902">
        <ele>79</ele>
        <time>2019-02-03T09:24:57.000Z</time>
      </trkpt>
      <trkpt lat="46.81123" lon="0.34903">
        <ele>78</ele>
        <time>2019-02-03T09:24:58.000Z</time>
      </trkpt>
      <trkpt lat="46.81119" lon="0.34904">
        <ele>78</ele>
        <time>2019-02-03T09:24:59.000Z</time>
      </trkpt>
      <trkpt lat="46.81116" lon="0.34905">
        <ele>78</ele>
        <time>2019-02-03T09:25:00.000Z</time>
      </trkpt>
      <trkpt lat="46.81113" lon="0.34905">
        <ele>78</ele>
        <time>2019-02-03T09:25:01.000Z</time>
      </trkpt>
      <trkpt lat="46.8111" lon="0.34906">
        <ele>78</ele>
        <time>2019-02-03T09:25:02.000Z</time>
      </trkpt>
      <trkpt lat="46.81106" lon="0.34907">
        <ele>79</ele>
        <time>2019-02-03T09:25:03.000Z</time>
      </trkpt>
      <trkpt lat="46.81103" lon="0.34908">
        <ele>78</ele>
        <time>2019-02-03T09:25:04.000Z</time>
      </trkpt>
      <trkpt lat="46.811" lon="0.34911">
        <ele>78</ele>
        <time>2019-02-03T09:25:05.000Z</time>
      </trkpt>
      <trkpt lat="46.81097" lon="0.34915">
        <ele>77</ele>
        <time>2019-02-03T09:25:06.000Z</time>
      </trkpt>
      <trkpt lat="46.81095" lon="0.34919">
        <ele>77</ele>
        <time>2019-02-03T09:25:07.000Z</time>
      </trkpt>
      <trkpt lat="46.81093" lon="0.34924">
        <ele>77</ele>
        <time>2019-02-03T09:25:08.000Z</time>
      </trkpt>
      <trkpt lat="46.81091" lon="0.34929">
        <ele>77</ele>
        <time>2019-02-03T09:25:09.000Z</time>
      </trkpt>
      <trkpt lat="46.81088" lon="0.34933">
        <ele>77</ele>
        <time>2019-02-03T09:25:10.000Z</time>
      </trkpt>
      <trkpt lat="46.81085" lon="0.34938">
        <ele>77</ele>
        <time>2019-02-03T09:25:11.000Z</time>
      </trkpt>
      <trkpt lat="46.81083" lon="0.34942">
        <ele>77</ele>
        <time>2019-02-03T09:25:12.000Z</time>
      </trkpt>
      <trkpt lat="46.81081" lon="0.34946">
        <ele>75</ele>
        <time>2019-02-03T09:25:13.000Z</time>
      </trkpt>
      <trkpt lat="46.81079" lon="0.34951">
        <ele>74</ele>
        <time>2019-02-03T09:25:14.000Z</time>
      </trkpt>
      <trkpt lat="46.81079" lon="0.34957">
        <ele>74</ele>
        <time>2019-02-03T09:25:15.000Z</time>
      </trkpt>
      <trkpt lat="46.81079" lon="0.34962">
        <ele>74</ele>
        <time>2019-02-03T09:25:16.000Z</time>
      </trkpt>
      <trkpt lat="46.81079" lon="0.34967">
        <ele>73</ele>
        <time>2019-02-03T09:25:17.000Z</time>
      </trkpt>
      <trkpt lat="46.81079" lon="0.34971">
        <ele>73</ele>
        <time>2019-02-03T09:25:18.000Z</time>
      </trkpt>
      <trkpt lat="46.81078" lon="0.34975">
        <ele>73</ele>
        <time>2019-02-03T09:25:19.000Z</time>
      </trkpt>
      <trkpt lat="46.81077" lon="0.34978">
        <ele>72</ele>
        <time>2019-02-03T09:25:20.000Z</time>
      </trkpt>
      <trkpt lat="46.81075" lon="0.34981">
        <ele>72</ele>
        <time>2019-02-03T09:25:21.000Z</time>
      </trkpt>
      <trkpt lat="46.81074" lon="0.34983">
        <ele>71</ele>
        <time>2019-02-03T09:25:22.000Z</time>
      </trkpt>
      <trkpt lat="46.81073" lon="0.34986">
        <ele>71</ele>
        <time>2019-02-03T09:25:23.000Z</time>
      </trkpt>
      <trkpt lat="46.81071" lon="0.34988">
        <ele>70</ele>
        <time>2019-02-03T09:25:24.000Z</time>
      </trkpt>
      <trkpt lat="46.8107" lon="0.34991">
        <ele>70</ele>
        <time>2019-02-03T09:25:25.000Z</time>
      </trkpt>
      <trkpt lat="46.81068" lon="0.34992">
        <ele>70</ele>
        <time>2019-02-03T09:25:26.000Z</time>
      </trkpt>
      <trkpt lat="46.81067" lon="0.34994">
        <ele>70</ele>
        <time>2019-02-03T09:25:27.000Z</time>
      </trkpt>
      <trkpt lat="46.81067" lon="0.34995">
        <ele>70</ele>
        <time>2019-02-03T09:25:28.000Z</time>
      </trkpt>
      <trkpt lat="46.81066" lon="0.34996">
        <ele>70</ele>
        <time>2019-02-03T09:25:29.000Z</time>
      </trkpt>
      <trkpt lat="46.81065" lon="0.34996">
        <ele>70</ele>
        <time>2019-02-03T09:25:30.000Z</time>
      </trkpt>
      <trkpt lat="46.81064" lon="0.34997">
        <ele>70</ele>
        <time>2019-02-03T09:25:31.000Z</time>
      </trkpt>
      <trkpt lat="46.81062" lon="0.34998">
        <ele>71</ele>
        <time>2019-02-03T09:25:32.000Z</time>
      </trkpt>
      <trkpt lat="46.81061" lon="0.34999">
        <ele>72</ele>
        <time>2019-02-03T09:25:33.000Z</time>
      </trkpt>
      <trkpt lat="46.81058" lon="0.35001">
        <ele>73</ele>
        <time>2019-02-03T09:25:34.000Z</time>
      </trkpt>
      <trkpt lat="46.81056" lon="0.35001">
        <ele>74</ele>
        <time>2019-02-03T09:25:35.000Z</time>
      </trkpt>
      <trkpt lat="46.81054" lon="0.35001">
        <ele>74</ele>
        <time>2019-02-03T09:25:36.000Z</time>
      </trkpt>
      <trkpt lat="46.81052" lon="0.35001">
        <ele>73</ele>
        <time>2019-02-03T09:25:37.000Z</time>
      </trkpt>
      <trkpt lat="46.8105" lon="0.35">
        <ele>73</ele>
        <time>2019-02-03T09:25:38.000Z</time>
      </trkpt>
      <trkpt lat="46.81048" lon="0.35001">
        <ele>74</ele>
        <time>2019-02-03T09:25:39.000Z</time>
      </trkpt>
      <trkpt lat="46.81046" lon="0.35001">
        <ele>74</ele>
        <time>2019-02-03T09:25:40.000Z</time>
      </trkpt>
      <trkpt lat="46.81044" lon="0.35002">
        <ele>74</ele>
        <time>2019-02-03T09:25:41.000Z</time>
      </trkpt>
      <trkpt lat="46.81042" lon="0.35002">
        <ele>75</ele>
        <time>2019-02-03T09:25:42.000Z</time>
      </trkpt>
      <trkpt lat="46.81041" lon="0.35002">
        <ele>76</ele>
        <time>2019-02-03T09:25:43.000Z</time>
      </trkpt>
      <trkpt lat="46.81039" lon="0.35003">
        <ele>75</ele>
        <time>2019-02-03T09:25:44.000Z</time>
      </trkpt>
      <trkpt lat="46.81037" lon="0.35005">
        <ele>76</ele>
        <time>2019-02-03T09:25:45.000Z</time>
      </trkpt>
      <trkpt lat="46.81035" lon="0.35007">
        <ele>75</ele>
        <time>2019-02-03T09:25:46.000Z</time>
      </trkpt>
      <trkpt lat="46.81033" lon="0.3501">
        <ele>75</ele>
        <time>2019-02-03T09:25:47.000Z</time>
      </trkpt>
      <trkpt lat="46.81032" lon="0.35014">
        <ele>73</ele>
        <time>2019-02-03T09:25:48.000Z</time>
      </trkpt>
      <trkpt lat="46.8103" lon="0.35019">
        <ele>73</ele>
        <time>2019-02-03T09:25:49.000Z</time>
      </trkpt>
      <trkpt lat="46.81028" lon="0.35024">
        <ele>75</ele>
        <time>2019-02-03T09:25:50.000Z</time>
      </trkpt>
      <trkpt lat="46.81026" lon="0.3503">
        <ele>77</ele>
        <time>2019-02-03T09:25:51.000Z</time>
      </trkpt>
      <trkpt lat="46.81024" lon="0.35035">
        <ele>77</ele>
        <time>2019-02-03T09:25:52.000Z</time>
      </trkpt>
      <trkpt lat="46.81023" lon="0.35039">
        <ele>77</ele>
        <time>2019-02-03T09:25:53.000Z</time>
      </trkpt>
      <trkpt lat="46.81021" lon="0.35044">
        <ele>78</ele>
        <time>2019-02-03T09:25:54.000Z</time>
      </trkpt>
      <trkpt lat="46.8102" lon="0.35048">
        <ele>78</ele>
        <time>2019-02-03T09:25:55.000Z</time>
      </trkpt>
      <trkpt lat="46.81019" lon="0.35053">
        <ele>78</ele>
        <time>2019-02-03T09:25:56.000Z</time>
      </trkpt>
      <trkpt lat="46.81017" lon="0.35058">
        <ele>79</ele>
        <time>2019-02-03T09:25:57.000Z</time>
      </trkpt>
      <trkpt lat="46.81015" lon="0.35063">
        <ele>79</ele>
        <time>2019-02-03T09:25:58.000Z</time>
      </trkpt>
      <trkpt lat="46.81013" lon="0.35068">
        <ele>80</ele>
        <time>2019-02-03T09:25:59.000Z</time>
      </trkpt>
      <trkpt lat="46.81011" lon="0.35074">
        <ele>81</ele>
        <time>2019-02-03T09:26:00.000Z</time>
      </trkpt>
      <trkpt lat="46.81009" lon="0.3508">
        <ele>80</ele>
        <time>2019-02-03T09:26:01.000Z</time>
      </trkpt>
      <trkpt lat="46.81008" lon="0.35085">
        <ele>79</ele>
        <time>2019-02-03T09:26:02.000Z</time>
      </trkpt>
      <trkpt lat="46.81007" lon="0.35091">
        <ele>77</ele>
        <time>2019-02-03T09:26:03.000Z</time>
      </trkpt>
      <trkpt lat="46.81006" lon="0.35098">
        <ele>77</ele>
        <time>2019-02-03T09:26:04.000Z</time>
      </trkpt>
      <trkpt lat="46.81005" lon="0.35104">
        <ele>77</ele>
        <time>2019-02-03T09:26:05.000Z</time>
      </trkpt>
      <trkpt lat="46.81004" lon="0.3511">
        <ele>77</ele>
        <time>2019-02-03T09:26:06.000Z</time>
      </trkpt>
      <trkpt lat="46.81003" lon="0.35115">
        <ele>77</ele>
        <time>2019-02-03T09:26:07.000Z</time>
      </trkpt>
      <trkpt lat="46.81003" lon="0.35121">
        <ele>78</ele>
        <time>2019-02-03T09:26:08.000Z</time>
      </trkpt>
      <trkpt lat="46.81003" lon="0.35126">
        <ele>77</ele>
        <time>2019-02-03T09:26:09.000Z</time>
      </trkpt>
      <trkpt lat="46.81004" lon="0.3513">
        <ele>77</ele>
        <time>2019-02-03T09:26:10.000Z</time>
      </trkpt>
      <trkpt lat="46.81005" lon="0.35134">
        <ele>75</ele>
        <time>2019-02-03T09:26:11.000Z</time>
      </trkpt>
      <trkpt lat="46.81005" lon="0.35137">
        <ele>77</ele>
        <time>2019-02-03T09:26:12.000Z</time>
      </trkpt>
      <trkpt lat="46.81005" lon="0.3514">
        <ele>78</ele>
        <time>2019-02-03T09:26:13.000Z</time>
      </trkpt>
      <trkpt lat="46.81004" lon="0.35142">
        <ele>78</ele>
        <time>2019-02-03T09:26:14.000Z</time>
      </trkpt>
      <trkpt lat="46.81005" lon="0.35145">
        <ele>78</ele>
        <time>2019-02-03T09:26:15.000Z</time>
      </trkpt>
      <trkpt lat="46.81005" lon="0.35147">
        <ele>78</ele>
        <time>2019-02-03T09:26:16.000Z</time>
      </trkpt>
      <trkpt lat="46.81007" lon="0.3515">
        <ele>80</ele>
        <time>2019-02-03T09:26:17.000Z</time>
      </trkpt>
      <trkpt lat="46.81009" lon="0.35153">
        <ele>81</ele>
        <time>2019-02-03T09:26:18.000Z</time>
      </trkpt>
      <trkpt lat="46.81011" lon="0.35155">
        <ele>81</ele>
        <time>2019-02-03T09:26:19.000Z</time>
      </trkpt>
      <trkpt lat="46.81012" lon="0.35156">
        <ele>81</ele>
        <time>2019-02-03T09:26:20.000Z</time>
      </trkpt>
      <trkpt lat="46.81014" lon="0.35158">
        <ele>79</ele>
        <time>2019-02-03T09:26:21.000Z</time>
      </trkpt>
      <trkpt lat="46.81016" lon="0.3516">
        <ele>79</ele>
        <time>2019-02-03T09:26:22.000Z</time>
      </trkpt>
      <trkpt lat="46.81018" lon="0.35162">
        <ele>80</ele>
        <time>2019-02-03T09:26:23.000Z</time>
      </trkpt>
      <trkpt lat="46.8102" lon="0.35163">
        <ele>80</ele>
        <time>2019-02-03T09:26:24.000Z</time>
      </trkpt>
      <trkpt lat="46.81022" lon="0.35165">
        <ele>81</ele>
        <time>2019-02-03T09:26:25.000Z</time>
      </trkpt>
      <trkpt lat="46.81025" lon="0.35168">
        <ele>81</ele>
        <time>2019-02-03T09:26:26.000Z</time>
      </trkpt>
      <trkpt lat="46.81027" lon="0.3517">
        <ele>81</ele>
        <time>2019-02-03T09:26:27.000Z</time>
      </trkpt>
      <trkpt lat="46.81029" lon="0.35172">
        <ele>80</ele>
        <time>2019-02-03T09:26:28.000Z</time>
      </trkpt>
      <trkpt lat="46.81031" lon="0.35175">
        <ele>80</ele>
        <time>2019-02-03T09:26:29.000Z</time>
      </trkpt>
      <trkpt lat="46.81033" lon="0.35177">
        <ele>79</ele>
        <time>2019-02-03T09:26:30.000Z</time>
      </trkpt>
      <trkpt lat="46.81035" lon="0.35179">
        <ele>80</ele>
        <time>2019-02-03T09:26:31.000Z</time>
      </trkpt>
      <trkpt lat="46.81037" lon="0.3518">
        <ele>80</ele>
        <time>2019-02-03T09:26:32.000Z</time>
      </trkpt>
      <trkpt lat="46.8104" lon="0.35183">
        <ele>80</ele>
        <time>2019-02-03T09:26:33.000Z</time>
      </trkpt>
      <trkpt lat="46.81042" lon="0.35185">
        <ele>80</ele>
        <time>2019-02-03T09:26:34.000Z</time>
      </trkpt>
      <trkpt lat="46.81044" lon="0.35187">
        <ele>80</ele>
        <time>2019-02-03T09:26:35.000Z</time>
      </trkpt>
      <trkpt lat="46.81046" lon="0.35189">
        <ele>80</ele>
        <time>2019-02-03T09:26:36.000Z</time>
      </trkpt>
      <trkpt lat="46.81049" lon="0.35191">
        <ele>80</ele>
        <time>2019-02-03T09:26:37.000Z</time>
      </trkpt>
      <trkpt lat="46.81051" lon="0.35193">
        <ele>81</ele>
        <time>2019-02-03T09:26:38.000Z</time>
      </trkpt>
      <trkpt lat="46.81054" lon="0.35194">
        <ele>81</ele>
        <time>2019-02-03T09:26:39.000Z</time>
      </trkpt>
      <trkpt lat="46.81057" lon="0.35196">
        <ele>81</ele>
        <time>2019-02-03T09:26:40.000Z</time>
      </trkpt>
      <trkpt lat="46.81059" lon="0.35198">
        <ele>81</ele>
        <time>2019-02-03T09:26:41.000Z</time>
      </trkpt>
      <trkpt lat="46.81062" lon="0.352">
        <ele>82</ele>
        <time>2019-02-03T09:26:42.000Z</time>
      </trkpt>
      <trkpt lat="46.81065" lon="0.35202">
        <ele>82</ele>
        <time>2019-02-03T09:26:43.000Z</time>
      </trkpt>
      <trkpt lat="46.81067" lon="0.35204">
        <ele>82</ele>
        <time>2019-02-03T09:26:44.000Z</time>
      </trkpt>
      <trkpt lat="46.8107" lon="0.35205">
        <ele>83</ele>
        <time>2019-02-03T09:26:45.000Z</time>
      </trkpt>
      <trkpt lat="46.81072" lon="0.35207">
        <ele>83</ele>
        <time>2019-02-03T09:26:46.000Z</time>
      </trkpt>
      <trkpt lat="46.81074" lon="0.35209">
        <ele>83</ele>
        <time>2019-02-03T09:26:47.000Z</time>
      </trkpt>
      <trkpt lat="46.81077" lon="0.35211">
        <ele>83</ele>
        <time>2019-02-03T09:26:48.000Z</time>
      </trkpt>
      <trkpt lat="46.81079" lon="0.35214">
        <ele>83</ele>
        <time>2019-02-03T09:26:49.000Z</time>
      </trkpt>
      <trkpt lat="46.81082" lon="0.35216">
        <ele>83</ele>
        <time>2019-02-03T09:26:50.000Z</time>
      </trkpt>
      <trkpt lat="46.81084" lon="0.35219">
        <ele>83</ele>
        <time>2019-02-03T09:26:51.000Z</time>
      </trkpt>
      <trkpt lat="46.81086" lon="0.35221">
        <ele>83</ele>
        <time>2019-02-03T09:26:52.000Z</time>
      </trkpt>
      <trkpt lat="46.81088" lon="0.35224">
        <ele>83</ele>
        <time>2019-02-03T09:26:53.000Z</time>
      </trkpt>
      <trkpt lat="46.8109" lon="0.35227">
        <ele>83</ele>
        <time>2019-02-03T09:26:54.000Z</time>
      </trkpt>
      <trkpt lat="46.81092" lon="0.3523">
        <ele>84</ele>
        <time>2019-02-03T09:26:55.000Z</time>
      </trkpt>
      <trkpt lat="46.81094" lon="0.35233">
        <ele>84</ele>
        <time>2019-02-03T09:26:56.000Z</time>
      </trkpt>
      <trkpt lat="46.81096" lon="0.35236">
        <ele>84</ele>
        <time>2019-02-03T09:26:57.000Z</time>
      </trkpt>
      <trkpt lat="46.81099" lon="0.35239">
        <ele>85</ele>
        <time>2019-02-03T09:26:58.000Z</time>
      </trkpt>
      <trkpt lat="46.81101" lon="0.35242">
        <ele>85</ele>
        <time>2019-02-03T09:26:59.000Z</time>
      </trkpt>
      <trkpt lat="46.81103" lon="0.35245">
        <ele>85</ele>
        <time>2019-02-03T09:27:00.000Z</time>
      </trkpt>
      <trkpt lat="46.81105" lon="0.35248">
        <ele>87</ele>
        <time>2019-02-03T09:27:01.000Z</time>
      </trkpt>
      <trkpt lat="46.81107" lon="0.35251">
        <ele>86</ele>
        <time>2019-02-03T09:27:02.000Z</time>
      </trkpt>
      <trkpt lat="46.81109" lon="0.35254">
        <ele>86</ele>
        <time>2019-02-03T09:27:03.000Z</time>
      </trkpt>
      <trkpt lat="46.81111" lon="0.35257">
        <ele>87</ele>
        <time>2019-02-03T09:27:04.000Z</time>
      </trkpt>
      <trkpt lat="46.81114" lon="0.35261">
        <ele>87</ele>
        <time>2019-02-03T09:27:05.000Z</time>
      </trkpt>
      <trkpt lat="46.81116" lon="0.35264">
        <ele>86</ele>
        <time>2019-02-03T09:27:06.000Z</time>
      </trkpt>
      <trkpt lat="46.81118" lon="0.35268">
        <ele>86</ele>
        <time>2019-02-03T09:27:07.000Z</time>
      </trkpt>
      <trkpt lat="46.81121" lon="0.35272">
        <ele>85</ele>
        <time>2019-02-03T09:27:08.000Z</time>
      </trkpt>
      <trkpt lat="46.81122" lon="0.35275">
        <ele>85</ele>
        <time>2019-02-03T09:27:09.000Z</time>
      </trkpt>
      <trkpt lat="46.81124" lon="0.35279">
        <ele>85</ele>
        <time>2019-02-03T09:27:10.000Z</time>
      </trkpt>
      <trkpt lat="46.81126" lon="0.35282">
        <ele>84</ele>
        <time>2019-02-03T09:27:11.000Z</time>
      </trkpt>
      <trkpt lat="46.81129" lon="0.35286">
        <ele>83</ele>
        <time>2019-02-03T09:27:12.000Z</time>
      </trkpt>
      <trkpt lat="46.81131" lon="0.35289">
        <ele>84</ele>
        <time>2019-02-03T09:27:13.000Z</time>
      </trkpt>
      <trkpt lat="46.81134" lon="0.35292">
        <ele>84</ele>
        <time>2019-02-03T09:27:14.000Z</time>
      </trkpt>
      <trkpt lat="46.81136" lon="0.35295">
        <ele>83</ele>
        <time>2019-02-03T09:27:15.000Z</time>
      </trkpt>
      <trkpt lat="46.81139" lon="0.35298">
        <ele>83</ele>
        <time>2019-02-03T09:27:16.000Z</time>
      </trkpt>
      <trkpt lat="46.81141" lon="0.35301">
        <ele>84</ele>
        <time>2019-02-03T09:27:17.000Z</time>
      </trkpt>
      <trkpt lat="46.81143" lon="0.35304">
        <ele>85</ele>
        <time>2019-02-03T09:27:18.000Z</time>
      </trkpt>
      <trkpt lat="46.81145" lon="0.35308">
        <ele>85</ele>
        <time>2019-02-03T09:27:19.000Z</time>
      </trkpt>
      <trkpt lat="46.81147" lon="0.35311">
        <ele>86</ele>
        <time>2019-02-03T09:27:20.000Z</time>
      </trkpt>
      <trkpt lat="46.8115" lon="0.35315">
        <ele>86</ele>
        <time>2019-02-03T09:27:21.000Z</time>
      </trkpt>
      <trkpt lat="46.81152" lon="0.35318">
        <ele>86</ele>
        <time>2019-02-03T09:27:22.000Z</time>
      </trkpt>
      <trkpt lat="46.81155" lon="0.35322">
        <ele>86</ele>
        <time>2019-02-03T09:27:23.000Z</time>
      </trkpt>
      <trkpt lat="46.81157" lon="0.35325">
        <ele>85</ele>
        <time>2019-02-03T09:27:24.000Z</time>
      </trkpt>
      <trkpt lat="46.81159" lon="0.35329">
        <ele>85</ele>
        <time>2019-02-03T09:27:25.000Z</time>
      </trkpt>
      <trkpt lat="46.81161" lon="0.35333">
        <ele>84</ele>
        <time>2019-02-03T09:27:26.000Z</time>
      </trkpt>
      <trkpt lat="46.81164" lon="0.35338">
        <ele>82</ele>
        <time>2019-02-03T09:27:27.000Z</time>
      </trkpt>
      <trkpt lat="46.81167" lon="0.35342">
        <ele>81</ele>
        <time>2019-02-03T09:27:28.000Z</time>
      </trkpt>
      <trkpt lat="46.8117" lon="0.35346">
        <ele>80</ele>
        <time>2019-02-03T09:27:29.000Z</time>
      </trkpt>
      <trkpt lat="46.81172" lon="0.3535">
        <ele>80</ele>
        <time>2019-02-03T09:27:30.000Z</time>
      </trkpt>
      <trkpt lat="46.81174" lon="0.35353">
        <ele>80</ele>
        <time>2019-02-03T09:27:31.000Z</time>
      </trkpt>
      <trkpt lat="46.81176" lon="0.35356">
        <ele>80</ele>
        <time>2019-02-03T09:27:32.000Z</time>
      </trkpt>
      <trkpt lat="46.81177" lon="0.3536">
        <ele>80</ele>
        <time>2019-02-03T09:27:33.000Z</time>
      </trkpt>
      <trkpt lat="46.81178" lon="0.35364">
        <ele>81</ele>
        <time>2019-02-03T09:27:34.000Z</time>
      </trkpt>
      <trkpt lat="46.81177" lon="0.35367">
        <ele>81</ele>
        <time>2019-02-03T09:27:35.000Z</time>
      </trkpt>
      <trkpt lat="46.81176" lon="0.3537">
        <ele>81</ele>
        <time>2019-02-03T09:27:36.000Z</time>
      </trkpt>
      <trkpt lat="46.81175" lon="0.35371">
        <ele>80</ele>
        <time>2019-02-03T09:27:37.000Z</time>
      </trkpt>
      <trkpt lat="46.81174" lon="0.35373">
        <ele>80</ele>
        <time>2019-02-03T09:27:38.000Z</time>
      </trkpt>
      <trkpt lat="46.81172" lon="0.35374">
        <ele>79</ele>
        <time>2019-02-03T09:27:39.000Z</time>
      </trkpt>
      <trkpt lat="46.8117" lon="0.35375">
        <ele>80</ele>
        <time>2019-02-03T09:27:40.000Z</time>
      </trkpt>
      <trkpt lat="46.81167" lon="0.35375">
        <ele>80</ele>
        <time>2019-02-03T09:27:41.000Z</time>
      </trkpt>
      <trkpt lat="46.81165" lon="0.35376">
        <ele>80</ele>
        <time>2019-02-03T09:27:42.000Z</time>
      </trkpt>
      <trkpt lat="46.81163" lon="0.35376">
        <ele>80</ele>
        <time>2019-02-03T09:27:43.000Z</time>
      </trkpt>
      <trkpt lat="46.81161" lon="0.35376">
        <ele>80</ele>
        <time>2019-02-03T09:27:44.000Z</time>
      </trkpt>
      <trkpt lat="46.81158" lon="0.35376">
        <ele>79</ele>
        <time>2019-02-03T09:27:45.000Z</time>
      </trkpt>
      <trkpt lat="46.81156" lon="0.35376">
        <ele>79</ele>
        <time>2019-02-03T09:27:46.000Z</time>
      </trkpt>
      <trkpt lat="46.81153" lon="0.35377">
        <ele>79</ele>
        <time>2019-02-03T09:27:47.000Z</time>
      </trkpt>
      <trkpt lat="46.8115" lon="0.35377">
        <ele>79</ele>
        <time>2019-02-03T09:27:48.000Z</time>
      </trkpt>
      <trkpt lat="46.81148" lon="0.35377">
        <ele>79</ele>
        <time>2019-02-03T09:27:49.000Z</time>
      </trkpt>
      <trkpt lat="46.81145" lon="0.35378">
        <ele>79</ele>
        <time>2019-02-03T09:27:50.000Z</time>
      </trkpt>
      <trkpt lat="46.81143" lon="0.35378">
        <ele>79</ele>
        <time>2019-02-03T09:27:51.000Z</time>
      </trkpt>
      <trkpt lat="46.8114" lon="0.35379">
        <ele>79</ele>
        <time>2019-02-03T09:27:52.000Z</time>
      </trkpt>
      <trkpt lat="46.81137" lon="0.35379">
        <ele>79</ele>
        <time>2019-02-03T09:27:53.000Z</time>
      </trkpt>
      <trkpt lat="46.81135" lon="0.35379">
        <ele>79</ele>
        <time>2019-02-03T09:27:54.000Z</time>
      </trkpt>
      <trkpt lat="46.81132" lon="0.3538">
        <ele>79</ele>
        <time>2019-02-03T09:27:55.000Z</time>
      </trkpt>
      <trkpt lat="46.81129" lon="0.3538">
        <ele>79</ele>
        <time>2019-02-03T09:27:56.000Z</time>
      </trkpt>
      <trkpt lat="46.81126" lon="0.3538">
        <ele>79</ele>
        <time>2019-02-03T09:27:57.000Z</time>
      </trkpt>
      <trkpt lat="46.81123" lon="0.35381">
        <ele>80</ele>
        <time>2019-02-03T09:27:58.000Z</time>
      </trkpt>
      <trkpt lat="46.8112" lon="0.35381">
        <ele>79</ele>
        <time>2019-02-03T09:27:59.000Z</time>
      </trkpt>
      <trkpt lat="46.81117" lon="0.35382">
        <ele>79</ele>
        <time>2019-02-03T09:28:00.000Z</time>
      </trkpt>
      <trkpt lat="46.81114" lon="0.35383">
        <ele>78</ele>
        <time>2019-02-03T09:28:01.000Z</time>
      </trkpt>
      <trkpt lat="46.8111" lon="0.35383">
        <ele>78</ele>
        <time>2019-02-03T09:28:02.000Z</time>
      </trkpt>
      <trkpt lat="46.81107" lon="0.35384">
        <ele>77</ele>
        <time>2019-02-03T09:28:03.000Z</time>
      </trkpt>
      <trkpt lat="46.81103" lon="0.35384">
        <ele>77</ele>
        <time>2019-02-03T09:28:04.000Z</time>
      </trkpt>
      <trkpt lat="46.811" lon="0.35383">
        <ele>76</ele>
        <time>2019-02-03T09:28:05.000Z</time>
      </trkpt>
      <trkpt lat="46.81096" lon="0.35383">
        <ele>75</ele>
        <time>2019-02-03T09:28:06.000Z</time>
      </trkpt>
      <trkpt lat="46.81092" lon="0.35382">
        <ele>75</ele>
        <time>2019-02-03T09:28:07.000Z</time>
      </trkpt>
      <trkpt lat="46.81088" lon="0.35382">
        <ele>75</ele>
        <time>2019-02-03T09:28:08.000Z</time>
      </trkpt>
      <trkpt lat="46.81084" lon="0.35382">
        <ele>76</ele>
        <time>2019-02-03T09:28:09.000Z</time>
      </trkpt>
      <trkpt lat="46.81081" lon="0.35382">
        <ele>76</ele>
        <time>2019-02-03T09:28:10.000Z</time>
      </trkpt>
      <trkpt lat="46.81077" lon="0.35383">
        <ele>76</ele>
        <time>2019-02-03T09:28:11.000Z</time>
      </trkpt>
      <trkpt lat="46.81074" lon="0.35383">
        <ele>76</ele>
        <time>2019-02-03T09:28:12.000Z</time>
      </trkpt>
      <trkpt lat="46.8107" lon="0.35384">
        <ele>77</ele>
        <time>2019-02-03T09:28:13.000Z</time>
      </trkpt>
      <trkpt lat="46.81067" lon="0.35384">
        <ele>77</ele>
        <time>2019-02-03T09:28:14.000Z</time>
      </trkpt>
      <trkpt lat="46.81064" lon="0.35384">
        <ele>76</ele>
        <time>2019-02-03T09:28:15.000Z</time>
      </trkpt>
      <trkpt lat="46.8106" lon="0.35384">
        <ele>76</ele>
        <time>2019-02-03T09:28:16.000Z</time>
      </trkpt>
      <trkpt lat="46.81057" lon="0.35385">
        <ele>76</ele>
        <time>2019-02-03T09:28:17.000Z</time>
      </trkpt>
      <trkpt lat="46.81054" lon="0.35385">
        <ele>76</ele>
        <time>2019-02-03T09:28:18.000Z</time>
      </trkpt>
      <trkpt lat="46.8105" lon="0.35386">
        <ele>77</ele>
        <time>2019-02-03T09:28:19.000Z</time>
      </trkpt>
      <trkpt lat="46.81047" lon="0.35386">
        <ele>77</ele>
        <time>2019-02-03T09:28:20.000Z</time>
      </trkpt>
      <trkpt lat="46.81044" lon="0.35385">
        <ele>77</ele>
        <time>2019-02-03T09:28:21.000Z</time>
      </trkpt>
      <trkpt lat="46.8104" lon="0.35385">
        <ele>75</ele>
        <time>2019-02-03T09:28:22.000Z</time>
      </trkpt>
      <trkpt lat="46.81036" lon="0.35384">
        <ele>73</ele>
        <time>2019-02-03T09:28:23.000Z</time>
      </trkpt>
      <trkpt lat="46.81033" lon="0.35383">
        <ele>73</ele>
        <time>2019-02-03T09:28:24.000Z</time>
      </trkpt>
      <trkpt lat="46.81029" lon="0.35382">
        <ele>74</ele>
        <time>2019-02-03T09:28:25.000Z</time>
      </trkpt>
      <trkpt lat="46.81026" lon="0.35381">
        <ele>75</ele>
        <time>2019-02-03T09:28:26.000Z</time>
      </trkpt>
      <trkpt lat="46.81022" lon="0.35379">
        <ele>75</ele>
        <time>2019-02-03T09:28:27.000Z</time>
      </trkpt>
      <trkpt lat="46.81019" lon="0.35377">
        <ele>75</ele>
        <time>2019-02-03T09:28:28.000Z</time>
      </trkpt>
      <trkpt lat="46.81015" lon="0.35376">
        <ele>75</ele>
        <time>2019-02-03T09:28:29.000Z</time>
      </trkpt>
      <trkpt lat="46.81012" lon="0.35375">
        <ele>75</ele>
        <time>2019-02-03T09:28:30.000Z</time>
      </trkpt>
      <trkpt lat="46.81008" lon="0.35374">
        <ele>75</ele>
        <time>2019-02-03T09:28:31.000Z</time>
      </trkpt>
      <trkpt lat="46.81005" lon="0.35373">
        <ele>75</ele>
        <time>2019-02-03T09:28:32.000Z</time>
      </trkpt>
      <trkpt lat="46.81001" lon="0.35373">
        <ele>76</ele>
        <time>2019-02-03T09:28:33.000Z</time>
      </trkpt>
      <trkpt lat="46.80998" lon="0.35372">
        <ele>76</ele>
        <time>2019-02-03T09:28:34.000Z</time>
      </trkpt>
      <trkpt lat="46.80994" lon="0.35373">
        <ele>76</ele>
        <time>2019-02-03T09:28:35.000Z</time>
      </trkpt>
      <trkpt lat="46.8099" lon="0.35373">
        <ele>76</ele>
        <time>2019-02-03T09:28:36.000Z</time>
      </trkpt>
      <trkpt lat="46.80987" lon="0.35373">
        <ele>76</ele>
        <time>2019-02-03T09:28:37.000Z</time>
      </trkpt>
      <trkpt lat="46.80983" lon="0.35374">
        <ele>76</ele>
        <time>2019-02-03T09:28:38.000Z</time>
      </trkpt>
      <trkpt lat="46.80979" lon="0.35374">
        <ele>76</ele>
        <time>2019-02-03T09:28:39.000Z</time>
      </trkpt>
      <trkpt lat="46.80976" lon="0.35375">
        <ele>76</ele>
        <time>2019-02-03T09:28:40.000Z</time>
      </trkpt>
      <trkpt lat="46.80972" lon="0.35376">
        <ele>76</ele>
        <time>2019-02-03T09:28:41.000Z</time>
      </trkpt>
      <trkpt lat="46.80968" lon="0.35378">
        <ele>75</ele>
        <time>2019-02-03T09:28:42.000Z</time>
      </trkpt>
      <trkpt lat="46.80964" lon="0.3538">
        <ele>74</ele>
        <time>2019-02-03T09:28:43.000Z</time>
      </trkpt>
      <trkpt lat="46.80961" lon="0.35381">
        <ele>75</ele>
        <time>2019-02-03T09:28:44.000Z</time>
      </trkpt>
      <trkpt lat="46.80957" lon="0.35383">
        <ele>74</ele>
        <time>2019-02-03T09:28:45.000Z</time>
      </trkpt>
      <trkpt lat="46.80954" lon="0.35384">
        <ele>74</ele>
        <time>2019-02-03T09:28:46.000Z</time>
      </trkpt>
      <trkpt lat="46.80951" lon="0.35386">
        <ele>74</ele>
        <time>2019-02-03T09:28:47.000Z</time>
      </trkpt>
      <trkpt lat="46.80948" lon="0.35388">
        <ele>74</ele>
        <time>2019-02-03T09:28:48.000Z</time>
      </trkpt>
      <trkpt lat="46.80944" lon="0.35391">
        <ele>74</ele>
        <time>2019-02-03T09:28:49.000Z</time>
      </trkpt>
      <trkpt lat="46.8094" lon="0.35393">
        <ele>74</ele>
        <time>2019-02-03T09:28:50.000Z</time>
      </trkpt>
      <trkpt lat="46.80936" lon="0.35396">
        <ele>73</ele>
        <time>2019-02-03T09:28:51.000Z</time>
      </trkpt>
      <trkpt lat="46.80932" lon="0.35399">
        <ele>73</ele>
        <time>2019-02-03T09:28:52.000Z</time>
      </trkpt>
      <trkpt lat="46.80928" lon="0.35402">
        <ele>74</ele>
        <time>2019-02-03T09:28:53.000Z</time>
      </trkpt>
      <trkpt lat="46.80924" lon="0.35405">
        <ele>74</ele>
        <time>2019-02-03T09:28:54.000Z</time>
      </trkpt>
      <trkpt lat="46.80919" lon="0.35408">
        <ele>74</ele>
        <time>2019-02-03T09:28:55.000Z</time>
      </trkpt>
      <trkpt lat="46.80915" lon="0.35411">
        <ele>73</ele>
        <time>2019-02-03T09:28:56.000Z</time>
      </trkpt>
      <trkpt lat="46.8091" lon="0.35414">
        <ele>73</ele>
        <time>2019-02-03T09:28:57.000Z</time>
      </trkpt>
      <trkpt lat="46.80906" lon="0.35417">
        <ele>73</ele>
        <time>2019-02-03T09:28:58.000Z</time>
      </trkpt>
      <trkpt lat="46.80902" lon="0.3542">
        <ele>73</ele>
        <time>2019-02-03T09:28:59.000Z</time>
      </trkpt>
      <trkpt lat="46.80898" lon="0.35423">
        <ele>73</ele>
        <time>2019-02-03T09:29:00.000Z</time>
      </trkpt>
      <trkpt lat="46.80894" lon="0.35426">
        <ele>73</ele>
        <time>2019-02-03T09:29:01.000Z</time>
      </trkpt>
      <trkpt lat="46.80891" lon="0.3543">
        <ele>74</ele>
        <time>2019-02-03T09:29:02.000Z</time>
      </trkpt>
      <trkpt lat="46.80888" lon="0.35435">
        <ele>73</ele>
        <time>2019-02-03T09:29:03.000Z</time>
      </trkpt>
      <trkpt lat="46.80885" lon="0.3544">
        <ele>73</ele>
        <time>2019-02-03T09:29:04.000Z</time>
      </trkpt>
      <trkpt lat="46.80882" lon="0.35445">
        <ele>73</ele>
        <time>2019-02-03T09:29:05.000Z</time>
      </trkpt>
      <trkpt lat="46.80879" lon="0.3545">
        <ele>73</ele>
        <time>2019-02-03T09:29:06.000Z</time>
      </trkpt>
      <trkpt lat="46.80876" lon="0.35455">
        <ele>74</ele>
        <time>2019-02-03T09:29:07.000Z</time>
      </trkpt>
      <trkpt lat="46.80874" lon="0.3546">
        <ele>74</ele>
        <time>2019-02-03T09:29:08.000Z</time>
      </trkpt>
      <trkpt lat="46.80871" lon="0.35464">
        <ele>75</ele>
        <time>2019-02-03T09:29:09.000Z</time>
      </trkpt>
      <trkpt lat="46.80869" lon="0.35468">
        <ele>75</ele>
        <time>2019-02-03T09:29:10.000Z</time>
      </trkpt>
      <trkpt lat="46.80866" lon="0.35472">
        <ele>74</ele>
        <time>2019-02-03T09:29:11.000Z</time>
      </trkpt>
      <trkpt lat="46.80864" lon="0.35477">
        <ele>74</ele>
        <time>2019-02-03T09:29:12.000Z</time>
      </trkpt>
      <trkpt lat="46.80861" lon="0.35481">
        <ele>74</ele>
        <time>2019-02-03T09:29:13.000Z</time>
      </trkpt>
      <trkpt lat="46.80859" lon="0.35486">
        <ele>74</ele>
        <time>2019-02-03T09:29:14.000Z</time>
      </trkpt>
      <trkpt lat="46.80856" lon="0.3549">
        <ele>74</ele>
        <time>2019-02-03T09:29:15.000Z</time>
      </trkpt>
      <trkpt lat="46.80853" lon="0.35493">
        <ele>74</ele>
        <time>2019-02-03T09:29:16.000Z</time>
      </trkpt>
      <trkpt lat="46.8085" lon="0.35497">
        <ele>74</ele>
        <time>2019-02-03T09:29:17.000Z</time>
      </trkpt>
      <trkpt lat="46.80848" lon="0.35501">
        <ele>74</ele>
        <time>2019-02-03T09:29:18.000Z</time>
      </trkpt>
      <trkpt lat="46.80845" lon="0.35504">
        <ele>74</ele>
        <time>2019-02-03T09:29:19.000Z</time>
      </trkpt>
      <trkpt lat="46.80842" lon="0.35508">
        <ele>74</ele>
        <time>2019-02-03T09:29:20.000Z</time>
      </trkpt>
      <trkpt lat="46.80839" lon="0.35511">
        <ele>73</ele>
        <time>2019-02-03T09:29:21.000Z</time>
      </trkpt>
      <trkpt lat="46.80835" lon="0.35514">
        <ele>73</ele>
        <time>2019-02-03T09:29:22.000Z</time>
      </trkpt>
      <trkpt lat="46.80832" lon="0.35517">
        <ele>73</ele>
        <time>2019-02-03T09:29:23.000Z</time>
      </trkpt>
      <trkpt lat="46.80829" lon="0.3552">
        <ele>73</ele>
        <time>2019-02-03T09:29:24.000Z</time>
      </trkpt>
      <trkpt lat="46.80826" lon="0.35523">
        <ele>73</ele>
        <time>2019-02-03T09:29:25.000Z</time>
      </trkpt>
      <trkpt lat="46.80823" lon="0.35526">
        <ele>73</ele>
        <time>2019-02-03T09:29:26.000Z</time>
      </trkpt>
      <trkpt lat="46.80819" lon="0.35529">
        <ele>73</ele>
        <time>2019-02-03T09:29:27.000Z</time>
      </trkpt>
      <trkpt lat="46.80816" lon="0.35532">
        <ele>74</ele>
        <time>2019-02-03T09:29:28.000Z</time>
      </trkpt>
      <trkpt lat="46.80813" lon="0.35536">
        <ele>74</ele>
        <time>2019-02-03T09:29:29.000Z</time>
      </trkpt>
      <trkpt lat="46.8081" lon="0.35539">
        <ele>74</ele>
        <time>2019-02-03T09:29:30.000Z</time>
      </trkpt>
      <trkpt lat="46.80807" lon="0.35542">
        <ele>74</ele>
        <time>2019-02-03T09:29:31.000Z</time>
      </trkpt>
      <trkpt lat="46.80803" lon="0.35545">
        <ele>74</ele>
        <time>2019-02-03T09:29:32.000Z</time>
      </trkpt>
      <trkpt lat="46.808" lon="0.35548">
        <ele>74</ele>
        <time>2019-02-03T09:29:33.000Z</time>
      </trkpt>
      <trkpt lat="46.80797" lon="0.35551">
        <ele>75</ele>
        <time>2019-02-03T09:29:34.000Z</time>
      </trkpt>
      <trkpt lat="46.80794" lon="0.35553">
        <ele>75</ele>
        <time>2019-02-03T09:29:35.000Z</time>
      </trkpt>
      <trkpt lat="46.80791" lon="0.35556">
        <ele>75</ele>
        <time>2019-02-03T09:29:36.000Z</time>
      </trkpt>
      <trkpt lat="46.80788" lon="0.35558">
        <ele>75</ele>
        <time>2019-02-03T09:29:37.000Z</time>
      </trkpt>
      <trkpt lat="46.80785" lon="0.35561">
        <ele>75</ele>
        <time>2019-02-03T09:29:38.000Z</time>
      </trkpt>
      <trkpt lat="46.80782" lon="0.35563">
        <ele>75</ele>
        <time>2019-02-03T09:29:39.000Z</time>
      </trkpt>
      <trkpt lat="46.80778" lon="0.35565">
        <ele>75</ele>
        <time>2019-02-03T09:29:40.000Z</time>
      </trkpt>
      <trkpt lat="46.80775" lon="0.35567">
        <ele>75</ele>
        <time>2019-02-03T09:29:41.000Z</time>
      </trkpt>
      <trkpt lat="46.80772" lon="0.35569">
        <ele>75</ele>
        <time>2019-02-03T09:29:42.000Z</time>
      </trkpt>
      <trkpt lat="46.80768" lon="0.3557">
        <ele>75</ele>
        <time>2019-02-03T09:29:43.000Z</time>
      </trkpt>
      <trkpt lat="46.80765" lon="0.35572">
        <ele>75</ele>
        <time>2019-02-03T09:29:44.000Z</time>
      </trkpt>
      <trkpt lat="46.80761" lon="0.35573">
        <ele>75</ele>
        <time>2019-02-03T09:29:45.000Z</time>
      </trkpt>
      <trkpt lat="46.80757" lon="0.35574">
        <ele>75</ele>
        <time>2019-02-03T09:29:46.000Z</time>
      </trkpt>
      <trkpt lat="46.80754" lon="0.35576">
        <ele>75</ele>
        <time>2019-02-03T09:29:47.000Z</time>
      </trkpt>
      <trkpt lat="46.8075" lon="0.35577">
        <ele>75</ele>
        <time>2019-02-03T09:29:48.000Z</time>
      </trkpt>
      <trkpt lat="46.80746" lon="0.35578">
        <ele>75</ele>
        <time>2019-02-03T09:29:49.000Z</time>
      </trkpt>
      <trkpt lat="46.80742" lon="0.35579">
        <ele>75</ele>
        <time>2019-02-03T09:29:50.000Z</time>
      </trkpt>
      <trkpt lat="46.80738" lon="0.3558">
        <ele>75</ele>
        <time>2019-02-03T09:29:51.000Z</time>
      </trkpt>
      <trkpt lat="46.80734" lon="0.35582">
        <ele>75</ele>
        <time>2019-02-03T09:29:52.000Z</time>
      </trkpt>
      <trkpt lat="46.8073" lon="0.35583">
        <ele>75</ele>
        <time>2019-02-03T09:29:53.000Z</time>
      </trkpt>
      <trkpt lat="46.80726" lon="0.35584">
        <ele>75</ele>
        <time>2019-02-03T09:29:54.000Z</time>
      </trkpt>
      <trkpt lat="46.80723" lon="0.35586">
        <ele>75</ele>
        <time>2019-02-03T09:29:55.000Z</time>
      </trkpt>
      <trkpt lat="46.80719" lon="0.35587">
        <ele>75</ele>
        <time>2019-02-03T09:29:56.000Z</time>
      </trkpt>
      <trkpt lat="46.80715" lon="0.35588">
        <ele>75</ele>
        <time>2019-02-03T09:29:57.000Z</time>
      </trkpt>
      <trkpt lat="46.80711" lon="0.3559">
        <ele>75</ele>
        <time>2019-02-03T09:29:58.000Z</time>
      </trkpt>
      <trkpt lat="46.80707" lon="0.35592">
        <ele>75</ele>
        <time>2019-02-03T09:29:59.000Z</time>
      </trkpt>
      <trkpt lat="46.80704" lon="0.35594">
        <ele>74</ele>
        <time>2019-02-03T09:30:00.000Z</time>
      </trkpt>
      <trkpt lat="46.807" lon="0.35596">
        <ele>74</ele>
        <time>2019-02-03T09:30:01.000Z</time>
      </trkpt>
      <trkpt lat="46.80696" lon="0.35598">
        <ele>74</ele>
        <time>2019-02-03T09:30:02.000Z</time>
      </trkpt>
      <trkpt lat="46.80693" lon="0.35601">
        <ele>74</ele>
        <time>2019-02-03T09:30:03.000Z</time>
      </trkpt>
      <trkpt lat="46.80689" lon="0.35603">
        <ele>74</ele>
        <time>2019-02-03T09:30:04.000Z</time>
      </trkpt>
      <trkpt lat="46.80686" lon="0.35605">
        <ele>74</ele>
        <time>2019-02-03T09:30:05.000Z</time>
      </trkpt>
      <trkpt lat="46.80682" lon="0.35608">
        <ele>74</ele>
        <time>2019-02-03T09:30:06.000Z</time>
      </trkpt>
      <trkpt lat="46.80678" lon="0.3561">
        <ele>74</ele>
        <time>2019-02-03T09:30:07.000Z</time>
      </trkpt>
      <trkpt lat="46.80675" lon="0.35613">
        <ele>74</ele>
        <time>2019-02-03T09:30:08.000Z</time>
      </trkpt>
      <trkpt lat="46.80672" lon="0.35615">
        <ele>74</ele>
        <time>2019-02-03T09:30:09.000Z</time>
      </trkpt>
      <trkpt lat="46.80668" lon="0.35617">
        <ele>74</ele>
        <time>2019-02-03T09:30:10.000Z</time>
      </trkpt>
      <trkpt lat="46.80665" lon="0.35619">
        <ele>74</ele>
        <time>2019-02-03T09:30:11.000Z</time>
      </trkpt>
      <trkpt lat="46.80661" lon="0.35622">
        <ele>74</ele>
        <time>2019-02-03T09:30:12.000Z</time>
      </trkpt>
      <trkpt lat="46.80658" lon="0.35624">
        <ele>74</ele>
        <time>2019-02-03T09:30:13.000Z</time>
      </trkpt>
      <trkpt lat="46.80655" lon="0.35626">
        <ele>74</ele>
        <time>2019-02-03T09:30:14.000Z</time>
      </trkpt>
      <trkpt lat="46.80651" lon="0.35628">
        <ele>74</ele>
        <time>2019-02-03T09:30:15.000Z</time>
      </trkpt>
      <trkpt lat="46.80647" lon="0.3563">
        <ele>74</ele>
        <time>2019-02-03T09:30:16.000Z</time>
      </trkpt>
      <trkpt lat="46.80644" lon="0.35632">
        <ele>74</ele>
        <time>2019-02-03T09:30:17.000Z</time>
      </trkpt>
      <trkpt lat="46.8064" lon="0.35634">
        <ele>74</ele>
        <time>2019-02-03T09:30:18.000Z</time>
      </trkpt>
      <trkpt lat="46.80637" lon="0.35635">
        <ele>74</ele>
        <time>2019-02-03T09:30:19.000Z</time>
      </trkpt>
      <trkpt lat="46.80633" lon="0.35636">
        <ele>74</ele>
        <time>2019-02-03T09:30:20.000Z</time>
      </trkpt>
      <trkpt lat="46.8063" lon="0.35637">
        <ele>74</ele>
        <time>2019-02-03T09:30:21.000Z</time>
      </trkpt>
      <trkpt lat="46.80627" lon="0.35639">
        <ele>75</ele>
        <time>2019-02-03T09:30:22.000Z</time>
      </trkpt>
      <trkpt lat="46.80625" lon="0.35642">
        <ele>76</ele>
        <time>2019-02-03T09:30:23.000Z</time>
      </trkpt>
      <trkpt lat="46.80623" lon="0.35644">
        <ele>76</ele>
        <time>2019-02-03T09:30:24.000Z</time>
      </trkpt>
      <trkpt lat="46.80621" lon="0.35647">
        <ele>76</ele>
        <time>2019-02-03T09:30:25.000Z</time>
      </trkpt>
      <trkpt lat="46.80618" lon="0.35651">
        <ele>76</ele>
        <time>2019-02-03T09:30:26.000Z</time>
      </trkpt>
      <trkpt lat="46.80615" lon="0.35655">
        <ele>76</ele>
        <time>2019-02-03T09:30:27.000Z</time>
      </trkpt>
      <trkpt lat="46.80612" lon="0.35659">
        <ele>76</ele>
        <time>2019-02-03T09:30:28.000Z</time>
      </trkpt>
      <trkpt lat="46.8061" lon="0.35662">
        <ele>76</ele>
        <time>2019-02-03T09:30:29.000Z</time>
      </trkpt>
      <trkpt lat="46.80607" lon="0.35664">
        <ele>76</ele>
        <time>2019-02-03T09:30:30.000Z</time>
      </trkpt>
      <trkpt lat="46.80605" lon="0.35667">
        <ele>76</ele>
        <time>2019-02-03T09:30:31.000Z</time>
      </trkpt>
      <trkpt lat="46.80602" lon="0.35668">
        <ele>76</ele>
        <time>2019-02-03T09:30:32.000Z</time>
      </trkpt>
      <trkpt lat="46.80599" lon="0.35668">
        <ele>76</ele>
        <time>2019-02-03T09:30:33.000Z</time>
      </trkpt>
      <trkpt lat="46.80595" lon="0.35669">
        <ele>75</ele>
        <time>2019-02-03T09:30:34.000Z</time>
      </trkpt>
      <trkpt lat="46.80593" lon="0.35671">
        <ele>74</ele>
        <time>2019-02-03T09:30:35.000Z</time>
      </trkpt>
      <trkpt lat="46.8059" lon="0.35675">
        <ele>73</ele>
        <time>2019-02-03T09:30:36.000Z</time>
      </trkpt>
      <trkpt lat="46.80588" lon="0.3568">
        <ele>73</ele>
        <time>2019-02-03T09:30:37.000Z</time>
      </trkpt>
      <trkpt lat="46.80586" lon="0.35685">
        <ele>73</ele>
        <time>2019-02-03T09:30:38.000Z</time>
      </trkpt>
      <trkpt lat="46.80584" lon="0.35688">
        <ele>72</ele>
        <time>2019-02-03T09:30:39.000Z</time>
      </trkpt>
      <trkpt lat="46.80582" lon="0.35691">
        <ele>72</ele>
        <time>2019-02-03T09:30:40.000Z</time>
      </trkpt>
      <trkpt lat="46.80579" lon="0.35694">
        <ele>73</ele>
        <time>2019-02-03T09:30:41.000Z</time>
      </trkpt>
      <trkpt lat="46.80577" lon="0.35696">
        <ele>72</ele>
        <time>2019-02-03T09:30:42.000Z</time>
      </trkpt>
      <trkpt lat="46.80575" lon="0.35699">
        <ele>72</ele>
        <time>2019-02-03T09:30:43.000Z</time>
      </trkpt>
      <trkpt lat="46.80573" lon="0.35701">
        <ele>72</ele>
        <time>2019-02-03T09:30:44.000Z</time>
      </trkpt>
      <trkpt lat="46.80571" lon="0.35704">
        <ele>72</ele>
        <time>2019-02-03T09:30:45.000Z</time>
      </trkpt>
      <trkpt lat="46.80568" lon="0.35707">
        <ele>72</ele>
        <time>2019-02-03T09:30:46.000Z</time>
      </trkpt>
      <trkpt lat="46.80566" lon="0.35709">
        <ele>72</ele>
        <time>2019-02-03T09:30:47.000Z</time>
      </trkpt>
      <trkpt lat="46.80563" lon="0.35712">
        <ele>72</ele>
        <time>2019-02-03T09:30:48.000Z</time>
      </trkpt>
      <trkpt lat="46.80561" lon="0.35714">
        <ele>73</ele>
        <time>2019-02-03T09:30:49.000Z</time>
      </trkpt>
      <trkpt lat="46.80558" lon="0.35715">
        <ele>73</ele>
        <time>2019-02-03T09:30:50.000Z</time>
      </trkpt>
      <trkpt lat="46.80555" lon="0.35717">
        <ele>73</ele>
        <time>2019-02-03T09:30:51.000Z</time>
      </trkpt>
      <trkpt lat="46.80553" lon="0.35719">
        <ele>74</ele>
        <time>2019-02-03T09:30:52.000Z</time>
      </trkpt>
      <trkpt lat="46.80551" lon="0.35722">
        <ele>73</ele>
        <time>2019-02-03T09:30:53.000Z</time>
      </trkpt>
      <trkpt lat="46.80549" lon="0.35726">
        <ele>72</ele>
        <time>2019-02-03T09:30:54.000Z</time>
      </trkpt>
      <trkpt lat="46.80548" lon="0.35729">
        <ele>72</ele>
        <time>2019-02-03T09:30:55.000Z</time>
      </trkpt>
      <trkpt lat="46.80546" lon="0.35733">
        <ele>72</ele>
        <time>2019-02-03T09:30:56.000Z</time>
      </trkpt>
      <trkpt lat="46.80543" lon="0.35736">
        <ele>71</ele>
        <time>2019-02-03T09:30:57.000Z</time>
      </trkpt>
      <trkpt lat="46.8054" lon="0.35739">
        <ele>70</ele>
        <time>2019-02-03T09:30:58.000Z</time>
      </trkpt>
      <trkpt lat="46.80537" lon="0.35743">
        <ele>70</ele>
        <time>2019-02-03T09:30:59.000Z</time>
      </trkpt>
      <trkpt lat="46.80535" lon="0.35746">
        <ele>70</ele>
        <time>2019-02-03T09:31:00.000Z</time>
      </trkpt>
      <trkpt lat="46.80534" lon="0.35749">
        <ele>71</ele>
        <time>2019-02-03T09:31:01.000Z</time>
      </trkpt>
      <trkpt lat="46.80532" lon="0.35752">
        <ele>70</ele>
        <time>2019-02-03T09:31:02.000Z</time>
      </trkpt>
      <trkpt lat="46.80531" lon="0.35755">
        <ele>69</ele>
        <time>2019-02-03T09:31:03.000Z</time>
      </trkpt>
      <trkpt lat="46.80531" lon="0.35758">
        <ele>70</ele>
        <time>2019-02-03T09:31:04.000Z</time>
      </trkpt>
      <trkpt lat="46.80531" lon="0.35761">
        <ele>70</ele>
        <time>2019-02-03T09:31:05.000Z</time>
      </trkpt>
      <trkpt lat="46.80531" lon="0.35763">
        <ele>69</ele>
        <time>2019-02-03T09:31:06.000Z</time>
      </trkpt>
      <trkpt lat="46.80532" lon="0.35765">
        <ele>70</ele>
        <time>2019-02-03T09:31:07.000Z</time>
      </trkpt>
      <trkpt lat="46.80533" lon="0.35768">
        <ele>71</ele>
        <time>2019-02-03T09:31:08.000Z</time>
      </trkpt>
      <trkpt lat="46.80533" lon="0.35769">
        <ele>72</ele>
        <time>2019-02-03T09:31:09.000Z</time>
      </trkpt>
      <trkpt lat="46.80534" lon="0.35771">
        <ele>73</ele>
        <time>2019-02-03T09:31:10.000Z</time>
      </trkpt>
      <trkpt lat="46.80535" lon="0.35773">
        <ele>73</ele>
        <time>2019-02-03T09:31:11.000Z</time>
      </trkpt>
      <trkpt lat="46.80537" lon="0.35777">
        <ele>74</ele>
        <time>2019-02-03T09:31:12.000Z</time>
      </trkpt>
      <trkpt lat="46.80539" lon="0.3578">
        <ele>74</ele>
        <time>2019-02-03T09:31:13.000Z</time>
      </trkpt>
      <trkpt lat="46.80541" lon="0.35784">
        <ele>74</ele>
        <time>2019-02-03T09:31:14.000Z</time>
      </trkpt>
      <trkpt lat="46.80544" lon="0.35787">
        <ele>75</ele>
        <time>2019-02-03T09:31:15.000Z</time>
      </trkpt>
      <trkpt lat="46.80546" lon="0.35791">
        <ele>74</ele>
        <time>2019-02-03T09:31:16.000Z</time>
      </trkpt>
      <trkpt lat="46.80549" lon="0.35794">
        <ele>74</ele>
        <time>2019-02-03T09:31:17.000Z</time>
      </trkpt>
      <trkpt lat="46.80551" lon="0.35798">
        <ele>74</ele>
        <time>2019-02-03T09:31:18.000Z</time>
      </trkpt>
      <trkpt lat="46.80554" lon="0.35802">
        <ele>74</ele>
        <time>2019-02-03T09:31:19.000Z</time>
      </trkpt>
      <trkpt lat="46.80556" lon="0.35805">
        <ele>74</ele>
        <time>2019-02-03T09:31:20.000Z</time>
      </trkpt>
      <trkpt lat="46.80558" lon="0.35808">
        <ele>74</ele>
        <time>2019-02-03T09:31:21.000Z</time>
      </trkpt>
      <trkpt lat="46.8056" lon="0.35811">
        <ele>73</ele>
        <time>2019-02-03T09:31:22.000Z</time>
      </trkpt>
      <trkpt lat="46.80561" lon="0.35814">
        <ele>73</ele>
        <time>2019-02-03T09:31:23.000Z</time>
      </trkpt>
      <trkpt lat="46.80563" lon="0.35816">
        <ele>73</ele>
        <time>2019-02-03T09:31:24.000Z</time>
      </trkpt>
      <trkpt lat="46.80564" lon="0.35818">
        <ele>73</ele>
        <time>2019-02-03T09:31:25.000Z</time>
      </trkpt>
      <trkpt lat="46.80565" lon="0.3582">
        <ele>71</ele>
        <time>2019-02-03T09:31:26.000Z</time>
      </trkpt>
      <trkpt lat="46.80566" lon="0.35821">
        <ele>72</ele>
        <time>2019-02-03T09:31:27.000Z</time>
      </trkpt>
      <trkpt lat="46.80566" lon="0.35822">
        <ele>74</ele>
        <time>2019-02-03T09:31:28.000Z</time>
      </trkpt>
      <trkpt lat="46.80567" lon="0.35822">
        <ele>74</ele>
        <time>2019-02-03T09:31:29.000Z</time>
      </trkpt>
      <trkpt lat="46.80568" lon="0.35822">
        <ele>75</ele>
        <time>2019-02-03T09:31:30.000Z</time>
      </trkpt>
      <trkpt lat="46.80569" lon="0.35824">
        <ele>75</ele>
        <time>2019-02-03T09:31:31.000Z</time>
      </trkpt>
      <trkpt lat="46.8057" lon="0.35826">
        <ele>75</ele>
        <time>2019-02-03T09:31:32.000Z</time>
      </trkpt>
      <trkpt lat="46.80571" lon="0.35827">
        <ele>76</ele>
        <time>2019-02-03T09:31:33.000Z</time>
      </trkpt>
      <trkpt lat="46.80571" lon="0.35828">
        <ele>78</ele>
        <time>2019-02-03T09:31:34.000Z</time>
      </trkpt>
      <trkpt lat="46.80572" lon="0.35829">
        <ele>79</ele>
        <time>2019-02-03T09:31:35.000Z</time>
      </trkpt>
      <trkpt lat="46.80572" lon="0.35829">
        <ele>80</ele>
        <time>2019-02-03T09:31:36.000Z</time>
      </trkpt>
      <trkpt lat="46.80572" lon="0.3583">
        <ele>80</ele>
        <time>2019-02-03T09:31:37.000Z</time>
      </trkpt>
      <trkpt lat="46.80572" lon="0.3583">
        <ele>81</ele>
        <time>2019-02-03T09:31:38.000Z</time>
      </trkpt>
      <trkpt lat="46.80572" lon="0.3583">
        <ele>81</ele>
        <time>2019-02-03T09:31:39.000Z</time>
      </trkpt>
      <trkpt lat="46.80572" lon="0.35831">
        <ele>82</ele>
        <time>2019-02-03T09:31:40.000Z</time>
      </trkpt>
      <trkpt lat="46.80572" lon="0.35831">
        <ele>83</ele>
        <time>2019-02-03T09:31:41.000Z</time>
      </trkpt>
      <trkpt lat="46.80572" lon="0.35831">
        <ele>83</ele>
        <time>2019-02-03T09:31:42.000Z</time>
      </trkpt>
      <trkpt lat="46.80572" lon="0.3583">
        <ele>84</ele>
        <time>2019-02-03T09:31:43.000Z</time>
      </trkpt>
      <trkpt lat="46.80572" lon="0.3583">
        <ele>84</ele>
        <time>2019-02-03T09:31:44.000Z</time>
      </trkpt>
      <trkpt lat="46.80572" lon="0.3583">
        <ele>85</ele>
        <time>2019-02-03T09:31:45.000Z</time>
      </trkpt>
      <trkpt lat="46.80572" lon="0.3583">
        <ele>86</ele>
        <time>2019-02-03T09:31:46.000Z</time>
      </trkpt>
      <trkpt lat="46.80572" lon="0.35831">
        <ele>87</ele>
        <time>2019-02-03T09:31:47.000Z</time>
      </trkpt>
      <trkpt lat="46.80572" lon="0.35831">
        <ele>88</ele>
        <time>2019-02-03T09:31:48.000Z</time>
      </trkpt>
      <trkpt lat="46.80572" lon="0.35831">
        <ele>87</ele>
        <time>2019-02-03T09:31:49.000Z</time>
      </trkpt>
      <trkpt lat="46.80572" lon="0.35832">
        <ele>87</ele>
        <time>2019-02-03T09:31:50.000Z</time>
      </trkpt>
      <trkpt lat="46.80573" lon="0.35832">
        <ele>86</ele>
        <time>2019-02-03T09:31:51.000Z</time>
      </trkpt>
      <trkpt lat="46.80573" lon="0.35832">
        <ele>85</ele>
        <time>2019-02-03T09:31:52.000Z</time>
      </trkpt>
      <trkpt lat="46.80573" lon="0.35832">
        <ele>84</ele>
        <time>2019-02-03T09:31:53.000Z</time>
      </trkpt>
      <trkpt lat="46.80574" lon="0.35832">
        <ele>83</ele>
        <time>2019-02-03T09:31:54.000Z</time>
      </trkpt>
      <trkpt lat="46.80574" lon="0.35832">
        <ele>82</ele>
        <time>2019-02-03T09:31:55.000Z</time>
      </trkpt>
      <trkpt lat="46.80575" lon="0.35832">
        <ele>81</ele>
        <time>2019-02-03T09:31:56.000Z</time>
      </trkpt>
      <trkpt lat="46.80575" lon="0.35832">
        <ele>81</ele>
        <time>2019-02-03T09:31:57.000Z</time>
      </trkpt>
      <trkpt lat="46.80576" lon="0.35832">
        <ele>82</ele>
        <time>2019-02-03T09:31:58.000Z</time>
      </trkpt>
      <trkpt lat="46.80576" lon="0.35831">
        <ele>82</ele>
        <time>2019-02-03T09:31:59.000Z</time>
      </trkpt>
      <trkpt lat="46.80576" lon="0.35831">
        <ele>83</ele>
        <time>2019-02-03T09:32:00.000Z</time>
      </trkpt>
      <trkpt lat="46.80577" lon="0.35831">
        <ele>83</ele>
        <time>2019-02-03T09:32:01.000Z</time>
      </trkpt>
      <trkpt lat="46.80577" lon="0.35831">
        <ele>84</ele>
        <time>2019-02-03T09:32:02.000Z</time>
      </trkpt>
      <trkpt lat="46.80577" lon="0.35831">
        <ele>84</ele>
        <time>2019-02-03T09:32:03.000Z</time>
      </trkpt>
      <trkpt lat="46.80577" lon="0.35831">
        <ele>83</ele>
        <time>2019-02-03T09:32:04.000Z</time>
      </trkpt>
      <trkpt lat="46.80577" lon="0.35831">
        <ele>83</ele>
        <time>2019-02-03T09:32:05.000Z</time>
      </trkpt>
      <trkpt lat="46.80578" lon="0.35831">
        <ele>83</ele>
        <time>2019-02-03T09:32:06.000Z</time>
      </trkpt>
      <trkpt lat="46.80578" lon="0.35831">
        <ele>83</ele>
        <time>2019-02-03T09:32:07.000Z</time>
      </trkpt>
      <trkpt lat="46.80578" lon="0.35831">
        <ele>83</ele>
        <time>2019-02-03T09:32:08.000Z</time>
      </trkpt>
      <trkpt lat="46.80578" lon="0.35831">
        <ele>82</ele>
        <time>2019-02-03T09:32:09.000Z</time>
      </trkpt>
      <trkpt lat="46.80579" lon="0.35831">
        <ele>82</ele>
        <time>2019-02-03T09:32:10.000Z</time>
      </trkpt>
      <trkpt lat="46.80579" lon="0.35831">
        <ele>82</ele>
        <time>2019-02-03T09:32:11.000Z</time>
      </trkpt>
      <trkpt lat="46.80579" lon="0.35831">
        <ele>82</ele>
        <time>2019-02-03T09:32:12.000Z</time>
      </trkpt>
      <trkpt lat="46.80579" lon="0.35831">
        <ele>82</ele>
        <time>2019-02-03T09:32:13.000Z</time>
      </trkpt>
      <trkpt lat="46.80579" lon="0.35831">
        <ele>82</ele>
        <time>2019-02-03T09:32:14.000Z</time>
      </trkpt>
      <trkpt lat="46.80579" lon="0.35831">
        <ele>82</ele>
        <time>2019-02-03T09:32:15.000Z</time>
      </trkpt>
      <trkpt lat="46.80579" lon="0.35832">
        <ele>82</ele>
        <time>2019-02-03T09:32:16.000Z</time>
      </trkpt>
      <trkpt lat="46.80579" lon="0.35832">
        <ele>82</ele>
        <time>2019-02-03T09:32:17.000Z</time>
      </trkpt>
      <trkpt lat="46.80578" lon="0.35832">
        <ele>82</ele>
        <time>2019-02-03T09:32:18.000Z</time>
      </trkpt>
      <trkpt lat="46.80578" lon="0.35832">
        <ele>82</ele>
        <time>2019-02-03T09:32:19.000Z</time>
      </trkpt>
      <trkpt lat="46.80578" lon="0.35832">
        <ele>83</ele>
        <time>2019-02-03T09:32:20.000Z</time>
      </trkpt>
      <trkpt lat="46.80578" lon="0.35832">
        <ele>84</ele>
        <time>2019-02-03T09:32:21.000Z</time>
      </trkpt>
      <trkpt lat="46.80578" lon="0.35832">
        <ele>84</ele>
        <time>2019-02-03T09:32:22.000Z</time>
      </trkpt>
      <trkpt lat="46.80578" lon="0.35832">
        <ele>85</ele>
        <time>2019-02-03T09:32:23.000Z</time>
      </trkpt>
      <trkpt lat="46.80578" lon="0.35832">
        <ele>85</ele>
        <time>2019-02-03T09:32:24.000Z</time>
      </trkpt>
      <trkpt lat="46.80578" lon="0.35832">
        <ele>85</ele>
        <time>2019-02-03T09:32:25.000Z</time>
      </trkpt>
      <trkpt lat="46.80578" lon="0.35832">
        <ele>85</ele>
        <time>2019-02-03T09:32:26.000Z</time>
      </trkpt>
      <trkpt lat="46.80578" lon="0.35832">
        <ele>85</ele>
        <time>2019-02-03T09:32:27.000Z</time>
      </trkpt>
      <trkpt lat="46.80578" lon="0.35832">
        <ele>85</ele>
        <time>2019-02-03T09:32:28.000Z</time>
      </trkpt>
      <trkpt lat="46.80578" lon="0.35832">
        <ele>85</ele>
        <time>2019-02-03T09:32:29.000Z</time>
      </trkpt>
      <trkpt lat="46.80578" lon="0.35832">
        <ele>85</ele>
        <time>2019-02-03T09:32:30.000Z</time>
      </trkpt>
      <trkpt lat="46.80577" lon="0.35832">
        <ele>84</ele>
        <time>2019-02-03T09:32:31.000Z</time>
      </trkpt>
      <trkpt lat="46.80577" lon="0.35832">
        <ele>84</ele>
        <time>2019-02-03T09:32:32.000Z</time>
      </trkpt>
      <trkpt lat="46.80577" lon="0.35832">
        <ele>85</ele>
        <time>2019-02-03T09:32:33.000Z</time>
      </trkpt>
      <trkpt lat="46.80577" lon="0.35832">
        <ele>86</ele>
        <time>2019-02-03T09:32:34.000Z</time>
      </trkpt>
      <trkpt lat="46.80577" lon="0.35832">
        <ele>87</ele>
        <time>2019-02-03T09:32:35.000Z</time>
      </trkpt>
      <trkpt lat="46.80577" lon="0.35831">
        <ele>86</ele>
        <time>2019-02-03T09:32:36.000Z</time>
      </trkpt>
      <trkpt lat="46.80577" lon="0.35831">
        <ele>86</ele>
        <time>2019-02-03T09:32:37.000Z</time>
      </trkpt>
      <trkpt lat="46.80577" lon="0.35831">
        <ele>86</ele>
        <time>2019-02-03T09:32:38.000Z</time>
      </trkpt>
      <trkpt lat="46.80577" lon="0.35831">
        <ele>86</ele>
        <time>2019-02-03T09:32:39.000Z</time>
      </trkpt>
      <trkpt lat="46.80577" lon="0.35831">
        <ele>86</ele>
        <time>2019-02-03T09:32:40.000Z</time>
      </trkpt>
      <trkpt lat="46.80577" lon="0.35831">
        <ele>87</ele>
        <time>2019-02-03T09:32:41.000Z</time>
      </trkpt>
      <trkpt lat="46.80577" lon="0.35831">
        <ele>87</ele>
        <time>2019-02-03T09:32:42.000Z</time>
      </trkpt>
      <trkpt lat="46.80577" lon="0.35831">
        <ele>87</ele>
        <time>2019-02-03T09:32:43.000Z</time>
      </trkpt>
      <trkpt lat="46.80577" lon="0.35831">
        <ele>87</ele>
        <time>2019-02-03T09:32:44.000Z</time>
      </trkpt>
      <trkpt lat="46.80577" lon="0.35831">
        <ele>86</ele>
        <time>2019-02-03T09:32:45.000Z</time>
      </trkpt>
      <trkpt lat="46.80578" lon="0.35831">
        <ele>86</ele>
        <time>2019-02-03T09:32:46.000Z</time>
      </trkpt>
      <trkpt lat="46.80578" lon="0.35831">
        <ele>86</ele>
        <time>2019-02-03T09:32:47.000Z</time>
      </trkpt>
      <trkpt lat="46.80578" lon="0.35831">
        <ele>85</ele>
        <time>2019-02-03T09:32:48.000Z</time>
      </trkpt>
      <trkpt lat="46.80579" lon="0.35831">
        <ele>85</ele>
        <time>2019-02-03T09:32:49.000Z</time>
      </trkpt>
      <trkpt lat="46.80579" lon="0.35831">
        <ele>85</ele>
        <time>2019-02-03T09:32:50.000Z</time>
      </trkpt>
      <trkpt lat="46.80579" lon="0.35831">
        <ele>85</ele>
        <time>2019-02-03T09:32:51.000Z</time>
      </trkpt>
      <trkpt lat="46.80579" lon="0.35831">
        <ele>84</ele>
        <time>2019-02-03T09:32:52.000Z</time>
      </trkpt>
      <trkpt lat="46.80579" lon="0.35831">
        <ele>84</ele>
        <time>2019-02-03T09:32:53.000Z</time>
      </trkpt>
      <trkpt lat="46.80579" lon="0.35831">
        <ele>83</ele>
        <time>2019-02-03T09:32:54.000Z</time>
      </trkpt>
      <trkpt lat="46.80579" lon="0.35831">
        <ele>82</ele>
        <time>2019-02-03T09:32:55.000Z</time>
      </trkpt>
      <trkpt lat="46.80579" lon="0.35831">
        <ele>82</ele>
        <time>2019-02-03T09:32:56.000Z</time>
      </trkpt>
      <trkpt lat="46.80578" lon="0.3583">
        <ele>82</ele>
        <time>2019-02-03T09:32:57.000Z</time>
      </trkpt>
      <trkpt lat="46.80578" lon="0.3583">
        <ele>81</ele>
        <time>2019-02-03T09:32:58.000Z</time>
      </trkpt>
      <trkpt lat="46.80578" lon="0.3583">
        <ele>81</ele>
        <time>2019-02-03T09:32:59.000Z</time>
      </trkpt>
      <trkpt lat="46.80578" lon="0.3583">
        <ele>80</ele>
        <time>2019-02-03T09:33:00.000Z</time>
      </trkpt>
      <trkpt lat="46.80578" lon="0.3583">
        <ele>80</ele>
        <time>2019-02-03T09:33:01.000Z</time>
      </trkpt>
      <trkpt lat="46.80578" lon="0.3583">
        <ele>80</ele>
        <time>2019-02-03T09:33:02.000Z</time>
      </trkpt>
      <trkpt lat="46.80578" lon="0.3583">
        <ele>79</ele>
        <time>2019-02-03T09:33:03.000Z</time>
      </trkpt>
      <trkpt lat="46.80578" lon="0.3583">
        <ele>79</ele>
        <time>2019-02-03T09:33:04.000Z</time>
      </trkpt>
      <trkpt lat="46.80578" lon="0.3583">
        <ele>78</ele>
        <time>2019-02-03T09:33:05.000Z</time>
      </trkpt>
      <trkpt lat="46.80579" lon="0.3583">
        <ele>78</ele>
        <time>2019-02-03T09:33:06.000Z</time>
      </trkpt>
      <trkpt lat="46.80579" lon="0.3583">
        <ele>78</ele>
        <time>2019-02-03T09:33:07.000Z</time>
      </trkpt>
      <trkpt lat="46.80579" lon="0.3583">
        <ele>78</ele>
        <time>2019-02-03T09:33:08.000Z</time>
      </trkpt>
      <trkpt lat="46.8058" lon="0.35831">
        <ele>78</ele>
        <time>2019-02-03T09:33:09.000Z</time>
      </trkpt>
      <trkpt lat="46.8058" lon="0.35831">
        <ele>78</ele>
        <time>2019-02-03T09:33:10.000Z</time>
      </trkpt>
      <trkpt lat="46.8058" lon="0.35831">
        <ele>79</ele>
        <time>2019-02-03T09:33:11.000Z</time>
      </trkpt>
      <trkpt lat="46.80581" lon="0.35831">
        <ele>79</ele>
        <time>2019-02-03T09:33:12.000Z</time>
      </trkpt>
      <trkpt lat="46.80581" lon="0.35832">
        <ele>79</ele>
        <time>2019-02-03T09:33:13.000Z</time>
      </trkpt>
      <trkpt lat="46.80582" lon="0.35832">
        <ele>79</ele>
        <time>2019-02-03T09:33:14.000Z</time>
      </trkpt>
      <trkpt lat="46.80582" lon="0.35832">
        <ele>79</ele>
        <time>2019-02-03T09:33:15.000Z</time>
      </trkpt>
      <trkpt lat="46.80582" lon="0.35832">
        <ele>80</ele>
        <time>2019-02-03T09:33:16.000Z</time>
      </trkpt>
      <trkpt lat="46.80582" lon="0.35832">
        <ele>80</ele>
        <time>2019-02-03T09:33:17.000Z</time>
      </trkpt>
      <trkpt lat="46.80582" lon="0.35832">
        <ele>80</ele>
        <time>2019-02-03T09:33:18.000Z</time>
      </trkpt>
      <trkpt lat="46.80582" lon="0.35832">
        <ele>80</ele>
        <time>2019-02-03T09:33:19.000Z</time>
      </trkpt>
      <trkpt lat="46.80582" lon="0.35832">
        <ele>80</ele>
        <time>2019-02-03T09:33:20.000Z</time>
      </trkpt>
      <trkpt lat="46.80582" lon="0.35832">
        <ele>80</ele>
        <time>2019-02-03T09:33:21.000Z</time>
      </trkpt>
      <trkpt lat="46.80582" lon="0.35832">
        <ele>80</ele>
        <time>2019-02-03T09:33:22.000Z</time>
      </trkpt>
      <trkpt lat="46.80583" lon="0.35832">
        <ele>80</ele>
        <time>2019-02-03T09:33:23.000Z</time>
      </trkpt>
      <trkpt lat="46.80582" lon="0.35832">
        <ele>80</ele>
        <time>2019-02-03T09:33:24.000Z</time>
      </trkpt>
      <trkpt lat="46.80582" lon="0.35832">
        <ele>80</ele>
        <time>2019-02-03T09:33:25.000Z</time>
      </trkpt>
      <trkpt lat="46.80582" lon="0.35832">
        <ele>80</ele>
        <time>2019-02-03T09:33:26.000Z</time>
      </trkpt>
      <trkpt lat="46.80582" lon="0.35832">
        <ele>80</ele>
        <time>2019-02-03T09:33:27.000Z</time>
      </trkpt>
      <trkpt lat="46.80582" lon="0.35832">
        <ele>80</ele>
        <time>2019-02-03T09:33:28.000Z</time>
      </trkpt>
      <trkpt lat="46.80582" lon="0.35832">
        <ele>80</ele>
        <time>2019-02-03T09:33:29.000Z</time>
      </trkpt>
      <trkpt lat="46.80582" lon="0.35832">
        <ele>80</ele>
        <time>2019-02-03T09:33:30.000Z</time>
      </trkpt>
      <trkpt lat="46.80582" lon="0.35832">
        <ele>79</ele>
        <time>2019-02-03T09:33:31.000Z</time>
      </trkpt>
      <trkpt lat="46.80582" lon="0.35832">
        <ele>79</ele>
        <time>2019-02-03T09:33:32.000Z</time>
      </trkpt>
      <trkpt lat="46.80582" lon="0.35832">
        <ele>78</ele>
        <time>2019-02-03T09:33:33.000Z</time>
      </trkpt>
      <trkpt lat="46.80582" lon="0.35832">
        <ele>78</ele>
        <time>2019-02-03T09:33:34.000Z</time>
      </trkpt>
      <trkpt lat="46.80582" lon="0.35832">
        <ele>78</ele>
        <time>2019-02-03T09:33:35.000Z</time>
      </trkpt>
      <trkpt lat="46.80582" lon="0.35832">
        <ele>78</ele>
        <time>2019-02-03T09:33:36.000Z</time>
      </trkpt>
      <trkpt lat="46.80581" lon="0.35832">
        <ele>78</ele>
        <time>2019-02-03T09:33:37.000Z</time>
      </trkpt>
      <trkpt lat="46.80581" lon="0.35832">
        <ele>77</ele>
        <time>2019-02-03T09:33:38.000Z</time>
      </trkpt>
      <trkpt lat="46.80581" lon="0.35832">
        <ele>77</ele>
        <time>2019-02-03T09:33:39.000Z</time>
      </trkpt>
      <trkpt lat="46.8058" lon="0.35832">
        <ele>77</ele>
        <time>2019-02-03T09:33:40.000Z</time>
      </trkpt>
      <trkpt lat="46.8058" lon="0.35832">
        <ele>77</ele>
        <time>2019-02-03T09:33:41.000Z</time>
      </trkpt>
      <trkpt lat="46.80581" lon="0.35832">
        <ele>77</ele>
        <time>2019-02-03T09:33:42.000Z</time>
      </trkpt>
      <trkpt lat="46.80581" lon="0.35832">
        <ele>78</ele>
        <time>2019-02-03T09:33:43.000Z</time>
      </trkpt>
      <trkpt lat="46.80581" lon="0.35833">
        <ele>79</ele>
        <time>2019-02-03T09:33:44.000Z</time>
      </trkpt>
      <trkpt lat="46.80581" lon="0.35833">
        <ele>80</ele>
        <time>2019-02-03T09:33:45.000Z</time>
      </trkpt>
      <trkpt lat="46.80581" lon="0.35833">
        <ele>80</ele>
        <time>2019-02-03T09:33:46.000Z</time>
      </trkpt>
      <trkpt lat="46.80581" lon="0.35833">
        <ele>80</ele>
        <time>2019-02-03T09:33:47.000Z</time>
      </trkpt>
      <trkpt lat="46.80581" lon="0.35833">
        <ele>79</ele>
        <time>2019-02-03T09:33:48.000Z</time>
      </trkpt>
      <trkpt lat="46.80581" lon="0.35833">
        <ele>79</ele>
        <time>2019-02-03T09:33:49.000Z</time>
      </trkpt>
      <trkpt lat="46.80581" lon="0.35833">
        <ele>79</ele>
        <time>2019-02-03T09:33:50.000Z</time>
      </trkpt>
      <trkpt lat="46.80581" lon="0.35832">
        <ele>79</ele>
        <time>2019-02-03T09:33:51.000Z</time>
      </trkpt>
      <trkpt lat="46.8058" lon="0.35832">
        <ele>80</ele>
        <time>2019-02-03T09:33:52.000Z</time>
      </trkpt>
      <trkpt lat="46.8058" lon="0.35832">
        <ele>80</ele>
        <time>2019-02-03T09:33:53.000Z</time>
      </trkpt>
      <trkpt lat="46.80579" lon="0.35832">
        <ele>80</ele>
        <time>2019-02-03T09:33:54.000Z</time>
      </trkpt>
      <trkpt lat="46.80579" lon="0.35832">
        <ele>81</ele>
        <time>2019-02-03T09:33:55.000Z</time>
      </trkpt>
      <trkpt lat="46.80579" lon="0.35832">
        <ele>82</ele>
        <time>2019-02-03T09:33:56.000Z</time>
      </trkpt>
      <trkpt lat="46.80579" lon="0.35832">
        <ele>82</ele>
        <time>2019-02-03T09:33:57.000Z</time>
      </trkpt>
      <trkpt lat="46.80578" lon="0.35833">
        <ele>82</ele>
        <time>2019-02-03T09:33:58.000Z</time>
      </trkpt>
      <trkpt lat="46.80578" lon="0.35833">
        <ele>81</ele>
        <time>2019-02-03T09:33:59.000Z</time>
      </trkpt>
      <trkpt lat="46.80578" lon="0.35834">
        <ele>81</ele>
        <time>2019-02-03T09:34:00.000Z</time>
      </trkpt>
      <trkpt lat="46.80579" lon="0.35834">
        <ele>81</ele>
        <time>2019-02-03T09:34:01.000Z</time>
      </trkpt>
      <trkpt lat="46.80579" lon="0.35834">
        <ele>81</ele>
        <time>2019-02-03T09:34:02.000Z</time>
      </trkpt>
      <trkpt lat="46.80579" lon="0.35834">
        <ele>81</ele>
        <time>2019-02-03T09:34:03.000Z</time>
      </trkpt>
      <trkpt lat="46.80579" lon="0.35834">
        <ele>82</ele>
        <time>2019-02-03T09:34:04.000Z</time>
      </trkpt>
      <trkpt lat="46.80579" lon="0.35834">
        <ele>82</ele>
        <time>2019-02-03T09:34:05.000Z</time>
      </trkpt>
      <trkpt lat="46.80579" lon="0.35834">
        <ele>82</ele>
        <time>2019-02-03T09:34:06.000Z</time>
      </trkpt>
      <trkpt lat="46.80579" lon="0.35834">
        <ele>82</ele>
        <time>2019-02-03T09:34:07.000Z</time>
      </trkpt>
      <trkpt lat="46.80579" lon="0.35834">
        <ele>83</ele>
        <time>2019-02-03T09:34:08.000Z</time>
      </trkpt>
      <trkpt lat="46.80579" lon="0.35834">
        <ele>83</ele>
        <time>2019-02-03T09:34:09.000Z</time>
      </trkpt>
      <trkpt lat="46.80579" lon="0.35834">
        <ele>83</ele>
        <time>2019-02-03T09:34:10.000Z</time>
      </trkpt>
      <trkpt lat="46.80579" lon="0.35834">
        <ele>83</ele>
        <time>2019-02-03T09:34:11.000Z</time>
      </trkpt>
      <trkpt lat="46.80579" lon="0.35834">
        <ele>83</ele>
        <time>2019-02-03T09:34:12.000Z</time>
      </trkpt>
      <trkpt lat="46.80579" lon="0.35834">
        <ele>83</ele>
        <time>2019-02-03T09:34:13.000Z</time>
      </trkpt>
      <trkpt lat="46.80579" lon="0.35833">
        <ele>84</ele>
        <time>2019-02-03T09:34:14.000Z</time>
      </trkpt>
      <trkpt lat="46.80579" lon="0.35833">
        <ele>84</ele>
        <time>2019-02-03T09:34:15.000Z</time>
      </trkpt>
      <trkpt lat="46.80579" lon="0.35833">
        <ele>84</ele>
        <time>2019-02-03T09:34:16.000Z</time>
      </trkpt>
      <trkpt lat="46.80579" lon="0.35833">
        <ele>84</ele>
        <time>2019-02-03T09:34:17.000Z</time>
      </trkpt>
      <trkpt lat="46.80578" lon="0.35834">
        <ele>83</ele>
        <time>2019-02-03T09:34:18.000Z</time>
      </trkpt>
      <trkpt lat="46.80578" lon="0.35834">
        <ele>84</ele>
        <time>2019-02-03T09:34:19.000Z</time>
      </trkpt>
      <trkpt lat="46.80579" lon="0.35834">
        <ele>83</ele>
        <time>2019-02-03T09:34:20.000Z</time>
      </trkpt>
      <trkpt lat="46.80579" lon="0.35834">
        <ele>83</ele>
        <time>2019-02-03T09:34:21.000Z</time>
      </trkpt>
      <trkpt lat="46.80579" lon="0.35834">
        <ele>83</ele>
        <time>2019-02-03T09:34:22.000Z</time>
      </trkpt>
      <trkpt lat="46.80579" lon="0.35834">
        <ele>82</ele>
        <time>2019-02-03T09:34:23.000Z</time>
      </trkpt>
      <trkpt lat="46.80579" lon="0.35834">
        <ele>82</ele>
        <time>2019-02-03T09:34:24.000Z</time>
      </trkpt>
      <trkpt lat="46.80579" lon="0.35834">
        <ele>82</ele>
        <time>2019-02-03T09:34:25.000Z</time>
      </trkpt>
      <trkpt lat="46.80579" lon="0.35834">
        <ele>82</ele>
        <time>2019-02-03T09:34:26.000Z</time>
      </trkpt>
      <trkpt lat="46.80579" lon="0.35834">
        <ele>81</ele>
        <time>2019-02-03T09:34:27.000Z</time>
      </trkpt>
      <trkpt lat="46.8058" lon="0.35834">
        <ele>81</ele>
        <time>2019-02-03T09:34:28.000Z</time>
      </trkpt>
      <trkpt lat="46.8058" lon="0.35835">
        <ele>82</ele>
        <time>2019-02-03T09:34:29.000Z</time>
      </trkpt>
      <trkpt lat="46.8058" lon="0.35835">
        <ele>82</ele>
        <time>2019-02-03T09:34:30.000Z</time>
      </trkpt>
      <trkpt lat="46.8058" lon="0.35835">
        <ele>82</ele>
        <time>2019-02-03T09:34:31.000Z</time>
      </trkpt>
      <trkpt lat="46.8058" lon="0.35834">
        <ele>82</ele>
        <time>2019-02-03T09:34:32.000Z</time>
      </trkpt>
      <trkpt lat="46.8058" lon="0.35834">
        <ele>82</ele>
        <time>2019-02-03T09:34:33.000Z</time>
      </trkpt>
      <trkpt lat="46.8058" lon="0.35834">
        <ele>82</ele>
        <time>2019-02-03T09:34:34.000Z</time>
      </trkpt>
      <trkpt lat="46.80581" lon="0.35834">
        <ele>81</ele>
        <time>2019-02-03T09:34:35.000Z</time>
      </trkpt>
      <trkpt lat="46.80581" lon="0.35834">
        <ele>82</ele>
        <time>2019-02-03T09:34:36.000Z</time>
      </trkpt>
      <trkpt lat="46.80581" lon="0.35834">
        <ele>82</ele>
        <time>2019-02-03T09:34:37.000Z</time>
      </trkpt>
      <trkpt lat="46.80582" lon="0.35834">
        <ele>81</ele>
        <time>2019-02-03T09:34:38.000Z</time>
      </trkpt>
      <trkpt lat="46.80582" lon="0.35835">
        <ele>80</ele>
        <time>2019-02-03T09:34:39.000Z</time>
      </trkpt>
      <trkpt lat="46.80582" lon="0.35835">
        <ele>80</ele>
        <time>2019-02-03T09:34:40.000Z</time>
      </trkpt>
      <trkpt lat="46.80582" lon="0.35834">
        <ele>81</ele>
        <time>2019-02-03T09:34:41.000Z</time>
      </trkpt>
      <trkpt lat="46.80582" lon="0.35834">
        <ele>81</ele>
        <time>2019-02-03T09:34:42.000Z</time>
      </trkpt>
      <trkpt lat="46.80582" lon="0.35834">
        <ele>81</ele>
        <time>2019-02-03T09:34:43.000Z</time>
      </trkpt>
      <trkpt lat="46.80582" lon="0.35834">
        <ele>81</ele>
        <time>2019-02-03T09:34:44.000Z</time>
      </trkpt>
      <trkpt lat="46.80582" lon="0.35834">
        <ele>80</ele>
        <time>2019-02-03T09:34:45.000Z</time>
      </trkpt>
      <trkpt lat="46.80582" lon="0.35834">
        <ele>80</ele>
        <time>2019-02-03T09:34:46.000Z</time>
      </trkpt>
      <trkpt lat="46.80583" lon="0.35833">
        <ele>80</ele>
        <time>2019-02-03T09:34:47.000Z</time>
      </trkpt>
      <trkpt lat="46.80583" lon="0.35833">
        <ele>80</ele>
        <time>2019-02-03T09:34:48.000Z</time>
      </trkpt>
      <trkpt lat="46.80583" lon="0.35833">
        <ele>79</ele>
        <time>2019-02-03T09:34:49.000Z</time>
      </trkpt>
      <trkpt lat="46.80584" lon="0.35833">
        <ele>79</ele>
        <time>2019-02-03T09:34:50.000Z</time>
      </trkpt>
      <trkpt lat="46.80584" lon="0.35833">
        <ele>79</ele>
        <time>2019-02-03T09:34:51.000Z</time>
      </trkpt>
      <trkpt lat="46.80584" lon="0.35833">
        <ele>79</ele>
        <time>2019-02-03T09:34:52.000Z</time>
      </trkpt>
      <trkpt lat="46.80585" lon="0.35833">
        <ele>80</ele>
        <time>2019-02-03T09:34:53.000Z</time>
      </trkpt>
      <trkpt lat="46.80585" lon="0.35833">
        <ele>80</ele>
        <time>2019-02-03T09:34:54.000Z</time>
      </trkpt>
      <trkpt lat="46.80585" lon="0.35833">
        <ele>80</ele>
        <time>2019-02-03T09:34:55.000Z</time>
      </trkpt>
      <trkpt lat="46.80585" lon="0.35833">
        <ele>79</ele>
        <time>2019-02-03T09:34:56.000Z</time>
      </trkpt>
      <trkpt lat="46.80585" lon="0.35833">
        <ele>80</ele>
        <time>2019-02-03T09:34:57.000Z</time>
      </trkpt>
      <trkpt lat="46.80585" lon="0.35833">
        <ele>80</ele>
        <time>2019-02-03T09:34:58.000Z</time>
      </trkpt>
      <trkpt lat="46.80585" lon="0.35833">
        <ele>80</ele>
        <time>2019-02-03T09:34:59.000Z</time>
      </trkpt>
      <trkpt lat="46.80585" lon="0.35833">
        <ele>80</ele>
        <time>2019-02-03T09:35:00.000Z</time>
      </trkpt>
      <trkpt lat="46.80585" lon="0.35833">
        <ele>80</ele>
        <time>2019-02-03T09:35:01.000Z</time>
      </trkpt>
      <trkpt lat="46.80585" lon="0.35834">
        <ele>80</ele>
        <time>2019-02-03T09:35:02.000Z</time>
      </trkpt>
      <trkpt lat="46.80585" lon="0.35834">
        <ele>80</ele>
        <time>2019-02-03T09:35:03.000Z</time>
      </trkpt>
      <trkpt lat="46.80585" lon="0.35834">
        <ele>80</ele>
        <time>2019-02-03T09:35:04.000Z</time>
      </trkpt>
      <trkpt lat="46.80585" lon="0.35834">
        <ele>80</ele>
        <time>2019-02-03T09:35:05.000Z</time>
      </trkpt>
      <trkpt lat="46.80585" lon="0.35834">
        <ele>80</ele>
        <time>2019-02-03T09:35:06.000Z</time>
      </trkpt>
      <trkpt lat="46.80585" lon="0.35834">
        <ele>80</ele>
        <time>2019-02-03T09:35:07.000Z</time>
      </trkpt>
      <trkpt lat="46.80585" lon="0.35834">
        <ele>80</ele>
        <time>2019-02-03T09:35:08.000Z</time>
      </trkpt>
      <trkpt lat="46.80585" lon="0.35834">
        <ele>81</ele>
        <time>2019-02-03T09:35:09.000Z</time>
      </trkpt>
      <trkpt lat="46.80585" lon="0.35834">
        <ele>81</ele>
        <time>2019-02-03T09:35:10.000Z</time>
      </trkpt>
      <trkpt lat="46.80585" lon="0.35834">
        <ele>81</ele>
        <time>2019-02-03T09:35:11.000Z</time>
      </trkpt>
      <trkpt lat="46.80585" lon="0.35834">
        <ele>82</ele>
        <time>2019-02-03T09:35:12.000Z</time>
      </trkpt>
      <trkpt lat="46.80584" lon="0.35834">
        <ele>82</ele>
        <time>2019-02-03T09:35:13.000Z</time>
      </trkpt>
      <trkpt lat="46.80584" lon="0.35835">
        <ele>82</ele>
        <time>2019-02-03T09:35:14.000Z</time>
      </trkpt>
      <trkpt lat="46.80583" lon="0.35835">
        <ele>81</ele>
        <time>2019-02-03T09:35:15.000Z</time>
      </trkpt>
      <trkpt lat="46.80583" lon="0.35835">
        <ele>81</ele>
        <time>2019-02-03T09:35:16.000Z</time>
      </trkpt>
      <trkpt lat="46.80583" lon="0.35835">
        <ele>81</ele>
        <time>2019-02-03T09:35:17.000Z</time>
      </trkpt>
      <trkpt lat="46.80583" lon="0.35835">
        <ele>81</ele>
        <time>2019-02-03T09:35:18.000Z</time>
      </trkpt>
      <trkpt lat="46.80582" lon="0.35835">
        <ele>80</ele>
        <time>2019-02-03T09:35:19.000Z</time>
      </trkpt>
      <trkpt lat="46.80583" lon="0.35835">
        <ele>81</ele>
        <time>2019-02-03T09:35:20.000Z</time>
      </trkpt>
      <trkpt lat="46.80583" lon="0.35834">
        <ele>81</ele>
        <time>2019-02-03T09:35:21.000Z</time>
      </trkpt>
      <trkpt lat="46.80583" lon="0.35834">
        <ele>81</ele>
        <time>2019-02-03T09:35:22.000Z</time>
      </trkpt>
      <trkpt lat="46.80582" lon="0.35834">
        <ele>80</ele>
        <time>2019-02-03T09:35:23.000Z</time>
      </trkpt>
      <trkpt lat="46.80582" lon="0.35834">
        <ele>79</ele>
        <time>2019-02-03T09:35:24.000Z</time>
      </trkpt>
      <trkpt lat="46.80582" lon="0.35834">
        <ele>80</ele>
        <time>2019-02-03T09:35:25.000Z</time>
      </trkpt>
      <trkpt lat="46.80582" lon="0.35834">
        <ele>80</ele>
        <time>2019-02-03T09:35:26.000Z</time>
      </trkpt>
      <trkpt lat="46.80582" lon="0.35834">
        <ele>80</ele>
        <time>2019-02-03T09:35:27.000Z</time>
      </trkpt>
      <trkpt lat="46.80582" lon="0.35833">
        <ele>79</ele>
        <time>2019-02-03T09:35:28.000Z</time>
      </trkpt>
      <trkpt lat="46.80582" lon="0.35833">
        <ele>79</ele>
        <time>2019-02-03T09:35:29.000Z</time>
      </trkpt>
      <trkpt lat="46.80582" lon="0.35833">
        <ele>79</ele>
        <time>2019-02-03T09:35:30.000Z</time>
      </trkpt>
      <trkpt lat="46.80582" lon="0.35833">
        <ele>79</ele>
        <time>2019-02-03T09:35:31.000Z</time>
      </trkpt>
      <trkpt lat="46.80582" lon="0.35833">
        <ele>79</ele>
        <time>2019-02-03T09:35:32.000Z</time>
      </trkpt>
      <trkpt lat="46.80582" lon="0.35833">
        <ele>79</ele>
        <time>2019-02-03T09:35:33.000Z</time>
      </trkpt>
      <trkpt lat="46.80582" lon="0.35833">
        <ele>79</ele>
        <time>2019-02-03T09:35:34.000Z</time>
      </trkpt>
      <trkpt lat="46.80582" lon="0.35833">
        <ele>79</ele>
        <time>2019-02-03T09:35:35.000Z</time>
      </trkpt>
      <trkpt lat="46.80582" lon="0.35833">
        <ele>79</ele>
        <time>2019-02-03T09:35:36.000Z</time>
      </trkpt>
      <trkpt lat="46.80582" lon="0.35833">
        <ele>79</ele>
        <time>2019-02-03T09:35:37.000Z</time>
      </trkpt>
      <trkpt lat="46.80582" lon="0.35833">
        <ele>80</ele>
        <time>2019-02-03T09:35:38.000Z</time>
      </trkpt>
      <trkpt lat="46.80582" lon="0.35833">
        <ele>80</ele>
        <time>2019-02-03T09:35:39.000Z</time>
      </trkpt>
      <trkpt lat="46.80583" lon="0.35832">
        <ele>81</ele>
        <time>2019-02-03T09:35:40.000Z</time>
      </trkpt>
      <trkpt lat="46.80583" lon="0.35832">
        <ele>81</ele>
        <time>2019-02-03T09:35:41.000Z</time>
      </trkpt>
      <trkpt lat="46.80583" lon="0.35832">
        <ele>82</ele>
        <time>2019-02-03T09:35:42.000Z</time>
      </trkpt>
      <trkpt lat="46.80583" lon="0.35832">
        <ele>82</ele>
        <time>2019-02-03T09:35:43.000Z</time>
      </trkpt>
      <trkpt lat="46.80583" lon="0.35832">
        <ele>82</ele>
        <time>2019-02-03T09:35:44.000Z</time>
      </trkpt>
      <trkpt lat="46.80583" lon="0.35831">
        <ele>82</ele>
        <time>2019-02-03T09:35:45.000Z</time>
      </trkpt>
      <trkpt lat="46.80584" lon="0.35831">
        <ele>82</ele>
        <time>2019-02-03T09:35:46.000Z</time>
      </trkpt>
      <trkpt lat="46.80584" lon="0.35831">
        <ele>83</ele>
        <time>2019-02-03T09:35:47.000Z</time>
      </trkpt>
      <trkpt lat="46.80583" lon="0.35831">
        <ele>83</ele>
        <time>2019-02-03T09:35:48.000Z</time>
      </trkpt>
      <trkpt lat="46.80583" lon="0.35831">
        <ele>83</ele>
        <time>2019-02-03T09:35:49.000Z</time>
      </trkpt>
      <trkpt lat="46.80583" lon="0.35831">
        <ele>83</ele>
        <time>2019-02-03T09:35:50.000Z</time>
      </trkpt>
      <trkpt lat="46.80583" lon="0.35831">
        <ele>83</ele>
        <time>2019-02-03T09:35:51.000Z</time>
      </trkpt>
      <trkpt lat="46.80583" lon="0.35832">
        <ele>83</ele>
        <time>2019-02-03T09:35:52.000Z</time>
      </trkpt>
      <trkpt lat="46.80583" lon="0.35832">
        <ele>83</ele>
        <time>2019-02-03T09:35:53.000Z</time>
      </trkpt>
      <trkpt lat="46.80582" lon="0.35832">
        <ele>84</ele>
        <time>2019-02-03T09:35:54.000Z</time>
      </trkpt>
      <trkpt lat="46.80582" lon="0.35832">
        <ele>84</ele>
        <time>2019-02-03T09:35:55.000Z</time>
      </trkpt>
      <trkpt lat="46.80582" lon="0.35832">
        <ele>85</ele>
        <time>2019-02-03T09:35:56.000Z</time>
      </trkpt>
      <trkpt lat="46.80582" lon="0.35832">
        <ele>85</ele>
        <time>2019-02-03T09:35:57.000Z</time>
      </trkpt>
      <trkpt lat="46.80582" lon="0.35832">
        <ele>85</ele>
        <time>2019-02-03T09:35:58.000Z</time>
      </trkpt>
      <trkpt lat="46.80581" lon="0.35832">
        <ele>85</ele>
        <time>2019-02-03T09:35:59.000Z</time>
      </trkpt>
      <trkpt lat="46.80581" lon="0.35832">
        <ele>85</ele>
        <time>2019-02-03T09:36:00.000Z</time>
      </trkpt>
      <trkpt lat="46.80581" lon="0.35832">
        <ele>85</ele>
        <time>2019-02-03T09:36:01.000Z</time>
      </trkpt>
      <trkpt lat="46.80581" lon="0.35832">
        <ele>85</ele>
        <time>2019-02-03T09:36:02.000Z</time>
      </trkpt>
      <trkpt lat="46.80581" lon="0.35832">
        <ele>85</ele>
        <time>2019-02-03T09:36:03.000Z</time>
      </trkpt>
      <trkpt lat="46.80581" lon="0.35832">
        <ele>85</ele>
        <time>2019-02-03T09:36:04.000Z</time>
      </trkpt>
      <trkpt lat="46.8058" lon="0.35832">
        <ele>85</ele>
        <time>2019-02-03T09:36:05.000Z</time>
      </trkpt>
      <trkpt lat="46.8058" lon="0.35832">
        <ele>86</ele>
        <time>2019-02-03T09:36:06.000Z</time>
      </trkpt>
      <trkpt lat="46.8058" lon="0.35833">
        <ele>86</ele>
        <time>2019-02-03T09:36:07.000Z</time>
      </trkpt>
      <trkpt lat="46.8058" lon="0.35833">
        <ele>86</ele>
        <time>2019-02-03T09:36:08.000Z</time>
      </trkpt>
      <trkpt lat="46.80579" lon="0.35833">
        <ele>86</ele>
        <time>2019-02-03T09:36:09.000Z</time>
      </trkpt>
      <trkpt lat="46.80579" lon="0.35833">
        <ele>86</ele>
        <time>2019-02-03T09:36:10.000Z</time>
      </trkpt>
      <trkpt lat="46.80579" lon="0.35833">
        <ele>86</ele>
        <time>2019-02-03T09:36:11.000Z</time>
      </trkpt>
      <trkpt lat="46.80579" lon="0.35833">
        <ele>86</ele>
        <time>2019-02-03T09:36:12.000Z</time>
      </trkpt>
      <trkpt lat="46.80579" lon="0.35833">
        <ele>85</ele>
        <time>2019-02-03T09:36:13.000Z</time>
      </trkpt>
      <trkpt lat="46.80579" lon="0.35833">
        <ele>85</ele>
        <time>2019-02-03T09:36:14.000Z</time>
      </trkpt>
      <trkpt lat="46.80579" lon="0.35833">
        <ele>85</ele>
        <time>2019-02-03T09:36:15.000Z</time>
      </trkpt>
      <trkpt lat="46.80579" lon="0.35833">
        <ele>85</ele>
        <time>2019-02-03T09:36:16.000Z</time>
      </trkpt>
      <trkpt lat="46.8058" lon="0.35833">
        <ele>85</ele>
        <time>2019-02-03T09:36:17.000Z</time>
      </trkpt>
      <trkpt lat="46.8058" lon="0.35833">
        <ele>84</ele>
        <time>2019-02-03T09:36:18.000Z</time>
      </trkpt>
      <trkpt lat="46.8058" lon="0.35833">
        <ele>83</ele>
        <time>2019-02-03T09:36:19.000Z</time>
      </trkpt>
      <trkpt lat="46.80581" lon="0.35833">
        <ele>83</ele>
        <time>2019-02-03T09:36:20.000Z</time>
      </trkpt>
      <trkpt lat="46.80581" lon="0.35834">
        <ele>83</ele>
        <time>2019-02-03T09:36:21.000Z</time>
      </trkpt>
      <trkpt lat="46.80581" lon="0.35834">
        <ele>83</ele>
        <time>2019-02-03T09:36:22.000Z</time>
      </trkpt>
      <trkpt lat="46.80582" lon="0.35834">
        <ele>83</ele>
        <time>2019-02-03T09:36:23.000Z</time>
      </trkpt>
      <trkpt lat="46.80582" lon="0.35834">
        <ele>83</ele>
        <time>2019-02-03T09:36:24.000Z</time>
      </trkpt>
      <trkpt lat="46.80582" lon="0.35834">
        <ele>83</ele>
        <time>2019-02-03T09:36:25.000Z</time>
      </trkpt>
      <trkpt lat="46.80582" lon="0.35834">
        <ele>83</ele>
        <time>2019-02-03T09:36:26.000Z</time>
      </trkpt>
      <trkpt lat="46.80582" lon="0.35834">
        <ele>83</ele>
        <time>2019-02-03T09:36:27.000Z</time>
      </trkpt>
      <trkpt lat="46.80582" lon="0.35834">
        <ele>83</ele>
        <time>2019-02-03T09:36:28.000Z</time>
      </trkpt>
      <trkpt lat="46.80582" lon="0.35834">
        <ele>83</ele>
        <time>2019-02-03T09:36:29.000Z</time>
      </trkpt>
      <trkpt lat="46.80582" lon="0.35834">
        <ele>83</ele>
        <time>2019-02-03T09:36:30.000Z</time>
      </trkpt>
      <trkpt lat="46.80582" lon="0.35834">
        <ele>83</ele>
        <time>2019-02-03T09:36:31.000Z</time>
      </trkpt>
      <trkpt lat="46.80582" lon="0.35834">
        <ele>83</ele>
        <time>2019-02-03T09:36:32.000Z</time>
      </trkpt>
      <trkpt lat="46.80582" lon="0.35833">
        <ele>83</ele>
        <time>2019-02-03T09:36:33.000Z</time>
      </trkpt>
      <trkpt lat="46.80583" lon="0.35833">
        <ele>83</ele>
        <time>2019-02-03T09:36:34.000Z</time>
      </trkpt>
      <trkpt lat="46.80583" lon="0.35833">
        <ele>83</ele>
        <time>2019-02-03T09:36:35.000Z</time>
      </trkpt>
      <trkpt lat="46.80583" lon="0.35833">
        <ele>82</ele>
        <time>2019-02-03T09:36:36.000Z</time>
      </trkpt>
      <trkpt lat="46.80583" lon="0.35833">
        <ele>82</ele>
        <time>2019-02-03T09:36:37.000Z</time>
      </trkpt>
      <trkpt lat="46.80583" lon="0.35833">
        <ele>82</ele>
        <time>2019-02-03T09:36:38.000Z</time>
      </trkpt>
      <trkpt lat="46.80583" lon="0.35833">
        <ele>82</ele>
        <time>2019-02-03T09:36:39.000Z</time>
      </trkpt>
      <trkpt lat="46.80584" lon="0.35833">
        <ele>81</ele>
        <time>2019-02-03T09:36:40.000Z</time>
      </trkpt>
      <trkpt lat="46.80584" lon="0.35833">
        <ele>81</ele>
        <time>2019-02-03T09:36:41.000Z</time>
      </trkpt>
      <trkpt lat="46.80584" lon="0.35833">
        <ele>81</ele>
        <time>2019-02-03T09:36:42.000Z</time>
      </trkpt>
      <trkpt lat="46.80584" lon="0.35833">
        <ele>81</ele>
        <time>2019-02-03T09:36:43.000Z</time>
      </trkpt>
      <trkpt lat="46.80584" lon="0.35833">
        <ele>80</ele>
        <time>2019-02-03T09:36:44.000Z</time>
      </trkpt>
      <trkpt lat="46.80585" lon="0.35833">
        <ele>80</ele>
        <time>2019-02-03T09:36:45.000Z</time>
      </trkpt>
      <trkpt lat="46.80585" lon="0.35833">
        <ele>80</ele>
        <time>2019-02-03T09:36:46.000Z</time>
      </trkpt>
      <trkpt lat="46.80585" lon="0.35833">
        <ele>80</ele>
        <time>2019-02-03T09:36:47.000Z</time>
      </trkpt>
      <trkpt lat="46.80586" lon="0.35834">
        <ele>80</ele>
        <time>2019-02-03T09:36:48.000Z</time>
      </trkpt>
      <trkpt lat="46.80586" lon="0.35836">
        <ele>80</ele>
        <time>2019-02-03T09:36:49.000Z</time>
      </trkpt>
      <trkpt lat="46.80587" lon="0.35838">
        <ele>80</ele>
        <time>2019-02-03T09:36:50.000Z</time>
      </trkpt>
      <trkpt lat="46.80587" lon="0.35841">
        <ele>81</ele>
        <time>2019-02-03T09:36:51.000Z</time>
      </trkpt>
      <trkpt lat="46.80588" lon="0.35844">
        <ele>81</ele>
        <time>2019-02-03T09:36:52.000Z</time>
      </trkpt>
      <trkpt lat="46.80589" lon="0.35846">
        <ele>81</ele>
        <time>2019-02-03T09:36:53.000Z</time>
      </trkpt>
      <trkpt lat="46.80591" lon="0.35849">
        <ele>80</ele>
        <time>2019-02-03T09:36:54.000Z</time>
      </trkpt>
      <trkpt lat="46.80593" lon="0.35852">
        <ele>80</ele>
        <time>2019-02-03T09:36:55.000Z</time>
      </trkpt>
      <trkpt lat="46.80595" lon="0.35856">
        <ele>80</ele>
        <time>2019-02-03T09:36:56.000Z</time>
      </trkpt>
      <trkpt lat="46.80597" lon="0.35859">
        <ele>80</ele>
        <time>2019-02-03T09:36:57.000Z</time>
      </trkpt>
      <trkpt lat="46.80599" lon="0.35863">
        <ele>80</ele>
        <time>2019-02-03T09:36:58.000Z</time>
      </trkpt>
      <trkpt lat="46.80601" lon="0.35867">
        <ele>80</ele>
        <time>2019-02-03T09:36:59.000Z</time>
      </trkpt>
      <trkpt lat="46.80604" lon="0.3587">
        <ele>80</ele>
        <time>2019-02-03T09:37:00.000Z</time>
      </trkpt>
      <trkpt lat="46.80606" lon="0.35873">
        <ele>80</ele>
        <time>2019-02-03T09:37:01.000Z</time>
      </trkpt>
      <trkpt lat="46.80609" lon="0.35876">
        <ele>80</ele>
        <time>2019-02-03T09:37:02.000Z</time>
      </trkpt>
      <trkpt lat="46.80611" lon="0.35879">
        <ele>81</ele>
        <time>2019-02-03T09:37:03.000Z</time>
      </trkpt>
      <trkpt lat="46.80614" lon="0.35883">
        <ele>81</ele>
        <time>2019-02-03T09:37:04.000Z</time>
      </trkpt>
      <trkpt lat="46.80616" lon="0.35886">
        <ele>81</ele>
        <time>2019-02-03T09:37:05.000Z</time>
      </trkpt>
      <trkpt lat="46.80618" lon="0.3589">
        <ele>81</ele>
        <time>2019-02-03T09:37:06.000Z</time>
      </trkpt>
      <trkpt lat="46.8062" lon="0.35893">
        <ele>81</ele>
        <time>2019-02-03T09:37:07.000Z</time>
      </trkpt>
      <trkpt lat="46.80623" lon="0.35896">
        <ele>81</ele>
        <time>2019-02-03T09:37:08.000Z</time>
      </trkpt>
      <trkpt lat="46.80625" lon="0.35899">
        <ele>82</ele>
        <time>2019-02-03T09:37:09.000Z</time>
      </trkpt>
      <trkpt lat="46.80627" lon="0.35902">
        <ele>82</ele>
        <time>2019-02-03T09:37:10.000Z</time>
      </trkpt>
      <trkpt lat="46.80629" lon="0.35905">
        <ele>82</ele>
        <time>2019-02-03T09:37:11.000Z</time>
      </trkpt>
      <trkpt lat="46.80632" lon="0.35908">
        <ele>82</ele>
        <time>2019-02-03T09:37:12.000Z</time>
      </trkpt>
      <trkpt lat="46.80634" lon="0.35911">
        <ele>82</ele>
        <time>2019-02-03T09:37:13.000Z</time>
      </trkpt>
      <trkpt lat="46.80635" lon="0.35914">
        <ele>81</ele>
        <time>2019-02-03T09:37:14.000Z</time>
      </trkpt>
      <trkpt lat="46.80637" lon="0.35918">
        <ele>80</ele>
        <time>2019-02-03T09:37:15.000Z</time>
      </trkpt>
      <trkpt lat="46.80638" lon="0.35921">
        <ele>80</ele>
        <time>2019-02-03T09:37:16.000Z</time>
      </trkpt>
      <trkpt lat="46.80638" lon="0.35925">
        <ele>80</ele>
        <time>2019-02-03T09:37:17.000Z</time>
      </trkpt>
      <trkpt lat="46.80639" lon="0.35928">
        <ele>80</ele>
        <time>2019-02-03T09:37:18.000Z</time>
      </trkpt>
      <trkpt lat="46.80639" lon="0.35931">
        <ele>80</ele>
        <time>2019-02-03T09:37:19.000Z</time>
      </trkpt>
      <trkpt lat="46.80639" lon="0.35933">
        <ele>80</ele>
        <time>2019-02-03T09:37:20.000Z</time>
      </trkpt>
      <trkpt lat="46.80638" lon="0.35934">
        <ele>80</ele>
        <time>2019-02-03T09:37:21.000Z</time>
      </trkpt>
      <trkpt lat="46.80638" lon="0.35935">
        <ele>81</ele>
        <time>2019-02-03T09:37:22.000Z</time>
      </trkpt>
      <trkpt lat="46.80636" lon="0.35936">
        <ele>81</ele>
        <time>2019-02-03T09:37:23.000Z</time>
      </trkpt>
      <trkpt lat="46.80635" lon="0.35937">
        <ele>81</ele>
        <time>2019-02-03T09:37:24.000Z</time>
      </trkpt>
      <trkpt lat="46.80633" lon="0.35939">
        <ele>79</ele>
        <time>2019-02-03T09:37:25.000Z</time>
      </trkpt>
      <trkpt lat="46.80632" lon="0.35943">
        <ele>79</ele>
        <time>2019-02-03T09:37:26.000Z</time>
      </trkpt>
      <trkpt lat="46.80632" lon="0.35946">
        <ele>79</ele>
        <time>2019-02-03T09:37:27.000Z</time>
      </trkpt>
      <trkpt lat="46.8063" lon="0.35948">
        <ele>79</ele>
        <time>2019-02-03T09:37:28.000Z</time>
      </trkpt>
      <trkpt lat="46.80629" lon="0.35951">
        <ele>79</ele>
        <time>2019-02-03T09:37:29.000Z</time>
      </trkpt>
      <trkpt lat="46.80628" lon="0.35954">
        <ele>79</ele>
        <time>2019-02-03T09:37:30.000Z</time>
      </trkpt>
      <trkpt lat="46.80626" lon="0.35956">
        <ele>79</ele>
        <time>2019-02-03T09:37:31.000Z</time>
      </trkpt>
      <trkpt lat="46.80624" lon="0.35958">
        <ele>79</ele>
        <time>2019-02-03T09:37:32.000Z</time>
      </trkpt>
      <trkpt lat="46.80622" lon="0.3596">
        <ele>79</ele>
        <time>2019-02-03T09:37:33.000Z</time>
      </trkpt>
      <trkpt lat="46.8062" lon="0.35961">
        <ele>80</ele>
        <time>2019-02-03T09:37:34.000Z</time>
      </trkpt>
      <trkpt lat="46.80618" lon="0.35963">
        <ele>80</ele>
        <time>2019-02-03T09:37:35.000Z</time>
      </trkpt>
      <trkpt lat="46.80617" lon="0.35964">
        <ele>80</ele>
        <time>2019-02-03T09:37:36.000Z</time>
      </trkpt>
      <trkpt lat="46.80617" lon="0.35964">
        <ele>81</ele>
        <time>2019-02-03T09:37:37.000Z</time>
      </trkpt>
      <trkpt lat="46.80617" lon="0.35965">
        <ele>81</ele>
        <time>2019-02-03T09:37:38.000Z</time>
      </trkpt>
      <trkpt lat="46.80616" lon="0.35966">
        <ele>81</ele>
        <time>2019-02-03T09:37:39.000Z</time>
      </trkpt>
      <trkpt lat="46.80615" lon="0.35968">
        <ele>81</ele>
        <time>2019-02-03T09:37:40.000Z</time>
      </trkpt>
      <trkpt lat="46.80614" lon="0.3597">
        <ele>80</ele>
        <time>2019-02-03T09:37:41.000Z</time>
      </trkpt>
      <trkpt lat="46.80613" lon="0.35973">
        <ele>80</ele>
        <time>2019-02-03T09:37:42.000Z</time>
      </trkpt>
      <trkpt lat="46.80611" lon="0.35976">
        <ele>80</ele>
        <time>2019-02-03T09:37:43.000Z</time>
      </trkpt>
      <trkpt lat="46.8061" lon="0.35979">
        <ele>79</ele>
        <time>2019-02-03T09:37:44.000Z</time>
      </trkpt>
      <trkpt lat="46.80608" lon="0.35982">
        <ele>80</ele>
        <time>2019-02-03T09:37:45.000Z</time>
      </trkpt>
      <trkpt lat="46.80606" lon="0.35983">
        <ele>80</ele>
        <time>2019-02-03T09:37:46.000Z</time>
      </trkpt>
      <trkpt lat="46.80603" lon="0.35984">
        <ele>80</ele>
        <time>2019-02-03T09:37:47.000Z</time>
      </trkpt>
      <trkpt lat="46.80601" lon="0.35984">
        <ele>80</ele>
        <time>2019-02-03T09:37:48.000Z</time>
      </trkpt>
      <trkpt lat="46.80598" lon="0.35985">
        <ele>80</ele>
        <time>2019-02-03T09:37:49.000Z</time>
      </trkpt>
      <trkpt lat="46.80596" lon="0.35985">
        <ele>79</ele>
        <time>2019-02-03T09:37:50.000Z</time>
      </trkpt>
      <trkpt lat="46.80593" lon="0.35985">
        <ele>79</ele>
        <time>2019-02-03T09:37:51.000Z</time>
      </trkpt>
      <trkpt lat="46.80591" lon="0.35985">
        <ele>78</ele>
        <time>2019-02-03T09:37:52.000Z</time>
      </trkpt>
      <trkpt lat="46.80588" lon="0.35985">
        <ele>77</ele>
        <time>2019-02-03T09:37:53.000Z</time>
      </trkpt>
      <trkpt lat="46.80586" lon="0.35986">
        <ele>77</ele>
        <time>2019-02-03T09:37:54.000Z</time>
      </trkpt>
      <trkpt lat="46.80583" lon="0.35988">
        <ele>77</ele>
        <time>2019-02-03T09:37:55.000Z</time>
      </trkpt>
      <trkpt lat="46.80581" lon="0.35991">
        <ele>77</ele>
        <time>2019-02-03T09:37:56.000Z</time>
      </trkpt>
      <trkpt lat="46.80578" lon="0.35995">
        <ele>75</ele>
        <time>2019-02-03T09:37:57.000Z</time>
      </trkpt>
      <trkpt lat="46.80574" lon="0.36">
        <ele>75</ele>
        <time>2019-02-03T09:37:58.000Z</time>
      </trkpt>
      <trkpt lat="46.80572" lon="0.36004">
        <ele>75</ele>
        <time>2019-02-03T09:37:59.000Z</time>
      </trkpt>
      <trkpt lat="46.80569" lon="0.36009">
        <ele>74</ele>
        <time>2019-02-03T09:38:00.000Z</time>
      </trkpt>
      <trkpt lat="46.80568" lon="0.36013">
        <ele>74</ele>
        <time>2019-02-03T09:38:01.000Z</time>
      </trkpt>
      <trkpt lat="46.80566" lon="0.36016">
        <ele>74</ele>
        <time>2019-02-03T09:38:02.000Z</time>
      </trkpt>
      <trkpt lat="46.80563" lon="0.36019">
        <ele>74</ele>
        <time>2019-02-03T09:38:03.000Z</time>
      </trkpt>
      <trkpt lat="46.8056" lon="0.36022">
        <ele>75</ele>
        <time>2019-02-03T09:38:04.000Z</time>
      </trkpt>
      <trkpt lat="46.80557" lon="0.36025">
        <ele>74</ele>
        <time>2019-02-03T09:38:05.000Z</time>
      </trkpt>
      <trkpt lat="46.80554" lon="0.36028">
        <ele>74</ele>
        <time>2019-02-03T09:38:06.000Z</time>
      </trkpt>
      <trkpt lat="46.8055" lon="0.36031">
        <ele>75</ele>
        <time>2019-02-03T09:38:07.000Z</time>
      </trkpt>
      <trkpt lat="46.80547" lon="0.36034">
        <ele>77</ele>
        <time>2019-02-03T09:38:08.000Z</time>
      </trkpt>
      <trkpt lat="46.80545" lon="0.36037">
        <ele>77</ele>
        <time>2019-02-03T09:38:09.000Z</time>
      </trkpt>
      <trkpt lat="46.80542" lon="0.3604">
        <ele>78</ele>
        <time>2019-02-03T09:38:10.000Z</time>
      </trkpt>
      <trkpt lat="46.80541" lon="0.36043">
        <ele>76</ele>
        <time>2019-02-03T09:38:11.000Z</time>
      </trkpt>
      <trkpt lat="46.8054" lon="0.36046">
        <ele>76</ele>
        <time>2019-02-03T09:38:12.000Z</time>
      </trkpt>
      <trkpt lat="46.80538" lon="0.36049">
        <ele>77</ele>
        <time>2019-02-03T09:38:13.000Z</time>
      </trkpt>
      <trkpt lat="46.80536" lon="0.36049">
        <ele>78</ele>
        <time>2019-02-03T09:38:14.000Z</time>
      </trkpt>
      <trkpt lat="46.80533" lon="0.36049">
        <ele>78</ele>
        <time>2019-02-03T09:38:15.000Z</time>
      </trkpt>
      <trkpt lat="46.80531" lon="0.36047">
        <ele>79</ele>
        <time>2019-02-03T09:38:16.000Z</time>
      </trkpt>
      <trkpt lat="46.80528" lon="0.36046">
        <ele>80</ele>
        <time>2019-02-03T09:38:17.000Z</time>
      </trkpt>
      <trkpt lat="46.80526" lon="0.36046">
        <ele>82</ele>
        <time>2019-02-03T09:38:18.000Z</time>
      </trkpt>
      <trkpt lat="46.80523" lon="0.36047">
        <ele>83</ele>
        <time>2019-02-03T09:38:19.000Z</time>
      </trkpt>
      <trkpt lat="46.8052" lon="0.36048">
        <ele>82</ele>
        <time>2019-02-03T09:38:20.000Z</time>
      </trkpt>
      <trkpt lat="46.80518" lon="0.3605">
        <ele>82</ele>
        <time>2019-02-03T09:38:21.000Z</time>
      </trkpt>
      <trkpt lat="46.80515" lon="0.36052">
        <ele>83</ele>
        <time>2019-02-03T09:38:22.000Z</time>
      </trkpt>
      <trkpt lat="46.80512" lon="0.36056">
        <ele>83</ele>
        <time>2019-02-03T09:38:23.000Z</time>
      </trkpt>
      <trkpt lat="46.80509" lon="0.36059">
        <ele>83</ele>
        <time>2019-02-03T09:38:24.000Z</time>
      </trkpt>
      <trkpt lat="46.80507" lon="0.36063">
        <ele>83</ele>
        <time>2019-02-03T09:38:25.000Z</time>
      </trkpt>
      <trkpt lat="46.80505" lon="0.36066">
        <ele>84</ele>
        <time>2019-02-03T09:38:26.000Z</time>
      </trkpt>
      <trkpt lat="46.80503" lon="0.36068">
        <ele>85</ele>
        <time>2019-02-03T09:38:27.000Z</time>
      </trkpt>
      <trkpt lat="46.805" lon="0.36069">
        <ele>86</ele>
        <time>2019-02-03T09:38:28.000Z</time>
      </trkpt>
      <trkpt lat="46.80497" lon="0.3607">
        <ele>86</ele>
        <time>2019-02-03T09:38:29.000Z</time>
      </trkpt>
      <trkpt lat="46.80495" lon="0.36071">
        <ele>87</ele>
        <time>2019-02-03T09:38:30.000Z</time>
      </trkpt>
      <trkpt lat="46.80493" lon="0.36072">
        <ele>88</ele>
        <time>2019-02-03T09:38:31.000Z</time>
      </trkpt>
      <trkpt lat="46.80491" lon="0.36074">
        <ele>89</ele>
        <time>2019-02-03T09:38:32.000Z</time>
      </trkpt>
      <trkpt lat="46.80489" lon="0.36075">
        <ele>90</ele>
        <time>2019-02-03T09:38:33.000Z</time>
      </trkpt>
      <trkpt lat="46.80487" lon="0.36076">
        <ele>91</ele>
        <time>2019-02-03T09:38:34.000Z</time>
      </trkpt>
      <trkpt lat="46.80485" lon="0.36077">
        <ele>91</ele>
        <time>2019-02-03T09:38:35.000Z</time>
      </trkpt>
      <trkpt lat="46.80483" lon="0.36078">
        <ele>92</ele>
        <time>2019-02-03T09:38:36.000Z</time>
      </trkpt>
      <trkpt lat="46.80481" lon="0.3608">
        <ele>93</ele>
        <time>2019-02-03T09:38:37.000Z</time>
      </trkpt>
      <trkpt lat="46.8048" lon="0.36081">
        <ele>92</ele>
        <time>2019-02-03T09:38:38.000Z</time>
      </trkpt>
      <trkpt lat="46.80478" lon="0.36083">
        <ele>91</ele>
        <time>2019-02-03T09:38:39.000Z</time>
      </trkpt>
      <trkpt lat="46.80477" lon="0.36085">
        <ele>91</ele>
        <time>2019-02-03T09:38:40.000Z</time>
      </trkpt>
      <trkpt lat="46.80476" lon="0.36087">
        <ele>91</ele>
        <time>2019-02-03T09:38:41.000Z</time>
      </trkpt>
      <trkpt lat="46.80474" lon="0.3609">
        <ele>91</ele>
        <time>2019-02-03T09:38:42.000Z</time>
      </trkpt>
      <trkpt lat="46.80473" lon="0.36093">
        <ele>92</ele>
        <time>2019-02-03T09:38:43.000Z</time>
      </trkpt>
      <trkpt lat="46.80472" lon="0.36096">
        <ele>92</ele>
        <time>2019-02-03T09:38:44.000Z</time>
      </trkpt>
      <trkpt lat="46.80472" lon="0.36099">
        <ele>91</ele>
        <time>2019-02-03T09:38:45.000Z</time>
      </trkpt>
      <trkpt lat="46.80471" lon="0.36102">
        <ele>88</ele>
        <time>2019-02-03T09:38:46.000Z</time>
      </trkpt>
      <trkpt lat="46.8047" lon="0.36106">
        <ele>88</ele>
        <time>2019-02-03T09:38:47.000Z</time>
      </trkpt>
      <trkpt lat="46.80469" lon="0.3611">
        <ele>88</ele>
        <time>2019-02-03T09:38:48.000Z</time>
      </trkpt>
      <trkpt lat="46.80468" lon="0.36113">
        <ele>87</ele>
        <time>2019-02-03T09:38:49.000Z</time>
      </trkpt>
      <trkpt lat="46.80467" lon="0.36115">
        <ele>86</ele>
        <time>2019-02-03T09:38:50.000Z</time>
      </trkpt>
      <trkpt lat="46.80466" lon="0.36117">
        <ele>87</ele>
        <time>2019-02-03T09:38:51.000Z</time>
      </trkpt>
      <trkpt lat="46.80465" lon="0.36118">
        <ele>87</ele>
        <time>2019-02-03T09:38:52.000Z</time>
      </trkpt>
      <trkpt lat="46.80464" lon="0.3612">
        <ele>87</ele>
        <time>2019-02-03T09:38:53.000Z</time>
      </trkpt>
      <trkpt lat="46.80462" lon="0.36122">
        <ele>88</ele>
        <time>2019-02-03T09:38:54.000Z</time>
      </trkpt>
      <trkpt lat="46.80461" lon="0.36125">
        <ele>88</ele>
        <time>2019-02-03T09:38:55.000Z</time>
      </trkpt>
      <trkpt lat="46.80459" lon="0.36127">
        <ele>88</ele>
        <time>2019-02-03T09:38:56.000Z</time>
      </trkpt>
      <trkpt lat="46.80457" lon="0.3613">
        <ele>89</ele>
        <time>2019-02-03T09:38:57.000Z</time>
      </trkpt>
      <trkpt lat="46.80455" lon="0.36132">
        <ele>89</ele>
        <time>2019-02-03T09:38:58.000Z</time>
      </trkpt>
      <trkpt lat="46.80453" lon="0.36135">
        <ele>89</ele>
        <time>2019-02-03T09:38:59.000Z</time>
      </trkpt>
      <trkpt lat="46.80452" lon="0.36137">
        <ele>89</ele>
        <time>2019-02-03T09:39:00.000Z</time>
      </trkpt>
      <trkpt lat="46.80451" lon="0.3614">
        <ele>90</ele>
        <time>2019-02-03T09:39:01.000Z</time>
      </trkpt>
      <trkpt lat="46.8045" lon="0.36142">
        <ele>91</ele>
        <time>2019-02-03T09:39:02.000Z</time>
      </trkpt>
      <trkpt lat="46.80449" lon="0.36145">
        <ele>92</ele>
        <time>2019-02-03T09:39:03.000Z</time>
      </trkpt>
      <trkpt lat="46.80448" lon="0.36148">
        <ele>92</ele>
        <time>2019-02-03T09:39:04.000Z</time>
      </trkpt>
      <trkpt lat="46.80447" lon="0.3615">
        <ele>92</ele>
        <time>2019-02-03T09:39:05.000Z</time>
      </trkpt>
      <trkpt lat="46.80447" lon="0.36152">
        <ele>93</ele>
        <time>2019-02-03T09:39:06.000Z</time>
      </trkpt>
      <trkpt lat="46.80446" lon="0.36155">
        <ele>94</ele>
        <time>2019-02-03T09:39:07.000Z</time>
      </trkpt>
      <trkpt lat="46.80446" lon="0.36157">
        <ele>95</ele>
        <time>2019-02-03T09:39:08.000Z</time>
      </trkpt>
      <trkpt lat="46.80445" lon="0.36159">
        <ele>96</ele>
        <time>2019-02-03T09:39:09.000Z</time>
      </trkpt>
      <trkpt lat="46.80444" lon="0.36162">
        <ele>96</ele>
        <time>2019-02-03T09:39:10.000Z</time>
      </trkpt>
      <trkpt lat="46.80444" lon="0.36165">
        <ele>97</ele>
        <time>2019-02-03T09:39:11.000Z</time>
      </trkpt>
      <trkpt lat="46.80443" lon="0.36168">
        <ele>98</ele>
        <time>2019-02-03T09:39:12.000Z</time>
      </trkpt>
      <trkpt lat="46.80443" lon="0.3617">
        <ele>98</ele>
        <time>2019-02-03T09:39:13.000Z</time>
      </trkpt>
      <trkpt lat="46.80443" lon="0.36173">
        <ele>100</ele>
        <time>2019-02-03T09:39:14.000Z</time>
      </trkpt>
      <trkpt lat="46.80443" lon="0.36175">
        <ele>101</ele>
        <time>2019-02-03T09:39:15.000Z</time>
      </trkpt>
      <trkpt lat="46.80442" lon="0.36177">
        <ele>101</ele>
        <time>2019-02-03T09:39:16.000Z</time>
      </trkpt>
      <trkpt lat="46.80442" lon="0.3618">
        <ele>101</ele>
        <time>2019-02-03T09:39:17.000Z</time>
      </trkpt>
      <trkpt lat="46.80441" lon="0.36183">
        <ele>100</ele>
        <time>2019-02-03T09:39:18.000Z</time>
      </trkpt>
      <trkpt lat="46.80441" lon="0.36186">
        <ele>100</ele>
        <time>2019-02-03T09:39:19.000Z</time>
      </trkpt>
      <trkpt lat="46.80441" lon="0.36188">
        <ele>101</ele>
        <time>2019-02-03T09:39:20.000Z</time>
      </trkpt>
      <trkpt lat="46.80441" lon="0.36191">
        <ele>101</ele>
        <time>2019-02-03T09:39:21.000Z</time>
      </trkpt>
      <trkpt lat="46.8044" lon="0.36193">
        <ele>103</ele>
        <time>2019-02-03T09:39:22.000Z</time>
      </trkpt>
      <trkpt lat="46.8044" lon="0.36195">
        <ele>103</ele>
        <time>2019-02-03T09:39:23.000Z</time>
      </trkpt>
      <trkpt lat="46.80439" lon="0.36196">
        <ele>102</ele>
        <time>2019-02-03T09:39:24.000Z</time>
      </trkpt>
      <trkpt lat="46.80438" lon="0.36198">
        <ele>102</ele>
        <time>2019-02-03T09:39:25.000Z</time>
      </trkpt>
      <trkpt lat="46.80437" lon="0.36198">
        <ele>102</ele>
        <time>2019-02-03T09:39:26.000Z</time>
      </trkpt>
      <trkpt lat="46.80436" lon="0.36198">
        <ele>103</ele>
        <time>2019-02-03T09:39:27.000Z</time>
      </trkpt>
      <trkpt lat="46.80435" lon="0.36198">
        <ele>102</ele>
        <time>2019-02-03T09:39:28.000Z</time>
      </trkpt>
      <trkpt lat="46.80434" lon="0.36198">
        <ele>102</ele>
        <time>2019-02-03T09:39:29.000Z</time>
      </trkpt>
      <trkpt lat="46.80433" lon="0.36198">
        <ele>103</ele>
        <time>2019-02-03T09:39:30.000Z</time>
      </trkpt>
      <trkpt lat="46.80432" lon="0.36197">
        <ele>104</ele>
        <time>2019-02-03T09:39:31.000Z</time>
      </trkpt>
      <trkpt lat="46.8043" lon="0.36197">
        <ele>104</ele>
        <time>2019-02-03T09:39:32.000Z</time>
      </trkpt>
      <trkpt lat="46.80429" lon="0.36196">
        <ele>104</ele>
        <time>2019-02-03T09:39:33.000Z</time>
      </trkpt>
      <trkpt lat="46.80427" lon="0.36195">
        <ele>105</ele>
        <time>2019-02-03T09:39:34.000Z</time>
      </trkpt>
      <trkpt lat="46.80426" lon="0.36195">
        <ele>105</ele>
        <time>2019-02-03T09:39:35.000Z</time>
      </trkpt>
      <trkpt lat="46.80424" lon="0.36194">
        <ele>105</ele>
        <time>2019-02-03T09:39:36.000Z</time>
      </trkpt>
      <trkpt lat="46.80423" lon="0.36193">
        <ele>105</ele>
        <time>2019-02-03T09:39:37.000Z</time>
      </trkpt>
      <trkpt lat="46.80421" lon="0.36192">
        <ele>106</ele>
        <time>2019-02-03T09:39:38.000Z</time>
      </trkpt>
      <trkpt lat="46.8042" lon="0.36191">
        <ele>105</ele>
        <time>2019-02-03T09:39:39.000Z</time>
      </trkpt>
      <trkpt lat="46.80419" lon="0.3619">
        <ele>105</ele>
        <time>2019-02-03T09:39:40.000Z</time>
      </trkpt>
      <trkpt lat="46.80417" lon="0.36189">
        <ele>105</ele>
        <time>2019-02-03T09:39:41.000Z</time>
      </trkpt>
      <trkpt lat="46.80416" lon="0.36188">
        <ele>104</ele>
        <time>2019-02-03T09:39:42.000Z</time>
      </trkpt>
      <trkpt lat="46.80415" lon="0.36188">
        <ele>105</ele>
        <time>2019-02-03T09:39:43.000Z</time>
      </trkpt>
      <trkpt lat="46.80413" lon="0.36187">
        <ele>105</ele>
        <time>2019-02-03T09:39:44.000Z</time>
      </trkpt>
      <trkpt lat="46.80412" lon="0.36187">
        <ele>106</ele>
        <time>2019-02-03T09:39:45.000Z</time>
      </trkpt>
      <trkpt lat="46.80411" lon="0.36188">
        <ele>106</ele>
        <time>2019-02-03T09:39:46.000Z</time>
      </trkpt>
      <trkpt lat="46.8041" lon="0.36189">
        <ele>106</ele>
        <time>2019-02-03T09:39:47.000Z</time>
      </trkpt>
      <trkpt lat="46.80409" lon="0.36189">
        <ele>106</ele>
        <time>2019-02-03T09:39:48.000Z</time>
      </trkpt>
      <trkpt lat="46.80408" lon="0.3619">
        <ele>106</ele>
        <time>2019-02-03T09:39:49.000Z</time>
      </trkpt>
      <trkpt lat="46.80406" lon="0.36191">
        <ele>107</ele>
        <time>2019-02-03T09:39:50.000Z</time>
      </trkpt>
      <trkpt lat="46.80405" lon="0.36192">
        <ele>107</ele>
        <time>2019-02-03T09:39:51.000Z</time>
      </trkpt>
      <trkpt lat="46.80405" lon="0.36193">
        <ele>109</ele>
        <time>2019-02-03T09:39:52.000Z</time>
      </trkpt>
      <trkpt lat="46.80404" lon="0.36193">
        <ele>109</ele>
        <time>2019-02-03T09:39:53.000Z</time>
      </trkpt>
      <trkpt lat="46.80404" lon="0.36193">
        <ele>108</ele>
        <time>2019-02-03T09:39:54.000Z</time>
      </trkpt>
      <trkpt lat="46.80404" lon="0.36193">
        <ele>109</ele>
        <time>2019-02-03T09:39:55.000Z</time>
      </trkpt>
      <trkpt lat="46.80404" lon="0.36193">
        <ele>109</ele>
        <time>2019-02-03T09:39:56.000Z</time>
      </trkpt>
      <trkpt lat="46.80404" lon="0.36193">
        <ele>108</ele>
        <time>2019-02-03T09:39:57.000Z</time>
      </trkpt>
      <trkpt lat="46.80404" lon="0.36193">
        <ele>108</ele>
        <time>2019-02-03T09:39:58.000Z</time>
      </trkpt>
      <trkpt lat="46.80404" lon="0.36193">
        <ele>109</ele>
        <time>2019-02-03T09:39:59.000Z</time>
      </trkpt>
      <trkpt lat="46.80404" lon="0.36193">
        <ele>110</ele>
        <time>2019-02-03T09:40:00.000Z</time>
      </trkpt>
      <trkpt lat="46.80403" lon="0.36192">
        <ele>110</ele>
        <time>2019-02-03T09:40:01.000Z</time>
      </trkpt>
      <trkpt lat="46.80403" lon="0.36192">
        <ele>110</ele>
        <time>2019-02-03T09:40:02.000Z</time>
      </trkpt>
      <trkpt lat="46.80403" lon="0.36192">
        <ele>111</ele>
        <time>2019-02-03T09:40:03.000Z</time>
      </trkpt>
      <trkpt lat="46.80403" lon="0.36192">
        <ele>111</ele>
        <time>2019-02-03T09:40:04.000Z</time>
      </trkpt>
      <trkpt lat="46.80403" lon="0.36192">
        <ele>112</ele>
        <time>2019-02-03T09:40:05.000Z</time>
      </trkpt>
      <trkpt lat="46.80403" lon="0.36192">
        <ele>112</ele>
        <time>2019-02-03T09:40:06.000Z</time>
      </trkpt>
      <trkpt lat="46.80403" lon="0.36191">
        <ele>112</ele>
        <time>2019-02-03T09:40:07.000Z</time>
      </trkpt>
      <trkpt lat="46.80404" lon="0.36191">
        <ele>113</ele>
        <time>2019-02-03T09:40:08.000Z</time>
      </trkpt>
      <trkpt lat="46.80404" lon="0.36191">
        <ele>113</ele>
        <time>2019-02-03T09:40:09.000Z</time>
      </trkpt>
      <trkpt lat="46.80404" lon="0.36191">
        <ele>113</ele>
        <time>2019-02-03T09:40:10.000Z</time>
      </trkpt>
      <trkpt lat="46.80404" lon="0.36191">
        <ele>114</ele>
        <time>2019-02-03T09:40:11.000Z</time>
      </trkpt>
      <trkpt lat="46.80404" lon="0.3619">
        <ele>114</ele>
        <time>2019-02-03T09:40:12.000Z</time>
      </trkpt>
      <trkpt lat="46.80404" lon="0.3619">
        <ele>114</ele>
        <time>2019-02-03T09:40:13.000Z</time>
      </trkpt>
      <trkpt lat="46.80404" lon="0.3619">
        <ele>114</ele>
        <time>2019-02-03T09:40:14.000Z</time>
      </trkpt>
      <trkpt lat="46.80404" lon="0.3619">
        <ele>114</ele>
        <time>2019-02-03T09:40:15.000Z</time>
      </trkpt>
      <trkpt lat="46.80404" lon="0.3619">
        <ele>114</ele>
        <time>2019-02-03T09:40:16.000Z</time>
      </trkpt>
      <trkpt lat="46.80404" lon="0.3619">
        <ele>114</ele>
        <time>2019-02-03T09:40:17.000Z</time>
      </trkpt>
      <trkpt lat="46.80404" lon="0.3619">
        <ele>115</ele>
        <time>2019-02-03T09:40:18.000Z</time>
      </trkpt>
      <trkpt lat="46.80404" lon="0.3619">
        <ele>115</ele>
        <time>2019-02-03T09:40:19.000Z</time>
      </trkpt>
      <trkpt lat="46.80404" lon="0.36189">
        <ele>115</ele>
        <time>2019-02-03T09:40:20.000Z</time>
      </trkpt>
      <trkpt lat="46.80404" lon="0.36189">
        <ele>116</ele>
        <time>2019-02-03T09:40:21.000Z</time>
      </trkpt>
      <trkpt lat="46.80404" lon="0.36189">
        <ele>116</ele>
        <time>2019-02-03T09:40:22.000Z</time>
      </trkpt>
      <trkpt lat="46.80404" lon="0.36189">
        <ele>116</ele>
        <time>2019-02-03T09:40:23.000Z</time>
      </trkpt>
      <trkpt lat="46.80404" lon="0.36189">
        <ele>116</ele>
        <time>2019-02-03T09:40:24.000Z</time>
      </trkpt>
      <trkpt lat="46.80404" lon="0.36189">
        <ele>117</ele>
        <time>2019-02-03T09:40:25.000Z</time>
      </trkpt>
      <trkpt lat="46.80404" lon="0.36189">
        <ele>117</ele>
        <time>2019-02-03T09:40:26.000Z</time>
      </trkpt>
      <trkpt lat="46.80404" lon="0.36189">
        <ele>117</ele>
        <time>2019-02-03T09:40:27.000Z</time>
      </trkpt>
      <trkpt lat="46.80404" lon="0.36189">
        <ele>117</ele>
        <time>2019-02-03T09:40:28.000Z</time>
      </trkpt>
      <trkpt lat="46.80404" lon="0.36189">
        <ele>117</ele>
        <time>2019-02-03T09:40:29.000Z</time>
      </trkpt>
      <trkpt lat="46.80404" lon="0.36189">
        <ele>117</ele>
        <time>2019-02-03T09:40:30.000Z</time>
      </trkpt>
      <trkpt lat="46.80404" lon="0.36189">
        <ele>117</ele>
        <time>2019-02-03T09:40:31.000Z</time>
      </trkpt>
      <trkpt lat="46.80404" lon="0.36189">
        <ele>117</ele>
        <time>2019-02-03T09:40:32.000Z</time>
      </trkpt>
      <trkpt lat="46.80404" lon="0.36189">
        <ele>117</ele>
        <time>2019-02-03T09:40:33.000Z</time>
      </trkpt>
      <trkpt lat="46.80404" lon="0.36189">
        <ele>117</ele>
        <time>2019-02-03T09:40:34.000Z</time>
      </trkpt>
      <trkpt lat="46.80404" lon="0.36189">
        <ele>117</ele>
        <time>2019-02-03T09:40:35.000Z</time>
      </trkpt>
      <trkpt lat="46.80403" lon="0.36189">
        <ele>118</ele>
        <time>2019-02-03T09:40:36.000Z</time>
      </trkpt>
      <trkpt lat="46.80403" lon="0.36189">
        <ele>118</ele>
        <time>2019-02-03T09:40:37.000Z</time>
      </trkpt>
      <trkpt lat="46.80403" lon="0.36189">
        <ele>118</ele>
        <time>2019-02-03T09:40:38.000Z</time>
      </trkpt>
      <trkpt lat="46.80403" lon="0.36189">
        <ele>118</ele>
        <time>2019-02-03T09:40:39.000Z</time>
      </trkpt>
      <trkpt lat="46.80403" lon="0.36189">
        <ele>118</ele>
        <time>2019-02-03T09:40:40.000Z</time>
      </trkpt>
      <trkpt lat="46.80403" lon="0.36189">
        <ele>118</ele>
        <time>2019-02-03T09:40:41.000Z</time>
      </trkpt>
      <trkpt lat="46.80403" lon="0.36189">
        <ele>118</ele>
        <time>2019-02-03T09:40:42.000Z</time>
      </trkpt>
      <trkpt lat="46.80403" lon="0.36189">
        <ele>118</ele>
        <time>2019-02-03T09:40:43.000Z</time>
      </trkpt>
      <trkpt lat="46.80403" lon="0.36189">
        <ele>118</ele>
        <time>2019-02-03T09:40:44.000Z</time>
      </trkpt>
      <trkpt lat="46.80403" lon="0.36189">
        <ele>118</ele>
        <time>2019-02-03T09:40:45.000Z</time>
      </trkpt>
      <trkpt lat="46.80403" lon="0.36189">
        <ele>118</ele>
        <time>2019-02-03T09:40:46.000Z</time>
      </trkpt>
      <trkpt lat="46.80403" lon="0.36189">
        <ele>119</ele>
        <time>2019-02-03T09:40:47.000Z</time>
      </trkpt>
      <trkpt lat="46.80403" lon="0.36189">
        <ele>119</ele>
        <time>2019-02-03T09:40:48.000Z</time>
      </trkpt>
      <trkpt lat="46.80403" lon="0.3619">
        <ele>119</ele>
        <time>2019-02-03T09:40:49.000Z</time>
      </trkpt>
      <trkpt lat="46.80402" lon="0.3619">
        <ele>119</ele>
        <time>2019-02-03T09:40:50.000Z</time>
      </trkpt>
      <trkpt lat="46.80402" lon="0.3619">
        <ele>120</ele>
        <time>2019-02-03T09:40:51.000Z</time>
      </trkpt>
      <trkpt lat="46.80402" lon="0.3619">
        <ele>121</ele>
        <time>2019-02-03T09:40:52.000Z</time>
      </trkpt>
      <trkpt lat="46.80402" lon="0.3619">
        <ele>121</ele>
        <time>2019-02-03T09:40:53.000Z</time>
      </trkpt>
      <trkpt lat="46.80402" lon="0.3619">
        <ele>122</ele>
        <time>2019-02-03T09:40:54.000Z</time>
      </trkpt>
      <trkpt lat="46.80402" lon="0.3619">
        <ele>122</ele>
        <time>2019-02-03T09:40:55.000Z</time>
      </trkpt>
      <trkpt lat="46.80402" lon="0.3619">
        <ele>123</ele>
        <time>2019-02-03T09:40:56.000Z</time>
      </trkpt>
      <trkpt lat="46.80402" lon="0.3619">
        <ele>123</ele>
        <time>2019-02-03T09:40:57.000Z</time>
      </trkpt>
      <trkpt lat="46.80402" lon="0.3619">
        <ele>124</ele>
        <time>2019-02-03T09:40:58.000Z</time>
      </trkpt>
      <trkpt lat="46.80402" lon="0.36191">
        <ele>125</ele>
        <time>2019-02-03T09:40:59.000Z</time>
      </trkpt>
      <trkpt lat="46.80401" lon="0.36191">
        <ele>127</ele>
        <time>2019-02-03T09:41:00.000Z</time>
      </trkpt>
      <trkpt lat="46.80401" lon="0.36191">
        <ele>124</ele>
        <time>2019-02-03T09:41:01.000Z</time>
      </trkpt>
      <trkpt lat="46.80401" lon="0.36192">
        <ele>123</ele>
        <time>2019-02-03T09:41:02.000Z</time>
      </trkpt>
      <trkpt lat="46.80401" lon="0.36193">
        <ele>123</ele>
        <time>2019-02-03T09:41:03.000Z</time>
      </trkpt>
      <trkpt lat="46.804" lon="0.36194">
        <ele>123</ele>
        <time>2019-02-03T09:41:04.000Z</time>
      </trkpt>
      <trkpt lat="46.80399" lon="0.36196">
        <ele>123</ele>
        <time>2019-02-03T09:41:05.000Z</time>
      </trkpt>
      <trkpt lat="46.80397" lon="0.36197">
        <ele>123</ele>
        <time>2019-02-03T09:41:06.000Z</time>
      </trkpt>
      <trkpt lat="46.80396" lon="0.36199">
        <ele>121</ele>
        <time>2019-02-03T09:41:07.000Z</time>
      </trkpt>
      <trkpt lat="46.80395" lon="0.36201">
        <ele>120</ele>
        <time>2019-02-03T09:41:08.000Z</time>
      </trkpt>
      <trkpt lat="46.80393" lon="0.36202">
        <ele>120</ele>
        <time>2019-02-03T09:41:09.000Z</time>
      </trkpt>
      <trkpt lat="46.80392" lon="0.36203">
        <ele>119</ele>
        <time>2019-02-03T09:41:10.000Z</time>
      </trkpt>
      <trkpt lat="46.80391" lon="0.36204">
        <ele>118</ele>
        <time>2019-02-03T09:41:11.000Z</time>
      </trkpt>
      <trkpt lat="46.80389" lon="0.36206">
        <ele>118</ele>
        <time>2019-02-03T09:41:12.000Z</time>
      </trkpt>
      <trkpt lat="46.80387" lon="0.36207">
        <ele>118</ele>
        <time>2019-02-03T09:41:13.000Z</time>
      </trkpt>
      <trkpt lat="46.80386" lon="0.36208">
        <ele>118</ele>
        <time>2019-02-03T09:41:14.000Z</time>
      </trkpt>
      <trkpt lat="46.80385" lon="0.36209">
        <ele>118</ele>
        <time>2019-02-03T09:41:15.000Z</time>
      </trkpt>
      <trkpt lat="46.80383" lon="0.3621">
        <ele>117</ele>
        <time>2019-02-03T09:41:16.000Z</time>
      </trkpt>
      <trkpt lat="46.80382" lon="0.36212">
        <ele>116</ele>
        <time>2019-02-03T09:41:17.000Z</time>
      </trkpt>
      <trkpt lat="46.8038" lon="0.36215">
        <ele>116</ele>
        <time>2019-02-03T09:41:18.000Z</time>
      </trkpt>
      <trkpt lat="46.80378" lon="0.36217">
        <ele>116</ele>
        <time>2019-02-03T09:41:19.000Z</time>
      </trkpt>
      <trkpt lat="46.80377" lon="0.3622">
        <ele>115</ele>
        <time>2019-02-03T09:41:20.000Z</time>
      </trkpt>
      <trkpt lat="46.80377" lon="0.36224">
        <ele>111</ele>
        <time>2019-02-03T09:41:21.000Z</time>
      </trkpt>
      <trkpt lat="46.80377" lon="0.36228">
        <ele>110</ele>
        <time>2019-02-03T09:41:22.000Z</time>
      </trkpt>
      <trkpt lat="46.80376" lon="0.36232">
        <ele>110</ele>
        <time>2019-02-03T09:41:23.000Z</time>
      </trkpt>
      <trkpt lat="46.80377" lon="0.36234">
        <ele>108</ele>
        <time>2019-02-03T09:41:24.000Z</time>
      </trkpt>
      <trkpt lat="46.80378" lon="0.36235">
        <ele>107</ele>
        <time>2019-02-03T09:41:25.000Z</time>
      </trkpt>
      <trkpt lat="46.80379" lon="0.36235">
        <ele>107</ele>
        <time>2019-02-03T09:41:26.000Z</time>
      </trkpt>
      <trkpt lat="46.8038" lon="0.36235">
        <ele>107</ele>
        <time>2019-02-03T09:41:27.000Z</time>
      </trkpt>
      <trkpt lat="46.8038" lon="0.36235">
        <ele>108</ele>
        <time>2019-02-03T09:41:28.000Z</time>
      </trkpt>
      <trkpt lat="46.8038" lon="0.36235">
        <ele>108</ele>
        <time>2019-02-03T09:41:29.000Z</time>
      </trkpt>
      <trkpt lat="46.80381" lon="0.36235">
        <ele>108</ele>
        <time>2019-02-03T09:41:30.000Z</time>
      </trkpt>
      <trkpt lat="46.80382" lon="0.36235">
        <ele>108</ele>
        <time>2019-02-03T09:41:31.000Z</time>
      </trkpt>
      <trkpt lat="46.80383" lon="0.36235">
        <ele>109</ele>
        <time>2019-02-03T09:41:32.000Z</time>
      </trkpt>
      <trkpt lat="46.80383" lon="0.36235">
        <ele>109</ele>
        <time>2019-02-03T09:41:33.000Z</time>
      </trkpt>
      <trkpt lat="46.80384" lon="0.36235">
        <ele>109</ele>
        <time>2019-02-03T09:41:34.000Z</time>
      </trkpt>
      <trkpt lat="46.80385" lon="0.36235">
        <ele>109</ele>
        <time>2019-02-03T09:41:35.000Z</time>
      </trkpt>
      <trkpt lat="46.80385" lon="0.36235">
        <ele>109</ele>
        <time>2019-02-03T09:41:36.000Z</time>
      </trkpt>
      <trkpt lat="46.80386" lon="0.36235">
        <ele>109</ele>
        <time>2019-02-03T09:41:37.000Z</time>
      </trkpt>
      <trkpt lat="46.80387" lon="0.36236">
        <ele>109</ele>
        <time>2019-02-03T09:41:38.000Z</time>
      </trkpt>
      <trkpt lat="46.80388" lon="0.36237">
        <ele>109</ele>
        <time>2019-02-03T09:41:39.000Z</time>
      </trkpt>
      <trkpt lat="46.80389" lon="0.36237">
        <ele>109</ele>
        <time>2019-02-03T09:41:40.000Z</time>
      </trkpt>
      <trkpt lat="46.8039" lon="0.36238">
        <ele>107</ele>
        <time>2019-02-03T09:41:41.000Z</time>
      </trkpt>
      <trkpt lat="46.80391" lon="0.36239">
        <ele>108</ele>
        <time>2019-02-03T09:41:42.000Z</time>
      </trkpt>
      <trkpt lat="46.80392" lon="0.3624">
        <ele>107</ele>
        <time>2019-02-03T09:41:43.000Z</time>
      </trkpt>
      <trkpt lat="46.80394" lon="0.3624">
        <ele>106</ele>
        <time>2019-02-03T09:41:44.000Z</time>
      </trkpt>
      <trkpt lat="46.80395" lon="0.36241">
        <ele>106</ele>
        <time>2019-02-03T09:41:45.000Z</time>
      </trkpt>
      <trkpt lat="46.80397" lon="0.36241">
        <ele>105</ele>
        <time>2019-02-03T09:41:46.000Z</time>
      </trkpt>
      <trkpt lat="46.80399" lon="0.36241">
        <ele>103</ele>
        <time>2019-02-03T09:41:47.000Z</time>
      </trkpt>
      <trkpt lat="46.80401" lon="0.36242">
        <ele>103</ele>
        <time>2019-02-03T09:41:48.000Z</time>
      </trkpt>
      <trkpt lat="46.80403" lon="0.36244">
        <ele>103</ele>
        <time>2019-02-03T09:41:49.000Z</time>
      </trkpt>
      <trkpt lat="46.80404" lon="0.36246">
        <ele>102</ele>
        <time>2019-02-03T09:41:50.000Z</time>
      </trkpt>
      <trkpt lat="46.80404" lon="0.36249">
        <ele>101</ele>
        <time>2019-02-03T09:41:51.000Z</time>
      </trkpt>
      <trkpt lat="46.80405" lon="0.36251">
        <ele>102</ele>
        <time>2019-02-03T09:41:52.000Z</time>
      </trkpt>
      <trkpt lat="46.80406" lon="0.36253">
        <ele>103</ele>
        <time>2019-02-03T09:41:53.000Z</time>
      </trkpt>
      <trkpt lat="46.80408" lon="0.36255">
        <ele>103</ele>
        <time>2019-02-03T09:41:54.000Z</time>
      </trkpt>
      <trkpt lat="46.80409" lon="0.36256">
        <ele>103</ele>
        <time>2019-02-03T09:41:55.000Z</time>
      </trkpt>
      <trkpt lat="46.8041" lon="0.36258">
        <ele>102</ele>
        <time>2019-02-03T09:41:56.000Z</time>
      </trkpt>
      <trkpt lat="46.80411" lon="0.36259">
        <ele>101</ele>
        <time>2019-02-03T09:41:57.000Z</time>
      </trkpt>
      <trkpt lat="46.80412" lon="0.36261">
        <ele>101</ele>
        <time>2019-02-03T09:41:58.000Z</time>
      </trkpt>
      <trkpt lat="46.80412" lon="0.36262">
        <ele>100</ele>
        <time>2019-02-03T09:41:59.000Z</time>
      </trkpt>
      <trkpt lat="46.80413" lon="0.36264">
        <ele>100</ele>
        <time>2019-02-03T09:42:00.000Z</time>
      </trkpt>
      <trkpt lat="46.80413" lon="0.36265">
        <ele>100</ele>
        <time>2019-02-03T09:42:01.000Z</time>
      </trkpt>
      <trkpt lat="46.80412" lon="0.36266">
        <ele>100</ele>
        <time>2019-02-03T09:42:02.000Z</time>
      </trkpt>
      <trkpt lat="46.80412" lon="0.36267">
        <ele>100</ele>
        <time>2019-02-03T09:42:03.000Z</time>
      </trkpt>
      <trkpt lat="46.80411" lon="0.36267">
        <ele>100</ele>
        <time>2019-02-03T09:42:04.000Z</time>
      </trkpt>
      <trkpt lat="46.80411" lon="0.36269">
        <ele>100</ele>
        <time>2019-02-03T09:42:05.000Z</time>
      </trkpt>
      <trkpt lat="46.80411" lon="0.3627">
        <ele>99</ele>
        <time>2019-02-03T09:42:06.000Z</time>
      </trkpt>
      <trkpt lat="46.8041" lon="0.36272">
        <ele>99</ele>
        <time>2019-02-03T09:42:07.000Z</time>
      </trkpt>
      <trkpt lat="46.80409" lon="0.36273">
        <ele>99</ele>
        <time>2019-02-03T09:42:08.000Z</time>
      </trkpt>
      <trkpt lat="46.80408" lon="0.36274">
        <ele>100</ele>
        <time>2019-02-03T09:42:09.000Z</time>
      </trkpt>
      <trkpt lat="46.80406" lon="0.36275">
        <ele>102</ele>
        <time>2019-02-03T09:42:10.000Z</time>
      </trkpt>
      <trkpt lat="46.80404" lon="0.36276">
        <ele>103</ele>
        <time>2019-02-03T09:42:11.000Z</time>
      </trkpt>
      <trkpt lat="46.80402" lon="0.36276">
        <ele>104</ele>
        <time>2019-02-03T09:42:12.000Z</time>
      </trkpt>
      <trkpt lat="46.80401" lon="0.36275">
        <ele>105</ele>
        <time>2019-02-03T09:42:13.000Z</time>
      </trkpt>
      <trkpt lat="46.80399" lon="0.36274">
        <ele>106</ele>
        <time>2019-02-03T09:42:14.000Z</time>
      </trkpt>
      <trkpt lat="46.80398" lon="0.36273">
        <ele>107</ele>
        <time>2019-02-03T09:42:15.000Z</time>
      </trkpt>
      <trkpt lat="46.80396" lon="0.36272">
        <ele>107</ele>
        <time>2019-02-03T09:42:16.000Z</time>
      </trkpt>
      <trkpt lat="46.80396" lon="0.36272">
        <ele>107</ele>
        <time>2019-02-03T09:42:17.000Z</time>
      </trkpt>
      <trkpt lat="46.80396" lon="0.36272">
        <ele>108</ele>
        <time>2019-02-03T09:42:18.000Z</time>
      </trkpt>
      <trkpt lat="46.80396" lon="0.36273">
        <ele>108</ele>
        <time>2019-02-03T09:42:19.000Z</time>
      </trkpt>
      <trkpt lat="46.80395" lon="0.36273">
        <ele>109</ele>
        <time>2019-02-03T09:42:20.000Z</time>
      </trkpt>
      <trkpt lat="46.80394" lon="0.36272">
        <ele>109</ele>
        <time>2019-02-03T09:42:21.000Z</time>
      </trkpt>
      <trkpt lat="46.80394" lon="0.36272">
        <ele>109</ele>
        <time>2019-02-03T09:42:22.000Z</time>
      </trkpt>
      <trkpt lat="46.80394" lon="0.36272">
        <ele>110</ele>
        <time>2019-02-03T09:42:23.000Z</time>
      </trkpt>
      <trkpt lat="46.80394" lon="0.36272">
        <ele>110</ele>
        <time>2019-02-03T09:42:24.000Z</time>
      </trkpt>
      <trkpt lat="46.80394" lon="0.36272">
        <ele>109</ele>
        <time>2019-02-03T09:42:25.000Z</time>
      </trkpt>
      <trkpt lat="46.80394" lon="0.36272">
        <ele>109</ele>
        <time>2019-02-03T09:42:26.000Z</time>
      </trkpt>
      <trkpt lat="46.80394" lon="0.36272">
        <ele>110</ele>
        <time>2019-02-03T09:42:27.000Z</time>
      </trkpt>
      <trkpt lat="46.80393" lon="0.36272">
        <ele>110</ele>
        <time>2019-02-03T09:42:28.000Z</time>
      </trkpt>
      <trkpt lat="46.80393" lon="0.36272">
        <ele>110</ele>
        <time>2019-02-03T09:42:29.000Z</time>
      </trkpt>
      <trkpt lat="46.80393" lon="0.36272">
        <ele>110</ele>
        <time>2019-02-03T09:42:30.000Z</time>
      </trkpt>
      <trkpt lat="46.80393" lon="0.36272">
        <ele>109</ele>
        <time>2019-02-03T09:42:31.000Z</time>
      </trkpt>
      <trkpt lat="46.80393" lon="0.36272">
        <ele>109</ele>
        <time>2019-02-03T09:42:32.000Z</time>
      </trkpt>
      <trkpt lat="46.80393" lon="0.36272">
        <ele>109</ele>
        <time>2019-02-03T09:42:33.000Z</time>
      </trkpt>
      <trkpt lat="46.80393" lon="0.36272">
        <ele>109</ele>
        <time>2019-02-03T09:42:34.000Z</time>
      </trkpt>
      <trkpt lat="46.80393" lon="0.36271">
        <ele>109</ele>
        <time>2019-02-03T09:42:35.000Z</time>
      </trkpt>
      <trkpt lat="46.80393" lon="0.36271">
        <ele>110</ele>
        <time>2019-02-03T09:42:36.000Z</time>
      </trkpt>
      <trkpt lat="46.80393" lon="0.3627">
        <ele>110</ele>
        <time>2019-02-03T09:42:37.000Z</time>
      </trkpt>
      <trkpt lat="46.80392" lon="0.36269">
        <ele>110</ele>
        <time>2019-02-03T09:42:38.000Z</time>
      </trkpt>
      <trkpt lat="46.80392" lon="0.36268">
        <ele>111</ele>
        <time>2019-02-03T09:42:39.000Z</time>
      </trkpt>
      <trkpt lat="46.80391" lon="0.36268">
        <ele>111</ele>
        <time>2019-02-03T09:42:40.000Z</time>
      </trkpt>
      <trkpt lat="46.8039" lon="0.36268">
        <ele>112</ele>
        <time>2019-02-03T09:42:41.000Z</time>
      </trkpt>
      <trkpt lat="46.8039" lon="0.36268">
        <ele>112</ele>
        <time>2019-02-03T09:42:42.000Z</time>
      </trkpt>
      <trkpt lat="46.8039" lon="0.36268">
        <ele>112</ele>
        <time>2019-02-03T09:42:43.000Z</time>
      </trkpt>
      <trkpt lat="46.8039" lon="0.36268">
        <ele>112</ele>
        <time>2019-02-03T09:42:44.000Z</time>
      </trkpt>
      <trkpt lat="46.80389" lon="0.36268">
        <ele>112</ele>
        <time>2019-02-03T09:42:45.000Z</time>
      </trkpt>
      <trkpt lat="46.80389" lon="0.36268">
        <ele>113</ele>
        <time>2019-02-03T09:42:46.000Z</time>
      </trkpt>
      <trkpt lat="46.80388" lon="0.36269">
        <ele>113</ele>
        <time>2019-02-03T09:42:47.000Z</time>
      </trkpt>
      <trkpt lat="46.80388" lon="0.36269">
        <ele>113</ele>
        <time>2019-02-03T09:42:48.000Z</time>
      </trkpt>
      <trkpt lat="46.80388" lon="0.36269">
        <ele>114</ele>
        <time>2019-02-03T09:42:49.000Z</time>
      </trkpt>
      <trkpt lat="46.80388" lon="0.36269">
        <ele>114</ele>
        <time>2019-02-03T09:42:50.000Z</time>
      </trkpt>
      <trkpt lat="46.80387" lon="0.36269">
        <ele>114</ele>
        <time>2019-02-03T09:42:51.000Z</time>
      </trkpt>
      <trkpt lat="46.80387" lon="0.36269">
        <ele>115</ele>
        <time>2019-02-03T09:42:52.000Z</time>
      </trkpt>
      <trkpt lat="46.80387" lon="0.36269">
        <ele>115</ele>
        <time>2019-02-03T09:42:53.000Z</time>
      </trkpt>
      <trkpt lat="46.80387" lon="0.36268">
        <ele>116</ele>
        <time>2019-02-03T09:42:54.000Z</time>
      </trkpt>
      <trkpt lat="46.80387" lon="0.36268">
        <ele>116</ele>
        <time>2019-02-03T09:42:55.000Z</time>
      </trkpt>
      <trkpt lat="46.80386" lon="0.36268">
        <ele>116</ele>
        <time>2019-02-03T09:42:56.000Z</time>
      </trkpt>
      <trkpt lat="46.80386" lon="0.36268">
        <ele>116</ele>
        <time>2019-02-03T09:42:57.000Z</time>
      </trkpt>
      <trkpt lat="46.80386" lon="0.36268">
        <ele>117</ele>
        <time>2019-02-03T09:42:58.000Z</time>
      </trkpt>
      <trkpt lat="46.80386" lon="0.36268">
        <ele>116</ele>
        <time>2019-02-03T09:42:59.000Z</time>
      </trkpt>
      <trkpt lat="46.80386" lon="0.36269">
        <ele>116</ele>
        <time>2019-02-03T09:43:00.000Z</time>
      </trkpt>
      <trkpt lat="46.80386" lon="0.36269">
        <ele>116</ele>
        <time>2019-02-03T09:43:01.000Z</time>
      </trkpt>
      <trkpt lat="46.80386" lon="0.36269">
        <ele>117</ele>
        <time>2019-02-03T09:43:02.000Z</time>
      </trkpt>
      <trkpt lat="46.80386" lon="0.36269">
        <ele>117</ele>
        <time>2019-02-03T09:43:03.000Z</time>
      </trkpt>
      <trkpt lat="46.80386" lon="0.36269">
        <ele>117</ele>
        <time>2019-02-03T09:43:04.000Z</time>
      </trkpt>
      <trkpt lat="46.80386" lon="0.36269">
        <ele>117</ele>
        <time>2019-02-03T09:43:05.000Z</time>
      </trkpt>
      <trkpt lat="46.80386" lon="0.3627">
        <ele>118</ele>
        <time>2019-02-03T09:43:06.000Z</time>
      </trkpt>
      <trkpt lat="46.80386" lon="0.3627">
        <ele>118</ele>
        <time>2019-02-03T09:43:07.000Z</time>
      </trkpt>
      <trkpt lat="46.80386" lon="0.3627">
        <ele>118</ele>
        <time>2019-02-03T09:43:08.000Z</time>
      </trkpt>
      <trkpt lat="46.80386" lon="0.3627">
        <ele>119</ele>
        <time>2019-02-03T09:43:09.000Z</time>
      </trkpt>
      <trkpt lat="46.80385" lon="0.3627">
        <ele>119</ele>
        <time>2019-02-03T09:43:10.000Z</time>
      </trkpt>
      <trkpt lat="46.80385" lon="0.3627">
        <ele>119</ele>
        <time>2019-02-03T09:43:11.000Z</time>
      </trkpt>
      <trkpt lat="46.80385" lon="0.3627">
        <ele>119</ele>
        <time>2019-02-03T09:43:12.000Z</time>
      </trkpt>
      <trkpt lat="46.80385" lon="0.3627">
        <ele>120</ele>
        <time>2019-02-03T09:43:13.000Z</time>
      </trkpt>
      <trkpt lat="46.80385" lon="0.3627">
        <ele>121</ele>
        <time>2019-02-03T09:43:14.000Z</time>
      </trkpt>
      <trkpt lat="46.80385" lon="0.3627">
        <ele>121</ele>
        <time>2019-02-03T09:43:15.000Z</time>
      </trkpt>
      <trkpt lat="46.80385" lon="0.3627">
        <ele>120</ele>
        <time>2019-02-03T09:43:16.000Z</time>
      </trkpt>
      <trkpt lat="46.80385" lon="0.3627">
        <ele>119</ele>
        <time>2019-02-03T09:43:17.000Z</time>
      </trkpt>
      <trkpt lat="46.80385" lon="0.36271">
        <ele>119</ele>
        <time>2019-02-03T09:43:18.000Z</time>
      </trkpt>
      <trkpt lat="46.80385" lon="0.36271">
        <ele>117</ele>
        <time>2019-02-03T09:43:19.000Z</time>
      </trkpt>
      <trkpt lat="46.80385" lon="0.36271">
        <ele>116</ele>
        <time>2019-02-03T09:43:20.000Z</time>
      </trkpt>
      <trkpt lat="46.80385" lon="0.36272">
        <ele>115</ele>
        <time>2019-02-03T09:43:21.000Z</time>
      </trkpt>
      <trkpt lat="46.80386" lon="0.36272">
        <ele>115</ele>
        <time>2019-02-03T09:43:22.000Z</time>
      </trkpt>
      <trkpt lat="46.80386" lon="0.36272">
        <ele>115</ele>
        <time>2019-02-03T09:43:23.000Z</time>
      </trkpt>
      <trkpt lat="46.80386" lon="0.36272">
        <ele>114</ele>
        <time>2019-02-03T09:43:24.000Z</time>
      </trkpt>
      <trkpt lat="46.80385" lon="0.36272">
        <ele>114</ele>
        <time>2019-02-03T09:43:25.000Z</time>
      </trkpt>
      <trkpt lat="46.80385" lon="0.36272">
        <ele>114</ele>
        <time>2019-02-03T09:43:26.000Z</time>
      </trkpt>
      <trkpt lat="46.80385" lon="0.36272">
        <ele>114</ele>
        <time>2019-02-03T09:43:27.000Z</time>
      </trkpt>
      <trkpt lat="46.80384" lon="0.36272">
        <ele>114</ele>
        <time>2019-02-03T09:43:28.000Z</time>
      </trkpt>
      <trkpt lat="46.80384" lon="0.36272">
        <ele>114</ele>
        <time>2019-02-03T09:43:29.000Z</time>
      </trkpt>
      <trkpt lat="46.80383" lon="0.36273">
        <ele>114</ele>
        <time>2019-02-03T09:43:30.000Z</time>
      </trkpt>
      <trkpt lat="46.80383" lon="0.36274">
        <ele>114</ele>
        <time>2019-02-03T09:43:31.000Z</time>
      </trkpt>
      <trkpt lat="46.80381" lon="0.36277">
        <ele>113</ele>
        <time>2019-02-03T09:43:32.000Z</time>
      </trkpt>
      <trkpt lat="46.80379" lon="0.3628">
        <ele>113</ele>
        <time>2019-02-03T09:43:33.000Z</time>
      </trkpt>
      <trkpt lat="46.80377" lon="0.36282">
        <ele>113</ele>
        <time>2019-02-03T09:43:34.000Z</time>
      </trkpt>
      <trkpt lat="46.80374" lon="0.36284">
        <ele>113</ele>
        <time>2019-02-03T09:43:35.000Z</time>
      </trkpt>
      <trkpt lat="46.80371" lon="0.36287">
        <ele>112</ele>
        <time>2019-02-03T09:43:36.000Z</time>
      </trkpt>
      <trkpt lat="46.80368" lon="0.36289">
        <ele>112</ele>
        <time>2019-02-03T09:43:37.000Z</time>
      </trkpt>
      <trkpt lat="46.80365" lon="0.36292">
        <ele>111</ele>
        <time>2019-02-03T09:43:38.000Z</time>
      </trkpt>
      <trkpt lat="46.80362" lon="0.36294">
        <ele>110</ele>
        <time>2019-02-03T09:43:39.000Z</time>
      </trkpt>
      <trkpt lat="46.8036" lon="0.36296">
        <ele>109</ele>
        <time>2019-02-03T09:43:40.000Z</time>
      </trkpt>
      <trkpt lat="46.80357" lon="0.36298">
        <ele>109</ele>
        <time>2019-02-03T09:43:41.000Z</time>
      </trkpt>
      <trkpt lat="46.80354" lon="0.36301">
        <ele>108</ele>
        <time>2019-02-03T09:43:42.000Z</time>
      </trkpt>
      <trkpt lat="46.80352" lon="0.36302">
        <ele>107</ele>
        <time>2019-02-03T09:43:43.000Z</time>
      </trkpt>
      <trkpt lat="46.80349" lon="0.36303">
        <ele>106</ele>
        <time>2019-02-03T09:43:44.000Z</time>
      </trkpt>
      <trkpt lat="46.80347" lon="0.36303">
        <ele>105</ele>
        <time>2019-02-03T09:43:45.000Z</time>
      </trkpt>
      <trkpt lat="46.80345" lon="0.36303">
        <ele>105</ele>
        <time>2019-02-03T09:43:46.000Z</time>
      </trkpt>
      <trkpt lat="46.80342" lon="0.36303">
        <ele>105</ele>
        <time>2019-02-03T09:43:47.000Z</time>
      </trkpt>
      <trkpt lat="46.80339" lon="0.36302">
        <ele>105</ele>
        <time>2019-02-03T09:43:48.000Z</time>
      </trkpt>
      <trkpt lat="46.80336" lon="0.36301">
        <ele>105</ele>
        <time>2019-02-03T09:43:49.000Z</time>
      </trkpt>
      <trkpt lat="46.80333" lon="0.36301">
        <ele>105</ele>
        <time>2019-02-03T09:43:50.000Z</time>
      </trkpt>
      <trkpt lat="46.80329" lon="0.363">
        <ele>105</ele>
        <time>2019-02-03T09:43:51.000Z</time>
      </trkpt>
      <trkpt lat="46.80327" lon="0.36299">
        <ele>105</ele>
        <time>2019-02-03T09:43:52.000Z</time>
      </trkpt>
      <trkpt lat="46.80325" lon="0.36297">
        <ele>105</ele>
        <time>2019-02-03T09:43:53.000Z</time>
      </trkpt>
      <trkpt lat="46.80324" lon="0.36296">
        <ele>105</ele>
        <time>2019-02-03T09:43:54.000Z</time>
      </trkpt>
      <trkpt lat="46.80322" lon="0.36294">
        <ele>105</ele>
        <time>2019-02-03T09:43:55.000Z</time>
      </trkpt>
      <trkpt lat="46.80319" lon="0.36293">
        <ele>106</ele>
        <time>2019-02-03T09:43:56.000Z</time>
      </trkpt>
      <trkpt lat="46.80317" lon="0.36291">
        <ele>106</ele>
        <time>2019-02-03T09:43:57.000Z</time>
      </trkpt>
      <trkpt lat="46.80315" lon="0.36288">
        <ele>107</ele>
        <time>2019-02-03T09:43:58.000Z</time>
      </trkpt>
      <trkpt lat="46.80313" lon="0.36285">
        <ele>107</ele>
        <time>2019-02-03T09:43:59.000Z</time>
      </trkpt>
      <trkpt lat="46.80311" lon="0.36282">
        <ele>107</ele>
        <time>2019-02-03T09:44:00.000Z</time>
      </trkpt>
      <trkpt lat="46.80309" lon="0.36278">
        <ele>107</ele>
        <time>2019-02-03T09:44:01.000Z</time>
      </trkpt>
      <trkpt lat="46.80308" lon="0.36274">
        <ele>107</ele>
        <time>2019-02-03T09:44:02.000Z</time>
      </trkpt>
      <trkpt lat="46.80307" lon="0.36271">
        <ele>108</ele>
        <time>2019-02-03T09:44:03.000Z</time>
      </trkpt>
      <trkpt lat="46.80307" lon="0.36269">
        <ele>108</ele>
        <time>2019-02-03T09:44:04.000Z</time>
      </trkpt>
      <trkpt lat="46.80308" lon="0.36267">
        <ele>108</ele>
        <time>2019-02-03T09:44:05.000Z</time>
      </trkpt>
      <trkpt lat="46.80309" lon="0.36267">
        <ele>108</ele>
        <time>2019-02-03T09:44:06.000Z</time>
      </trkpt>
      <trkpt lat="46.80311" lon="0.36266">
        <ele>107</ele>
        <time>2019-02-03T09:44:07.000Z</time>
      </trkpt>
      <trkpt lat="46.80312" lon="0.36264">
        <ele>107</ele>
        <time>2019-02-03T09:44:08.000Z</time>
      </trkpt>
      <trkpt lat="46.80313" lon="0.36262">
        <ele>107</ele>
        <time>2019-02-03T09:44:09.000Z</time>
      </trkpt>
      <trkpt lat="46.80314" lon="0.3626">
        <ele>107</ele>
        <time>2019-02-03T09:44:10.000Z</time>
      </trkpt>
      <trkpt lat="46.80314" lon="0.36257">
        <ele>106</ele>
        <time>2019-02-03T09:44:11.000Z</time>
      </trkpt>
      <trkpt lat="46.80314" lon="0.36255">
        <ele>106</ele>
        <time>2019-02-03T09:44:12.000Z</time>
      </trkpt>
      <trkpt lat="46.80313" lon="0.36253">
        <ele>105</ele>
        <time>2019-02-03T09:44:13.000Z</time>
      </trkpt>
      <trkpt lat="46.80313" lon="0.36251">
        <ele>105</ele>
        <time>2019-02-03T09:44:14.000Z</time>
      </trkpt>
      <trkpt lat="46.80312" lon="0.3625">
        <ele>105</ele>
        <time>2019-02-03T09:44:15.000Z</time>
      </trkpt>
      <trkpt lat="46.80311" lon="0.3625">
        <ele>105</ele>
        <time>2019-02-03T09:44:16.000Z</time>
      </trkpt>
      <trkpt lat="46.8031" lon="0.3625">
        <ele>105</ele>
        <time>2019-02-03T09:44:17.000Z</time>
      </trkpt>
      <trkpt lat="46.80308" lon="0.3625">
        <ele>105</ele>
        <time>2019-02-03T09:44:18.000Z</time>
      </trkpt>
      <trkpt lat="46.80307" lon="0.3625">
        <ele>104</ele>
        <time>2019-02-03T09:44:19.000Z</time>
      </trkpt>
      <trkpt lat="46.80305" lon="0.3625">
        <ele>103</ele>
        <time>2019-02-03T09:44:20.000Z</time>
      </trkpt>
      <trkpt lat="46.80303" lon="0.36252">
        <ele>103</ele>
        <time>2019-02-03T09:44:21.000Z</time>
      </trkpt>
      <trkpt lat="46.80302" lon="0.36253">
        <ele>103</ele>
        <time>2019-02-03T09:44:22.000Z</time>
      </trkpt>
      <trkpt lat="46.803" lon="0.36255">
        <ele>103</ele>
        <time>2019-02-03T09:44:23.000Z</time>
      </trkpt>
      <trkpt lat="46.80298" lon="0.36258">
        <ele>103</ele>
        <time>2019-02-03T09:44:24.000Z</time>
      </trkpt>
      <trkpt lat="46.80295" lon="0.36261">
        <ele>103</ele>
        <time>2019-02-03T09:44:25.000Z</time>
      </trkpt>
      <trkpt lat="46.80293" lon="0.36264">
        <ele>103</ele>
        <time>2019-02-03T09:44:26.000Z</time>
      </trkpt>
      <trkpt lat="46.8029" lon="0.36266">
        <ele>101</ele>
        <time>2019-02-03T09:44:27.000Z</time>
      </trkpt>
      <trkpt lat="46.80286" lon="0.36269">
        <ele>101</ele>
        <time>2019-02-03T09:44:28.000Z</time>
      </trkpt>
      <trkpt lat="46.80283" lon="0.36272">
        <ele>100</ele>
        <time>2019-02-03T09:44:29.000Z</time>
      </trkpt>
      <trkpt lat="46.80278" lon="0.36276">
        <ele>102</ele>
        <time>2019-02-03T09:44:30.000Z</time>
      </trkpt>
      <trkpt lat="46.80274" lon="0.3628">
        <ele>103</ele>
        <time>2019-02-03T09:44:31.000Z</time>
      </trkpt>
      <trkpt lat="46.8027" lon="0.36284">
        <ele>103</ele>
        <time>2019-02-03T09:44:32.000Z</time>
      </trkpt>
      <trkpt lat="46.80266" lon="0.36287">
        <ele>103</ele>
        <time>2019-02-03T09:44:33.000Z</time>
      </trkpt>
      <trkpt lat="46.80263" lon="0.36289">
        <ele>104</ele>
        <time>2019-02-03T09:44:34.000Z</time>
      </trkpt>
      <trkpt lat="46.8026" lon="0.36291">
        <ele>103</ele>
        <time>2019-02-03T09:44:35.000Z</time>
      </trkpt>
      <trkpt lat="46.80258" lon="0.36292">
        <ele>103</ele>
        <time>2019-02-03T09:44:36.000Z</time>
      </trkpt>
      <trkpt lat="46.80257" lon="0.36294">
        <ele>103</ele>
        <time>2019-02-03T09:44:37.000Z</time>
      </trkpt>
      <trkpt lat="46.80255" lon="0.36297">
        <ele>104</ele>
        <time>2019-02-03T09:44:38.000Z</time>
      </trkpt>
      <trkpt lat="46.80253" lon="0.36299">
        <ele>105</ele>
        <time>2019-02-03T09:44:39.000Z</time>
      </trkpt>
      <trkpt lat="46.80251" lon="0.36302">
        <ele>105</ele>
        <time>2019-02-03T09:44:40.000Z</time>
      </trkpt>
      <trkpt lat="46.80249" lon="0.36304">
        <ele>105</ele>
        <time>2019-02-03T09:44:41.000Z</time>
      </trkpt>
      <trkpt lat="46.80246" lon="0.36308">
        <ele>104</ele>
        <time>2019-02-03T09:44:42.000Z</time>
      </trkpt>
      <trkpt lat="46.80244" lon="0.36313">
        <ele>103</ele>
        <time>2019-02-03T09:44:43.000Z</time>
      </trkpt>
      <trkpt lat="46.80241" lon="0.3632">
        <ele>101</ele>
        <time>2019-02-03T09:44:44.000Z</time>
      </trkpt>
      <trkpt lat="46.80237" lon="0.36329">
        <ele>98</ele>
        <time>2019-02-03T09:44:45.000Z</time>
      </trkpt>
      <trkpt lat="46.80234" lon="0.36339">
        <ele>97</ele>
        <time>2019-02-03T09:44:46.000Z</time>
      </trkpt>
      <trkpt lat="46.80231" lon="0.36348">
        <ele>96</ele>
        <time>2019-02-03T09:44:47.000Z</time>
      </trkpt>
      <trkpt lat="46.8023" lon="0.36355">
        <ele>96</ele>
        <time>2019-02-03T09:44:48.000Z</time>
      </trkpt>
      <trkpt lat="46.80229" lon="0.3636">
        <ele>95</ele>
        <time>2019-02-03T09:44:49.000Z</time>
      </trkpt>
      <trkpt lat="46.80227" lon="0.36365">
        <ele>95</ele>
        <time>2019-02-03T09:44:50.000Z</time>
      </trkpt>
      <trkpt lat="46.80226" lon="0.36368">
        <ele>95</ele>
        <time>2019-02-03T09:44:51.000Z</time>
      </trkpt>
      <trkpt lat="46.80225" lon="0.36372">
        <ele>95</ele>
        <time>2019-02-03T09:44:52.000Z</time>
      </trkpt>
      <trkpt lat="46.80224" lon="0.36376">
        <ele>94</ele>
        <time>2019-02-03T09:44:53.000Z</time>
      </trkpt>
      <trkpt lat="46.80223" lon="0.36379">
        <ele>95</ele>
        <time>2019-02-03T09:44:54.000Z</time>
      </trkpt>
      <trkpt lat="46.80222" lon="0.36382">
        <ele>94</ele>
        <time>2019-02-03T09:44:55.000Z</time>
      </trkpt>
      <trkpt lat="46.80221" lon="0.36386">
        <ele>94</ele>
        <time>2019-02-03T09:44:56.000Z</time>
      </trkpt>
      <trkpt lat="46.8022" lon="0.36389">
        <ele>94</ele>
        <time>2019-02-03T09:44:57.000Z</time>
      </trkpt>
      <trkpt lat="46.80219" lon="0.36393">
        <ele>94</ele>
        <time>2019-02-03T09:44:58.000Z</time>
      </trkpt>
      <trkpt lat="46.80218" lon="0.36396">
        <ele>94</ele>
        <time>2019-02-03T09:44:59.000Z</time>
      </trkpt>
      <trkpt lat="46.80215" lon="0.36401">
        <ele>95</ele>
        <time>2019-02-03T09:45:00.000Z</time>
      </trkpt>
      <trkpt lat="46.80213" lon="0.36406">
        <ele>94</ele>
        <time>2019-02-03T09:45:01.000Z</time>
      </trkpt>
      <trkpt lat="46.8021" lon="0.36411">
        <ele>95</ele>
        <time>2019-02-03T09:45:02.000Z</time>
      </trkpt>
      <trkpt lat="46.80208" lon="0.36416">
        <ele>96</ele>
        <time>2019-02-03T09:45:03.000Z</time>
      </trkpt>
      <trkpt lat="46.80205" lon="0.3642">
        <ele>95</ele>
        <time>2019-02-03T09:45:04.000Z</time>
      </trkpt>
      <trkpt lat="46.80203" lon="0.36424">
        <ele>95</ele>
        <time>2019-02-03T09:45:05.000Z</time>
      </trkpt>
      <trkpt lat="46.80202" lon="0.36426">
        <ele>95</ele>
        <time>2019-02-03T09:45:06.000Z</time>
      </trkpt>
      <trkpt lat="46.802" lon="0.36429">
        <ele>95</ele>
        <time>2019-02-03T09:45:07.000Z</time>
      </trkpt>
      <trkpt lat="46.80198" lon="0.36431">
        <ele>95</ele>
        <time>2019-02-03T09:45:08.000Z</time>
      </trkpt>
      <trkpt lat="46.80196" lon="0.36433">
        <ele>95</ele>
        <time>2019-02-03T09:45:09.000Z</time>
      </trkpt>
      <trkpt lat="46.80195" lon="0.36435">
        <ele>95</ele>
        <time>2019-02-03T09:45:10.000Z</time>
      </trkpt>
      <trkpt lat="46.80193" lon="0.36437">
        <ele>94</ele>
        <time>2019-02-03T09:45:11.000Z</time>
      </trkpt>
      <trkpt lat="46.80191" lon="0.36439">
        <ele>94</ele>
        <time>2019-02-03T09:45:12.000Z</time>
      </trkpt>
      <trkpt lat="46.80188" lon="0.3644">
        <ele>94</ele>
        <time>2019-02-03T09:45:13.000Z</time>
      </trkpt>
      <trkpt lat="46.80186" lon="0.3644">
        <ele>94</ele>
        <time>2019-02-03T09:45:14.000Z</time>
      </trkpt>
      <trkpt lat="46.80183" lon="0.36442">
        <ele>93</ele>
        <time>2019-02-03T09:45:15.000Z</time>
      </trkpt>
      <trkpt lat="46.80181" lon="0.36444">
        <ele>92</ele>
        <time>2019-02-03T09:45:16.000Z</time>
      </trkpt>
      <trkpt lat="46.80178" lon="0.36447">
        <ele>92</ele>
        <time>2019-02-03T09:45:17.000Z</time>
      </trkpt>
      <trkpt lat="46.80174" lon="0.36449">
        <ele>91</ele>
        <time>2019-02-03T09:45:18.000Z</time>
      </trkpt>
      <trkpt lat="46.80172" lon="0.36451">
        <ele>91</ele>
        <time>2019-02-03T09:45:19.000Z</time>
      </trkpt>
      <trkpt lat="46.80169" lon="0.36452">
        <ele>92</ele>
        <time>2019-02-03T09:45:20.000Z</time>
      </trkpt>
      <trkpt lat="46.80166" lon="0.36453">
        <ele>92</ele>
        <time>2019-02-03T09:45:21.000Z</time>
      </trkpt>
      <trkpt lat="46.80164" lon="0.36454">
        <ele>91</ele>
        <time>2019-02-03T09:45:22.000Z</time>
      </trkpt>
      <trkpt lat="46.80162" lon="0.36455">
        <ele>91</ele>
        <time>2019-02-03T09:45:23.000Z</time>
      </trkpt>
      <trkpt lat="46.8016" lon="0.36456">
        <ele>91</ele>
        <time>2019-02-03T09:45:24.000Z</time>
      </trkpt>
      <trkpt lat="46.80159" lon="0.36457">
        <ele>91</ele>
        <time>2019-02-03T09:45:25.000Z</time>
      </trkpt>
      <trkpt lat="46.80158" lon="0.36458">
        <ele>91</ele>
        <time>2019-02-03T09:45:26.000Z</time>
      </trkpt>
      <trkpt lat="46.80157" lon="0.36458">
        <ele>92</ele>
        <time>2019-02-03T09:45:27.000Z</time>
      </trkpt>
      <trkpt lat="46.80157" lon="0.36459">
        <ele>93</ele>
        <time>2019-02-03T09:45:28.000Z</time>
      </trkpt>
      <trkpt lat="46.80157" lon="0.36459">
        <ele>93</ele>
        <time>2019-02-03T09:45:29.000Z</time>
      </trkpt>
      <trkpt lat="46.80157" lon="0.3646">
        <ele>92</ele>
        <time>2019-02-03T09:45:30.000Z</time>
      </trkpt>
      <trkpt lat="46.80156" lon="0.36461">
        <ele>92</ele>
        <time>2019-02-03T09:45:31.000Z</time>
      </trkpt>
      <trkpt lat="46.80155" lon="0.36462">
        <ele>92</ele>
        <time>2019-02-03T09:45:32.000Z</time>
      </trkpt>
      <trkpt lat="46.80155" lon="0.36463">
        <ele>94</ele>
        <time>2019-02-03T09:45:33.000Z</time>
      </trkpt>
      <trkpt lat="46.80154" lon="0.36463">
        <ele>95</ele>
        <time>2019-02-03T09:45:34.000Z</time>
      </trkpt>
      <trkpt lat="46.80154" lon="0.36464">
        <ele>95</ele>
        <time>2019-02-03T09:45:35.000Z</time>
      </trkpt>
      <trkpt lat="46.80154" lon="0.36465">
        <ele>95</ele>
        <time>2019-02-03T09:45:36.000Z</time>
      </trkpt>
      <trkpt lat="46.80154" lon="0.36465">
        <ele>95</ele>
        <time>2019-02-03T09:45:37.000Z</time>
      </trkpt>
      <trkpt lat="46.80154" lon="0.36465">
        <ele>95</ele>
        <time>2019-02-03T09:45:38.000Z</time>
      </trkpt>
      <trkpt lat="46.80154" lon="0.36465">
        <ele>96</ele>
        <time>2019-02-03T09:45:39.000Z</time>
      </trkpt>
      <trkpt lat="46.80154" lon="0.36465">
        <ele>96</ele>
        <time>2019-02-03T09:45:40.000Z</time>
      </trkpt>
      <trkpt lat="46.80153" lon="0.36465">
        <ele>96</ele>
        <time>2019-02-03T09:45:41.000Z</time>
      </trkpt>
      <trkpt lat="46.80153" lon="0.36465">
        <ele>96</ele>
        <time>2019-02-03T09:45:42.000Z</time>
      </trkpt>
      <trkpt lat="46.80153" lon="0.36465">
        <ele>97</ele>
        <time>2019-02-03T09:45:43.000Z</time>
      </trkpt>
      <trkpt lat="46.80153" lon="0.36465">
        <ele>96</ele>
        <time>2019-02-03T09:45:44.000Z</time>
      </trkpt>
      <trkpt lat="46.80153" lon="0.36465">
        <ele>95</ele>
        <time>2019-02-03T09:45:45.000Z</time>
      </trkpt>
      <trkpt lat="46.80153" lon="0.36465">
        <ele>93</ele>
        <time>2019-02-03T09:45:46.000Z</time>
      </trkpt>
      <trkpt lat="46.80153" lon="0.36466">
        <ele>93</ele>
        <time>2019-02-03T09:45:47.000Z</time>
      </trkpt>
      <trkpt lat="46.80153" lon="0.36466">
        <ele>93</ele>
        <time>2019-02-03T09:45:48.000Z</time>
      </trkpt>
      <trkpt lat="46.80153" lon="0.36466">
        <ele>93</ele>
        <time>2019-02-03T09:45:49.000Z</time>
      </trkpt>
      <trkpt lat="46.80153" lon="0.36467">
        <ele>92</ele>
        <time>2019-02-03T09:45:50.000Z</time>
      </trkpt>
      <trkpt lat="46.80153" lon="0.36467">
        <ele>92</ele>
        <time>2019-02-03T09:45:51.000Z</time>
      </trkpt>
      <trkpt lat="46.80153" lon="0.36467">
        <ele>92</ele>
        <time>2019-02-03T09:45:52.000Z</time>
      </trkpt>
      <trkpt lat="46.80153" lon="0.36467">
        <ele>92</ele>
        <time>2019-02-03T09:45:53.000Z</time>
      </trkpt>
      <trkpt lat="46.80153" lon="0.36467">
        <ele>92</ele>
        <time>2019-02-03T09:45:54.000Z</time>
      </trkpt>
      <trkpt lat="46.80153" lon="0.36467">
        <ele>92</ele>
        <time>2019-02-03T09:45:55.000Z</time>
      </trkpt>
      <trkpt lat="46.80153" lon="0.36468">
        <ele>92</ele>
        <time>2019-02-03T09:45:56.000Z</time>
      </trkpt>
      <trkpt lat="46.80152" lon="0.36468">
        <ele>92</ele>
        <time>2019-02-03T09:45:57.000Z</time>
      </trkpt>
      <trkpt lat="46.80152" lon="0.36468">
        <ele>92</ele>
        <time>2019-02-03T09:45:58.000Z</time>
      </trkpt>
      <trkpt lat="46.80152" lon="0.36468">
        <ele>92</ele>
        <time>2019-02-03T09:45:59.000Z</time>
      </trkpt>
      <trkpt lat="46.80152" lon="0.36468">
        <ele>92</ele>
        <time>2019-02-03T09:46:00.000Z</time>
      </trkpt>
      <trkpt lat="46.80152" lon="0.36468">
        <ele>92</ele>
        <time>2019-02-03T09:46:01.000Z</time>
      </trkpt>
      <trkpt lat="46.80152" lon="0.36468">
        <ele>93</ele>
        <time>2019-02-03T09:46:02.000Z</time>
      </trkpt>
      <trkpt lat="46.80153" lon="0.36469">
        <ele>93</ele>
        <time>2019-02-03T09:46:03.000Z</time>
      </trkpt>
      <trkpt lat="46.80153" lon="0.36469">
        <ele>93</ele>
        <time>2019-02-03T09:46:04.000Z</time>
      </trkpt>
      <trkpt lat="46.80153" lon="0.36469">
        <ele>93</ele>
        <time>2019-02-03T09:46:05.000Z</time>
      </trkpt>
      <trkpt lat="46.80153" lon="0.36469">
        <ele>93</ele>
        <time>2019-02-03T09:46:06.000Z</time>
      </trkpt>
      <trkpt lat="46.80153" lon="0.3647">
        <ele>93</ele>
        <time>2019-02-03T09:46:07.000Z</time>
      </trkpt>
      <trkpt lat="46.80153" lon="0.36471">
        <ele>93</ele>
        <time>2019-02-03T09:46:08.000Z</time>
      </trkpt>
      <trkpt lat="46.80154" lon="0.36473">
        <ele>93</ele>
        <time>2019-02-03T09:46:09.000Z</time>
      </trkpt>
      <trkpt lat="46.80154" lon="0.36475">
        <ele>93</ele>
        <time>2019-02-03T09:46:10.000Z</time>
      </trkpt>
      <trkpt lat="46.80155" lon="0.36478">
        <ele>93</ele>
        <time>2019-02-03T09:46:11.000Z</time>
      </trkpt>
      <trkpt lat="46.80155" lon="0.36482">
        <ele>93</ele>
        <time>2019-02-03T09:46:12.000Z</time>
      </trkpt>
      <trkpt lat="46.80155" lon="0.36485">
        <ele>92</ele>
        <time>2019-02-03T09:46:13.000Z</time>
      </trkpt>
      <trkpt lat="46.80156" lon="0.36489">
        <ele>92</ele>
        <time>2019-02-03T09:46:14.000Z</time>
      </trkpt>
      <trkpt lat="46.80156" lon="0.36492">
        <ele>91</ele>
        <time>2019-02-03T09:46:15.000Z</time>
      </trkpt>
      <trkpt lat="46.80157" lon="0.36496">
        <ele>91</ele>
        <time>2019-02-03T09:46:16.000Z</time>
      </trkpt>
      <trkpt lat="46.80157" lon="0.36501">
        <ele>91</ele>
        <time>2019-02-03T09:46:17.000Z</time>
      </trkpt>
      <trkpt lat="46.80158" lon="0.36505">
        <ele>91</ele>
        <time>2019-02-03T09:46:18.000Z</time>
      </trkpt>
      <trkpt lat="46.80159" lon="0.36508">
        <ele>90</ele>
        <time>2019-02-03T09:46:19.000Z</time>
      </trkpt>
      <trkpt lat="46.8016" lon="0.36512">
        <ele>89</ele>
        <time>2019-02-03T09:46:20.000Z</time>
      </trkpt>
      <trkpt lat="46.80162" lon="0.36514">
        <ele>89</ele>
        <time>2019-02-03T09:46:21.000Z</time>
      </trkpt>
      <trkpt lat="46.80163" lon="0.36517">
        <ele>89</ele>
        <time>2019-02-03T09:46:22.000Z</time>
      </trkpt>
      <trkpt lat="46.80163" lon="0.36521">
        <ele>88</ele>
        <time>2019-02-03T09:46:23.000Z</time>
      </trkpt>
      <trkpt lat="46.80164" lon="0.36524">
        <ele>88</ele>
        <time>2019-02-03T09:46:24.000Z</time>
      </trkpt>
      <trkpt lat="46.80164" lon="0.36527">
        <ele>88</ele>
        <time>2019-02-03T09:46:25.000Z</time>
      </trkpt>
      <trkpt lat="46.80165" lon="0.36531">
        <ele>88</ele>
        <time>2019-02-03T09:46:26.000Z</time>
      </trkpt>
      <trkpt lat="46.80166" lon="0.36535">
        <ele>89</ele>
        <time>2019-02-03T09:46:27.000Z</time>
      </trkpt>
      <trkpt lat="46.80167" lon="0.3654">
        <ele>88</ele>
        <time>2019-02-03T09:46:28.000Z</time>
      </trkpt>
      <trkpt lat="46.80168" lon="0.36546">
        <ele>90</ele>
        <time>2019-02-03T09:46:29.000Z</time>
      </trkpt>
      <trkpt lat="46.80169" lon="0.36552">
        <ele>90</ele>
        <time>2019-02-03T09:46:30.000Z</time>
      </trkpt>
      <trkpt lat="46.8017" lon="0.36558">
        <ele>91</ele>
        <time>2019-02-03T09:46:31.000Z</time>
      </trkpt>
      <trkpt lat="46.80172" lon="0.36564">
        <ele>90</ele>
        <time>2019-02-03T09:46:32.000Z</time>
      </trkpt>
      <trkpt lat="46.80173" lon="0.36569">
        <ele>90</ele>
        <time>2019-02-03T09:46:33.000Z</time>
      </trkpt>
      <trkpt lat="46.80174" lon="0.36575">
        <ele>90</ele>
        <time>2019-02-03T09:46:34.000Z</time>
      </trkpt>
      <trkpt lat="46.80175" lon="0.3658">
        <ele>89</ele>
        <time>2019-02-03T09:46:35.000Z</time>
      </trkpt>
      <trkpt lat="46.80176" lon="0.36586">
        <ele>88</ele>
        <time>2019-02-03T09:46:36.000Z</time>
      </trkpt>
      <trkpt lat="46.80177" lon="0.36591">
        <ele>88</ele>
        <time>2019-02-03T09:46:37.000Z</time>
      </trkpt>
      <trkpt lat="46.80178" lon="0.36596">
        <ele>87</ele>
        <time>2019-02-03T09:46:38.000Z</time>
      </trkpt>
      <trkpt lat="46.80179" lon="0.36601">
        <ele>87</ele>
        <time>2019-02-03T09:46:39.000Z</time>
      </trkpt>
      <trkpt lat="46.80179" lon="0.36606">
        <ele>87</ele>
        <time>2019-02-03T09:46:40.000Z</time>
      </trkpt>
      <trkpt lat="46.80179" lon="0.36611">
        <ele>87</ele>
        <time>2019-02-03T09:46:41.000Z</time>
      </trkpt>
      <trkpt lat="46.8018" lon="0.36616">
        <ele>87</ele>
        <time>2019-02-03T09:46:42.000Z</time>
      </trkpt>
      <trkpt lat="46.80181" lon="0.36621">
        <ele>87</ele>
        <time>2019-02-03T09:46:43.000Z</time>
      </trkpt>
      <trkpt lat="46.80183" lon="0.36626">
        <ele>87</ele>
        <time>2019-02-03T09:46:44.000Z</time>
      </trkpt>
      <trkpt lat="46.80184" lon="0.36631">
        <ele>87</ele>
        <time>2019-02-03T09:46:45.000Z</time>
      </trkpt>
      <trkpt lat="46.80186" lon="0.36636">
        <ele>87</ele>
        <time>2019-02-03T09:46:46.000Z</time>
      </trkpt>
      <trkpt lat="46.80187" lon="0.36641">
        <ele>87</ele>
        <time>2019-02-03T09:46:47.000Z</time>
      </trkpt>
      <trkpt lat="46.80188" lon="0.36647">
        <ele>87</ele>
        <time>2019-02-03T09:46:48.000Z</time>
      </trkpt>
      <trkpt lat="46.80189" lon="0.36652">
        <ele>87</ele>
        <time>2019-02-03T09:46:49.000Z</time>
      </trkpt>
      <trkpt lat="46.8019" lon="0.36657">
        <ele>88</ele>
        <time>2019-02-03T09:46:50.000Z</time>
      </trkpt>
      <trkpt lat="46.80191" lon="0.36662">
        <ele>88</ele>
        <time>2019-02-03T09:46:51.000Z</time>
      </trkpt>
      <trkpt lat="46.80192" lon="0.36668">
        <ele>88</ele>
        <time>2019-02-03T09:46:52.000Z</time>
      </trkpt>
      <trkpt lat="46.80194" lon="0.36673">
        <ele>86</ele>
        <time>2019-02-03T09:46:53.000Z</time>
      </trkpt>
      <trkpt lat="46.80195" lon="0.36678">
        <ele>87</ele>
        <time>2019-02-03T09:46:54.000Z</time>
      </trkpt>
      <trkpt lat="46.80198" lon="0.36684">
        <ele>84</ele>
        <time>2019-02-03T09:46:55.000Z</time>
      </trkpt>
      <trkpt lat="46.802" lon="0.36689">
        <ele>81</ele>
        <time>2019-02-03T09:46:56.000Z</time>
      </trkpt>
      <trkpt lat="46.80203" lon="0.36694">
        <ele>79</ele>
        <time>2019-02-03T09:46:57.000Z</time>
      </trkpt>
      <trkpt lat="46.80205" lon="0.36699">
        <ele>79</ele>
        <time>2019-02-03T09:46:58.000Z</time>
      </trkpt>
      <trkpt lat="46.80208" lon="0.36704">
        <ele>78</ele>
        <time>2019-02-03T09:46:59.000Z</time>
      </trkpt>
      <trkpt lat="46.80209" lon="0.36709">
        <ele>77</ele>
        <time>2019-02-03T09:47:00.000Z</time>
      </trkpt>
      <trkpt lat="46.80212" lon="0.36714">
        <ele>76</ele>
        <time>2019-02-03T09:47:01.000Z</time>
      </trkpt>
      <trkpt lat="46.80215" lon="0.36719">
        <ele>74</ele>
        <time>2019-02-03T09:47:02.000Z</time>
      </trkpt>
      <trkpt lat="46.80219" lon="0.36724">
        <ele>73</ele>
        <time>2019-02-03T09:47:03.000Z</time>
      </trkpt>
      <trkpt lat="46.80222" lon="0.36729">
        <ele>74</ele>
        <time>2019-02-03T09:47:04.000Z</time>
      </trkpt>
      <trkpt lat="46.80224" lon="0.36734">
        <ele>74</ele>
        <time>2019-02-03T09:47:05.000Z</time>
      </trkpt>
      <trkpt lat="46.80227" lon="0.3674">
        <ele>73</ele>
        <time>2019-02-03T09:47:06.000Z</time>
      </trkpt>
      <trkpt lat="46.8023" lon="0.36746">
        <ele>75</ele>
        <time>2019-02-03T09:47:07.000Z</time>
      </trkpt>
      <trkpt lat="46.80232" lon="0.36751">
        <ele>75</ele>
        <time>2019-02-03T09:47:08.000Z</time>
      </trkpt>
      <trkpt lat="46.80234" lon="0.36757">
        <ele>75</ele>
        <time>2019-02-03T09:47:09.000Z</time>
      </trkpt>
      <trkpt lat="46.80236" lon="0.36762">
        <ele>76</ele>
        <time>2019-02-03T09:47:10.000Z</time>
      </trkpt>
      <trkpt lat="46.80239" lon="0.36767">
        <ele>76</ele>
        <time>2019-02-03T09:47:11.000Z</time>
      </trkpt>
      <trkpt lat="46.80241" lon="0.36773">
        <ele>77</ele>
        <time>2019-02-03T09:47:12.000Z</time>
      </trkpt>
      <trkpt lat="46.80242" lon="0.36778">
        <ele>76</ele>
        <time>2019-02-03T09:47:13.000Z</time>
      </trkpt>
      <trkpt lat="46.80245" lon="0.36784">
        <ele>76</ele>
        <time>2019-02-03T09:47:14.000Z</time>
      </trkpt>
      <trkpt lat="46.80247" lon="0.3679">
        <ele>75</ele>
        <time>2019-02-03T09:47:15.000Z</time>
      </trkpt>
      <trkpt lat="46.8025" lon="0.36795">
        <ele>74</ele>
        <time>2019-02-03T09:47:16.000Z</time>
      </trkpt>
      <trkpt lat="46.80252" lon="0.36801">
        <ele>73</ele>
        <time>2019-02-03T09:47:17.000Z</time>
      </trkpt>
      <trkpt lat="46.80255" lon="0.36807">
        <ele>73</ele>
        <time>2019-02-03T09:47:18.000Z</time>
      </trkpt>
      <trkpt lat="46.80257" lon="0.36812">
        <ele>73</ele>
        <time>2019-02-03T09:47:19.000Z</time>
      </trkpt>
      <trkpt lat="46.80259" lon="0.36818">
        <ele>74</ele>
        <time>2019-02-03T09:47:20.000Z</time>
      </trkpt>
      <trkpt lat="46.80261" lon="0.36825">
        <ele>74</ele>
        <time>2019-02-03T09:47:21.000Z</time>
      </trkpt>
      <trkpt lat="46.80263" lon="0.36831">
        <ele>74</ele>
        <time>2019-02-03T09:47:22.000Z</time>
      </trkpt>
      <trkpt lat="46.80266" lon="0.36837">
        <ele>73</ele>
        <time>2019-02-03T09:47:23.000Z</time>
      </trkpt>
      <trkpt lat="46.80269" lon="0.36843">
        <ele>72</ele>
        <time>2019-02-03T09:47:24.000Z</time>
      </trkpt>
      <trkpt lat="46.80271" lon="0.36849">
        <ele>72</ele>
        <time>2019-02-03T09:47:25.000Z</time>
      </trkpt>
      <trkpt lat="46.80273" lon="0.36854">
        <ele>72</ele>
        <time>2019-02-03T09:47:26.000Z</time>
      </trkpt>
      <trkpt lat="46.80275" lon="0.3686">
        <ele>72</ele>
        <time>2019-02-03T09:47:27.000Z</time>
      </trkpt>
      <trkpt lat="46.80277" lon="0.36866">
        <ele>72</ele>
        <time>2019-02-03T09:47:28.000Z</time>
      </trkpt>
      <trkpt lat="46.80279" lon="0.36872">
        <ele>72</ele>
        <time>2019-02-03T09:47:29.000Z</time>
      </trkpt>
      <trkpt lat="46.80281" lon="0.36878">
        <ele>73</ele>
        <time>2019-02-03T09:47:30.000Z</time>
      </trkpt>
      <trkpt lat="46.80283" lon="0.36884">
        <ele>73</ele>
        <time>2019-02-03T09:47:31.000Z</time>
      </trkpt>
      <trkpt lat="46.80285" lon="0.3689">
        <ele>73</ele>
        <time>2019-02-03T09:47:32.000Z</time>
      </trkpt>
      <trkpt lat="46.80287" lon="0.36896">
        <ele>73</ele>
        <time>2019-02-03T09:47:33.000Z</time>
      </trkpt>
      <trkpt lat="46.80288" lon="0.36902">
        <ele>73</ele>
        <time>2019-02-03T09:47:34.000Z</time>
      </trkpt>
      <trkpt lat="46.8029" lon="0.36907">
        <ele>73</ele>
        <time>2019-02-03T09:47:35.000Z</time>
      </trkpt>
      <trkpt lat="46.80292" lon="0.36913">
        <ele>72</ele>
        <time>2019-02-03T09:47:36.000Z</time>
      </trkpt>
      <trkpt lat="46.80294" lon="0.36919">
        <ele>72</ele>
        <time>2019-02-03T09:47:37.000Z</time>
      </trkpt>
      <trkpt lat="46.80296" lon="0.36925">
        <ele>72</ele>
        <time>2019-02-03T09:47:38.000Z</time>
      </trkpt>
      <trkpt lat="46.80298" lon="0.3693">
        <ele>72</ele>
        <time>2019-02-03T09:47:39.000Z</time>
      </trkpt>
      <trkpt lat="46.803" lon="0.36936">
        <ele>72</ele>
        <time>2019-02-03T09:47:40.000Z</time>
      </trkpt>
      <trkpt lat="46.80302" lon="0.36941">
        <ele>73</ele>
        <time>2019-02-03T09:47:41.000Z</time>
      </trkpt>
      <trkpt lat="46.80304" lon="0.36947">
        <ele>72</ele>
        <time>2019-02-03T09:47:42.000Z</time>
      </trkpt>
      <trkpt lat="46.80306" lon="0.36952">
        <ele>73</ele>
        <time>2019-02-03T09:47:43.000Z</time>
      </trkpt>
      <trkpt lat="46.80308" lon="0.36957">
        <ele>72</ele>
        <time>2019-02-03T09:47:44.000Z</time>
      </trkpt>
      <trkpt lat="46.8031" lon="0.36963">
        <ele>73</ele>
        <time>2019-02-03T09:47:45.000Z</time>
      </trkpt>
      <trkpt lat="46.80312" lon="0.36968">
        <ele>74</ele>
        <time>2019-02-03T09:47:46.000Z</time>
      </trkpt>
      <trkpt lat="46.80314" lon="0.36973">
        <ele>74</ele>
        <time>2019-02-03T09:47:47.000Z</time>
      </trkpt>
      <trkpt lat="46.80316" lon="0.36979">
        <ele>74</ele>
        <time>2019-02-03T09:47:48.000Z</time>
      </trkpt>
      <trkpt lat="46.80318" lon="0.36985">
        <ele>75</ele>
        <time>2019-02-03T09:47:49.000Z</time>
      </trkpt>
      <trkpt lat="46.80319" lon="0.36991">
        <ele>75</ele>
        <time>2019-02-03T09:47:50.000Z</time>
      </trkpt>
      <trkpt lat="46.80321" lon="0.36997">
        <ele>75</ele>
        <time>2019-02-03T09:47:51.000Z</time>
      </trkpt>
      <trkpt lat="46.80323" lon="0.37003">
        <ele>75</ele>
        <time>2019-02-03T09:47:52.000Z</time>
      </trkpt>
      <trkpt lat="46.80325" lon="0.37009">
        <ele>75</ele>
        <time>2019-02-03T09:47:53.000Z</time>
      </trkpt>
      <trkpt lat="46.80327" lon="0.37016">
        <ele>75</ele>
        <time>2019-02-03T09:47:54.000Z</time>
      </trkpt>
      <trkpt lat="46.80329" lon="0.37023">
        <ele>75</ele>
        <time>2019-02-03T09:47:55.000Z</time>
      </trkpt>
      <trkpt lat="46.8033" lon="0.3703">
        <ele>75</ele>
        <time>2019-02-03T09:47:56.000Z</time>
      </trkpt>
      <trkpt lat="46.80332" lon="0.37036">
        <ele>75</ele>
        <time>2019-02-03T09:47:57.000Z</time>
      </trkpt>
      <trkpt lat="46.80334" lon="0.37043">
        <ele>75</ele>
        <time>2019-02-03T09:47:58.000Z</time>
      </trkpt>
      <trkpt lat="46.80335" lon="0.37049">
        <ele>75</ele>
        <time>2019-02-03T09:47:59.000Z</time>
      </trkpt>
      <trkpt lat="46.80337" lon="0.37056">
        <ele>75</ele>
        <time>2019-02-03T09:48:00.000Z</time>
      </trkpt>
      <trkpt lat="46.80338" lon="0.37062">
        <ele>75</ele>
        <time>2019-02-03T09:48:01.000Z</time>
      </trkpt>
      <trkpt lat="46.8034" lon="0.37069">
        <ele>75</ele>
        <time>2019-02-03T09:48:02.000Z</time>
      </trkpt>
      <trkpt lat="46.80341" lon="0.37076">
        <ele>75</ele>
        <time>2019-02-03T09:48:03.000Z</time>
      </trkpt>
      <trkpt lat="46.80343" lon="0.37083">
        <ele>75</ele>
        <time>2019-02-03T09:48:04.000Z</time>
      </trkpt>
      <trkpt lat="46.80344" lon="0.37091">
        <ele>74</ele>
        <time>2019-02-03T09:48:05.000Z</time>
      </trkpt>
      <trkpt lat="46.80346" lon="0.37098">
        <ele>74</ele>
        <time>2019-02-03T09:48:06.000Z</time>
      </trkpt>
      <trkpt lat="46.80347" lon="0.37105">
        <ele>74</ele>
        <time>2019-02-03T09:48:07.000Z</time>
      </trkpt>
      <trkpt lat="46.80349" lon="0.37112">
        <ele>74</ele>
        <time>2019-02-03T09:48:08.000Z</time>
      </trkpt>
      <trkpt lat="46.8035" lon="0.37119">
        <ele>73</ele>
        <time>2019-02-03T09:48:09.000Z</time>
      </trkpt>
      <trkpt lat="46.80351" lon="0.37125">
        <ele>73</ele>
        <time>2019-02-03T09:48:10.000Z</time>
      </trkpt>
      <trkpt lat="46.80352" lon="0.37132">
        <ele>73</ele>
        <time>2019-02-03T09:48:11.000Z</time>
      </trkpt>
      <trkpt lat="46.80353" lon="0.37139">
        <ele>73</ele>
        <time>2019-02-03T09:48:12.000Z</time>
      </trkpt>
      <trkpt lat="46.80354" lon="0.37146">
        <ele>73</ele>
        <time>2019-02-03T09:48:13.000Z</time>
      </trkpt>
      <trkpt lat="46.80355" lon="0.37152">
        <ele>73</ele>
        <time>2019-02-03T09:48:14.000Z</time>
      </trkpt>
      <trkpt lat="46.80355" lon="0.37158">
        <ele>72</ele>
        <time>2019-02-03T09:48:15.000Z</time>
      </trkpt>
      <trkpt lat="46.80356" lon="0.37164">
        <ele>72</ele>
        <time>2019-02-03T09:48:16.000Z</time>
      </trkpt>
      <trkpt lat="46.80357" lon="0.3717">
        <ele>72</ele>
        <time>2019-02-03T09:48:17.000Z</time>
      </trkpt>
      <trkpt lat="46.80358" lon="0.37176">
        <ele>72</ele>
        <time>2019-02-03T09:48:18.000Z</time>
      </trkpt>
      <trkpt lat="46.80359" lon="0.37183">
        <ele>72</ele>
        <time>2019-02-03T09:48:19.000Z</time>
      </trkpt>
      <trkpt lat="46.8036" lon="0.37189">
        <ele>72</ele>
        <time>2019-02-03T09:48:20.000Z</time>
      </trkpt>
      <trkpt lat="46.80361" lon="0.37195">
        <ele>73</ele>
        <time>2019-02-03T09:48:21.000Z</time>
      </trkpt>
      <trkpt lat="46.80362" lon="0.37202">
        <ele>73</ele>
        <time>2019-02-03T09:48:22.000Z</time>
      </trkpt>
      <trkpt lat="46.80363" lon="0.37209">
        <ele>73</ele>
        <time>2019-02-03T09:48:23.000Z</time>
      </trkpt>
      <trkpt lat="46.80365" lon="0.37216">
        <ele>73</ele>
        <time>2019-02-03T09:48:24.000Z</time>
      </trkpt>
      <trkpt lat="46.80367" lon="0.37222">
        <ele>71</ele>
        <time>2019-02-03T09:48:25.000Z</time>
      </trkpt>
      <trkpt lat="46.8037" lon="0.37228">
        <ele>70</ele>
        <time>2019-02-03T09:48:26.000Z</time>
      </trkpt>
      <trkpt lat="46.80373" lon="0.37234">
        <ele>70</ele>
        <time>2019-02-03T09:48:27.000Z</time>
      </trkpt>
      <trkpt lat="46.80375" lon="0.37241">
        <ele>68</ele>
        <time>2019-02-03T09:48:28.000Z</time>
      </trkpt>
      <trkpt lat="46.80376" lon="0.37247">
        <ele>68</ele>
        <time>2019-02-03T09:48:29.000Z</time>
      </trkpt>
      <trkpt lat="46.80378" lon="0.37253">
        <ele>67</ele>
        <time>2019-02-03T09:48:30.000Z</time>
      </trkpt>
      <trkpt lat="46.80379" lon="0.3726">
        <ele>66</ele>
        <time>2019-02-03T09:48:31.000Z</time>
      </trkpt>
      <trkpt lat="46.8038" lon="0.37266">
        <ele>66</ele>
        <time>2019-02-03T09:48:32.000Z</time>
      </trkpt>
      <trkpt lat="46.80381" lon="0.37273">
        <ele>65</ele>
        <time>2019-02-03T09:48:33.000Z</time>
      </trkpt>
      <trkpt lat="46.80382" lon="0.37279">
        <ele>65</ele>
        <time>2019-02-03T09:48:34.000Z</time>
      </trkpt>
      <trkpt lat="46.80383" lon="0.37286">
        <ele>65</ele>
        <time>2019-02-03T09:48:35.000Z</time>
      </trkpt>
      <trkpt lat="46.80384" lon="0.37293">
        <ele>65</ele>
        <time>2019-02-03T09:48:36.000Z</time>
      </trkpt>
      <trkpt lat="46.80385" lon="0.373">
        <ele>65</ele>
        <time>2019-02-03T09:48:37.000Z</time>
      </trkpt>
      <trkpt lat="46.80386" lon="0.37307">
        <ele>64</ele>
        <time>2019-02-03T09:48:38.000Z</time>
      </trkpt>
      <trkpt lat="46.80387" lon="0.37314">
        <ele>64</ele>
        <time>2019-02-03T09:48:39.000Z</time>
      </trkpt>
      <trkpt lat="46.80388" lon="0.37321">
        <ele>64</ele>
        <time>2019-02-03T09:48:40.000Z</time>
      </trkpt>
      <trkpt lat="46.80389" lon="0.37328">
        <ele>64</ele>
        <time>2019-02-03T09:48:41.000Z</time>
      </trkpt>
      <trkpt lat="46.8039" lon="0.37335">
        <ele>64</ele>
        <time>2019-02-03T09:48:42.000Z</time>
      </trkpt>
      <trkpt lat="46.8039" lon="0.37341">
        <ele>64</ele>
        <time>2019-02-03T09:48:43.000Z</time>
      </trkpt>
      <trkpt lat="46.80391" lon="0.37347">
        <ele>63</ele>
        <time>2019-02-03T09:48:44.000Z</time>
      </trkpt>
      <trkpt lat="46.80392" lon="0.37353">
        <ele>63</ele>
        <time>2019-02-03T09:48:45.000Z</time>
      </trkpt>
      <trkpt lat="46.80392" lon="0.3736">
        <ele>62</ele>
        <time>2019-02-03T09:48:46.000Z</time>
      </trkpt>
      <trkpt lat="46.80394" lon="0.37366">
        <ele>62</ele>
        <time>2019-02-03T09:48:47.000Z</time>
      </trkpt>
      <trkpt lat="46.80395" lon="0.37373">
        <ele>63</ele>
        <time>2019-02-03T09:48:48.000Z</time>
      </trkpt>
      <trkpt lat="46.80397" lon="0.3738">
        <ele>63</ele>
        <time>2019-02-03T09:48:49.000Z</time>
      </trkpt>
      <trkpt lat="46.80398" lon="0.37386">
        <ele>62</ele>
        <time>2019-02-03T09:48:50.000Z</time>
      </trkpt>
      <trkpt lat="46.80399" lon="0.37393">
        <ele>62</ele>
        <time>2019-02-03T09:48:51.000Z</time>
      </trkpt>
      <trkpt lat="46.80399" lon="0.374">
        <ele>62</ele>
        <time>2019-02-03T09:48:52.000Z</time>
      </trkpt>
      <trkpt lat="46.804" lon="0.37407">
        <ele>62</ele>
        <time>2019-02-03T09:48:53.000Z</time>
      </trkpt>
      <trkpt lat="46.804" lon="0.37414">
        <ele>62</ele>
        <time>2019-02-03T09:48:54.000Z</time>
      </trkpt>
      <trkpt lat="46.804" lon="0.37421">
        <ele>62</ele>
        <time>2019-02-03T09:48:55.000Z</time>
      </trkpt>
      <trkpt lat="46.804" lon="0.37428">
        <ele>63</ele>
        <time>2019-02-03T09:48:56.000Z</time>
      </trkpt>
      <trkpt lat="46.804" lon="0.37434">
        <ele>63</ele>
        <time>2019-02-03T09:48:57.000Z</time>
      </trkpt>
      <trkpt lat="46.804" lon="0.3744">
        <ele>63</ele>
        <time>2019-02-03T09:48:58.000Z</time>
      </trkpt>
      <trkpt lat="46.804" lon="0.37447">
        <ele>63</ele>
        <time>2019-02-03T09:48:59.000Z</time>
      </trkpt>
      <trkpt lat="46.80401" lon="0.37453">
        <ele>63</ele>
        <time>2019-02-03T09:49:00.000Z</time>
      </trkpt>
      <trkpt lat="46.80401" lon="0.3746">
        <ele>64</ele>
        <time>2019-02-03T09:49:01.000Z</time>
      </trkpt>
      <trkpt lat="46.80401" lon="0.37466">
        <ele>64</ele>
        <time>2019-02-03T09:49:02.000Z</time>
      </trkpt>
      <trkpt lat="46.80402" lon="0.37472">
        <ele>65</ele>
        <time>2019-02-03T09:49:03.000Z</time>
      </trkpt>
      <trkpt lat="46.80402" lon="0.37478">
        <ele>66</ele>
        <time>2019-02-03T09:49:04.000Z</time>
      </trkpt>
      <trkpt lat="46.80403" lon="0.37484">
        <ele>67</ele>
        <time>2019-02-03T09:49:05.000Z</time>
      </trkpt>
      <trkpt lat="46.80404" lon="0.3749">
        <ele>67</ele>
        <time>2019-02-03T09:49:06.000Z</time>
      </trkpt>
      <trkpt lat="46.80406" lon="0.37496">
        <ele>66</ele>
        <time>2019-02-03T09:49:07.000Z</time>
      </trkpt>
      <trkpt lat="46.80409" lon="0.37502">
        <ele>66</ele>
        <time>2019-02-03T09:49:08.000Z</time>
      </trkpt>
      <trkpt lat="46.80411" lon="0.37508">
        <ele>66</ele>
        <time>2019-02-03T09:49:09.000Z</time>
      </trkpt>
      <trkpt lat="46.80413" lon="0.37513">
        <ele>65</ele>
        <time>2019-02-03T09:49:10.000Z</time>
      </trkpt>
      <trkpt lat="46.80415" lon="0.37519">
        <ele>65</ele>
        <time>2019-02-03T09:49:11.000Z</time>
      </trkpt>
      <trkpt lat="46.80417" lon="0.37525">
        <ele>65</ele>
        <time>2019-02-03T09:49:12.000Z</time>
      </trkpt>
      <trkpt lat="46.80419" lon="0.37532">
        <ele>65</ele>
        <time>2019-02-03T09:49:13.000Z</time>
      </trkpt>
      <trkpt lat="46.80421" lon="0.37538">
        <ele>65</ele>
        <time>2019-02-03T09:49:14.000Z</time>
      </trkpt>
      <trkpt lat="46.80423" lon="0.37545">
        <ele>64</ele>
        <time>2019-02-03T09:49:15.000Z</time>
      </trkpt>
      <trkpt lat="46.80425" lon="0.37552">
        <ele>64</ele>
        <time>2019-02-03T09:49:16.000Z</time>
      </trkpt>
      <trkpt lat="46.80427" lon="0.37559">
        <ele>64</ele>
        <time>2019-02-03T09:49:17.000Z</time>
      </trkpt>
      <trkpt lat="46.80428" lon="0.37566">
        <ele>64</ele>
        <time>2019-02-03T09:49:18.000Z</time>
      </trkpt>
      <trkpt lat="46.80429" lon="0.37573">
        <ele>64</ele>
        <time>2019-02-03T09:49:19.000Z</time>
      </trkpt>
      <trkpt lat="46.8043" lon="0.3758">
        <ele>64</ele>
        <time>2019-02-03T09:49:20.000Z</time>
      </trkpt>
      <trkpt lat="46.80431" lon="0.37587">
        <ele>64</ele>
        <time>2019-02-03T09:49:21.000Z</time>
      </trkpt>
      <trkpt lat="46.80432" lon="0.37594">
        <ele>64</ele>
        <time>2019-02-03T09:49:22.000Z</time>
      </trkpt>
      <trkpt lat="46.80432" lon="0.37601">
        <ele>64</ele>
        <time>2019-02-03T09:49:23.000Z</time>
      </trkpt>
      <trkpt lat="46.80433" lon="0.37609">
        <ele>64</ele>
        <time>2019-02-03T09:49:24.000Z</time>
      </trkpt>
      <trkpt lat="46.80432" lon="0.37616">
        <ele>64</ele>
        <time>2019-02-03T09:49:25.000Z</time>
      </trkpt>
      <trkpt lat="46.80432" lon="0.37623">
        <ele>63</ele>
        <time>2019-02-03T09:49:26.000Z</time>
      </trkpt>
      <trkpt lat="46.80431" lon="0.3763">
        <ele>63</ele>
        <time>2019-02-03T09:49:27.000Z</time>
      </trkpt>
      <trkpt lat="46.8043" lon="0.37636">
        <ele>63</ele>
        <time>2019-02-03T09:49:28.000Z</time>
      </trkpt>
      <trkpt lat="46.80429" lon="0.37642">
        <ele>64</ele>
        <time>2019-02-03T09:49:29.000Z</time>
      </trkpt>
      <trkpt lat="46.80428" lon="0.37648">
        <ele>64</ele>
        <time>2019-02-03T09:49:30.000Z</time>
      </trkpt>
      <trkpt lat="46.80427" lon="0.37654">
        <ele>65</ele>
        <time>2019-02-03T09:49:31.000Z</time>
      </trkpt>
      <trkpt lat="46.80426" lon="0.3766">
        <ele>65</ele>
        <time>2019-02-03T09:49:32.000Z</time>
      </trkpt>
      <trkpt lat="46.80425" lon="0.37666">
        <ele>66</ele>
        <time>2019-02-03T09:49:33.000Z</time>
      </trkpt>
      <trkpt lat="46.80425" lon="0.37672">
        <ele>65</ele>
        <time>2019-02-03T09:49:34.000Z</time>
      </trkpt>
      <trkpt lat="46.80424" lon="0.37678">
        <ele>64</ele>
        <time>2019-02-03T09:49:35.000Z</time>
      </trkpt>
      <trkpt lat="46.80424" lon="0.37684">
        <ele>65</ele>
        <time>2019-02-03T09:49:36.000Z</time>
      </trkpt>
      <trkpt lat="46.80424" lon="0.3769">
        <ele>64</ele>
        <time>2019-02-03T09:49:37.000Z</time>
      </trkpt>
      <trkpt lat="46.80424" lon="0.37696">
        <ele>63</ele>
        <time>2019-02-03T09:49:38.000Z</time>
      </trkpt>
      <trkpt lat="46.80425" lon="0.37701">
        <ele>63</ele>
        <time>2019-02-03T09:49:39.000Z</time>
      </trkpt>
      <trkpt lat="46.80425" lon="0.37706">
        <ele>62</ele>
        <time>2019-02-03T09:49:40.000Z</time>
      </trkpt>
      <trkpt lat="46.80426" lon="0.37711">
        <ele>61</ele>
        <time>2019-02-03T09:49:41.000Z</time>
      </trkpt>
      <trkpt lat="46.80426" lon="0.37715">
        <ele>60</ele>
        <time>2019-02-03T09:49:42.000Z</time>
      </trkpt>
      <trkpt lat="46.80427" lon="0.37719">
        <ele>59</ele>
        <time>2019-02-03T09:49:43.000Z</time>
      </trkpt>
      <trkpt lat="46.80428" lon="0.37723">
        <ele>58</ele>
        <time>2019-02-03T09:49:44.000Z</time>
      </trkpt>
      <trkpt lat="46.80429" lon="0.37728">
        <ele>58</ele>
        <time>2019-02-03T09:49:45.000Z</time>
      </trkpt>
      <trkpt lat="46.8043" lon="0.37732">
        <ele>58</ele>
        <time>2019-02-03T09:49:46.000Z</time>
      </trkpt>
      <trkpt lat="46.80431" lon="0.37736">
        <ele>58</ele>
        <time>2019-02-03T09:49:47.000Z</time>
      </trkpt>
      <trkpt lat="46.80432" lon="0.37741">
        <ele>57</ele>
        <time>2019-02-03T09:49:48.000Z</time>
      </trkpt>
      <trkpt lat="46.80433" lon="0.37746">
        <ele>58</ele>
        <time>2019-02-03T09:49:49.000Z</time>
      </trkpt>
      <trkpt lat="46.80434" lon="0.37752">
        <ele>59</ele>
        <time>2019-02-03T09:49:50.000Z</time>
      </trkpt>
      <trkpt lat="46.80436" lon="0.37757">
        <ele>59</ele>
        <time>2019-02-03T09:49:51.000Z</time>
      </trkpt>
      <trkpt lat="46.80437" lon="0.37763">
        <ele>60</ele>
        <time>2019-02-03T09:49:52.000Z</time>
      </trkpt>
      <trkpt lat="46.80439" lon="0.37768">
        <ele>62</ele>
        <time>2019-02-03T09:49:53.000Z</time>
      </trkpt>
      <trkpt lat="46.8044" lon="0.37774">
        <ele>63</ele>
        <time>2019-02-03T09:49:54.000Z</time>
      </trkpt>
      <trkpt lat="46.80442" lon="0.3778">
        <ele>63</ele>
        <time>2019-02-03T09:49:55.000Z</time>
      </trkpt>
      <trkpt lat="46.80443" lon="0.37786">
        <ele>63</ele>
        <time>2019-02-03T09:49:56.000Z</time>
      </trkpt>
      <trkpt lat="46.80444" lon="0.37792">
        <ele>63</ele>
        <time>2019-02-03T09:49:57.000Z</time>
      </trkpt>
      <trkpt lat="46.80445" lon="0.37797">
        <ele>64</ele>
        <time>2019-02-03T09:49:58.000Z</time>
      </trkpt>
      <trkpt lat="46.80446" lon="0.37803">
        <ele>65</ele>
        <time>2019-02-03T09:49:59.000Z</time>
      </trkpt>
      <trkpt lat="46.80448" lon="0.37809">
        <ele>65</ele>
        <time>2019-02-03T09:50:00.000Z</time>
      </trkpt>
      <trkpt lat="46.80449" lon="0.37815">
        <ele>65</ele>
        <time>2019-02-03T09:50:01.000Z</time>
      </trkpt>
      <trkpt lat="46.80451" lon="0.3782">
        <ele>65</ele>
        <time>2019-02-03T09:50:02.000Z</time>
      </trkpt>
      <trkpt lat="46.80452" lon="0.37826">
        <ele>65</ele>
        <time>2019-02-03T09:50:03.000Z</time>
      </trkpt>
      <trkpt lat="46.80454" lon="0.37831">
        <ele>65</ele>
        <time>2019-02-03T09:50:04.000Z</time>
      </trkpt>
      <trkpt lat="46.80455" lon="0.37836">
        <ele>66</ele>
        <time>2019-02-03T09:50:05.000Z</time>
      </trkpt>
      <trkpt lat="46.80457" lon="0.37842">
        <ele>65</ele>
        <time>2019-02-03T09:50:06.000Z</time>
      </trkpt>
      <trkpt lat="46.80458" lon="0.37847">
        <ele>65</ele>
        <time>2019-02-03T09:50:07.000Z</time>
      </trkpt>
      <trkpt lat="46.8046" lon="0.37852">
        <ele>65</ele>
        <time>2019-02-03T09:50:08.000Z</time>
      </trkpt>
      <trkpt lat="46.80461" lon="0.37857">
        <ele>64</ele>
        <time>2019-02-03T09:50:09.000Z</time>
      </trkpt>
      <trkpt lat="46.80463" lon="0.37863">
        <ele>64</ele>
        <time>2019-02-03T09:50:10.000Z</time>
      </trkpt>
      <trkpt lat="46.80465" lon="0.37868">
        <ele>64</ele>
        <time>2019-02-03T09:50:11.000Z</time>
      </trkpt>
      <trkpt lat="46.80466" lon="0.37873">
        <ele>64</ele>
        <time>2019-02-03T09:50:12.000Z</time>
      </trkpt>
      <trkpt lat="46.80468" lon="0.37878">
        <ele>64</ele>
        <time>2019-02-03T09:50:13.000Z</time>
      </trkpt>
      <trkpt lat="46.80469" lon="0.37883">
        <ele>65</ele>
        <time>2019-02-03T09:50:14.000Z</time>
      </trkpt>
      <trkpt lat="46.8047" lon="0.37888">
        <ele>66</ele>
        <time>2019-02-03T09:50:15.000Z</time>
      </trkpt>
      <trkpt lat="46.80471" lon="0.37894">
        <ele>65</ele>
        <time>2019-02-03T09:50:16.000Z</time>
      </trkpt>
      <trkpt lat="46.80472" lon="0.37899">
        <ele>65</ele>
        <time>2019-02-03T09:50:17.000Z</time>
      </trkpt>
      <trkpt lat="46.80472" lon="0.37904">
        <ele>66</ele>
        <time>2019-02-03T09:50:18.000Z</time>
      </trkpt>
      <trkpt lat="46.80473" lon="0.37909">
        <ele>66</ele>
        <time>2019-02-03T09:50:19.000Z</time>
      </trkpt>
      <trkpt lat="46.80473" lon="0.37915">
        <ele>67</ele>
        <time>2019-02-03T09:50:20.000Z</time>
      </trkpt>
      <trkpt lat="46.80474" lon="0.37921">
        <ele>67</ele>
        <time>2019-02-03T09:50:21.000Z</time>
      </trkpt>
      <trkpt lat="46.80475" lon="0.37926">
        <ele>66</ele>
        <time>2019-02-03T09:50:22.000Z</time>
      </trkpt>
      <trkpt lat="46.80476" lon="0.37932">
        <ele>65</ele>
        <time>2019-02-03T09:50:23.000Z</time>
      </trkpt>
      <trkpt lat="46.80478" lon="0.37937">
        <ele>65</ele>
        <time>2019-02-03T09:50:24.000Z</time>
      </trkpt>
      <trkpt lat="46.80479" lon="0.37942">
        <ele>65</ele>
        <time>2019-02-03T09:50:25.000Z</time>
      </trkpt>
      <trkpt lat="46.8048" lon="0.37947">
        <ele>65</ele>
        <time>2019-02-03T09:50:26.000Z</time>
      </trkpt>
      <trkpt lat="46.80482" lon="0.37953">
        <ele>65</ele>
        <time>2019-02-03T09:50:27.000Z</time>
      </trkpt>
      <trkpt lat="46.80483" lon="0.37959">
        <ele>65</ele>
        <time>2019-02-03T09:50:28.000Z</time>
      </trkpt>
      <trkpt lat="46.80483" lon="0.37965">
        <ele>65</ele>
        <time>2019-02-03T09:50:29.000Z</time>
      </trkpt>
      <trkpt lat="46.80484" lon="0.37971">
        <ele>65</ele>
        <time>2019-02-03T09:50:30.000Z</time>
      </trkpt>
      <trkpt lat="46.80485" lon="0.37977">
        <ele>66</ele>
        <time>2019-02-03T09:50:31.000Z</time>
      </trkpt>
      <trkpt lat="46.80486" lon="0.37983">
        <ele>65</ele>
        <time>2019-02-03T09:50:32.000Z</time>
      </trkpt>
      <trkpt lat="46.80487" lon="0.37989">
        <ele>65</ele>
        <time>2019-02-03T09:50:33.000Z</time>
      </trkpt>
      <trkpt lat="46.80487" lon="0.37994">
        <ele>65</ele>
        <time>2019-02-03T09:50:34.000Z</time>
      </trkpt>
      <trkpt lat="46.80488" lon="0.38">
        <ele>65</ele>
        <time>2019-02-03T09:50:35.000Z</time>
      </trkpt>
      <trkpt lat="46.80488" lon="0.38006">
        <ele>65</ele>
        <time>2019-02-03T09:50:36.000Z</time>
      </trkpt>
      <trkpt lat="46.80488" lon="0.38012">
        <ele>65</ele>
        <time>2019-02-03T09:50:37.000Z</time>
      </trkpt>
      <trkpt lat="46.80489" lon="0.38017">
        <ele>66</ele>
        <time>2019-02-03T09:50:38.000Z</time>
      </trkpt>
      <trkpt lat="46.80489" lon="0.38023">
        <ele>67</ele>
        <time>2019-02-03T09:50:39.000Z</time>
      </trkpt>
      <trkpt lat="46.8049" lon="0.38029">
        <ele>66</ele>
        <time>2019-02-03T09:50:40.000Z</time>
      </trkpt>
      <trkpt lat="46.8049" lon="0.38035">
        <ele>66</ele>
        <time>2019-02-03T09:50:41.000Z</time>
      </trkpt>
      <trkpt lat="46.80491" lon="0.38041">
        <ele>65</ele>
        <time>2019-02-03T09:50:42.000Z</time>
      </trkpt>
      <trkpt lat="46.80492" lon="0.38047">
        <ele>64</ele>
        <time>2019-02-03T09:50:43.000Z</time>
      </trkpt>
      <trkpt lat="46.80492" lon="0.38053">
        <ele>64</ele>
        <time>2019-02-03T09:50:44.000Z</time>
      </trkpt>
      <trkpt lat="46.80493" lon="0.38059">
        <ele>64</ele>
        <time>2019-02-03T09:50:45.000Z</time>
      </trkpt>
      <trkpt lat="46.80495" lon="0.38065">
        <ele>65</ele>
        <time>2019-02-03T09:50:46.000Z</time>
      </trkpt>
      <trkpt lat="46.80497" lon="0.38071">
        <ele>65</ele>
        <time>2019-02-03T09:50:47.000Z</time>
      </trkpt>
      <trkpt lat="46.80498" lon="0.38077">
        <ele>64</ele>
        <time>2019-02-03T09:50:48.000Z</time>
      </trkpt>
      <trkpt lat="46.80499" lon="0.38082">
        <ele>64</ele>
        <time>2019-02-03T09:50:49.000Z</time>
      </trkpt>
      <trkpt lat="46.805" lon="0.38088">
        <ele>63</ele>
        <time>2019-02-03T09:50:50.000Z</time>
      </trkpt>
      <trkpt lat="46.80501" lon="0.38093">
        <ele>63</ele>
        <time>2019-02-03T09:50:51.000Z</time>
      </trkpt>
      <trkpt lat="46.80503" lon="0.38098">
        <ele>63</ele>
        <time>2019-02-03T09:50:52.000Z</time>
      </trkpt>
      <trkpt lat="46.80505" lon="0.38104">
        <ele>64</ele>
        <time>2019-02-03T09:50:53.000Z</time>
      </trkpt>
      <trkpt lat="46.80506" lon="0.38109">
        <ele>64</ele>
        <time>2019-02-03T09:50:54.000Z</time>
      </trkpt>
      <trkpt lat="46.80507" lon="0.38115">
        <ele>64</ele>
        <time>2019-02-03T09:50:55.000Z</time>
      </trkpt>
      <trkpt lat="46.80509" lon="0.38121">
        <ele>63</ele>
        <time>2019-02-03T09:50:56.000Z</time>
      </trkpt>
      <trkpt lat="46.8051" lon="0.38127">
        <ele>63</ele>
        <time>2019-02-03T09:50:57.000Z</time>
      </trkpt>
      <trkpt lat="46.8051" lon="0.38133">
        <ele>64</ele>
        <time>2019-02-03T09:50:58.000Z</time>
      </trkpt>
      <trkpt lat="46.80511" lon="0.38139">
        <ele>65</ele>
        <time>2019-02-03T09:50:59.000Z</time>
      </trkpt>
      <trkpt lat="46.80513" lon="0.38146">
        <ele>65</ele>
        <time>2019-02-03T09:51:00.000Z</time>
      </trkpt>
      <trkpt lat="46.80514" lon="0.38152">
        <ele>66</ele>
        <time>2019-02-03T09:51:01.000Z</time>
      </trkpt>
      <trkpt lat="46.80515" lon="0.38158">
        <ele>65</ele>
        <time>2019-02-03T09:51:02.000Z</time>
      </trkpt>
      <trkpt lat="46.80517" lon="0.38164">
        <ele>63</ele>
        <time>2019-02-03T09:51:03.000Z</time>
      </trkpt>
      <trkpt lat="46.80518" lon="0.3817">
        <ele>66</ele>
        <time>2019-02-03T09:51:04.000Z</time>
      </trkpt>
      <trkpt lat="46.80519" lon="0.38176">
        <ele>66</ele>
        <time>2019-02-03T09:51:05.000Z</time>
      </trkpt>
      <trkpt lat="46.8052" lon="0.38182">
        <ele>67</ele>
        <time>2019-02-03T09:51:06.000Z</time>
      </trkpt>
      <trkpt lat="46.8052" lon="0.38188">
        <ele>67</ele>
        <time>2019-02-03T09:51:07.000Z</time>
      </trkpt>
      <trkpt lat="46.80521" lon="0.38194">
        <ele>67</ele>
        <time>2019-02-03T09:51:08.000Z</time>
      </trkpt>
      <trkpt lat="46.80521" lon="0.382">
        <ele>68</ele>
        <time>2019-02-03T09:51:09.000Z</time>
      </trkpt>
      <trkpt lat="46.80521" lon="0.38205">
        <ele>68</ele>
        <time>2019-02-03T09:51:10.000Z</time>
      </trkpt>
      <trkpt lat="46.80521" lon="0.38211">
        <ele>68</ele>
        <time>2019-02-03T09:51:11.000Z</time>
      </trkpt>
      <trkpt lat="46.80522" lon="0.38216">
        <ele>69</ele>
        <time>2019-02-03T09:51:12.000Z</time>
      </trkpt>
      <trkpt lat="46.80523" lon="0.38222">
        <ele>69</ele>
        <time>2019-02-03T09:51:13.000Z</time>
      </trkpt>
      <trkpt lat="46.80524" lon="0.38227">
        <ele>69</ele>
        <time>2019-02-03T09:51:14.000Z</time>
      </trkpt>
      <trkpt lat="46.80525" lon="0.38232">
        <ele>69</ele>
        <time>2019-02-03T09:51:15.000Z</time>
      </trkpt>
      <trkpt lat="46.80525" lon="0.38237">
        <ele>67</ele>
        <time>2019-02-03T09:51:16.000Z</time>
      </trkpt>
      <trkpt lat="46.80526" lon="0.38242">
        <ele>66</ele>
        <time>2019-02-03T09:51:17.000Z</time>
      </trkpt>
      <trkpt lat="46.80527" lon="0.38247">
        <ele>66</ele>
        <time>2019-02-03T09:51:18.000Z</time>
      </trkpt>
      <trkpt lat="46.80528" lon="0.38252">
        <ele>66</ele>
        <time>2019-02-03T09:51:19.000Z</time>
      </trkpt>
      <trkpt lat="46.80528" lon="0.38257">
        <ele>66</ele>
        <time>2019-02-03T09:51:20.000Z</time>
      </trkpt>
      <trkpt lat="46.80529" lon="0.38263">
        <ele>64</ele>
        <time>2019-02-03T09:51:21.000Z</time>
      </trkpt>
      <trkpt lat="46.8053" lon="0.38268">
        <ele>64</ele>
        <time>2019-02-03T09:51:22.000Z</time>
      </trkpt>
      <trkpt lat="46.80532" lon="0.38273">
        <ele>64</ele>
        <time>2019-02-03T09:51:23.000Z</time>
      </trkpt>
      <trkpt lat="46.80533" lon="0.38279">
        <ele>63</ele>
        <time>2019-02-03T09:51:24.000Z</time>
      </trkpt>
      <trkpt lat="46.80535" lon="0.38285">
        <ele>64</ele>
        <time>2019-02-03T09:51:25.000Z</time>
      </trkpt>
      <trkpt lat="46.80536" lon="0.38291">
        <ele>64</ele>
        <time>2019-02-03T09:51:26.000Z</time>
      </trkpt>
      <trkpt lat="46.80537" lon="0.38297">
        <ele>64</ele>
        <time>2019-02-03T09:51:27.000Z</time>
      </trkpt>
      <trkpt lat="46.80538" lon="0.38303">
        <ele>64</ele>
        <time>2019-02-03T09:51:28.000Z</time>
      </trkpt>
      <trkpt lat="46.8054" lon="0.38308">
        <ele>64</ele>
        <time>2019-02-03T09:51:29.000Z</time>
      </trkpt>
      <trkpt lat="46.80541" lon="0.38314">
        <ele>63</ele>
        <time>2019-02-03T09:51:30.000Z</time>
      </trkpt>
      <trkpt lat="46.80543" lon="0.38319">
        <ele>63</ele>
        <time>2019-02-03T09:51:31.000Z</time>
      </trkpt>
      <trkpt lat="46.80544" lon="0.38324">
        <ele>64</ele>
        <time>2019-02-03T09:51:32.000Z</time>
      </trkpt>
      <trkpt lat="46.80546" lon="0.3833">
        <ele>65</ele>
        <time>2019-02-03T09:51:33.000Z</time>
      </trkpt>
      <trkpt lat="46.80547" lon="0.38335">
        <ele>66</ele>
        <time>2019-02-03T09:51:34.000Z</time>
      </trkpt>
      <trkpt lat="46.80549" lon="0.38341">
        <ele>66</ele>
        <time>2019-02-03T09:51:35.000Z</time>
      </trkpt>
      <trkpt lat="46.80551" lon="0.38345">
        <ele>67</ele>
        <time>2019-02-03T09:51:36.000Z</time>
      </trkpt>
      <trkpt lat="46.80553" lon="0.38349">
        <ele>68</ele>
        <time>2019-02-03T09:51:37.000Z</time>
      </trkpt>
      <trkpt lat="46.80556" lon="0.38354">
        <ele>68</ele>
        <time>2019-02-03T09:51:38.000Z</time>
      </trkpt>
      <trkpt lat="46.80558" lon="0.38358">
        <ele>70</ele>
        <time>2019-02-03T09:51:39.000Z</time>
      </trkpt>
      <trkpt lat="46.80561" lon="0.38363">
        <ele>70</ele>
        <time>2019-02-03T09:51:40.000Z</time>
      </trkpt>
      <trkpt lat="46.80563" lon="0.38367">
        <ele>71</ele>
        <time>2019-02-03T09:51:41.000Z</time>
      </trkpt>
      <trkpt lat="46.80566" lon="0.38371">
        <ele>71</ele>
        <time>2019-02-03T09:51:42.000Z</time>
      </trkpt>
      <trkpt lat="46.80569" lon="0.38376">
        <ele>70</ele>
        <time>2019-02-03T09:51:43.000Z</time>
      </trkpt>
      <trkpt lat="46.80571" lon="0.3838">
        <ele>69</ele>
        <time>2019-02-03T09:51:44.000Z</time>
      </trkpt>
      <trkpt lat="46.80573" lon="0.38385">
        <ele>69</ele>
        <time>2019-02-03T09:51:45.000Z</time>
      </trkpt>
      <trkpt lat="46.80575" lon="0.38389">
        <ele>70</ele>
        <time>2019-02-03T09:51:46.000Z</time>
      </trkpt>
      <trkpt lat="46.80577" lon="0.38394">
        <ele>70</ele>
        <time>2019-02-03T09:51:47.000Z</time>
      </trkpt>
      <trkpt lat="46.80579" lon="0.38399">
        <ele>71</ele>
        <time>2019-02-03T09:51:48.000Z</time>
      </trkpt>
      <trkpt lat="46.80581" lon="0.38404">
        <ele>74</ele>
        <time>2019-02-03T09:51:49.000Z</time>
      </trkpt>
      <trkpt lat="46.80584" lon="0.38409">
        <ele>74</ele>
        <time>2019-02-03T09:51:50.000Z</time>
      </trkpt>
      <trkpt lat="46.80587" lon="0.38414">
        <ele>73</ele>
        <time>2019-02-03T09:51:51.000Z</time>
      </trkpt>
      <trkpt lat="46.80591" lon="0.38419">
        <ele>74</ele>
        <time>2019-02-03T09:51:52.000Z</time>
      </trkpt>
      <trkpt lat="46.80595" lon="0.38423">
        <ele>75</ele>
        <time>2019-02-03T09:51:53.000Z</time>
      </trkpt>
      <trkpt lat="46.80599" lon="0.38427">
        <ele>75</ele>
        <time>2019-02-03T09:51:54.000Z</time>
      </trkpt>
      <trkpt lat="46.80602" lon="0.38432">
        <ele>76</ele>
        <time>2019-02-03T09:51:55.000Z</time>
      </trkpt>
      <trkpt lat="46.80605" lon="0.38436">
        <ele>76</ele>
        <time>2019-02-03T09:51:56.000Z</time>
      </trkpt>
      <trkpt lat="46.80607" lon="0.3844">
        <ele>76</ele>
        <time>2019-02-03T09:51:57.000Z</time>
      </trkpt>
      <trkpt lat="46.8061" lon="0.38444">
        <ele>77</ele>
        <time>2019-02-03T09:51:58.000Z</time>
      </trkpt>
      <trkpt lat="46.80613" lon="0.38448">
        <ele>78</ele>
        <time>2019-02-03T09:51:59.000Z</time>
      </trkpt>
      <trkpt lat="46.80617" lon="0.38453">
        <ele>78</ele>
        <time>2019-02-03T09:52:00.000Z</time>
      </trkpt>
      <trkpt lat="46.8062" lon="0.38457">
        <ele>79</ele>
        <time>2019-02-03T09:52:01.000Z</time>
      </trkpt>
      <trkpt lat="46.80622" lon="0.38461">
        <ele>79</ele>
        <time>2019-02-03T09:52:02.000Z</time>
      </trkpt>
      <trkpt lat="46.80625" lon="0.38465">
        <ele>79</ele>
        <time>2019-02-03T09:52:03.000Z</time>
      </trkpt>
      <trkpt lat="46.80628" lon="0.38469">
        <ele>79</ele>
        <time>2019-02-03T09:52:04.000Z</time>
      </trkpt>
      <trkpt lat="46.8063" lon="0.38474">
        <ele>79</ele>
        <time>2019-02-03T09:52:05.000Z</time>
      </trkpt>
      <trkpt lat="46.80633" lon="0.38478">
        <ele>78</ele>
        <time>2019-02-03T09:52:06.000Z</time>
      </trkpt>
      <trkpt lat="46.80636" lon="0.38482">
        <ele>79</ele>
        <time>2019-02-03T09:52:07.000Z</time>
      </trkpt>
      <trkpt lat="46.80639" lon="0.38487">
        <ele>80</ele>
        <time>2019-02-03T09:52:08.000Z</time>
      </trkpt>
      <trkpt lat="46.80642" lon="0.38491">
        <ele>81</ele>
        <time>2019-02-03T09:52:09.000Z</time>
      </trkpt>
      <trkpt lat="46.80644" lon="0.38495">
        <ele>81</ele>
        <time>2019-02-03T09:52:10.000Z</time>
      </trkpt>
      <trkpt lat="46.80646" lon="0.38499">
        <ele>81</ele>
        <time>2019-02-03T09:52:11.000Z</time>
      </trkpt>
      <trkpt lat="46.80649" lon="0.38504">
        <ele>81</ele>
        <time>2019-02-03T09:52:12.000Z</time>
      </trkpt>
      <trkpt lat="46.80651" lon="0.38508">
        <ele>81</ele>
        <time>2019-02-03T09:52:13.000Z</time>
      </trkpt>
      <trkpt lat="46.80653" lon="0.38512">
        <ele>81</ele>
        <time>2019-02-03T09:52:14.000Z</time>
      </trkpt>
      <trkpt lat="46.80656" lon="0.38516">
        <ele>81</ele>
        <time>2019-02-03T09:52:15.000Z</time>
      </trkpt>
      <trkpt lat="46.80658" lon="0.3852">
        <ele>81</ele>
        <time>2019-02-03T09:52:16.000Z</time>
      </trkpt>
      <trkpt lat="46.8066" lon="0.38524">
        <ele>80</ele>
        <time>2019-02-03T09:52:17.000Z</time>
      </trkpt>
      <trkpt lat="46.80663" lon="0.38529">
        <ele>80</ele>
        <time>2019-02-03T09:52:18.000Z</time>
      </trkpt>
      <trkpt lat="46.80665" lon="0.38533">
        <ele>81</ele>
        <time>2019-02-03T09:52:19.000Z</time>
      </trkpt>
      <trkpt lat="46.80668" lon="0.38537">
        <ele>81</ele>
        <time>2019-02-03T09:52:20.000Z</time>
      </trkpt>
      <trkpt lat="46.80671" lon="0.38541">
        <ele>81</ele>
        <time>2019-02-03T09:52:21.000Z</time>
      </trkpt>
      <trkpt lat="46.80673" lon="0.38545">
        <ele>81</ele>
        <time>2019-02-03T09:52:22.000Z</time>
      </trkpt>
      <trkpt lat="46.80676" lon="0.38549">
        <ele>81</ele>
        <time>2019-02-03T09:52:23.000Z</time>
      </trkpt>
      <trkpt lat="46.80678" lon="0.38554">
        <ele>82</ele>
        <time>2019-02-03T09:52:24.000Z</time>
      </trkpt>
      <trkpt lat="46.80681" lon="0.38558">
        <ele>82</ele>
        <time>2019-02-03T09:52:25.000Z</time>
      </trkpt>
      <trkpt lat="46.80684" lon="0.38562">
        <ele>82</ele>
        <time>2019-02-03T09:52:26.000Z</time>
      </trkpt>
      <trkpt lat="46.80687" lon="0.38566">
        <ele>82</ele>
        <time>2019-02-03T09:52:27.000Z</time>
      </trkpt>
      <trkpt lat="46.80689" lon="0.3857">
        <ele>81</ele>
        <time>2019-02-03T09:52:28.000Z</time>
      </trkpt>
      <trkpt lat="46.80691" lon="0.38574">
        <ele>81</ele>
        <time>2019-02-03T09:52:29.000Z</time>
      </trkpt>
      <trkpt lat="46.80694" lon="0.38578">
        <ele>81</ele>
        <time>2019-02-03T09:52:30.000Z</time>
      </trkpt>
      <trkpt lat="46.80697" lon="0.38582">
        <ele>81</ele>
        <time>2019-02-03T09:52:31.000Z</time>
      </trkpt>
      <trkpt lat="46.807" lon="0.38586">
        <ele>82</ele>
        <time>2019-02-03T09:52:32.000Z</time>
      </trkpt>
      <trkpt lat="46.80703" lon="0.3859">
        <ele>81</ele>
        <time>2019-02-03T09:52:33.000Z</time>
      </trkpt>
      <trkpt lat="46.80705" lon="0.38595">
        <ele>81</ele>
        <time>2019-02-03T09:52:34.000Z</time>
      </trkpt>
      <trkpt lat="46.80708" lon="0.38599">
        <ele>80</ele>
        <time>2019-02-03T09:52:35.000Z</time>
      </trkpt>
      <trkpt lat="46.8071" lon="0.38603">
        <ele>79</ele>
        <time>2019-02-03T09:52:36.000Z</time>
      </trkpt>
      <trkpt lat="46.80713" lon="0.38608">
        <ele>78</ele>
        <time>2019-02-03T09:52:37.000Z</time>
      </trkpt>
      <trkpt lat="46.80716" lon="0.38612">
        <ele>78</ele>
        <time>2019-02-03T09:52:38.000Z</time>
      </trkpt>
      <trkpt lat="46.80719" lon="0.38616">
        <ele>78</ele>
        <time>2019-02-03T09:52:39.000Z</time>
      </trkpt>
      <trkpt lat="46.80722" lon="0.3862">
        <ele>77</ele>
        <time>2019-02-03T09:52:40.000Z</time>
      </trkpt>
      <trkpt lat="46.80725" lon="0.38625">
        <ele>77</ele>
        <time>2019-02-03T09:52:41.000Z</time>
      </trkpt>
      <trkpt lat="46.80727" lon="0.38629">
        <ele>76</ele>
        <time>2019-02-03T09:52:42.000Z</time>
      </trkpt>
      <trkpt lat="46.8073" lon="0.38633">
        <ele>76</ele>
        <time>2019-02-03T09:52:43.000Z</time>
      </trkpt>
      <trkpt lat="46.80732" lon="0.38638">
        <ele>76</ele>
        <time>2019-02-03T09:52:44.000Z</time>
      </trkpt>
      <trkpt lat="46.80734" lon="0.38642">
        <ele>77</ele>
        <time>2019-02-03T09:52:45.000Z</time>
      </trkpt>
      <trkpt lat="46.80736" lon="0.38647">
        <ele>76</ele>
        <time>2019-02-03T09:52:46.000Z</time>
      </trkpt>
      <trkpt lat="46.80739" lon="0.38652">
        <ele>76</ele>
        <time>2019-02-03T09:52:47.000Z</time>
      </trkpt>
      <trkpt lat="46.80741" lon="0.38656">
        <ele>76</ele>
        <time>2019-02-03T09:52:48.000Z</time>
      </trkpt>
      <trkpt lat="46.80743" lon="0.38661">
        <ele>75</ele>
        <time>2019-02-03T09:52:49.000Z</time>
      </trkpt>
      <trkpt lat="46.80745" lon="0.38666">
        <ele>76</ele>
        <time>2019-02-03T09:52:50.000Z</time>
      </trkpt>
      <trkpt lat="46.80748" lon="0.3867">
        <ele>75</ele>
        <time>2019-02-03T09:52:51.000Z</time>
      </trkpt>
      <trkpt lat="46.8075" lon="0.38675">
        <ele>75</ele>
        <time>2019-02-03T09:52:52.000Z</time>
      </trkpt>
      <trkpt lat="46.80752" lon="0.3868">
        <ele>74</ele>
        <time>2019-02-03T09:52:53.000Z</time>
      </trkpt>
      <trkpt lat="46.80754" lon="0.38684">
        <ele>74</ele>
        <time>2019-02-03T09:52:54.000Z</time>
      </trkpt>
      <trkpt lat="46.80756" lon="0.38689">
        <ele>74</ele>
        <time>2019-02-03T09:52:55.000Z</time>
      </trkpt>
      <trkpt lat="46.80758" lon="0.38694">
        <ele>73</ele>
        <time>2019-02-03T09:52:56.000Z</time>
      </trkpt>
      <trkpt lat="46.80759" lon="0.38699">
        <ele>73</ele>
        <time>2019-02-03T09:52:57.000Z</time>
      </trkpt>
      <trkpt lat="46.8076" lon="0.38704">
        <ele>74</ele>
        <time>2019-02-03T09:52:58.000Z</time>
      </trkpt>
      <trkpt lat="46.80762" lon="0.38708">
        <ele>75</ele>
        <time>2019-02-03T09:52:59.000Z</time>
      </trkpt>
      <trkpt lat="46.80763" lon="0.38713">
        <ele>76</ele>
        <time>2019-02-03T09:53:00.000Z</time>
      </trkpt>
      <trkpt lat="46.80765" lon="0.38717">
        <ele>76</ele>
        <time>2019-02-03T09:53:01.000Z</time>
      </trkpt>
      <trkpt lat="46.80767" lon="0.38722">
        <ele>78</ele>
        <time>2019-02-03T09:53:02.000Z</time>
      </trkpt>
      <trkpt lat="46.80768" lon="0.38726">
        <ele>78</ele>
        <time>2019-02-03T09:53:03.000Z</time>
      </trkpt>
      <trkpt lat="46.80769" lon="0.38731">
        <ele>79</ele>
        <time>2019-02-03T09:53:04.000Z</time>
      </trkpt>
      <trkpt lat="46.80769" lon="0.38735">
        <ele>79</ele>
        <time>2019-02-03T09:53:05.000Z</time>
      </trkpt>
      <trkpt lat="46.80768" lon="0.38738">
        <ele>79</ele>
        <time>2019-02-03T09:53:06.000Z</time>
      </trkpt>
      <trkpt lat="46.80766" lon="0.38739">
        <ele>79</ele>
        <time>2019-02-03T09:53:07.000Z</time>
      </trkpt>
      <trkpt lat="46.80764" lon="0.3874">
        <ele>79</ele>
        <time>2019-02-03T09:53:08.000Z</time>
      </trkpt>
      <trkpt lat="46.80762" lon="0.38739">
        <ele>80</ele>
        <time>2019-02-03T09:53:09.000Z</time>
      </trkpt>
      <trkpt lat="46.8076" lon="0.38739">
        <ele>80</ele>
        <time>2019-02-03T09:53:10.000Z</time>
      </trkpt>
      <trkpt lat="46.80758" lon="0.38739">
        <ele>81</ele>
        <time>2019-02-03T09:53:11.000Z</time>
      </trkpt>
      <trkpt lat="46.80756" lon="0.38739">
        <ele>81</ele>
        <time>2019-02-03T09:53:12.000Z</time>
      </trkpt>
      <trkpt lat="46.80754" lon="0.38739">
        <ele>81</ele>
        <time>2019-02-03T09:53:13.000Z</time>
      </trkpt>
      <trkpt lat="46.80751" lon="0.38739">
        <ele>81</ele>
        <time>2019-02-03T09:53:14.000Z</time>
      </trkpt>
      <trkpt lat="46.80749" lon="0.38739">
        <ele>81</ele>
        <time>2019-02-03T09:53:15.000Z</time>
      </trkpt>
      <trkpt lat="46.80746" lon="0.38739">
        <ele>82</ele>
        <time>2019-02-03T09:53:16.000Z</time>
      </trkpt>
      <trkpt lat="46.80743" lon="0.38739">
        <ele>82</ele>
        <time>2019-02-03T09:53:17.000Z</time>
      </trkpt>
      <trkpt lat="46.80741" lon="0.38739">
        <ele>82</ele>
        <time>2019-02-03T09:53:18.000Z</time>
      </trkpt>
      <trkpt lat="46.80738" lon="0.38739">
        <ele>82</ele>
        <time>2019-02-03T09:53:19.000Z</time>
      </trkpt>
      <trkpt lat="46.80735" lon="0.38739">
        <ele>82</ele>
        <time>2019-02-03T09:53:20.000Z</time>
      </trkpt>
      <trkpt lat="46.80733" lon="0.38739">
        <ele>82</ele>
        <time>2019-02-03T09:53:21.000Z</time>
      </trkpt>
      <trkpt lat="46.8073" lon="0.38738">
        <ele>82</ele>
        <time>2019-02-03T09:53:22.000Z</time>
      </trkpt>
      <trkpt lat="46.80728" lon="0.38737">
        <ele>82</ele>
        <time>2019-02-03T09:53:23.000Z</time>
      </trkpt>
      <trkpt lat="46.80725" lon="0.38735">
        <ele>82</ele>
        <time>2019-02-03T09:53:24.000Z</time>
      </trkpt>
      <trkpt lat="46.80723" lon="0.38733">
        <ele>83</ele>
        <time>2019-02-03T09:53:25.000Z</time>
      </trkpt>
      <trkpt lat="46.80721" lon="0.38732">
        <ele>83</ele>
        <time>2019-02-03T09:53:26.000Z</time>
      </trkpt>
      <trkpt lat="46.80719" lon="0.3873">
        <ele>83</ele>
        <time>2019-02-03T09:53:27.000Z</time>
      </trkpt>
      <trkpt lat="46.80717" lon="0.38728">
        <ele>83</ele>
        <time>2019-02-03T09:53:28.000Z</time>
      </trkpt>
      <trkpt lat="46.80715" lon="0.38726">
        <ele>83</ele>
        <time>2019-02-03T09:53:29.000Z</time>
      </trkpt>
      <trkpt lat="46.80713" lon="0.38723">
        <ele>83</ele>
        <time>2019-02-03T09:53:30.000Z</time>
      </trkpt>
      <trkpt lat="46.80711" lon="0.3872">
        <ele>84</ele>
        <time>2019-02-03T09:53:31.000Z</time>
      </trkpt>
      <trkpt lat="46.8071" lon="0.38718">
        <ele>84</ele>
        <time>2019-02-03T09:53:32.000Z</time>
      </trkpt>
      <trkpt lat="46.80708" lon="0.38715">
        <ele>84</ele>
        <time>2019-02-03T09:53:33.000Z</time>
      </trkpt>
      <trkpt lat="46.80706" lon="0.38713">
        <ele>84</ele>
        <time>2019-02-03T09:53:34.000Z</time>
      </trkpt>
      <trkpt lat="46.80704" lon="0.38711">
        <ele>84</ele>
        <time>2019-02-03T09:53:35.000Z</time>
      </trkpt>
      <trkpt lat="46.80702" lon="0.3871">
        <ele>83</ele>
        <time>2019-02-03T09:53:36.000Z</time>
      </trkpt>
      <trkpt lat="46.80699" lon="0.38709">
        <ele>83</ele>
        <time>2019-02-03T09:53:37.000Z</time>
      </trkpt>
      <trkpt lat="46.80697" lon="0.38709">
        <ele>83</ele>
        <time>2019-02-03T09:53:38.000Z</time>
      </trkpt>
      <trkpt lat="46.80694" lon="0.38709">
        <ele>83</ele>
        <time>2019-02-03T09:53:39.000Z</time>
      </trkpt>
      <trkpt lat="46.80692" lon="0.38709">
        <ele>83</ele>
        <time>2019-02-03T09:53:40.000Z</time>
      </trkpt>
      <trkpt lat="46.8069" lon="0.3871">
        <ele>83</ele>
        <time>2019-02-03T09:53:41.000Z</time>
      </trkpt>
      <trkpt lat="46.80687" lon="0.38711">
        <ele>83</ele>
        <time>2019-02-03T09:53:42.000Z</time>
      </trkpt>
      <trkpt lat="46.80685" lon="0.38713">
        <ele>84</ele>
        <time>2019-02-03T09:53:43.000Z</time>
      </trkpt>
      <trkpt lat="46.80683" lon="0.38714">
        <ele>84</ele>
        <time>2019-02-03T09:53:44.000Z</time>
      </trkpt>
      <trkpt lat="46.8068" lon="0.38716">
        <ele>84</ele>
        <time>2019-02-03T09:53:45.000Z</time>
      </trkpt>
      <trkpt lat="46.80678" lon="0.38719">
        <ele>84</ele>
        <time>2019-02-03T09:53:46.000Z</time>
      </trkpt>
      <trkpt lat="46.80676" lon="0.38721">
        <ele>84</ele>
        <time>2019-02-03T09:53:47.000Z</time>
      </trkpt>
      <trkpt lat="46.80674" lon="0.38723">
        <ele>84</ele>
        <time>2019-02-03T09:53:48.000Z</time>
      </trkpt>
      <trkpt lat="46.80671" lon="0.38726">
        <ele>84</ele>
        <time>2019-02-03T09:53:49.000Z</time>
      </trkpt>
      <trkpt lat="46.80669" lon="0.38728">
        <ele>85</ele>
        <time>2019-02-03T09:53:50.000Z</time>
      </trkpt>
      <trkpt lat="46.80668" lon="0.38731">
        <ele>85</ele>
        <time>2019-02-03T09:53:51.000Z</time>
      </trkpt>
      <trkpt lat="46.80666" lon="0.38734">
        <ele>85</ele>
        <time>2019-02-03T09:53:52.000Z</time>
      </trkpt>
      <trkpt lat="46.80665" lon="0.38738">
        <ele>85</ele>
        <time>2019-02-03T09:53:53.000Z</time>
      </trkpt>
      <trkpt lat="46.80664" lon="0.38741">
        <ele>85</ele>
        <time>2019-02-03T09:53:54.000Z</time>
      </trkpt>
      <trkpt lat="46.80663" lon="0.38745">
        <ele>86</ele>
        <time>2019-02-03T09:53:55.000Z</time>
      </trkpt>
      <trkpt lat="46.80662" lon="0.38748">
        <ele>86</ele>
        <time>2019-02-03T09:53:56.000Z</time>
      </trkpt>
      <trkpt lat="46.80662" lon="0.38752">
        <ele>86</ele>
        <time>2019-02-03T09:53:57.000Z</time>
      </trkpt>
      <trkpt lat="46.80662" lon="0.38756">
        <ele>86</ele>
        <time>2019-02-03T09:53:58.000Z</time>
      </trkpt>
      <trkpt lat="46.80661" lon="0.3876">
        <ele>86</ele>
        <time>2019-02-03T09:53:59.000Z</time>
      </trkpt>
      <trkpt lat="46.80661" lon="0.38764">
        <ele>86</ele>
        <time>2019-02-03T09:54:00.000Z</time>
      </trkpt>
      <trkpt lat="46.8066" lon="0.38768">
        <ele>86</ele>
        <time>2019-02-03T09:54:01.000Z</time>
      </trkpt>
      <trkpt lat="46.80659" lon="0.38772">
        <ele>87</ele>
        <time>2019-02-03T09:54:02.000Z</time>
      </trkpt>
      <trkpt lat="46.80659" lon="0.38776">
        <ele>87</ele>
        <time>2019-02-03T09:54:03.000Z</time>
      </trkpt>
      <trkpt lat="46.80659" lon="0.3878">
        <ele>87</ele>
        <time>2019-02-03T09:54:04.000Z</time>
      </trkpt>
      <trkpt lat="46.80659" lon="0.38784">
        <ele>87</ele>
        <time>2019-02-03T09:54:05.000Z</time>
      </trkpt>
      <trkpt lat="46.80659" lon="0.38788">
        <ele>87</ele>
        <time>2019-02-03T09:54:06.000Z</time>
      </trkpt>
      <trkpt lat="46.80659" lon="0.38791">
        <ele>88</ele>
        <time>2019-02-03T09:54:07.000Z</time>
      </trkpt>
      <trkpt lat="46.80659" lon="0.38795">
        <ele>88</ele>
        <time>2019-02-03T09:54:08.000Z</time>
      </trkpt>
      <trkpt lat="46.80659" lon="0.38799">
        <ele>88</ele>
        <time>2019-02-03T09:54:09.000Z</time>
      </trkpt>
      <trkpt lat="46.8066" lon="0.38804">
        <ele>88</ele>
        <time>2019-02-03T09:54:10.000Z</time>
      </trkpt>
      <trkpt lat="46.8066" lon="0.38808">
        <ele>88</ele>
        <time>2019-02-03T09:54:11.000Z</time>
      </trkpt>
      <trkpt lat="46.8066" lon="0.38813">
        <ele>88</ele>
        <time>2019-02-03T09:54:12.000Z</time>
      </trkpt>
      <trkpt lat="46.8066" lon="0.38817">
        <ele>88</ele>
        <time>2019-02-03T09:54:13.000Z</time>
      </trkpt>
      <trkpt lat="46.80661" lon="0.38821">
        <ele>87</ele>
        <time>2019-02-03T09:54:14.000Z</time>
      </trkpt>
      <trkpt lat="46.80662" lon="0.38825">
        <ele>87</ele>
        <time>2019-02-03T09:54:15.000Z</time>
      </trkpt>
      <trkpt lat="46.80663" lon="0.3883">
        <ele>87</ele>
        <time>2019-02-03T09:54:16.000Z</time>
      </trkpt>
      <trkpt lat="46.80665" lon="0.38834">
        <ele>87</ele>
        <time>2019-02-03T09:54:17.000Z</time>
      </trkpt>
      <trkpt lat="46.80666" lon="0.38839">
        <ele>87</ele>
        <time>2019-02-03T09:54:18.000Z</time>
      </trkpt>
      <trkpt lat="46.80668" lon="0.38842">
        <ele>87</ele>
        <time>2019-02-03T09:54:19.000Z</time>
      </trkpt>
      <trkpt lat="46.8067" lon="0.38846">
        <ele>87</ele>
        <time>2019-02-03T09:54:20.000Z</time>
      </trkpt>
      <trkpt lat="46.80672" lon="0.38849">
        <ele>86</ele>
        <time>2019-02-03T09:54:21.000Z</time>
      </trkpt>
      <trkpt lat="46.80674" lon="0.38852">
        <ele>86</ele>
        <time>2019-02-03T09:54:22.000Z</time>
      </trkpt>
      <trkpt lat="46.80677" lon="0.38854">
        <ele>86</ele>
        <time>2019-02-03T09:54:23.000Z</time>
      </trkpt>
      <trkpt lat="46.8068" lon="0.38857">
        <ele>86</ele>
        <time>2019-02-03T09:54:24.000Z</time>
      </trkpt>
      <trkpt lat="46.80683" lon="0.3886">
        <ele>85</ele>
        <time>2019-02-03T09:54:25.000Z</time>
      </trkpt>
      <trkpt lat="46.80685" lon="0.38862">
        <ele>85</ele>
        <time>2019-02-03T09:54:26.000Z</time>
      </trkpt>
      <trkpt lat="46.80688" lon="0.38865">
        <ele>85</ele>
        <time>2019-02-03T09:54:27.000Z</time>
      </trkpt>
      <trkpt lat="46.80691" lon="0.38867">
        <ele>85</ele>
        <time>2019-02-03T09:54:28.000Z</time>
      </trkpt>
      <trkpt lat="46.80693" lon="0.38869">
        <ele>85</ele>
        <time>2019-02-03T09:54:29.000Z</time>
      </trkpt>
      <trkpt lat="46.80696" lon="0.3887">
        <ele>84</ele>
        <time>2019-02-03T09:54:30.000Z</time>
      </trkpt>
      <trkpt lat="46.80699" lon="0.38871">
        <ele>84</ele>
        <time>2019-02-03T09:54:31.000Z</time>
      </trkpt>
      <trkpt lat="46.80702" lon="0.38871">
        <ele>84</ele>
        <time>2019-02-03T09:54:32.000Z</time>
      </trkpt>
      <trkpt lat="46.80704" lon="0.3887">
        <ele>83</ele>
        <time>2019-02-03T09:54:33.000Z</time>
      </trkpt>
      <trkpt lat="46.80707" lon="0.38869">
        <ele>83</ele>
        <time>2019-02-03T09:54:34.000Z</time>
      </trkpt>
      <trkpt lat="46.8071" lon="0.38868">
        <ele>83</ele>
        <time>2019-02-03T09:54:35.000Z</time>
      </trkpt>
      <trkpt lat="46.80712" lon="0.38866">
        <ele>82</ele>
        <time>2019-02-03T09:54:36.000Z</time>
      </trkpt>
      <trkpt lat="46.80714" lon="0.38865">
        <ele>82</ele>
        <time>2019-02-03T09:54:37.000Z</time>
      </trkpt>
      <trkpt lat="46.80716" lon="0.38864">
        <ele>81</ele>
        <time>2019-02-03T09:54:38.000Z</time>
      </trkpt>
      <trkpt lat="46.80718" lon="0.38862">
        <ele>81</ele>
        <time>2019-02-03T09:54:39.000Z</time>
      </trkpt>
      <trkpt lat="46.8072" lon="0.38859">
        <ele>81</ele>
        <time>2019-02-03T09:54:40.000Z</time>
      </trkpt>
      <trkpt lat="46.80721" lon="0.38856">
        <ele>81</ele>
        <time>2019-02-03T09:54:41.000Z</time>
      </trkpt>
      <trkpt lat="46.80723" lon="0.38853">
        <ele>81</ele>
        <time>2019-02-03T09:54:42.000Z</time>
      </trkpt>
      <trkpt lat="46.80725" lon="0.3885">
        <ele>81</ele>
        <time>2019-02-03T09:54:43.000Z</time>
      </trkpt>
      <trkpt lat="46.80727" lon="0.38848">
        <ele>81</ele>
        <time>2019-02-03T09:54:44.000Z</time>
      </trkpt>
      <trkpt lat="46.80728" lon="0.38847">
        <ele>82</ele>
        <time>2019-02-03T09:54:45.000Z</time>
      </trkpt>
      <trkpt lat="46.8073" lon="0.38846">
        <ele>82</ele>
        <time>2019-02-03T09:54:46.000Z</time>
      </trkpt>
      <trkpt lat="46.8073" lon="0.38846">
        <ele>82</ele>
        <time>2019-02-03T09:54:47.000Z</time>
      </trkpt>
      <trkpt lat="46.80731" lon="0.38845">
        <ele>82</ele>
        <time>2019-02-03T09:54:48.000Z</time>
      </trkpt>
      <trkpt lat="46.80731" lon="0.38845">
        <ele>83</ele>
        <time>2019-02-03T09:54:49.000Z</time>
      </trkpt>
      <trkpt lat="46.80731" lon="0.38845">
        <ele>83</ele>
        <time>2019-02-03T09:54:50.000Z</time>
      </trkpt>
      <trkpt lat="46.80732" lon="0.38844">
        <ele>83</ele>
        <time>2019-02-03T09:54:51.000Z</time>
      </trkpt>
      <trkpt lat="46.80732" lon="0.38844">
        <ele>83</ele>
        <time>2019-02-03T09:54:52.000Z</time>
      </trkpt>
      <trkpt lat="46.80732" lon="0.38844">
        <ele>83</ele>
        <time>2019-02-03T09:54:53.000Z</time>
      </trkpt>
      <trkpt lat="46.80732" lon="0.38844">
        <ele>84</ele>
        <time>2019-02-03T09:54:54.000Z</time>
      </trkpt>
      <trkpt lat="46.80732" lon="0.38844">
        <ele>84</ele>
        <time>2019-02-03T09:54:55.000Z</time>
      </trkpt>
      <trkpt lat="46.80732" lon="0.38843">
        <ele>84</ele>
        <time>2019-02-03T09:54:56.000Z</time>
      </trkpt>
      <trkpt lat="46.80732" lon="0.38843">
        <ele>84</ele>
        <time>2019-02-03T09:54:57.000Z</time>
      </trkpt>
      <trkpt lat="46.80732" lon="0.38843">
        <ele>84</ele>
        <time>2019-02-03T09:54:58.000Z</time>
      </trkpt>
      <trkpt lat="46.80732" lon="0.38843">
        <ele>84</ele>
        <time>2019-02-03T09:54:59.000Z</time>
      </trkpt>
      <trkpt lat="46.80732" lon="0.38843">
        <ele>84</ele>
        <time>2019-02-03T09:55:00.000Z</time>
      </trkpt>
      <trkpt lat="46.80732" lon="0.38843">
        <ele>84</ele>
        <time>2019-02-03T09:55:01.000Z</time>
      </trkpt>
      <trkpt lat="46.80732" lon="0.38843">
        <ele>84</ele>
        <time>2019-02-03T09:55:02.000Z</time>
      </trkpt>
      <trkpt lat="46.80732" lon="0.38843">
        <ele>84</ele>
        <time>2019-02-03T09:55:03.000Z</time>
      </trkpt>
      <trkpt lat="46.80732" lon="0.38843">
        <ele>83</ele>
        <time>2019-02-03T09:55:04.000Z</time>
      </trkpt>
      <trkpt lat="46.80732" lon="0.38843">
        <ele>83</ele>
        <time>2019-02-03T09:55:05.000Z</time>
      </trkpt>
      <trkpt lat="46.80732" lon="0.38843">
        <ele>83</ele>
        <time>2019-02-03T09:55:06.000Z</time>
      </trkpt>
      <trkpt lat="46.80732" lon="0.38843">
        <ele>83</ele>
        <time>2019-02-03T09:55:07.000Z</time>
      </trkpt>
      <trkpt lat="46.80732" lon="0.38843">
        <ele>83</ele>
        <time>2019-02-03T09:55:08.000Z</time>
      </trkpt>
      <trkpt lat="46.80733" lon="0.38843">
        <ele>83</ele>
        <time>2019-02-03T09:55:09.000Z</time>
      </trkpt>
      <trkpt lat="46.80733" lon="0.38843">
        <ele>82</ele>
        <time>2019-02-03T09:55:10.000Z</time>
      </trkpt>
      <trkpt lat="46.80733" lon="0.38843">
        <ele>82</ele>
        <time>2019-02-03T09:55:11.000Z</time>
      </trkpt>
      <trkpt lat="46.80733" lon="0.38842">
        <ele>82</ele>
        <time>2019-02-03T09:55:12.000Z</time>
      </trkpt>
      <trkpt lat="46.80733" lon="0.38842">
        <ele>82</ele>
        <time>2019-02-03T09:55:13.000Z</time>
      </trkpt>
      <trkpt lat="46.80733" lon="0.38842">
        <ele>83</ele>
        <time>2019-02-03T09:55:14.000Z</time>
      </trkpt>
      <trkpt lat="46.80733" lon="0.38842">
        <ele>83</ele>
        <time>2019-02-03T09:55:15.000Z</time>
      </trkpt>
      <trkpt lat="46.80733" lon="0.38842">
        <ele>83</ele>
        <time>2019-02-03T09:55:16.000Z</time>
      </trkpt>
      <trkpt lat="46.80732" lon="0.38842">
        <ele>83</ele>
        <time>2019-02-03T09:55:17.000Z</time>
      </trkpt>
      <trkpt lat="46.80732" lon="0.38842">
        <ele>84</ele>
        <time>2019-02-03T09:55:18.000Z</time>
      </trkpt>
      <trkpt lat="46.80732" lon="0.38842">
        <ele>85</ele>
        <time>2019-02-03T09:55:19.000Z</time>
      </trkpt>
      <trkpt lat="46.80731" lon="0.38842">
        <ele>85</ele>
        <time>2019-02-03T09:55:20.000Z</time>
      </trkpt>
      <trkpt lat="46.80731" lon="0.38841">
        <ele>85</ele>
        <time>2019-02-03T09:55:21.000Z</time>
      </trkpt>
      <trkpt lat="46.80731" lon="0.38841">
        <ele>85</ele>
        <time>2019-02-03T09:55:22.000Z</time>
      </trkpt>
      <trkpt lat="46.80731" lon="0.38841">
        <ele>85</ele>
        <time>2019-02-03T09:55:23.000Z</time>
      </trkpt>
      <trkpt lat="46.80731" lon="0.38841">
        <ele>85</ele>
        <time>2019-02-03T09:55:24.000Z</time>
      </trkpt>
      <trkpt lat="46.80731" lon="0.38841">
        <ele>85</ele>
        <time>2019-02-03T09:55:25.000Z</time>
      </trkpt>
      <trkpt lat="46.80731" lon="0.38841">
        <ele>85</ele>
        <time>2019-02-03T09:55:26.000Z</time>
      </trkpt>
      <trkpt lat="46.8073" lon="0.38841">
        <ele>85</ele>
        <time>2019-02-03T09:55:27.000Z</time>
      </trkpt>
      <trkpt lat="46.8073" lon="0.38841">
        <ele>85</ele>
        <time>2019-02-03T09:55:28.000Z</time>
      </trkpt>
      <trkpt lat="46.8073" lon="0.38841">
        <ele>85</ele>
        <time>2019-02-03T09:55:29.000Z</time>
      </trkpt>
      <trkpt lat="46.8073" lon="0.38841">
        <ele>85</ele>
        <time>2019-02-03T09:55:30.000Z</time>
      </trkpt>
      <trkpt lat="46.8073" lon="0.38841">
        <ele>85</ele>
        <time>2019-02-03T09:55:31.000Z</time>
      </trkpt>
      <trkpt lat="46.8073" lon="0.38841">
        <ele>85</ele>
        <time>2019-02-03T09:55:32.000Z</time>
      </trkpt>
      <trkpt lat="46.8073" lon="0.38842">
        <ele>85</ele>
        <time>2019-02-03T09:55:33.000Z</time>
      </trkpt>
      <trkpt lat="46.8073" lon="0.38842">
        <ele>85</ele>
        <time>2019-02-03T09:55:34.000Z</time>
      </trkpt>
      <trkpt lat="46.8073" lon="0.38842">
        <ele>85</ele>
        <time>2019-02-03T09:55:35.000Z</time>
      </trkpt>
      <trkpt lat="46.8073" lon="0.38842">
        <ele>85</ele>
        <time>2019-02-03T09:55:36.000Z</time>
      </trkpt>
      <trkpt lat="46.8073" lon="0.38842">
        <ele>85</ele>
        <time>2019-02-03T09:55:37.000Z</time>
      </trkpt>
      <trkpt lat="46.8073" lon="0.38842">
        <ele>85</ele>
        <time>2019-02-03T09:55:38.000Z</time>
      </trkpt>
      <trkpt lat="46.8073" lon="0.38843">
        <ele>85</ele>
        <time>2019-02-03T09:55:39.000Z</time>
      </trkpt>
      <trkpt lat="46.8073" lon="0.38843">
        <ele>86</ele>
        <time>2019-02-03T09:55:40.000Z</time>
      </trkpt>
      <trkpt lat="46.8073" lon="0.38843">
        <ele>85</ele>
        <time>2019-02-03T09:55:41.000Z</time>
      </trkpt>
      <trkpt lat="46.8073" lon="0.38843">
        <ele>85</ele>
        <time>2019-02-03T09:55:42.000Z</time>
      </trkpt>
      <trkpt lat="46.8073" lon="0.38843">
        <ele>85</ele>
        <time>2019-02-03T09:55:43.000Z</time>
      </trkpt>
      <trkpt lat="46.8073" lon="0.38843">
        <ele>85</ele>
        <time>2019-02-03T09:55:44.000Z</time>
      </trkpt>
      <trkpt lat="46.8073" lon="0.38844">
        <ele>85</ele>
        <time>2019-02-03T09:55:45.000Z</time>
      </trkpt>
      <trkpt lat="46.8073" lon="0.38844">
        <ele>85</ele>
        <time>2019-02-03T09:55:46.000Z</time>
      </trkpt>
      <trkpt lat="46.8073" lon="0.38844">
        <ele>85</ele>
        <time>2019-02-03T09:55:47.000Z</time>
      </trkpt>
      <trkpt lat="46.8073" lon="0.38844">
        <ele>85</ele>
        <time>2019-02-03T09:55:48.000Z</time>
      </trkpt>
      <trkpt lat="46.8073" lon="0.38844">
        <ele>85</ele>
        <time>2019-02-03T09:55:49.000Z</time>
      </trkpt>
      <trkpt lat="46.8073" lon="0.38844">
        <ele>86</ele>
        <time>2019-02-03T09:55:50.000Z</time>
      </trkpt>
      <trkpt lat="46.80729" lon="0.38844">
        <ele>86</ele>
        <time>2019-02-03T09:55:51.000Z</time>
      </trkpt>
      <trkpt lat="46.80729" lon="0.38844">
        <ele>86</ele>
        <time>2019-02-03T09:55:52.000Z</time>
      </trkpt>
      <trkpt lat="46.80729" lon="0.38844">
        <ele>86</ele>
        <time>2019-02-03T09:55:53.000Z</time>
      </trkpt>
      <trkpt lat="46.80729" lon="0.38844">
        <ele>86</ele>
        <time>2019-02-03T09:55:54.000Z</time>
      </trkpt>
      <trkpt lat="46.80729" lon="0.38844">
        <ele>86</ele>
        <time>2019-02-03T09:55:55.000Z</time>
      </trkpt>
      <trkpt lat="46.80729" lon="0.38844">
        <ele>87</ele>
        <time>2019-02-03T09:55:56.000Z</time>
      </trkpt>
      <trkpt lat="46.80729" lon="0.38844">
        <ele>87</ele>
        <time>2019-02-03T09:55:57.000Z</time>
      </trkpt>
      <trkpt lat="46.80729" lon="0.38844">
        <ele>87</ele>
        <time>2019-02-03T09:55:58.000Z</time>
      </trkpt>
      <trkpt lat="46.80728" lon="0.38844">
        <ele>87</ele>
        <time>2019-02-03T09:55:59.000Z</time>
      </trkpt>
      <trkpt lat="46.80728" lon="0.38844">
        <ele>87</ele>
        <time>2019-02-03T09:56:00.000Z</time>
      </trkpt>
      <trkpt lat="46.80728" lon="0.38844">
        <ele>87</ele>
        <time>2019-02-03T09:56:01.000Z</time>
      </trkpt>
      <trkpt lat="46.80728" lon="0.38844">
        <ele>87</ele>
        <time>2019-02-03T09:56:02.000Z</time>
      </trkpt>
      <trkpt lat="46.80728" lon="0.38844">
        <ele>87</ele>
        <time>2019-02-03T09:56:03.000Z</time>
      </trkpt>
      <trkpt lat="46.80728" lon="0.38844">
        <ele>87</ele>
        <time>2019-02-03T09:56:04.000Z</time>
      </trkpt>
      <trkpt lat="46.80728" lon="0.38844">
        <ele>87</ele>
        <time>2019-02-03T09:56:05.000Z</time>
      </trkpt>
      <trkpt lat="46.80728" lon="0.38844">
        <ele>87</ele>
        <time>2019-02-03T09:56:06.000Z</time>
      </trkpt>
      <trkpt lat="46.80728" lon="0.38844">
        <ele>87</ele>
        <time>2019-02-03T09:56:07.000Z</time>
      </trkpt>
      <trkpt lat="46.80728" lon="0.38844">
        <ele>86</ele>
        <time>2019-02-03T09:56:08.000Z</time>
      </trkpt>
      <trkpt lat="46.80728" lon="0.38844">
        <ele>86</ele>
        <time>2019-02-03T09:56:09.000Z</time>
      </trkpt>
      <trkpt lat="46.80729" lon="0.38843">
        <ele>86</ele>
        <time>2019-02-03T09:56:10.000Z</time>
      </trkpt>
      <trkpt lat="46.80729" lon="0.38843">
        <ele>86</ele>
        <time>2019-02-03T09:56:11.000Z</time>
      </trkpt>
      <trkpt lat="46.80729" lon="0.38843">
        <ele>86</ele>
        <time>2019-02-03T09:56:12.000Z</time>
      </trkpt>
      <trkpt lat="46.80729" lon="0.38843">
        <ele>86</ele>
        <time>2019-02-03T09:56:13.000Z</time>
      </trkpt>
      <trkpt lat="46.80729" lon="0.38843">
        <ele>86</ele>
        <time>2019-02-03T09:56:14.000Z</time>
      </trkpt>
      <trkpt lat="46.80729" lon="0.38843">
        <ele>86</ele>
        <time>2019-02-03T09:56:15.000Z</time>
      </trkpt>
      <trkpt lat="46.80729" lon="0.38843">
        <ele>86</ele>
        <time>2019-02-03T09:56:16.000Z</time>
      </trkpt>
      <trkpt lat="46.8073" lon="0.38842">
        <ele>86</ele>
        <time>2019-02-03T09:56:17.000Z</time>
      </trkpt>
      <trkpt lat="46.80731" lon="0.38842">
        <ele>86</ele>
        <time>2019-02-03T09:56:18.000Z</time>
      </trkpt>
      <trkpt lat="46.80732" lon="0.38842">
        <ele>85</ele>
        <time>2019-02-03T09:56:19.000Z</time>
      </trkpt>
      <trkpt lat="46.80734" lon="0.38843">
        <ele>86</ele>
        <time>2019-02-03T09:56:20.000Z</time>
      </trkpt>
      <trkpt lat="46.80735" lon="0.38843">
        <ele>86</ele>
        <time>2019-02-03T09:56:21.000Z</time>
      </trkpt>
      <trkpt lat="46.80737" lon="0.38843">
        <ele>86</ele>
        <time>2019-02-03T09:56:22.000Z</time>
      </trkpt>
      <trkpt lat="46.80739" lon="0.38842">
        <ele>86</ele>
        <time>2019-02-03T09:56:23.000Z</time>
      </trkpt>
      <trkpt lat="46.80741" lon="0.38842">
        <ele>86</ele>
        <time>2019-02-03T09:56:24.000Z</time>
      </trkpt>
      <trkpt lat="46.80744" lon="0.38842">
        <ele>86</ele>
        <time>2019-02-03T09:56:25.000Z</time>
      </trkpt>
      <trkpt lat="46.80746" lon="0.38842">
        <ele>86</ele>
        <time>2019-02-03T09:56:26.000Z</time>
      </trkpt>
      <trkpt lat="46.80749" lon="0.38842">
        <ele>86</ele>
        <time>2019-02-03T09:56:27.000Z</time>
      </trkpt>
      <trkpt lat="46.80752" lon="0.38842">
        <ele>85</ele>
        <time>2019-02-03T09:56:28.000Z</time>
      </trkpt>
      <trkpt lat="46.80754" lon="0.38842">
        <ele>86</ele>
        <time>2019-02-03T09:56:29.000Z</time>
      </trkpt>
      <trkpt lat="46.80757" lon="0.38841">
        <ele>85</ele>
        <time>2019-02-03T09:56:30.000Z</time>
      </trkpt>
      <trkpt lat="46.8076" lon="0.38841">
        <ele>85</ele>
        <time>2019-02-03T09:56:31.000Z</time>
      </trkpt>
      <trkpt lat="46.80763" lon="0.38841">
        <ele>86</ele>
        <time>2019-02-03T09:56:32.000Z</time>
      </trkpt>
      <trkpt lat="46.80766" lon="0.38841">
        <ele>85</ele>
        <time>2019-02-03T09:56:33.000Z</time>
      </trkpt>
      <trkpt lat="46.80769" lon="0.3884">
        <ele>85</ele>
        <time>2019-02-03T09:56:34.000Z</time>
      </trkpt>
      <trkpt lat="46.80772" lon="0.3884">
        <ele>85</ele>
        <time>2019-02-03T09:56:35.000Z</time>
      </trkpt>
      <trkpt lat="46.80775" lon="0.3884">
        <ele>85</ele>
        <time>2019-02-03T09:56:36.000Z</time>
      </trkpt>
      <trkpt lat="46.80777" lon="0.3884">
        <ele>85</ele>
        <time>2019-02-03T09:56:37.000Z</time>
      </trkpt>
      <trkpt lat="46.8078" lon="0.3884">
        <ele>85</ele>
        <time>2019-02-03T09:56:38.000Z</time>
      </trkpt>
      <trkpt lat="46.80783" lon="0.3884">
        <ele>84</ele>
        <time>2019-02-03T09:56:39.000Z</time>
      </trkpt>
      <trkpt lat="46.80786" lon="0.3884">
        <ele>84</ele>
        <time>2019-02-03T09:56:40.000Z</time>
      </trkpt>
      <trkpt lat="46.80789" lon="0.3884">
        <ele>85</ele>
        <time>2019-02-03T09:56:41.000Z</time>
      </trkpt>
      <trkpt lat="46.80791" lon="0.3884">
        <ele>84</ele>
        <time>2019-02-03T09:56:42.000Z</time>
      </trkpt>
      <trkpt lat="46.80794" lon="0.3884">
        <ele>84</ele>
        <time>2019-02-03T09:56:43.000Z</time>
      </trkpt>
      <trkpt lat="46.80797" lon="0.38839">
        <ele>84</ele>
        <time>2019-02-03T09:56:44.000Z</time>
      </trkpt>
      <trkpt lat="46.808" lon="0.38839">
        <ele>84</ele>
        <time>2019-02-03T09:56:45.000Z</time>
      </trkpt>
      <trkpt lat="46.80803" lon="0.38839">
        <ele>84</ele>
        <time>2019-02-03T09:56:46.000Z</time>
      </trkpt>
      <trkpt lat="46.80806" lon="0.38839">
        <ele>84</ele>
        <time>2019-02-03T09:56:47.000Z</time>
      </trkpt>
      <trkpt lat="46.80809" lon="0.38839">
        <ele>84</ele>
        <time>2019-02-03T09:56:48.000Z</time>
      </trkpt>
      <trkpt lat="46.80812" lon="0.38839">
        <ele>85</ele>
        <time>2019-02-03T09:56:49.000Z</time>
      </trkpt>
      <trkpt lat="46.80815" lon="0.38841">
        <ele>85</ele>
        <time>2019-02-03T09:56:50.000Z</time>
      </trkpt>
      <trkpt lat="46.80817" lon="0.38843">
        <ele>85</ele>
        <time>2019-02-03T09:56:51.000Z</time>
      </trkpt>
      <trkpt lat="46.80819" lon="0.38846">
        <ele>85</ele>
        <time>2019-02-03T09:56:52.000Z</time>
      </trkpt>
      <trkpt lat="46.80821" lon="0.3885">
        <ele>84</ele>
        <time>2019-02-03T09:56:53.000Z</time>
      </trkpt>
      <trkpt lat="46.80822" lon="0.38854">
        <ele>84</ele>
        <time>2019-02-03T09:56:54.000Z</time>
      </trkpt>
      <trkpt lat="46.80823" lon="0.38859">
        <ele>84</ele>
        <time>2019-02-03T09:56:55.000Z</time>
      </trkpt>
      <trkpt lat="46.80824" lon="0.38863">
        <ele>84</ele>
        <time>2019-02-03T09:56:56.000Z</time>
      </trkpt>
      <trkpt lat="46.80825" lon="0.38867">
        <ele>84</ele>
        <time>2019-02-03T09:56:57.000Z</time>
      </trkpt>
      <trkpt lat="46.80826" lon="0.38872">
        <ele>84</ele>
        <time>2019-02-03T09:56:58.000Z</time>
      </trkpt>
      <trkpt lat="46.80828" lon="0.38876">
        <ele>84</ele>
        <time>2019-02-03T09:56:59.000Z</time>
      </trkpt>
      <trkpt lat="46.80828" lon="0.38881">
        <ele>83</ele>
        <time>2019-02-03T09:57:00.000Z</time>
      </trkpt>
      <trkpt lat="46.80829" lon="0.38885">
        <ele>82</ele>
        <time>2019-02-03T09:57:01.000Z</time>
      </trkpt>
      <trkpt lat="46.8083" lon="0.3889">
        <ele>82</ele>
        <time>2019-02-03T09:57:02.000Z</time>
      </trkpt>
      <trkpt lat="46.80831" lon="0.38894">
        <ele>81</ele>
        <time>2019-02-03T09:57:03.000Z</time>
      </trkpt>
      <trkpt lat="46.80831" lon="0.38899">
        <ele>81</ele>
        <time>2019-02-03T09:57:04.000Z</time>
      </trkpt>
      <trkpt lat="46.80832" lon="0.38904">
        <ele>81</ele>
        <time>2019-02-03T09:57:05.000Z</time>
      </trkpt>
      <trkpt lat="46.80833" lon="0.38909">
        <ele>81</ele>
        <time>2019-02-03T09:57:06.000Z</time>
      </trkpt>
      <trkpt lat="46.80833" lon="0.38914">
        <ele>81</ele>
        <time>2019-02-03T09:57:07.000Z</time>
      </trkpt>
      <trkpt lat="46.80833" lon="0.3892">
        <ele>81</ele>
        <time>2019-02-03T09:57:08.000Z</time>
      </trkpt>
      <trkpt lat="46.80833" lon="0.38925">
        <ele>80</ele>
        <time>2019-02-03T09:57:09.000Z</time>
      </trkpt>
      <trkpt lat="46.80833" lon="0.3893">
        <ele>80</ele>
        <time>2019-02-03T09:57:10.000Z</time>
      </trkpt>
      <trkpt lat="46.80833" lon="0.38935">
        <ele>80</ele>
        <time>2019-02-03T09:57:11.000Z</time>
      </trkpt>
      <trkpt lat="46.80833" lon="0.3894">
        <ele>80</ele>
        <time>2019-02-03T09:57:12.000Z</time>
      </trkpt>
      <trkpt lat="46.80833" lon="0.38945">
        <ele>80</ele>
        <time>2019-02-03T09:57:13.000Z</time>
      </trkpt>
      <trkpt lat="46.80833" lon="0.3895">
        <ele>80</ele>
        <time>2019-02-03T09:57:14.000Z</time>
      </trkpt>
      <trkpt lat="46.80833" lon="0.38956">
        <ele>80</ele>
        <time>2019-02-03T09:57:15.000Z</time>
      </trkpt>
      <trkpt lat="46.80833" lon="0.38961">
        <ele>80</ele>
        <time>2019-02-03T09:57:16.000Z</time>
      </trkpt>
      <trkpt lat="46.80833" lon="0.38966">
        <ele>80</ele>
        <time>2019-02-03T09:57:17.000Z</time>
      </trkpt>
      <trkpt lat="46.80834" lon="0.38972">
        <ele>80</ele>
        <time>2019-02-03T09:57:18.000Z</time>
      </trkpt>
      <trkpt lat="46.80834" lon="0.38977">
        <ele>81</ele>
        <time>2019-02-03T09:57:19.000Z</time>
      </trkpt>
      <trkpt lat="46.80834" lon="0.38983">
        <ele>81</ele>
        <time>2019-02-03T09:57:20.000Z</time>
      </trkpt>
      <trkpt lat="46.80835" lon="0.38988">
        <ele>81</ele>
        <time>2019-02-03T09:57:21.000Z</time>
      </trkpt>
      <trkpt lat="46.80835" lon="0.38993">
        <ele>81</ele>
        <time>2019-02-03T09:57:22.000Z</time>
      </trkpt>
      <trkpt lat="46.80835" lon="0.38999">
        <ele>81</ele>
        <time>2019-02-03T09:57:23.000Z</time>
      </trkpt>
      <trkpt lat="46.80836" lon="0.39004">
        <ele>81</ele>
        <time>2019-02-03T09:57:24.000Z</time>
      </trkpt>
      <trkpt lat="46.80836" lon="0.3901">
        <ele>81</ele>
        <time>2019-02-03T09:57:25.000Z</time>
      </trkpt>
      <trkpt lat="46.80836" lon="0.39015">
        <ele>81</ele>
        <time>2019-02-03T09:57:26.000Z</time>
      </trkpt>
      <trkpt lat="46.80836" lon="0.39021">
        <ele>81</ele>
        <time>2019-02-03T09:57:27.000Z</time>
      </trkpt>
      <trkpt lat="46.80837" lon="0.39026">
        <ele>81</ele>
        <time>2019-02-03T09:57:28.000Z</time>
      </trkpt>
      <trkpt lat="46.80838" lon="0.39031">
        <ele>82</ele>
        <time>2019-02-03T09:57:29.000Z</time>
      </trkpt>
      <trkpt lat="46.80838" lon="0.39036">
        <ele>82</ele>
        <time>2019-02-03T09:57:30.000Z</time>
      </trkpt>
      <trkpt lat="46.80839" lon="0.39042">
        <ele>81</ele>
        <time>2019-02-03T09:57:31.000Z</time>
      </trkpt>
      <trkpt lat="46.80839" lon="0.39047">
        <ele>81</ele>
        <time>2019-02-03T09:57:32.000Z</time>
      </trkpt>
      <trkpt lat="46.80839" lon="0.39052">
        <ele>81</ele>
        <time>2019-02-03T09:57:33.000Z</time>
      </trkpt>
      <trkpt lat="46.8084" lon="0.39057">
        <ele>81</ele>
        <time>2019-02-03T09:57:34.000Z</time>
      </trkpt>
      <trkpt lat="46.8084" lon="0.39062">
        <ele>81</ele>
        <time>2019-02-03T09:57:35.000Z</time>
      </trkpt>
      <trkpt lat="46.80841" lon="0.39067">
        <ele>81</ele>
        <time>2019-02-03T09:57:36.000Z</time>
      </trkpt>
      <trkpt lat="46.80841" lon="0.39073">
        <ele>81</ele>
        <time>2019-02-03T09:57:37.000Z</time>
      </trkpt>
      <trkpt lat="46.80842" lon="0.39077">
        <ele>80</ele>
        <time>2019-02-03T09:57:38.000Z</time>
      </trkpt>
      <trkpt lat="46.80842" lon="0.39082">
        <ele>80</ele>
        <time>2019-02-03T09:57:39.000Z</time>
      </trkpt>
      <trkpt lat="46.80843" lon="0.39087">
        <ele>81</ele>
        <time>2019-02-03T09:57:40.000Z</time>
      </trkpt>
      <trkpt lat="46.80843" lon="0.39091">
        <ele>80</ele>
        <time>2019-02-03T09:57:41.000Z</time>
      </trkpt>
      <trkpt lat="46.80844" lon="0.39095">
        <ele>81</ele>
        <time>2019-02-03T09:57:42.000Z</time>
      </trkpt>
      <trkpt lat="46.80845" lon="0.39099">
        <ele>80</ele>
        <time>2019-02-03T09:57:43.000Z</time>
      </trkpt>
      <trkpt lat="46.80847" lon="0.39102">
        <ele>81</ele>
        <time>2019-02-03T09:57:44.000Z</time>
      </trkpt>
      <trkpt lat="46.80848" lon="0.39107">
        <ele>82</ele>
        <time>2019-02-03T09:57:45.000Z</time>
      </trkpt>
      <trkpt lat="46.80848" lon="0.39112">
        <ele>82</ele>
        <time>2019-02-03T09:57:46.000Z</time>
      </trkpt>
      <trkpt lat="46.80849" lon="0.39117">
        <ele>82</ele>
        <time>2019-02-03T09:57:47.000Z</time>
      </trkpt>
      <trkpt lat="46.8085" lon="0.39123">
        <ele>82</ele>
        <time>2019-02-03T09:57:48.000Z</time>
      </trkpt>
      <trkpt lat="46.80851" lon="0.39127">
        <ele>82</ele>
        <time>2019-02-03T09:57:49.000Z</time>
      </trkpt>
      <trkpt lat="46.80852" lon="0.39132">
        <ele>82</ele>
        <time>2019-02-03T09:57:50.000Z</time>
      </trkpt>
      <trkpt lat="46.80853" lon="0.39137">
        <ele>82</ele>
        <time>2019-02-03T09:57:51.000Z</time>
      </trkpt>
      <trkpt lat="46.80854" lon="0.39143">
        <ele>82</ele>
        <time>2019-02-03T09:57:52.000Z</time>
      </trkpt>
      <trkpt lat="46.80855" lon="0.39148">
        <ele>83</ele>
        <time>2019-02-03T09:57:53.000Z</time>
      </trkpt>
      <trkpt lat="46.80855" lon="0.39154">
        <ele>83</ele>
        <time>2019-02-03T09:57:54.000Z</time>
      </trkpt>
      <trkpt lat="46.80856" lon="0.39159">
        <ele>83</ele>
        <time>2019-02-03T09:57:55.000Z</time>
      </trkpt>
      <trkpt lat="46.80857" lon="0.39165">
        <ele>83</ele>
        <time>2019-02-03T09:57:56.000Z</time>
      </trkpt>
      <trkpt lat="46.80857" lon="0.39171">
        <ele>83</ele>
        <time>2019-02-03T09:57:57.000Z</time>
      </trkpt>
      <trkpt lat="46.80858" lon="0.39177">
        <ele>83</ele>
        <time>2019-02-03T09:57:58.000Z</time>
      </trkpt>
      <trkpt lat="46.80859" lon="0.39183">
        <ele>82</ele>
        <time>2019-02-03T09:57:59.000Z</time>
      </trkpt>
      <trkpt lat="46.8086" lon="0.39189">
        <ele>83</ele>
        <time>2019-02-03T09:58:00.000Z</time>
      </trkpt>
      <trkpt lat="46.80861" lon="0.39195">
        <ele>83</ele>
        <time>2019-02-03T09:58:01.000Z</time>
      </trkpt>
      <trkpt lat="46.80862" lon="0.39201">
        <ele>83</ele>
        <time>2019-02-03T09:58:02.000Z</time>
      </trkpt>
      <trkpt lat="46.80863" lon="0.39207">
        <ele>83</ele>
        <time>2019-02-03T09:58:03.000Z</time>
      </trkpt>
      <trkpt lat="46.80864" lon="0.39213">
        <ele>82</ele>
        <time>2019-02-03T09:58:04.000Z</time>
      </trkpt>
      <trkpt lat="46.80865" lon="0.39219">
        <ele>82</ele>
        <time>2019-02-03T09:58:05.000Z</time>
      </trkpt>
      <trkpt lat="46.80866" lon="0.39225">
        <ele>82</ele>
        <time>2019-02-03T09:58:06.000Z</time>
      </trkpt>
      <trkpt lat="46.80867" lon="0.39231">
        <ele>82</ele>
        <time>2019-02-03T09:58:07.000Z</time>
      </trkpt>
      <trkpt lat="46.80868" lon="0.39237">
        <ele>83</ele>
        <time>2019-02-03T09:58:08.000Z</time>
      </trkpt>
      <trkpt lat="46.80869" lon="0.39243">
        <ele>83</ele>
        <time>2019-02-03T09:58:09.000Z</time>
      </trkpt>
      <trkpt lat="46.8087" lon="0.39249">
        <ele>83</ele>
        <time>2019-02-03T09:58:10.000Z</time>
      </trkpt>
      <trkpt lat="46.8087" lon="0.39255">
        <ele>83</ele>
        <time>2019-02-03T09:58:11.000Z</time>
      </trkpt>
      <trkpt lat="46.80871" lon="0.39261">
        <ele>83</ele>
        <time>2019-02-03T09:58:12.000Z</time>
      </trkpt>
      <trkpt lat="46.80872" lon="0.39267">
        <ele>83</ele>
        <time>2019-02-03T09:58:13.000Z</time>
      </trkpt>
      <trkpt lat="46.80873" lon="0.39273">
        <ele>82</ele>
        <time>2019-02-03T09:58:14.000Z</time>
      </trkpt>
      <trkpt lat="46.80873" lon="0.39279">
        <ele>82</ele>
        <time>2019-02-03T09:58:15.000Z</time>
      </trkpt>
      <trkpt lat="46.80874" lon="0.39285">
        <ele>82</ele>
        <time>2019-02-03T09:58:16.000Z</time>
      </trkpt>
      <trkpt lat="46.80874" lon="0.3929">
        <ele>81</ele>
        <time>2019-02-03T09:58:17.000Z</time>
      </trkpt>
      <trkpt lat="46.80874" lon="0.39295">
        <ele>81</ele>
        <time>2019-02-03T09:58:18.000Z</time>
      </trkpt>
      <trkpt lat="46.80875" lon="0.393">
        <ele>81</ele>
        <time>2019-02-03T09:58:19.000Z</time>
      </trkpt>
      <trkpt lat="46.80876" lon="0.39305">
        <ele>80</ele>
        <time>2019-02-03T09:58:20.000Z</time>
      </trkpt>
      <trkpt lat="46.80877" lon="0.39311">
        <ele>81</ele>
        <time>2019-02-03T09:58:21.000Z</time>
      </trkpt>
      <trkpt lat="46.80878" lon="0.39317">
        <ele>81</ele>
        <time>2019-02-03T09:58:22.000Z</time>
      </trkpt>
      <trkpt lat="46.80879" lon="0.39323">
        <ele>80</ele>
        <time>2019-02-03T09:58:23.000Z</time>
      </trkpt>
      <trkpt lat="46.8088" lon="0.39329">
        <ele>80</ele>
        <time>2019-02-03T09:58:24.000Z</time>
      </trkpt>
      <trkpt lat="46.8088" lon="0.39335">
        <ele>80</ele>
        <time>2019-02-03T09:58:25.000Z</time>
      </trkpt>
      <trkpt lat="46.80882" lon="0.39341">
        <ele>81</ele>
        <time>2019-02-03T09:58:26.000Z</time>
      </trkpt>
      <trkpt lat="46.80883" lon="0.39347">
        <ele>81</ele>
        <time>2019-02-03T09:58:27.000Z</time>
      </trkpt>
      <trkpt lat="46.80884" lon="0.39353">
        <ele>81</ele>
        <time>2019-02-03T09:58:28.000Z</time>
      </trkpt>
      <trkpt lat="46.80886" lon="0.39359">
        <ele>81</ele>
        <time>2019-02-03T09:58:29.000Z</time>
      </trkpt>
      <trkpt lat="46.80887" lon="0.39365">
        <ele>81</ele>
        <time>2019-02-03T09:58:30.000Z</time>
      </trkpt>
      <trkpt lat="46.80889" lon="0.39371">
        <ele>81</ele>
        <time>2019-02-03T09:58:31.000Z</time>
      </trkpt>
      <trkpt lat="46.8089" lon="0.39377">
        <ele>81</ele>
        <time>2019-02-03T09:58:32.000Z</time>
      </trkpt>
      <trkpt lat="46.80892" lon="0.39383">
        <ele>81</ele>
        <time>2019-02-03T09:58:33.000Z</time>
      </trkpt>
      <trkpt lat="46.80893" lon="0.39389">
        <ele>81</ele>
        <time>2019-02-03T09:58:34.000Z</time>
      </trkpt>
      <trkpt lat="46.80894" lon="0.39395">
        <ele>81</ele>
        <time>2019-02-03T09:58:35.000Z</time>
      </trkpt>
      <trkpt lat="46.80896" lon="0.39401">
        <ele>81</ele>
        <time>2019-02-03T09:58:36.000Z</time>
      </trkpt>
      <trkpt lat="46.80897" lon="0.39407">
        <ele>81</ele>
        <time>2019-02-03T09:58:37.000Z</time>
      </trkpt>
      <trkpt lat="46.80899" lon="0.39413">
        <ele>81</ele>
        <time>2019-02-03T09:58:38.000Z</time>
      </trkpt>
      <trkpt lat="46.809" lon="0.39418">
        <ele>81</ele>
        <time>2019-02-03T09:58:39.000Z</time>
      </trkpt>
      <trkpt lat="46.80901" lon="0.39424">
        <ele>82</ele>
        <time>2019-02-03T09:58:40.000Z</time>
      </trkpt>
      <trkpt lat="46.80902" lon="0.3943">
        <ele>82</ele>
        <time>2019-02-03T09:58:41.000Z</time>
      </trkpt>
      <trkpt lat="46.80903" lon="0.39435">
        <ele>82</ele>
        <time>2019-02-03T09:58:42.000Z</time>
      </trkpt>
      <trkpt lat="46.80904" lon="0.39441">
        <ele>82</ele>
        <time>2019-02-03T09:58:43.000Z</time>
      </trkpt>
      <trkpt lat="46.80905" lon="0.39447">
        <ele>82</ele>
        <time>2019-02-03T09:58:44.000Z</time>
      </trkpt>
      <trkpt lat="46.80905" lon="0.39453">
        <ele>82</ele>
        <time>2019-02-03T09:58:45.000Z</time>
      </trkpt>
      <trkpt lat="46.80905" lon="0.39459">
        <ele>82</ele>
        <time>2019-02-03T09:58:46.000Z</time>
      </trkpt>
      <trkpt lat="46.80905" lon="0.39464">
        <ele>81</ele>
        <time>2019-02-03T09:58:47.000Z</time>
      </trkpt>
      <trkpt lat="46.80905" lon="0.3947">
        <ele>81</ele>
        <time>2019-02-03T09:58:48.000Z</time>
      </trkpt>
      <trkpt lat="46.80904" lon="0.39476">
        <ele>82</ele>
        <time>2019-02-03T09:58:49.000Z</time>
      </trkpt>
      <trkpt lat="46.80903" lon="0.39481">
        <ele>82</ele>
        <time>2019-02-03T09:58:50.000Z</time>
      </trkpt>
      <trkpt lat="46.80902" lon="0.39486">
        <ele>81</ele>
        <time>2019-02-03T09:58:51.000Z</time>
      </trkpt>
      <trkpt lat="46.80901" lon="0.39491">
        <ele>81</ele>
        <time>2019-02-03T09:58:52.000Z</time>
      </trkpt>
      <trkpt lat="46.80899" lon="0.39496">
        <ele>80</ele>
        <time>2019-02-03T09:58:53.000Z</time>
      </trkpt>
      <trkpt lat="46.80898" lon="0.39502">
        <ele>79</ele>
        <time>2019-02-03T09:58:54.000Z</time>
      </trkpt>
      <trkpt lat="46.80897" lon="0.39507">
        <ele>79</ele>
        <time>2019-02-03T09:58:55.000Z</time>
      </trkpt>
      <trkpt lat="46.80896" lon="0.39511">
        <ele>79</ele>
        <time>2019-02-03T09:58:56.000Z</time>
      </trkpt>
      <trkpt lat="46.80895" lon="0.39516">
        <ele>80</ele>
        <time>2019-02-03T09:58:57.000Z</time>
      </trkpt>
      <trkpt lat="46.80895" lon="0.3952">
        <ele>80</ele>
        <time>2019-02-03T09:58:58.000Z</time>
      </trkpt>
      <trkpt lat="46.80894" lon="0.39524">
        <ele>80</ele>
        <time>2019-02-03T09:58:59.000Z</time>
      </trkpt>
      <trkpt lat="46.80893" lon="0.39529">
        <ele>80</ele>
        <time>2019-02-03T09:59:00.000Z</time>
      </trkpt>
      <trkpt lat="46.80893" lon="0.39532">
        <ele>80</ele>
        <time>2019-02-03T09:59:01.000Z</time>
      </trkpt>
      <trkpt lat="46.80892" lon="0.39536">
        <ele>80</ele>
        <time>2019-02-03T09:59:02.000Z</time>
      </trkpt>
      <trkpt lat="46.80891" lon="0.39539">
        <ele>81</ele>
        <time>2019-02-03T09:59:03.000Z</time>
      </trkpt>
      <trkpt lat="46.80891" lon="0.39541">
        <ele>80</ele>
        <time>2019-02-03T09:59:04.000Z</time>
      </trkpt>
      <trkpt lat="46.8089" lon="0.39544">
        <ele>80</ele>
        <time>2019-02-03T09:59:05.000Z</time>
      </trkpt>
      <trkpt lat="46.80889" lon="0.39546">
        <ele>80</ele>
        <time>2019-02-03T09:59:06.000Z</time>
      </trkpt>
      <trkpt lat="46.80889" lon="0.39548">
        <ele>80</ele>
        <time>2019-02-03T09:59:07.000Z</time>
      </trkpt>
      <trkpt lat="46.80888" lon="0.3955">
        <ele>80</ele>
        <time>2019-02-03T09:59:08.000Z</time>
      </trkpt>
      <trkpt lat="46.80888" lon="0.39552">
        <ele>80</ele>
        <time>2019-02-03T09:59:09.000Z</time>
      </trkpt>
      <trkpt lat="46.80888" lon="0.39554">
        <ele>81</ele>
        <time>2019-02-03T09:59:10.000Z</time>
      </trkpt>
      <trkpt lat="46.80888" lon="0.39557">
        <ele>81</ele>
        <time>2019-02-03T09:59:11.000Z</time>
      </trkpt>
      <trkpt lat="46.80889" lon="0.3956">
        <ele>81</ele>
        <time>2019-02-03T09:59:12.000Z</time>
      </trkpt>
      <trkpt lat="46.80888" lon="0.39564">
        <ele>80</ele>
        <time>2019-02-03T09:59:13.000Z</time>
      </trkpt>
      <trkpt lat="46.80888" lon="0.39568">
        <ele>80</ele>
        <time>2019-02-03T09:59:14.000Z</time>
      </trkpt>
      <trkpt lat="46.80887" lon="0.39573">
        <ele>80</ele>
        <time>2019-02-03T09:59:15.000Z</time>
      </trkpt>
      <trkpt lat="46.80886" lon="0.39577">
        <ele>81</ele>
        <time>2019-02-03T09:59:16.000Z</time>
      </trkpt>
      <trkpt lat="46.80885" lon="0.39581">
        <ele>80</ele>
        <time>2019-02-03T09:59:17.000Z</time>
      </trkpt>
      <trkpt lat="46.80883" lon="0.39585">
        <ele>81</ele>
        <time>2019-02-03T09:59:18.000Z</time>
      </trkpt>
      <trkpt lat="46.80882" lon="0.39588">
        <ele>81</ele>
        <time>2019-02-03T09:59:19.000Z</time>
      </trkpt>
      <trkpt lat="46.8088" lon="0.39591">
        <ele>80</ele>
        <time>2019-02-03T09:59:20.000Z</time>
      </trkpt>
      <trkpt lat="46.80879" lon="0.39593">
        <ele>80</ele>
        <time>2019-02-03T09:59:21.000Z</time>
      </trkpt>
      <trkpt lat="46.80878" lon="0.39595">
        <ele>80</ele>
        <time>2019-02-03T09:59:22.000Z</time>
      </trkpt>
      <trkpt lat="46.80876" lon="0.39596">
        <ele>81</ele>
        <time>2019-02-03T09:59:23.000Z</time>
      </trkpt>
      <trkpt lat="46.80874" lon="0.39597">
        <ele>82</ele>
        <time>2019-02-03T09:59:24.000Z</time>
      </trkpt>
      <trkpt lat="46.80872" lon="0.39596">
        <ele>81</ele>
        <time>2019-02-03T09:59:25.000Z</time>
      </trkpt>
      <trkpt lat="46.8087" lon="0.39594">
        <ele>81</ele>
        <time>2019-02-03T09:59:26.000Z</time>
      </trkpt>
      <trkpt lat="46.80868" lon="0.39592">
        <ele>82</ele>
        <time>2019-02-03T09:59:27.000Z</time>
      </trkpt>
      <trkpt lat="46.80866" lon="0.3959">
        <ele>82</ele>
        <time>2019-02-03T09:59:28.000Z</time>
      </trkpt>
      <trkpt lat="46.80863" lon="0.39587">
        <ele>82</ele>
        <time>2019-02-03T09:59:29.000Z</time>
      </trkpt>
      <trkpt lat="46.80861" lon="0.39585">
        <ele>82</ele>
        <time>2019-02-03T09:59:30.000Z</time>
      </trkpt>
      <trkpt lat="46.80859" lon="0.39582">
        <ele>82</ele>
        <time>2019-02-03T09:59:31.000Z</time>
      </trkpt>
      <trkpt lat="46.80856" lon="0.39579">
        <ele>82</ele>
        <time>2019-02-03T09:59:32.000Z</time>
      </trkpt>
      <trkpt lat="46.80853" lon="0.39577">
        <ele>82</ele>
        <time>2019-02-03T09:59:33.000Z</time>
      </trkpt>
      <trkpt lat="46.80851" lon="0.39574">
        <ele>82</ele>
        <time>2019-02-03T09:59:34.000Z</time>
      </trkpt>
      <trkpt lat="46.80848" lon="0.39571">
        <ele>82</ele>
        <time>2019-02-03T09:59:35.000Z</time>
      </trkpt>
      <trkpt lat="46.80845" lon="0.39568">
        <ele>82</ele>
        <time>2019-02-03T09:59:36.000Z</time>
      </trkpt>
      <trkpt lat="46.80843" lon="0.39566">
        <ele>82</ele>
        <time>2019-02-03T09:59:37.000Z</time>
      </trkpt>
      <trkpt lat="46.8084" lon="0.39563">
        <ele>82</ele>
        <time>2019-02-03T09:59:38.000Z</time>
      </trkpt>
      <trkpt lat="46.80837" lon="0.3956">
        <ele>82</ele>
        <time>2019-02-03T09:59:39.000Z</time>
      </trkpt>
      <trkpt lat="46.80835" lon="0.39557">
        <ele>82</ele>
        <time>2019-02-03T09:59:40.000Z</time>
      </trkpt>
      <trkpt lat="46.80832" lon="0.39554">
        <ele>82</ele>
        <time>2019-02-03T09:59:41.000Z</time>
      </trkpt>
      <trkpt lat="46.80828" lon="0.39551">
        <ele>82</ele>
        <time>2019-02-03T09:59:42.000Z</time>
      </trkpt>
      <trkpt lat="46.80825" lon="0.39548">
        <ele>82</ele>
        <time>2019-02-03T09:59:43.000Z</time>
      </trkpt>
      <trkpt lat="46.80822" lon="0.39545">
        <ele>82</ele>
        <time>2019-02-03T09:59:44.000Z</time>
      </trkpt>
      <trkpt lat="46.80819" lon="0.39541">
        <ele>82</ele>
        <time>2019-02-03T09:59:45.000Z</time>
      </trkpt>
      <trkpt lat="46.80816" lon="0.39538">
        <ele>82</ele>
        <time>2019-02-03T09:59:46.000Z</time>
      </trkpt>
      <trkpt lat="46.80814" lon="0.39535">
        <ele>82</ele>
        <time>2019-02-03T09:59:47.000Z</time>
      </trkpt>
      <trkpt lat="46.80811" lon="0.39532">
        <ele>83</ele>
        <time>2019-02-03T09:59:48.000Z</time>
      </trkpt>
      <trkpt lat="46.80808" lon="0.39529">
        <ele>82</ele>
        <time>2019-02-03T09:59:49.000Z</time>
      </trkpt>
      <trkpt lat="46.80805" lon="0.39525">
        <ele>82</ele>
        <time>2019-02-03T09:59:50.000Z</time>
      </trkpt>
      <trkpt lat="46.80802" lon="0.39522">
        <ele>82</ele>
        <time>2019-02-03T09:59:51.000Z</time>
      </trkpt>
      <trkpt lat="46.80799" lon="0.3952">
        <ele>82</ele>
        <time>2019-02-03T09:59:52.000Z</time>
      </trkpt>
      <trkpt lat="46.80795" lon="0.3952">
        <ele>81</ele>
        <time>2019-02-03T09:59:53.000Z</time>
      </trkpt>
      <trkpt lat="46.80792" lon="0.39522">
        <ele>81</ele>
        <time>2019-02-03T09:59:54.000Z</time>
      </trkpt>
      <trkpt lat="46.8079" lon="0.39525">
        <ele>81</ele>
        <time>2019-02-03T09:59:55.000Z</time>
      </trkpt>
      <trkpt lat="46.80787" lon="0.39529">
        <ele>81</ele>
        <time>2019-02-03T09:59:56.000Z</time>
      </trkpt>
      <trkpt lat="46.80785" lon="0.39533">
        <ele>81</ele>
        <time>2019-02-03T09:59:57.000Z</time>
      </trkpt>
      <trkpt lat="46.80783" lon="0.39537">
        <ele>81</ele>
        <time>2019-02-03T09:59:58.000Z</time>
      </trkpt>
      <trkpt lat="46.8078" lon="0.39542">
        <ele>81</ele>
        <time>2019-02-03T09:59:59.000Z</time>
      </trkpt>
      <trkpt lat="46.80778" lon="0.39546">
        <ele>81</ele>
        <time>2019-02-03T10:00:00.000Z</time>
      </trkpt>
      <trkpt lat="46.80776" lon="0.3955">
        <ele>81</ele>
        <time>2019-02-03T10:00:01.000Z</time>
      </trkpt>
      <trkpt lat="46.80773" lon="0.39555">
        <ele>81</ele>
        <time>2019-02-03T10:00:02.000Z</time>
      </trkpt>
      <trkpt lat="46.80771" lon="0.39559">
        <ele>81</ele>
        <time>2019-02-03T10:00:03.000Z</time>
      </trkpt>
      <trkpt lat="46.80769" lon="0.39563">
        <ele>81</ele>
        <time>2019-02-03T10:00:04.000Z</time>
      </trkpt>
      <trkpt lat="46.80767" lon="0.39568">
        <ele>81</ele>
        <time>2019-02-03T10:00:05.000Z</time>
      </trkpt>
      <trkpt lat="46.80764" lon="0.39572">
        <ele>81</ele>
        <time>2019-02-03T10:00:06.000Z</time>
      </trkpt>
      <trkpt lat="46.80762" lon="0.39577">
        <ele>81</ele>
        <time>2019-02-03T10:00:07.000Z</time>
      </trkpt>
      <trkpt lat="46.8076" lon="0.39582">
        <ele>81</ele>
        <time>2019-02-03T10:00:08.000Z</time>
      </trkpt>
      <trkpt lat="46.80758" lon="0.39586">
        <ele>81</ele>
        <time>2019-02-03T10:00:09.000Z</time>
      </trkpt>
      <trkpt lat="46.80755" lon="0.39591">
        <ele>81</ele>
        <time>2019-02-03T10:00:10.000Z</time>
      </trkpt>
      <trkpt lat="46.80753" lon="0.39596">
        <ele>81</ele>
        <time>2019-02-03T10:00:11.000Z</time>
      </trkpt>
      <trkpt lat="46.8075" lon="0.39601">
        <ele>81</ele>
        <time>2019-02-03T10:00:12.000Z</time>
      </trkpt>
      <trkpt lat="46.80748" lon="0.39606">
        <ele>81</ele>
        <time>2019-02-03T10:00:13.000Z</time>
      </trkpt>
      <trkpt lat="46.80746" lon="0.39611">
        <ele>80</ele>
        <time>2019-02-03T10:00:14.000Z</time>
      </trkpt>
      <trkpt lat="46.80744" lon="0.39616">
        <ele>79</ele>
        <time>2019-02-03T10:00:15.000Z</time>
      </trkpt>
      <trkpt lat="46.80743" lon="0.39621">
        <ele>79</ele>
        <time>2019-02-03T10:00:16.000Z</time>
      </trkpt>
      <trkpt lat="46.80742" lon="0.39626">
        <ele>78</ele>
        <time>2019-02-03T10:00:17.000Z</time>
      </trkpt>
      <trkpt lat="46.80741" lon="0.39631">
        <ele>78</ele>
        <time>2019-02-03T10:00:18.000Z</time>
      </trkpt>
      <trkpt lat="46.80741" lon="0.39637">
        <ele>79</ele>
        <time>2019-02-03T10:00:19.000Z</time>
      </trkpt>
      <trkpt lat="46.80741" lon="0.39643">
        <ele>79</ele>
        <time>2019-02-03T10:00:20.000Z</time>
      </trkpt>
      <trkpt lat="46.80741" lon="0.39649">
        <ele>79</ele>
        <time>2019-02-03T10:00:21.000Z</time>
      </trkpt>
      <trkpt lat="46.80741" lon="0.39655">
        <ele>79</ele>
        <time>2019-02-03T10:00:22.000Z</time>
      </trkpt>
      <trkpt lat="46.80741" lon="0.39661">
        <ele>79</ele>
        <time>2019-02-03T10:00:23.000Z</time>
      </trkpt>
      <trkpt lat="46.8074" lon="0.39667">
        <ele>79</ele>
        <time>2019-02-03T10:00:24.000Z</time>
      </trkpt>
      <trkpt lat="46.8074" lon="0.39674">
        <ele>79</ele>
        <time>2019-02-03T10:00:25.000Z</time>
      </trkpt>
      <trkpt lat="46.8074" lon="0.3968">
        <ele>79</ele>
        <time>2019-02-03T10:00:26.000Z</time>
      </trkpt>
      <trkpt lat="46.80741" lon="0.39687">
        <ele>79</ele>
        <time>2019-02-03T10:00:27.000Z</time>
      </trkpt>
      <trkpt lat="46.80741" lon="0.39694">
        <ele>79</ele>
        <time>2019-02-03T10:00:28.000Z</time>
      </trkpt>
      <trkpt lat="46.8074" lon="0.397">
        <ele>79</ele>
        <time>2019-02-03T10:00:29.000Z</time>
      </trkpt>
      <trkpt lat="46.8074" lon="0.39707">
        <ele>80</ele>
        <time>2019-02-03T10:00:30.000Z</time>
      </trkpt>
      <trkpt lat="46.8074" lon="0.39714">
        <ele>80</ele>
        <time>2019-02-03T10:00:31.000Z</time>
      </trkpt>
      <trkpt lat="46.8074" lon="0.39721">
        <ele>80</ele>
        <time>2019-02-03T10:00:32.000Z</time>
      </trkpt>
      <trkpt lat="46.8074" lon="0.39728">
        <ele>80</ele>
        <time>2019-02-03T10:00:33.000Z</time>
      </trkpt>
      <trkpt lat="46.8074" lon="0.39735">
        <ele>80</ele>
        <time>2019-02-03T10:00:34.000Z</time>
      </trkpt>
      <trkpt lat="46.8074" lon="0.39742">
        <ele>81</ele>
        <time>2019-02-03T10:00:35.000Z</time>
      </trkpt>
      <trkpt lat="46.8074" lon="0.39749">
        <ele>81</ele>
        <time>2019-02-03T10:00:36.000Z</time>
      </trkpt>
      <trkpt lat="46.8074" lon="0.39756">
        <ele>81</ele>
        <time>2019-02-03T10:00:37.000Z</time>
      </trkpt>
      <trkpt lat="46.8074" lon="0.39763">
        <ele>81</ele>
        <time>2019-02-03T10:00:38.000Z</time>
      </trkpt>
      <trkpt lat="46.8074" lon="0.3977">
        <ele>81</ele>
        <time>2019-02-03T10:00:39.000Z</time>
      </trkpt>
      <trkpt lat="46.8074" lon="0.39776">
        <ele>81</ele>
        <time>2019-02-03T10:00:40.000Z</time>
      </trkpt>
      <trkpt lat="46.8074" lon="0.39783">
        <ele>81</ele>
        <time>2019-02-03T10:00:41.000Z</time>
      </trkpt>
      <trkpt lat="46.8074" lon="0.39789">
        <ele>81</ele>
        <time>2019-02-03T10:00:42.000Z</time>
      </trkpt>
      <trkpt lat="46.80739" lon="0.39795">
        <ele>81</ele>
        <time>2019-02-03T10:00:43.000Z</time>
      </trkpt>
      <trkpt lat="46.80739" lon="0.39801">
        <ele>81</ele>
        <time>2019-02-03T10:00:44.000Z</time>
      </trkpt>
      <trkpt lat="46.8074" lon="0.39807">
        <ele>81</ele>
        <time>2019-02-03T10:00:45.000Z</time>
      </trkpt>
      <trkpt lat="46.8074" lon="0.39814">
        <ele>81</ele>
        <time>2019-02-03T10:00:46.000Z</time>
      </trkpt>
      <trkpt lat="46.8074" lon="0.3982">
        <ele>81</ele>
        <time>2019-02-03T10:00:47.000Z</time>
      </trkpt>
      <trkpt lat="46.8074" lon="0.39826">
        <ele>81</ele>
        <time>2019-02-03T10:00:48.000Z</time>
      </trkpt>
      <trkpt lat="46.8074" lon="0.39833">
        <ele>81</ele>
        <time>2019-02-03T10:00:49.000Z</time>
      </trkpt>
      <trkpt lat="46.8074" lon="0.39839">
        <ele>81</ele>
        <time>2019-02-03T10:00:50.000Z</time>
      </trkpt>
      <trkpt lat="46.8074" lon="0.39846">
        <ele>81</ele>
        <time>2019-02-03T10:00:51.000Z</time>
      </trkpt>
      <trkpt lat="46.8074" lon="0.39853">
        <ele>81</ele>
        <time>2019-02-03T10:00:52.000Z</time>
      </trkpt>
      <trkpt lat="46.8074" lon="0.39859">
        <ele>81</ele>
        <time>2019-02-03T10:00:53.000Z</time>
      </trkpt>
      <trkpt lat="46.80739" lon="0.39866">
        <ele>81</ele>
        <time>2019-02-03T10:00:54.000Z</time>
      </trkpt>
      <trkpt lat="46.80739" lon="0.39873">
        <ele>81</ele>
        <time>2019-02-03T10:00:55.000Z</time>
      </trkpt>
      <trkpt lat="46.80739" lon="0.39879">
        <ele>81</ele>
        <time>2019-02-03T10:00:56.000Z</time>
      </trkpt>
      <trkpt lat="46.80739" lon="0.39886">
        <ele>81</ele>
        <time>2019-02-03T10:00:57.000Z</time>
      </trkpt>
      <trkpt lat="46.80739" lon="0.39892">
        <ele>81</ele>
        <time>2019-02-03T10:00:58.000Z</time>
      </trkpt>
      <trkpt lat="46.80739" lon="0.39898">
        <ele>81</ele>
        <time>2019-02-03T10:00:59.000Z</time>
      </trkpt>
      <trkpt lat="46.80739" lon="0.39905">
        <ele>82</ele>
        <time>2019-02-03T10:01:00.000Z</time>
      </trkpt>
      <trkpt lat="46.80738" lon="0.39911">
        <ele>82</ele>
        <time>2019-02-03T10:01:01.000Z</time>
      </trkpt>
      <trkpt lat="46.80738" lon="0.39917">
        <ele>82</ele>
        <time>2019-02-03T10:01:02.000Z</time>
      </trkpt>
      <trkpt lat="46.80738" lon="0.39922">
        <ele>82</ele>
        <time>2019-02-03T10:01:03.000Z</time>
      </trkpt>
      <trkpt lat="46.80738" lon="0.39928">
        <ele>82</ele>
        <time>2019-02-03T10:01:04.000Z</time>
      </trkpt>
      <trkpt lat="46.80738" lon="0.39934">
        <ele>83</ele>
        <time>2019-02-03T10:01:05.000Z</time>
      </trkpt>
      <trkpt lat="46.80738" lon="0.3994">
        <ele>83</ele>
        <time>2019-02-03T10:01:06.000Z</time>
      </trkpt>
      <trkpt lat="46.80738" lon="0.39946">
        <ele>83</ele>
        <time>2019-02-03T10:01:07.000Z</time>
      </trkpt>
      <trkpt lat="46.80737" lon="0.39952">
        <ele>83</ele>
        <time>2019-02-03T10:01:08.000Z</time>
      </trkpt>
      <trkpt lat="46.80737" lon="0.39958">
        <ele>83</ele>
        <time>2019-02-03T10:01:09.000Z</time>
      </trkpt>
      <trkpt lat="46.80737" lon="0.39964">
        <ele>83</ele>
        <time>2019-02-03T10:01:10.000Z</time>
      </trkpt>
      <trkpt lat="46.80737" lon="0.3997">
        <ele>83</ele>
        <time>2019-02-03T10:01:11.000Z</time>
      </trkpt>
      <trkpt lat="46.80736" lon="0.39977">
        <ele>84</ele>
        <time>2019-02-03T10:01:12.000Z</time>
      </trkpt>
      <trkpt lat="46.80736" lon="0.39983">
        <ele>84</ele>
        <time>2019-02-03T10:01:13.000Z</time>
      </trkpt>
      <trkpt lat="46.80736" lon="0.3999">
        <ele>84</ele>
        <time>2019-02-03T10:01:14.000Z</time>
      </trkpt>
      <trkpt lat="46.80736" lon="0.39997">
        <ele>84</ele>
        <time>2019-02-03T10:01:15.000Z</time>
      </trkpt>
      <trkpt lat="46.80736" lon="0.40003">
        <ele>84</ele>
        <time>2019-02-03T10:01:16.000Z</time>
      </trkpt>
      <trkpt lat="46.80735" lon="0.4001">
        <ele>84</ele>
        <time>2019-02-03T10:01:17.000Z</time>
      </trkpt>
      <trkpt lat="46.80735" lon="0.40016">
        <ele>84</ele>
        <time>2019-02-03T10:01:18.000Z</time>
      </trkpt>
      <trkpt lat="46.80735" lon="0.40023">
        <ele>84</ele>
        <time>2019-02-03T10:01:19.000Z</time>
      </trkpt>
      <trkpt lat="46.80735" lon="0.4003">
        <ele>84</ele>
        <time>2019-02-03T10:01:20.000Z</time>
      </trkpt>
      <trkpt lat="46.80734" lon="0.40036">
        <ele>84</ele>
        <time>2019-02-03T10:01:21.000Z</time>
      </trkpt>
      <trkpt lat="46.80734" lon="0.40043">
        <ele>85</ele>
        <time>2019-02-03T10:01:22.000Z</time>
      </trkpt>
      <trkpt lat="46.80734" lon="0.40049">
        <ele>85</ele>
        <time>2019-02-03T10:01:23.000Z</time>
      </trkpt>
      <trkpt lat="46.80734" lon="0.40056">
        <ele>85</ele>
        <time>2019-02-03T10:01:24.000Z</time>
      </trkpt>
      <trkpt lat="46.80734" lon="0.40062">
        <ele>85</ele>
        <time>2019-02-03T10:01:25.000Z</time>
      </trkpt>
      <trkpt lat="46.80734" lon="0.40069">
        <ele>85</ele>
        <time>2019-02-03T10:01:26.000Z</time>
      </trkpt>
      <trkpt lat="46.80734" lon="0.40075">
        <ele>85</ele>
        <time>2019-02-03T10:01:27.000Z</time>
      </trkpt>
      <trkpt lat="46.80734" lon="0.40082">
        <ele>85</ele>
        <time>2019-02-03T10:01:28.000Z</time>
      </trkpt>
      <trkpt lat="46.80734" lon="0.40088">
        <ele>85</ele>
        <time>2019-02-03T10:01:29.000Z</time>
      </trkpt>
      <trkpt lat="46.80734" lon="0.40095">
        <ele>85</ele>
        <time>2019-02-03T10:01:30.000Z</time>
      </trkpt>
      <trkpt lat="46.80734" lon="0.40101">
        <ele>85</ele>
        <time>2019-02-03T10:01:31.000Z</time>
      </trkpt>
      <trkpt lat="46.80735" lon="0.40108">
        <ele>85</ele>
        <time>2019-02-03T10:01:32.000Z</time>
      </trkpt>
      <trkpt lat="46.80735" lon="0.40114">
        <ele>85</ele>
        <time>2019-02-03T10:01:33.000Z</time>
      </trkpt>
      <trkpt lat="46.80735" lon="0.40121">
        <ele>85</ele>
        <time>2019-02-03T10:01:34.000Z</time>
      </trkpt>
      <trkpt lat="46.80735" lon="0.40128">
        <ele>84</ele>
        <time>2019-02-03T10:01:35.000Z</time>
      </trkpt>
      <trkpt lat="46.80735" lon="0.40134">
        <ele>84</ele>
        <time>2019-02-03T10:01:36.000Z</time>
      </trkpt>
      <trkpt lat="46.80735" lon="0.40141">
        <ele>84</ele>
        <time>2019-02-03T10:01:37.000Z</time>
      </trkpt>
      <trkpt lat="46.80735" lon="0.40147">
        <ele>84</ele>
        <time>2019-02-03T10:01:38.000Z</time>
      </trkpt>
      <trkpt lat="46.80735" lon="0.40153">
        <ele>84</ele>
        <time>2019-02-03T10:01:39.000Z</time>
      </trkpt>
      <trkpt lat="46.80735" lon="0.40159">
        <ele>83</ele>
        <time>2019-02-03T10:01:40.000Z</time>
      </trkpt>
      <trkpt lat="46.80735" lon="0.40165">
        <ele>84</ele>
        <time>2019-02-03T10:01:41.000Z</time>
      </trkpt>
      <trkpt lat="46.80735" lon="0.4017">
        <ele>84</ele>
        <time>2019-02-03T10:01:42.000Z</time>
      </trkpt>
      <trkpt lat="46.80735" lon="0.40176">
        <ele>84</ele>
        <time>2019-02-03T10:01:43.000Z</time>
      </trkpt>
      <trkpt lat="46.80735" lon="0.40181">
        <ele>83</ele>
        <time>2019-02-03T10:01:44.000Z</time>
      </trkpt>
      <trkpt lat="46.80735" lon="0.40186">
        <ele>83</ele>
        <time>2019-02-03T10:01:45.000Z</time>
      </trkpt>
      <trkpt lat="46.80735" lon="0.40192">
        <ele>83</ele>
        <time>2019-02-03T10:01:46.000Z</time>
      </trkpt>
      <trkpt lat="46.80735" lon="0.40198">
        <ele>83</ele>
        <time>2019-02-03T10:01:47.000Z</time>
      </trkpt>
      <trkpt lat="46.80734" lon="0.40204">
        <ele>82</ele>
        <time>2019-02-03T10:01:48.000Z</time>
      </trkpt>
      <trkpt lat="46.80734" lon="0.4021">
        <ele>82</ele>
        <time>2019-02-03T10:01:49.000Z</time>
      </trkpt>
      <trkpt lat="46.80733" lon="0.40217">
        <ele>83</ele>
        <time>2019-02-03T10:01:50.000Z</time>
      </trkpt>
      <trkpt lat="46.80733" lon="0.40223">
        <ele>83</ele>
        <time>2019-02-03T10:01:51.000Z</time>
      </trkpt>
      <trkpt lat="46.80733" lon="0.4023">
        <ele>83</ele>
        <time>2019-02-03T10:01:52.000Z</time>
      </trkpt>
      <trkpt lat="46.80732" lon="0.40237">
        <ele>84</ele>
        <time>2019-02-03T10:01:53.000Z</time>
      </trkpt>
      <trkpt lat="46.80732" lon="0.40243">
        <ele>83</ele>
        <time>2019-02-03T10:01:54.000Z</time>
      </trkpt>
      <trkpt lat="46.80732" lon="0.4025">
        <ele>84</ele>
        <time>2019-02-03T10:01:55.000Z</time>
      </trkpt>
      <trkpt lat="46.80733" lon="0.40257">
        <ele>83</ele>
        <time>2019-02-03T10:01:56.000Z</time>
      </trkpt>
      <trkpt lat="46.80733" lon="0.40263">
        <ele>83</ele>
        <time>2019-02-03T10:01:57.000Z</time>
      </trkpt>
      <trkpt lat="46.80733" lon="0.4027">
        <ele>83</ele>
        <time>2019-02-03T10:01:58.000Z</time>
      </trkpt>
      <trkpt lat="46.80733" lon="0.40277">
        <ele>84</ele>
        <time>2019-02-03T10:01:59.000Z</time>
      </trkpt>
      <trkpt lat="46.80733" lon="0.40283">
        <ele>84</ele>
        <time>2019-02-03T10:02:00.000Z</time>
      </trkpt>
      <trkpt lat="46.80733" lon="0.4029">
        <ele>84</ele>
        <time>2019-02-03T10:02:01.000Z</time>
      </trkpt>
      <trkpt lat="46.80733" lon="0.40296">
        <ele>84</ele>
        <time>2019-02-03T10:02:02.000Z</time>
      </trkpt>
      <trkpt lat="46.80733" lon="0.40302">
        <ele>84</ele>
        <time>2019-02-03T10:02:03.000Z</time>
      </trkpt>
      <trkpt lat="46.80733" lon="0.40309">
        <ele>84</ele>
        <time>2019-02-03T10:02:04.000Z</time>
      </trkpt>
      <trkpt lat="46.80733" lon="0.40315">
        <ele>84</ele>
        <time>2019-02-03T10:02:05.000Z</time>
      </trkpt>
      <trkpt lat="46.80733" lon="0.40322">
        <ele>84</ele>
        <time>2019-02-03T10:02:06.000Z</time>
      </trkpt>
      <trkpt lat="46.80733" lon="0.40328">
        <ele>84</ele>
        <time>2019-02-03T10:02:07.000Z</time>
      </trkpt>
      <trkpt lat="46.80733" lon="0.40335">
        <ele>85</ele>
        <time>2019-02-03T10:02:08.000Z</time>
      </trkpt>
      <trkpt lat="46.80733" lon="0.40341">
        <ele>85</ele>
        <time>2019-02-03T10:02:09.000Z</time>
      </trkpt>
      <trkpt lat="46.80732" lon="0.40347">
        <ele>85</ele>
        <time>2019-02-03T10:02:10.000Z</time>
      </trkpt>
      <trkpt lat="46.80732" lon="0.40353">
        <ele>85</ele>
        <time>2019-02-03T10:02:11.000Z</time>
      </trkpt>
      <trkpt lat="46.80732" lon="0.4036">
        <ele>85</ele>
        <time>2019-02-03T10:02:12.000Z</time>
      </trkpt>
      <trkpt lat="46.80731" lon="0.40366">
        <ele>85</ele>
        <time>2019-02-03T10:02:13.000Z</time>
      </trkpt>
      <trkpt lat="46.80731" lon="0.40372">
        <ele>86</ele>
        <time>2019-02-03T10:02:14.000Z</time>
      </trkpt>
      <trkpt lat="46.8073" lon="0.40379">
        <ele>86</ele>
        <time>2019-02-03T10:02:15.000Z</time>
      </trkpt>
      <trkpt lat="46.8073" lon="0.40385">
        <ele>86</ele>
        <time>2019-02-03T10:02:16.000Z</time>
      </trkpt>
      <trkpt lat="46.8073" lon="0.40392">
        <ele>87</ele>
        <time>2019-02-03T10:02:17.000Z</time>
      </trkpt>
      <trkpt lat="46.8073" lon="0.40399">
        <ele>87</ele>
        <time>2019-02-03T10:02:18.000Z</time>
      </trkpt>
      <trkpt lat="46.80729" lon="0.40405">
        <ele>87</ele>
        <time>2019-02-03T10:02:19.000Z</time>
      </trkpt>
      <trkpt lat="46.80729" lon="0.40412">
        <ele>88</ele>
        <time>2019-02-03T10:02:20.000Z</time>
      </trkpt>
      <trkpt lat="46.80729" lon="0.40419">
        <ele>88</ele>
        <time>2019-02-03T10:02:21.000Z</time>
      </trkpt>
      <trkpt lat="46.80729" lon="0.40426">
        <ele>87</ele>
        <time>2019-02-03T10:02:22.000Z</time>
      </trkpt>
      <trkpt lat="46.80729" lon="0.40433">
        <ele>87</ele>
        <time>2019-02-03T10:02:23.000Z</time>
      </trkpt>
      <trkpt lat="46.80729" lon="0.4044">
        <ele>87</ele>
        <time>2019-02-03T10:02:24.000Z</time>
      </trkpt>
      <trkpt lat="46.80729" lon="0.40446">
        <ele>86</ele>
        <time>2019-02-03T10:02:25.000Z</time>
      </trkpt>
      <trkpt lat="46.80729" lon="0.40453">
        <ele>86</ele>
        <time>2019-02-03T10:02:26.000Z</time>
      </trkpt>
      <trkpt lat="46.80729" lon="0.4046">
        <ele>85</ele>
        <time>2019-02-03T10:02:27.000Z</time>
      </trkpt>
      <trkpt lat="46.80729" lon="0.40467">
        <ele>84</ele>
        <time>2019-02-03T10:02:28.000Z</time>
      </trkpt>
      <trkpt lat="46.80729" lon="0.40473">
        <ele>84</ele>
        <time>2019-02-03T10:02:29.000Z</time>
      </trkpt>
      <trkpt lat="46.80729" lon="0.4048">
        <ele>83</ele>
        <time>2019-02-03T10:02:30.000Z</time>
      </trkpt>
      <trkpt lat="46.80729" lon="0.40487">
        <ele>83</ele>
        <time>2019-02-03T10:02:31.000Z</time>
      </trkpt>
      <trkpt lat="46.80729" lon="0.40494">
        <ele>83</ele>
        <time>2019-02-03T10:02:32.000Z</time>
      </trkpt>
      <trkpt lat="46.80729" lon="0.40501">
        <ele>83</ele>
        <time>2019-02-03T10:02:33.000Z</time>
      </trkpt>
      <trkpt lat="46.80729" lon="0.40509">
        <ele>83</ele>
        <time>2019-02-03T10:02:34.000Z</time>
      </trkpt>
      <trkpt lat="46.80729" lon="0.40516">
        <ele>84</ele>
        <time>2019-02-03T10:02:35.000Z</time>
      </trkpt>
      <trkpt lat="46.80729" lon="0.40523">
        <ele>83</ele>
        <time>2019-02-03T10:02:36.000Z</time>
      </trkpt>
      <trkpt lat="46.80729" lon="0.4053">
        <ele>84</ele>
        <time>2019-02-03T10:02:37.000Z</time>
      </trkpt>
      <trkpt lat="46.8073" lon="0.40537">
        <ele>84</ele>
        <time>2019-02-03T10:02:38.000Z</time>
      </trkpt>
      <trkpt lat="46.80729" lon="0.40544">
        <ele>84</ele>
        <time>2019-02-03T10:02:39.000Z</time>
      </trkpt>
      <trkpt lat="46.80729" lon="0.40551">
        <ele>84</ele>
        <time>2019-02-03T10:02:40.000Z</time>
      </trkpt>
      <trkpt lat="46.80729" lon="0.40558">
        <ele>84</ele>
        <time>2019-02-03T10:02:41.000Z</time>
      </trkpt>
      <trkpt lat="46.80729" lon="0.40565">
        <ele>84</ele>
        <time>2019-02-03T10:02:42.000Z</time>
      </trkpt>
      <trkpt lat="46.80729" lon="0.40572">
        <ele>84</ele>
        <time>2019-02-03T10:02:43.000Z</time>
      </trkpt>
      <trkpt lat="46.80729" lon="0.4058">
        <ele>84</ele>
        <time>2019-02-03T10:02:44.000Z</time>
      </trkpt>
      <trkpt lat="46.80729" lon="0.40587">
        <ele>84</ele>
        <time>2019-02-03T10:02:45.000Z</time>
      </trkpt>
      <trkpt lat="46.80729" lon="0.40595">
        <ele>84</ele>
        <time>2019-02-03T10:02:46.000Z</time>
      </trkpt>
      <trkpt lat="46.80729" lon="0.40602">
        <ele>85</ele>
        <time>2019-02-03T10:02:47.000Z</time>
      </trkpt>
      <trkpt lat="46.80728" lon="0.4061">
        <ele>84</ele>
        <time>2019-02-03T10:02:48.000Z</time>
      </trkpt>
      <trkpt lat="46.80728" lon="0.40617">
        <ele>84</ele>
        <time>2019-02-03T10:02:49.000Z</time>
      </trkpt>
      <trkpt lat="46.80728" lon="0.40624">
        <ele>85</ele>
        <time>2019-02-03T10:02:50.000Z</time>
      </trkpt>
      <trkpt lat="46.80728" lon="0.40632">
        <ele>85</ele>
        <time>2019-02-03T10:02:51.000Z</time>
      </trkpt>
      <trkpt lat="46.80727" lon="0.40639">
        <ele>85</ele>
        <time>2019-02-03T10:02:52.000Z</time>
      </trkpt>
      <trkpt lat="46.80727" lon="0.40647">
        <ele>85</ele>
        <time>2019-02-03T10:02:53.000Z</time>
      </trkpt>
      <trkpt lat="46.80727" lon="0.40654">
        <ele>85</ele>
        <time>2019-02-03T10:02:54.000Z</time>
      </trkpt>
      <trkpt lat="46.80727" lon="0.40662">
        <ele>85</ele>
        <time>2019-02-03T10:02:55.000Z</time>
      </trkpt>
      <trkpt lat="46.80727" lon="0.40669">
        <ele>85</ele>
        <time>2019-02-03T10:02:56.000Z</time>
      </trkpt>
      <trkpt lat="46.80727" lon="0.40676">
        <ele>85</ele>
        <time>2019-02-03T10:02:57.000Z</time>
      </trkpt>
      <trkpt lat="46.80727" lon="0.40684">
        <ele>85</ele>
        <time>2019-02-03T10:02:58.000Z</time>
      </trkpt>
      <trkpt lat="46.80727" lon="0.40691">
        <ele>85</ele>
        <time>2019-02-03T10:02:59.000Z</time>
      </trkpt>
      <trkpt lat="46.80727" lon="0.40698">
        <ele>86</ele>
        <time>2019-02-03T10:03:00.000Z</time>
      </trkpt>
      <trkpt lat="46.80727" lon="0.40705">
        <ele>85</ele>
        <time>2019-02-03T10:03:01.000Z</time>
      </trkpt>
      <trkpt lat="46.80727" lon="0.40712">
        <ele>85</ele>
        <time>2019-02-03T10:03:02.000Z</time>
      </trkpt>
      <trkpt lat="46.80727" lon="0.40719">
        <ele>85</ele>
        <time>2019-02-03T10:03:03.000Z</time>
      </trkpt>
      <trkpt lat="46.80727" lon="0.40726">
        <ele>86</ele>
        <time>2019-02-03T10:03:04.000Z</time>
      </trkpt>
      <trkpt lat="46.80727" lon="0.40733">
        <ele>86</ele>
        <time>2019-02-03T10:03:05.000Z</time>
      </trkpt>
      <trkpt lat="46.80727" lon="0.40741">
        <ele>86</ele>
        <time>2019-02-03T10:03:06.000Z</time>
      </trkpt>
      <trkpt lat="46.80727" lon="0.40748">
        <ele>86</ele>
        <time>2019-02-03T10:03:07.000Z</time>
      </trkpt>
      <trkpt lat="46.80727" lon="0.40756">
        <ele>86</ele>
        <time>2019-02-03T10:03:08.000Z</time>
      </trkpt>
      <trkpt lat="46.80727" lon="0.40763">
        <ele>86</ele>
        <time>2019-02-03T10:03:09.000Z</time>
      </trkpt>
      <trkpt lat="46.80727" lon="0.40771">
        <ele>86</ele>
        <time>2019-02-03T10:03:10.000Z</time>
      </trkpt>
      <trkpt lat="46.80727" lon="0.40778">
        <ele>86</ele>
        <time>2019-02-03T10:03:11.000Z</time>
      </trkpt>
      <trkpt lat="46.80727" lon="0.40786">
        <ele>87</ele>
        <time>2019-02-03T10:03:12.000Z</time>
      </trkpt>
      <trkpt lat="46.80727" lon="0.40794">
        <ele>87</ele>
        <time>2019-02-03T10:03:13.000Z</time>
      </trkpt>
      <trkpt lat="46.80727" lon="0.40801">
        <ele>87</ele>
        <time>2019-02-03T10:03:14.000Z</time>
      </trkpt>
      <trkpt lat="46.80727" lon="0.40809">
        <ele>87</ele>
        <time>2019-02-03T10:03:15.000Z</time>
      </trkpt>
      <trkpt lat="46.80727" lon="0.40817">
        <ele>87</ele>
        <time>2019-02-03T10:03:16.000Z</time>
      </trkpt>
      <trkpt lat="46.80727" lon="0.40824">
        <ele>87</ele>
        <time>2019-02-03T10:03:17.000Z</time>
      </trkpt>
      <trkpt lat="46.80727" lon="0.40832">
        <ele>87</ele>
        <time>2019-02-03T10:03:18.000Z</time>
      </trkpt>
      <trkpt lat="46.80727" lon="0.4084">
        <ele>87</ele>
        <time>2019-02-03T10:03:19.000Z</time>
      </trkpt>
      <trkpt lat="46.80727" lon="0.40848">
        <ele>87</ele>
        <time>2019-02-03T10:03:20.000Z</time>
      </trkpt>
      <trkpt lat="46.80726" lon="0.40856">
        <ele>87</ele>
        <time>2019-02-03T10:03:21.000Z</time>
      </trkpt>
      <trkpt lat="46.80726" lon="0.40864">
        <ele>87</ele>
        <time>2019-02-03T10:03:22.000Z</time>
      </trkpt>
      <trkpt lat="46.80726" lon="0.40872">
        <ele>87</ele>
        <time>2019-02-03T10:03:23.000Z</time>
      </trkpt>
      <trkpt lat="46.80726" lon="0.4088">
        <ele>86</ele>
        <time>2019-02-03T10:03:24.000Z</time>
      </trkpt>
      <trkpt lat="46.80726" lon="0.40888">
        <ele>86</ele>
        <time>2019-02-03T10:03:25.000Z</time>
      </trkpt>
      <trkpt lat="46.80725" lon="0.40896">
        <ele>86</ele>
        <time>2019-02-03T10:03:26.000Z</time>
      </trkpt>
      <trkpt lat="46.80725" lon="0.40905">
        <ele>86</ele>
        <time>2019-02-03T10:03:27.000Z</time>
      </trkpt>
      <trkpt lat="46.80725" lon="0.40913">
        <ele>86</ele>
        <time>2019-02-03T10:03:28.000Z</time>
      </trkpt>
      <trkpt lat="46.80724" lon="0.40921">
        <ele>86</ele>
        <time>2019-02-03T10:03:29.000Z</time>
      </trkpt>
      <trkpt lat="46.80724" lon="0.40929">
        <ele>86</ele>
        <time>2019-02-03T10:03:30.000Z</time>
      </trkpt>
      <trkpt lat="46.80724" lon="0.40938">
        <ele>86</ele>
        <time>2019-02-03T10:03:31.000Z</time>
      </trkpt>
      <trkpt lat="46.80723" lon="0.40946">
        <ele>86</ele>
        <time>2019-02-03T10:03:32.000Z</time>
      </trkpt>
      <trkpt lat="46.80723" lon="0.40954">
        <ele>86</ele>
        <time>2019-02-03T10:03:33.000Z</time>
      </trkpt>
      <trkpt lat="46.80723" lon="0.40961">
        <ele>86</ele>
        <time>2019-02-03T10:03:34.000Z</time>
      </trkpt>
      <trkpt lat="46.80724" lon="0.40969">
        <ele>86</ele>
        <time>2019-02-03T10:03:35.000Z</time>
      </trkpt>
      <trkpt lat="46.80726" lon="0.40976">
        <ele>86</ele>
        <time>2019-02-03T10:03:36.000Z</time>
      </trkpt>
      <trkpt lat="46.80729" lon="0.40982">
        <ele>87</ele>
        <time>2019-02-03T10:03:37.000Z</time>
      </trkpt>
      <trkpt lat="46.80733" lon="0.40986">
        <ele>87</ele>
        <time>2019-02-03T10:03:38.000Z</time>
      </trkpt>
      <trkpt lat="46.80737" lon="0.40989">
        <ele>87</ele>
        <time>2019-02-03T10:03:39.000Z</time>
      </trkpt>
      <trkpt lat="46.80742" lon="0.4099">
        <ele>86</ele>
        <time>2019-02-03T10:03:40.000Z</time>
      </trkpt>
      <trkpt lat="46.80747" lon="0.4099">
        <ele>87</ele>
        <time>2019-02-03T10:03:41.000Z</time>
      </trkpt>
      <trkpt lat="46.80752" lon="0.4099">
        <ele>87</ele>
        <time>2019-02-03T10:03:42.000Z</time>
      </trkpt>
      <trkpt lat="46.80756" lon="0.4099">
        <ele>87</ele>
        <time>2019-02-03T10:03:43.000Z</time>
      </trkpt>
      <trkpt lat="46.80761" lon="0.40989">
        <ele>87</ele>
        <time>2019-02-03T10:03:44.000Z</time>
      </trkpt>
      <trkpt lat="46.80766" lon="0.40989">
        <ele>87</ele>
        <time>2019-02-03T10:03:45.000Z</time>
      </trkpt>
      <trkpt lat="46.8077" lon="0.40989">
        <ele>87</ele>
        <time>2019-02-03T10:03:46.000Z</time>
      </trkpt>
      <trkpt lat="46.80774" lon="0.40988">
        <ele>87</ele>
        <time>2019-02-03T10:03:47.000Z</time>
      </trkpt>
      <trkpt lat="46.80778" lon="0.40988">
        <ele>87</ele>
        <time>2019-02-03T10:03:48.000Z</time>
      </trkpt>
      <trkpt lat="46.80782" lon="0.40988">
        <ele>87</ele>
        <time>2019-02-03T10:03:49.000Z</time>
      </trkpt>
      <trkpt lat="46.80786" lon="0.40988">
        <ele>87</ele>
        <time>2019-02-03T10:03:50.000Z</time>
      </trkpt>
      <trkpt lat="46.80789" lon="0.40988">
        <ele>87</ele>
        <time>2019-02-03T10:03:51.000Z</time>
      </trkpt>
      <trkpt lat="46.80792" lon="0.40988">
        <ele>87</ele>
        <time>2019-02-03T10:03:52.000Z</time>
      </trkpt>
      <trkpt lat="46.80795" lon="0.40988">
        <ele>87</ele>
        <time>2019-02-03T10:03:53.000Z</time>
      </trkpt>
      <trkpt lat="46.80799" lon="0.40987">
        <ele>87</ele>
        <time>2019-02-03T10:03:54.000Z</time>
      </trkpt>
      <trkpt lat="46.80802" lon="0.40987">
        <ele>87</ele>
        <time>2019-02-03T10:03:55.000Z</time>
      </trkpt>
      <trkpt lat="46.80805" lon="0.40987">
        <ele>87</ele>
        <time>2019-02-03T10:03:56.000Z</time>
      </trkpt>
      <trkpt lat="46.80809" lon="0.40987">
        <ele>87</ele>
        <time>2019-02-03T10:03:57.000Z</time>
      </trkpt>
      <trkpt lat="46.80813" lon="0.40987">
        <ele>87</ele>
        <time>2019-02-03T10:03:58.000Z</time>
      </trkpt>
      <trkpt lat="46.80816" lon="0.40987">
        <ele>87</ele>
        <time>2019-02-03T10:03:59.000Z</time>
      </trkpt>
      <trkpt lat="46.8082" lon="0.40986">
        <ele>87</ele>
        <time>2019-02-03T10:04:00.000Z</time>
      </trkpt>
      <trkpt lat="46.80823" lon="0.40986">
        <ele>87</ele>
        <time>2019-02-03T10:04:01.000Z</time>
      </trkpt>
      <trkpt lat="46.80827" lon="0.40986">
        <ele>87</ele>
        <time>2019-02-03T10:04:02.000Z</time>
      </trkpt>
      <trkpt lat="46.8083" lon="0.40986">
        <ele>87</ele>
        <time>2019-02-03T10:04:03.000Z</time>
      </trkpt>
      <trkpt lat="46.80834" lon="0.40986">
        <ele>87</ele>
        <time>2019-02-03T10:04:04.000Z</time>
      </trkpt>
      <trkpt lat="46.80837" lon="0.40986">
        <ele>87</ele>
        <time>2019-02-03T10:04:05.000Z</time>
      </trkpt>
      <trkpt lat="46.8084" lon="0.40986">
        <ele>87</ele>
        <time>2019-02-03T10:04:06.000Z</time>
      </trkpt>
      <trkpt lat="46.80843" lon="0.40986">
        <ele>87</ele>
        <time>2019-02-03T10:04:07.000Z</time>
      </trkpt>
      <trkpt lat="46.80847" lon="0.40985">
        <ele>87</ele>
        <time>2019-02-03T10:04:08.000Z</time>
      </trkpt>
      <trkpt lat="46.8085" lon="0.40985">
        <ele>87</ele>
        <time>2019-02-03T10:04:09.000Z</time>
      </trkpt>
      <trkpt lat="46.80854" lon="0.40985">
        <ele>87</ele>
        <time>2019-02-03T10:04:10.000Z</time>
      </trkpt>
      <trkpt lat="46.80857" lon="0.40985">
        <ele>87</ele>
        <time>2019-02-03T10:04:11.000Z</time>
      </trkpt>
      <trkpt lat="46.80861" lon="0.40984">
        <ele>87</ele>
        <time>2019-02-03T10:04:12.000Z</time>
      </trkpt>
      <trkpt lat="46.80864" lon="0.40984">
        <ele>87</ele>
        <time>2019-02-03T10:04:13.000Z</time>
      </trkpt>
      <trkpt lat="46.80868" lon="0.40984">
        <ele>87</ele>
        <time>2019-02-03T10:04:14.000Z</time>
      </trkpt>
      <trkpt lat="46.80871" lon="0.40984">
        <ele>87</ele>
        <time>2019-02-03T10:04:15.000Z</time>
      </trkpt>
      <trkpt lat="46.80875" lon="0.40984">
        <ele>87</ele>
        <time>2019-02-03T10:04:16.000Z</time>
      </trkpt>
      <trkpt lat="46.80878" lon="0.40983">
        <ele>87</ele>
        <time>2019-02-03T10:04:17.000Z</time>
      </trkpt>
      <trkpt lat="46.80881" lon="0.40983">
        <ele>87</ele>
        <time>2019-02-03T10:04:18.000Z</time>
      </trkpt>
      <trkpt lat="46.80885" lon="0.40983">
        <ele>87</ele>
        <time>2019-02-03T10:04:19.000Z</time>
      </trkpt>
      <trkpt lat="46.80888" lon="0.40982">
        <ele>87</ele>
        <time>2019-02-03T10:04:20.000Z</time>
      </trkpt>
      <trkpt lat="46.80891" lon="0.40982">
        <ele>87</ele>
        <time>2019-02-03T10:04:21.000Z</time>
      </trkpt>
      <trkpt lat="46.80894" lon="0.40982">
        <ele>87</ele>
        <time>2019-02-03T10:04:22.000Z</time>
      </trkpt>
      <trkpt lat="46.80897" lon="0.40983">
        <ele>87</ele>
        <time>2019-02-03T10:04:23.000Z</time>
      </trkpt>
      <trkpt lat="46.809" lon="0.40983">
        <ele>87</ele>
        <time>2019-02-03T10:04:24.000Z</time>
      </trkpt>
      <trkpt lat="46.80903" lon="0.40985">
        <ele>87</ele>
        <time>2019-02-03T10:04:25.000Z</time>
      </trkpt>
      <trkpt lat="46.80905" lon="0.40987">
        <ele>87</ele>
        <time>2019-02-03T10:04:26.000Z</time>
      </trkpt>
      <trkpt lat="46.80907" lon="0.40989">
        <ele>87</ele>
        <time>2019-02-03T10:04:27.000Z</time>
      </trkpt>
      <trkpt lat="46.80909" lon="0.40992">
        <ele>87</ele>
        <time>2019-02-03T10:04:28.000Z</time>
      </trkpt>
      <trkpt lat="46.80911" lon="0.40995">
        <ele>87</ele>
        <time>2019-02-03T10:04:29.000Z</time>
      </trkpt>
      <trkpt lat="46.80912" lon="0.40998">
        <ele>87</ele>
        <time>2019-02-03T10:04:30.000Z</time>
      </trkpt>
      <trkpt lat="46.80913" lon="0.41002">
        <ele>87</ele>
        <time>2019-02-03T10:04:31.000Z</time>
      </trkpt>
      <trkpt lat="46.80915" lon="0.41006">
        <ele>87</ele>
        <time>2019-02-03T10:04:32.000Z</time>
      </trkpt>
      <trkpt lat="46.80916" lon="0.4101">
        <ele>88</ele>
        <time>2019-02-03T10:04:33.000Z</time>
      </trkpt>
      <trkpt lat="46.80916" lon="0.41014">
        <ele>88</ele>
        <time>2019-02-03T10:04:34.000Z</time>
      </trkpt>
      <trkpt lat="46.80917" lon="0.41018">
        <ele>88</ele>
        <time>2019-02-03T10:04:35.000Z</time>
      </trkpt>
      <trkpt lat="46.80918" lon="0.41022">
        <ele>88</ele>
        <time>2019-02-03T10:04:36.000Z</time>
      </trkpt>
      <trkpt lat="46.80919" lon="0.41027">
        <ele>88</ele>
        <time>2019-02-03T10:04:37.000Z</time>
      </trkpt>
      <trkpt lat="46.8092" lon="0.41031">
        <ele>88</ele>
        <time>2019-02-03T10:04:38.000Z</time>
      </trkpt>
      <trkpt lat="46.80921" lon="0.41036">
        <ele>88</ele>
        <time>2019-02-03T10:04:39.000Z</time>
      </trkpt>
      <trkpt lat="46.80922" lon="0.4104">
        <ele>88</ele>
        <time>2019-02-03T10:04:40.000Z</time>
      </trkpt>
      <trkpt lat="46.80923" lon="0.41045">
        <ele>88</ele>
        <time>2019-02-03T10:04:41.000Z</time>
      </trkpt>
      <trkpt lat="46.80924" lon="0.41049">
        <ele>88</ele>
        <time>2019-02-03T10:04:42.000Z</time>
      </trkpt>
      <trkpt lat="46.80925" lon="0.41054">
        <ele>88</ele>
        <time>2019-02-03T10:04:43.000Z</time>
      </trkpt>
      <trkpt lat="46.80926" lon="0.41059">
        <ele>88</ele>
        <time>2019-02-03T10:04:44.000Z</time>
      </trkpt>
      <trkpt lat="46.80927" lon="0.41064">
        <ele>88</ele>
        <time>2019-02-03T10:04:45.000Z</time>
      </trkpt>
      <trkpt lat="46.80929" lon="0.41068">
        <ele>88</ele>
        <time>2019-02-03T10:04:46.000Z</time>
      </trkpt>
      <trkpt lat="46.8093" lon="0.41073">
        <ele>88</ele>
        <time>2019-02-03T10:04:47.000Z</time>
      </trkpt>
      <trkpt lat="46.80931" lon="0.41078">
        <ele>88</ele>
        <time>2019-02-03T10:04:48.000Z</time>
      </trkpt>
      <trkpt lat="46.80932" lon="0.41083">
        <ele>88</ele>
        <time>2019-02-03T10:04:49.000Z</time>
      </trkpt>
      <trkpt lat="46.80933" lon="0.41088">
        <ele>88</ele>
        <time>2019-02-03T10:04:50.000Z</time>
      </trkpt>
      <trkpt lat="46.80934" lon="0.41094">
        <ele>88</ele>
        <time>2019-02-03T10:04:51.000Z</time>
      </trkpt>
      <trkpt lat="46.80935" lon="0.41099">
        <ele>88</ele>
        <time>2019-02-03T10:04:52.000Z</time>
      </trkpt>
      <trkpt lat="46.80936" lon="0.41104">
        <ele>88</ele>
        <time>2019-02-03T10:04:53.000Z</time>
      </trkpt>
      <trkpt lat="46.80937" lon="0.41109">
        <ele>88</ele>
        <time>2019-02-03T10:04:54.000Z</time>
      </trkpt>
      <trkpt lat="46.80938" lon="0.41114">
        <ele>89</ele>
        <time>2019-02-03T10:04:55.000Z</time>
      </trkpt>
      <trkpt lat="46.80939" lon="0.41118">
        <ele>89</ele>
        <time>2019-02-03T10:04:56.000Z</time>
      </trkpt>
      <trkpt lat="46.80941" lon="0.41123">
        <ele>89</ele>
        <time>2019-02-03T10:04:57.000Z</time>
      </trkpt>
      <trkpt lat="46.80942" lon="0.41127">
        <ele>89</ele>
        <time>2019-02-03T10:04:58.000Z</time>
      </trkpt>
      <trkpt lat="46.80943" lon="0.41132">
        <ele>89</ele>
        <time>2019-02-03T10:04:59.000Z</time>
      </trkpt>
      <trkpt lat="46.80944" lon="0.41136">
        <ele>89</ele>
        <time>2019-02-03T10:05:00.000Z</time>
      </trkpt>
      <trkpt lat="46.80945" lon="0.4114">
        <ele>89</ele>
        <time>2019-02-03T10:05:01.000Z</time>
      </trkpt>
      <trkpt lat="46.80946" lon="0.41144">
        <ele>89</ele>
        <time>2019-02-03T10:05:02.000Z</time>
      </trkpt>
      <trkpt lat="46.80946" lon="0.41148">
        <ele>89</ele>
        <time>2019-02-03T10:05:03.000Z</time>
      </trkpt>
      <trkpt lat="46.80947" lon="0.41151">
        <ele>89</ele>
        <time>2019-02-03T10:05:04.000Z</time>
      </trkpt>
      <trkpt lat="46.80948" lon="0.41154">
        <ele>89</ele>
        <time>2019-02-03T10:05:05.000Z</time>
      </trkpt>
      <trkpt lat="46.80949" lon="0.41158">
        <ele>89</ele>
        <time>2019-02-03T10:05:06.000Z</time>
      </trkpt>
      <trkpt lat="46.80951" lon="0.41162">
        <ele>89</ele>
        <time>2019-02-03T10:05:07.000Z</time>
      </trkpt>
      <trkpt lat="46.80952" lon="0.41165">
        <ele>89</ele>
        <time>2019-02-03T10:05:08.000Z</time>
      </trkpt>
      <trkpt lat="46.80953" lon="0.41168">
        <ele>88</ele>
        <time>2019-02-03T10:05:09.000Z</time>
      </trkpt>
      <trkpt lat="46.80955" lon="0.41172">
        <ele>88</ele>
        <time>2019-02-03T10:05:10.000Z</time>
      </trkpt>
      <trkpt lat="46.80956" lon="0.41176">
        <ele>88</ele>
        <time>2019-02-03T10:05:11.000Z</time>
      </trkpt>
      <trkpt lat="46.80957" lon="0.4118">
        <ele>88</ele>
        <time>2019-02-03T10:05:12.000Z</time>
      </trkpt>
      <trkpt lat="46.80957" lon="0.41184">
        <ele>88</ele>
        <time>2019-02-03T10:05:13.000Z</time>
      </trkpt>
      <trkpt lat="46.80957" lon="0.41188">
        <ele>87</ele>
        <time>2019-02-03T10:05:14.000Z</time>
      </trkpt>
      <trkpt lat="46.80957" lon="0.41192">
        <ele>87</ele>
        <time>2019-02-03T10:05:15.000Z</time>
      </trkpt>
      <trkpt lat="46.80957" lon="0.41195">
        <ele>87</ele>
        <time>2019-02-03T10:05:16.000Z</time>
      </trkpt>
      <trkpt lat="46.80957" lon="0.41199">
        <ele>87</ele>
        <time>2019-02-03T10:05:17.000Z</time>
      </trkpt>
      <trkpt lat="46.80956" lon="0.41203">
        <ele>86</ele>
        <time>2019-02-03T10:05:18.000Z</time>
      </trkpt>
      <trkpt lat="46.80956" lon="0.41206">
        <ele>86</ele>
        <time>2019-02-03T10:05:19.000Z</time>
      </trkpt>
      <trkpt lat="46.80955" lon="0.4121">
        <ele>86</ele>
        <time>2019-02-03T10:05:20.000Z</time>
      </trkpt>
      <trkpt lat="46.80955" lon="0.41212">
        <ele>86</ele>
        <time>2019-02-03T10:05:21.000Z</time>
      </trkpt>
      <trkpt lat="46.80956" lon="0.41215">
        <ele>87</ele>
        <time>2019-02-03T10:05:22.000Z</time>
      </trkpt>
      <trkpt lat="46.80958" lon="0.41216">
        <ele>87</ele>
        <time>2019-02-03T10:05:23.000Z</time>
      </trkpt>
      <trkpt lat="46.80961" lon="0.41217">
        <ele>88</ele>
        <time>2019-02-03T10:05:24.000Z</time>
      </trkpt>
      <trkpt lat="46.80964" lon="0.41218">
        <ele>88</ele>
        <time>2019-02-03T10:05:25.000Z</time>
      </trkpt>
      <trkpt lat="46.80967" lon="0.41218">
        <ele>88</ele>
        <time>2019-02-03T10:05:26.000Z</time>
      </trkpt>
      <trkpt lat="46.8097" lon="0.41219">
        <ele>88</ele>
        <time>2019-02-03T10:05:27.000Z</time>
      </trkpt>
      <trkpt lat="46.80973" lon="0.41219">
        <ele>89</ele>
        <time>2019-02-03T10:05:28.000Z</time>
      </trkpt>
      <trkpt lat="46.80976" lon="0.4122">
        <ele>89</ele>
        <time>2019-02-03T10:05:29.000Z</time>
      </trkpt>
      <trkpt lat="46.80979" lon="0.4122">
        <ele>89</ele>
        <time>2019-02-03T10:05:30.000Z</time>
      </trkpt>
      <trkpt lat="46.80983" lon="0.41221">
        <ele>88</ele>
        <time>2019-02-03T10:05:31.000Z</time>
      </trkpt>
      <trkpt lat="46.80986" lon="0.41222">
        <ele>88</ele>
        <time>2019-02-03T10:05:32.000Z</time>
      </trkpt>
      <trkpt lat="46.80989" lon="0.41224">
        <ele>89</ele>
        <time>2019-02-03T10:05:33.000Z</time>
      </trkpt>
      <trkpt lat="46.80991" lon="0.41227">
        <ele>89</ele>
        <time>2019-02-03T10:05:34.000Z</time>
      </trkpt>
      <trkpt lat="46.80993" lon="0.4123">
        <ele>89</ele>
        <time>2019-02-03T10:05:35.000Z</time>
      </trkpt>
      <trkpt lat="46.80995" lon="0.41234">
        <ele>89</ele>
        <time>2019-02-03T10:05:36.000Z</time>
      </trkpt>
      <trkpt lat="46.80996" lon="0.41238">
        <ele>89</ele>
        <time>2019-02-03T10:05:37.000Z</time>
      </trkpt>
      <trkpt lat="46.80998" lon="0.41242">
        <ele>89</ele>
        <time>2019-02-03T10:05:38.000Z</time>
      </trkpt>
      <trkpt lat="46.80999" lon="0.41246">
        <ele>88</ele>
        <time>2019-02-03T10:05:39.000Z</time>
      </trkpt>
      <trkpt lat="46.81001" lon="0.4125">
        <ele>88</ele>
        <time>2019-02-03T10:05:40.000Z</time>
      </trkpt>
      <trkpt lat="46.81004" lon="0.41252">
        <ele>88</ele>
        <time>2019-02-03T10:05:41.000Z</time>
      </trkpt>
      <trkpt lat="46.81007" lon="0.41254">
        <ele>88</ele>
        <time>2019-02-03T10:05:42.000Z</time>
      </trkpt>
      <trkpt lat="46.8101" lon="0.41256">
        <ele>87</ele>
        <time>2019-02-03T10:05:43.000Z</time>
      </trkpt>
      <trkpt lat="46.81013" lon="0.41256">
        <ele>87</ele>
        <time>2019-02-03T10:05:44.000Z</time>
      </trkpt>
      <trkpt lat="46.81016" lon="0.41257">
        <ele>88</ele>
        <time>2019-02-03T10:05:45.000Z</time>
      </trkpt>
      <trkpt lat="46.81019" lon="0.41257">
        <ele>88</ele>
        <time>2019-02-03T10:05:46.000Z</time>
      </trkpt>
      <trkpt lat="46.81021" lon="0.41258">
        <ele>88</ele>
        <time>2019-02-03T10:05:47.000Z</time>
      </trkpt>
      <trkpt lat="46.81024" lon="0.41258">
        <ele>88</ele>
        <time>2019-02-03T10:05:48.000Z</time>
      </trkpt>
      <trkpt lat="46.81026" lon="0.41259">
        <ele>88</ele>
        <time>2019-02-03T10:05:49.000Z</time>
      </trkpt>
      <trkpt lat="46.81027" lon="0.41261">
        <ele>88</ele>
        <time>2019-02-03T10:05:50.000Z</time>
      </trkpt>
      <trkpt lat="46.81029" lon="0.41263">
        <ele>88</ele>
        <time>2019-02-03T10:05:51.000Z</time>
      </trkpt>
      <trkpt lat="46.8103" lon="0.41264">
        <ele>88</ele>
        <time>2019-02-03T10:05:52.000Z</time>
      </trkpt>
      <trkpt lat="46.81031" lon="0.41266">
        <ele>88</ele>
        <time>2019-02-03T10:05:53.000Z</time>
      </trkpt>
      <trkpt lat="46.81032" lon="0.41268">
        <ele>88</ele>
        <time>2019-02-03T10:05:54.000Z</time>
      </trkpt>
      <trkpt lat="46.81032" lon="0.4127">
        <ele>88</ele>
        <time>2019-02-03T10:05:55.000Z</time>
      </trkpt>
      <trkpt lat="46.81032" lon="0.41271">
        <ele>88</ele>
        <time>2019-02-03T10:05:56.000Z</time>
      </trkpt>
      <trkpt lat="46.81032" lon="0.41273">
        <ele>88</ele>
        <time>2019-02-03T10:05:57.000Z</time>
      </trkpt>
      <trkpt lat="46.81032" lon="0.41275">
        <ele>88</ele>
        <time>2019-02-03T10:05:58.000Z</time>
      </trkpt>
      <trkpt lat="46.81032" lon="0.41278">
        <ele>88</ele>
        <time>2019-02-03T10:05:59.000Z</time>
      </trkpt>
      <trkpt lat="46.81032" lon="0.4128">
        <ele>88</ele>
        <time>2019-02-03T10:06:00.000Z</time>
      </trkpt>
      <trkpt lat="46.81032" lon="0.41282">
        <ele>87</ele>
        <time>2019-02-03T10:06:01.000Z</time>
      </trkpt>
      <trkpt lat="46.81032" lon="0.41283">
        <ele>88</ele>
        <time>2019-02-03T10:06:02.000Z</time>
      </trkpt>
      <trkpt lat="46.81032" lon="0.41285">
        <ele>88</ele>
        <time>2019-02-03T10:06:03.000Z</time>
      </trkpt>
      <trkpt lat="46.81031" lon="0.41286">
        <ele>88</ele>
        <time>2019-02-03T10:06:04.000Z</time>
      </trkpt>
      <trkpt lat="46.81031" lon="0.41288">
        <ele>88</ele>
        <time>2019-02-03T10:06:05.000Z</time>
      </trkpt>
      <trkpt lat="46.81031" lon="0.4129">
        <ele>88</ele>
        <time>2019-02-03T10:06:06.000Z</time>
      </trkpt>
      <trkpt lat="46.81031" lon="0.41291">
        <ele>88</ele>
        <time>2019-02-03T10:06:07.000Z</time>
      </trkpt>
      <trkpt lat="46.81031" lon="0.41292">
        <ele>88</ele>
        <time>2019-02-03T10:06:08.000Z</time>
      </trkpt>
      <trkpt lat="46.81031" lon="0.41292">
        <ele>88</ele>
        <time>2019-02-03T10:06:09.000Z</time>
      </trkpt>
      <trkpt lat="46.81031" lon="0.41292">
        <ele>88</ele>
        <time>2019-02-03T10:06:10.000Z</time>
      </trkpt>
      <trkpt lat="46.81031" lon="0.41292">
        <ele>88</ele>
        <time>2019-02-03T10:06:11.000Z</time>
      </trkpt>
      <trkpt lat="46.81031" lon="0.41292">
        <ele>88</ele>
        <time>2019-02-03T10:06:12.000Z</time>
      </trkpt>
    </trkseg>
  </trk>
</gpx>